<?xml version="1.0" encoding="UTF-8" standalone="no" ?>
<gpx xmlns="http://www.topografix.com/GPX/1/1" xmlns:xsi="http://www.w3.org/2001/XMLSchema-instance" xsi:schemaLocation="http://www.topografix.com/GPX/1/1 http://www.topografix.com/GPX/1/1/gpx.xsd" version="1.1" creator="VisuGPX - https://www.visugpx.com">
  <metadata>
    <name>Auxerre / Vezelay  28 Avril 2013</name>
    <desc><![CDATA[Auxerre / Vezelay ]]></desc>
  </metadata>
  <trk>
    <name><![CDATA[Auxerre-vezelay 58 20130428]]></name>
    <trkseg>
      <trkpt lat="47.7789" lon="3.57782">
        <ele>145.78</ele>
        <time>2013-04-28T04:04:23Z</time>
      </trkpt>
      <trkpt lat="47.77886" lon="3.57776">
        <ele>145.78</ele>
        <time>2013-04-28T04:04:27Z</time>
      </trkpt>
      <trkpt lat="47.77883" lon="3.5776">
        <ele>145.78</ele>
        <time>2013-04-28T04:04:39Z</time>
      </trkpt>
      <trkpt lat="47.7788" lon="3.57743">
        <ele>145.78</ele>
        <time>2013-04-28T04:04:50Z</time>
      </trkpt>
      <trkpt lat="47.77875" lon="3.57728">
        <ele>145.78</ele>
        <time>2013-04-28T04:04:58Z</time>
      </trkpt>
      <trkpt lat="47.7787" lon="3.57711">
        <ele>145.3</ele>
        <time>2013-04-28T04:05:06Z</time>
      </trkpt>
      <trkpt lat="47.77864" lon="3.57691">
        <ele>145.3</ele>
        <time>2013-04-28T04:05:16Z</time>
      </trkpt>
      <trkpt lat="47.77859" lon="3.5767">
        <ele>145.3</ele>
        <time>2013-04-28T04:05:27Z</time>
      </trkpt>
      <trkpt lat="47.7785" lon="3.57662">
        <ele>144.82</ele>
        <time>2013-04-28T04:05:35Z</time>
      </trkpt>
      <trkpt lat="47.77836" lon="3.57668">
        <ele>145.3</ele>
        <time>2013-04-28T04:05:46Z</time>
      </trkpt>
      <trkpt lat="47.7782" lon="3.57676">
        <ele>145.3</ele>
        <time>2013-04-28T04:05:58Z</time>
      </trkpt>
      <trkpt lat="47.77819" lon="3.5767">
        <ele>147.22</ele>
        <time>2013-04-28T04:06:07Z</time>
      </trkpt>
      <trkpt lat="47.77812" lon="3.57673">
        <ele>149.14</ele>
        <time>2013-04-28T04:06:12Z</time>
      </trkpt>
      <trkpt lat="47.778" lon="3.57679">
        <ele>152.51</ele>
        <time>2013-04-28T04:06:20Z</time>
      </trkpt>
      <trkpt lat="47.77792" lon="3.57682">
        <ele>154.43</ele>
        <time>2013-04-28T04:06:26Z</time>
      </trkpt>
      <trkpt lat="47.77787" lon="3.57684">
        <ele>156.35</ele>
        <time>2013-04-28T04:06:29Z</time>
      </trkpt>
      <trkpt lat="47.77775" lon="3.5769">
        <ele>158.27</ele>
        <time>2013-04-28T04:06:38Z</time>
      </trkpt>
      <trkpt lat="47.77762" lon="3.57698">
        <ele>160.2</ele>
        <time>2013-04-28T04:06:47Z</time>
      </trkpt>
      <trkpt lat="47.77758" lon="3.57701">
        <ele>161.64</ele>
        <time>2013-04-28T04:06:50Z</time>
      </trkpt>
      <trkpt lat="47.77745" lon="3.57709">
        <ele>162.6</ele>
        <time>2013-04-28T04:07:01Z</time>
      </trkpt>
      <trkpt lat="47.77733" lon="3.57716">
        <ele>164.04</ele>
        <time>2013-04-28T04:07:10Z</time>
      </trkpt>
      <trkpt lat="47.77719" lon="3.57723">
        <ele>165</ele>
        <time>2013-04-28T04:07:20Z</time>
      </trkpt>
      <trkpt lat="47.77703" lon="3.57732">
        <ele>165.96</ele>
        <time>2013-04-28T04:07:31Z</time>
      </trkpt>
      <trkpt lat="47.77689" lon="3.57741">
        <ele>166.93</ele>
        <time>2013-04-28T04:07:42Z</time>
      </trkpt>
      <trkpt lat="47.77672" lon="3.5775">
        <ele>168.37</ele>
        <time>2013-04-28T04:07:55Z</time>
      </trkpt>
      <trkpt lat="47.77658" lon="3.57758">
        <ele>169.33</ele>
        <time>2013-04-28T04:08:06Z</time>
      </trkpt>
      <trkpt lat="47.77649" lon="3.57764">
        <ele>169.33</ele>
        <time>2013-04-28T04:08:13Z</time>
      </trkpt>
      <trkpt lat="47.77632" lon="3.57773">
        <ele>170.77</ele>
        <time>2013-04-28T04:08:26Z</time>
      </trkpt>
      <trkpt lat="47.77618" lon="3.57781">
        <ele>171.25</ele>
        <time>2013-04-28T04:08:37Z</time>
      </trkpt>
      <trkpt lat="47.77602" lon="3.5779">
        <ele>171.73</ele>
        <time>2013-04-28T04:08:49Z</time>
      </trkpt>
      <trkpt lat="47.77586" lon="3.57799">
        <ele>172.69</ele>
        <time>2013-04-28T04:09:01Z</time>
      </trkpt>
      <trkpt lat="47.7757" lon="3.57808">
        <ele>173.66</ele>
        <time>2013-04-28T04:09:13Z</time>
      </trkpt>
      <trkpt lat="47.77553" lon="3.57819">
        <ele>173.66</ele>
        <time>2013-04-28T04:09:25Z</time>
      </trkpt>
      <trkpt lat="47.77539" lon="3.57828">
        <ele>174.14</ele>
        <time>2013-04-28T04:09:36Z</time>
      </trkpt>
      <trkpt lat="47.77533" lon="3.57833">
        <ele>174.62</ele>
        <time>2013-04-28T04:09:41Z</time>
      </trkpt>
      <trkpt lat="47.77517" lon="3.57844">
        <ele>175.1</ele>
        <time>2013-04-28T04:09:53Z</time>
      </trkpt>
      <trkpt lat="47.77504" lon="3.57854">
        <ele>175.58</ele>
        <time>2013-04-28T04:10:03Z</time>
      </trkpt>
      <trkpt lat="47.77491" lon="3.57864">
        <ele>176.06</ele>
        <time>2013-04-28T04:10:13Z</time>
      </trkpt>
      <trkpt lat="47.77475" lon="3.57875">
        <ele>176.06</ele>
        <time>2013-04-28T04:10:25Z</time>
      </trkpt>
      <trkpt lat="47.77458" lon="3.57889">
        <ele>176.54</ele>
        <time>2013-04-28T04:10:37Z</time>
      </trkpt>
      <trkpt lat="47.77445" lon="3.57899">
        <ele>177.02</ele>
        <time>2013-04-28T04:10:47Z</time>
      </trkpt>
      <trkpt lat="47.77432" lon="3.57909">
        <ele>177.5</ele>
        <time>2013-04-28T04:10:56Z</time>
      </trkpt>
      <trkpt lat="47.77421" lon="3.57918">
        <ele>177.5</ele>
        <time>2013-04-28T04:11:04Z</time>
      </trkpt>
      <trkpt lat="47.77409" lon="3.57926">
        <ele>177.5</ele>
        <time>2013-04-28T04:11:13Z</time>
      </trkpt>
      <trkpt lat="47.77395" lon="3.57935">
        <ele>177.98</ele>
        <time>2013-04-28T04:11:23Z</time>
      </trkpt>
      <trkpt lat="47.77383" lon="3.57943">
        <ele>177.98</ele>
        <time>2013-04-28T04:11:32Z</time>
      </trkpt>
      <trkpt lat="47.7737" lon="3.57951">
        <ele>177.5</ele>
        <time>2013-04-28T04:11:41Z</time>
      </trkpt>
      <trkpt lat="47.77355" lon="3.57961">
        <ele>178.46</ele>
        <time>2013-04-28T04:11:52Z</time>
      </trkpt>
      <trkpt lat="47.77343" lon="3.57968">
        <ele>178.46</ele>
        <time>2013-04-28T04:12:01Z</time>
      </trkpt>
      <trkpt lat="47.77327" lon="3.57975">
        <ele>178.46</ele>
        <time>2013-04-28T04:12:12Z</time>
      </trkpt>
      <trkpt lat="47.77313" lon="3.57982">
        <ele>178.94</ele>
        <time>2013-04-28T04:12:22Z</time>
      </trkpt>
      <trkpt lat="47.773" lon="3.57988">
        <ele>179.42</ele>
        <time>2013-04-28T04:12:31Z</time>
      </trkpt>
      <trkpt lat="47.77287" lon="3.57994">
        <ele>179.42</ele>
        <time>2013-04-28T04:12:40Z</time>
      </trkpt>
      <trkpt lat="47.77272" lon="3.57999">
        <ele>180.38</ele>
        <time>2013-04-28T04:12:50Z</time>
      </trkpt>
      <trkpt lat="47.77258" lon="3.58006">
        <ele>179.9</ele>
        <time>2013-04-28T04:13:00Z</time>
      </trkpt>
      <trkpt lat="47.77243" lon="3.58011">
        <ele>179.9</ele>
        <time>2013-04-28T04:13:10Z</time>
      </trkpt>
      <trkpt lat="47.77227" lon="3.58014">
        <ele>180.38</ele>
        <time>2013-04-28T04:13:21Z</time>
      </trkpt>
      <trkpt lat="47.77212" lon="3.58018">
        <ele>180.87</ele>
        <time>2013-04-28T04:13:31Z</time>
      </trkpt>
      <trkpt lat="47.77196" lon="3.58024">
        <ele>181.35</ele>
        <time>2013-04-28T04:13:42Z</time>
      </trkpt>
      <trkpt lat="47.77181" lon="3.58028">
        <ele>181.83</ele>
        <time>2013-04-28T04:13:52Z</time>
      </trkpt>
      <trkpt lat="47.77166" lon="3.58034">
        <ele>181.83</ele>
        <time>2013-04-28T04:14:03Z</time>
      </trkpt>
      <trkpt lat="47.77152" lon="3.5804">
        <ele>182.31</ele>
        <time>2013-04-28T04:14:13Z</time>
      </trkpt>
      <trkpt lat="47.77136" lon="3.58045">
        <ele>182.79</ele>
        <time>2013-04-28T04:14:24Z</time>
      </trkpt>
      <trkpt lat="47.7712" lon="3.58053">
        <ele>182.79</ele>
        <time>2013-04-28T04:14:35Z</time>
      </trkpt>
      <trkpt lat="47.77103" lon="3.58061">
        <ele>183.27</ele>
        <time>2013-04-28T04:14:47Z</time>
      </trkpt>
      <trkpt lat="47.77086" lon="3.58066">
        <ele>183.27</ele>
        <time>2013-04-28T04:14:58Z</time>
      </trkpt>
      <trkpt lat="47.77073" lon="3.58072">
        <ele>183.75</ele>
        <time>2013-04-28T04:15:07Z</time>
      </trkpt>
      <trkpt lat="47.77056" lon="3.58079">
        <ele>183.75</ele>
        <time>2013-04-28T04:15:18Z</time>
      </trkpt>
      <trkpt lat="47.77038" lon="3.58088">
        <ele>183.75</ele>
        <time>2013-04-28T04:15:30Z</time>
      </trkpt>
      <trkpt lat="47.77026" lon="3.58095">
        <ele>183.75</ele>
        <time>2013-04-28T04:15:39Z</time>
      </trkpt>
      <trkpt lat="47.77012" lon="3.58103">
        <ele>184.23</ele>
        <time>2013-04-28T04:15:48Z</time>
      </trkpt>
      <trkpt lat="47.76996" lon="3.58112">
        <ele>183.27</ele>
        <time>2013-04-28T04:16:00Z</time>
      </trkpt>
      <trkpt lat="47.76983" lon="3.5812">
        <ele>183.27</ele>
        <time>2013-04-28T04:16:10Z</time>
      </trkpt>
      <trkpt lat="47.76972" lon="3.58126">
        <ele>182.79</ele>
        <time>2013-04-28T04:16:19Z</time>
      </trkpt>
      <trkpt lat="47.76956" lon="3.58137">
        <ele>181.83</ele>
        <time>2013-04-28T04:16:31Z</time>
      </trkpt>
      <trkpt lat="47.7694" lon="3.58148">
        <ele>179.9</ele>
        <time>2013-04-28T04:16:43Z</time>
      </trkpt>
      <trkpt lat="47.76925" lon="3.58159">
        <ele>178.94</ele>
        <time>2013-04-28T04:16:54Z</time>
      </trkpt>
      <trkpt lat="47.7691" lon="3.58169">
        <ele>178.46</ele>
        <time>2013-04-28T04:17:05Z</time>
      </trkpt>
      <trkpt lat="47.76894" lon="3.58181">
        <ele>177.5</ele>
        <time>2013-04-28T04:17:16Z</time>
      </trkpt>
      <trkpt lat="47.7688" lon="3.58191">
        <ele>177.98</ele>
        <time>2013-04-28T04:17:27Z</time>
      </trkpt>
      <trkpt lat="47.76865" lon="3.58203">
        <ele>177.02</ele>
        <time>2013-04-28T04:17:39Z</time>
      </trkpt>
      <trkpt lat="47.76848" lon="3.58214">
        <ele>175.58</ele>
        <time>2013-04-28T04:17:51Z</time>
      </trkpt>
      <trkpt lat="47.76835" lon="3.58226">
        <ele>174.62</ele>
        <time>2013-04-28T04:18:01Z</time>
      </trkpt>
      <trkpt lat="47.76821" lon="3.58234">
        <ele>173.66</ele>
        <time>2013-04-28T04:18:11Z</time>
      </trkpt>
      <trkpt lat="47.76802" lon="3.58244">
        <ele>173.17</ele>
        <time>2013-04-28T04:18:25Z</time>
      </trkpt>
      <trkpt lat="47.76786" lon="3.58254">
        <ele>174.14</ele>
        <time>2013-04-28T04:18:36Z</time>
      </trkpt>
      <trkpt lat="47.76769" lon="3.58261">
        <ele>174.14</ele>
        <time>2013-04-28T04:18:47Z</time>
      </trkpt>
      <trkpt lat="47.76758" lon="3.58267">
        <ele>175.1</ele>
        <time>2013-04-28T04:18:55Z</time>
      </trkpt>
      <trkpt lat="47.76743" lon="3.58274">
        <ele>175.1</ele>
        <time>2013-04-28T04:19:05Z</time>
      </trkpt>
      <trkpt lat="47.76727" lon="3.58282">
        <ele>176.54</ele>
        <time>2013-04-28T04:19:16Z</time>
      </trkpt>
      <trkpt lat="47.76714" lon="3.58288">
        <ele>177.02</ele>
        <time>2013-04-28T04:19:26Z</time>
      </trkpt>
      <trkpt lat="47.767" lon="3.58297">
        <ele>178.94</ele>
        <time>2013-04-28T04:19:36Z</time>
      </trkpt>
      <trkpt lat="47.76689" lon="3.58303">
        <ele>179.42</ele>
        <time>2013-04-28T04:19:44Z</time>
      </trkpt>
      <trkpt lat="47.76677" lon="3.58312">
        <ele>181.83</ele>
        <time>2013-04-28T04:19:54Z</time>
      </trkpt>
      <trkpt lat="47.76668" lon="3.58317">
        <ele>183.27</ele>
        <time>2013-04-28T04:20:01Z</time>
      </trkpt>
      <trkpt lat="47.76653" lon="3.58328">
        <ele>185.19</ele>
        <time>2013-04-28T04:20:12Z</time>
      </trkpt>
      <trkpt lat="47.76643" lon="3.58334">
        <ele>186.15</ele>
        <time>2013-04-28T04:20:20Z</time>
      </trkpt>
      <trkpt lat="47.7663" lon="3.58344">
        <ele>187.11</ele>
        <time>2013-04-28T04:20:30Z</time>
      </trkpt>
      <trkpt lat="47.7662" lon="3.58352">
        <ele>187.59</ele>
        <time>2013-04-28T04:20:38Z</time>
      </trkpt>
      <trkpt lat="47.76608" lon="3.5836">
        <ele>188.08</ele>
        <time>2013-04-28T04:20:47Z</time>
      </trkpt>
      <trkpt lat="47.766" lon="3.58365">
        <ele>186.63</ele>
        <time>2013-04-28T04:20:54Z</time>
      </trkpt>
      <trkpt lat="47.76595" lon="3.58368">
        <ele>183.75</ele>
        <time>2013-04-28T04:20:58Z</time>
      </trkpt>
      <trkpt lat="47.76593" lon="3.58369">
        <ele>185.19</ele>
        <time>2013-04-28T04:20:59Z</time>
      </trkpt>
      <trkpt lat="47.76592" lon="3.58369">
        <ele>188.56</ele>
        <time>2013-04-28T04:21:00Z</time>
      </trkpt>
      <trkpt lat="47.76591" lon="3.5837">
        <ele>192.88</ele>
        <time>2013-04-28T04:21:01Z</time>
      </trkpt>
      <trkpt lat="47.7659" lon="3.58371">
        <ele>190</ele>
        <time>2013-04-28T04:21:02Z</time>
      </trkpt>
      <trkpt lat="47.76577" lon="3.58378">
        <ele>189.52</ele>
        <time>2013-04-28T04:21:11Z</time>
      </trkpt>
      <trkpt lat="47.76555" lon="3.58391">
        <ele>192.4</ele>
        <time>2013-04-28T04:21:27Z</time>
      </trkpt>
      <trkpt lat="47.76543" lon="3.584">
        <ele>191.44</ele>
        <time>2013-04-28T04:21:36Z</time>
      </trkpt>
      <trkpt lat="47.76529" lon="3.58407">
        <ele>191.92</ele>
        <time>2013-04-28T04:21:46Z</time>
      </trkpt>
      <trkpt lat="47.76516" lon="3.58413">
        <ele>192.88</ele>
        <time>2013-04-28T04:21:55Z</time>
      </trkpt>
      <trkpt lat="47.76503" lon="3.5842">
        <ele>192.88</ele>
        <time>2013-04-28T04:22:04Z</time>
      </trkpt>
      <trkpt lat="47.76488" lon="3.58425">
        <ele>193.36</ele>
        <time>2013-04-28T04:22:14Z</time>
      </trkpt>
      <trkpt lat="47.76477" lon="3.58431">
        <ele>193.36</ele>
        <time>2013-04-28T04:22:22Z</time>
      </trkpt>
      <trkpt lat="47.76462" lon="3.58437">
        <ele>193.36</ele>
        <time>2013-04-28T04:22:32Z</time>
      </trkpt>
      <trkpt lat="47.76447" lon="3.58442">
        <ele>193.84</ele>
        <time>2013-04-28T04:22:42Z</time>
      </trkpt>
      <trkpt lat="47.76435" lon="3.58448">
        <ele>194.32</ele>
        <time>2013-04-28T04:22:51Z</time>
      </trkpt>
      <trkpt lat="47.76418" lon="3.58454">
        <ele>195.28</ele>
        <time>2013-04-28T04:23:02Z</time>
      </trkpt>
      <trkpt lat="47.76402" lon="3.58461">
        <ele>195.28</ele>
        <time>2013-04-28T04:23:13Z</time>
      </trkpt>
      <trkpt lat="47.76385" lon="3.58469">
        <ele>196.25</ele>
        <time>2013-04-28T04:23:24Z</time>
      </trkpt>
      <trkpt lat="47.76373" lon="3.58474">
        <ele>196.73</ele>
        <time>2013-04-28T04:23:33Z</time>
      </trkpt>
      <trkpt lat="47.76359" lon="3.5848">
        <ele>197.21</ele>
        <time>2013-04-28T04:23:43Z</time>
      </trkpt>
      <trkpt lat="47.76341" lon="3.58486">
        <ele>196.73</ele>
        <time>2013-04-28T04:23:54Z</time>
      </trkpt>
      <trkpt lat="47.76328" lon="3.58493">
        <ele>197.21</ele>
        <time>2013-04-28T04:24:03Z</time>
      </trkpt>
      <trkpt lat="47.76311" lon="3.585">
        <ele>196.25</ele>
        <time>2013-04-28T04:24:14Z</time>
      </trkpt>
      <trkpt lat="47.76296" lon="3.58507">
        <ele>195.28</ele>
        <time>2013-04-28T04:24:24Z</time>
      </trkpt>
      <trkpt lat="47.76278" lon="3.58515">
        <ele>194.8</ele>
        <time>2013-04-28T04:24:36Z</time>
      </trkpt>
      <trkpt lat="47.76264" lon="3.58523">
        <ele>193.36</ele>
        <time>2013-04-28T04:24:46Z</time>
      </trkpt>
      <trkpt lat="47.76249" lon="3.58531">
        <ele>192.4</ele>
        <time>2013-04-28T04:24:56Z</time>
      </trkpt>
      <trkpt lat="47.76235" lon="3.58536">
        <ele>191.44</ele>
        <time>2013-04-28T04:25:06Z</time>
      </trkpt>
      <trkpt lat="47.76219" lon="3.58541">
        <ele>190.96</ele>
        <time>2013-04-28T04:25:16Z</time>
      </trkpt>
      <trkpt lat="47.76202" lon="3.58546">
        <ele>190.48</ele>
        <time>2013-04-28T04:25:27Z</time>
      </trkpt>
      <trkpt lat="47.76184" lon="3.58556">
        <ele>189.52</ele>
        <time>2013-04-28T04:25:38Z</time>
      </trkpt>
      <trkpt lat="47.7617" lon="3.58563">
        <ele>189.52</ele>
        <time>2013-04-28T04:25:48Z</time>
      </trkpt>
      <trkpt lat="47.76154" lon="3.58568">
        <ele>190.48</ele>
        <time>2013-04-28T04:25:58Z</time>
      </trkpt>
      <trkpt lat="47.76143" lon="3.58574">
        <ele>190</ele>
        <time>2013-04-28T04:26:06Z</time>
      </trkpt>
      <trkpt lat="47.7613" lon="3.58579">
        <ele>190.48</ele>
        <time>2013-04-28T04:26:15Z</time>
      </trkpt>
      <trkpt lat="47.76115" lon="3.58587">
        <ele>190.48</ele>
        <time>2013-04-28T04:26:25Z</time>
      </trkpt>
      <trkpt lat="47.761" lon="3.58594">
        <ele>190.48</ele>
        <time>2013-04-28T04:26:35Z</time>
      </trkpt>
      <trkpt lat="47.76083" lon="3.58605">
        <ele>189.52</ele>
        <time>2013-04-28T04:26:47Z</time>
      </trkpt>
      <trkpt lat="47.7607" lon="3.58615">
        <ele>189.52</ele>
        <time>2013-04-28T04:26:57Z</time>
      </trkpt>
      <trkpt lat="47.76057" lon="3.58626">
        <ele>190</ele>
        <time>2013-04-28T04:27:06Z</time>
      </trkpt>
      <trkpt lat="47.76046" lon="3.58636">
        <ele>189.04</ele>
        <time>2013-04-28T04:27:15Z</time>
      </trkpt>
      <trkpt lat="47.76035" lon="3.58645">
        <ele>188.56</ele>
        <time>2013-04-28T04:27:24Z</time>
      </trkpt>
      <trkpt lat="47.7602" lon="3.5866">
        <ele>188.08</ele>
        <time>2013-04-28T04:27:35Z</time>
      </trkpt>
      <trkpt lat="47.76009" lon="3.58668">
        <ele>186.63</ele>
        <time>2013-04-28T04:27:44Z</time>
      </trkpt>
      <trkpt lat="47.75997" lon="3.58679">
        <ele>186.63</ele>
        <time>2013-04-28T04:27:53Z</time>
      </trkpt>
      <trkpt lat="47.75984" lon="3.58689">
        <ele>185.67</ele>
        <time>2013-04-28T04:28:02Z</time>
      </trkpt>
      <trkpt lat="47.75971" lon="3.58701">
        <ele>184.71</ele>
        <time>2013-04-28T04:28:12Z</time>
      </trkpt>
      <trkpt lat="47.75955" lon="3.58712">
        <ele>184.23</ele>
        <time>2013-04-28T04:28:23Z</time>
      </trkpt>
      <trkpt lat="47.7594" lon="3.58727">
        <ele>183.27</ele>
        <time>2013-04-28T04:28:35Z</time>
      </trkpt>
      <trkpt lat="47.75928" lon="3.58734">
        <ele>182.31</ele>
        <time>2013-04-28T04:28:43Z</time>
      </trkpt>
      <trkpt lat="47.75916" lon="3.5874">
        <ele>180.87</ele>
        <time>2013-04-28T04:28:52Z</time>
      </trkpt>
      <trkpt lat="47.75905" lon="3.58746">
        <ele>178.94</ele>
        <time>2013-04-28T04:29:00Z</time>
      </trkpt>
      <trkpt lat="47.75895" lon="3.58751">
        <ele>177.02</ele>
        <time>2013-04-28T04:29:09Z</time>
      </trkpt>
      <trkpt lat="47.75884" lon="3.58751">
        <ele>173.17</ele>
        <time>2013-04-28T04:29:19Z</time>
      </trkpt>
      <trkpt lat="47.75873" lon="3.58753">
        <ele>170.77</ele>
        <time>2013-04-28T04:29:27Z</time>
      </trkpt>
      <trkpt lat="47.75864" lon="3.58755">
        <ele>167.41</ele>
        <time>2013-04-28T04:29:34Z</time>
      </trkpt>
      <trkpt lat="47.75853" lon="3.58757">
        <ele>165</ele>
        <time>2013-04-28T04:29:42Z</time>
      </trkpt>
      <trkpt lat="47.75846" lon="3.58757">
        <ele>163.08</ele>
        <time>2013-04-28T04:29:47Z</time>
      </trkpt>
      <trkpt lat="47.75836" lon="3.58759">
        <ele>159.72</ele>
        <time>2013-04-28T04:29:55Z</time>
      </trkpt>
      <trkpt lat="47.75833" lon="3.58759">
        <ele>158.27</ele>
        <time>2013-04-28T04:29:59Z</time>
      </trkpt>
      <trkpt lat="47.75828" lon="3.58758">
        <ele>156.35</ele>
        <time>2013-04-28T04:30:03Z</time>
      </trkpt>
      <trkpt lat="47.75817" lon="3.58756">
        <ele>153.47</ele>
        <time>2013-04-28T04:30:12Z</time>
      </trkpt>
      <trkpt lat="47.75806" lon="3.58754">
        <ele>150.1</ele>
        <time>2013-04-28T04:30:22Z</time>
      </trkpt>
      <trkpt lat="47.75801" lon="3.58754">
        <ele>148.66</ele>
        <time>2013-04-28T04:30:25Z</time>
      </trkpt>
      <trkpt lat="47.7579" lon="3.58755">
        <ele>146.26</ele>
        <time>2013-04-28T04:30:34Z</time>
      </trkpt>
      <trkpt lat="47.75782" lon="3.58758">
        <ele>142.41</ele>
        <time>2013-04-28T04:30:42Z</time>
      </trkpt>
      <trkpt lat="47.75774" lon="3.58759">
        <ele>140.49</ele>
        <time>2013-04-28T04:30:49Z</time>
      </trkpt>
      <trkpt lat="47.75773" lon="3.58759">
        <ele>140.01</ele>
        <time>2013-04-28T04:30:50Z</time>
      </trkpt>
      <trkpt lat="47.75762" lon="3.58764">
        <ele>137.61</ele>
        <time>2013-04-28T04:30:58Z</time>
      </trkpt>
      <trkpt lat="47.75751" lon="3.58768">
        <ele>135.2</ele>
        <time>2013-04-28T04:31:07Z</time>
      </trkpt>
      <trkpt lat="47.75742" lon="3.5877">
        <ele>131.84</ele>
        <time>2013-04-28T04:31:15Z</time>
      </trkpt>
      <trkpt lat="47.75731" lon="3.5877">
        <ele>129.43</ele>
        <time>2013-04-28T04:31:24Z</time>
      </trkpt>
      <trkpt lat="47.75721" lon="3.58775">
        <ele>127.03</ele>
        <time>2013-04-28T04:31:32Z</time>
      </trkpt>
      <trkpt lat="47.75718" lon="3.58776">
        <ele>125.59</ele>
        <time>2013-04-28T04:31:34Z</time>
      </trkpt>
      <trkpt lat="47.75711" lon="3.58781">
        <ele>123.19</ele>
        <time>2013-04-28T04:31:43Z</time>
      </trkpt>
      <trkpt lat="47.75703" lon="3.58785">
        <ele>119.34</ele>
        <time>2013-04-28T04:31:52Z</time>
      </trkpt>
      <trkpt lat="47.75692" lon="3.5879">
        <ele>117.42</ele>
        <time>2013-04-28T04:32:00Z</time>
      </trkpt>
      <trkpt lat="47.75683" lon="3.58797">
        <ele>114.53</ele>
        <time>2013-04-28T04:32:07Z</time>
      </trkpt>
      <trkpt lat="47.75664" lon="3.58809">
        <ele>111.65</ele>
        <time>2013-04-28T04:32:17Z</time>
      </trkpt>
      <trkpt lat="47.75652" lon="3.58819">
        <ele>109.73</ele>
        <time>2013-04-28T04:32:26Z</time>
      </trkpt>
      <trkpt lat="47.75643" lon="3.58824">
        <ele>107.81</ele>
        <time>2013-04-28T04:32:33Z</time>
      </trkpt>
      <trkpt lat="47.75629" lon="3.5883">
        <ele>106.36</ele>
        <time>2013-04-28T04:32:41Z</time>
      </trkpt>
      <trkpt lat="47.75618" lon="3.58834">
        <ele>105.4</ele>
        <time>2013-04-28T04:32:48Z</time>
      </trkpt>
      <trkpt lat="47.7561" lon="3.58852">
        <ele>103.96</ele>
        <time>2013-04-28T04:32:57Z</time>
      </trkpt>
      <trkpt lat="47.75604" lon="3.5887">
        <ele>103.96</ele>
        <time>2013-04-28T04:33:05Z</time>
      </trkpt>
      <trkpt lat="47.75599" lon="3.5889">
        <ele>103.48</ele>
        <time>2013-04-28T04:33:15Z</time>
      </trkpt>
      <trkpt lat="47.75596" lon="3.58898">
        <ele>103</ele>
        <time>2013-04-28T04:33:20Z</time>
      </trkpt>
      <trkpt lat="47.75592" lon="3.5892">
        <ele>102.52</ele>
        <time>2013-04-28T04:33:30Z</time>
      </trkpt>
      <trkpt lat="47.75587" lon="3.58942">
        <ele>102.04</ele>
        <time>2013-04-28T04:33:39Z</time>
      </trkpt>
      <trkpt lat="47.75583" lon="3.5896">
        <ele>101.56</ele>
        <time>2013-04-28T04:33:48Z</time>
      </trkpt>
      <trkpt lat="47.75572" lon="3.58967">
        <ele>101.08</ele>
        <time>2013-04-28T04:33:56Z</time>
      </trkpt>
      <trkpt lat="47.75562" lon="3.58972">
        <ele>100.6</ele>
        <time>2013-04-28T04:34:04Z</time>
      </trkpt>
      <trkpt lat="47.75554" lon="3.58973">
        <ele>100.11</ele>
        <time>2013-04-28T04:34:12Z</time>
      </trkpt>
      <trkpt lat="47.75548" lon="3.58977">
        <ele>99.63</ele>
        <time>2013-04-28T04:34:17Z</time>
      </trkpt>
      <trkpt lat="47.75542" lon="3.58977">
        <ele>100.11</ele>
        <time>2013-04-28T04:34:20Z</time>
      </trkpt>
      <trkpt lat="47.75533" lon="3.58981">
        <ele>99.63</ele>
        <time>2013-04-28T04:34:24Z</time>
      </trkpt>
      <trkpt lat="47.75516" lon="3.58985">
        <ele>99.63</ele>
        <time>2013-04-28T04:34:34Z</time>
      </trkpt>
      <trkpt lat="47.75501" lon="3.58983">
        <ele>98.67</ele>
        <time>2013-04-28T04:34:44Z</time>
      </trkpt>
      <trkpt lat="47.75487" lon="3.58988">
        <ele>99.15</ele>
        <time>2013-04-28T04:34:54Z</time>
      </trkpt>
      <trkpt lat="47.75476" lon="3.59">
        <ele>99.15</ele>
        <time>2013-04-28T04:35:03Z</time>
      </trkpt>
      <trkpt lat="47.75468" lon="3.59016">
        <ele>99.63</ele>
        <time>2013-04-28T04:35:11Z</time>
      </trkpt>
      <trkpt lat="47.75462" lon="3.59032">
        <ele>100.6</ele>
        <time>2013-04-28T04:35:19Z</time>
      </trkpt>
      <trkpt lat="47.75455" lon="3.59046">
        <ele>101.08</ele>
        <time>2013-04-28T04:35:28Z</time>
      </trkpt>
      <trkpt lat="47.7545" lon="3.59059">
        <ele>101.56</ele>
        <time>2013-04-28T04:35:35Z</time>
      </trkpt>
      <trkpt lat="47.75444" lon="3.59076">
        <ele>101.56</ele>
        <time>2013-04-28T04:35:44Z</time>
      </trkpt>
      <trkpt lat="47.75438" lon="3.59093">
        <ele>101.56</ele>
        <time>2013-04-28T04:35:53Z</time>
      </trkpt>
      <trkpt lat="47.75431" lon="3.59113">
        <ele>101.56</ele>
        <time>2013-04-28T04:36:03Z</time>
      </trkpt>
      <trkpt lat="47.75424" lon="3.5913">
        <ele>101.56</ele>
        <time>2013-04-28T04:36:12Z</time>
      </trkpt>
      <trkpt lat="47.75417" lon="3.59146">
        <ele>101.56</ele>
        <time>2013-04-28T04:36:20Z</time>
      </trkpt>
      <trkpt lat="47.75411" lon="3.59162">
        <ele>101.08</ele>
        <time>2013-04-28T04:36:28Z</time>
      </trkpt>
      <trkpt lat="47.75405" lon="3.59173">
        <ele>101.56</ele>
        <time>2013-04-28T04:36:36Z</time>
      </trkpt>
      <trkpt lat="47.75403" lon="3.59169">
        <ele>100.11</ele>
        <time>2013-04-28T04:36:41Z</time>
      </trkpt>
      <trkpt lat="47.75402" lon="3.59166">
        <ele>98.19</ele>
        <time>2013-04-28T04:36:45Z</time>
      </trkpt>
      <trkpt lat="47.75402" lon="3.59163">
        <ele>97.71</ele>
        <time>2013-04-28T04:36:47Z</time>
      </trkpt>
      <trkpt lat="47.75402" lon="3.59154">
        <ele>97.23</ele>
        <time>2013-04-28T04:36:52Z</time>
      </trkpt>
      <trkpt lat="47.75394" lon="3.59148">
        <ele>96.75</ele>
        <time>2013-04-28T04:37:00Z</time>
      </trkpt>
      <trkpt lat="47.75382" lon="3.5914">
        <ele>97.23</ele>
        <time>2013-04-28T04:37:10Z</time>
      </trkpt>
      <trkpt lat="47.7537" lon="3.5913">
        <ele>96.75</ele>
        <time>2013-04-28T04:37:20Z</time>
      </trkpt>
      <trkpt lat="47.75359" lon="3.59121">
        <ele>97.23</ele>
        <time>2013-04-28T04:37:30Z</time>
      </trkpt>
      <trkpt lat="47.75346" lon="3.5911">
        <ele>96.75</ele>
        <time>2013-04-28T04:37:38Z</time>
      </trkpt>
      <trkpt lat="47.75336" lon="3.59096">
        <ele>97.23</ele>
        <time>2013-04-28T04:37:46Z</time>
      </trkpt>
      <trkpt lat="47.75323" lon="3.59085">
        <ele>97.23</ele>
        <time>2013-04-28T04:37:54Z</time>
      </trkpt>
      <trkpt lat="47.75315" lon="3.59076">
        <ele>97.71</ele>
        <time>2013-04-28T04:38:01Z</time>
      </trkpt>
      <trkpt lat="47.75307" lon="3.5907">
        <ele>96.75</ele>
        <time>2013-04-28T04:38:09Z</time>
      </trkpt>
      <trkpt lat="47.75296" lon="3.59059">
        <ele>96.75</ele>
        <time>2013-04-28T04:38:16Z</time>
      </trkpt>
      <trkpt lat="47.75284" lon="3.5905">
        <ele>97.71</ele>
        <time>2013-04-28T04:38:26Z</time>
      </trkpt>
      <trkpt lat="47.75278" lon="3.59047">
        <ele>97.23</ele>
        <time>2013-04-28T04:38:34Z</time>
      </trkpt>
      <trkpt lat="47.75271" lon="3.5904">
        <ele>97.23</ele>
        <time>2013-04-28T04:38:39Z</time>
      </trkpt>
      <trkpt lat="47.7526" lon="3.59033">
        <ele>97.71</ele>
        <time>2013-04-28T04:38:47Z</time>
      </trkpt>
      <trkpt lat="47.75255" lon="3.59031">
        <ele>97.23</ele>
        <time>2013-04-28T04:38:51Z</time>
      </trkpt>
      <trkpt lat="47.75252" lon="3.59029">
        <ele>97.71</ele>
        <time>2013-04-28T04:38:53Z</time>
      </trkpt>
      <trkpt lat="47.75242" lon="3.59024">
        <ele>97.23</ele>
        <time>2013-04-28T04:39:01Z</time>
      </trkpt>
      <trkpt lat="47.75239" lon="3.59021">
        <ele>97.23</ele>
        <time>2013-04-28T04:39:03Z</time>
      </trkpt>
      <trkpt lat="47.75227" lon="3.59012">
        <ele>97.23</ele>
        <time>2013-04-28T04:39:11Z</time>
      </trkpt>
      <trkpt lat="47.75214" lon="3.59003">
        <ele>97.23</ele>
        <time>2013-04-28T04:39:19Z</time>
      </trkpt>
      <trkpt lat="47.75203" lon="3.58997">
        <ele>97.71</ele>
        <time>2013-04-28T04:39:29Z</time>
      </trkpt>
      <trkpt lat="47.75194" lon="3.5899">
        <ele>97.23</ele>
        <time>2013-04-28T04:39:37Z</time>
      </trkpt>
      <trkpt lat="47.75184" lon="3.58978">
        <ele>96.75</ele>
        <time>2013-04-28T04:39:45Z</time>
      </trkpt>
      <trkpt lat="47.75173" lon="3.58973">
        <ele>96.75</ele>
        <time>2013-04-28T04:39:52Z</time>
      </trkpt>
      <trkpt lat="47.75164" lon="3.58966">
        <ele>96.27</ele>
        <time>2013-04-28T04:40:00Z</time>
      </trkpt>
      <trkpt lat="47.75157" lon="3.58958">
        <ele>96.75</ele>
        <time>2013-04-28T04:40:08Z</time>
      </trkpt>
      <trkpt lat="47.75144" lon="3.58951">
        <ele>96.75</ele>
        <time>2013-04-28T04:40:15Z</time>
      </trkpt>
      <trkpt lat="47.7513" lon="3.58945">
        <ele>96.75</ele>
        <time>2013-04-28T04:40:24Z</time>
      </trkpt>
      <trkpt lat="47.75117" lon="3.58937">
        <ele>96.75</ele>
        <time>2013-04-28T04:40:33Z</time>
      </trkpt>
      <trkpt lat="47.75104" lon="3.58932">
        <ele>96.75</ele>
        <time>2013-04-28T04:40:41Z</time>
      </trkpt>
      <trkpt lat="47.75094" lon="3.58929">
        <ele>96.75</ele>
        <time>2013-04-28T04:40:48Z</time>
      </trkpt>
      <trkpt lat="47.75083" lon="3.58925">
        <ele>96.75</ele>
        <time>2013-04-28T04:40:56Z</time>
      </trkpt>
      <trkpt lat="47.7507" lon="3.5892">
        <ele>96.27</ele>
        <time>2013-04-28T04:41:05Z</time>
      </trkpt>
      <trkpt lat="47.75067" lon="3.5892">
        <ele>97.23</ele>
        <time>2013-04-28T04:41:14Z</time>
      </trkpt>
      <trkpt lat="47.75063" lon="3.5892">
        <ele>97.23</ele>
        <time>2013-04-28T04:41:24Z</time>
      </trkpt>
      <trkpt lat="47.7506" lon="3.5892">
        <ele>96.75</ele>
        <time>2013-04-28T04:41:33Z</time>
      </trkpt>
      <trkpt lat="47.7506" lon="3.58918">
        <ele>97.23</ele>
        <time>2013-04-28T04:41:44Z</time>
      </trkpt>
      <trkpt lat="47.75059" lon="3.58915">
        <ele>96.75</ele>
        <time>2013-04-28T04:41:57Z</time>
      </trkpt>
      <trkpt lat="47.75059" lon="3.58918">
        <ele>97.23</ele>
        <time>2013-04-28T04:42:09Z</time>
      </trkpt>
      <trkpt lat="47.75062" lon="3.58916">
        <ele>97.71</ele>
        <time>2013-04-28T04:42:22Z</time>
      </trkpt>
      <trkpt lat="47.75063" lon="3.58913">
        <ele>97.23</ele>
        <time>2013-04-28T04:42:34Z</time>
      </trkpt>
      <trkpt lat="47.75065" lon="3.5891">
        <ele>97.71</ele>
        <time>2013-04-28T04:42:49Z</time>
      </trkpt>
      <trkpt lat="47.75062" lon="3.58911">
        <ele>97.71</ele>
        <time>2013-04-28T04:43:03Z</time>
      </trkpt>
      <trkpt lat="47.75065" lon="3.58911">
        <ele>97.71</ele>
        <time>2013-04-28T04:43:16Z</time>
      </trkpt>
      <trkpt lat="47.75055" lon="3.58908">
        <ele>97.71</ele>
        <time>2013-04-28T04:43:30Z</time>
      </trkpt>
      <trkpt lat="47.75052" lon="3.58907">
        <ele>97.71</ele>
        <time>2013-04-28T04:43:42Z</time>
      </trkpt>
      <trkpt lat="47.75048" lon="3.5891">
        <ele>98.19</ele>
        <time>2013-04-28T04:43:55Z</time>
      </trkpt>
      <trkpt lat="47.75049" lon="3.58909">
        <ele>97.71</ele>
        <time>2013-04-28T04:44:07Z</time>
      </trkpt>
      <trkpt lat="47.75048" lon="3.58908">
        <ele>98.19</ele>
        <time>2013-04-28T04:44:19Z</time>
      </trkpt>
      <trkpt lat="47.7505" lon="3.58915">
        <ele>97.71</ele>
        <time>2013-04-28T04:44:36Z</time>
      </trkpt>
      <trkpt lat="47.75047" lon="3.58915">
        <ele>98.19</ele>
        <time>2013-04-28T04:44:49Z</time>
      </trkpt>
      <trkpt lat="47.75046" lon="3.58915">
        <ele>98.67</ele>
        <time>2013-04-28T04:45:06Z</time>
      </trkpt>
      <trkpt lat="47.75048" lon="3.58909">
        <ele>98.67</ele>
        <time>2013-04-28T04:45:21Z</time>
      </trkpt>
      <trkpt lat="47.75047" lon="3.5891">
        <ele>95.31</ele>
        <time>2013-04-28T04:45:24Z</time>
      </trkpt>
      <trkpt lat="47.75047" lon="3.58911">
        <ele>98.67</ele>
        <time>2013-04-28T04:45:27Z</time>
      </trkpt>
      <trkpt lat="47.75046" lon="3.58915">
        <ele>98.67</ele>
        <time>2013-04-28T04:45:34Z</time>
      </trkpt>
      <trkpt lat="47.75042" lon="3.58912">
        <ele>98.67</ele>
        <time>2013-04-28T04:45:47Z</time>
      </trkpt>
      <trkpt lat="47.75037" lon="3.58906">
        <ele>98.67</ele>
        <time>2013-04-28T04:45:55Z</time>
      </trkpt>
      <trkpt lat="47.75032" lon="3.58902">
        <ele>98.67</ele>
        <time>2013-04-28T04:46:01Z</time>
      </trkpt>
      <trkpt lat="47.75022" lon="3.58902">
        <ele>98.67</ele>
        <time>2013-04-28T04:46:09Z</time>
      </trkpt>
      <trkpt lat="47.75018" lon="3.58901">
        <ele>98.19</ele>
        <time>2013-04-28T04:46:11Z</time>
      </trkpt>
      <trkpt lat="47.75012" lon="3.58902">
        <ele>99.15</ele>
        <time>2013-04-28T04:46:19Z</time>
      </trkpt>
      <trkpt lat="47.75" lon="3.58901">
        <ele>99.15</ele>
        <time>2013-04-28T04:46:26Z</time>
      </trkpt>
      <trkpt lat="47.74996" lon="3.58898">
        <ele>99.15</ele>
        <time>2013-04-28T04:46:30Z</time>
      </trkpt>
      <trkpt lat="47.74984" lon="3.58896">
        <ele>99.15</ele>
        <time>2013-04-28T04:46:39Z</time>
      </trkpt>
      <trkpt lat="47.74974" lon="3.58889">
        <ele>98.67</ele>
        <time>2013-04-28T04:46:45Z</time>
      </trkpt>
      <trkpt lat="47.74952" lon="3.5888">
        <ele>99.15</ele>
        <time>2013-04-28T04:46:54Z</time>
      </trkpt>
      <trkpt lat="47.74944" lon="3.58877">
        <ele>98.67</ele>
        <time>2013-04-28T04:47:03Z</time>
      </trkpt>
      <trkpt lat="47.74938" lon="3.58874">
        <ele>99.63</ele>
        <time>2013-04-28T04:47:11Z</time>
      </trkpt>
      <trkpt lat="47.74935" lon="3.58874">
        <ele>99.15</ele>
        <time>2013-04-28T04:47:14Z</time>
      </trkpt>
      <trkpt lat="47.74921" lon="3.58866">
        <ele>99.63</ele>
        <time>2013-04-28T04:47:24Z</time>
      </trkpt>
      <trkpt lat="47.74908" lon="3.58857">
        <ele>99.63</ele>
        <time>2013-04-28T04:47:32Z</time>
      </trkpt>
      <trkpt lat="47.74899" lon="3.58853">
        <ele>100.11</ele>
        <time>2013-04-28T04:47:37Z</time>
      </trkpt>
      <trkpt lat="47.7488" lon="3.58842">
        <ele>99.63</ele>
        <time>2013-04-28T04:47:47Z</time>
      </trkpt>
      <trkpt lat="47.74872" lon="3.58835">
        <ele>100.11</ele>
        <time>2013-04-28T04:47:55Z</time>
      </trkpt>
      <trkpt lat="47.74857" lon="3.58827">
        <ele>100.11</ele>
        <time>2013-04-28T04:48:05Z</time>
      </trkpt>
      <trkpt lat="47.74846" lon="3.58821">
        <ele>100.11</ele>
        <time>2013-04-28T04:48:15Z</time>
      </trkpt>
      <trkpt lat="47.74834" lon="3.58814">
        <ele>100.6</ele>
        <time>2013-04-28T04:48:22Z</time>
      </trkpt>
      <trkpt lat="47.74824" lon="3.58804">
        <ele>99.63</ele>
        <time>2013-04-28T04:48:31Z</time>
      </trkpt>
      <trkpt lat="47.74808" lon="3.58801">
        <ele>99.63</ele>
        <time>2013-04-28T04:48:38Z</time>
      </trkpt>
      <trkpt lat="47.74802" lon="3.58798">
        <ele>100.11</ele>
        <time>2013-04-28T04:48:45Z</time>
      </trkpt>
      <trkpt lat="47.74796" lon="3.58793">
        <ele>99.63</ele>
        <time>2013-04-28T04:48:51Z</time>
      </trkpt>
      <trkpt lat="47.74782" lon="3.58783">
        <ele>100.11</ele>
        <time>2013-04-28T04:48:59Z</time>
      </trkpt>
      <trkpt lat="47.74773" lon="3.58776">
        <ele>99.15</ele>
        <time>2013-04-28T04:49:07Z</time>
      </trkpt>
      <trkpt lat="47.74771" lon="3.58776">
        <ele>99.63</ele>
        <time>2013-04-28T04:49:08Z</time>
      </trkpt>
      <trkpt lat="47.74756" lon="3.58768">
        <ele>100.11</ele>
        <time>2013-04-28T04:49:16Z</time>
      </trkpt>
      <trkpt lat="47.74743" lon="3.5876">
        <ele>99.63</ele>
        <time>2013-04-28T04:49:25Z</time>
      </trkpt>
      <trkpt lat="47.74731" lon="3.58755">
        <ele>99.63</ele>
        <time>2013-04-28T04:49:33Z</time>
      </trkpt>
      <trkpt lat="47.74727" lon="3.58751">
        <ele>99.63</ele>
        <time>2013-04-28T04:49:41Z</time>
      </trkpt>
      <trkpt lat="47.74719" lon="3.58745">
        <ele>99.15</ele>
        <time>2013-04-28T04:49:51Z</time>
      </trkpt>
      <trkpt lat="47.74718" lon="3.58745">
        <ele>99.15</ele>
        <time>2013-04-28T04:49:52Z</time>
      </trkpt>
      <trkpt lat="47.74694" lon="3.58732">
        <ele>99.63</ele>
        <time>2013-04-28T04:50:03Z</time>
      </trkpt>
      <trkpt lat="47.74679" lon="3.58725">
        <ele>99.63</ele>
        <time>2013-04-28T04:50:12Z</time>
      </trkpt>
      <trkpt lat="47.74671" lon="3.58722">
        <ele>99.63</ele>
        <time>2013-04-28T04:50:17Z</time>
      </trkpt>
      <trkpt lat="47.74656" lon="3.58715">
        <ele>99.15</ele>
        <time>2013-04-28T04:50:26Z</time>
      </trkpt>
      <trkpt lat="47.74643" lon="3.58712">
        <ele>99.63</ele>
        <time>2013-04-28T04:50:33Z</time>
      </trkpt>
      <trkpt lat="47.7463" lon="3.5871">
        <ele>99.15</ele>
        <time>2013-04-28T04:50:41Z</time>
      </trkpt>
      <trkpt lat="47.74623" lon="3.5871">
        <ele>99.15</ele>
        <time>2013-04-28T04:50:46Z</time>
      </trkpt>
      <trkpt lat="47.74611" lon="3.5871">
        <ele>98.67</ele>
        <time>2013-04-28T04:50:53Z</time>
      </trkpt>
      <trkpt lat="47.74599" lon="3.58712">
        <ele>99.15</ele>
        <time>2013-04-28T04:51:01Z</time>
      </trkpt>
      <trkpt lat="47.74591" lon="3.58714">
        <ele>99.15</ele>
        <time>2013-04-28T04:51:07Z</time>
      </trkpt>
      <trkpt lat="47.74583" lon="3.58714">
        <ele>98.67</ele>
        <time>2013-04-28T04:51:11Z</time>
      </trkpt>
      <trkpt lat="47.74571" lon="3.58715">
        <ele>99.63</ele>
        <time>2013-04-28T04:51:18Z</time>
      </trkpt>
      <trkpt lat="47.74563" lon="3.58715">
        <ele>99.15</ele>
        <time>2013-04-28T04:51:25Z</time>
      </trkpt>
      <trkpt lat="47.74559" lon="3.58712">
        <ele>99.15</ele>
        <time>2013-04-28T04:51:29Z</time>
      </trkpt>
      <trkpt lat="47.74547" lon="3.58716">
        <ele>99.15</ele>
        <time>2013-04-28T04:51:37Z</time>
      </trkpt>
      <trkpt lat="47.74537" lon="3.58722">
        <ele>98.67</ele>
        <time>2013-04-28T04:51:44Z</time>
      </trkpt>
      <trkpt lat="47.74526" lon="3.58728">
        <ele>98.67</ele>
        <time>2013-04-28T04:51:53Z</time>
      </trkpt>
      <trkpt lat="47.74513" lon="3.58733">
        <ele>99.15</ele>
        <time>2013-04-28T04:52:00Z</time>
      </trkpt>
      <trkpt lat="47.74504" lon="3.58739">
        <ele>98.67</ele>
        <time>2013-04-28T04:52:08Z</time>
      </trkpt>
      <trkpt lat="47.74501" lon="3.58743">
        <ele>98.67</ele>
        <time>2013-04-28T04:52:12Z</time>
      </trkpt>
      <trkpt lat="47.74486" lon="3.58745">
        <ele>98.19</ele>
        <time>2013-04-28T04:52:20Z</time>
      </trkpt>
      <trkpt lat="47.7448" lon="3.58743">
        <ele>98.19</ele>
        <time>2013-04-28T04:52:25Z</time>
      </trkpt>
      <trkpt lat="47.7447" lon="3.58749">
        <ele>98.19</ele>
        <time>2013-04-28T04:52:33Z</time>
      </trkpt>
      <trkpt lat="47.7446" lon="3.5876">
        <ele>97.71</ele>
        <time>2013-04-28T04:52:41Z</time>
      </trkpt>
      <trkpt lat="47.74451" lon="3.5877">
        <ele>98.19</ele>
        <time>2013-04-28T04:52:48Z</time>
      </trkpt>
      <trkpt lat="47.74442" lon="3.58784">
        <ele>97.71</ele>
        <time>2013-04-28T04:52:56Z</time>
      </trkpt>
      <trkpt lat="47.74431" lon="3.58791">
        <ele>97.71</ele>
        <time>2013-04-28T04:53:04Z</time>
      </trkpt>
      <trkpt lat="47.74415" lon="3.58794">
        <ele>97.71</ele>
        <time>2013-04-28T04:53:12Z</time>
      </trkpt>
      <trkpt lat="47.74403" lon="3.588">
        <ele>97.71</ele>
        <time>2013-04-28T04:53:19Z</time>
      </trkpt>
      <trkpt lat="47.74395" lon="3.58807">
        <ele>96.75</ele>
        <time>2013-04-28T04:53:25Z</time>
      </trkpt>
      <trkpt lat="47.74385" lon="3.58815">
        <ele>97.71</ele>
        <time>2013-04-28T04:53:34Z</time>
      </trkpt>
      <trkpt lat="47.74378" lon="3.58821">
        <ele>97.71</ele>
        <time>2013-04-28T04:53:41Z</time>
      </trkpt>
      <trkpt lat="47.74374" lon="3.58822">
        <ele>96.75</ele>
        <time>2013-04-28T04:53:43Z</time>
      </trkpt>
      <trkpt lat="47.74366" lon="3.5883">
        <ele>97.23</ele>
        <time>2013-04-28T04:53:48Z</time>
      </trkpt>
      <trkpt lat="47.74364" lon="3.58833">
        <ele>97.71</ele>
        <time>2013-04-28T04:53:50Z</time>
      </trkpt>
      <trkpt lat="47.74353" lon="3.5884">
        <ele>96.75</ele>
        <time>2013-04-28T04:53:59Z</time>
      </trkpt>
      <trkpt lat="47.74348" lon="3.58839">
        <ele>97.23</ele>
        <time>2013-04-28T04:54:02Z</time>
      </trkpt>
      <trkpt lat="47.74336" lon="3.58845">
        <ele>97.23</ele>
        <time>2013-04-28T04:54:10Z</time>
      </trkpt>
      <trkpt lat="47.74322" lon="3.58849">
        <ele>96.75</ele>
        <time>2013-04-28T04:54:19Z</time>
      </trkpt>
      <trkpt lat="47.7432" lon="3.5885">
        <ele>96.75</ele>
        <time>2013-04-28T04:54:20Z</time>
      </trkpt>
      <trkpt lat="47.74312" lon="3.58855">
        <ele>96.27</ele>
        <time>2013-04-28T04:54:25Z</time>
      </trkpt>
      <trkpt lat="47.74303" lon="3.58856">
        <ele>97.23</ele>
        <time>2013-04-28T04:54:32Z</time>
      </trkpt>
      <trkpt lat="47.74286" lon="3.58866">
        <ele>96.75</ele>
        <time>2013-04-28T04:54:40Z</time>
      </trkpt>
      <trkpt lat="47.74275" lon="3.58876">
        <ele>96.27</ele>
        <time>2013-04-28T04:54:48Z</time>
      </trkpt>
      <trkpt lat="47.7427" lon="3.58879">
        <ele>97.23</ele>
        <time>2013-04-28T04:54:53Z</time>
      </trkpt>
      <trkpt lat="47.74262" lon="3.58884">
        <ele>96.75</ele>
        <time>2013-04-28T04:55:00Z</time>
      </trkpt>
      <trkpt lat="47.74253" lon="3.58893">
        <ele>96.27</ele>
        <time>2013-04-28T04:55:07Z</time>
      </trkpt>
      <trkpt lat="47.74245" lon="3.58904">
        <ele>96.27</ele>
        <time>2013-04-28T04:55:14Z</time>
      </trkpt>
      <trkpt lat="47.7423" lon="3.58909">
        <ele>96.27</ele>
        <time>2013-04-28T04:55:21Z</time>
      </trkpt>
      <trkpt lat="47.74222" lon="3.58919">
        <ele>96.27</ele>
        <time>2013-04-28T04:55:27Z</time>
      </trkpt>
      <trkpt lat="47.74212" lon="3.58929">
        <ele>96.75</ele>
        <time>2013-04-28T04:55:36Z</time>
      </trkpt>
      <trkpt lat="47.74201" lon="3.58933">
        <ele>96.75</ele>
        <time>2013-04-28T04:55:43Z</time>
      </trkpt>
      <trkpt lat="47.74193" lon="3.58936">
        <ele>96.75</ele>
        <time>2013-04-28T04:55:52Z</time>
      </trkpt>
      <trkpt lat="47.74186" lon="3.58941">
        <ele>97.23</ele>
        <time>2013-04-28T04:56:00Z</time>
      </trkpt>
      <trkpt lat="47.74175" lon="3.58949">
        <ele>97.23</ele>
        <time>2013-04-28T04:56:08Z</time>
      </trkpt>
      <trkpt lat="47.74168" lon="3.58957">
        <ele>97.23</ele>
        <time>2013-04-28T04:56:14Z</time>
      </trkpt>
      <trkpt lat="47.74156" lon="3.5897">
        <ele>97.23</ele>
        <time>2013-04-28T04:56:22Z</time>
      </trkpt>
      <trkpt lat="47.74155" lon="3.58971">
        <ele>97.23</ele>
        <time>2013-04-28T04:56:23Z</time>
      </trkpt>
      <trkpt lat="47.74137" lon="3.58988">
        <ele>97.23</ele>
        <time>2013-04-28T04:56:32Z</time>
      </trkpt>
      <trkpt lat="47.74125" lon="3.59002">
        <ele>97.23</ele>
        <time>2013-04-28T04:56:39Z</time>
      </trkpt>
      <trkpt lat="47.74115" lon="3.59013">
        <ele>96.75</ele>
        <time>2013-04-28T04:56:47Z</time>
      </trkpt>
      <trkpt lat="47.74104" lon="3.59025">
        <ele>97.23</ele>
        <time>2013-04-28T04:56:55Z</time>
      </trkpt>
      <trkpt lat="47.74102" lon="3.5903">
        <ele>97.23</ele>
        <time>2013-04-28T04:56:58Z</time>
      </trkpt>
      <trkpt lat="47.741" lon="3.59036">
        <ele>96.75</ele>
        <time>2013-04-28T04:57:01Z</time>
      </trkpt>
      <trkpt lat="47.74103" lon="3.59054">
        <ele>97.23</ele>
        <time>2013-04-28T04:57:09Z</time>
      </trkpt>
      <trkpt lat="47.74103" lon="3.5906">
        <ele>97.71</ele>
        <time>2013-04-28T04:57:12Z</time>
      </trkpt>
      <trkpt lat="47.74103" lon="3.59075">
        <ele>98.19</ele>
        <time>2013-04-28T04:57:19Z</time>
      </trkpt>
      <trkpt lat="47.74106" lon="3.59098">
        <ele>98.67</ele>
        <time>2013-04-28T04:57:29Z</time>
      </trkpt>
      <trkpt lat="47.74108" lon="3.59116">
        <ele>98.19</ele>
        <time>2013-04-28T04:57:37Z</time>
      </trkpt>
      <trkpt lat="47.74109" lon="3.59135">
        <ele>98.67</ele>
        <time>2013-04-28T04:57:45Z</time>
      </trkpt>
      <trkpt lat="47.74111" lon="3.5915">
        <ele>98.19</ele>
        <time>2013-04-28T04:57:52Z</time>
      </trkpt>
      <trkpt lat="47.7411" lon="3.59169">
        <ele>98.67</ele>
        <time>2013-04-28T04:57:59Z</time>
      </trkpt>
      <trkpt lat="47.74111" lon="3.59171">
        <ele>98.19</ele>
        <time>2013-04-28T04:58:00Z</time>
      </trkpt>
      <trkpt lat="47.74113" lon="3.59188">
        <ele>98.19</ele>
        <time>2013-04-28T04:58:08Z</time>
      </trkpt>
      <trkpt lat="47.74113" lon="3.59204">
        <ele>98.67</ele>
        <time>2013-04-28T04:58:15Z</time>
      </trkpt>
      <trkpt lat="47.74113" lon="3.59206">
        <ele>98.19</ele>
        <time>2013-04-28T04:58:16Z</time>
      </trkpt>
      <trkpt lat="47.74113" lon="3.5921">
        <ele>98.67</ele>
        <time>2013-04-28T04:58:18Z</time>
      </trkpt>
      <trkpt lat="47.74113" lon="3.59213">
        <ele>98.19</ele>
        <time>2013-04-28T04:58:19Z</time>
      </trkpt>
      <trkpt lat="47.74113" lon="3.59215">
        <ele>98.67</ele>
        <time>2013-04-28T04:58:20Z</time>
      </trkpt>
      <trkpt lat="47.74113" lon="3.59217">
        <ele>98.19</ele>
        <time>2013-04-28T04:58:21Z</time>
      </trkpt>
      <trkpt lat="47.74113" lon="3.5922">
        <ele>98.67</ele>
        <time>2013-04-28T04:58:22Z</time>
      </trkpt>
      <trkpt lat="47.74115" lon="3.59243">
        <ele>98.67</ele>
        <time>2013-04-28T04:58:32Z</time>
      </trkpt>
      <trkpt lat="47.74117" lon="3.59257">
        <ele>99.15</ele>
        <time>2013-04-28T04:58:39Z</time>
      </trkpt>
      <trkpt lat="47.74116" lon="3.59274">
        <ele>99.15</ele>
        <time>2013-04-28T04:58:47Z</time>
      </trkpt>
      <trkpt lat="47.74115" lon="3.59276">
        <ele>99.15</ele>
        <time>2013-04-28T04:58:48Z</time>
      </trkpt>
      <trkpt lat="47.74115" lon="3.59278">
        <ele>99.63</ele>
        <time>2013-04-28T04:58:49Z</time>
      </trkpt>
      <trkpt lat="47.74113" lon="3.5928">
        <ele>99.63</ele>
        <time>2013-04-28T04:58:50Z</time>
      </trkpt>
      <trkpt lat="47.74112" lon="3.59281">
        <ele>99.63</ele>
        <time>2013-04-28T04:58:51Z</time>
      </trkpt>
      <trkpt lat="47.7411" lon="3.5928">
        <ele>99.63</ele>
        <time>2013-04-28T04:58:52Z</time>
      </trkpt>
      <trkpt lat="47.74108" lon="3.59281">
        <ele>99.63</ele>
        <time>2013-04-28T04:58:53Z</time>
      </trkpt>
      <trkpt lat="47.74093" lon="3.59284">
        <ele>99.15</ele>
        <time>2013-04-28T04:59:02Z</time>
      </trkpt>
      <trkpt lat="47.74082" lon="3.59284">
        <ele>99.15</ele>
        <time>2013-04-28T04:59:10Z</time>
      </trkpt>
      <trkpt lat="47.74069" lon="3.59289">
        <ele>99.15</ele>
        <time>2013-04-28T04:59:18Z</time>
      </trkpt>
      <trkpt lat="47.74068" lon="3.59293">
        <ele>99.63</ele>
        <time>2013-04-28T04:59:20Z</time>
      </trkpt>
      <trkpt lat="47.74066" lon="3.59294">
        <ele>99.15</ele>
        <time>2013-04-28T04:59:21Z</time>
      </trkpt>
      <trkpt lat="47.74065" lon="3.59294">
        <ele>99.15</ele>
        <time>2013-04-28T04:59:22Z</time>
      </trkpt>
      <trkpt lat="47.74051" lon="3.59297">
        <ele>99.15</ele>
        <time>2013-04-28T04:59:31Z</time>
      </trkpt>
      <trkpt lat="47.74043" lon="3.593">
        <ele>99.15</ele>
        <time>2013-04-28T04:59:37Z</time>
      </trkpt>
      <trkpt lat="47.74031" lon="3.59314">
        <ele>99.15</ele>
        <time>2013-04-28T04:59:46Z</time>
      </trkpt>
      <trkpt lat="47.74022" lon="3.59333">
        <ele>99.15</ele>
        <time>2013-04-28T04:59:55Z</time>
      </trkpt>
      <trkpt lat="47.74017" lon="3.59347">
        <ele>99.63</ele>
        <time>2013-04-28T05:00:02Z</time>
      </trkpt>
      <trkpt lat="47.74016" lon="3.59348">
        <ele>99.63</ele>
        <time>2013-04-28T05:00:03Z</time>
      </trkpt>
      <trkpt lat="47.74014" lon="3.5937">
        <ele>99.63</ele>
        <time>2013-04-28T05:00:12Z</time>
      </trkpt>
      <trkpt lat="47.74017" lon="3.59393">
        <ele>99.63</ele>
        <time>2013-04-28T05:00:22Z</time>
      </trkpt>
      <trkpt lat="47.74016" lon="3.59419">
        <ele>99.63</ele>
        <time>2013-04-28T05:00:33Z</time>
      </trkpt>
      <trkpt lat="47.74018" lon="3.5944">
        <ele>100.11</ele>
        <time>2013-04-28T05:00:42Z</time>
      </trkpt>
      <trkpt lat="47.74019" lon="3.59462">
        <ele>99.63</ele>
        <time>2013-04-28T05:00:52Z</time>
      </trkpt>
      <trkpt lat="47.74018" lon="3.59481">
        <ele>100.11</ele>
        <time>2013-04-28T05:01:00Z</time>
      </trkpt>
      <trkpt lat="47.7402" lon="3.59505">
        <ele>100.11</ele>
        <time>2013-04-28T05:01:10Z</time>
      </trkpt>
      <trkpt lat="47.7402" lon="3.59526">
        <ele>100.11</ele>
        <time>2013-04-28T05:01:19Z</time>
      </trkpt>
      <trkpt lat="47.7402" lon="3.59543">
        <ele>100.11</ele>
        <time>2013-04-28T05:01:26Z</time>
      </trkpt>
      <trkpt lat="47.74022" lon="3.59561">
        <ele>100.11</ele>
        <time>2013-04-28T05:01:34Z</time>
      </trkpt>
      <trkpt lat="47.74022" lon="3.59576">
        <ele>100.6</ele>
        <time>2013-04-28T05:01:41Z</time>
      </trkpt>
      <trkpt lat="47.74022" lon="3.59596">
        <ele>100.11</ele>
        <time>2013-04-28T05:01:49Z</time>
      </trkpt>
      <trkpt lat="47.74023" lon="3.59611">
        <ele>100.6</ele>
        <time>2013-04-28T05:01:56Z</time>
      </trkpt>
      <trkpt lat="47.74024" lon="3.59632">
        <ele>100.11</ele>
        <time>2013-04-28T05:02:06Z</time>
      </trkpt>
      <trkpt lat="47.74025" lon="3.5965">
        <ele>100.11</ele>
        <time>2013-04-28T05:02:14Z</time>
      </trkpt>
      <trkpt lat="47.74026" lon="3.59669">
        <ele>99.63</ele>
        <time>2013-04-28T05:02:22Z</time>
      </trkpt>
      <trkpt lat="47.74025" lon="3.59686">
        <ele>100.11</ele>
        <time>2013-04-28T05:02:29Z</time>
      </trkpt>
      <trkpt lat="47.74027" lon="3.59701">
        <ele>99.63</ele>
        <time>2013-04-28T05:02:36Z</time>
      </trkpt>
      <trkpt lat="47.74025" lon="3.59726">
        <ele>100.11</ele>
        <time>2013-04-28T05:02:46Z</time>
      </trkpt>
      <trkpt lat="47.74024" lon="3.59744">
        <ele>101.08</ele>
        <time>2013-04-28T05:02:54Z</time>
      </trkpt>
      <trkpt lat="47.74024" lon="3.59767">
        <ele>101.08</ele>
        <time>2013-04-28T05:03:04Z</time>
      </trkpt>
      <trkpt lat="47.74023" lon="3.59781">
        <ele>102.04</ele>
        <time>2013-04-28T05:03:10Z</time>
      </trkpt>
      <trkpt lat="47.74012" lon="3.59784">
        <ele>102.04</ele>
        <time>2013-04-28T05:03:17Z</time>
      </trkpt>
      <trkpt lat="47.73996" lon="3.59781">
        <ele>101.56</ele>
        <time>2013-04-28T05:03:26Z</time>
      </trkpt>
      <trkpt lat="47.73982" lon="3.59782">
        <ele>102.04</ele>
        <time>2013-04-28T05:03:35Z</time>
      </trkpt>
      <trkpt lat="47.73975" lon="3.59782">
        <ele>101.08</ele>
        <time>2013-04-28T05:03:40Z</time>
      </trkpt>
      <trkpt lat="47.73974" lon="3.59782">
        <ele>101.08</ele>
        <time>2013-04-28T05:03:41Z</time>
      </trkpt>
      <trkpt lat="47.73956" lon="3.59783">
        <ele>100.6</ele>
        <time>2013-04-28T05:03:53Z</time>
      </trkpt>
      <trkpt lat="47.73944" lon="3.59785">
        <ele>101.08</ele>
        <time>2013-04-28T05:04:01Z</time>
      </trkpt>
      <trkpt lat="47.73933" lon="3.59788">
        <ele>101.08</ele>
        <time>2013-04-28T05:04:08Z</time>
      </trkpt>
      <trkpt lat="47.73922" lon="3.59793">
        <ele>101.08</ele>
        <time>2013-04-28T05:04:15Z</time>
      </trkpt>
      <trkpt lat="47.7391" lon="3.598">
        <ele>100.6</ele>
        <time>2013-04-28T05:04:24Z</time>
      </trkpt>
      <trkpt lat="47.73896" lon="3.59807">
        <ele>101.08</ele>
        <time>2013-04-28T05:04:34Z</time>
      </trkpt>
      <trkpt lat="47.73882" lon="3.59814">
        <ele>100.6</ele>
        <time>2013-04-28T05:04:43Z</time>
      </trkpt>
      <trkpt lat="47.7387" lon="3.59819">
        <ele>101.08</ele>
        <time>2013-04-28T05:04:51Z</time>
      </trkpt>
      <trkpt lat="47.73858" lon="3.59824">
        <ele>101.56</ele>
        <time>2013-04-28T05:04:59Z</time>
      </trkpt>
      <trkpt lat="47.73845" lon="3.5983">
        <ele>101.56</ele>
        <time>2013-04-28T05:05:08Z</time>
      </trkpt>
      <trkpt lat="47.73832" lon="3.59836">
        <ele>101.08</ele>
        <time>2013-04-28T05:05:17Z</time>
      </trkpt>
      <trkpt lat="47.73818" lon="3.59845">
        <ele>101.08</ele>
        <time>2013-04-28T05:05:27Z</time>
      </trkpt>
      <trkpt lat="47.73806" lon="3.59852">
        <ele>101.08</ele>
        <time>2013-04-28T05:05:35Z</time>
      </trkpt>
      <trkpt lat="47.73805" lon="3.59854">
        <ele>101.56</ele>
        <time>2013-04-28T05:05:36Z</time>
      </trkpt>
      <trkpt lat="47.73806" lon="3.59856">
        <ele>101.08</ele>
        <time>2013-04-28T05:05:37Z</time>
      </trkpt>
      <trkpt lat="47.7381" lon="3.59876">
        <ele>101.08</ele>
        <time>2013-04-28T05:05:45Z</time>
      </trkpt>
      <trkpt lat="47.73815" lon="3.59897">
        <ele>102.04</ele>
        <time>2013-04-28T05:05:55Z</time>
      </trkpt>
      <trkpt lat="47.73816" lon="3.59915">
        <ele>101.56</ele>
        <time>2013-04-28T05:06:04Z</time>
      </trkpt>
      <trkpt lat="47.73816" lon="3.59917">
        <ele>101.56</ele>
        <time>2013-04-28T05:06:05Z</time>
      </trkpt>
      <trkpt lat="47.73816" lon="3.59938">
        <ele>101.08</ele>
        <time>2013-04-28T05:06:13Z</time>
      </trkpt>
      <trkpt lat="47.73817" lon="3.59956">
        <ele>100.6</ele>
        <time>2013-04-28T05:06:21Z</time>
      </trkpt>
      <trkpt lat="47.7382" lon="3.59977">
        <ele>102.04</ele>
        <time>2013-04-28T05:06:30Z</time>
      </trkpt>
      <trkpt lat="47.73823" lon="3.59988">
        <ele>102.04</ele>
        <time>2013-04-28T05:06:35Z</time>
      </trkpt>
      <trkpt lat="47.73823" lon="3.5999">
        <ele>102.04</ele>
        <time>2013-04-28T05:06:36Z</time>
      </trkpt>
      <trkpt lat="47.73825" lon="3.60009">
        <ele>102.52</ele>
        <time>2013-04-28T05:06:44Z</time>
      </trkpt>
      <trkpt lat="47.73827" lon="3.60015">
        <ele>102.52</ele>
        <time>2013-04-28T05:06:47Z</time>
      </trkpt>
      <trkpt lat="47.73828" lon="3.60016">
        <ele>102.52</ele>
        <time>2013-04-28T05:06:48Z</time>
      </trkpt>
      <trkpt lat="47.73831" lon="3.6003">
        <ele>103</ele>
        <time>2013-04-28T05:06:55Z</time>
      </trkpt>
      <trkpt lat="47.73834" lon="3.60043">
        <ele>103</ele>
        <time>2013-04-28T05:07:01Z</time>
      </trkpt>
      <trkpt lat="47.73835" lon="3.60045">
        <ele>103</ele>
        <time>2013-04-28T05:07:02Z</time>
      </trkpt>
      <trkpt lat="47.73835" lon="3.60048">
        <ele>103</ele>
        <time>2013-04-28T05:07:03Z</time>
      </trkpt>
      <trkpt lat="47.7384" lon="3.60062">
        <ele>102.52</ele>
        <time>2013-04-28T05:07:10Z</time>
      </trkpt>
      <trkpt lat="47.73842" lon="3.60082">
        <ele>102.52</ele>
        <time>2013-04-28T05:07:19Z</time>
      </trkpt>
      <trkpt lat="47.73844" lon="3.60088">
        <ele>102.52</ele>
        <time>2013-04-28T05:07:22Z</time>
      </trkpt>
      <trkpt lat="47.73845" lon="3.6009">
        <ele>103</ele>
        <time>2013-04-28T05:07:23Z</time>
      </trkpt>
      <trkpt lat="47.73845" lon="3.60092">
        <ele>102.52</ele>
        <time>2013-04-28T05:07:24Z</time>
      </trkpt>
      <trkpt lat="47.73846" lon="3.60094">
        <ele>102.52</ele>
        <time>2013-04-28T05:07:25Z</time>
      </trkpt>
      <trkpt lat="47.73847" lon="3.60096">
        <ele>102.52</ele>
        <time>2013-04-28T05:07:26Z</time>
      </trkpt>
      <trkpt lat="47.73848" lon="3.60098">
        <ele>102.52</ele>
        <time>2013-04-28T05:07:27Z</time>
      </trkpt>
      <trkpt lat="47.73849" lon="3.601">
        <ele>102.52</ele>
        <time>2013-04-28T05:07:28Z</time>
      </trkpt>
      <trkpt lat="47.73849" lon="3.60103">
        <ele>102.52</ele>
        <time>2013-04-28T05:07:29Z</time>
      </trkpt>
      <trkpt lat="47.73849" lon="3.60105">
        <ele>102.52</ele>
        <time>2013-04-28T05:07:30Z</time>
      </trkpt>
      <trkpt lat="47.7385" lon="3.60107">
        <ele>102.52</ele>
        <time>2013-04-28T05:07:31Z</time>
      </trkpt>
      <trkpt lat="47.73851" lon="3.60109">
        <ele>102.52</ele>
        <time>2013-04-28T05:07:32Z</time>
      </trkpt>
      <trkpt lat="47.73854" lon="3.60123">
        <ele>102.52</ele>
        <time>2013-04-28T05:07:38Z</time>
      </trkpt>
      <trkpt lat="47.73856" lon="3.60126">
        <ele>103</ele>
        <time>2013-04-28T05:07:40Z</time>
      </trkpt>
      <trkpt lat="47.73856" lon="3.60127">
        <ele>102.52</ele>
        <time>2013-04-28T05:07:41Z</time>
      </trkpt>
      <trkpt lat="47.73857" lon="3.60129">
        <ele>102.52</ele>
        <time>2013-04-28T05:07:42Z</time>
      </trkpt>
      <trkpt lat="47.73858" lon="3.60131">
        <ele>102.52</ele>
        <time>2013-04-28T05:07:43Z</time>
      </trkpt>
      <trkpt lat="47.73858" lon="3.60133">
        <ele>102.52</ele>
        <time>2013-04-28T05:07:44Z</time>
      </trkpt>
      <trkpt lat="47.73861" lon="3.60144">
        <ele>103</ele>
        <time>2013-04-28T05:07:49Z</time>
      </trkpt>
      <trkpt lat="47.73864" lon="3.60152">
        <ele>103</ele>
        <time>2013-04-28T05:07:53Z</time>
      </trkpt>
      <trkpt lat="47.73865" lon="3.60153">
        <ele>102.52</ele>
        <time>2013-04-28T05:07:54Z</time>
      </trkpt>
      <trkpt lat="47.73865" lon="3.60156">
        <ele>103</ele>
        <time>2013-04-28T05:07:55Z</time>
      </trkpt>
      <trkpt lat="47.73868" lon="3.6017">
        <ele>102.52</ele>
        <time>2013-04-28T05:08:01Z</time>
      </trkpt>
      <trkpt lat="47.73871" lon="3.60182">
        <ele>103</ele>
        <time>2013-04-28T05:08:07Z</time>
      </trkpt>
      <trkpt lat="47.73872" lon="3.60183">
        <ele>103</ele>
        <time>2013-04-28T05:08:08Z</time>
      </trkpt>
      <trkpt lat="47.73874" lon="3.60187">
        <ele>103</ele>
        <time>2013-04-28T05:08:10Z</time>
      </trkpt>
      <trkpt lat="47.73875" lon="3.60189">
        <ele>102.52</ele>
        <time>2013-04-28T05:08:11Z</time>
      </trkpt>
      <trkpt lat="47.73876" lon="3.60191">
        <ele>102.52</ele>
        <time>2013-04-28T05:08:12Z</time>
      </trkpt>
      <trkpt lat="47.73877" lon="3.60193">
        <ele>103.48</ele>
        <time>2013-04-28T05:08:13Z</time>
      </trkpt>
      <trkpt lat="47.73881" lon="3.60206">
        <ele>103</ele>
        <time>2013-04-28T05:08:20Z</time>
      </trkpt>
      <trkpt lat="47.73886" lon="3.60224">
        <ele>103.48</ele>
        <time>2013-04-28T05:08:29Z</time>
      </trkpt>
      <trkpt lat="47.73891" lon="3.6024">
        <ele>103.48</ele>
        <time>2013-04-28T05:08:37Z</time>
      </trkpt>
      <trkpt lat="47.73896" lon="3.60255">
        <ele>103.48</ele>
        <time>2013-04-28T05:08:45Z</time>
      </trkpt>
      <trkpt lat="47.739" lon="3.60271">
        <ele>104.44</ele>
        <time>2013-04-28T05:08:52Z</time>
      </trkpt>
      <trkpt lat="47.73901" lon="3.60273">
        <ele>104.44</ele>
        <time>2013-04-28T05:08:53Z</time>
      </trkpt>
      <trkpt lat="47.73902" lon="3.60274">
        <ele>104.44</ele>
        <time>2013-04-28T05:08:54Z</time>
      </trkpt>
      <trkpt lat="47.73903" lon="3.60277">
        <ele>104.44</ele>
        <time>2013-04-28T05:08:55Z</time>
      </trkpt>
      <trkpt lat="47.73903" lon="3.6028">
        <ele>104.44</ele>
        <time>2013-04-28T05:08:56Z</time>
      </trkpt>
      <trkpt lat="47.73904" lon="3.60285">
        <ele>104.44</ele>
        <time>2013-04-28T05:08:58Z</time>
      </trkpt>
      <trkpt lat="47.73906" lon="3.60286">
        <ele>104.92</ele>
        <time>2013-04-28T05:08:59Z</time>
      </trkpt>
      <trkpt lat="47.73906" lon="3.60288">
        <ele>104.44</ele>
        <time>2013-04-28T05:09:00Z</time>
      </trkpt>
      <trkpt lat="47.73907" lon="3.6029">
        <ele>104.92</ele>
        <time>2013-04-28T05:09:01Z</time>
      </trkpt>
      <trkpt lat="47.73912" lon="3.60305">
        <ele>104.92</ele>
        <time>2013-04-28T05:09:09Z</time>
      </trkpt>
      <trkpt lat="47.73913" lon="3.60306">
        <ele>105.4</ele>
        <time>2013-04-28T05:09:10Z</time>
      </trkpt>
      <trkpt lat="47.73914" lon="3.60307">
        <ele>104.92</ele>
        <time>2013-04-28T05:09:11Z</time>
      </trkpt>
      <trkpt lat="47.73915" lon="3.60309">
        <ele>105.4</ele>
        <time>2013-04-28T05:09:12Z</time>
      </trkpt>
      <trkpt lat="47.73916" lon="3.60311">
        <ele>105.4</ele>
        <time>2013-04-28T05:09:13Z</time>
      </trkpt>
      <trkpt lat="47.73917" lon="3.60313">
        <ele>104.92</ele>
        <time>2013-04-28T05:09:14Z</time>
      </trkpt>
      <trkpt lat="47.73918" lon="3.60314">
        <ele>104.44</ele>
        <time>2013-04-28T05:09:15Z</time>
      </trkpt>
      <trkpt lat="47.73919" lon="3.60317">
        <ele>105.4</ele>
        <time>2013-04-28T05:09:16Z</time>
      </trkpt>
      <trkpt lat="47.7392" lon="3.60319">
        <ele>104.92</ele>
        <time>2013-04-28T05:09:17Z</time>
      </trkpt>
      <trkpt lat="47.73921" lon="3.60321">
        <ele>105.4</ele>
        <time>2013-04-28T05:09:18Z</time>
      </trkpt>
      <trkpt lat="47.73922" lon="3.60322">
        <ele>105.4</ele>
        <time>2013-04-28T05:09:19Z</time>
      </trkpt>
      <trkpt lat="47.73923" lon="3.60324">
        <ele>105.4</ele>
        <time>2013-04-28T05:09:20Z</time>
      </trkpt>
      <trkpt lat="47.73923" lon="3.60326">
        <ele>105.4</ele>
        <time>2013-04-28T05:09:21Z</time>
      </trkpt>
      <trkpt lat="47.73924" lon="3.60328">
        <ele>105.4</ele>
        <time>2013-04-28T05:09:22Z</time>
      </trkpt>
      <trkpt lat="47.73925" lon="3.6033">
        <ele>105.4</ele>
        <time>2013-04-28T05:09:23Z</time>
      </trkpt>
      <trkpt lat="47.73932" lon="3.60347">
        <ele>105.4</ele>
        <time>2013-04-28T05:09:31Z</time>
      </trkpt>
      <trkpt lat="47.73938" lon="3.60365">
        <ele>104.92</ele>
        <time>2013-04-28T05:09:40Z</time>
      </trkpt>
      <trkpt lat="47.73945" lon="3.60381">
        <ele>104.92</ele>
        <time>2013-04-28T05:09:49Z</time>
      </trkpt>
      <trkpt lat="47.73949" lon="3.60396">
        <ele>104.44</ele>
        <time>2013-04-28T05:09:56Z</time>
      </trkpt>
      <trkpt lat="47.73952" lon="3.60413">
        <ele>104.44</ele>
        <time>2013-04-28T05:10:03Z</time>
      </trkpt>
      <trkpt lat="47.73958" lon="3.60432">
        <ele>103.96</ele>
        <time>2013-04-28T05:10:12Z</time>
      </trkpt>
      <trkpt lat="47.73962" lon="3.60448">
        <ele>104.44</ele>
        <time>2013-04-28T05:10:20Z</time>
      </trkpt>
      <trkpt lat="47.73966" lon="3.60461">
        <ele>104.44</ele>
        <time>2013-04-28T05:10:27Z</time>
      </trkpt>
      <trkpt lat="47.73967" lon="3.60473">
        <ele>104.44</ele>
        <time>2013-04-28T05:10:33Z</time>
      </trkpt>
      <trkpt lat="47.73966" lon="3.60475">
        <ele>104.44</ele>
        <time>2013-04-28T05:10:34Z</time>
      </trkpt>
      <trkpt lat="47.73953" lon="3.60482">
        <ele>104.92</ele>
        <time>2013-04-28T05:10:43Z</time>
      </trkpt>
      <trkpt lat="47.7394" lon="3.60489">
        <ele>104.92</ele>
        <time>2013-04-28T05:10:52Z</time>
      </trkpt>
      <trkpt lat="47.73928" lon="3.60496">
        <ele>104.92</ele>
        <time>2013-04-28T05:11:00Z</time>
      </trkpt>
      <trkpt lat="47.73918" lon="3.60501">
        <ele>104.92</ele>
        <time>2013-04-28T05:11:06Z</time>
      </trkpt>
      <trkpt lat="47.73916" lon="3.60502">
        <ele>104.92</ele>
        <time>2013-04-28T05:11:08Z</time>
      </trkpt>
      <trkpt lat="47.73915" lon="3.60503">
        <ele>105.4</ele>
        <time>2013-04-28T05:11:09Z</time>
      </trkpt>
      <trkpt lat="47.73913" lon="3.60503">
        <ele>105.4</ele>
        <time>2013-04-28T05:11:10Z</time>
      </trkpt>
      <trkpt lat="47.739" lon="3.6051">
        <ele>105.88</ele>
        <time>2013-04-28T05:11:20Z</time>
      </trkpt>
      <trkpt lat="47.73888" lon="3.60515">
        <ele>105.4</ele>
        <time>2013-04-28T05:11:28Z</time>
      </trkpt>
      <trkpt lat="47.73876" lon="3.60523">
        <ele>105.88</ele>
        <time>2013-04-28T05:11:37Z</time>
      </trkpt>
      <trkpt lat="47.73863" lon="3.60527">
        <ele>105.88</ele>
        <time>2013-04-28T05:11:46Z</time>
      </trkpt>
      <trkpt lat="47.73849" lon="3.60534">
        <ele>105.88</ele>
        <time>2013-04-28T05:11:55Z</time>
      </trkpt>
      <trkpt lat="47.73846" lon="3.6054">
        <ele>105.4</ele>
        <time>2013-04-28T05:11:58Z</time>
      </trkpt>
      <trkpt lat="47.73846" lon="3.60542">
        <ele>105.88</ele>
        <time>2013-04-28T05:11:59Z</time>
      </trkpt>
      <trkpt lat="47.73848" lon="3.60546">
        <ele>106.36</ele>
        <time>2013-04-28T05:12:01Z</time>
      </trkpt>
      <trkpt lat="47.73855" lon="3.6056">
        <ele>106.36</ele>
        <time>2013-04-28T05:12:09Z</time>
      </trkpt>
      <trkpt lat="47.73856" lon="3.60566">
        <ele>105.88</ele>
        <time>2013-04-28T05:12:11Z</time>
      </trkpt>
      <trkpt lat="47.73856" lon="3.60568">
        <ele>105.88</ele>
        <time>2013-04-28T05:12:12Z</time>
      </trkpt>
      <trkpt lat="47.73857" lon="3.60572">
        <ele>106.36</ele>
        <time>2013-04-28T05:12:14Z</time>
      </trkpt>
      <trkpt lat="47.73857" lon="3.60575">
        <ele>105.88</ele>
        <time>2013-04-28T05:12:15Z</time>
      </trkpt>
      <trkpt lat="47.73856" lon="3.60577">
        <ele>106.36</ele>
        <time>2013-04-28T05:12:16Z</time>
      </trkpt>
      <trkpt lat="47.7385" lon="3.60593">
        <ele>107.32</ele>
        <time>2013-04-28T05:12:24Z</time>
      </trkpt>
      <trkpt lat="47.73849" lon="3.60594">
        <ele>106.84</ele>
        <time>2013-04-28T05:12:25Z</time>
      </trkpt>
      <trkpt lat="47.73847" lon="3.60595">
        <ele>107.32</ele>
        <time>2013-04-28T05:12:26Z</time>
      </trkpt>
      <trkpt lat="47.73833" lon="3.60601">
        <ele>106.84</ele>
        <time>2013-04-28T05:12:36Z</time>
      </trkpt>
      <trkpt lat="47.73819" lon="3.60604">
        <ele>107.32</ele>
        <time>2013-04-28T05:12:44Z</time>
      </trkpt>
      <trkpt lat="47.7381" lon="3.60604">
        <ele>106.84</ele>
        <time>2013-04-28T05:12:50Z</time>
      </trkpt>
      <trkpt lat="47.73797" lon="3.60605">
        <ele>106.84</ele>
        <time>2013-04-28T05:12:58Z</time>
      </trkpt>
      <trkpt lat="47.73784" lon="3.60605">
        <ele>106.84</ele>
        <time>2013-04-28T05:13:07Z</time>
      </trkpt>
      <trkpt lat="47.73771" lon="3.60604">
        <ele>107.32</ele>
        <time>2013-04-28T05:13:15Z</time>
      </trkpt>
      <trkpt lat="47.73758" lon="3.60605">
        <ele>107.32</ele>
        <time>2013-04-28T05:13:24Z</time>
      </trkpt>
      <trkpt lat="47.73745" lon="3.60604">
        <ele>107.32</ele>
        <time>2013-04-28T05:13:33Z</time>
      </trkpt>
      <trkpt lat="47.73734" lon="3.60609">
        <ele>107.32</ele>
        <time>2013-04-28T05:13:41Z</time>
      </trkpt>
      <trkpt lat="47.73733" lon="3.60613">
        <ele>107.32</ele>
        <time>2013-04-28T05:13:44Z</time>
      </trkpt>
      <trkpt lat="47.73734" lon="3.60624">
        <ele>107.81</ele>
        <time>2013-04-28T05:13:50Z</time>
      </trkpt>
      <trkpt lat="47.73735" lon="3.6063">
        <ele>108.29</ele>
        <time>2013-04-28T05:13:53Z</time>
      </trkpt>
      <trkpt lat="47.73739" lon="3.60646">
        <ele>107.81</ele>
        <time>2013-04-28T05:14:01Z</time>
      </trkpt>
      <trkpt lat="47.7374" lon="3.60658">
        <ele>108.77</ele>
        <time>2013-04-28T05:14:07Z</time>
      </trkpt>
      <trkpt lat="47.7374" lon="3.60661">
        <ele>108.29</ele>
        <time>2013-04-28T05:14:08Z</time>
      </trkpt>
      <trkpt lat="47.7374" lon="3.60664">
        <ele>108.29</ele>
        <time>2013-04-28T05:14:09Z</time>
      </trkpt>
      <trkpt lat="47.73741" lon="3.60675">
        <ele>108.77</ele>
        <time>2013-04-28T05:14:13Z</time>
      </trkpt>
      <trkpt lat="47.73741" lon="3.60683">
        <ele>108.29</ele>
        <time>2013-04-28T05:14:16Z</time>
      </trkpt>
      <trkpt lat="47.73742" lon="3.60689">
        <ele>109.25</ele>
        <time>2013-04-28T05:14:19Z</time>
      </trkpt>
      <trkpt lat="47.73744" lon="3.60702">
        <ele>109.73</ele>
        <time>2013-04-28T05:14:25Z</time>
      </trkpt>
      <trkpt lat="47.73746" lon="3.60715">
        <ele>110.21</ele>
        <time>2013-04-28T05:14:31Z</time>
      </trkpt>
      <trkpt lat="47.73746" lon="3.60722">
        <ele>110.69</ele>
        <time>2013-04-28T05:14:34Z</time>
      </trkpt>
      <trkpt lat="47.7375" lon="3.60742">
        <ele>111.65</ele>
        <time>2013-04-28T05:14:44Z</time>
      </trkpt>
      <trkpt lat="47.7375" lon="3.60747">
        <ele>111.65</ele>
        <time>2013-04-28T05:14:46Z</time>
      </trkpt>
      <trkpt lat="47.73751" lon="3.60757">
        <ele>112.61</ele>
        <time>2013-04-28T05:14:50Z</time>
      </trkpt>
      <trkpt lat="47.7375" lon="3.60775">
        <ele>114.05</ele>
        <time>2013-04-28T05:14:58Z</time>
      </trkpt>
      <trkpt lat="47.73749" lon="3.60795">
        <ele>114.05</ele>
        <time>2013-04-28T05:15:07Z</time>
      </trkpt>
      <trkpt lat="47.73749" lon="3.60803">
        <ele>114.53</ele>
        <time>2013-04-28T05:15:11Z</time>
      </trkpt>
      <trkpt lat="47.7375" lon="3.60819">
        <ele>115.01</ele>
        <time>2013-04-28T05:15:19Z</time>
      </trkpt>
      <trkpt lat="47.7375" lon="3.60834">
        <ele>116.46</ele>
        <time>2013-04-28T05:15:26Z</time>
      </trkpt>
      <trkpt lat="47.7375" lon="3.60843">
        <ele>116.94</ele>
        <time>2013-04-28T05:15:31Z</time>
      </trkpt>
      <trkpt lat="47.7375" lon="3.60852">
        <ele>117.9</ele>
        <time>2013-04-28T05:15:35Z</time>
      </trkpt>
      <trkpt lat="47.73749" lon="3.6087">
        <ele>118.38</ele>
        <time>2013-04-28T05:15:43Z</time>
      </trkpt>
      <trkpt lat="47.73749" lon="3.60879">
        <ele>119.34</ele>
        <time>2013-04-28T05:15:47Z</time>
      </trkpt>
      <trkpt lat="47.73749" lon="3.60891">
        <ele>119.82</ele>
        <time>2013-04-28T05:15:54Z</time>
      </trkpt>
      <trkpt lat="47.73749" lon="3.609">
        <ele>121.26</ele>
        <time>2013-04-28T05:15:59Z</time>
      </trkpt>
      <trkpt lat="47.73749" lon="3.60912">
        <ele>121.74</ele>
        <time>2013-04-28T05:16:05Z</time>
      </trkpt>
      <trkpt lat="47.73748" lon="3.60928">
        <ele>123.67</ele>
        <time>2013-04-28T05:16:13Z</time>
      </trkpt>
      <trkpt lat="47.73747" lon="3.60947">
        <ele>124.15</ele>
        <time>2013-04-28T05:16:22Z</time>
      </trkpt>
      <trkpt lat="47.73745" lon="3.60963">
        <ele>125.11</ele>
        <time>2013-04-28T05:16:30Z</time>
      </trkpt>
      <trkpt lat="47.73745" lon="3.60977">
        <ele>126.07</ele>
        <time>2013-04-28T05:16:37Z</time>
      </trkpt>
      <trkpt lat="47.73745" lon="3.60979">
        <ele>125.59</ele>
        <time>2013-04-28T05:16:44Z</time>
      </trkpt>
      <trkpt lat="47.73745" lon="3.6098">
        <ele>125.11</ele>
        <time>2013-04-28T05:16:51Z</time>
      </trkpt>
      <trkpt lat="47.73745" lon="3.60983">
        <ele>127.51</ele>
        <time>2013-04-28T05:16:53Z</time>
      </trkpt>
      <trkpt lat="47.73744" lon="3.60998">
        <ele>127.51</ele>
        <time>2013-04-28T05:17:01Z</time>
      </trkpt>
      <trkpt lat="47.73744" lon="3.61011">
        <ele>128.95</ele>
        <time>2013-04-28T05:17:08Z</time>
      </trkpt>
      <trkpt lat="47.73742" lon="3.61028">
        <ele>130.88</ele>
        <time>2013-04-28T05:17:17Z</time>
      </trkpt>
      <trkpt lat="47.73742" lon="3.61031">
        <ele>129.92</ele>
        <time>2013-04-28T05:17:18Z</time>
      </trkpt>
      <trkpt lat="47.73741" lon="3.61042">
        <ele>130.88</ele>
        <time>2013-04-28T05:17:23Z</time>
      </trkpt>
      <trkpt lat="47.7374" lon="3.61051">
        <ele>131.84</ele>
        <time>2013-04-28T05:17:28Z</time>
      </trkpt>
      <trkpt lat="47.7374" lon="3.61062">
        <ele>133.76</ele>
        <time>2013-04-28T05:17:35Z</time>
      </trkpt>
      <trkpt lat="47.73738" lon="3.6107">
        <ele>133.28</ele>
        <time>2013-04-28T05:17:39Z</time>
      </trkpt>
      <trkpt lat="47.73737" lon="3.61088">
        <ele>134.72</ele>
        <time>2013-04-28T05:17:47Z</time>
      </trkpt>
      <trkpt lat="47.73736" lon="3.61103">
        <ele>136.64</ele>
        <time>2013-04-28T05:17:54Z</time>
      </trkpt>
      <trkpt lat="47.73732" lon="3.61117">
        <ele>137.13</ele>
        <time>2013-04-28T05:18:01Z</time>
      </trkpt>
      <trkpt lat="47.73724" lon="3.61126">
        <ele>138.09</ele>
        <time>2013-04-28T05:18:08Z</time>
      </trkpt>
      <trkpt lat="47.73715" lon="3.61124">
        <ele>138.57</ele>
        <time>2013-04-28T05:18:14Z</time>
      </trkpt>
      <trkpt lat="47.73707" lon="3.61124">
        <ele>138.57</ele>
        <time>2013-04-28T05:18:20Z</time>
      </trkpt>
      <trkpt lat="47.73698" lon="3.61123">
        <ele>139.05</ele>
        <time>2013-04-28T05:18:26Z</time>
      </trkpt>
      <trkpt lat="47.7369" lon="3.61131">
        <ele>140.01</ele>
        <time>2013-04-28T05:18:34Z</time>
      </trkpt>
      <trkpt lat="47.73686" lon="3.61146">
        <ele>140.97</ele>
        <time>2013-04-28T05:18:41Z</time>
      </trkpt>
      <trkpt lat="47.73686" lon="3.61149">
        <ele>140.97</ele>
        <time>2013-04-28T05:18:43Z</time>
      </trkpt>
      <trkpt lat="47.73684" lon="3.61164">
        <ele>142.41</ele>
        <time>2013-04-28T05:18:50Z</time>
      </trkpt>
      <trkpt lat="47.73683" lon="3.61179">
        <ele>143.85</ele>
        <time>2013-04-28T05:18:57Z</time>
      </trkpt>
      <trkpt lat="47.73681" lon="3.61193">
        <ele>144.82</ele>
        <time>2013-04-28T05:19:03Z</time>
      </trkpt>
      <trkpt lat="47.73681" lon="3.61195">
        <ele>145.3</ele>
        <time>2013-04-28T05:19:04Z</time>
      </trkpt>
      <trkpt lat="47.7368" lon="3.61209">
        <ele>146.74</ele>
        <time>2013-04-28T05:19:12Z</time>
      </trkpt>
      <trkpt lat="47.73679" lon="3.6122">
        <ele>147.7</ele>
        <time>2013-04-28T05:19:19Z</time>
      </trkpt>
      <trkpt lat="47.7368" lon="3.61226">
        <ele>148.66</ele>
        <time>2013-04-28T05:19:23Z</time>
      </trkpt>
      <trkpt lat="47.73678" lon="3.6124">
        <ele>150.1</ele>
        <time>2013-04-28T05:19:30Z</time>
      </trkpt>
      <trkpt lat="47.73676" lon="3.61255">
        <ele>152.51</ele>
        <time>2013-04-28T05:19:39Z</time>
      </trkpt>
      <trkpt lat="47.73675" lon="3.61265">
        <ele>153.95</ele>
        <time>2013-04-28T05:19:46Z</time>
      </trkpt>
      <trkpt lat="47.73674" lon="3.61271">
        <ele>155.39</ele>
        <time>2013-04-28T05:19:49Z</time>
      </trkpt>
      <trkpt lat="47.73673" lon="3.61286">
        <ele>157.31</ele>
        <time>2013-04-28T05:19:57Z</time>
      </trkpt>
      <trkpt lat="47.73671" lon="3.61297">
        <ele>158.75</ele>
        <time>2013-04-28T05:20:05Z</time>
      </trkpt>
      <trkpt lat="47.7367" lon="3.6131">
        <ele>159.72</ele>
        <time>2013-04-28T05:20:13Z</time>
      </trkpt>
      <trkpt lat="47.7367" lon="3.61313">
        <ele>160.2</ele>
        <time>2013-04-28T05:20:15Z</time>
      </trkpt>
      <trkpt lat="47.73669" lon="3.61315">
        <ele>160.2</ele>
        <time>2013-04-28T05:20:16Z</time>
      </trkpt>
      <trkpt lat="47.73668" lon="3.61317">
        <ele>160.2</ele>
        <time>2013-04-28T05:20:17Z</time>
      </trkpt>
      <trkpt lat="47.73668" lon="3.61319">
        <ele>159.72</ele>
        <time>2013-04-28T05:20:18Z</time>
      </trkpt>
      <trkpt lat="47.73668" lon="3.61321">
        <ele>161.16</ele>
        <time>2013-04-28T05:20:19Z</time>
      </trkpt>
      <trkpt lat="47.73668" lon="3.61322">
        <ele>161.64</ele>
        <time>2013-04-28T05:20:20Z</time>
      </trkpt>
      <trkpt lat="47.73666" lon="3.61339">
        <ele>163.56</ele>
        <time>2013-04-28T05:20:31Z</time>
      </trkpt>
      <trkpt lat="47.73665" lon="3.61351">
        <ele>165.48</ele>
        <time>2013-04-28T05:20:38Z</time>
      </trkpt>
      <trkpt lat="47.73665" lon="3.61365">
        <ele>166.45</ele>
        <time>2013-04-28T05:20:46Z</time>
      </trkpt>
      <trkpt lat="47.73664" lon="3.61378">
        <ele>168.85</ele>
        <time>2013-04-28T05:20:54Z</time>
      </trkpt>
      <trkpt lat="47.73663" lon="3.61379">
        <ele>169.33</ele>
        <time>2013-04-28T05:20:55Z</time>
      </trkpt>
      <trkpt lat="47.73663" lon="3.61381">
        <ele>168.85</ele>
        <time>2013-04-28T05:20:56Z</time>
      </trkpt>
      <trkpt lat="47.73667" lon="3.61394">
        <ele>170.77</ele>
        <time>2013-04-28T05:21:04Z</time>
      </trkpt>
      <trkpt lat="47.73672" lon="3.61405">
        <ele>172.21</ele>
        <time>2013-04-28T05:21:13Z</time>
      </trkpt>
      <trkpt lat="47.73682" lon="3.61414">
        <ele>173.17</ele>
        <time>2013-04-28T05:21:22Z</time>
      </trkpt>
      <trkpt lat="47.73691" lon="3.61423">
        <ele>174.14</ele>
        <time>2013-04-28T05:21:30Z</time>
      </trkpt>
      <trkpt lat="47.73698" lon="3.61431">
        <ele>174.62</ele>
        <time>2013-04-28T05:21:37Z</time>
      </trkpt>
      <trkpt lat="47.73704" lon="3.61441">
        <ele>175.58</ele>
        <time>2013-04-28T05:21:45Z</time>
      </trkpt>
      <trkpt lat="47.73708" lon="3.61454">
        <ele>177.5</ele>
        <time>2013-04-28T05:21:52Z</time>
      </trkpt>
      <trkpt lat="47.73709" lon="3.61456">
        <ele>177.5</ele>
        <time>2013-04-28T05:21:53Z</time>
      </trkpt>
      <trkpt lat="47.7371" lon="3.61458">
        <ele>177.5</ele>
        <time>2013-04-28T05:21:54Z</time>
      </trkpt>
      <trkpt lat="47.73712" lon="3.61461">
        <ele>177.5</ele>
        <time>2013-04-28T05:21:56Z</time>
      </trkpt>
      <trkpt lat="47.73714" lon="3.61461">
        <ele>177.02</ele>
        <time>2013-04-28T05:21:57Z</time>
      </trkpt>
      <trkpt lat="47.73715" lon="3.61462">
        <ele>177.5</ele>
        <time>2013-04-28T05:21:58Z</time>
      </trkpt>
      <trkpt lat="47.73717" lon="3.61463">
        <ele>177.5</ele>
        <time>2013-04-28T05:21:59Z</time>
      </trkpt>
      <trkpt lat="47.73718" lon="3.61463">
        <ele>177.5</ele>
        <time>2013-04-28T05:22:00Z</time>
      </trkpt>
      <trkpt lat="47.73719" lon="3.61464">
        <ele>177.02</ele>
        <time>2013-04-28T05:22:01Z</time>
      </trkpt>
      <trkpt lat="47.73721" lon="3.61463">
        <ele>177.02</ele>
        <time>2013-04-28T05:22:02Z</time>
      </trkpt>
      <trkpt lat="47.73722" lon="3.61463">
        <ele>177.02</ele>
        <time>2013-04-28T05:22:03Z</time>
      </trkpt>
      <trkpt lat="47.73723" lon="3.61465">
        <ele>177.02</ele>
        <time>2013-04-28T05:22:04Z</time>
      </trkpt>
      <trkpt lat="47.73725" lon="3.61466">
        <ele>177.5</ele>
        <time>2013-04-28T05:22:05Z</time>
      </trkpt>
      <trkpt lat="47.73735" lon="3.61475">
        <ele>177.02</ele>
        <time>2013-04-28T05:22:13Z</time>
      </trkpt>
      <trkpt lat="47.73747" lon="3.61485">
        <ele>176.54</ele>
        <time>2013-04-28T05:22:22Z</time>
      </trkpt>
      <trkpt lat="47.73758" lon="3.61493">
        <ele>175.58</ele>
        <time>2013-04-28T05:22:30Z</time>
      </trkpt>
      <trkpt lat="47.73763" lon="3.61498">
        <ele>175.58</ele>
        <time>2013-04-28T05:22:34Z</time>
      </trkpt>
      <trkpt lat="47.73763" lon="3.615">
        <ele>176.06</ele>
        <time>2013-04-28T05:22:35Z</time>
      </trkpt>
      <trkpt lat="47.73765" lon="3.61501">
        <ele>175.1</ele>
        <time>2013-04-28T05:22:36Z</time>
      </trkpt>
      <trkpt lat="47.73766" lon="3.61502">
        <ele>175.58</ele>
        <time>2013-04-28T05:22:37Z</time>
      </trkpt>
      <trkpt lat="47.73767" lon="3.61503">
        <ele>175.58</ele>
        <time>2013-04-28T05:22:38Z</time>
      </trkpt>
      <trkpt lat="47.73777" lon="3.61512">
        <ele>175.1</ele>
        <time>2013-04-28T05:22:46Z</time>
      </trkpt>
      <trkpt lat="47.7379" lon="3.61527">
        <ele>175.1</ele>
        <time>2013-04-28T05:22:56Z</time>
      </trkpt>
      <trkpt lat="47.73799" lon="3.61539">
        <ele>174.62</ele>
        <time>2013-04-28T05:23:04Z</time>
      </trkpt>
      <trkpt lat="47.73804" lon="3.61548">
        <ele>174.14</ele>
        <time>2013-04-28T05:23:09Z</time>
      </trkpt>
      <trkpt lat="47.73805" lon="3.61548">
        <ele>174.62</ele>
        <time>2013-04-28T05:23:10Z</time>
      </trkpt>
      <trkpt lat="47.73807" lon="3.61549">
        <ele>174.62</ele>
        <time>2013-04-28T05:23:11Z</time>
      </trkpt>
      <trkpt lat="47.73808" lon="3.6155">
        <ele>174.62</ele>
        <time>2013-04-28T05:23:12Z</time>
      </trkpt>
      <trkpt lat="47.7381" lon="3.61552">
        <ele>174.62</ele>
        <time>2013-04-28T05:23:13Z</time>
      </trkpt>
      <trkpt lat="47.73811" lon="3.61553">
        <ele>174.62</ele>
        <time>2013-04-28T05:23:14Z</time>
      </trkpt>
      <trkpt lat="47.73812" lon="3.61555">
        <ele>175.1</ele>
        <time>2013-04-28T05:23:15Z</time>
      </trkpt>
      <trkpt lat="47.7382" lon="3.61568">
        <ele>174.62</ele>
        <time>2013-04-28T05:23:23Z</time>
      </trkpt>
      <trkpt lat="47.73829" lon="3.61579">
        <ele>174.14</ele>
        <time>2013-04-28T05:23:31Z</time>
      </trkpt>
      <trkpt lat="47.73836" lon="3.61592">
        <ele>173.17</ele>
        <time>2013-04-28T05:23:38Z</time>
      </trkpt>
      <trkpt lat="47.73843" lon="3.61603">
        <ele>173.66</ele>
        <time>2013-04-28T05:23:45Z</time>
      </trkpt>
      <trkpt lat="47.73848" lon="3.61618">
        <ele>173.66</ele>
        <time>2013-04-28T05:23:52Z</time>
      </trkpt>
      <trkpt lat="47.73849" lon="3.61619">
        <ele>174.14</ele>
        <time>2013-04-28T05:23:53Z</time>
      </trkpt>
      <trkpt lat="47.7385" lon="3.61621">
        <ele>173.66</ele>
        <time>2013-04-28T05:23:54Z</time>
      </trkpt>
      <trkpt lat="47.73851" lon="3.61623">
        <ele>174.14</ele>
        <time>2013-04-28T05:23:55Z</time>
      </trkpt>
      <trkpt lat="47.73852" lon="3.61626">
        <ele>173.66</ele>
        <time>2013-04-28T05:23:56Z</time>
      </trkpt>
      <trkpt lat="47.73857" lon="3.61642">
        <ele>173.66</ele>
        <time>2013-04-28T05:24:04Z</time>
      </trkpt>
      <trkpt lat="47.73863" lon="3.6166">
        <ele>174.14</ele>
        <time>2013-04-28T05:24:13Z</time>
      </trkpt>
      <trkpt lat="47.73868" lon="3.61677">
        <ele>174.62</ele>
        <time>2013-04-28T05:24:21Z</time>
      </trkpt>
      <trkpt lat="47.73874" lon="3.61693">
        <ele>174.62</ele>
        <time>2013-04-28T05:24:29Z</time>
      </trkpt>
      <trkpt lat="47.73878" lon="3.61705">
        <ele>174.62</ele>
        <time>2013-04-28T05:24:36Z</time>
      </trkpt>
      <trkpt lat="47.73883" lon="3.61721">
        <ele>175.1</ele>
        <time>2013-04-28T05:24:44Z</time>
      </trkpt>
      <trkpt lat="47.73883" lon="3.61723">
        <ele>175.1</ele>
        <time>2013-04-28T05:24:45Z</time>
      </trkpt>
      <trkpt lat="47.73883" lon="3.61725">
        <ele>175.58</ele>
        <time>2013-04-28T05:24:46Z</time>
      </trkpt>
      <trkpt lat="47.73882" lon="3.61727">
        <ele>175.58</ele>
        <time>2013-04-28T05:24:47Z</time>
      </trkpt>
      <trkpt lat="47.73881" lon="3.61728">
        <ele>175.58</ele>
        <time>2013-04-28T05:24:48Z</time>
      </trkpt>
      <trkpt lat="47.73874" lon="3.61739">
        <ele>176.06</ele>
        <time>2013-04-28T05:24:55Z</time>
      </trkpt>
      <trkpt lat="47.73865" lon="3.61744">
        <ele>177.5</ele>
        <time>2013-04-28T05:25:02Z</time>
      </trkpt>
      <trkpt lat="47.73857" lon="3.6175">
        <ele>178.46</ele>
        <time>2013-04-28T05:25:09Z</time>
      </trkpt>
      <trkpt lat="47.73848" lon="3.6176">
        <ele>179.42</ele>
        <time>2013-04-28T05:25:17Z</time>
      </trkpt>
      <trkpt lat="47.7384" lon="3.6177">
        <ele>180.38</ele>
        <time>2013-04-28T05:25:24Z</time>
      </trkpt>
      <trkpt lat="47.73832" lon="3.61779">
        <ele>180.38</ele>
        <time>2013-04-28T05:25:31Z</time>
      </trkpt>
      <trkpt lat="47.73823" lon="3.6179">
        <ele>181.35</ele>
        <time>2013-04-28T05:25:39Z</time>
      </trkpt>
      <trkpt lat="47.73815" lon="3.61799">
        <ele>181.35</ele>
        <time>2013-04-28T05:25:46Z</time>
      </trkpt>
      <trkpt lat="47.73807" lon="3.61807">
        <ele>182.31</ele>
        <time>2013-04-28T05:25:53Z</time>
      </trkpt>
      <trkpt lat="47.738" lon="3.61818">
        <ele>182.31</ele>
        <time>2013-04-28T05:26:00Z</time>
      </trkpt>
      <trkpt lat="47.7379" lon="3.61834">
        <ele>182.79</ele>
        <time>2013-04-28T05:26:10Z</time>
      </trkpt>
      <trkpt lat="47.73787" lon="3.61837">
        <ele>182.79</ele>
        <time>2013-04-28T05:26:12Z</time>
      </trkpt>
      <trkpt lat="47.73787" lon="3.61839">
        <ele>182.79</ele>
        <time>2013-04-28T05:26:13Z</time>
      </trkpt>
      <trkpt lat="47.73783" lon="3.61849">
        <ele>182.79</ele>
        <time>2013-04-28T05:26:18Z</time>
      </trkpt>
      <trkpt lat="47.73782" lon="3.61851">
        <ele>182.79</ele>
        <time>2013-04-28T05:26:19Z</time>
      </trkpt>
      <trkpt lat="47.73781" lon="3.61853">
        <ele>182.31</ele>
        <time>2013-04-28T05:26:20Z</time>
      </trkpt>
      <trkpt lat="47.73781" lon="3.61855">
        <ele>182.31</ele>
        <time>2013-04-28T05:26:21Z</time>
      </trkpt>
      <trkpt lat="47.7378" lon="3.61857">
        <ele>182.79</ele>
        <time>2013-04-28T05:26:22Z</time>
      </trkpt>
      <trkpt lat="47.73775" lon="3.61876">
        <ele>183.27</ele>
        <time>2013-04-28T05:26:31Z</time>
      </trkpt>
      <trkpt lat="47.73768" lon="3.61892">
        <ele>183.27</ele>
        <time>2013-04-28T05:26:40Z</time>
      </trkpt>
      <trkpt lat="47.73759" lon="3.61902">
        <ele>183.27</ele>
        <time>2013-04-28T05:26:48Z</time>
      </trkpt>
      <trkpt lat="47.73746" lon="3.61903">
        <ele>183.75</ele>
        <time>2013-04-28T05:26:57Z</time>
      </trkpt>
      <trkpt lat="47.73731" lon="3.61899">
        <ele>183.75</ele>
        <time>2013-04-28T05:27:08Z</time>
      </trkpt>
      <trkpt lat="47.73722" lon="3.61893">
        <ele>184.23</ele>
        <time>2013-04-28T05:27:15Z</time>
      </trkpt>
      <trkpt lat="47.73711" lon="3.61886">
        <ele>184.23</ele>
        <time>2013-04-28T05:27:23Z</time>
      </trkpt>
      <trkpt lat="47.73698" lon="3.61878">
        <ele>185.19</ele>
        <time>2013-04-28T05:27:33Z</time>
      </trkpt>
      <trkpt lat="47.73692" lon="3.61873">
        <ele>185.19</ele>
        <time>2013-04-28T05:27:38Z</time>
      </trkpt>
      <trkpt lat="47.7369" lon="3.61872">
        <ele>185.67</ele>
        <time>2013-04-28T05:27:39Z</time>
      </trkpt>
      <trkpt lat="47.73689" lon="3.61871">
        <ele>185.19</ele>
        <time>2013-04-28T05:27:40Z</time>
      </trkpt>
      <trkpt lat="47.73687" lon="3.6187">
        <ele>185.67</ele>
        <time>2013-04-28T05:27:41Z</time>
      </trkpt>
      <trkpt lat="47.73685" lon="3.6187">
        <ele>185.19</ele>
        <time>2013-04-28T05:27:42Z</time>
      </trkpt>
      <trkpt lat="47.73684" lon="3.61869">
        <ele>185.67</ele>
        <time>2013-04-28T05:27:43Z</time>
      </trkpt>
      <trkpt lat="47.73673" lon="3.61862">
        <ele>186.15</ele>
        <time>2013-04-28T05:27:51Z</time>
      </trkpt>
      <trkpt lat="47.73667" lon="3.6186">
        <ele>186.15</ele>
        <time>2013-04-28T05:27:55Z</time>
      </trkpt>
      <trkpt lat="47.73667" lon="3.61859">
        <ele>185.67</ele>
        <time>2013-04-28T05:27:56Z</time>
      </trkpt>
      <trkpt lat="47.73665" lon="3.61858">
        <ele>185.67</ele>
        <time>2013-04-28T05:27:57Z</time>
      </trkpt>
      <trkpt lat="47.73664" lon="3.61858">
        <ele>186.15</ele>
        <time>2013-04-28T05:27:58Z</time>
      </trkpt>
      <trkpt lat="47.73663" lon="3.61857">
        <ele>185.67</ele>
        <time>2013-04-28T05:27:59Z</time>
      </trkpt>
      <trkpt lat="47.73661" lon="3.61857">
        <ele>186.15</ele>
        <time>2013-04-28T05:28:00Z</time>
      </trkpt>
      <trkpt lat="47.7366" lon="3.61856">
        <ele>186.63</ele>
        <time>2013-04-28T05:28:01Z</time>
      </trkpt>
      <trkpt lat="47.73648" lon="3.6185">
        <ele>186.63</ele>
        <time>2013-04-28T05:28:10Z</time>
      </trkpt>
      <trkpt lat="47.73636" lon="3.61844">
        <ele>187.11</ele>
        <time>2013-04-28T05:28:18Z</time>
      </trkpt>
      <trkpt lat="47.73626" lon="3.61836">
        <ele>187.59</ele>
        <time>2013-04-28T05:28:26Z</time>
      </trkpt>
      <trkpt lat="47.73613" lon="3.6183">
        <ele>188.08</ele>
        <time>2013-04-28T05:28:35Z</time>
      </trkpt>
      <trkpt lat="47.7361" lon="3.61829">
        <ele>188.08</ele>
        <time>2013-04-28T05:28:37Z</time>
      </trkpt>
      <trkpt lat="47.73609" lon="3.61829">
        <ele>188.56</ele>
        <time>2013-04-28T05:28:38Z</time>
      </trkpt>
      <trkpt lat="47.73607" lon="3.61828">
        <ele>188.56</ele>
        <time>2013-04-28T05:28:39Z</time>
      </trkpt>
      <trkpt lat="47.73606" lon="3.61828">
        <ele>188.08</ele>
        <time>2013-04-28T05:28:40Z</time>
      </trkpt>
      <trkpt lat="47.73604" lon="3.61828">
        <ele>188.56</ele>
        <time>2013-04-28T05:28:41Z</time>
      </trkpt>
      <trkpt lat="47.73603" lon="3.61827">
        <ele>188.08</ele>
        <time>2013-04-28T05:28:42Z</time>
      </trkpt>
      <trkpt lat="47.7359" lon="3.61822">
        <ele>189.04</ele>
        <time>2013-04-28T05:28:51Z</time>
      </trkpt>
      <trkpt lat="47.73577" lon="3.61815">
        <ele>189.04</ele>
        <time>2013-04-28T05:29:00Z</time>
      </trkpt>
      <trkpt lat="47.73564" lon="3.61811">
        <ele>188.56</ele>
        <time>2013-04-28T05:29:08Z</time>
      </trkpt>
      <trkpt lat="47.73563" lon="3.6181">
        <ele>189.52</ele>
        <time>2013-04-28T05:29:09Z</time>
      </trkpt>
      <trkpt lat="47.73561" lon="3.6181">
        <ele>189.52</ele>
        <time>2013-04-28T05:29:10Z</time>
      </trkpt>
      <trkpt lat="47.7356" lon="3.61809">
        <ele>189.04</ele>
        <time>2013-04-28T05:29:11Z</time>
      </trkpt>
      <trkpt lat="47.73558" lon="3.61809">
        <ele>189.52</ele>
        <time>2013-04-28T05:29:12Z</time>
      </trkpt>
      <trkpt lat="47.73556" lon="3.61809">
        <ele>189.04</ele>
        <time>2013-04-28T05:29:13Z</time>
      </trkpt>
      <trkpt lat="47.73555" lon="3.61809">
        <ele>189.04</ele>
        <time>2013-04-28T05:29:14Z</time>
      </trkpt>
      <trkpt lat="47.73541" lon="3.61805">
        <ele>189.04</ele>
        <time>2013-04-28T05:29:23Z</time>
      </trkpt>
      <trkpt lat="47.73529" lon="3.61806">
        <ele>189.52</ele>
        <time>2013-04-28T05:29:31Z</time>
      </trkpt>
      <trkpt lat="47.73528" lon="3.61807">
        <ele>188.56</ele>
        <time>2013-04-28T05:29:32Z</time>
      </trkpt>
      <trkpt lat="47.73527" lon="3.61809">
        <ele>189.04</ele>
        <time>2013-04-28T05:29:33Z</time>
      </trkpt>
      <trkpt lat="47.73526" lon="3.6181">
        <ele>189.04</ele>
        <time>2013-04-28T05:29:34Z</time>
      </trkpt>
      <trkpt lat="47.73525" lon="3.61812">
        <ele>188.56</ele>
        <time>2013-04-28T05:29:35Z</time>
      </trkpt>
      <trkpt lat="47.73525" lon="3.61814">
        <ele>188.08</ele>
        <time>2013-04-28T05:29:36Z</time>
      </trkpt>
      <trkpt lat="47.73525" lon="3.61816">
        <ele>188.56</ele>
        <time>2013-04-28T05:29:37Z</time>
      </trkpt>
      <trkpt lat="47.73519" lon="3.61832">
        <ele>187.11</ele>
        <time>2013-04-28T05:29:44Z</time>
      </trkpt>
      <trkpt lat="47.73514" lon="3.6185">
        <ele>186.63</ele>
        <time>2013-04-28T05:29:52Z</time>
      </trkpt>
      <trkpt lat="47.7351" lon="3.61863">
        <ele>186.15</ele>
        <time>2013-04-28T05:29:59Z</time>
      </trkpt>
      <trkpt lat="47.73506" lon="3.6188">
        <ele>186.63</ele>
        <time>2013-04-28T05:30:07Z</time>
      </trkpt>
      <trkpt lat="47.73501" lon="3.61895">
        <ele>185.67</ele>
        <time>2013-04-28T05:30:15Z</time>
      </trkpt>
      <trkpt lat="47.73497" lon="3.61909">
        <ele>185.67</ele>
        <time>2013-04-28T05:30:22Z</time>
      </trkpt>
      <trkpt lat="47.73497" lon="3.61911">
        <ele>185.67</ele>
        <time>2013-04-28T05:30:23Z</time>
      </trkpt>
      <trkpt lat="47.73496" lon="3.61913">
        <ele>185.67</ele>
        <time>2013-04-28T05:30:24Z</time>
      </trkpt>
      <trkpt lat="47.73496" lon="3.61915">
        <ele>185.19</ele>
        <time>2013-04-28T05:30:25Z</time>
      </trkpt>
      <trkpt lat="47.73495" lon="3.61918">
        <ele>186.15</ele>
        <time>2013-04-28T05:30:26Z</time>
      </trkpt>
      <trkpt lat="47.73492" lon="3.61936">
        <ele>184.71</ele>
        <time>2013-04-28T05:30:35Z</time>
      </trkpt>
      <trkpt lat="47.73491" lon="3.61953">
        <ele>184.23</ele>
        <time>2013-04-28T05:30:43Z</time>
      </trkpt>
      <trkpt lat="47.73491" lon="3.61969">
        <ele>184.23</ele>
        <time>2013-04-28T05:30:51Z</time>
      </trkpt>
      <trkpt lat="47.73488" lon="3.61988">
        <ele>183.75</ele>
        <time>2013-04-28T05:30:59Z</time>
      </trkpt>
      <trkpt lat="47.73486" lon="3.62009">
        <ele>183.27</ele>
        <time>2013-04-28T05:31:08Z</time>
      </trkpt>
      <trkpt lat="47.73484" lon="3.62029">
        <ele>182.79</ele>
        <time>2013-04-28T05:31:16Z</time>
      </trkpt>
      <trkpt lat="47.73482" lon="3.62046">
        <ele>182.79</ele>
        <time>2013-04-28T05:31:24Z</time>
      </trkpt>
      <trkpt lat="47.73478" lon="3.62068">
        <ele>182.31</ele>
        <time>2013-04-28T05:31:34Z</time>
      </trkpt>
      <trkpt lat="47.73474" lon="3.62085">
        <ele>182.79</ele>
        <time>2013-04-28T05:31:43Z</time>
      </trkpt>
      <trkpt lat="47.73469" lon="3.62105">
        <ele>182.79</ele>
        <time>2013-04-28T05:31:52Z</time>
      </trkpt>
      <trkpt lat="47.73462" lon="3.62124">
        <ele>182.31</ele>
        <time>2013-04-28T05:32:01Z</time>
      </trkpt>
      <trkpt lat="47.73458" lon="3.62143">
        <ele>182.79</ele>
        <time>2013-04-28T05:32:10Z</time>
      </trkpt>
      <trkpt lat="47.7346" lon="3.6216">
        <ele>183.75</ele>
        <time>2013-04-28T05:32:18Z</time>
      </trkpt>
      <trkpt lat="47.73456" lon="3.62175">
        <ele>184.71</ele>
        <time>2013-04-28T05:32:25Z</time>
      </trkpt>
      <trkpt lat="47.73447" lon="3.62185">
        <ele>185.67</ele>
        <time>2013-04-28T05:32:33Z</time>
      </trkpt>
      <trkpt lat="47.73439" lon="3.62196">
        <ele>187.11</ele>
        <time>2013-04-28T05:32:42Z</time>
      </trkpt>
      <trkpt lat="47.73434" lon="3.62203">
        <ele>189.04</ele>
        <time>2013-04-28T05:32:47Z</time>
      </trkpt>
      <trkpt lat="47.73424" lon="3.62216">
        <ele>189.52</ele>
        <time>2013-04-28T05:32:56Z</time>
      </trkpt>
      <trkpt lat="47.73422" lon="3.62218">
        <ele>189.52</ele>
        <time>2013-04-28T05:32:58Z</time>
      </trkpt>
      <trkpt lat="47.73421" lon="3.6222">
        <ele>189.52</ele>
        <time>2013-04-28T05:32:59Z</time>
      </trkpt>
      <trkpt lat="47.7342" lon="3.62222">
        <ele>189.52</ele>
        <time>2013-04-28T05:33:00Z</time>
      </trkpt>
      <trkpt lat="47.73413" lon="3.62232">
        <ele>191.44</ele>
        <time>2013-04-28T05:33:08Z</time>
      </trkpt>
      <trkpt lat="47.73405" lon="3.62242">
        <ele>191.44</ele>
        <time>2013-04-28T05:33:15Z</time>
      </trkpt>
      <trkpt lat="47.73402" lon="3.62245">
        <ele>187.59</ele>
        <time>2013-04-28T05:33:17Z</time>
      </trkpt>
      <trkpt lat="47.73401" lon="3.62246">
        <ele>192.4</ele>
        <time>2013-04-28T05:33:18Z</time>
      </trkpt>
      <trkpt lat="47.73399" lon="3.62248">
        <ele>193.84</ele>
        <time>2013-04-28T05:33:20Z</time>
      </trkpt>
      <trkpt lat="47.73389" lon="3.62263">
        <ele>194.8</ele>
        <time>2013-04-28T05:33:30Z</time>
      </trkpt>
      <trkpt lat="47.73381" lon="3.62273">
        <ele>195.28</ele>
        <time>2013-04-28T05:33:38Z</time>
      </trkpt>
      <trkpt lat="47.73374" lon="3.62284">
        <ele>197.21</ele>
        <time>2013-04-28T05:33:46Z</time>
      </trkpt>
      <trkpt lat="47.73372" lon="3.62284">
        <ele>196.73</ele>
        <time>2013-04-28T05:33:47Z</time>
      </trkpt>
      <trkpt lat="47.73371" lon="3.62285">
        <ele>196.73</ele>
        <time>2013-04-28T05:33:48Z</time>
      </trkpt>
      <trkpt lat="47.73362" lon="3.62296">
        <ele>198.65</ele>
        <time>2013-04-28T05:33:57Z</time>
      </trkpt>
      <trkpt lat="47.73357" lon="3.62304">
        <ele>200.09</ele>
        <time>2013-04-28T05:34:03Z</time>
      </trkpt>
      <trkpt lat="47.73353" lon="3.62309">
        <ele>200.57</ele>
        <time>2013-04-28T05:34:07Z</time>
      </trkpt>
      <trkpt lat="47.73352" lon="3.6231">
        <ele>201.05</ele>
        <time>2013-04-28T05:34:08Z</time>
      </trkpt>
      <trkpt lat="47.73345" lon="3.62319">
        <ele>202.49</ele>
        <time>2013-04-28T05:34:15Z</time>
      </trkpt>
      <trkpt lat="47.7334" lon="3.62327">
        <ele>204.42</ele>
        <time>2013-04-28T05:34:22Z</time>
      </trkpt>
      <trkpt lat="47.73329" lon="3.6233">
        <ele>204.9</ele>
        <time>2013-04-28T05:34:31Z</time>
      </trkpt>
      <trkpt lat="47.73318" lon="3.62316">
        <ele>205.38</ele>
        <time>2013-04-28T05:34:40Z</time>
      </trkpt>
      <trkpt lat="47.7331" lon="3.62301">
        <ele>205.86</ele>
        <time>2013-04-28T05:34:49Z</time>
      </trkpt>
      <trkpt lat="47.733" lon="3.62286">
        <ele>205.86</ele>
        <time>2013-04-28T05:34:59Z</time>
      </trkpt>
      <trkpt lat="47.73294" lon="3.62273">
        <ele>205.86</ele>
        <time>2013-04-28T05:35:07Z</time>
      </trkpt>
      <trkpt lat="47.73286" lon="3.62259">
        <ele>205.38</ele>
        <time>2013-04-28T05:35:16Z</time>
      </trkpt>
      <trkpt lat="47.73278" lon="3.62246">
        <ele>205.38</ele>
        <time>2013-04-28T05:35:24Z</time>
      </trkpt>
      <trkpt lat="47.73266" lon="3.62221">
        <ele>206.34</ele>
        <time>2013-04-28T05:35:38Z</time>
      </trkpt>
      <trkpt lat="47.73255" lon="3.62201">
        <ele>206.82</ele>
        <time>2013-04-28T05:35:50Z</time>
      </trkpt>
      <trkpt lat="47.73245" lon="3.62183">
        <ele>206.34</ele>
        <time>2013-04-28T05:36:01Z</time>
      </trkpt>
      <trkpt lat="47.73235" lon="3.62164">
        <ele>206.34</ele>
        <time>2013-04-28T05:36:12Z</time>
      </trkpt>
      <trkpt lat="47.73224" lon="3.62145">
        <ele>207.3</ele>
        <time>2013-04-28T05:36:23Z</time>
      </trkpt>
      <trkpt lat="47.73214" lon="3.62131">
        <ele>207.78</ele>
        <time>2013-04-28T05:36:33Z</time>
      </trkpt>
      <trkpt lat="47.732" lon="3.62115">
        <ele>211.15</ele>
        <time>2013-04-28T05:36:45Z</time>
      </trkpt>
      <trkpt lat="47.73192" lon="3.62106">
        <ele>209.22</ele>
        <time>2013-04-28T05:36:51Z</time>
      </trkpt>
      <trkpt lat="47.73182" lon="3.62094">
        <ele>209.22</ele>
        <time>2013-04-28T05:37:00Z</time>
      </trkpt>
      <trkpt lat="47.73172" lon="3.62079">
        <ele>209.22</ele>
        <time>2013-04-28T05:37:09Z</time>
      </trkpt>
      <trkpt lat="47.73163" lon="3.62067">
        <ele>209.7</ele>
        <time>2013-04-28T05:37:17Z</time>
      </trkpt>
      <trkpt lat="47.73151" lon="3.62054">
        <ele>210.19</ele>
        <time>2013-04-28T05:37:26Z</time>
      </trkpt>
      <trkpt lat="47.7314" lon="3.62042">
        <ele>209.7</ele>
        <time>2013-04-28T05:37:36Z</time>
      </trkpt>
      <trkpt lat="47.73137" lon="3.62039">
        <ele>208.26</ele>
        <time>2013-04-28T05:37:38Z</time>
      </trkpt>
      <trkpt lat="47.73134" lon="3.62037">
        <ele>210.19</ele>
        <time>2013-04-28T05:37:40Z</time>
      </trkpt>
      <trkpt lat="47.73122" lon="3.62024">
        <ele>210.19</ele>
        <time>2013-04-28T05:37:50Z</time>
      </trkpt>
      <trkpt lat="47.73109" lon="3.6201">
        <ele>209.7</ele>
        <time>2013-04-28T05:38:01Z</time>
      </trkpt>
      <trkpt lat="47.73098" lon="3.62004">
        <ele>210.19</ele>
        <time>2013-04-28T05:38:09Z</time>
      </trkpt>
      <trkpt lat="47.73089" lon="3.62011">
        <ele>209.22</ele>
        <time>2013-04-28T05:38:16Z</time>
      </trkpt>
      <trkpt lat="47.73081" lon="3.62024">
        <ele>210.19</ele>
        <time>2013-04-28T05:38:24Z</time>
      </trkpt>
      <trkpt lat="47.73072" lon="3.62039">
        <ele>210.67</ele>
        <time>2013-04-28T05:38:33Z</time>
      </trkpt>
      <trkpt lat="47.73064" lon="3.62052">
        <ele>210.19</ele>
        <time>2013-04-28T05:38:41Z</time>
      </trkpt>
      <trkpt lat="47.73054" lon="3.62066">
        <ele>210.67</ele>
        <time>2013-04-28T05:38:51Z</time>
      </trkpt>
      <trkpt lat="47.73043" lon="3.62082">
        <ele>211.15</ele>
        <time>2013-04-28T05:39:01Z</time>
      </trkpt>
      <trkpt lat="47.73037" lon="3.62107">
        <ele>211.63</ele>
        <time>2013-04-28T05:39:13Z</time>
      </trkpt>
      <trkpt lat="47.73035" lon="3.62133">
        <ele>212.59</ele>
        <time>2013-04-28T05:39:25Z</time>
      </trkpt>
      <trkpt lat="47.73034" lon="3.62151">
        <ele>213.07</ele>
        <time>2013-04-28T05:39:34Z</time>
      </trkpt>
      <trkpt lat="47.73032" lon="3.62174">
        <ele>214.03</ele>
        <time>2013-04-28T05:39:45Z</time>
      </trkpt>
      <trkpt lat="47.73031" lon="3.62196">
        <ele>214.99</ele>
        <time>2013-04-28T05:39:55Z</time>
      </trkpt>
      <trkpt lat="47.73029" lon="3.62218">
        <ele>215.95</ele>
        <time>2013-04-28T05:40:05Z</time>
      </trkpt>
      <trkpt lat="47.73027" lon="3.62239">
        <ele>215.95</ele>
        <time>2013-04-28T05:40:15Z</time>
      </trkpt>
      <trkpt lat="47.73026" lon="3.6226">
        <ele>216.43</ele>
        <time>2013-04-28T05:40:25Z</time>
      </trkpt>
      <trkpt lat="47.73024" lon="3.62275">
        <ele>216.43</ele>
        <time>2013-04-28T05:40:32Z</time>
      </trkpt>
      <trkpt lat="47.73023" lon="3.62295">
        <ele>216.43</ele>
        <time>2013-04-28T05:40:41Z</time>
      </trkpt>
      <trkpt lat="47.73022" lon="3.62317">
        <ele>217.4</ele>
        <time>2013-04-28T05:40:51Z</time>
      </trkpt>
      <trkpt lat="47.73021" lon="3.62334">
        <ele>217.4</ele>
        <time>2013-04-28T05:40:59Z</time>
      </trkpt>
      <trkpt lat="47.73019" lon="3.62356">
        <ele>217.4</ele>
        <time>2013-04-28T05:41:09Z</time>
      </trkpt>
      <trkpt lat="47.73019" lon="3.62378">
        <ele>217.88</ele>
        <time>2013-04-28T05:41:19Z</time>
      </trkpt>
      <trkpt lat="47.7302" lon="3.62397">
        <ele>218.84</ele>
        <time>2013-04-28T05:41:28Z</time>
      </trkpt>
      <trkpt lat="47.73022" lon="3.62418">
        <ele>218.84</ele>
        <time>2013-04-28T05:41:38Z</time>
      </trkpt>
      <trkpt lat="47.73025" lon="3.6244">
        <ele>219.8</ele>
        <time>2013-04-28T05:41:48Z</time>
      </trkpt>
      <trkpt lat="47.73027" lon="3.62462">
        <ele>219.32</ele>
        <time>2013-04-28T05:41:58Z</time>
      </trkpt>
      <trkpt lat="47.73031" lon="3.62486">
        <ele>219.8</ele>
        <time>2013-04-28T05:42:09Z</time>
      </trkpt>
      <trkpt lat="47.73034" lon="3.6251">
        <ele>218.84</ele>
        <time>2013-04-28T05:42:20Z</time>
      </trkpt>
      <trkpt lat="47.73035" lon="3.62532">
        <ele>218.36</ele>
        <time>2013-04-28T05:42:30Z</time>
      </trkpt>
      <trkpt lat="47.73034" lon="3.62551">
        <ele>217.4</ele>
        <time>2013-04-28T05:42:39Z</time>
      </trkpt>
      <trkpt lat="47.73031" lon="3.6257">
        <ele>215.95</ele>
        <time>2013-04-28T05:42:48Z</time>
      </trkpt>
      <trkpt lat="47.73026" lon="3.62593">
        <ele>214.99</ele>
        <time>2013-04-28T05:42:58Z</time>
      </trkpt>
      <trkpt lat="47.73022" lon="3.62609">
        <ele>213.55</ele>
        <time>2013-04-28T05:43:06Z</time>
      </trkpt>
      <trkpt lat="47.73015" lon="3.62632">
        <ele>212.59</ele>
        <time>2013-04-28T05:43:17Z</time>
      </trkpt>
      <trkpt lat="47.73013" lon="3.6264">
        <ele>211.15</ele>
        <time>2013-04-28T05:43:22Z</time>
      </trkpt>
      <trkpt lat="47.73012" lon="3.6264">
        <ele>212.59</ele>
        <time>2013-04-28T05:43:32Z</time>
      </trkpt>
      <trkpt lat="47.73005" lon="3.62666">
        <ele>211.63</ele>
        <time>2013-04-28T05:43:44Z</time>
      </trkpt>
      <trkpt lat="47.72999" lon="3.62689">
        <ele>210.67</ele>
        <time>2013-04-28T05:43:54Z</time>
      </trkpt>
      <trkpt lat="47.72996" lon="3.62711">
        <ele>209.7</ele>
        <time>2013-04-28T05:44:04Z</time>
      </trkpt>
      <trkpt lat="47.72993" lon="3.62733">
        <ele>209.22</ele>
        <time>2013-04-28T05:44:14Z</time>
      </trkpt>
      <trkpt lat="47.72993" lon="3.62756">
        <ele>207.78</ele>
        <time>2013-04-28T05:44:24Z</time>
      </trkpt>
      <trkpt lat="47.72995" lon="3.62784">
        <ele>207.3</ele>
        <time>2013-04-28T05:44:36Z</time>
      </trkpt>
      <trkpt lat="47.73002" lon="3.6281">
        <ele>206.82</ele>
        <time>2013-04-28T05:44:48Z</time>
      </trkpt>
      <trkpt lat="47.7301" lon="3.62828">
        <ele>207.3</ele>
        <time>2013-04-28T05:44:58Z</time>
      </trkpt>
      <trkpt lat="47.73018" lon="3.62845">
        <ele>207.3</ele>
        <time>2013-04-28T05:45:07Z</time>
      </trkpt>
      <trkpt lat="47.73026" lon="3.62862">
        <ele>206.82</ele>
        <time>2013-04-28T05:45:17Z</time>
      </trkpt>
      <trkpt lat="47.73034" lon="3.62879">
        <ele>207.78</ele>
        <time>2013-04-28T05:45:27Z</time>
      </trkpt>
      <trkpt lat="47.73042" lon="3.62899">
        <ele>207.3</ele>
        <time>2013-04-28T05:45:37Z</time>
      </trkpt>
      <trkpt lat="47.7305" lon="3.6291">
        <ele>207.78</ele>
        <time>2013-04-28T05:45:44Z</time>
      </trkpt>
      <trkpt lat="47.73054" lon="3.62917">
        <ele>207.78</ele>
        <time>2013-04-28T05:45:48Z</time>
      </trkpt>
      <trkpt lat="47.73054" lon="3.62919">
        <ele>207.3</ele>
        <time>2013-04-28T05:45:49Z</time>
      </trkpt>
      <trkpt lat="47.73055" lon="3.62921">
        <ele>207.78</ele>
        <time>2013-04-28T05:45:50Z</time>
      </trkpt>
      <trkpt lat="47.73056" lon="3.62923">
        <ele>207.78</ele>
        <time>2013-04-28T05:45:51Z</time>
      </trkpt>
      <trkpt lat="47.73057" lon="3.62924">
        <ele>207.78</ele>
        <time>2013-04-28T05:45:52Z</time>
      </trkpt>
      <trkpt lat="47.73066" lon="3.62939">
        <ele>207.78</ele>
        <time>2013-04-28T05:46:01Z</time>
      </trkpt>
      <trkpt lat="47.73074" lon="3.62954">
        <ele>208.74</ele>
        <time>2013-04-28T05:46:10Z</time>
      </trkpt>
      <trkpt lat="47.73082" lon="3.62969">
        <ele>208.26</ele>
        <time>2013-04-28T05:46:19Z</time>
      </trkpt>
      <trkpt lat="47.73093" lon="3.62985">
        <ele>209.22</ele>
        <time>2013-04-28T05:46:29Z</time>
      </trkpt>
      <trkpt lat="47.73096" lon="3.6299">
        <ele>209.22</ele>
        <time>2013-04-28T05:46:32Z</time>
      </trkpt>
      <trkpt lat="47.73097" lon="3.62991">
        <ele>208.74</ele>
        <time>2013-04-28T05:46:33Z</time>
      </trkpt>
      <trkpt lat="47.73104" lon="3.63007">
        <ele>209.22</ele>
        <time>2013-04-28T05:46:42Z</time>
      </trkpt>
      <trkpt lat="47.73113" lon="3.63028">
        <ele>208.74</ele>
        <time>2013-04-28T05:46:53Z</time>
      </trkpt>
      <trkpt lat="47.73122" lon="3.63047">
        <ele>208.26</ele>
        <time>2013-04-28T05:47:03Z</time>
      </trkpt>
      <trkpt lat="47.7313" lon="3.63061">
        <ele>206.82</ele>
        <time>2013-04-28T05:47:11Z</time>
      </trkpt>
      <trkpt lat="47.73139" lon="3.6308">
        <ele>206.34</ele>
        <time>2013-04-28T05:47:21Z</time>
      </trkpt>
      <trkpt lat="47.7314" lon="3.63081">
        <ele>205.86</ele>
        <time>2013-04-28T05:47:22Z</time>
      </trkpt>
      <trkpt lat="47.73141" lon="3.63083">
        <ele>206.82</ele>
        <time>2013-04-28T05:47:23Z</time>
      </trkpt>
      <trkpt lat="47.73142" lon="3.63084">
        <ele>206.34</ele>
        <time>2013-04-28T05:47:24Z</time>
      </trkpt>
      <trkpt lat="47.73143" lon="3.63086">
        <ele>206.34</ele>
        <time>2013-04-28T05:47:25Z</time>
      </trkpt>
      <trkpt lat="47.73151" lon="3.63105">
        <ele>204.9</ele>
        <time>2013-04-28T05:47:34Z</time>
      </trkpt>
      <trkpt lat="47.73157" lon="3.63124">
        <ele>203.46</ele>
        <time>2013-04-28T05:47:44Z</time>
      </trkpt>
      <trkpt lat="47.73159" lon="3.63129">
        <ele>202.98</ele>
        <time>2013-04-28T05:47:47Z</time>
      </trkpt>
      <trkpt lat="47.7316" lon="3.63131">
        <ele>202.98</ele>
        <time>2013-04-28T05:47:48Z</time>
      </trkpt>
      <trkpt lat="47.7316" lon="3.63133">
        <ele>202.49</ele>
        <time>2013-04-28T05:47:49Z</time>
      </trkpt>
      <trkpt lat="47.73161" lon="3.63135">
        <ele>202.49</ele>
        <time>2013-04-28T05:47:50Z</time>
      </trkpt>
      <trkpt lat="47.73161" lon="3.63137">
        <ele>202.49</ele>
        <time>2013-04-28T05:47:51Z</time>
      </trkpt>
      <trkpt lat="47.73162" lon="3.6314">
        <ele>202.01</ele>
        <time>2013-04-28T05:47:52Z</time>
      </trkpt>
      <trkpt lat="47.73162" lon="3.63142">
        <ele>202.01</ele>
        <time>2013-04-28T05:47:53Z</time>
      </trkpt>
      <trkpt lat="47.73168" lon="3.6316">
        <ele>200.57</ele>
        <time>2013-04-28T05:48:01Z</time>
      </trkpt>
      <trkpt lat="47.73173" lon="3.6318">
        <ele>198.65</ele>
        <time>2013-04-28T05:48:11Z</time>
      </trkpt>
      <trkpt lat="47.73179" lon="3.63198">
        <ele>198.17</ele>
        <time>2013-04-28T05:48:20Z</time>
      </trkpt>
      <trkpt lat="47.73181" lon="3.63208">
        <ele>197.21</ele>
        <time>2013-04-28T05:48:25Z</time>
      </trkpt>
      <trkpt lat="47.73187" lon="3.63225">
        <ele>196.73</ele>
        <time>2013-04-28T05:48:34Z</time>
      </trkpt>
      <trkpt lat="47.73193" lon="3.63245">
        <ele>196.73</ele>
        <time>2013-04-28T05:48:43Z</time>
      </trkpt>
      <trkpt lat="47.73198" lon="3.63261">
        <ele>196.73</ele>
        <time>2013-04-28T05:48:51Z</time>
      </trkpt>
      <trkpt lat="47.73202" lon="3.63279">
        <ele>196.73</ele>
        <time>2013-04-28T05:48:59Z</time>
      </trkpt>
      <trkpt lat="47.73205" lon="3.63296">
        <ele>196.25</ele>
        <time>2013-04-28T05:49:07Z</time>
      </trkpt>
      <trkpt lat="47.73207" lon="3.63315">
        <ele>196.25</ele>
        <time>2013-04-28T05:49:16Z</time>
      </trkpt>
      <trkpt lat="47.73211" lon="3.63331">
        <ele>196.73</ele>
        <time>2013-04-28T05:49:24Z</time>
      </trkpt>
      <trkpt lat="47.73219" lon="3.63347">
        <ele>195.28</ele>
        <time>2013-04-28T05:49:33Z</time>
      </trkpt>
      <trkpt lat="47.73229" lon="3.63358">
        <ele>194.8</ele>
        <time>2013-04-28T05:49:40Z</time>
      </trkpt>
      <trkpt lat="47.73239" lon="3.63368">
        <ele>193.84</ele>
        <time>2013-04-28T05:49:48Z</time>
      </trkpt>
      <trkpt lat="47.73244" lon="3.63376">
        <ele>193.84</ele>
        <time>2013-04-28T05:49:53Z</time>
      </trkpt>
      <trkpt lat="47.73244" lon="3.63378">
        <ele>193.36</ele>
        <time>2013-04-28T05:49:54Z</time>
      </trkpt>
      <trkpt lat="47.73243" lon="3.63381">
        <ele>193.36</ele>
        <time>2013-04-28T05:49:55Z</time>
      </trkpt>
      <trkpt lat="47.73237" lon="3.63389">
        <ele>193.36</ele>
        <time>2013-04-28T05:50:00Z</time>
      </trkpt>
      <trkpt lat="47.73236" lon="3.63388">
        <ele>193.36</ele>
        <time>2013-04-28T05:50:01Z</time>
      </trkpt>
      <trkpt lat="47.73234" lon="3.63388">
        <ele>193.84</ele>
        <time>2013-04-28T05:50:02Z</time>
      </trkpt>
      <trkpt lat="47.7322" lon="3.63379">
        <ele>195.77</ele>
        <time>2013-04-28T05:50:11Z</time>
      </trkpt>
      <trkpt lat="47.73217" lon="3.63378">
        <ele>195.28</ele>
        <time>2013-04-28T05:50:18Z</time>
      </trkpt>
      <trkpt lat="47.73217" lon="3.63378">
        <ele>195.77</ele>
        <time>2013-04-28T05:50:29Z</time>
      </trkpt>
      <trkpt lat="47.73215" lon="3.63378">
        <ele>195.77</ele>
        <time>2013-04-28T05:50:30Z</time>
      </trkpt>
      <trkpt lat="47.73214" lon="3.63377">
        <ele>196.25</ele>
        <time>2013-04-28T05:50:31Z</time>
      </trkpt>
      <trkpt lat="47.73199" lon="3.63375">
        <ele>197.21</ele>
        <time>2013-04-28T05:50:41Z</time>
      </trkpt>
      <trkpt lat="47.73186" lon="3.6338">
        <ele>198.17</ele>
        <time>2013-04-28T05:50:50Z</time>
      </trkpt>
      <trkpt lat="47.7317" lon="3.63389">
        <ele>199.13</ele>
        <time>2013-04-28T05:51:01Z</time>
      </trkpt>
      <trkpt lat="47.73157" lon="3.63398">
        <ele>200.09</ele>
        <time>2013-04-28T05:51:11Z</time>
      </trkpt>
      <trkpt lat="47.73147" lon="3.63406">
        <ele>200.57</ele>
        <time>2013-04-28T05:51:19Z</time>
      </trkpt>
      <trkpt lat="47.73134" lon="3.63416">
        <ele>201.05</ele>
        <time>2013-04-28T05:51:29Z</time>
      </trkpt>
      <trkpt lat="47.73118" lon="3.63425">
        <ele>201.53</ele>
        <time>2013-04-28T05:51:40Z</time>
      </trkpt>
      <trkpt lat="47.73104" lon="3.6343">
        <ele>201.53</ele>
        <time>2013-04-28T05:51:50Z</time>
      </trkpt>
      <trkpt lat="47.73088" lon="3.63431">
        <ele>201.53</ele>
        <time>2013-04-28T05:52:01Z</time>
      </trkpt>
      <trkpt lat="47.73075" lon="3.6343">
        <ele>202.49</ele>
        <time>2013-04-28T05:52:10Z</time>
      </trkpt>
      <trkpt lat="47.73061" lon="3.63429">
        <ele>202.49</ele>
        <time>2013-04-28T05:52:19Z</time>
      </trkpt>
      <trkpt lat="47.73049" lon="3.63429">
        <ele>202.98</ele>
        <time>2013-04-28T05:52:27Z</time>
      </trkpt>
      <trkpt lat="47.73035" lon="3.63429">
        <ele>203.46</ele>
        <time>2013-04-28T05:52:37Z</time>
      </trkpt>
      <trkpt lat="47.73023" lon="3.63428">
        <ele>203.46</ele>
        <time>2013-04-28T05:52:45Z</time>
      </trkpt>
      <trkpt lat="47.73009" lon="3.63427">
        <ele>204.42</ele>
        <time>2013-04-28T05:52:54Z</time>
      </trkpt>
      <trkpt lat="47.72996" lon="3.63425">
        <ele>204.9</ele>
        <time>2013-04-28T05:53:03Z</time>
      </trkpt>
      <trkpt lat="47.72981" lon="3.63421">
        <ele>204.9</ele>
        <time>2013-04-28T05:53:13Z</time>
      </trkpt>
      <trkpt lat="47.72969" lon="3.63418">
        <ele>204.9</ele>
        <time>2013-04-28T05:53:21Z</time>
      </trkpt>
      <trkpt lat="47.72954" lon="3.63413">
        <ele>204.9</ele>
        <time>2013-04-28T05:53:31Z</time>
      </trkpt>
      <trkpt lat="47.72941" lon="3.63409">
        <ele>204.9</ele>
        <time>2013-04-28T05:53:40Z</time>
      </trkpt>
      <trkpt lat="47.72929" lon="3.63406">
        <ele>205.38</ele>
        <time>2013-04-28T05:53:49Z</time>
      </trkpt>
      <trkpt lat="47.72916" lon="3.63402">
        <ele>205.86</ele>
        <time>2013-04-28T05:53:58Z</time>
      </trkpt>
      <trkpt lat="47.72902" lon="3.63397">
        <ele>206.82</ele>
        <time>2013-04-28T05:54:08Z</time>
      </trkpt>
      <trkpt lat="47.72887" lon="3.6339">
        <ele>206.34</ele>
        <time>2013-04-28T05:54:18Z</time>
      </trkpt>
      <trkpt lat="47.72873" lon="3.63377">
        <ele>206.34</ele>
        <time>2013-04-28T05:54:29Z</time>
      </trkpt>
      <trkpt lat="47.72861" lon="3.63366">
        <ele>205.86</ele>
        <time>2013-04-28T05:54:38Z</time>
      </trkpt>
      <trkpt lat="47.72849" lon="3.63355">
        <ele>204.9</ele>
        <time>2013-04-28T05:54:47Z</time>
      </trkpt>
      <trkpt lat="47.72839" lon="3.63345">
        <ele>204.9</ele>
        <time>2013-04-28T05:54:55Z</time>
      </trkpt>
      <trkpt lat="47.72831" lon="3.63337">
        <ele>204.9</ele>
        <time>2013-04-28T05:55:02Z</time>
      </trkpt>
      <trkpt lat="47.7282" lon="3.63327">
        <ele>204.9</ele>
        <time>2013-04-28T05:55:11Z</time>
      </trkpt>
      <trkpt lat="47.72809" lon="3.63316">
        <ele>204.9</ele>
        <time>2013-04-28T05:55:20Z</time>
      </trkpt>
      <trkpt lat="47.72797" lon="3.63304">
        <ele>204.42</ele>
        <time>2013-04-28T05:55:29Z</time>
      </trkpt>
      <trkpt lat="47.72787" lon="3.63296">
        <ele>204.42</ele>
        <time>2013-04-28T05:55:37Z</time>
      </trkpt>
      <trkpt lat="47.72778" lon="3.63288">
        <ele>204.42</ele>
        <time>2013-04-28T05:55:44Z</time>
      </trkpt>
      <trkpt lat="47.72765" lon="3.63279">
        <ele>204.9</ele>
        <time>2013-04-28T05:55:54Z</time>
      </trkpt>
      <trkpt lat="47.72753" lon="3.6328">
        <ele>204.42</ele>
        <time>2013-04-28T05:56:02Z</time>
      </trkpt>
      <trkpt lat="47.72744" lon="3.63292">
        <ele>205.86</ele>
        <time>2013-04-28T05:56:11Z</time>
      </trkpt>
      <trkpt lat="47.72742" lon="3.63306">
        <ele>207.3</ele>
        <time>2013-04-28T05:56:18Z</time>
      </trkpt>
      <trkpt lat="47.7274" lon="3.63325">
        <ele>208.26</ele>
        <time>2013-04-28T05:56:27Z</time>
      </trkpt>
      <trkpt lat="47.72739" lon="3.6334">
        <ele>210.19</ele>
        <time>2013-04-28T05:56:35Z</time>
      </trkpt>
      <trkpt lat="47.72736" lon="3.63356">
        <ele>211.15</ele>
        <time>2013-04-28T05:56:43Z</time>
      </trkpt>
      <trkpt lat="47.72733" lon="3.63373">
        <ele>212.11</ele>
        <time>2013-04-28T05:56:51Z</time>
      </trkpt>
      <trkpt lat="47.72727" lon="3.63391">
        <ele>213.07</ele>
        <time>2013-04-28T05:57:01Z</time>
      </trkpt>
      <trkpt lat="47.72717" lon="3.63409">
        <ele>212.11</ele>
        <time>2013-04-28T05:57:11Z</time>
      </trkpt>
      <trkpt lat="47.7271" lon="3.63432">
        <ele>211.15</ele>
        <time>2013-04-28T05:57:22Z</time>
      </trkpt>
      <trkpt lat="47.72707" lon="3.63448">
        <ele>211.15</ele>
        <time>2013-04-28T05:57:30Z</time>
      </trkpt>
      <trkpt lat="47.72702" lon="3.63467">
        <ele>210.67</ele>
        <time>2013-04-28T05:57:39Z</time>
      </trkpt>
      <trkpt lat="47.72698" lon="3.63489">
        <ele>211.15</ele>
        <time>2013-04-28T05:57:49Z</time>
      </trkpt>
      <trkpt lat="47.72692" lon="3.63507">
        <ele>210.67</ele>
        <time>2013-04-28T05:57:58Z</time>
      </trkpt>
      <trkpt lat="47.72687" lon="3.63523">
        <ele>211.15</ele>
        <time>2013-04-28T05:58:06Z</time>
      </trkpt>
      <trkpt lat="47.72686" lon="3.63523">
        <ele>209.22</ele>
        <time>2013-04-28T05:58:10Z</time>
      </trkpt>
      <trkpt lat="47.72685" lon="3.63525">
        <ele>210.67</ele>
        <time>2013-04-28T05:58:11Z</time>
      </trkpt>
      <trkpt lat="47.72684" lon="3.63527">
        <ele>211.63</ele>
        <time>2013-04-28T05:58:12Z</time>
      </trkpt>
      <trkpt lat="47.72684" lon="3.63529">
        <ele>212.11</ele>
        <time>2013-04-28T05:58:13Z</time>
      </trkpt>
      <trkpt lat="47.72683" lon="3.63531">
        <ele>211.15</ele>
        <time>2013-04-28T05:58:14Z</time>
      </trkpt>
      <trkpt lat="47.72682" lon="3.63533">
        <ele>211.15</ele>
        <time>2013-04-28T05:58:15Z</time>
      </trkpt>
      <trkpt lat="47.72676" lon="3.6355">
        <ele>210.67</ele>
        <time>2013-04-28T05:58:24Z</time>
      </trkpt>
      <trkpt lat="47.72669" lon="3.63566">
        <ele>210.67</ele>
        <time>2013-04-28T05:58:33Z</time>
      </trkpt>
      <trkpt lat="47.72667" lon="3.6357">
        <ele>210.67</ele>
        <time>2013-04-28T05:58:35Z</time>
      </trkpt>
      <trkpt lat="47.72667" lon="3.63571">
        <ele>210.67</ele>
        <time>2013-04-28T05:58:36Z</time>
      </trkpt>
      <trkpt lat="47.72658" lon="3.63589">
        <ele>211.63</ele>
        <time>2013-04-28T05:58:46Z</time>
      </trkpt>
      <trkpt lat="47.72653" lon="3.63605">
        <ele>211.15</ele>
        <time>2013-04-28T05:58:54Z</time>
      </trkpt>
      <trkpt lat="47.72647" lon="3.63626">
        <ele>211.63</ele>
        <time>2013-04-28T05:59:04Z</time>
      </trkpt>
      <trkpt lat="47.72645" lon="3.63645">
        <ele>211.63</ele>
        <time>2013-04-28T05:59:13Z</time>
      </trkpt>
      <trkpt lat="47.72643" lon="3.63668">
        <ele>211.63</ele>
        <time>2013-04-28T05:59:23Z</time>
      </trkpt>
      <trkpt lat="47.72641" lon="3.63688">
        <ele>211.63</ele>
        <time>2013-04-28T05:59:32Z</time>
      </trkpt>
      <trkpt lat="47.7264" lon="3.63708">
        <ele>212.11</ele>
        <time>2013-04-28T05:59:42Z</time>
      </trkpt>
      <trkpt lat="47.7264" lon="3.63736">
        <ele>211.15</ele>
        <time>2013-04-28T05:59:54Z</time>
      </trkpt>
      <trkpt lat="47.7264" lon="3.63756">
        <ele>211.63</ele>
        <time>2013-04-28T06:00:03Z</time>
      </trkpt>
      <trkpt lat="47.72641" lon="3.63777">
        <ele>211.63</ele>
        <time>2013-04-28T06:00:12Z</time>
      </trkpt>
      <trkpt lat="47.7264" lon="3.63798">
        <ele>210.19</ele>
        <time>2013-04-28T06:00:21Z</time>
      </trkpt>
      <trkpt lat="47.7264" lon="3.63817">
        <ele>209.22</ele>
        <time>2013-04-28T06:00:29Z</time>
      </trkpt>
      <trkpt lat="47.7264" lon="3.63838">
        <ele>208.74</ele>
        <time>2013-04-28T06:00:38Z</time>
      </trkpt>
      <trkpt lat="47.72642" lon="3.63851">
        <ele>208.26</ele>
        <time>2013-04-28T06:00:45Z</time>
      </trkpt>
      <trkpt lat="47.72645" lon="3.63865">
        <ele>208.74</ele>
        <time>2013-04-28T06:00:52Z</time>
      </trkpt>
      <trkpt lat="47.72648" lon="3.6388">
        <ele>208.74</ele>
        <time>2013-04-28T06:00:59Z</time>
      </trkpt>
      <trkpt lat="47.72652" lon="3.63898">
        <ele>208.74</ele>
        <time>2013-04-28T06:01:08Z</time>
      </trkpt>
      <trkpt lat="47.72659" lon="3.63914">
        <ele>209.22</ele>
        <time>2013-04-28T06:01:17Z</time>
      </trkpt>
      <trkpt lat="47.72666" lon="3.63929">
        <ele>210.19</ele>
        <time>2013-04-28T06:01:26Z</time>
      </trkpt>
      <trkpt lat="47.72674" lon="3.63949">
        <ele>210.19</ele>
        <time>2013-04-28T06:01:36Z</time>
      </trkpt>
      <trkpt lat="47.72677" lon="3.63957">
        <ele>210.67</ele>
        <time>2013-04-28T06:01:39Z</time>
      </trkpt>
      <trkpt lat="47.72678" lon="3.63959">
        <ele>210.67</ele>
        <time>2013-04-28T06:01:40Z</time>
      </trkpt>
      <trkpt lat="47.72679" lon="3.6396">
        <ele>210.19</ele>
        <time>2013-04-28T06:01:41Z</time>
      </trkpt>
      <trkpt lat="47.72686" lon="3.63974">
        <ele>211.15</ele>
        <time>2013-04-28T06:01:48Z</time>
      </trkpt>
      <trkpt lat="47.7269" lon="3.63983">
        <ele>211.15</ele>
        <time>2013-04-28T06:01:52Z</time>
      </trkpt>
      <trkpt lat="47.72691" lon="3.63984">
        <ele>211.63</ele>
        <time>2013-04-28T06:01:53Z</time>
      </trkpt>
      <trkpt lat="47.72692" lon="3.63985">
        <ele>211.15</ele>
        <time>2013-04-28T06:01:54Z</time>
      </trkpt>
      <trkpt lat="47.72693" lon="3.63986">
        <ele>211.15</ele>
        <time>2013-04-28T06:01:55Z</time>
      </trkpt>
      <trkpt lat="47.72695" lon="3.63988">
        <ele>211.63</ele>
        <time>2013-04-28T06:01:56Z</time>
      </trkpt>
      <trkpt lat="47.72696" lon="3.63989">
        <ele>211.15</ele>
        <time>2013-04-28T06:01:57Z</time>
      </trkpt>
      <trkpt lat="47.72697" lon="3.63991">
        <ele>211.63</ele>
        <time>2013-04-28T06:01:58Z</time>
      </trkpt>
      <trkpt lat="47.72704" lon="3.64005">
        <ele>211.63</ele>
        <time>2013-04-28T06:02:06Z</time>
      </trkpt>
      <trkpt lat="47.72709" lon="3.64021">
        <ele>212.11</ele>
        <time>2013-04-28T06:02:14Z</time>
      </trkpt>
      <trkpt lat="47.7271" lon="3.64025">
        <ele>212.59</ele>
        <time>2013-04-28T06:02:16Z</time>
      </trkpt>
      <trkpt lat="47.72713" lon="3.64042">
        <ele>212.59</ele>
        <time>2013-04-28T06:02:24Z</time>
      </trkpt>
      <trkpt lat="47.72713" lon="3.6405">
        <ele>212.11</ele>
        <time>2013-04-28T06:02:28Z</time>
      </trkpt>
      <trkpt lat="47.72711" lon="3.64072">
        <ele>211.63</ele>
        <time>2013-04-28T06:02:38Z</time>
      </trkpt>
      <trkpt lat="47.72708" lon="3.64091">
        <ele>210.19</ele>
        <time>2013-04-28T06:02:46Z</time>
      </trkpt>
      <trkpt lat="47.72707" lon="3.64111">
        <ele>210.19</ele>
        <time>2013-04-28T06:02:54Z</time>
      </trkpt>
      <trkpt lat="47.72705" lon="3.64131">
        <ele>210.67</ele>
        <time>2013-04-28T06:03:02Z</time>
      </trkpt>
      <trkpt lat="47.72703" lon="3.6415">
        <ele>211.63</ele>
        <time>2013-04-28T06:03:10Z</time>
      </trkpt>
      <trkpt lat="47.72695" lon="3.64178">
        <ele>211.63</ele>
        <time>2013-04-28T06:03:23Z</time>
      </trkpt>
      <trkpt lat="47.72691" lon="3.64197">
        <ele>211.15</ele>
        <time>2013-04-28T06:03:32Z</time>
      </trkpt>
      <trkpt lat="47.72684" lon="3.64218">
        <ele>211.15</ele>
        <time>2013-04-28T06:03:42Z</time>
      </trkpt>
      <trkpt lat="47.7268" lon="3.64233">
        <ele>210.19</ele>
        <time>2013-04-28T06:03:50Z</time>
      </trkpt>
      <trkpt lat="47.72671" lon="3.64249">
        <ele>209.22</ele>
        <time>2013-04-28T06:03:59Z</time>
      </trkpt>
      <trkpt lat="47.72663" lon="3.64265">
        <ele>208.74</ele>
        <time>2013-04-28T06:04:08Z</time>
      </trkpt>
      <trkpt lat="47.72654" lon="3.64286">
        <ele>207.3</ele>
        <time>2013-04-28T06:04:19Z</time>
      </trkpt>
      <trkpt lat="47.7265" lon="3.6431">
        <ele>207.78</ele>
        <time>2013-04-28T06:04:29Z</time>
      </trkpt>
      <trkpt lat="47.7265" lon="3.64329">
        <ele>207.3</ele>
        <time>2013-04-28T06:04:38Z</time>
      </trkpt>
      <trkpt lat="47.72653" lon="3.64343">
        <ele>206.82</ele>
        <time>2013-04-28T06:04:45Z</time>
      </trkpt>
      <trkpt lat="47.72654" lon="3.64346">
        <ele>207.3</ele>
        <time>2013-04-28T06:04:46Z</time>
      </trkpt>
      <trkpt lat="47.72656" lon="3.64369">
        <ele>207.3</ele>
        <time>2013-04-28T06:04:56Z</time>
      </trkpt>
      <trkpt lat="47.72661" lon="3.6439">
        <ele>206.82</ele>
        <time>2013-04-28T06:05:06Z</time>
      </trkpt>
      <trkpt lat="47.72668" lon="3.64413">
        <ele>207.3</ele>
        <time>2013-04-28T06:05:17Z</time>
      </trkpt>
      <trkpt lat="47.72676" lon="3.64432">
        <ele>208.26</ele>
        <time>2013-04-28T06:05:27Z</time>
      </trkpt>
      <trkpt lat="47.72678" lon="3.64435">
        <ele>208.26</ele>
        <time>2013-04-28T06:05:29Z</time>
      </trkpt>
      <trkpt lat="47.72679" lon="3.64437">
        <ele>208.26</ele>
        <time>2013-04-28T06:05:30Z</time>
      </trkpt>
      <trkpt lat="47.7268" lon="3.64439">
        <ele>208.74</ele>
        <time>2013-04-28T06:05:31Z</time>
      </trkpt>
      <trkpt lat="47.72687" lon="3.64458">
        <ele>208.26</ele>
        <time>2013-04-28T06:05:41Z</time>
      </trkpt>
      <trkpt lat="47.72694" lon="3.64473">
        <ele>208.74</ele>
        <time>2013-04-28T06:05:49Z</time>
      </trkpt>
      <trkpt lat="47.72696" lon="3.64492">
        <ele>208.26</ele>
        <time>2013-04-28T06:05:58Z</time>
      </trkpt>
      <trkpt lat="47.72697" lon="3.6451">
        <ele>207.78</ele>
        <time>2013-04-28T06:06:06Z</time>
      </trkpt>
      <trkpt lat="47.72699" lon="3.64533">
        <ele>206.82</ele>
        <time>2013-04-28T06:06:17Z</time>
      </trkpt>
      <trkpt lat="47.72704" lon="3.6455">
        <ele>205.86</ele>
        <time>2013-04-28T06:06:25Z</time>
      </trkpt>
      <trkpt lat="47.72714" lon="3.6456">
        <ele>206.82</ele>
        <time>2013-04-28T06:06:33Z</time>
      </trkpt>
      <trkpt lat="47.72727" lon="3.64572">
        <ele>207.78</ele>
        <time>2013-04-28T06:06:43Z</time>
      </trkpt>
      <trkpt lat="47.72731" lon="3.64575">
        <ele>208.26</ele>
        <time>2013-04-28T06:06:46Z</time>
      </trkpt>
      <trkpt lat="47.72732" lon="3.64577">
        <ele>207.78</ele>
        <time>2013-04-28T06:06:47Z</time>
      </trkpt>
      <trkpt lat="47.7274" lon="3.64588">
        <ele>208.74</ele>
        <time>2013-04-28T06:06:54Z</time>
      </trkpt>
      <trkpt lat="47.72748" lon="3.64596">
        <ele>208.74</ele>
        <time>2013-04-28T06:07:01Z</time>
      </trkpt>
      <trkpt lat="47.72762" lon="3.64609">
        <ele>209.7</ele>
        <time>2013-04-28T06:07:13Z</time>
      </trkpt>
      <trkpt lat="47.72769" lon="3.64618">
        <ele>210.67</ele>
        <time>2013-04-28T06:07:24Z</time>
      </trkpt>
      <trkpt lat="47.72765" lon="3.64617">
        <ele>210.67</ele>
        <time>2013-04-28T06:07:35Z</time>
      </trkpt>
      <trkpt lat="47.72767" lon="3.64618">
        <ele>210.19</ele>
        <time>2013-04-28T06:07:44Z</time>
      </trkpt>
      <trkpt lat="47.72767" lon="3.64618">
        <ele>210.67</ele>
        <time>2013-04-28T06:07:56Z</time>
      </trkpt>
      <trkpt lat="47.72768" lon="3.64618">
        <ele>210.19</ele>
        <time>2013-04-28T06:08:08Z</time>
      </trkpt>
      <trkpt lat="47.72768" lon="3.64619">
        <ele>210.19</ele>
        <time>2013-04-28T06:08:19Z</time>
      </trkpt>
      <trkpt lat="47.72766" lon="3.64617">
        <ele>210.67</ele>
        <time>2013-04-28T06:08:33Z</time>
      </trkpt>
      <trkpt lat="47.72766" lon="3.64618">
        <ele>210.67</ele>
        <time>2013-04-28T06:08:45Z</time>
      </trkpt>
      <trkpt lat="47.72769" lon="3.64617">
        <ele>210.67</ele>
        <time>2013-04-28T06:08:59Z</time>
      </trkpt>
      <trkpt lat="47.72767" lon="3.64618">
        <ele>210.19</ele>
        <time>2013-04-28T06:09:08Z</time>
      </trkpt>
      <trkpt lat="47.72769" lon="3.64617">
        <ele>210.19</ele>
        <time>2013-04-28T06:09:14Z</time>
      </trkpt>
      <trkpt lat="47.72772" lon="3.64615">
        <ele>209.7</ele>
        <time>2013-04-28T06:09:17Z</time>
      </trkpt>
      <trkpt lat="47.72773" lon="3.64614">
        <ele>211.15</ele>
        <time>2013-04-28T06:09:18Z</time>
      </trkpt>
      <trkpt lat="47.72774" lon="3.64612">
        <ele>207.3</ele>
        <time>2013-04-28T06:09:20Z</time>
      </trkpt>
      <trkpt lat="47.72774" lon="3.64612">
        <ele>211.63</ele>
        <time>2013-04-28T06:09:21Z</time>
      </trkpt>
      <trkpt lat="47.72774" lon="3.64608">
        <ele>210.67</ele>
        <time>2013-04-28T06:09:31Z</time>
      </trkpt>
      <trkpt lat="47.72774" lon="3.64607">
        <ele>210.67</ele>
        <time>2013-04-28T06:09:46Z</time>
      </trkpt>
      <trkpt lat="47.72771" lon="3.64613">
        <ele>211.15</ele>
        <time>2013-04-28T06:09:54Z</time>
      </trkpt>
      <trkpt lat="47.72767" lon="3.64616">
        <ele>210.19</ele>
        <time>2013-04-28T06:09:57Z</time>
      </trkpt>
      <trkpt lat="47.72766" lon="3.6462">
        <ele>210.67</ele>
        <time>2013-04-28T06:10:04Z</time>
      </trkpt>
      <trkpt lat="47.72767" lon="3.6462">
        <ele>209.22</ele>
        <time>2013-04-28T06:10:07Z</time>
      </trkpt>
      <trkpt lat="47.72767" lon="3.6462">
        <ele>210.67</ele>
        <time>2013-04-28T06:10:09Z</time>
      </trkpt>
      <trkpt lat="47.72766" lon="3.6462">
        <ele>211.15</ele>
        <time>2013-04-28T06:10:24Z</time>
      </trkpt>
      <trkpt lat="47.72767" lon="3.6462">
        <ele>210.67</ele>
        <time>2013-04-28T06:10:34Z</time>
      </trkpt>
      <trkpt lat="47.72765" lon="3.64619">
        <ele>210.19</ele>
        <time>2013-04-28T06:10:46Z</time>
      </trkpt>
      <trkpt lat="47.72767" lon="3.6462">
        <ele>211.15</ele>
        <time>2013-04-28T06:10:57Z</time>
      </trkpt>
      <trkpt lat="47.72767" lon="3.6462">
        <ele>210.67</ele>
        <time>2013-04-28T06:11:07Z</time>
      </trkpt>
      <trkpt lat="47.72766" lon="3.6462">
        <ele>210.67</ele>
        <time>2013-04-28T06:11:20Z</time>
      </trkpt>
      <trkpt lat="47.72761" lon="3.6462">
        <ele>207.78</ele>
        <time>2013-04-28T06:11:27Z</time>
      </trkpt>
      <trkpt lat="47.72761" lon="3.64621">
        <ele>211.63</ele>
        <time>2013-04-28T06:11:29Z</time>
      </trkpt>
      <trkpt lat="47.72761" lon="3.6462">
        <ele>209.22</ele>
        <time>2013-04-28T06:11:30Z</time>
      </trkpt>
      <trkpt lat="47.72761" lon="3.64619">
        <ele>210.67</ele>
        <time>2013-04-28T06:11:34Z</time>
      </trkpt>
      <trkpt lat="47.7276" lon="3.64618">
        <ele>204.9</ele>
        <time>2013-04-28T06:11:38Z</time>
      </trkpt>
      <trkpt lat="47.7276" lon="3.64618">
        <ele>212.59</ele>
        <time>2013-04-28T06:11:39Z</time>
      </trkpt>
      <trkpt lat="47.72761" lon="3.64618">
        <ele>208.74</ele>
        <time>2013-04-28T06:11:43Z</time>
      </trkpt>
      <trkpt lat="47.7276" lon="3.6462">
        <ele>210.19</ele>
        <time>2013-04-28T06:11:47Z</time>
      </trkpt>
      <trkpt lat="47.72761" lon="3.64622">
        <ele>202.49</ele>
        <time>2013-04-28T06:11:58Z</time>
      </trkpt>
      <trkpt lat="47.72761" lon="3.64622">
        <ele>216.91</ele>
        <time>2013-04-28T06:11:59Z</time>
      </trkpt>
      <trkpt lat="47.72761" lon="3.64621">
        <ele>210.67</ele>
        <time>2013-04-28T06:12:00Z</time>
      </trkpt>
      <trkpt lat="47.72762" lon="3.6462">
        <ele>205.86</ele>
        <time>2013-04-28T06:12:05Z</time>
      </trkpt>
      <trkpt lat="47.72762" lon="3.64621">
        <ele>205.86</ele>
        <time>2013-04-28T06:12:06Z</time>
      </trkpt>
      <trkpt lat="47.72762" lon="3.64621">
        <ele>211.15</ele>
        <time>2013-04-28T06:12:07Z</time>
      </trkpt>
      <trkpt lat="47.72762" lon="3.64621">
        <ele>210.19</ele>
        <time>2013-04-28T06:12:08Z</time>
      </trkpt>
      <trkpt lat="47.72763" lon="3.64621">
        <ele>211.15</ele>
        <time>2013-04-28T06:12:19Z</time>
      </trkpt>
      <trkpt lat="47.72761" lon="3.64622">
        <ele>210.67</ele>
        <time>2013-04-28T06:12:30Z</time>
      </trkpt>
      <trkpt lat="47.7276" lon="3.64624">
        <ele>210.67</ele>
        <time>2013-04-28T06:12:32Z</time>
      </trkpt>
      <trkpt lat="47.7276" lon="3.64626">
        <ele>211.15</ele>
        <time>2013-04-28T06:12:33Z</time>
      </trkpt>
      <trkpt lat="47.72759" lon="3.64629">
        <ele>207.78</ele>
        <time>2013-04-28T06:12:36Z</time>
      </trkpt>
      <trkpt lat="47.72757" lon="3.64629">
        <ele>212.11</ele>
        <time>2013-04-28T06:12:37Z</time>
      </trkpt>
      <trkpt lat="47.72751" lon="3.64638">
        <ele>211.15</ele>
        <time>2013-04-28T06:12:44Z</time>
      </trkpt>
      <trkpt lat="47.72741" lon="3.64648">
        <ele>210.19</ele>
        <time>2013-04-28T06:12:52Z</time>
      </trkpt>
      <trkpt lat="47.72729" lon="3.64663">
        <ele>211.15</ele>
        <time>2013-04-28T06:13:02Z</time>
      </trkpt>
      <trkpt lat="47.72719" lon="3.64676">
        <ele>211.15</ele>
        <time>2013-04-28T06:13:11Z</time>
      </trkpt>
      <trkpt lat="47.72705" lon="3.64688">
        <ele>211.63</ele>
        <time>2013-04-28T06:13:21Z</time>
      </trkpt>
      <trkpt lat="47.72693" lon="3.64703">
        <ele>212.11</ele>
        <time>2013-04-28T06:13:32Z</time>
      </trkpt>
      <trkpt lat="47.72682" lon="3.64718">
        <ele>213.07</ele>
        <time>2013-04-28T06:13:42Z</time>
      </trkpt>
      <trkpt lat="47.72669" lon="3.64732">
        <ele>213.07</ele>
        <time>2013-04-28T06:13:52Z</time>
      </trkpt>
      <trkpt lat="47.7266" lon="3.64744">
        <ele>214.03</ele>
        <time>2013-04-28T06:14:00Z</time>
      </trkpt>
      <trkpt lat="47.72651" lon="3.64756">
        <ele>214.51</ele>
        <time>2013-04-28T06:14:08Z</time>
      </trkpt>
      <trkpt lat="47.72639" lon="3.64766">
        <ele>215.47</ele>
        <time>2013-04-28T06:14:17Z</time>
      </trkpt>
      <trkpt lat="47.7263" lon="3.64773">
        <ele>216.43</ele>
        <time>2013-04-28T06:14:24Z</time>
      </trkpt>
      <trkpt lat="47.7262" lon="3.6478">
        <ele>217.88</ele>
        <time>2013-04-28T06:14:32Z</time>
      </trkpt>
      <trkpt lat="47.72609" lon="3.64785">
        <ele>218.36</ele>
        <time>2013-04-28T06:14:40Z</time>
      </trkpt>
      <trkpt lat="47.72598" lon="3.6479">
        <ele>219.8</ele>
        <time>2013-04-28T06:14:49Z</time>
      </trkpt>
      <trkpt lat="47.72585" lon="3.64794">
        <ele>221.72</ele>
        <time>2013-04-28T06:14:58Z</time>
      </trkpt>
      <trkpt lat="47.72573" lon="3.64798">
        <ele>223.16</ele>
        <time>2013-04-28T06:15:06Z</time>
      </trkpt>
      <trkpt lat="47.72562" lon="3.64801">
        <ele>224.61</ele>
        <time>2013-04-28T06:15:14Z</time>
      </trkpt>
      <trkpt lat="47.72551" lon="3.64805">
        <ele>225.09</ele>
        <time>2013-04-28T06:15:22Z</time>
      </trkpt>
      <trkpt lat="47.72544" lon="3.64805">
        <ele>226.05</ele>
        <time>2013-04-28T06:15:27Z</time>
      </trkpt>
      <trkpt lat="47.72534" lon="3.64808">
        <ele>227.97</ele>
        <time>2013-04-28T06:15:35Z</time>
      </trkpt>
      <trkpt lat="47.72524" lon="3.64812">
        <ele>229.41</ele>
        <time>2013-04-28T06:15:43Z</time>
      </trkpt>
      <trkpt lat="47.72516" lon="3.64815">
        <ele>230.37</ele>
        <time>2013-04-28T06:15:49Z</time>
      </trkpt>
      <trkpt lat="47.72512" lon="3.64817">
        <ele>230.37</ele>
        <time>2013-04-28T06:15:56Z</time>
      </trkpt>
      <trkpt lat="47.72511" lon="3.64817">
        <ele>230.85</ele>
        <time>2013-04-28T06:16:05Z</time>
      </trkpt>
      <trkpt lat="47.7251" lon="3.64818">
        <ele>231.33</ele>
        <time>2013-04-28T06:16:06Z</time>
      </trkpt>
      <trkpt lat="47.72508" lon="3.64819">
        <ele>231.33</ele>
        <time>2013-04-28T06:16:07Z</time>
      </trkpt>
      <trkpt lat="47.72501" lon="3.64823">
        <ele>232.78</ele>
        <time>2013-04-28T06:16:11Z</time>
      </trkpt>
      <trkpt lat="47.72499" lon="3.64824">
        <ele>233.26</ele>
        <time>2013-04-28T06:16:12Z</time>
      </trkpt>
      <trkpt lat="47.72498" lon="3.64825">
        <ele>233.26</ele>
        <time>2013-04-28T06:16:13Z</time>
      </trkpt>
      <trkpt lat="47.72496" lon="3.64826">
        <ele>233.26</ele>
        <time>2013-04-28T06:16:14Z</time>
      </trkpt>
      <trkpt lat="47.72495" lon="3.64827">
        <ele>233.26</ele>
        <time>2013-04-28T06:16:15Z</time>
      </trkpt>
      <trkpt lat="47.72493" lon="3.64828">
        <ele>233.26</ele>
        <time>2013-04-28T06:16:16Z</time>
      </trkpt>
      <trkpt lat="47.72483" lon="3.64832">
        <ele>234.22</ele>
        <time>2013-04-28T06:16:23Z</time>
      </trkpt>
      <trkpt lat="47.72472" lon="3.64841">
        <ele>235.18</ele>
        <time>2013-04-28T06:16:32Z</time>
      </trkpt>
      <trkpt lat="47.7247" lon="3.64841">
        <ele>235.18</ele>
        <time>2013-04-28T06:16:33Z</time>
      </trkpt>
      <trkpt lat="47.7246" lon="3.64844">
        <ele>235.66</ele>
        <time>2013-04-28T06:16:40Z</time>
      </trkpt>
      <trkpt lat="47.7245" lon="3.64847">
        <ele>236.14</ele>
        <time>2013-04-28T06:16:47Z</time>
      </trkpt>
      <trkpt lat="47.72435" lon="3.64848">
        <ele>236.14</ele>
        <time>2013-04-28T06:16:57Z</time>
      </trkpt>
      <trkpt lat="47.72423" lon="3.6485">
        <ele>235.66</ele>
        <time>2013-04-28T06:17:05Z</time>
      </trkpt>
      <trkpt lat="47.72406" lon="3.64853">
        <ele>235.66</ele>
        <time>2013-04-28T06:17:16Z</time>
      </trkpt>
      <trkpt lat="47.7239" lon="3.64854">
        <ele>235.18</ele>
        <time>2013-04-28T06:17:27Z</time>
      </trkpt>
      <trkpt lat="47.72377" lon="3.64857">
        <ele>234.7</ele>
        <time>2013-04-28T06:17:35Z</time>
      </trkpt>
      <trkpt lat="47.72364" lon="3.64857">
        <ele>234.22</ele>
        <time>2013-04-28T06:17:44Z</time>
      </trkpt>
      <trkpt lat="47.72349" lon="3.64858">
        <ele>233.74</ele>
        <time>2013-04-28T06:17:53Z</time>
      </trkpt>
      <trkpt lat="47.72329" lon="3.64859">
        <ele>232.78</ele>
        <time>2013-04-28T06:18:05Z</time>
      </trkpt>
      <trkpt lat="47.72323" lon="3.64861">
        <ele>232.3</ele>
        <time>2013-04-28T06:18:09Z</time>
      </trkpt>
      <trkpt lat="47.72322" lon="3.64861">
        <ele>232.78</ele>
        <time>2013-04-28T06:18:10Z</time>
      </trkpt>
      <trkpt lat="47.7232" lon="3.64862">
        <ele>232.78</ele>
        <time>2013-04-28T06:18:11Z</time>
      </trkpt>
      <trkpt lat="47.72318" lon="3.64862">
        <ele>233.26</ele>
        <time>2013-04-28T06:18:12Z</time>
      </trkpt>
      <trkpt lat="47.72317" lon="3.64862">
        <ele>233.26</ele>
        <time>2013-04-28T06:18:13Z</time>
      </trkpt>
      <trkpt lat="47.72315" lon="3.64862">
        <ele>232.3</ele>
        <time>2013-04-28T06:18:14Z</time>
      </trkpt>
      <trkpt lat="47.72299" lon="3.64864">
        <ele>232.3</ele>
        <time>2013-04-28T06:18:24Z</time>
      </trkpt>
      <trkpt lat="47.72288" lon="3.64866">
        <ele>231.81</ele>
        <time>2013-04-28T06:18:32Z</time>
      </trkpt>
      <trkpt lat="47.72276" lon="3.64866">
        <ele>231.33</ele>
        <time>2013-04-28T06:18:40Z</time>
      </trkpt>
      <trkpt lat="47.72262" lon="3.64863">
        <ele>230.37</ele>
        <time>2013-04-28T06:18:49Z</time>
      </trkpt>
      <trkpt lat="47.72247" lon="3.64859">
        <ele>229.41</ele>
        <time>2013-04-28T06:18:58Z</time>
      </trkpt>
      <trkpt lat="47.72234" lon="3.64853">
        <ele>229.41</ele>
        <time>2013-04-28T06:19:06Z</time>
      </trkpt>
      <trkpt lat="47.72222" lon="3.64851">
        <ele>229.41</ele>
        <time>2013-04-28T06:19:14Z</time>
      </trkpt>
      <trkpt lat="47.72211" lon="3.64847">
        <ele>229.41</ele>
        <time>2013-04-28T06:19:21Z</time>
      </trkpt>
      <trkpt lat="47.72199" lon="3.64845">
        <ele>229.41</ele>
        <time>2013-04-28T06:19:29Z</time>
      </trkpt>
      <trkpt lat="47.7219" lon="3.64841">
        <ele>229.41</ele>
        <time>2013-04-28T06:19:36Z</time>
      </trkpt>
      <trkpt lat="47.72189" lon="3.64841">
        <ele>229.41</ele>
        <time>2013-04-28T06:19:37Z</time>
      </trkpt>
      <trkpt lat="47.72187" lon="3.6484">
        <ele>229.41</ele>
        <time>2013-04-28T06:19:38Z</time>
      </trkpt>
      <trkpt lat="47.72186" lon="3.6484">
        <ele>229.41</ele>
        <time>2013-04-28T06:19:39Z</time>
      </trkpt>
      <trkpt lat="47.72184" lon="3.64839">
        <ele>229.89</ele>
        <time>2013-04-28T06:19:40Z</time>
      </trkpt>
      <trkpt lat="47.72183" lon="3.64838">
        <ele>229.89</ele>
        <time>2013-04-28T06:19:41Z</time>
      </trkpt>
      <trkpt lat="47.72176" lon="3.64835">
        <ele>230.85</ele>
        <time>2013-04-28T06:19:47Z</time>
      </trkpt>
      <trkpt lat="47.72167" lon="3.64828">
        <ele>231.33</ele>
        <time>2013-04-28T06:19:54Z</time>
      </trkpt>
      <trkpt lat="47.72159" lon="3.64824">
        <ele>232.3</ele>
        <time>2013-04-28T06:20:01Z</time>
      </trkpt>
      <trkpt lat="47.72151" lon="3.64823">
        <ele>233.26</ele>
        <time>2013-04-28T06:20:08Z</time>
      </trkpt>
      <trkpt lat="47.72149" lon="3.64822">
        <ele>233.74</ele>
        <time>2013-04-28T06:20:09Z</time>
      </trkpt>
      <trkpt lat="47.72142" lon="3.64821">
        <ele>234.7</ele>
        <time>2013-04-28T06:20:13Z</time>
      </trkpt>
      <trkpt lat="47.7214" lon="3.64821">
        <ele>234.7</ele>
        <time>2013-04-28T06:20:14Z</time>
      </trkpt>
      <trkpt lat="47.7213" lon="3.64816">
        <ele>236.14</ele>
        <time>2013-04-28T06:20:22Z</time>
      </trkpt>
      <trkpt lat="47.72125" lon="3.6481">
        <ele>236.62</ele>
        <time>2013-04-28T06:20:27Z</time>
      </trkpt>
      <trkpt lat="47.72124" lon="3.64808">
        <ele>237.1</ele>
        <time>2013-04-28T06:20:28Z</time>
      </trkpt>
      <trkpt lat="47.72123" lon="3.64806">
        <ele>237.1</ele>
        <time>2013-04-28T06:20:29Z</time>
      </trkpt>
      <trkpt lat="47.72116" lon="3.64795">
        <ele>238.06</ele>
        <time>2013-04-28T06:20:37Z</time>
      </trkpt>
      <trkpt lat="47.72112" lon="3.64785">
        <ele>238.54</ele>
        <time>2013-04-28T06:20:44Z</time>
      </trkpt>
      <trkpt lat="47.72111" lon="3.64778">
        <ele>238.54</ele>
        <time>2013-04-28T06:20:51Z</time>
      </trkpt>
      <trkpt lat="47.7211" lon="3.64774">
        <ele>239.02</ele>
        <time>2013-04-28T06:20:55Z</time>
      </trkpt>
      <trkpt lat="47.72107" lon="3.64762">
        <ele>239.02</ele>
        <time>2013-04-28T06:21:02Z</time>
      </trkpt>
      <trkpt lat="47.72105" lon="3.64753">
        <ele>239.02</ele>
        <time>2013-04-28T06:21:10Z</time>
      </trkpt>
      <trkpt lat="47.72102" lon="3.64747">
        <ele>239.02</ele>
        <time>2013-04-28T06:21:16Z</time>
      </trkpt>
      <trkpt lat="47.72094" lon="3.64732">
        <ele>239.02</ele>
        <time>2013-04-28T06:21:25Z</time>
      </trkpt>
      <trkpt lat="47.72087" lon="3.6472">
        <ele>239.51</ele>
        <time>2013-04-28T06:21:32Z</time>
      </trkpt>
      <trkpt lat="47.72081" lon="3.6471">
        <ele>238.06</ele>
        <time>2013-04-28T06:21:40Z</time>
      </trkpt>
      <trkpt lat="47.72078" lon="3.64703">
        <ele>238.06</ele>
        <time>2013-04-28T06:21:45Z</time>
      </trkpt>
      <trkpt lat="47.72077" lon="3.64701">
        <ele>238.06</ele>
        <time>2013-04-28T06:21:46Z</time>
      </trkpt>
      <trkpt lat="47.72076" lon="3.64698">
        <ele>237.58</ele>
        <time>2013-04-28T06:21:47Z</time>
      </trkpt>
      <trkpt lat="47.72072" lon="3.64689">
        <ele>238.06</ele>
        <time>2013-04-28T06:21:52Z</time>
      </trkpt>
      <trkpt lat="47.7207" lon="3.64687">
        <ele>238.06</ele>
        <time>2013-04-28T06:21:53Z</time>
      </trkpt>
      <trkpt lat="47.72069" lon="3.64684">
        <ele>237.58</ele>
        <time>2013-04-28T06:21:54Z</time>
      </trkpt>
      <trkpt lat="47.72067" lon="3.64682">
        <ele>238.06</ele>
        <time>2013-04-28T06:21:55Z</time>
      </trkpt>
      <trkpt lat="47.7206" lon="3.64661">
        <ele>237.58</ele>
        <time>2013-04-28T06:22:04Z</time>
      </trkpt>
      <trkpt lat="47.72053" lon="3.64645">
        <ele>237.1</ele>
        <time>2013-04-28T06:22:12Z</time>
      </trkpt>
      <trkpt lat="47.72047" lon="3.64632">
        <ele>237.1</ele>
        <time>2013-04-28T06:22:19Z</time>
      </trkpt>
      <trkpt lat="47.72039" lon="3.64609">
        <ele>237.1</ele>
        <time>2013-04-28T06:22:27Z</time>
      </trkpt>
      <trkpt lat="47.7203" lon="3.64575">
        <ele>237.58</ele>
        <time>2013-04-28T06:22:35Z</time>
      </trkpt>
      <trkpt lat="47.72022" lon="3.64554">
        <ele>238.06</ele>
        <time>2013-04-28T06:22:43Z</time>
      </trkpt>
      <trkpt lat="47.72021" lon="3.6455">
        <ele>238.06</ele>
        <time>2013-04-28T06:22:45Z</time>
      </trkpt>
      <trkpt lat="47.72021" lon="3.64547">
        <ele>238.06</ele>
        <time>2013-04-28T06:22:46Z</time>
      </trkpt>
      <trkpt lat="47.7202" lon="3.64545">
        <ele>238.06</ele>
        <time>2013-04-28T06:22:47Z</time>
      </trkpt>
      <trkpt lat="47.72014" lon="3.64525">
        <ele>238.54</ele>
        <time>2013-04-28T06:22:56Z</time>
      </trkpt>
      <trkpt lat="47.72007" lon="3.64508">
        <ele>237.58</ele>
        <time>2013-04-28T06:23:05Z</time>
      </trkpt>
      <trkpt lat="47.72001" lon="3.64492">
        <ele>238.06</ele>
        <time>2013-04-28T06:23:13Z</time>
      </trkpt>
      <trkpt lat="47.71993" lon="3.64479">
        <ele>238.06</ele>
        <time>2013-04-28T06:23:21Z</time>
      </trkpt>
      <trkpt lat="47.71991" lon="3.64476">
        <ele>238.06</ele>
        <time>2013-04-28T06:23:23Z</time>
      </trkpt>
      <trkpt lat="47.7199" lon="3.64474">
        <ele>238.54</ele>
        <time>2013-04-28T06:23:24Z</time>
      </trkpt>
      <trkpt lat="47.71989" lon="3.64472">
        <ele>237.58</ele>
        <time>2013-04-28T06:23:25Z</time>
      </trkpt>
      <trkpt lat="47.71986" lon="3.64461">
        <ele>238.06</ele>
        <time>2013-04-28T06:23:30Z</time>
      </trkpt>
      <trkpt lat="47.71979" lon="3.64449">
        <ele>239.02</ele>
        <time>2013-04-28T06:23:37Z</time>
      </trkpt>
      <trkpt lat="47.71971" lon="3.64432">
        <ele>239.51</ele>
        <time>2013-04-28T06:23:46Z</time>
      </trkpt>
      <trkpt lat="47.71963" lon="3.64421">
        <ele>239.02</ele>
        <time>2013-04-28T06:23:53Z</time>
      </trkpt>
      <trkpt lat="47.71956" lon="3.6441">
        <ele>239.02</ele>
        <time>2013-04-28T06:24:00Z</time>
      </trkpt>
      <trkpt lat="47.71946" lon="3.64402">
        <ele>239.99</ele>
        <time>2013-04-28T06:24:08Z</time>
      </trkpt>
      <trkpt lat="47.71938" lon="3.64396">
        <ele>239.99</ele>
        <time>2013-04-28T06:24:15Z</time>
      </trkpt>
      <trkpt lat="47.71927" lon="3.6439">
        <ele>240.95</ele>
        <time>2013-04-28T06:24:22Z</time>
      </trkpt>
      <trkpt lat="47.71915" lon="3.64383">
        <ele>241.91</ele>
        <time>2013-04-28T06:24:30Z</time>
      </trkpt>
      <trkpt lat="47.7191" lon="3.64381">
        <ele>241.91</ele>
        <time>2013-04-28T06:24:33Z</time>
      </trkpt>
      <trkpt lat="47.71908" lon="3.6438">
        <ele>241.43</ele>
        <time>2013-04-28T06:24:34Z</time>
      </trkpt>
      <trkpt lat="47.71904" lon="3.64379">
        <ele>242.39</ele>
        <time>2013-04-28T06:24:37Z</time>
      </trkpt>
      <trkpt lat="47.71902" lon="3.64378">
        <ele>242.39</ele>
        <time>2013-04-28T06:24:38Z</time>
      </trkpt>
      <trkpt lat="47.71901" lon="3.64377">
        <ele>242.39</ele>
        <time>2013-04-28T06:24:39Z</time>
      </trkpt>
      <trkpt lat="47.71896" lon="3.64377">
        <ele>242.87</ele>
        <time>2013-04-28T06:24:43Z</time>
      </trkpt>
      <trkpt lat="47.71888" lon="3.64373">
        <ele>243.35</ele>
        <time>2013-04-28T06:24:49Z</time>
      </trkpt>
      <trkpt lat="47.71888" lon="3.64374">
        <ele>243.35</ele>
        <time>2013-04-28T06:24:50Z</time>
      </trkpt>
      <trkpt lat="47.71887" lon="3.64374">
        <ele>244.31</ele>
        <time>2013-04-28T06:24:51Z</time>
      </trkpt>
      <trkpt lat="47.71885" lon="3.64374">
        <ele>244.31</ele>
        <time>2013-04-28T06:24:52Z</time>
      </trkpt>
      <trkpt lat="47.71884" lon="3.64372">
        <ele>244.31</ele>
        <time>2013-04-28T06:24:53Z</time>
      </trkpt>
      <trkpt lat="47.71883" lon="3.64371">
        <ele>244.31</ele>
        <time>2013-04-28T06:24:54Z</time>
      </trkpt>
      <trkpt lat="47.71882" lon="3.6437">
        <ele>243.35</ele>
        <time>2013-04-28T06:24:55Z</time>
      </trkpt>
      <trkpt lat="47.71881" lon="3.64369">
        <ele>244.31</ele>
        <time>2013-04-28T06:24:56Z</time>
      </trkpt>
      <trkpt lat="47.71869" lon="3.64358">
        <ele>244.31</ele>
        <time>2013-04-28T06:25:05Z</time>
      </trkpt>
      <trkpt lat="47.71864" lon="3.64353">
        <ele>244.31</ele>
        <time>2013-04-28T06:25:09Z</time>
      </trkpt>
      <trkpt lat="47.71857" lon="3.64346">
        <ele>244.31</ele>
        <time>2013-04-28T06:25:15Z</time>
      </trkpt>
      <trkpt lat="47.71852" lon="3.64343">
        <ele>244.31</ele>
        <time>2013-04-28T06:25:19Z</time>
      </trkpt>
      <trkpt lat="47.71851" lon="3.64342">
        <ele>244.79</ele>
        <time>2013-04-28T06:25:20Z</time>
      </trkpt>
      <trkpt lat="47.71849" lon="3.64342">
        <ele>244.79</ele>
        <time>2013-04-28T06:25:21Z</time>
      </trkpt>
      <trkpt lat="47.71848" lon="3.64342">
        <ele>244.79</ele>
        <time>2013-04-28T06:25:22Z</time>
      </trkpt>
      <trkpt lat="47.71846" lon="3.64341">
        <ele>245.27</ele>
        <time>2013-04-28T06:25:23Z</time>
      </trkpt>
      <trkpt lat="47.71845" lon="3.6434">
        <ele>244.79</ele>
        <time>2013-04-28T06:25:24Z</time>
      </trkpt>
      <trkpt lat="47.71833" lon="3.64338">
        <ele>245.75</ele>
        <time>2013-04-28T06:25:32Z</time>
      </trkpt>
      <trkpt lat="47.71821" lon="3.64329">
        <ele>245.27</ele>
        <time>2013-04-28T06:25:41Z</time>
      </trkpt>
      <trkpt lat="47.71808" lon="3.64321">
        <ele>243.83</ele>
        <time>2013-04-28T06:25:50Z</time>
      </trkpt>
      <trkpt lat="47.71798" lon="3.64314">
        <ele>242.39</ele>
        <time>2013-04-28T06:25:57Z</time>
      </trkpt>
      <trkpt lat="47.71783" lon="3.64309">
        <ele>240.47</ele>
        <time>2013-04-28T06:26:07Z</time>
      </trkpt>
      <trkpt lat="47.71768" lon="3.6431">
        <ele>239.02</ele>
        <time>2013-04-28T06:26:16Z</time>
      </trkpt>
      <trkpt lat="47.71754" lon="3.64311">
        <ele>236.14</ele>
        <time>2013-04-28T06:26:26Z</time>
      </trkpt>
      <trkpt lat="47.7174" lon="3.64313">
        <ele>232.78</ele>
        <time>2013-04-28T06:26:35Z</time>
      </trkpt>
      <trkpt lat="47.71734" lon="3.64313">
        <ele>231.33</ele>
        <time>2013-04-28T06:26:40Z</time>
      </trkpt>
      <trkpt lat="47.71732" lon="3.64313">
        <ele>231.33</ele>
        <time>2013-04-28T06:26:41Z</time>
      </trkpt>
      <trkpt lat="47.71717" lon="3.64309">
        <ele>229.41</ele>
        <time>2013-04-28T06:26:50Z</time>
      </trkpt>
      <trkpt lat="47.71702" lon="3.64304">
        <ele>227.49</ele>
        <time>2013-04-28T06:27:00Z</time>
      </trkpt>
      <trkpt lat="47.71688" lon="3.64299">
        <ele>225.57</ele>
        <time>2013-04-28T06:27:09Z</time>
      </trkpt>
      <trkpt lat="47.71676" lon="3.64293">
        <ele>224.12</ele>
        <time>2013-04-28T06:27:18Z</time>
      </trkpt>
      <trkpt lat="47.71668" lon="3.64291">
        <ele>222.68</ele>
        <time>2013-04-28T06:27:23Z</time>
      </trkpt>
      <trkpt lat="47.71658" lon="3.64287">
        <ele>221.72</ele>
        <time>2013-04-28T06:27:30Z</time>
      </trkpt>
      <trkpt lat="47.71657" lon="3.64287">
        <ele>220.76</ele>
        <time>2013-04-28T06:27:31Z</time>
      </trkpt>
      <trkpt lat="47.71655" lon="3.64288">
        <ele>220.28</ele>
        <time>2013-04-28T06:27:32Z</time>
      </trkpt>
      <trkpt lat="47.71654" lon="3.64289">
        <ele>220.76</ele>
        <time>2013-04-28T06:27:33Z</time>
      </trkpt>
      <trkpt lat="47.71653" lon="3.64291">
        <ele>220.28</ele>
        <time>2013-04-28T06:27:34Z</time>
      </trkpt>
      <trkpt lat="47.71653" lon="3.64293">
        <ele>220.76</ele>
        <time>2013-04-28T06:27:35Z</time>
      </trkpt>
      <trkpt lat="47.71652" lon="3.64295">
        <ele>219.8</ele>
        <time>2013-04-28T06:27:36Z</time>
      </trkpt>
      <trkpt lat="47.71652" lon="3.64316">
        <ele>220.28</ele>
        <time>2013-04-28T06:27:45Z</time>
      </trkpt>
      <trkpt lat="47.71651" lon="3.64335">
        <ele>221.24</ele>
        <time>2013-04-28T06:27:54Z</time>
      </trkpt>
      <trkpt lat="47.71652" lon="3.6436">
        <ele>220.76</ele>
        <time>2013-04-28T06:28:05Z</time>
      </trkpt>
      <trkpt lat="47.7165" lon="3.6438">
        <ele>219.8</ele>
        <time>2013-04-28T06:28:14Z</time>
      </trkpt>
      <trkpt lat="47.7165" lon="3.64403">
        <ele>220.76</ele>
        <time>2013-04-28T06:28:24Z</time>
      </trkpt>
      <trkpt lat="47.71648" lon="3.64424">
        <ele>220.28</ele>
        <time>2013-04-28T06:28:34Z</time>
      </trkpt>
      <trkpt lat="47.71647" lon="3.64445">
        <ele>219.8</ele>
        <time>2013-04-28T06:28:43Z</time>
      </trkpt>
      <trkpt lat="47.71645" lon="3.64467">
        <ele>218.36</ele>
        <time>2013-04-28T06:28:53Z</time>
      </trkpt>
      <trkpt lat="47.71648" lon="3.64484">
        <ele>217.88</ele>
        <time>2013-04-28T06:29:01Z</time>
      </trkpt>
      <trkpt lat="47.71654" lon="3.64503">
        <ele>218.36</ele>
        <time>2013-04-28T06:29:11Z</time>
      </trkpt>
      <trkpt lat="47.71655" lon="3.64505">
        <ele>218.36</ele>
        <time>2013-04-28T06:29:12Z</time>
      </trkpt>
      <trkpt lat="47.71655" lon="3.64506">
        <ele>218.36</ele>
        <time>2013-04-28T06:29:13Z</time>
      </trkpt>
      <trkpt lat="47.71662" lon="3.64518">
        <ele>218.84</ele>
        <time>2013-04-28T06:29:20Z</time>
      </trkpt>
      <trkpt lat="47.71662" lon="3.6452">
        <ele>218.36</ele>
        <time>2013-04-28T06:29:21Z</time>
      </trkpt>
      <trkpt lat="47.71663" lon="3.64522">
        <ele>218.84</ele>
        <time>2013-04-28T06:29:22Z</time>
      </trkpt>
      <trkpt lat="47.71664" lon="3.64525">
        <ele>218.36</ele>
        <time>2013-04-28T06:29:23Z</time>
      </trkpt>
      <trkpt lat="47.71665" lon="3.64527">
        <ele>219.32</ele>
        <time>2013-04-28T06:29:24Z</time>
      </trkpt>
      <trkpt lat="47.71666" lon="3.64529">
        <ele>219.32</ele>
        <time>2013-04-28T06:29:25Z</time>
      </trkpt>
      <trkpt lat="47.71667" lon="3.64531">
        <ele>219.8</ele>
        <time>2013-04-28T06:29:26Z</time>
      </trkpt>
      <trkpt lat="47.71667" lon="3.64532">
        <ele>219.8</ele>
        <time>2013-04-28T06:29:27Z</time>
      </trkpt>
      <trkpt lat="47.71668" lon="3.64534">
        <ele>219.8</ele>
        <time>2013-04-28T06:29:28Z</time>
      </trkpt>
      <trkpt lat="47.71669" lon="3.64536">
        <ele>219.8</ele>
        <time>2013-04-28T06:29:29Z</time>
      </trkpt>
      <trkpt lat="47.7167" lon="3.64538">
        <ele>220.28</ele>
        <time>2013-04-28T06:29:30Z</time>
      </trkpt>
      <trkpt lat="47.7167" lon="3.64539">
        <ele>219.8</ele>
        <time>2013-04-28T06:29:31Z</time>
      </trkpt>
      <trkpt lat="47.71671" lon="3.64541">
        <ele>220.28</ele>
        <time>2013-04-28T06:29:32Z</time>
      </trkpt>
      <trkpt lat="47.71672" lon="3.64543">
        <ele>219.8</ele>
        <time>2013-04-28T06:29:33Z</time>
      </trkpt>
      <trkpt lat="47.71678" lon="3.64563">
        <ele>220.76</ele>
        <time>2013-04-28T06:29:43Z</time>
      </trkpt>
      <trkpt lat="47.71679" lon="3.64587">
        <ele>221.72</ele>
        <time>2013-04-28T06:29:54Z</time>
      </trkpt>
      <trkpt lat="47.71676" lon="3.64603">
        <ele>221.24</ele>
        <time>2013-04-28T06:30:02Z</time>
      </trkpt>
      <trkpt lat="47.7167" lon="3.6462">
        <ele>219.8</ele>
        <time>2013-04-28T06:30:11Z</time>
      </trkpt>
      <trkpt lat="47.71663" lon="3.6464">
        <ele>218.84</ele>
        <time>2013-04-28T06:30:22Z</time>
      </trkpt>
      <trkpt lat="47.71656" lon="3.64658">
        <ele>219.32</ele>
        <time>2013-04-28T06:30:31Z</time>
      </trkpt>
      <trkpt lat="47.71648" lon="3.64675">
        <ele>218.84</ele>
        <time>2013-04-28T06:30:40Z</time>
      </trkpt>
      <trkpt lat="47.71644" lon="3.64696">
        <ele>218.84</ele>
        <time>2013-04-28T06:30:49Z</time>
      </trkpt>
      <trkpt lat="47.71639" lon="3.64718">
        <ele>218.36</ele>
        <time>2013-04-28T06:30:59Z</time>
      </trkpt>
      <trkpt lat="47.71638" lon="3.64741">
        <ele>218.84</ele>
        <time>2013-04-28T06:31:09Z</time>
      </trkpt>
      <trkpt lat="47.71638" lon="3.64761">
        <ele>217.88</ele>
        <time>2013-04-28T06:31:18Z</time>
      </trkpt>
      <trkpt lat="47.71644" lon="3.64766">
        <ele>218.36</ele>
        <time>2013-04-28T06:31:24Z</time>
      </trkpt>
      <trkpt lat="47.71646" lon="3.64766">
        <ele>218.36</ele>
        <time>2013-04-28T06:31:25Z</time>
      </trkpt>
      <trkpt lat="47.71647" lon="3.64765">
        <ele>219.32</ele>
        <time>2013-04-28T06:31:26Z</time>
      </trkpt>
      <trkpt lat="47.71657" lon="3.64763">
        <ele>220.76</ele>
        <time>2013-04-28T06:31:35Z</time>
      </trkpt>
      <trkpt lat="47.7166" lon="3.64763">
        <ele>220.76</ele>
        <time>2013-04-28T06:31:37Z</time>
      </trkpt>
      <trkpt lat="47.71661" lon="3.64762">
        <ele>221.24</ele>
        <time>2013-04-28T06:31:38Z</time>
      </trkpt>
      <trkpt lat="47.71669" lon="3.6476">
        <ele>223.64</ele>
        <time>2013-04-28T06:31:45Z</time>
      </trkpt>
      <trkpt lat="47.71676" lon="3.64759">
        <ele>225.57</ele>
        <time>2013-04-28T06:31:52Z</time>
      </trkpt>
      <trkpt lat="47.71685" lon="3.64758">
        <ele>227.49</ele>
        <time>2013-04-28T06:31:59Z</time>
      </trkpt>
      <trkpt lat="47.71696" lon="3.6476">
        <ele>228.45</ele>
        <time>2013-04-28T06:32:08Z</time>
      </trkpt>
      <trkpt lat="47.71699" lon="3.64763">
        <ele>229.41</ele>
        <time>2013-04-28T06:32:11Z</time>
      </trkpt>
      <trkpt lat="47.71699" lon="3.64764">
        <ele>228.93</ele>
        <time>2013-04-28T06:32:12Z</time>
      </trkpt>
      <trkpt lat="47.717" lon="3.64766">
        <ele>229.89</ele>
        <time>2013-04-28T06:32:13Z</time>
      </trkpt>
      <trkpt lat="47.71703" lon="3.64784">
        <ele>229.89</ele>
        <time>2013-04-28T06:32:22Z</time>
      </trkpt>
      <trkpt lat="47.71705" lon="3.64802">
        <ele>230.85</ele>
        <time>2013-04-28T06:32:31Z</time>
      </trkpt>
      <trkpt lat="47.71709" lon="3.64819">
        <ele>230.85</ele>
        <time>2013-04-28T06:32:40Z</time>
      </trkpt>
      <trkpt lat="47.7171" lon="3.64836">
        <ele>230.37</ele>
        <time>2013-04-28T06:32:48Z</time>
      </trkpt>
      <trkpt lat="47.7171" lon="3.64838">
        <ele>229.89</ele>
        <time>2013-04-28T06:32:49Z</time>
      </trkpt>
      <trkpt lat="47.7171" lon="3.6484">
        <ele>230.37</ele>
        <time>2013-04-28T06:32:50Z</time>
      </trkpt>
      <trkpt lat="47.71714" lon="3.64859">
        <ele>230.37</ele>
        <time>2013-04-28T06:32:59Z</time>
      </trkpt>
      <trkpt lat="47.71719" lon="3.6488">
        <ele>230.85</ele>
        <time>2013-04-28T06:33:09Z</time>
      </trkpt>
      <trkpt lat="47.71722" lon="3.64892">
        <ele>229.89</ele>
        <time>2013-04-28T06:33:16Z</time>
      </trkpt>
      <trkpt lat="47.71729" lon="3.64909">
        <ele>229.89</ele>
        <time>2013-04-28T06:33:24Z</time>
      </trkpt>
      <trkpt lat="47.71736" lon="3.64928">
        <ele>230.85</ele>
        <time>2013-04-28T06:33:34Z</time>
      </trkpt>
      <trkpt lat="47.71744" lon="3.6495">
        <ele>231.33</ele>
        <time>2013-04-28T06:33:45Z</time>
      </trkpt>
      <trkpt lat="47.71752" lon="3.64971">
        <ele>231.33</ele>
        <time>2013-04-28T06:33:56Z</time>
      </trkpt>
      <trkpt lat="47.71756" lon="3.64979">
        <ele>231.81</ele>
        <time>2013-04-28T06:34:02Z</time>
      </trkpt>
      <trkpt lat="47.71757" lon="3.64981">
        <ele>231.33</ele>
        <time>2013-04-28T06:34:03Z</time>
      </trkpt>
      <trkpt lat="47.71758" lon="3.64983">
        <ele>231.33</ele>
        <time>2013-04-28T06:34:04Z</time>
      </trkpt>
      <trkpt lat="47.71758" lon="3.64985">
        <ele>231.33</ele>
        <time>2013-04-28T06:34:05Z</time>
      </trkpt>
      <trkpt lat="47.71759" lon="3.64987">
        <ele>232.3</ele>
        <time>2013-04-28T06:34:06Z</time>
      </trkpt>
      <trkpt lat="47.7176" lon="3.64989">
        <ele>231.81</ele>
        <time>2013-04-28T06:34:07Z</time>
      </trkpt>
      <trkpt lat="47.71761" lon="3.6499">
        <ele>232.3</ele>
        <time>2013-04-28T06:34:08Z</time>
      </trkpt>
      <trkpt lat="47.71761" lon="3.64992">
        <ele>232.3</ele>
        <time>2013-04-28T06:34:09Z</time>
      </trkpt>
      <trkpt lat="47.71762" lon="3.64994">
        <ele>231.33</ele>
        <time>2013-04-28T06:34:10Z</time>
      </trkpt>
      <trkpt lat="47.7177" lon="3.65008">
        <ele>230.85</ele>
        <time>2013-04-28T06:34:19Z</time>
      </trkpt>
      <trkpt lat="47.71775" lon="3.6502">
        <ele>233.26</ele>
        <time>2013-04-28T06:34:26Z</time>
      </trkpt>
      <trkpt lat="47.71776" lon="3.65022">
        <ele>232.78</ele>
        <time>2013-04-28T06:34:27Z</time>
      </trkpt>
      <trkpt lat="47.71777" lon="3.65023">
        <ele>233.74</ele>
        <time>2013-04-28T06:34:28Z</time>
      </trkpt>
      <trkpt lat="47.71787" lon="3.65041">
        <ele>233.26</ele>
        <time>2013-04-28T06:34:38Z</time>
      </trkpt>
      <trkpt lat="47.71794" lon="3.65054">
        <ele>234.7</ele>
        <time>2013-04-28T06:34:45Z</time>
      </trkpt>
      <trkpt lat="47.71801" lon="3.65075">
        <ele>234.7</ele>
        <time>2013-04-28T06:34:56Z</time>
      </trkpt>
      <trkpt lat="47.71809" lon="3.65095">
        <ele>234.22</ele>
        <time>2013-04-28T06:35:06Z</time>
      </trkpt>
      <trkpt lat="47.71814" lon="3.65109">
        <ele>233.74</ele>
        <time>2013-04-28T06:35:13Z</time>
      </trkpt>
      <trkpt lat="47.71818" lon="3.65127">
        <ele>234.22</ele>
        <time>2013-04-28T06:35:22Z</time>
      </trkpt>
      <trkpt lat="47.71823" lon="3.65145">
        <ele>232.78</ele>
        <time>2013-04-28T06:35:31Z</time>
      </trkpt>
      <trkpt lat="47.71826" lon="3.65161">
        <ele>232.3</ele>
        <time>2013-04-28T06:35:39Z</time>
      </trkpt>
      <trkpt lat="47.71827" lon="3.6518">
        <ele>229.89</ele>
        <time>2013-04-28T06:35:49Z</time>
      </trkpt>
      <trkpt lat="47.71826" lon="3.65185">
        <ele>230.37</ele>
        <time>2013-04-28T06:35:51Z</time>
      </trkpt>
      <trkpt lat="47.71826" lon="3.65187">
        <ele>229.41</ele>
        <time>2013-04-28T06:35:52Z</time>
      </trkpt>
      <trkpt lat="47.71825" lon="3.65189">
        <ele>229.89</ele>
        <time>2013-04-28T06:35:53Z</time>
      </trkpt>
      <trkpt lat="47.71816" lon="3.65213">
        <ele>226.53</ele>
        <time>2013-04-28T06:36:02Z</time>
      </trkpt>
      <trkpt lat="47.71808" lon="3.65229">
        <ele>226.05</ele>
        <time>2013-04-28T06:36:09Z</time>
      </trkpt>
      <trkpt lat="47.71798" lon="3.6525">
        <ele>224.61</ele>
        <time>2013-04-28T06:36:19Z</time>
      </trkpt>
      <trkpt lat="47.71786" lon="3.65272">
        <ele>224.12</ele>
        <time>2013-04-28T06:36:30Z</time>
      </trkpt>
      <trkpt lat="47.71777" lon="3.6529">
        <ele>223.64</ele>
        <time>2013-04-28T06:36:40Z</time>
      </trkpt>
      <trkpt lat="47.71766" lon="3.65309">
        <ele>224.61</ele>
        <time>2013-04-28T06:36:51Z</time>
      </trkpt>
      <trkpt lat="47.71756" lon="3.65327">
        <ele>223.64</ele>
        <time>2013-04-28T06:37:02Z</time>
      </trkpt>
      <trkpt lat="47.71748" lon="3.6534">
        <ele>223.64</ele>
        <time>2013-04-28T06:37:10Z</time>
      </trkpt>
      <trkpt lat="47.7174" lon="3.65358">
        <ele>222.68</ele>
        <time>2013-04-28T06:37:19Z</time>
      </trkpt>
      <trkpt lat="47.71733" lon="3.65376">
        <ele>222.2</ele>
        <time>2013-04-28T06:37:28Z</time>
      </trkpt>
      <trkpt lat="47.71729" lon="3.65393">
        <ele>221.24</ele>
        <time>2013-04-28T06:37:37Z</time>
      </trkpt>
      <trkpt lat="47.71725" lon="3.65414">
        <ele>220.76</ele>
        <time>2013-04-28T06:37:46Z</time>
      </trkpt>
      <trkpt lat="47.7172" lon="3.65435">
        <ele>219.32</ele>
        <time>2013-04-28T06:37:56Z</time>
      </trkpt>
      <trkpt lat="47.71714" lon="3.65452">
        <ele>218.84</ele>
        <time>2013-04-28T06:38:04Z</time>
      </trkpt>
      <trkpt lat="47.71709" lon="3.65471">
        <ele>216.91</ele>
        <time>2013-04-28T06:38:13Z</time>
      </trkpt>
      <trkpt lat="47.71702" lon="3.65493">
        <ele>216.91</ele>
        <time>2013-04-28T06:38:24Z</time>
      </trkpt>
      <trkpt lat="47.71697" lon="3.6551">
        <ele>215.95</ele>
        <time>2013-04-28T06:38:33Z</time>
      </trkpt>
      <trkpt lat="47.71692" lon="3.65522">
        <ele>216.43</ele>
        <time>2013-04-28T06:38:40Z</time>
      </trkpt>
      <trkpt lat="47.71685" lon="3.6554">
        <ele>216.91</ele>
        <time>2013-04-28T06:38:50Z</time>
      </trkpt>
      <trkpt lat="47.71679" lon="3.65559">
        <ele>215.95</ele>
        <time>2013-04-28T06:38:59Z</time>
      </trkpt>
      <trkpt lat="47.71671" lon="3.6558">
        <ele>216.43</ele>
        <time>2013-04-28T06:39:10Z</time>
      </trkpt>
      <trkpt lat="47.71666" lon="3.65598">
        <ele>217.88</ele>
        <time>2013-04-28T06:39:19Z</time>
      </trkpt>
      <trkpt lat="47.71661" lon="3.65611">
        <ele>218.36</ele>
        <time>2013-04-28T06:39:26Z</time>
      </trkpt>
      <trkpt lat="47.71653" lon="3.6562">
        <ele>218.84</ele>
        <time>2013-04-28T06:39:33Z</time>
      </trkpt>
      <trkpt lat="47.71637" lon="3.65621">
        <ele>215.95</ele>
        <time>2013-04-28T06:39:43Z</time>
      </trkpt>
      <trkpt lat="47.7162" lon="3.6562">
        <ele>214.99</ele>
        <time>2013-04-28T06:39:54Z</time>
      </trkpt>
      <trkpt lat="47.71606" lon="3.65619">
        <ele>213.07</ele>
        <time>2013-04-28T06:40:03Z</time>
      </trkpt>
      <trkpt lat="47.71593" lon="3.65616">
        <ele>212.11</ele>
        <time>2013-04-28T06:40:11Z</time>
      </trkpt>
      <trkpt lat="47.71577" lon="3.65615">
        <ele>210.67</ele>
        <time>2013-04-28T06:40:21Z</time>
      </trkpt>
      <trkpt lat="47.71561" lon="3.65613">
        <ele>208.74</ele>
        <time>2013-04-28T06:40:31Z</time>
      </trkpt>
      <trkpt lat="47.71543" lon="3.65611">
        <ele>206.82</ele>
        <time>2013-04-28T06:40:42Z</time>
      </trkpt>
      <trkpt lat="47.71528" lon="3.65612">
        <ele>204.9</ele>
        <time>2013-04-28T06:40:52Z</time>
      </trkpt>
      <trkpt lat="47.71516" lon="3.65615">
        <ele>202.98</ele>
        <time>2013-04-28T06:41:01Z</time>
      </trkpt>
      <trkpt lat="47.71501" lon="3.65621">
        <ele>201.53</ele>
        <time>2013-04-28T06:41:11Z</time>
      </trkpt>
      <trkpt lat="47.71486" lon="3.65628">
        <ele>200.57</ele>
        <time>2013-04-28T06:41:22Z</time>
      </trkpt>
      <trkpt lat="47.71469" lon="3.65635">
        <ele>198.65</ele>
        <time>2013-04-28T06:41:33Z</time>
      </trkpt>
      <trkpt lat="47.71456" lon="3.65641">
        <ele>195.28</ele>
        <time>2013-04-28T06:41:42Z</time>
      </trkpt>
      <trkpt lat="47.71441" lon="3.65645">
        <ele>193.84</ele>
        <time>2013-04-28T06:41:51Z</time>
      </trkpt>
      <trkpt lat="47.71438" lon="3.65646">
        <ele>192.88</ele>
        <time>2013-04-28T06:41:53Z</time>
      </trkpt>
      <trkpt lat="47.71424" lon="3.65653">
        <ele>190.48</ele>
        <time>2013-04-28T06:42:02Z</time>
      </trkpt>
      <trkpt lat="47.7141" lon="3.65663">
        <ele>187.59</ele>
        <time>2013-04-28T06:42:12Z</time>
      </trkpt>
      <trkpt lat="47.71405" lon="3.65681">
        <ele>186.15</ele>
        <time>2013-04-28T06:42:21Z</time>
      </trkpt>
      <trkpt lat="47.71401" lon="3.65706">
        <ele>184.71</ele>
        <time>2013-04-28T06:42:32Z</time>
      </trkpt>
      <trkpt lat="47.71394" lon="3.6573">
        <ele>182.79</ele>
        <time>2013-04-28T06:42:44Z</time>
      </trkpt>
      <trkpt lat="47.71391" lon="3.65742">
        <ele>179.9</ele>
        <time>2013-04-28T06:42:49Z</time>
      </trkpt>
      <trkpt lat="47.71391" lon="3.65744">
        <ele>179.9</ele>
        <time>2013-04-28T06:42:50Z</time>
      </trkpt>
      <trkpt lat="47.71386" lon="3.65767">
        <ele>178.94</ele>
        <time>2013-04-28T06:43:00Z</time>
      </trkpt>
      <trkpt lat="47.71381" lon="3.65787">
        <ele>176.54</ele>
        <time>2013-04-28T06:43:09Z</time>
      </trkpt>
      <trkpt lat="47.71376" lon="3.65813">
        <ele>174.62</ele>
        <time>2013-04-28T06:43:21Z</time>
      </trkpt>
      <trkpt lat="47.71374" lon="3.65835">
        <ele>172.69</ele>
        <time>2013-04-28T06:43:31Z</time>
      </trkpt>
      <trkpt lat="47.71373" lon="3.65855">
        <ele>170.77</ele>
        <time>2013-04-28T06:43:40Z</time>
      </trkpt>
      <trkpt lat="47.71372" lon="3.65877">
        <ele>169.33</ele>
        <time>2013-04-28T06:43:50Z</time>
      </trkpt>
      <trkpt lat="47.71369" lon="3.65904">
        <ele>166.45</ele>
        <time>2013-04-28T06:44:02Z</time>
      </trkpt>
      <trkpt lat="47.71366" lon="3.65923">
        <ele>164.04</ele>
        <time>2013-04-28T06:44:11Z</time>
      </trkpt>
      <trkpt lat="47.71358" lon="3.65954">
        <ele>161.16</ele>
        <time>2013-04-28T06:44:26Z</time>
      </trkpt>
      <trkpt lat="47.71353" lon="3.65973">
        <ele>159.24</ele>
        <time>2013-04-28T06:44:36Z</time>
      </trkpt>
      <trkpt lat="47.71349" lon="3.66001">
        <ele>157.31</ele>
        <time>2013-04-28T06:44:48Z</time>
      </trkpt>
      <trkpt lat="47.71349" lon="3.66024">
        <ele>155.87</ele>
        <time>2013-04-28T06:44:58Z</time>
      </trkpt>
      <trkpt lat="47.71353" lon="3.66038">
        <ele>153.95</ele>
        <time>2013-04-28T06:45:05Z</time>
      </trkpt>
      <trkpt lat="47.71355" lon="3.66041">
        <ele>153.47</ele>
        <time>2013-04-28T06:45:07Z</time>
      </trkpt>
      <trkpt lat="47.71357" lon="3.66043">
        <ele>153.47</ele>
        <time>2013-04-28T06:45:08Z</time>
      </trkpt>
      <trkpt lat="47.71358" lon="3.66045">
        <ele>153.47</ele>
        <time>2013-04-28T06:45:09Z</time>
      </trkpt>
      <trkpt lat="47.71363" lon="3.66059">
        <ele>151.54</ele>
        <time>2013-04-28T06:45:16Z</time>
      </trkpt>
      <trkpt lat="47.71368" lon="3.66078">
        <ele>150.1</ele>
        <time>2013-04-28T06:45:25Z</time>
      </trkpt>
      <trkpt lat="47.71369" lon="3.66083">
        <ele>150.1</ele>
        <time>2013-04-28T06:45:27Z</time>
      </trkpt>
      <trkpt lat="47.71372" lon="3.66091">
        <ele>149.14</ele>
        <time>2013-04-28T06:45:32Z</time>
      </trkpt>
      <trkpt lat="47.71376" lon="3.66106">
        <ele>149.62</ele>
        <time>2013-04-28T06:45:40Z</time>
      </trkpt>
      <trkpt lat="47.71378" lon="3.66119">
        <ele>149.14</ele>
        <time>2013-04-28T06:45:46Z</time>
      </trkpt>
      <trkpt lat="47.71377" lon="3.6612">
        <ele>149.14</ele>
        <time>2013-04-28T06:45:47Z</time>
      </trkpt>
      <trkpt lat="47.71372" lon="3.66139">
        <ele>149.62</ele>
        <time>2013-04-28T06:45:55Z</time>
      </trkpt>
      <trkpt lat="47.71369" lon="3.66147">
        <ele>150.58</ele>
        <time>2013-04-28T06:45:58Z</time>
      </trkpt>
      <trkpt lat="47.71369" lon="3.66149">
        <ele>150.58</ele>
        <time>2013-04-28T06:45:59Z</time>
      </trkpt>
      <trkpt lat="47.71368" lon="3.66157">
        <ele>152.03</ele>
        <time>2013-04-28T06:46:03Z</time>
      </trkpt>
      <trkpt lat="47.71368" lon="3.66159">
        <ele>151.54</ele>
        <time>2013-04-28T06:46:04Z</time>
      </trkpt>
      <trkpt lat="47.71368" lon="3.66161">
        <ele>152.51</ele>
        <time>2013-04-28T06:46:05Z</time>
      </trkpt>
      <trkpt lat="47.71371" lon="3.66172">
        <ele>153.95</ele>
        <time>2013-04-28T06:46:12Z</time>
      </trkpt>
      <trkpt lat="47.71376" lon="3.66182">
        <ele>154.91</ele>
        <time>2013-04-28T06:46:19Z</time>
      </trkpt>
      <trkpt lat="47.71378" lon="3.66193">
        <ele>155.39</ele>
        <time>2013-04-28T06:46:26Z</time>
      </trkpt>
      <trkpt lat="47.71377" lon="3.66198">
        <ele>155.87</ele>
        <time>2013-04-28T06:46:29Z</time>
      </trkpt>
      <trkpt lat="47.71377" lon="3.662">
        <ele>157.31</ele>
        <time>2013-04-28T06:46:32Z</time>
      </trkpt>
      <trkpt lat="47.71375" lon="3.66201">
        <ele>156.83</ele>
        <time>2013-04-28T06:46:36Z</time>
      </trkpt>
      <trkpt lat="47.71374" lon="3.662">
        <ele>157.79</ele>
        <time>2013-04-28T06:46:37Z</time>
      </trkpt>
      <trkpt lat="47.71373" lon="3.66199">
        <ele>157.31</ele>
        <time>2013-04-28T06:46:38Z</time>
      </trkpt>
      <trkpt lat="47.71362" lon="3.66185">
        <ele>157.31</ele>
        <time>2013-04-28T06:46:49Z</time>
      </trkpt>
      <trkpt lat="47.71351" lon="3.66173">
        <ele>158.75</ele>
        <time>2013-04-28T06:46:58Z</time>
      </trkpt>
      <trkpt lat="47.71345" lon="3.66172">
        <ele>159.24</ele>
        <time>2013-04-28T06:47:02Z</time>
      </trkpt>
      <trkpt lat="47.71344" lon="3.66172">
        <ele>159.24</ele>
        <time>2013-04-28T06:47:03Z</time>
      </trkpt>
      <trkpt lat="47.71343" lon="3.66173">
        <ele>159.24</ele>
        <time>2013-04-28T06:47:04Z</time>
      </trkpt>
      <trkpt lat="47.71333" lon="3.66182">
        <ele>160.68</ele>
        <time>2013-04-28T06:47:12Z</time>
      </trkpt>
      <trkpt lat="47.71323" lon="3.66195">
        <ele>161.64</ele>
        <time>2013-04-28T06:47:22Z</time>
      </trkpt>
      <trkpt lat="47.71313" lon="3.66207">
        <ele>162.6</ele>
        <time>2013-04-28T06:47:31Z</time>
      </trkpt>
      <trkpt lat="47.71301" lon="3.6622">
        <ele>164.04</ele>
        <time>2013-04-28T06:47:41Z</time>
      </trkpt>
      <trkpt lat="47.71291" lon="3.6623">
        <ele>164.52</ele>
        <time>2013-04-28T06:47:50Z</time>
      </trkpt>
      <trkpt lat="47.71275" lon="3.66241">
        <ele>165.48</ele>
        <time>2013-04-28T06:48:01Z</time>
      </trkpt>
      <trkpt lat="47.71263" lon="3.66247">
        <ele>165.48</ele>
        <time>2013-04-28T06:48:10Z</time>
      </trkpt>
      <trkpt lat="47.71263" lon="3.66249">
        <ele>165.96</ele>
        <time>2013-04-28T06:48:11Z</time>
      </trkpt>
      <trkpt lat="47.71262" lon="3.66251">
        <ele>166.45</ele>
        <time>2013-04-28T06:48:12Z</time>
      </trkpt>
      <trkpt lat="47.71262" lon="3.66253">
        <ele>165.48</ele>
        <time>2013-04-28T06:48:13Z</time>
      </trkpt>
      <trkpt lat="47.71262" lon="3.66265">
        <ele>166.93</ele>
        <time>2013-04-28T06:48:21Z</time>
      </trkpt>
      <trkpt lat="47.71261" lon="3.66279">
        <ele>169.33</ele>
        <time>2013-04-28T06:48:28Z</time>
      </trkpt>
      <trkpt lat="47.7126" lon="3.66282">
        <ele>169.33</ele>
        <time>2013-04-28T06:48:30Z</time>
      </trkpt>
      <trkpt lat="47.71259" lon="3.66292">
        <ele>170.29</ele>
        <time>2013-04-28T06:48:34Z</time>
      </trkpt>
      <trkpt lat="47.71254" lon="3.66314">
        <ele>170.77</ele>
        <time>2013-04-28T06:48:45Z</time>
      </trkpt>
      <trkpt lat="47.7125" lon="3.6634">
        <ele>171.25</ele>
        <time>2013-04-28T06:48:55Z</time>
      </trkpt>
      <trkpt lat="47.71244" lon="3.66362">
        <ele>172.69</ele>
        <time>2013-04-28T06:49:05Z</time>
      </trkpt>
      <trkpt lat="47.71243" lon="3.6638">
        <ele>172.21</ele>
        <time>2013-04-28T06:49:14Z</time>
      </trkpt>
      <trkpt lat="47.71243" lon="3.66383">
        <ele>173.17</ele>
        <time>2013-04-28T06:49:16Z</time>
      </trkpt>
      <trkpt lat="47.71241" lon="3.66396">
        <ele>173.66</ele>
        <time>2013-04-28T06:49:25Z</time>
      </trkpt>
      <trkpt lat="47.71241" lon="3.66412">
        <ele>173.66</ele>
        <time>2013-04-28T06:49:32Z</time>
      </trkpt>
      <trkpt lat="47.71243" lon="3.66426">
        <ele>173.66</ele>
        <time>2013-04-28T06:49:39Z</time>
      </trkpt>
      <trkpt lat="47.71243" lon="3.66429">
        <ele>173.66</ele>
        <time>2013-04-28T06:49:40Z</time>
      </trkpt>
      <trkpt lat="47.71243" lon="3.66433">
        <ele>173.66</ele>
        <time>2013-04-28T06:49:42Z</time>
      </trkpt>
      <trkpt lat="47.71238" lon="3.66449">
        <ele>174.62</ele>
        <time>2013-04-28T06:49:46Z</time>
      </trkpt>
      <trkpt lat="47.71243" lon="3.66467">
        <ele>174.14</ele>
        <time>2013-04-28T06:49:54Z</time>
      </trkpt>
      <trkpt lat="47.71243" lon="3.6647">
        <ele>174.62</ele>
        <time>2013-04-28T06:49:55Z</time>
      </trkpt>
      <trkpt lat="47.71244" lon="3.6648">
        <ele>175.1</ele>
        <time>2013-04-28T06:50:00Z</time>
      </trkpt>
      <trkpt lat="47.71242" lon="3.66488">
        <ele>175.58</ele>
        <time>2013-04-28T06:50:04Z</time>
      </trkpt>
      <trkpt lat="47.71242" lon="3.6649">
        <ele>175.1</ele>
        <time>2013-04-28T06:50:05Z</time>
      </trkpt>
      <trkpt lat="47.7124" lon="3.66499">
        <ele>175.1</ele>
        <time>2013-04-28T06:50:11Z</time>
      </trkpt>
      <trkpt lat="47.71243" lon="3.66508">
        <ele>175.1</ele>
        <time>2013-04-28T06:50:20Z</time>
      </trkpt>
      <trkpt lat="47.71245" lon="3.66508">
        <ele>177.98</ele>
        <time>2013-04-28T06:50:41Z</time>
      </trkpt>
      <trkpt lat="47.71243" lon="3.66507">
        <ele>177.98</ele>
        <time>2013-04-28T06:50:43Z</time>
      </trkpt>
      <trkpt lat="47.71241" lon="3.66508">
        <ele>177.5</ele>
        <time>2013-04-28T06:50:44Z</time>
      </trkpt>
      <trkpt lat="47.71227" lon="3.66514">
        <ele>178.46</ele>
        <time>2013-04-28T06:50:53Z</time>
      </trkpt>
      <trkpt lat="47.71214" lon="3.66523">
        <ele>178.94</ele>
        <time>2013-04-28T06:51:02Z</time>
      </trkpt>
      <trkpt lat="47.71211" lon="3.66524">
        <ele>178.46</ele>
        <time>2013-04-28T06:51:04Z</time>
      </trkpt>
      <trkpt lat="47.71202" lon="3.66538">
        <ele>179.42</ele>
        <time>2013-04-28T06:51:13Z</time>
      </trkpt>
      <trkpt lat="47.71201" lon="3.66541">
        <ele>180.38</ele>
        <time>2013-04-28T06:51:15Z</time>
      </trkpt>
      <trkpt lat="47.71194" lon="3.66559">
        <ele>180.87</ele>
        <time>2013-04-28T06:51:26Z</time>
      </trkpt>
      <trkpt lat="47.71191" lon="3.66565">
        <ele>181.83</ele>
        <time>2013-04-28T06:51:30Z</time>
      </trkpt>
      <trkpt lat="47.7119" lon="3.66567">
        <ele>182.31</ele>
        <time>2013-04-28T06:51:31Z</time>
      </trkpt>
      <trkpt lat="47.71177" lon="3.66583">
        <ele>184.23</ele>
        <time>2013-04-28T06:51:42Z</time>
      </trkpt>
      <trkpt lat="47.71171" lon="3.66594">
        <ele>185.19</ele>
        <time>2013-04-28T06:51:50Z</time>
      </trkpt>
      <trkpt lat="47.71164" lon="3.66607">
        <ele>186.63</ele>
        <time>2013-04-28T06:51:59Z</time>
      </trkpt>
      <trkpt lat="47.71154" lon="3.66623">
        <ele>188.56</ele>
        <time>2013-04-28T06:52:10Z</time>
      </trkpt>
      <trkpt lat="47.71145" lon="3.66636">
        <ele>189.52</ele>
        <time>2013-04-28T06:52:19Z</time>
      </trkpt>
      <trkpt lat="47.71136" lon="3.6665">
        <ele>190.96</ele>
        <time>2013-04-28T06:52:28Z</time>
      </trkpt>
      <trkpt lat="47.71126" lon="3.66665">
        <ele>191.92</ele>
        <time>2013-04-28T06:52:38Z</time>
      </trkpt>
      <trkpt lat="47.71117" lon="3.66678">
        <ele>193.84</ele>
        <time>2013-04-28T06:52:47Z</time>
      </trkpt>
      <trkpt lat="47.71105" lon="3.66694">
        <ele>195.28</ele>
        <time>2013-04-28T06:52:58Z</time>
      </trkpt>
      <trkpt lat="47.71098" lon="3.66705">
        <ele>196.25</ele>
        <time>2013-04-28T06:53:06Z</time>
      </trkpt>
      <trkpt lat="47.71087" lon="3.6672">
        <ele>198.65</ele>
        <time>2013-04-28T06:53:18Z</time>
      </trkpt>
      <trkpt lat="47.71078" lon="3.66734">
        <ele>199.13</ele>
        <time>2013-04-28T06:53:27Z</time>
      </trkpt>
      <trkpt lat="47.71075" lon="3.6674">
        <ele>200.57</ele>
        <time>2013-04-28T06:53:31Z</time>
      </trkpt>
      <trkpt lat="47.71063" lon="3.66759">
        <ele>201.05</ele>
        <time>2013-04-28T06:53:44Z</time>
      </trkpt>
      <trkpt lat="47.71051" lon="3.66782">
        <ele>202.01</ele>
        <time>2013-04-28T06:53:58Z</time>
      </trkpt>
      <trkpt lat="47.71039" lon="3.66804">
        <ele>204.9</ele>
        <time>2013-04-28T06:54:13Z</time>
      </trkpt>
      <trkpt lat="47.71028" lon="3.66827">
        <ele>206.34</ele>
        <time>2013-04-28T06:54:26Z</time>
      </trkpt>
      <trkpt lat="47.71021" lon="3.66844">
        <ele>207.78</ele>
        <time>2013-04-28T06:54:35Z</time>
      </trkpt>
      <trkpt lat="47.71011" lon="3.66863">
        <ele>208.74</ele>
        <time>2013-04-28T06:54:46Z</time>
      </trkpt>
      <trkpt lat="47.71" lon="3.66881">
        <ele>210.19</ele>
        <time>2013-04-28T06:54:58Z</time>
      </trkpt>
      <trkpt lat="47.7099" lon="3.66894">
        <ele>212.11</ele>
        <time>2013-04-28T06:55:08Z</time>
      </trkpt>
      <trkpt lat="47.70981" lon="3.66907">
        <ele>213.07</ele>
        <time>2013-04-28T06:55:17Z</time>
      </trkpt>
      <trkpt lat="47.70971" lon="3.66921">
        <ele>214.99</ele>
        <time>2013-04-28T06:55:27Z</time>
      </trkpt>
      <trkpt lat="47.70961" lon="3.66934">
        <ele>215.95</ele>
        <time>2013-04-28T06:55:37Z</time>
      </trkpt>
      <trkpt lat="47.70949" lon="3.66949">
        <ele>217.4</ele>
        <time>2013-04-28T06:55:48Z</time>
      </trkpt>
      <trkpt lat="47.70938" lon="3.66962">
        <ele>218.84</ele>
        <time>2013-04-28T06:55:58Z</time>
      </trkpt>
      <trkpt lat="47.70924" lon="3.66977">
        <ele>220.76</ele>
        <time>2013-04-28T06:56:10Z</time>
      </trkpt>
      <trkpt lat="47.70914" lon="3.66989">
        <ele>222.68</ele>
        <time>2013-04-28T06:56:20Z</time>
      </trkpt>
      <trkpt lat="47.70903" lon="3.67002">
        <ele>224.61</ele>
        <time>2013-04-28T06:56:30Z</time>
      </trkpt>
      <trkpt lat="47.70892" lon="3.67016">
        <ele>226.53</ele>
        <time>2013-04-28T06:56:40Z</time>
      </trkpt>
      <trkpt lat="47.70882" lon="3.6703">
        <ele>227.97</ele>
        <time>2013-04-28T06:56:50Z</time>
      </trkpt>
      <trkpt lat="47.70873" lon="3.67041">
        <ele>228.93</ele>
        <time>2013-04-28T06:56:59Z</time>
      </trkpt>
      <trkpt lat="47.70862" lon="3.67053">
        <ele>230.37</ele>
        <time>2013-04-28T06:57:09Z</time>
      </trkpt>
      <trkpt lat="47.70852" lon="3.67064">
        <ele>231.81</ele>
        <time>2013-04-28T06:57:18Z</time>
      </trkpt>
      <trkpt lat="47.70845" lon="3.67074">
        <ele>233.26</ele>
        <time>2013-04-28T06:57:26Z</time>
      </trkpt>
      <trkpt lat="47.70833" lon="3.67084">
        <ele>234.7</ele>
        <time>2013-04-28T06:57:36Z</time>
      </trkpt>
      <trkpt lat="47.70822" lon="3.67094">
        <ele>236.62</ele>
        <time>2013-04-28T06:57:46Z</time>
      </trkpt>
      <trkpt lat="47.70814" lon="3.67102">
        <ele>238.06</ele>
        <time>2013-04-28T06:57:54Z</time>
      </trkpt>
      <trkpt lat="47.70805" lon="3.67108">
        <ele>239.51</ele>
        <time>2013-04-28T06:58:02Z</time>
      </trkpt>
      <trkpt lat="47.70796" lon="3.67118">
        <ele>241.91</ele>
        <time>2013-04-28T06:58:11Z</time>
      </trkpt>
      <trkpt lat="47.70788" lon="3.67129">
        <ele>243.35</ele>
        <time>2013-04-28T06:58:20Z</time>
      </trkpt>
      <trkpt lat="47.70776" lon="3.67142">
        <ele>244.79</ele>
        <time>2013-04-28T06:58:32Z</time>
      </trkpt>
      <trkpt lat="47.70775" lon="3.67143">
        <ele>245.27</ele>
        <time>2013-04-28T06:58:33Z</time>
      </trkpt>
      <trkpt lat="47.70774" lon="3.67144">
        <ele>245.75</ele>
        <time>2013-04-28T06:58:34Z</time>
      </trkpt>
      <trkpt lat="47.70773" lon="3.67145">
        <ele>245.75</ele>
        <time>2013-04-28T06:58:35Z</time>
      </trkpt>
      <trkpt lat="47.70772" lon="3.67146">
        <ele>246.72</ele>
        <time>2013-04-28T06:58:36Z</time>
      </trkpt>
      <trkpt lat="47.70771" lon="3.67147">
        <ele>246.23</ele>
        <time>2013-04-28T06:58:37Z</time>
      </trkpt>
      <trkpt lat="47.70763" lon="3.67155">
        <ele>247.68</ele>
        <time>2013-04-28T06:58:45Z</time>
      </trkpt>
      <trkpt lat="47.70757" lon="3.67165">
        <ele>249.12</ele>
        <time>2013-04-28T06:58:52Z</time>
      </trkpt>
      <trkpt lat="47.7075" lon="3.67176">
        <ele>251.04</ele>
        <time>2013-04-28T06:59:00Z</time>
      </trkpt>
      <trkpt lat="47.70742" lon="3.67188">
        <ele>252.96</ele>
        <time>2013-04-28T06:59:09Z</time>
      </trkpt>
      <trkpt lat="47.70733" lon="3.67202">
        <ele>254.89</ele>
        <time>2013-04-28T06:59:19Z</time>
      </trkpt>
      <trkpt lat="47.70725" lon="3.67214">
        <ele>256.33</ele>
        <time>2013-04-28T06:59:28Z</time>
      </trkpt>
      <trkpt lat="47.70718" lon="3.67226">
        <ele>258.25</ele>
        <time>2013-04-28T06:59:37Z</time>
      </trkpt>
      <trkpt lat="47.70713" lon="3.67239">
        <ele>259.69</ele>
        <time>2013-04-28T06:59:45Z</time>
      </trkpt>
      <trkpt lat="47.70709" lon="3.6725">
        <ele>261.62</ele>
        <time>2013-04-28T06:59:52Z</time>
      </trkpt>
      <trkpt lat="47.70705" lon="3.67261">
        <ele>262.58</ele>
        <time>2013-04-28T06:59:59Z</time>
      </trkpt>
      <trkpt lat="47.70701" lon="3.67262">
        <ele>264.02</ele>
        <time>2013-04-28T07:00:07Z</time>
      </trkpt>
      <trkpt lat="47.70699" lon="3.67256">
        <ele>265.46</ele>
        <time>2013-04-28T07:00:13Z</time>
      </trkpt>
      <trkpt lat="47.70698" lon="3.67251">
        <ele>265.94</ele>
        <time>2013-04-28T07:00:16Z</time>
      </trkpt>
      <trkpt lat="47.70697" lon="3.67249">
        <ele>265.46</ele>
        <time>2013-04-28T07:00:17Z</time>
      </trkpt>
      <trkpt lat="47.70693" lon="3.67243">
        <ele>266.9</ele>
        <time>2013-04-28T07:00:23Z</time>
      </trkpt>
      <trkpt lat="47.70686" lon="3.67235">
        <ele>267.86</ele>
        <time>2013-04-28T07:00:30Z</time>
      </trkpt>
      <trkpt lat="47.70678" lon="3.67229">
        <ele>268.83</ele>
        <time>2013-04-28T07:00:36Z</time>
      </trkpt>
      <trkpt lat="47.70674" lon="3.67226">
        <ele>270.75</ele>
        <time>2013-04-28T07:00:40Z</time>
      </trkpt>
      <trkpt lat="47.70668" lon="3.67219">
        <ele>271.71</ele>
        <time>2013-04-28T07:00:46Z</time>
      </trkpt>
      <trkpt lat="47.70667" lon="3.67217">
        <ele>272.19</ele>
        <time>2013-04-28T07:00:47Z</time>
      </trkpt>
      <trkpt lat="47.70666" lon="3.67216">
        <ele>272.19</ele>
        <time>2013-04-28T07:00:48Z</time>
      </trkpt>
      <trkpt lat="47.70665" lon="3.67213">
        <ele>272.67</ele>
        <time>2013-04-28T07:00:50Z</time>
      </trkpt>
      <trkpt lat="47.70661" lon="3.67197">
        <ele>272.67</ele>
        <time>2013-04-28T07:00:59Z</time>
      </trkpt>
      <trkpt lat="47.7066" lon="3.67184">
        <ele>270.75</ele>
        <time>2013-04-28T07:01:08Z</time>
      </trkpt>
      <trkpt lat="47.70654" lon="3.67173">
        <ele>271.71</ele>
        <time>2013-04-28T07:01:16Z</time>
      </trkpt>
      <trkpt lat="47.70642" lon="3.67162">
        <ele>273.63</ele>
        <time>2013-04-28T07:01:26Z</time>
      </trkpt>
      <trkpt lat="47.70641" lon="3.6716">
        <ele>273.63</ele>
        <time>2013-04-28T07:01:27Z</time>
      </trkpt>
      <trkpt lat="47.70629" lon="3.67147">
        <ele>274.11</ele>
        <time>2013-04-28T07:01:35Z</time>
      </trkpt>
      <trkpt lat="47.7062" lon="3.67133">
        <ele>274.59</ele>
        <time>2013-04-28T07:01:44Z</time>
      </trkpt>
      <trkpt lat="47.70609" lon="3.67121">
        <ele>275.07</ele>
        <time>2013-04-28T07:01:52Z</time>
      </trkpt>
      <trkpt lat="47.70603" lon="3.67108">
        <ele>274.59</ele>
        <time>2013-04-28T07:02:00Z</time>
      </trkpt>
      <trkpt lat="47.70593" lon="3.67096">
        <ele>275.07</ele>
        <time>2013-04-28T07:02:09Z</time>
      </trkpt>
      <trkpt lat="47.70581" lon="3.67083">
        <ele>276.04</ele>
        <time>2013-04-28T07:02:19Z</time>
      </trkpt>
      <trkpt lat="47.70572" lon="3.67072">
        <ele>276.04</ele>
        <time>2013-04-28T07:02:28Z</time>
      </trkpt>
      <trkpt lat="47.70563" lon="3.67064">
        <ele>277</ele>
        <time>2013-04-28T07:02:36Z</time>
      </trkpt>
      <trkpt lat="47.70552" lon="3.67054">
        <ele>277</ele>
        <time>2013-04-28T07:02:44Z</time>
      </trkpt>
      <trkpt lat="47.70542" lon="3.67045">
        <ele>277.48</ele>
        <time>2013-04-28T07:02:52Z</time>
      </trkpt>
      <trkpt lat="47.70532" lon="3.67035">
        <ele>277.48</ele>
        <time>2013-04-28T07:03:03Z</time>
      </trkpt>
      <trkpt lat="47.70523" lon="3.67023">
        <ele>277.96</ele>
        <time>2013-04-28T07:03:13Z</time>
      </trkpt>
      <trkpt lat="47.70513" lon="3.67011">
        <ele>277</ele>
        <time>2013-04-28T07:03:22Z</time>
      </trkpt>
      <trkpt lat="47.70504" lon="3.66999">
        <ele>277</ele>
        <time>2013-04-28T07:03:29Z</time>
      </trkpt>
      <trkpt lat="47.70503" lon="3.66996">
        <ele>276.52</ele>
        <time>2013-04-28T07:03:30Z</time>
      </trkpt>
      <trkpt lat="47.70497" lon="3.66978">
        <ele>275.56</ele>
        <time>2013-04-28T07:03:40Z</time>
      </trkpt>
      <trkpt lat="47.70489" lon="3.66966">
        <ele>275.56</ele>
        <time>2013-04-28T07:03:48Z</time>
      </trkpt>
      <trkpt lat="47.70479" lon="3.66952">
        <ele>275.07</ele>
        <time>2013-04-28T07:03:56Z</time>
      </trkpt>
      <trkpt lat="47.70478" lon="3.66951">
        <ele>274.59</ele>
        <time>2013-04-28T07:03:57Z</time>
      </trkpt>
      <trkpt lat="47.70471" lon="3.66942">
        <ele>274.59</ele>
        <time>2013-04-28T07:04:04Z</time>
      </trkpt>
      <trkpt lat="47.70469" lon="3.66937">
        <ele>273.63</ele>
        <time>2013-04-28T07:04:07Z</time>
      </trkpt>
      <trkpt lat="47.7046" lon="3.66921">
        <ele>271.71</ele>
        <time>2013-04-28T07:04:15Z</time>
      </trkpt>
      <trkpt lat="47.70451" lon="3.6691">
        <ele>271.23</ele>
        <time>2013-04-28T07:04:21Z</time>
      </trkpt>
      <trkpt lat="47.7044" lon="3.66903">
        <ele>272.19</ele>
        <time>2013-04-28T07:04:30Z</time>
      </trkpt>
      <trkpt lat="47.70427" lon="3.669">
        <ele>272.19</ele>
        <time>2013-04-28T07:04:39Z</time>
      </trkpt>
      <trkpt lat="47.70418" lon="3.66897">
        <ele>275.56</ele>
        <time>2013-04-28T07:04:46Z</time>
      </trkpt>
      <trkpt lat="47.70404" lon="3.66894">
        <ele>275.07</ele>
        <time>2013-04-28T07:04:54Z</time>
      </trkpt>
      <trkpt lat="47.70392" lon="3.66894">
        <ele>276.04</ele>
        <time>2013-04-28T07:05:03Z</time>
      </trkpt>
      <trkpt lat="47.70376" lon="3.6689">
        <ele>276.04</ele>
        <time>2013-04-28T07:05:14Z</time>
      </trkpt>
      <trkpt lat="47.70359" lon="3.66897">
        <ele>277.48</ele>
        <time>2013-04-28T07:05:26Z</time>
      </trkpt>
      <trkpt lat="47.70349" lon="3.66911">
        <ele>277.96</ele>
        <time>2013-04-28T07:05:35Z</time>
      </trkpt>
      <trkpt lat="47.70338" lon="3.66923">
        <ele>278.44</ele>
        <time>2013-04-28T07:05:44Z</time>
      </trkpt>
      <trkpt lat="47.70328" lon="3.66939">
        <ele>277.96</ele>
        <time>2013-04-28T07:05:54Z</time>
      </trkpt>
      <trkpt lat="47.70323" lon="3.66955">
        <ele>278.92</ele>
        <time>2013-04-28T07:06:02Z</time>
      </trkpt>
      <trkpt lat="47.70322" lon="3.66963">
        <ele>279.4</ele>
        <time>2013-04-28T07:06:07Z</time>
      </trkpt>
      <trkpt lat="47.70323" lon="3.66966">
        <ele>278.92</ele>
        <time>2013-04-28T07:06:08Z</time>
      </trkpt>
      <trkpt lat="47.70323" lon="3.66967">
        <ele>279.4</ele>
        <time>2013-04-28T07:06:09Z</time>
      </trkpt>
      <trkpt lat="47.70324" lon="3.66969">
        <ele>279.88</ele>
        <time>2013-04-28T07:06:10Z</time>
      </trkpt>
      <trkpt lat="47.70325" lon="3.6697">
        <ele>279.88</ele>
        <time>2013-04-28T07:06:11Z</time>
      </trkpt>
      <trkpt lat="47.70326" lon="3.66972">
        <ele>279.88</ele>
        <time>2013-04-28T07:06:12Z</time>
      </trkpt>
      <trkpt lat="47.70326" lon="3.66974">
        <ele>279.88</ele>
        <time>2013-04-28T07:06:13Z</time>
      </trkpt>
      <trkpt lat="47.70326" lon="3.66975">
        <ele>280.36</ele>
        <time>2013-04-28T07:06:14Z</time>
      </trkpt>
      <trkpt lat="47.70323" lon="3.66987">
        <ele>280.36</ele>
        <time>2013-04-28T07:06:22Z</time>
      </trkpt>
      <trkpt lat="47.70322" lon="3.66989">
        <ele>280.84</ele>
        <time>2013-04-28T07:06:23Z</time>
      </trkpt>
      <trkpt lat="47.70321" lon="3.66991">
        <ele>280.36</ele>
        <time>2013-04-28T07:06:24Z</time>
      </trkpt>
      <trkpt lat="47.70321" lon="3.66993">
        <ele>280.36</ele>
        <time>2013-04-28T07:06:25Z</time>
      </trkpt>
      <trkpt lat="47.7032" lon="3.66995">
        <ele>280.36</ele>
        <time>2013-04-28T07:06:26Z</time>
      </trkpt>
      <trkpt lat="47.7032" lon="3.66997">
        <ele>280.36</ele>
        <time>2013-04-28T07:06:27Z</time>
      </trkpt>
      <trkpt lat="47.7032" lon="3.67">
        <ele>280.36</ele>
        <time>2013-04-28T07:06:28Z</time>
      </trkpt>
      <trkpt lat="47.70321" lon="3.67002">
        <ele>280.36</ele>
        <time>2013-04-28T07:06:29Z</time>
      </trkpt>
      <trkpt lat="47.70321" lon="3.67004">
        <ele>279.88</ele>
        <time>2013-04-28T07:06:30Z</time>
      </trkpt>
      <trkpt lat="47.70321" lon="3.67008">
        <ele>280.36</ele>
        <time>2013-04-28T07:06:32Z</time>
      </trkpt>
      <trkpt lat="47.70321" lon="3.6702">
        <ele>279.4</ele>
        <time>2013-04-28T07:06:39Z</time>
      </trkpt>
      <trkpt lat="47.70326" lon="3.67038">
        <ele>279.4</ele>
        <time>2013-04-28T07:06:48Z</time>
      </trkpt>
      <trkpt lat="47.70329" lon="3.67054">
        <ele>279.4</ele>
        <time>2013-04-28T07:06:56Z</time>
      </trkpt>
      <trkpt lat="47.70334" lon="3.67067">
        <ele>279.88</ele>
        <time>2013-04-28T07:07:03Z</time>
      </trkpt>
      <trkpt lat="47.70335" lon="3.67076">
        <ele>280.36</ele>
        <time>2013-04-28T07:07:07Z</time>
      </trkpt>
      <trkpt lat="47.7034" lon="3.67095">
        <ele>280.36</ele>
        <time>2013-04-28T07:07:16Z</time>
      </trkpt>
      <trkpt lat="47.7034" lon="3.67109">
        <ele>281.32</ele>
        <time>2013-04-28T07:07:23Z</time>
      </trkpt>
      <trkpt lat="47.70339" lon="3.67111">
        <ele>280.84</ele>
        <time>2013-04-28T07:07:24Z</time>
      </trkpt>
      <trkpt lat="47.70338" lon="3.67114">
        <ele>280.84</ele>
        <time>2013-04-28T07:07:25Z</time>
      </trkpt>
      <trkpt lat="47.70338" lon="3.67116">
        <ele>280.36</ele>
        <time>2013-04-28T07:07:26Z</time>
      </trkpt>
      <trkpt lat="47.70338" lon="3.67118">
        <ele>280.36</ele>
        <time>2013-04-28T07:07:27Z</time>
      </trkpt>
      <trkpt lat="47.70341" lon="3.67127">
        <ele>280.84</ele>
        <time>2013-04-28T07:07:35Z</time>
      </trkpt>
      <trkpt lat="47.70342" lon="3.67131">
        <ele>281.32</ele>
        <time>2013-04-28T07:07:45Z</time>
      </trkpt>
      <trkpt lat="47.70343" lon="3.67141">
        <ele>282.28</ele>
        <time>2013-04-28T07:08:08Z</time>
      </trkpt>
      <trkpt lat="47.70344" lon="3.67144">
        <ele>282.28</ele>
        <time>2013-04-28T07:08:09Z</time>
      </trkpt>
      <trkpt lat="47.70346" lon="3.67147">
        <ele>281.8</ele>
        <time>2013-04-28T07:08:10Z</time>
      </trkpt>
      <trkpt lat="47.70348" lon="3.67157">
        <ele>281.32</ele>
        <time>2013-04-28T07:08:16Z</time>
      </trkpt>
      <trkpt lat="47.70348" lon="3.67159">
        <ele>280.84</ele>
        <time>2013-04-28T07:08:17Z</time>
      </trkpt>
      <trkpt lat="47.70352" lon="3.67179">
        <ele>280.84</ele>
        <time>2013-04-28T07:08:22Z</time>
      </trkpt>
      <trkpt lat="47.70357" lon="3.67203">
        <ele>280.84</ele>
        <time>2013-04-28T07:08:27Z</time>
      </trkpt>
      <trkpt lat="47.70361" lon="3.67225">
        <ele>280.84</ele>
        <time>2013-04-28T07:08:32Z</time>
      </trkpt>
      <trkpt lat="47.70364" lon="3.67248">
        <ele>280.84</ele>
        <time>2013-04-28T07:08:37Z</time>
      </trkpt>
      <trkpt lat="47.70372" lon="3.67274">
        <ele>280.36</ele>
        <time>2013-04-28T07:08:43Z</time>
      </trkpt>
      <trkpt lat="47.70378" lon="3.67291">
        <ele>281.32</ele>
        <time>2013-04-28T07:08:49Z</time>
      </trkpt>
      <trkpt lat="47.70386" lon="3.67309">
        <ele>281.32</ele>
        <time>2013-04-28T07:08:59Z</time>
      </trkpt>
      <trkpt lat="47.70391" lon="3.67334">
        <ele>281.8</ele>
        <time>2013-04-28T07:09:10Z</time>
      </trkpt>
      <trkpt lat="47.70396" lon="3.67352">
        <ele>282.77</ele>
        <time>2013-04-28T07:09:19Z</time>
      </trkpt>
      <trkpt lat="47.704" lon="3.67366">
        <ele>283.25</ele>
        <time>2013-04-28T07:09:26Z</time>
      </trkpt>
      <trkpt lat="47.70406" lon="3.67383">
        <ele>283.73</ele>
        <time>2013-04-28T07:09:35Z</time>
      </trkpt>
      <trkpt lat="47.70412" lon="3.67396">
        <ele>284.69</ele>
        <time>2013-04-28T07:09:43Z</time>
      </trkpt>
      <trkpt lat="47.70413" lon="3.67404">
        <ele>283.73</ele>
        <time>2013-04-28T07:09:51Z</time>
      </trkpt>
      <trkpt lat="47.70416" lon="3.67416">
        <ele>282.77</ele>
        <time>2013-04-28T07:10:03Z</time>
      </trkpt>
      <trkpt lat="47.70419" lon="3.67432">
        <ele>282.28</ele>
        <time>2013-04-28T07:10:11Z</time>
      </trkpt>
      <trkpt lat="47.70423" lon="3.67449">
        <ele>282.28</ele>
        <time>2013-04-28T07:10:20Z</time>
      </trkpt>
      <trkpt lat="47.70426" lon="3.67467">
        <ele>283.73</ele>
        <time>2013-04-28T07:10:28Z</time>
      </trkpt>
      <trkpt lat="47.7043" lon="3.67485">
        <ele>283.25</ele>
        <time>2013-04-28T07:10:38Z</time>
      </trkpt>
      <trkpt lat="47.70432" lon="3.67495">
        <ele>282.77</ele>
        <time>2013-04-28T07:10:42Z</time>
      </trkpt>
      <trkpt lat="47.70434" lon="3.67512">
        <ele>283.25</ele>
        <time>2013-04-28T07:10:48Z</time>
      </trkpt>
      <trkpt lat="47.70439" lon="3.6753">
        <ele>282.77</ele>
        <time>2013-04-28T07:10:58Z</time>
      </trkpt>
      <trkpt lat="47.70444" lon="3.67544">
        <ele>283.25</ele>
        <time>2013-04-28T07:11:06Z</time>
      </trkpt>
      <trkpt lat="47.70452" lon="3.67565">
        <ele>285.17</ele>
        <time>2013-04-28T07:11:17Z</time>
      </trkpt>
      <trkpt lat="47.70455" lon="3.67579">
        <ele>286.13</ele>
        <time>2013-04-28T07:11:23Z</time>
      </trkpt>
      <trkpt lat="47.70455" lon="3.67591">
        <ele>285.65</ele>
        <time>2013-04-28T07:11:30Z</time>
      </trkpt>
      <trkpt lat="47.70457" lon="3.67606">
        <ele>283.73</ele>
        <time>2013-04-28T07:11:39Z</time>
      </trkpt>
      <trkpt lat="47.70459" lon="3.67612">
        <ele>284.69</ele>
        <time>2013-04-28T07:11:41Z</time>
      </trkpt>
      <trkpt lat="47.7046" lon="3.67615">
        <ele>284.69</ele>
        <time>2013-04-28T07:11:42Z</time>
      </trkpt>
      <trkpt lat="47.70461" lon="3.67618">
        <ele>284.69</ele>
        <time>2013-04-28T07:11:43Z</time>
      </trkpt>
      <trkpt lat="47.70462" lon="3.67621">
        <ele>285.17</ele>
        <time>2013-04-28T07:11:44Z</time>
      </trkpt>
      <trkpt lat="47.70463" lon="3.67623">
        <ele>284.69</ele>
        <time>2013-04-28T07:11:45Z</time>
      </trkpt>
      <trkpt lat="47.70464" lon="3.67626">
        <ele>285.17</ele>
        <time>2013-04-28T07:11:46Z</time>
      </trkpt>
      <trkpt lat="47.70464" lon="3.67628">
        <ele>285.65</ele>
        <time>2013-04-28T07:11:47Z</time>
      </trkpt>
      <trkpt lat="47.70464" lon="3.67647">
        <ele>284.21</ele>
        <time>2013-04-28T07:11:56Z</time>
      </trkpt>
      <trkpt lat="47.70457" lon="3.67662">
        <ele>281.8</ele>
        <time>2013-04-28T07:12:05Z</time>
      </trkpt>
      <trkpt lat="47.70456" lon="3.67663">
        <ele>281.32</ele>
        <time>2013-04-28T07:12:06Z</time>
      </trkpt>
      <trkpt lat="47.70454" lon="3.67664">
        <ele>280.36</ele>
        <time>2013-04-28T07:12:07Z</time>
      </trkpt>
      <trkpt lat="47.70451" lon="3.67668">
        <ele>279.4</ele>
        <time>2013-04-28T07:12:10Z</time>
      </trkpt>
      <trkpt lat="47.70449" lon="3.67668">
        <ele>278.92</ele>
        <time>2013-04-28T07:12:11Z</time>
      </trkpt>
      <trkpt lat="47.70448" lon="3.67669">
        <ele>278.44</ele>
        <time>2013-04-28T07:12:12Z</time>
      </trkpt>
      <trkpt lat="47.70446" lon="3.67671">
        <ele>277.48</ele>
        <time>2013-04-28T07:12:14Z</time>
      </trkpt>
      <trkpt lat="47.70443" lon="3.67673">
        <ele>276.04</ele>
        <time>2013-04-28T07:12:17Z</time>
      </trkpt>
      <trkpt lat="47.70441" lon="3.67674">
        <ele>275.56</ele>
        <time>2013-04-28T07:12:18Z</time>
      </trkpt>
      <trkpt lat="47.70439" lon="3.67675">
        <ele>275.07</ele>
        <time>2013-04-28T07:12:19Z</time>
      </trkpt>
      <trkpt lat="47.70438" lon="3.67676">
        <ele>274.11</ele>
        <time>2013-04-28T07:12:20Z</time>
      </trkpt>
      <trkpt lat="47.70437" lon="3.67676">
        <ele>273.63</ele>
        <time>2013-04-28T07:12:21Z</time>
      </trkpt>
      <trkpt lat="47.70436" lon="3.67676">
        <ele>273.15</ele>
        <time>2013-04-28T07:12:22Z</time>
      </trkpt>
      <trkpt lat="47.70435" lon="3.67677">
        <ele>272.67</ele>
        <time>2013-04-28T07:12:23Z</time>
      </trkpt>
      <trkpt lat="47.70433" lon="3.67677">
        <ele>272.67</ele>
        <time>2013-04-28T07:12:24Z</time>
      </trkpt>
      <trkpt lat="47.70432" lon="3.67677">
        <ele>272.19</ele>
        <time>2013-04-28T07:12:25Z</time>
      </trkpt>
      <trkpt lat="47.70431" lon="3.67677">
        <ele>271.23</ele>
        <time>2013-04-28T07:12:26Z</time>
      </trkpt>
      <trkpt lat="47.7043" lon="3.67678">
        <ele>271.23</ele>
        <time>2013-04-28T07:12:27Z</time>
      </trkpt>
      <trkpt lat="47.70429" lon="3.67678">
        <ele>270.75</ele>
        <time>2013-04-28T07:12:28Z</time>
      </trkpt>
      <trkpt lat="47.70427" lon="3.67679">
        <ele>269.79</ele>
        <time>2013-04-28T07:12:30Z</time>
      </trkpt>
      <trkpt lat="47.70425" lon="3.67679">
        <ele>268.83</ele>
        <time>2013-04-28T07:12:31Z</time>
      </trkpt>
      <trkpt lat="47.70424" lon="3.6768">
        <ele>268.83</ele>
        <time>2013-04-28T07:12:32Z</time>
      </trkpt>
      <trkpt lat="47.70423" lon="3.6768">
        <ele>268.35</ele>
        <time>2013-04-28T07:12:33Z</time>
      </trkpt>
      <trkpt lat="47.70422" lon="3.67681">
        <ele>267.86</ele>
        <time>2013-04-28T07:12:34Z</time>
      </trkpt>
      <trkpt lat="47.70418" lon="3.67683">
        <ele>266.42</ele>
        <time>2013-04-28T07:12:37Z</time>
      </trkpt>
      <trkpt lat="47.70416" lon="3.67684">
        <ele>264.98</ele>
        <time>2013-04-28T07:12:39Z</time>
      </trkpt>
      <trkpt lat="47.70415" lon="3.67684">
        <ele>264.5</ele>
        <time>2013-04-28T07:12:40Z</time>
      </trkpt>
      <trkpt lat="47.70414" lon="3.67685">
        <ele>264.02</ele>
        <time>2013-04-28T07:12:41Z</time>
      </trkpt>
      <trkpt lat="47.70404" lon="3.67689">
        <ele>260.17</ele>
        <time>2013-04-28T07:12:48Z</time>
      </trkpt>
      <trkpt lat="47.70402" lon="3.6769">
        <ele>259.69</ele>
        <time>2013-04-28T07:12:49Z</time>
      </trkpt>
      <trkpt lat="47.704" lon="3.67691">
        <ele>259.69</ele>
        <time>2013-04-28T07:12:50Z</time>
      </trkpt>
      <trkpt lat="47.70398" lon="3.67692">
        <ele>259.21</ele>
        <time>2013-04-28T07:12:51Z</time>
      </trkpt>
      <trkpt lat="47.70397" lon="3.67692">
        <ele>258.73</ele>
        <time>2013-04-28T07:12:52Z</time>
      </trkpt>
      <trkpt lat="47.70395" lon="3.67693">
        <ele>257.29</ele>
        <time>2013-04-28T07:12:53Z</time>
      </trkpt>
      <trkpt lat="47.70394" lon="3.67694">
        <ele>257.29</ele>
        <time>2013-04-28T07:12:54Z</time>
      </trkpt>
      <trkpt lat="47.70392" lon="3.67695">
        <ele>256.81</ele>
        <time>2013-04-28T07:13:02Z</time>
      </trkpt>
      <trkpt lat="47.70385" lon="3.67695">
        <ele>254.89</ele>
        <time>2013-04-28T07:13:07Z</time>
      </trkpt>
      <trkpt lat="47.70381" lon="3.67694">
        <ele>253.44</ele>
        <time>2013-04-28T07:13:11Z</time>
      </trkpt>
      <trkpt lat="47.70379" lon="3.67695">
        <ele>252.48</ele>
        <time>2013-04-28T07:13:12Z</time>
      </trkpt>
      <trkpt lat="47.70378" lon="3.67694">
        <ele>252</ele>
        <time>2013-04-28T07:13:13Z</time>
      </trkpt>
      <trkpt lat="47.70376" lon="3.67693">
        <ele>252</ele>
        <time>2013-04-28T07:13:14Z</time>
      </trkpt>
      <trkpt lat="47.70375" lon="3.67693">
        <ele>252</ele>
        <time>2013-04-28T07:13:15Z</time>
      </trkpt>
      <trkpt lat="47.70366" lon="3.67694">
        <ele>248.64</ele>
        <time>2013-04-28T07:13:21Z</time>
      </trkpt>
      <trkpt lat="47.70362" lon="3.67696">
        <ele>247.68</ele>
        <time>2013-04-28T07:13:24Z</time>
      </trkpt>
      <trkpt lat="47.70361" lon="3.67696">
        <ele>247.2</ele>
        <time>2013-04-28T07:13:25Z</time>
      </trkpt>
      <trkpt lat="47.70359" lon="3.67697">
        <ele>246.72</ele>
        <time>2013-04-28T07:13:26Z</time>
      </trkpt>
      <trkpt lat="47.70351" lon="3.677">
        <ele>244.31</ele>
        <time>2013-04-28T07:13:32Z</time>
      </trkpt>
      <trkpt lat="47.70344" lon="3.677">
        <ele>242.39</ele>
        <time>2013-04-28T07:13:37Z</time>
      </trkpt>
      <trkpt lat="47.70344" lon="3.67704">
        <ele>241.91</ele>
        <time>2013-04-28T07:13:43Z</time>
      </trkpt>
      <trkpt lat="47.70337" lon="3.67702">
        <ele>240.47</ele>
        <time>2013-04-28T07:13:50Z</time>
      </trkpt>
      <trkpt lat="47.70327" lon="3.67705">
        <ele>238.06</ele>
        <time>2013-04-28T07:13:58Z</time>
      </trkpt>
      <trkpt lat="47.70317" lon="3.67706">
        <ele>235.66</ele>
        <time>2013-04-28T07:14:06Z</time>
      </trkpt>
      <trkpt lat="47.70306" lon="3.67706">
        <ele>233.26</ele>
        <time>2013-04-28T07:14:15Z</time>
      </trkpt>
      <trkpt lat="47.70295" lon="3.67709">
        <ele>230.85</ele>
        <time>2013-04-28T07:14:24Z</time>
      </trkpt>
      <trkpt lat="47.70289" lon="3.67711">
        <ele>228.45</ele>
        <time>2013-04-28T07:14:30Z</time>
      </trkpt>
      <trkpt lat="47.70281" lon="3.67713">
        <ele>227.49</ele>
        <time>2013-04-28T07:14:36Z</time>
      </trkpt>
      <trkpt lat="47.70279" lon="3.67714">
        <ele>226.53</ele>
        <time>2013-04-28T07:14:37Z</time>
      </trkpt>
      <trkpt lat="47.70278" lon="3.67717">
        <ele>226.53</ele>
        <time>2013-04-28T07:14:38Z</time>
      </trkpt>
      <trkpt lat="47.70277" lon="3.67719">
        <ele>226.53</ele>
        <time>2013-04-28T07:14:39Z</time>
      </trkpt>
      <trkpt lat="47.70276" lon="3.67721">
        <ele>227.01</ele>
        <time>2013-04-28T07:14:40Z</time>
      </trkpt>
      <trkpt lat="47.70276" lon="3.67724">
        <ele>226.53</ele>
        <time>2013-04-28T07:14:41Z</time>
      </trkpt>
      <trkpt lat="47.70275" lon="3.67726">
        <ele>226.05</ele>
        <time>2013-04-28T07:14:42Z</time>
      </trkpt>
      <trkpt lat="47.70275" lon="3.67728">
        <ele>226.05</ele>
        <time>2013-04-28T07:14:43Z</time>
      </trkpt>
      <trkpt lat="47.70276" lon="3.67732">
        <ele>226.53</ele>
        <time>2013-04-28T07:14:47Z</time>
      </trkpt>
      <trkpt lat="47.70276" lon="3.67734">
        <ele>227.01</ele>
        <time>2013-04-28T07:14:48Z</time>
      </trkpt>
      <trkpt lat="47.70276" lon="3.67736">
        <ele>227.01</ele>
        <time>2013-04-28T07:14:49Z</time>
      </trkpt>
      <trkpt lat="47.70277" lon="3.6774">
        <ele>227.01</ele>
        <time>2013-04-28T07:14:51Z</time>
      </trkpt>
      <trkpt lat="47.70277" lon="3.67742">
        <ele>227.01</ele>
        <time>2013-04-28T07:14:52Z</time>
      </trkpt>
      <trkpt lat="47.70277" lon="3.67744">
        <ele>227.01</ele>
        <time>2013-04-28T07:14:53Z</time>
      </trkpt>
      <trkpt lat="47.70277" lon="3.67746">
        <ele>227.49</ele>
        <time>2013-04-28T07:14:54Z</time>
      </trkpt>
      <trkpt lat="47.70277" lon="3.67748">
        <ele>227.01</ele>
        <time>2013-04-28T07:14:55Z</time>
      </trkpt>
      <trkpt lat="47.70277" lon="3.6775">
        <ele>227.49</ele>
        <time>2013-04-28T07:14:56Z</time>
      </trkpt>
      <trkpt lat="47.70277" lon="3.67752">
        <ele>227.01</ele>
        <time>2013-04-28T07:14:57Z</time>
      </trkpt>
      <trkpt lat="47.70278" lon="3.67766">
        <ele>227.49</ele>
        <time>2013-04-28T07:15:04Z</time>
      </trkpt>
      <trkpt lat="47.7028" lon="3.67783">
        <ele>227.97</ele>
        <time>2013-04-28T07:15:12Z</time>
      </trkpt>
      <trkpt lat="47.70282" lon="3.678">
        <ele>228.45</ele>
        <time>2013-04-28T07:15:20Z</time>
      </trkpt>
      <trkpt lat="47.70286" lon="3.67813">
        <ele>228.93</ele>
        <time>2013-04-28T07:15:27Z</time>
      </trkpt>
      <trkpt lat="47.70289" lon="3.67823">
        <ele>229.41</ele>
        <time>2013-04-28T07:15:32Z</time>
      </trkpt>
      <trkpt lat="47.70291" lon="3.67825">
        <ele>228.45</ele>
        <time>2013-04-28T07:15:33Z</time>
      </trkpt>
      <trkpt lat="47.70291" lon="3.67826">
        <ele>228.93</ele>
        <time>2013-04-28T07:15:34Z</time>
      </trkpt>
      <trkpt lat="47.70292" lon="3.67828">
        <ele>228.93</ele>
        <time>2013-04-28T07:15:35Z</time>
      </trkpt>
      <trkpt lat="47.70293" lon="3.6783">
        <ele>229.41</ele>
        <time>2013-04-28T07:15:36Z</time>
      </trkpt>
      <trkpt lat="47.70294" lon="3.67833">
        <ele>228.93</ele>
        <time>2013-04-28T07:15:38Z</time>
      </trkpt>
      <trkpt lat="47.70295" lon="3.67834">
        <ele>228.93</ele>
        <time>2013-04-28T07:15:39Z</time>
      </trkpt>
      <trkpt lat="47.70296" lon="3.67836">
        <ele>228.93</ele>
        <time>2013-04-28T07:15:40Z</time>
      </trkpt>
      <trkpt lat="47.70297" lon="3.67837">
        <ele>228.93</ele>
        <time>2013-04-28T07:15:41Z</time>
      </trkpt>
      <trkpt lat="47.70302" lon="3.67847">
        <ele>229.41</ele>
        <time>2013-04-28T07:15:49Z</time>
      </trkpt>
      <trkpt lat="47.7031" lon="3.67858">
        <ele>230.37</ele>
        <time>2013-04-28T07:15:56Z</time>
      </trkpt>
      <trkpt lat="47.70319" lon="3.67868">
        <ele>230.85</ele>
        <time>2013-04-28T07:16:03Z</time>
      </trkpt>
      <trkpt lat="47.7032" lon="3.67869">
        <ele>230.85</ele>
        <time>2013-04-28T07:16:04Z</time>
      </trkpt>
      <trkpt lat="47.70321" lon="3.6787">
        <ele>230.85</ele>
        <time>2013-04-28T07:16:05Z</time>
      </trkpt>
      <trkpt lat="47.70322" lon="3.67871">
        <ele>230.85</ele>
        <time>2013-04-28T07:16:06Z</time>
      </trkpt>
      <trkpt lat="47.70327" lon="3.67877">
        <ele>231.33</ele>
        <time>2013-04-28T07:16:12Z</time>
      </trkpt>
      <trkpt lat="47.70333" lon="3.67885">
        <ele>231.33</ele>
        <time>2013-04-28T07:16:19Z</time>
      </trkpt>
      <trkpt lat="47.70341" lon="3.67892">
        <ele>232.78</ele>
        <time>2013-04-28T07:16:27Z</time>
      </trkpt>
      <trkpt lat="47.70347" lon="3.67898">
        <ele>232.78</ele>
        <time>2013-04-28T07:16:34Z</time>
      </trkpt>
      <trkpt lat="47.70357" lon="3.67907">
        <ele>232.78</ele>
        <time>2013-04-28T07:16:41Z</time>
      </trkpt>
      <trkpt lat="47.70364" lon="3.67915">
        <ele>233.26</ele>
        <time>2013-04-28T07:16:48Z</time>
      </trkpt>
      <trkpt lat="47.70371" lon="3.67924">
        <ele>234.7</ele>
        <time>2013-04-28T07:16:55Z</time>
      </trkpt>
      <trkpt lat="47.70372" lon="3.67926">
        <ele>234.7</ele>
        <time>2013-04-28T07:16:56Z</time>
      </trkpt>
      <trkpt lat="47.70375" lon="3.6793">
        <ele>234.7</ele>
        <time>2013-04-28T07:16:58Z</time>
      </trkpt>
      <trkpt lat="47.70376" lon="3.67932">
        <ele>234.7</ele>
        <time>2013-04-28T07:16:59Z</time>
      </trkpt>
      <trkpt lat="47.70386" lon="3.67944">
        <ele>235.66</ele>
        <time>2013-04-28T07:17:05Z</time>
      </trkpt>
      <trkpt lat="47.70392" lon="3.67956">
        <ele>236.14</ele>
        <time>2013-04-28T07:17:12Z</time>
      </trkpt>
      <trkpt lat="47.70397" lon="3.67966">
        <ele>236.14</ele>
        <time>2013-04-28T07:17:17Z</time>
      </trkpt>
      <trkpt lat="47.70398" lon="3.67969">
        <ele>236.62</ele>
        <time>2013-04-28T07:17:18Z</time>
      </trkpt>
      <trkpt lat="47.70403" lon="3.6798">
        <ele>237.1</ele>
        <time>2013-04-28T07:17:24Z</time>
      </trkpt>
      <trkpt lat="47.70404" lon="3.67985">
        <ele>237.1</ele>
        <time>2013-04-28T07:17:26Z</time>
      </trkpt>
      <trkpt lat="47.70405" lon="3.67987">
        <ele>237.1</ele>
        <time>2013-04-28T07:17:27Z</time>
      </trkpt>
      <trkpt lat="47.70405" lon="3.67989">
        <ele>237.58</ele>
        <time>2013-04-28T07:17:28Z</time>
      </trkpt>
      <trkpt lat="47.70406" lon="3.67991">
        <ele>237.58</ele>
        <time>2013-04-28T07:17:29Z</time>
      </trkpt>
      <trkpt lat="47.70408" lon="3.67994">
        <ele>237.58</ele>
        <time>2013-04-28T07:17:30Z</time>
      </trkpt>
      <trkpt lat="47.70409" lon="3.67995">
        <ele>238.06</ele>
        <time>2013-04-28T07:17:31Z</time>
      </trkpt>
      <trkpt lat="47.70411" lon="3.68004">
        <ele>238.06</ele>
        <time>2013-04-28T07:17:35Z</time>
      </trkpt>
      <trkpt lat="47.70415" lon="3.68018">
        <ele>238.54</ele>
        <time>2013-04-28T07:17:42Z</time>
      </trkpt>
      <trkpt lat="47.70416" lon="3.68019">
        <ele>239.02</ele>
        <time>2013-04-28T07:17:43Z</time>
      </trkpt>
      <trkpt lat="47.70416" lon="3.68021">
        <ele>239.02</ele>
        <time>2013-04-28T07:17:44Z</time>
      </trkpt>
      <trkpt lat="47.70417" lon="3.68024">
        <ele>239.02</ele>
        <time>2013-04-28T07:17:45Z</time>
      </trkpt>
      <trkpt lat="47.70417" lon="3.68027">
        <ele>239.02</ele>
        <time>2013-04-28T07:17:46Z</time>
      </trkpt>
      <trkpt lat="47.70418" lon="3.68029">
        <ele>239.02</ele>
        <time>2013-04-28T07:17:47Z</time>
      </trkpt>
      <trkpt lat="47.70418" lon="3.68031">
        <ele>239.51</ele>
        <time>2013-04-28T07:17:48Z</time>
      </trkpt>
      <trkpt lat="47.70419" lon="3.68033">
        <ele>239.02</ele>
        <time>2013-04-28T07:17:49Z</time>
      </trkpt>
      <trkpt lat="47.70419" lon="3.68036">
        <ele>239.51</ele>
        <time>2013-04-28T07:17:50Z</time>
      </trkpt>
      <trkpt lat="47.70424" lon="3.68054">
        <ele>239.99</ele>
        <time>2013-04-28T07:17:58Z</time>
      </trkpt>
      <trkpt lat="47.70425" lon="3.68059">
        <ele>239.99</ele>
        <time>2013-04-28T07:18:01Z</time>
      </trkpt>
      <trkpt lat="47.70426" lon="3.68062">
        <ele>239.99</ele>
        <time>2013-04-28T07:18:02Z</time>
      </trkpt>
      <trkpt lat="47.70426" lon="3.68064">
        <ele>239.99</ele>
        <time>2013-04-28T07:18:03Z</time>
      </trkpt>
      <trkpt lat="47.7043" lon="3.68082">
        <ele>239.99</ele>
        <time>2013-04-28T07:18:11Z</time>
      </trkpt>
      <trkpt lat="47.70434" lon="3.68098">
        <ele>240.47</ele>
        <time>2013-04-28T07:18:19Z</time>
      </trkpt>
      <trkpt lat="47.70441" lon="3.68116">
        <ele>241.43</ele>
        <time>2013-04-28T07:18:28Z</time>
      </trkpt>
      <trkpt lat="47.70444" lon="3.68125">
        <ele>241.43</ele>
        <time>2013-04-28T07:18:33Z</time>
      </trkpt>
      <trkpt lat="47.70445" lon="3.68127">
        <ele>241.43</ele>
        <time>2013-04-28T07:18:34Z</time>
      </trkpt>
      <trkpt lat="47.70446" lon="3.68128">
        <ele>240.95</ele>
        <time>2013-04-28T07:18:35Z</time>
      </trkpt>
      <trkpt lat="47.70452" lon="3.6814">
        <ele>241.91</ele>
        <time>2013-04-28T07:18:42Z</time>
      </trkpt>
      <trkpt lat="47.7046" lon="3.68152">
        <ele>241.91</ele>
        <time>2013-04-28T07:18:50Z</time>
      </trkpt>
      <trkpt lat="47.70465" lon="3.68164">
        <ele>243.35</ele>
        <time>2013-04-28T07:18:57Z</time>
      </trkpt>
      <trkpt lat="47.70467" lon="3.68169">
        <ele>243.35</ele>
        <time>2013-04-28T07:19:00Z</time>
      </trkpt>
      <trkpt lat="47.70468" lon="3.6817">
        <ele>243.35</ele>
        <time>2013-04-28T07:19:01Z</time>
      </trkpt>
      <trkpt lat="47.7047" lon="3.68175">
        <ele>243.83</ele>
        <time>2013-04-28T07:19:04Z</time>
      </trkpt>
      <trkpt lat="47.7047" lon="3.68177">
        <ele>243.35</ele>
        <time>2013-04-28T07:19:05Z</time>
      </trkpt>
      <trkpt lat="47.70471" lon="3.68179">
        <ele>243.35</ele>
        <time>2013-04-28T07:19:06Z</time>
      </trkpt>
      <trkpt lat="47.70472" lon="3.6818">
        <ele>243.35</ele>
        <time>2013-04-28T07:19:07Z</time>
      </trkpt>
      <trkpt lat="47.70473" lon="3.68182">
        <ele>243.83</ele>
        <time>2013-04-28T07:19:08Z</time>
      </trkpt>
      <trkpt lat="47.70474" lon="3.68184">
        <ele>243.83</ele>
        <time>2013-04-28T07:19:09Z</time>
      </trkpt>
      <trkpt lat="47.70474" lon="3.68187">
        <ele>244.31</ele>
        <time>2013-04-28T07:19:10Z</time>
      </trkpt>
      <trkpt lat="47.70475" lon="3.68189">
        <ele>244.31</ele>
        <time>2013-04-28T07:19:11Z</time>
      </trkpt>
      <trkpt lat="47.70476" lon="3.68191">
        <ele>244.31</ele>
        <time>2013-04-28T07:19:12Z</time>
      </trkpt>
      <trkpt lat="47.70477" lon="3.68192">
        <ele>243.83</ele>
        <time>2013-04-28T07:19:13Z</time>
      </trkpt>
      <trkpt lat="47.70478" lon="3.68194">
        <ele>244.31</ele>
        <time>2013-04-28T07:19:14Z</time>
      </trkpt>
      <trkpt lat="47.7048" lon="3.68195">
        <ele>244.31</ele>
        <time>2013-04-28T07:19:15Z</time>
      </trkpt>
      <trkpt lat="47.70481" lon="3.68197">
        <ele>244.31</ele>
        <time>2013-04-28T07:19:16Z</time>
      </trkpt>
      <trkpt lat="47.70482" lon="3.68199">
        <ele>244.31</ele>
        <time>2013-04-28T07:19:17Z</time>
      </trkpt>
      <trkpt lat="47.70483" lon="3.68201">
        <ele>244.79</ele>
        <time>2013-04-28T07:19:18Z</time>
      </trkpt>
      <trkpt lat="47.70483" lon="3.68203">
        <ele>244.79</ele>
        <time>2013-04-28T07:19:19Z</time>
      </trkpt>
      <trkpt lat="47.70484" lon="3.68204">
        <ele>244.79</ele>
        <time>2013-04-28T07:19:20Z</time>
      </trkpt>
      <trkpt lat="47.70485" lon="3.68206">
        <ele>244.79</ele>
        <time>2013-04-28T07:19:21Z</time>
      </trkpt>
      <trkpt lat="47.7049" lon="3.68216">
        <ele>245.27</ele>
        <time>2013-04-28T07:19:27Z</time>
      </trkpt>
      <trkpt lat="47.70492" lon="3.68218">
        <ele>245.27</ele>
        <time>2013-04-28T07:19:28Z</time>
      </trkpt>
      <trkpt lat="47.70493" lon="3.68219">
        <ele>245.27</ele>
        <time>2013-04-28T07:19:29Z</time>
      </trkpt>
      <trkpt lat="47.70494" lon="3.68221">
        <ele>245.27</ele>
        <time>2013-04-28T07:19:30Z</time>
      </trkpt>
      <trkpt lat="47.70494" lon="3.68223">
        <ele>245.27</ele>
        <time>2013-04-28T07:19:31Z</time>
      </trkpt>
      <trkpt lat="47.70495" lon="3.68225">
        <ele>245.75</ele>
        <time>2013-04-28T07:19:32Z</time>
      </trkpt>
      <trkpt lat="47.70496" lon="3.68227">
        <ele>245.75</ele>
        <time>2013-04-28T07:19:33Z</time>
      </trkpt>
      <trkpt lat="47.70497" lon="3.68228">
        <ele>245.75</ele>
        <time>2013-04-28T07:19:34Z</time>
      </trkpt>
      <trkpt lat="47.70498" lon="3.68229">
        <ele>245.75</ele>
        <time>2013-04-28T07:19:35Z</time>
      </trkpt>
      <trkpt lat="47.70507" lon="3.68242">
        <ele>246.23</ele>
        <time>2013-04-28T07:19:44Z</time>
      </trkpt>
      <trkpt lat="47.70515" lon="3.68253">
        <ele>247.68</ele>
        <time>2013-04-28T07:19:52Z</time>
      </trkpt>
      <trkpt lat="47.70524" lon="3.68264">
        <ele>248.64</ele>
        <time>2013-04-28T07:20:00Z</time>
      </trkpt>
      <trkpt lat="47.70529" lon="3.6827">
        <ele>248.64</ele>
        <time>2013-04-28T07:20:04Z</time>
      </trkpt>
      <trkpt lat="47.70531" lon="3.68272">
        <ele>248.64</ele>
        <time>2013-04-28T07:20:06Z</time>
      </trkpt>
      <trkpt lat="47.70532" lon="3.68274">
        <ele>249.12</ele>
        <time>2013-04-28T07:20:07Z</time>
      </trkpt>
      <trkpt lat="47.70533" lon="3.68276">
        <ele>249.12</ele>
        <time>2013-04-28T07:20:08Z</time>
      </trkpt>
      <trkpt lat="47.70534" lon="3.68277">
        <ele>248.64</ele>
        <time>2013-04-28T07:20:09Z</time>
      </trkpt>
      <trkpt lat="47.70536" lon="3.68279">
        <ele>249.6</ele>
        <time>2013-04-28T07:20:10Z</time>
      </trkpt>
      <trkpt lat="47.70537" lon="3.6828">
        <ele>249.12</ele>
        <time>2013-04-28T07:20:11Z</time>
      </trkpt>
      <trkpt lat="47.70538" lon="3.68281">
        <ele>249.12</ele>
        <time>2013-04-28T07:20:12Z</time>
      </trkpt>
      <trkpt lat="47.70539" lon="3.68283">
        <ele>249.6</ele>
        <time>2013-04-28T07:20:13Z</time>
      </trkpt>
      <trkpt lat="47.7054" lon="3.68285">
        <ele>250.08</ele>
        <time>2013-04-28T07:20:14Z</time>
      </trkpt>
      <trkpt lat="47.70541" lon="3.68286">
        <ele>250.08</ele>
        <time>2013-04-28T07:20:15Z</time>
      </trkpt>
      <trkpt lat="47.70546" lon="3.68294">
        <ele>250.08</ele>
        <time>2013-04-28T07:20:22Z</time>
      </trkpt>
      <trkpt lat="47.70555" lon="3.68305">
        <ele>251.52</ele>
        <time>2013-04-28T07:20:30Z</time>
      </trkpt>
      <trkpt lat="47.70562" lon="3.68317">
        <ele>252</ele>
        <time>2013-04-28T07:20:38Z</time>
      </trkpt>
      <trkpt lat="47.70572" lon="3.6833">
        <ele>252.48</ele>
        <time>2013-04-28T07:20:48Z</time>
      </trkpt>
      <trkpt lat="47.70579" lon="3.68341">
        <ele>253.44</ele>
        <time>2013-04-28T07:20:55Z</time>
      </trkpt>
      <trkpt lat="47.70585" lon="3.68349">
        <ele>253.44</ele>
        <time>2013-04-28T07:21:02Z</time>
      </trkpt>
      <trkpt lat="47.70587" lon="3.68352">
        <ele>254.41</ele>
        <time>2013-04-28T07:21:04Z</time>
      </trkpt>
      <trkpt lat="47.70594" lon="3.68361">
        <ele>254.41</ele>
        <time>2013-04-28T07:21:11Z</time>
      </trkpt>
      <trkpt lat="47.70599" lon="3.6837">
        <ele>254.41</ele>
        <time>2013-04-28T07:21:18Z</time>
      </trkpt>
      <trkpt lat="47.70606" lon="3.68381">
        <ele>255.37</ele>
        <time>2013-04-28T07:21:25Z</time>
      </trkpt>
      <trkpt lat="47.70616" lon="3.68391">
        <ele>255.85</ele>
        <time>2013-04-28T07:21:32Z</time>
      </trkpt>
      <trkpt lat="47.70626" lon="3.68404">
        <ele>255.85</ele>
        <time>2013-04-28T07:21:40Z</time>
      </trkpt>
      <trkpt lat="47.70634" lon="3.68413">
        <ele>256.33</ele>
        <time>2013-04-28T07:21:46Z</time>
      </trkpt>
      <trkpt lat="47.70638" lon="3.68421">
        <ele>256.33</ele>
        <time>2013-04-28T07:21:51Z</time>
      </trkpt>
      <trkpt lat="47.70643" lon="3.68427">
        <ele>256.33</ele>
        <time>2013-04-28T07:21:55Z</time>
      </trkpt>
      <trkpt lat="47.70646" lon="3.68432">
        <ele>256.81</ele>
        <time>2013-04-28T07:21:58Z</time>
      </trkpt>
      <trkpt lat="47.70653" lon="3.68444">
        <ele>256.33</ele>
        <time>2013-04-28T07:22:05Z</time>
      </trkpt>
      <trkpt lat="47.70662" lon="3.68455">
        <ele>257.29</ele>
        <time>2013-04-28T07:22:12Z</time>
      </trkpt>
      <trkpt lat="47.70669" lon="3.68468">
        <ele>257.77</ele>
        <time>2013-04-28T07:22:21Z</time>
      </trkpt>
      <trkpt lat="47.70676" lon="3.6848">
        <ele>258.73</ele>
        <time>2013-04-28T07:22:28Z</time>
      </trkpt>
      <trkpt lat="47.70684" lon="3.68495">
        <ele>258.25</ele>
        <time>2013-04-28T07:22:37Z</time>
      </trkpt>
      <trkpt lat="47.70693" lon="3.68509">
        <ele>258.73</ele>
        <time>2013-04-28T07:22:45Z</time>
      </trkpt>
      <trkpt lat="47.70703" lon="3.68523">
        <ele>259.69</ele>
        <time>2013-04-28T07:22:52Z</time>
      </trkpt>
      <trkpt lat="47.70712" lon="3.68539">
        <ele>259.21</ele>
        <time>2013-04-28T07:23:00Z</time>
      </trkpt>
      <trkpt lat="47.70722" lon="3.68552">
        <ele>259.21</ele>
        <time>2013-04-28T07:23:08Z</time>
      </trkpt>
      <trkpt lat="47.70731" lon="3.68567">
        <ele>260.17</ele>
        <time>2013-04-28T07:23:17Z</time>
      </trkpt>
      <trkpt lat="47.70743" lon="3.68583">
        <ele>260.17</ele>
        <time>2013-04-28T07:23:26Z</time>
      </trkpt>
      <trkpt lat="47.70745" lon="3.68586">
        <ele>260.17</ele>
        <time>2013-04-28T07:23:28Z</time>
      </trkpt>
      <trkpt lat="47.70746" lon="3.68588">
        <ele>260.17</ele>
        <time>2013-04-28T07:23:29Z</time>
      </trkpt>
      <trkpt lat="47.70747" lon="3.68589">
        <ele>260.17</ele>
        <time>2013-04-28T07:23:30Z</time>
      </trkpt>
      <trkpt lat="47.70748" lon="3.68591">
        <ele>260.17</ele>
        <time>2013-04-28T07:23:31Z</time>
      </trkpt>
      <trkpt lat="47.70749" lon="3.68593">
        <ele>260.65</ele>
        <time>2013-04-28T07:23:32Z</time>
      </trkpt>
      <trkpt lat="47.70751" lon="3.68594">
        <ele>260.65</ele>
        <time>2013-04-28T07:23:33Z</time>
      </trkpt>
      <trkpt lat="47.7076" lon="3.6861">
        <ele>261.14</ele>
        <time>2013-04-28T07:23:42Z</time>
      </trkpt>
      <trkpt lat="47.70769" lon="3.68619">
        <ele>261.62</ele>
        <time>2013-04-28T07:23:50Z</time>
      </trkpt>
      <trkpt lat="47.70775" lon="3.68631">
        <ele>262.1</ele>
        <time>2013-04-28T07:23:57Z</time>
      </trkpt>
      <trkpt lat="47.70776" lon="3.68633">
        <ele>262.1</ele>
        <time>2013-04-28T07:23:58Z</time>
      </trkpt>
      <trkpt lat="47.70777" lon="3.68634">
        <ele>262.1</ele>
        <time>2013-04-28T07:23:59Z</time>
      </trkpt>
      <trkpt lat="47.70778" lon="3.68636">
        <ele>262.58</ele>
        <time>2013-04-28T07:24:00Z</time>
      </trkpt>
      <trkpt lat="47.70784" lon="3.68646">
        <ele>262.1</ele>
        <time>2013-04-28T07:24:06Z</time>
      </trkpt>
      <trkpt lat="47.70787" lon="3.68666">
        <ele>262.58</ele>
        <time>2013-04-28T07:24:15Z</time>
      </trkpt>
      <trkpt lat="47.70781" lon="3.68687">
        <ele>261.62</ele>
        <time>2013-04-28T07:24:25Z</time>
      </trkpt>
      <trkpt lat="47.7077" lon="3.68704">
        <ele>260.65</ele>
        <time>2013-04-28T07:24:36Z</time>
      </trkpt>
      <trkpt lat="47.70758" lon="3.68707">
        <ele>259.69</ele>
        <time>2013-04-28T07:24:44Z</time>
      </trkpt>
      <trkpt lat="47.70748" lon="3.68713">
        <ele>259.21</ele>
        <time>2013-04-28T07:24:52Z</time>
      </trkpt>
      <trkpt lat="47.70733" lon="3.68722">
        <ele>257.77</ele>
        <time>2013-04-28T07:25:02Z</time>
      </trkpt>
      <trkpt lat="47.70718" lon="3.68731">
        <ele>256.33</ele>
        <time>2013-04-28T07:25:13Z</time>
      </trkpt>
      <trkpt lat="47.70703" lon="3.68735">
        <ele>254.89</ele>
        <time>2013-04-28T07:25:23Z</time>
      </trkpt>
      <trkpt lat="47.707" lon="3.68735">
        <ele>254.41</ele>
        <time>2013-04-28T07:25:25Z</time>
      </trkpt>
      <trkpt lat="47.70698" lon="3.68735">
        <ele>254.41</ele>
        <time>2013-04-28T07:25:26Z</time>
      </trkpt>
      <trkpt lat="47.70686" lon="3.68735">
        <ele>253.44</ele>
        <time>2013-04-28T07:25:35Z</time>
      </trkpt>
      <trkpt lat="47.70673" lon="3.68735">
        <ele>252.96</ele>
        <time>2013-04-28T07:25:45Z</time>
      </trkpt>
      <trkpt lat="47.70662" lon="3.68735">
        <ele>252</ele>
        <time>2013-04-28T07:25:52Z</time>
      </trkpt>
      <trkpt lat="47.70661" lon="3.68735">
        <ele>252</ele>
        <time>2013-04-28T07:25:53Z</time>
      </trkpt>
      <trkpt lat="47.70659" lon="3.68735">
        <ele>252</ele>
        <time>2013-04-28T07:25:54Z</time>
      </trkpt>
      <trkpt lat="47.70657" lon="3.68735">
        <ele>252</ele>
        <time>2013-04-28T07:25:55Z</time>
      </trkpt>
      <trkpt lat="47.70656" lon="3.68736">
        <ele>251.52</ele>
        <time>2013-04-28T07:25:56Z</time>
      </trkpt>
      <trkpt lat="47.70654" lon="3.68736">
        <ele>251.52</ele>
        <time>2013-04-28T07:25:57Z</time>
      </trkpt>
      <trkpt lat="47.70653" lon="3.68736">
        <ele>252</ele>
        <time>2013-04-28T07:25:58Z</time>
      </trkpt>
      <trkpt lat="47.70643" lon="3.68736">
        <ele>251.04</ele>
        <time>2013-04-28T07:26:04Z</time>
      </trkpt>
      <trkpt lat="47.70642" lon="3.68736">
        <ele>250.56</ele>
        <time>2013-04-28T07:26:05Z</time>
      </trkpt>
      <trkpt lat="47.7064" lon="3.68736">
        <ele>251.04</ele>
        <time>2013-04-28T07:26:06Z</time>
      </trkpt>
      <trkpt lat="47.70627" lon="3.68735">
        <ele>250.08</ele>
        <time>2013-04-28T07:26:15Z</time>
      </trkpt>
      <trkpt lat="47.70611" lon="3.68735">
        <ele>249.6</ele>
        <time>2013-04-28T07:26:25Z</time>
      </trkpt>
      <trkpt lat="47.70609" lon="3.68735">
        <ele>249.12</ele>
        <time>2013-04-28T07:26:26Z</time>
      </trkpt>
      <trkpt lat="47.70593" lon="3.68736">
        <ele>248.64</ele>
        <time>2013-04-28T07:26:37Z</time>
      </trkpt>
      <trkpt lat="47.70582" lon="3.68734">
        <ele>248.16</ele>
        <time>2013-04-28T07:26:45Z</time>
      </trkpt>
      <trkpt lat="47.70573" lon="3.68734">
        <ele>247.2</ele>
        <time>2013-04-28T07:26:51Z</time>
      </trkpt>
      <trkpt lat="47.70567" lon="3.68734">
        <ele>246.72</ele>
        <time>2013-04-28T07:26:55Z</time>
      </trkpt>
      <trkpt lat="47.70566" lon="3.68734">
        <ele>247.2</ele>
        <time>2013-04-28T07:26:56Z</time>
      </trkpt>
      <trkpt lat="47.70564" lon="3.68734">
        <ele>247.2</ele>
        <time>2013-04-28T07:26:57Z</time>
      </trkpt>
      <trkpt lat="47.70562" lon="3.68733">
        <ele>246.72</ele>
        <time>2013-04-28T07:26:58Z</time>
      </trkpt>
      <trkpt lat="47.70561" lon="3.68733">
        <ele>247.2</ele>
        <time>2013-04-28T07:26:59Z</time>
      </trkpt>
      <trkpt lat="47.70559" lon="3.68733">
        <ele>246.72</ele>
        <time>2013-04-28T07:27:00Z</time>
      </trkpt>
      <trkpt lat="47.70544" lon="3.68729">
        <ele>246.23</ele>
        <time>2013-04-28T07:27:10Z</time>
      </trkpt>
      <trkpt lat="47.70533" lon="3.68727">
        <ele>245.75</ele>
        <time>2013-04-28T07:27:18Z</time>
      </trkpt>
      <trkpt lat="47.70528" lon="3.68727">
        <ele>245.27</ele>
        <time>2013-04-28T07:27:21Z</time>
      </trkpt>
      <trkpt lat="47.70513" lon="3.68726">
        <ele>244.79</ele>
        <time>2013-04-28T07:27:30Z</time>
      </trkpt>
      <trkpt lat="47.70507" lon="3.68724">
        <ele>244.31</ele>
        <time>2013-04-28T07:27:34Z</time>
      </trkpt>
      <trkpt lat="47.70494" lon="3.68723">
        <ele>243.83</ele>
        <time>2013-04-28T07:27:42Z</time>
      </trkpt>
      <trkpt lat="47.70483" lon="3.68722">
        <ele>243.35</ele>
        <time>2013-04-28T07:27:50Z</time>
      </trkpt>
      <trkpt lat="47.70469" lon="3.68726">
        <ele>241.91</ele>
        <time>2013-04-28T07:27:59Z</time>
      </trkpt>
      <trkpt lat="47.70467" lon="3.68725">
        <ele>241.91</ele>
        <time>2013-04-28T07:28:00Z</time>
      </trkpt>
      <trkpt lat="47.70465" lon="3.68725">
        <ele>241.43</ele>
        <time>2013-04-28T07:28:01Z</time>
      </trkpt>
      <trkpt lat="47.70455" lon="3.68725">
        <ele>240.47</ele>
        <time>2013-04-28T07:28:08Z</time>
      </trkpt>
      <trkpt lat="47.70442" lon="3.68727">
        <ele>239.99</ele>
        <time>2013-04-28T07:28:16Z</time>
      </trkpt>
      <trkpt lat="47.70433" lon="3.68727">
        <ele>238.06</ele>
        <time>2013-04-28T07:28:22Z</time>
      </trkpt>
      <trkpt lat="47.70414" lon="3.68722">
        <ele>238.06</ele>
        <time>2013-04-28T07:28:33Z</time>
      </trkpt>
      <trkpt lat="47.70395" lon="3.68723">
        <ele>237.1</ele>
        <time>2013-04-28T07:28:45Z</time>
      </trkpt>
      <trkpt lat="47.70379" lon="3.68723">
        <ele>236.14</ele>
        <time>2013-04-28T07:28:55Z</time>
      </trkpt>
      <trkpt lat="47.70364" lon="3.68721">
        <ele>235.18</ele>
        <time>2013-04-28T07:29:06Z</time>
      </trkpt>
      <trkpt lat="47.70352" lon="3.68721">
        <ele>234.7</ele>
        <time>2013-04-28T07:29:14Z</time>
      </trkpt>
      <trkpt lat="47.70334" lon="3.68718">
        <ele>233.74</ele>
        <time>2013-04-28T07:29:25Z</time>
      </trkpt>
      <trkpt lat="47.70315" lon="3.68717">
        <ele>232.78</ele>
        <time>2013-04-28T07:29:36Z</time>
      </trkpt>
      <trkpt lat="47.70298" lon="3.68711">
        <ele>231.33</ele>
        <time>2013-04-28T07:29:46Z</time>
      </trkpt>
      <trkpt lat="47.70286" lon="3.68708">
        <ele>231.33</ele>
        <time>2013-04-28T07:29:55Z</time>
      </trkpt>
      <trkpt lat="47.70273" lon="3.6871">
        <ele>230.37</ele>
        <time>2013-04-28T07:30:04Z</time>
      </trkpt>
      <trkpt lat="47.70255" lon="3.68706">
        <ele>229.89</ele>
        <time>2013-04-28T07:30:15Z</time>
      </trkpt>
      <trkpt lat="47.70246" lon="3.68704">
        <ele>229.41</ele>
        <time>2013-04-28T07:30:22Z</time>
      </trkpt>
      <trkpt lat="47.70244" lon="3.68705">
        <ele>229.41</ele>
        <time>2013-04-28T07:30:23Z</time>
      </trkpt>
      <trkpt lat="47.70243" lon="3.68705">
        <ele>228.93</ele>
        <time>2013-04-28T07:30:24Z</time>
      </trkpt>
      <trkpt lat="47.70233" lon="3.68705">
        <ele>227.97</ele>
        <time>2013-04-28T07:30:30Z</time>
      </trkpt>
      <trkpt lat="47.7022" lon="3.68701">
        <ele>227.01</ele>
        <time>2013-04-28T07:30:38Z</time>
      </trkpt>
      <trkpt lat="47.70206" lon="3.68697">
        <ele>226.53</ele>
        <time>2013-04-28T07:30:47Z</time>
      </trkpt>
      <trkpt lat="47.70201" lon="3.68699">
        <ele>225.57</ele>
        <time>2013-04-28T07:30:54Z</time>
      </trkpt>
      <trkpt lat="47.702" lon="3.68698">
        <ele>226.53</ele>
        <time>2013-04-28T07:31:19Z</time>
      </trkpt>
      <trkpt lat="47.70196" lon="3.68693">
        <ele>225.57</ele>
        <time>2013-04-28T07:31:27Z</time>
      </trkpt>
      <trkpt lat="47.70195" lon="3.68691">
        <ele>226.05</ele>
        <time>2013-04-28T07:31:28Z</time>
      </trkpt>
      <trkpt lat="47.70194" lon="3.68688">
        <ele>226.05</ele>
        <time>2013-04-28T07:31:29Z</time>
      </trkpt>
      <trkpt lat="47.70191" lon="3.68685">
        <ele>225.57</ele>
        <time>2013-04-28T07:31:31Z</time>
      </trkpt>
      <trkpt lat="47.70189" lon="3.68685">
        <ele>225.09</ele>
        <time>2013-04-28T07:31:32Z</time>
      </trkpt>
      <trkpt lat="47.70177" lon="3.68682">
        <ele>224.61</ele>
        <time>2013-04-28T07:31:40Z</time>
      </trkpt>
      <trkpt lat="47.70166" lon="3.68681">
        <ele>224.12</ele>
        <time>2013-04-28T07:31:47Z</time>
      </trkpt>
      <trkpt lat="47.70152" lon="3.68684">
        <ele>223.64</ele>
        <time>2013-04-28T07:31:56Z</time>
      </trkpt>
      <trkpt lat="47.70139" lon="3.68687">
        <ele>223.16</ele>
        <time>2013-04-28T07:32:05Z</time>
      </trkpt>
      <trkpt lat="47.70127" lon="3.68691">
        <ele>223.16</ele>
        <time>2013-04-28T07:32:14Z</time>
      </trkpt>
      <trkpt lat="47.70112" lon="3.68694">
        <ele>221.72</ele>
        <time>2013-04-28T07:32:23Z</time>
      </trkpt>
      <trkpt lat="47.70095" lon="3.68699">
        <ele>221.24</ele>
        <time>2013-04-28T07:32:34Z</time>
      </trkpt>
      <trkpt lat="47.7008" lon="3.68708">
        <ele>220.76</ele>
        <time>2013-04-28T07:32:44Z</time>
      </trkpt>
      <trkpt lat="47.70063" lon="3.68716">
        <ele>219.32</ele>
        <time>2013-04-28T07:32:55Z</time>
      </trkpt>
      <trkpt lat="47.70045" lon="3.68726">
        <ele>218.36</ele>
        <time>2013-04-28T07:33:07Z</time>
      </trkpt>
      <trkpt lat="47.70031" lon="3.68734">
        <ele>216.91</ele>
        <time>2013-04-28T07:33:17Z</time>
      </trkpt>
      <trkpt lat="47.70013" lon="3.68746">
        <ele>215.47</ele>
        <time>2013-04-28T07:33:29Z</time>
      </trkpt>
      <trkpt lat="47.7" lon="3.68753">
        <ele>214.51</ele>
        <time>2013-04-28T07:33:38Z</time>
      </trkpt>
      <trkpt lat="47.69985" lon="3.6876">
        <ele>213.55</ele>
        <time>2013-04-28T07:33:48Z</time>
      </trkpt>
      <trkpt lat="47.69972" lon="3.68769">
        <ele>213.07</ele>
        <time>2013-04-28T07:33:57Z</time>
      </trkpt>
      <trkpt lat="47.69958" lon="3.68778">
        <ele>210.19</ele>
        <time>2013-04-28T07:34:07Z</time>
      </trkpt>
      <trkpt lat="47.69943" lon="3.68787">
        <ele>209.7</ele>
        <time>2013-04-28T07:34:17Z</time>
      </trkpt>
      <trkpt lat="47.69932" lon="3.68797">
        <ele>208.26</ele>
        <time>2013-04-28T07:34:26Z</time>
      </trkpt>
      <trkpt lat="47.69921" lon="3.68809">
        <ele>205.86</ele>
        <time>2013-04-28T07:34:36Z</time>
      </trkpt>
      <trkpt lat="47.69909" lon="3.68819">
        <ele>204.9</ele>
        <time>2013-04-28T07:34:45Z</time>
      </trkpt>
      <trkpt lat="47.69899" lon="3.68831">
        <ele>203.46</ele>
        <time>2013-04-28T07:34:54Z</time>
      </trkpt>
      <trkpt lat="47.6989" lon="3.6884">
        <ele>202.01</ele>
        <time>2013-04-28T07:35:02Z</time>
      </trkpt>
      <trkpt lat="47.69878" lon="3.68853">
        <ele>200.57</ele>
        <time>2013-04-28T07:35:11Z</time>
      </trkpt>
      <trkpt lat="47.69866" lon="3.68865">
        <ele>198.65</ele>
        <time>2013-04-28T07:35:21Z</time>
      </trkpt>
      <trkpt lat="47.69854" lon="3.68877">
        <ele>196.73</ele>
        <time>2013-04-28T07:35:31Z</time>
      </trkpt>
      <trkpt lat="47.69842" lon="3.68889">
        <ele>195.28</ele>
        <time>2013-04-28T07:35:40Z</time>
      </trkpt>
      <trkpt lat="47.69832" lon="3.68897">
        <ele>194.32</ele>
        <time>2013-04-28T07:35:48Z</time>
      </trkpt>
      <trkpt lat="47.69819" lon="3.68905">
        <ele>192.4</ele>
        <time>2013-04-28T07:35:57Z</time>
      </trkpt>
      <trkpt lat="47.69805" lon="3.68915">
        <ele>190</ele>
        <time>2013-04-28T07:36:08Z</time>
      </trkpt>
      <trkpt lat="47.69791" lon="3.68924">
        <ele>187.59</ele>
        <time>2013-04-28T07:36:18Z</time>
      </trkpt>
      <trkpt lat="47.69777" lon="3.68935">
        <ele>185.19</ele>
        <time>2013-04-28T07:36:29Z</time>
      </trkpt>
      <trkpt lat="47.69765" lon="3.68944">
        <ele>184.23</ele>
        <time>2013-04-28T07:36:38Z</time>
      </trkpt>
      <trkpt lat="47.69751" lon="3.68955">
        <ele>181.35</ele>
        <time>2013-04-28T07:36:48Z</time>
      </trkpt>
      <trkpt lat="47.69738" lon="3.6897">
        <ele>179.42</ele>
        <time>2013-04-28T07:36:58Z</time>
      </trkpt>
      <trkpt lat="47.69729" lon="3.68982">
        <ele>177.98</ele>
        <time>2013-04-28T07:37:06Z</time>
      </trkpt>
      <trkpt lat="47.69719" lon="3.68994">
        <ele>176.54</ele>
        <time>2013-04-28T07:37:14Z</time>
      </trkpt>
      <trkpt lat="47.69709" lon="3.69008">
        <ele>175.1</ele>
        <time>2013-04-28T07:37:23Z</time>
      </trkpt>
      <trkpt lat="47.69699" lon="3.69021">
        <ele>174.14</ele>
        <time>2013-04-28T07:37:32Z</time>
      </trkpt>
      <trkpt lat="47.69688" lon="3.69034">
        <ele>172.21</ele>
        <time>2013-04-28T07:37:42Z</time>
      </trkpt>
      <trkpt lat="47.69678" lon="3.69042">
        <ele>171.73</ele>
        <time>2013-04-28T07:37:50Z</time>
      </trkpt>
      <trkpt lat="47.69664" lon="3.69049">
        <ele>170.29</ele>
        <time>2013-04-28T07:37:59Z</time>
      </trkpt>
      <trkpt lat="47.69647" lon="3.69053">
        <ele>168.85</ele>
        <time>2013-04-28T07:38:10Z</time>
      </trkpt>
      <trkpt lat="47.69635" lon="3.6905">
        <ele>167.41</ele>
        <time>2013-04-28T07:38:19Z</time>
      </trkpt>
      <trkpt lat="47.69626" lon="3.69046">
        <ele>166.45</ele>
        <time>2013-04-28T07:38:26Z</time>
      </trkpt>
      <trkpt lat="47.69615" lon="3.69041">
        <ele>165.48</ele>
        <time>2013-04-28T07:38:35Z</time>
      </trkpt>
      <trkpt lat="47.69605" lon="3.69036">
        <ele>165</ele>
        <time>2013-04-28T07:38:43Z</time>
      </trkpt>
      <trkpt lat="47.69602" lon="3.69035">
        <ele>165</ele>
        <time>2013-04-28T07:38:45Z</time>
      </trkpt>
      <trkpt lat="47.69591" lon="3.69028">
        <ele>164.52</ele>
        <time>2013-04-28T07:38:53Z</time>
      </trkpt>
      <trkpt lat="47.69581" lon="3.69023">
        <ele>163.56</ele>
        <time>2013-04-28T07:39:00Z</time>
      </trkpt>
      <trkpt lat="47.6958" lon="3.69022">
        <ele>164.04</ele>
        <time>2013-04-28T07:39:01Z</time>
      </trkpt>
      <trkpt lat="47.69578" lon="3.69022">
        <ele>163.56</ele>
        <time>2013-04-28T07:39:02Z</time>
      </trkpt>
      <trkpt lat="47.69568" lon="3.69016">
        <ele>163.08</ele>
        <time>2013-04-28T07:39:10Z</time>
      </trkpt>
      <trkpt lat="47.69558" lon="3.69011">
        <ele>162.12</ele>
        <time>2013-04-28T07:39:17Z</time>
      </trkpt>
      <trkpt lat="47.69545" lon="3.69002">
        <ele>161.64</ele>
        <time>2013-04-28T07:39:26Z</time>
      </trkpt>
      <trkpt lat="47.69531" lon="3.68997">
        <ele>160.2</ele>
        <time>2013-04-28T07:39:35Z</time>
      </trkpt>
      <trkpt lat="47.69518" lon="3.68992">
        <ele>158.75</ele>
        <time>2013-04-28T07:39:44Z</time>
      </trkpt>
      <trkpt lat="47.69507" lon="3.68989">
        <ele>157.79</ele>
        <time>2013-04-28T07:39:51Z</time>
      </trkpt>
      <trkpt lat="47.69495" lon="3.68988">
        <ele>157.31</ele>
        <time>2013-04-28T07:39:59Z</time>
      </trkpt>
      <trkpt lat="47.69491" lon="3.68986">
        <ele>156.35</ele>
        <time>2013-04-28T07:40:02Z</time>
      </trkpt>
      <trkpt lat="47.69483" lon="3.68985">
        <ele>156.35</ele>
        <time>2013-04-28T07:40:07Z</time>
      </trkpt>
      <trkpt lat="47.69482" lon="3.68985">
        <ele>155.87</ele>
        <time>2013-04-28T07:40:08Z</time>
      </trkpt>
      <trkpt lat="47.6948" lon="3.68985">
        <ele>155.87</ele>
        <time>2013-04-28T07:40:09Z</time>
      </trkpt>
      <trkpt lat="47.69466" lon="3.68985">
        <ele>154.91</ele>
        <time>2013-04-28T07:40:18Z</time>
      </trkpt>
      <trkpt lat="47.69464" lon="3.68985">
        <ele>154.43</ele>
        <time>2013-04-28T07:40:19Z</time>
      </trkpt>
      <trkpt lat="47.69452" lon="3.68983">
        <ele>153.95</ele>
        <time>2013-04-28T07:40:28Z</time>
      </trkpt>
      <trkpt lat="47.69439" lon="3.68984">
        <ele>153.47</ele>
        <time>2013-04-28T07:40:37Z</time>
      </trkpt>
      <trkpt lat="47.6942" lon="3.6898">
        <ele>152.03</ele>
        <time>2013-04-28T07:40:48Z</time>
      </trkpt>
      <trkpt lat="47.69411" lon="3.68979">
        <ele>152.51</ele>
        <time>2013-04-28T07:40:54Z</time>
      </trkpt>
      <trkpt lat="47.69399" lon="3.68979">
        <ele>151.54</ele>
        <time>2013-04-28T07:41:02Z</time>
      </trkpt>
      <trkpt lat="47.69384" lon="3.68977">
        <ele>150.1</ele>
        <time>2013-04-28T07:41:11Z</time>
      </trkpt>
      <trkpt lat="47.6937" lon="3.68978">
        <ele>149.62</ele>
        <time>2013-04-28T07:41:20Z</time>
      </trkpt>
      <trkpt lat="47.69353" lon="3.68981">
        <ele>149.14</ele>
        <time>2013-04-28T07:41:30Z</time>
      </trkpt>
      <trkpt lat="47.6934" lon="3.68984">
        <ele>148.18</ele>
        <time>2013-04-28T07:41:39Z</time>
      </trkpt>
      <trkpt lat="47.69329" lon="3.6899">
        <ele>147.7</ele>
        <time>2013-04-28T07:41:47Z</time>
      </trkpt>
      <trkpt lat="47.69317" lon="3.68995">
        <ele>147.22</ele>
        <time>2013-04-28T07:41:56Z</time>
      </trkpt>
      <trkpt lat="47.69313" lon="3.68995">
        <ele>146.74</ele>
        <time>2013-04-28T07:41:58Z</time>
      </trkpt>
      <trkpt lat="47.69312" lon="3.68996">
        <ele>147.22</ele>
        <time>2013-04-28T07:41:59Z</time>
      </trkpt>
      <trkpt lat="47.6931" lon="3.68997">
        <ele>146.26</ele>
        <time>2013-04-28T07:42:00Z</time>
      </trkpt>
      <trkpt lat="47.69309" lon="3.68997">
        <ele>145.78</ele>
        <time>2013-04-28T07:42:01Z</time>
      </trkpt>
      <trkpt lat="47.69307" lon="3.68998">
        <ele>146.26</ele>
        <time>2013-04-28T07:42:02Z</time>
      </trkpt>
      <trkpt lat="47.69305" lon="3.68998">
        <ele>146.26</ele>
        <time>2013-04-28T07:42:03Z</time>
      </trkpt>
      <trkpt lat="47.69304" lon="3.68998">
        <ele>146.26</ele>
        <time>2013-04-28T07:42:04Z</time>
      </trkpt>
      <trkpt lat="47.69302" lon="3.68998">
        <ele>146.26</ele>
        <time>2013-04-28T07:42:05Z</time>
      </trkpt>
      <trkpt lat="47.693" lon="3.68999">
        <ele>146.26</ele>
        <time>2013-04-28T07:42:06Z</time>
      </trkpt>
      <trkpt lat="47.69299" lon="3.68999">
        <ele>145.78</ele>
        <time>2013-04-28T07:42:07Z</time>
      </trkpt>
      <trkpt lat="47.69297" lon="3.68999">
        <ele>145.78</ele>
        <time>2013-04-28T07:42:08Z</time>
      </trkpt>
      <trkpt lat="47.69295" lon="3.68999">
        <ele>145.78</ele>
        <time>2013-04-28T07:42:09Z</time>
      </trkpt>
      <trkpt lat="47.69294" lon="3.69">
        <ele>146.26</ele>
        <time>2013-04-28T07:42:10Z</time>
      </trkpt>
      <trkpt lat="47.69293" lon="3.69">
        <ele>146.26</ele>
        <time>2013-04-28T07:42:11Z</time>
      </trkpt>
      <trkpt lat="47.69291" lon="3.69">
        <ele>145.78</ele>
        <time>2013-04-28T07:42:12Z</time>
      </trkpt>
      <trkpt lat="47.69289" lon="3.69">
        <ele>145.78</ele>
        <time>2013-04-28T07:42:13Z</time>
      </trkpt>
      <trkpt lat="47.69288" lon="3.69">
        <ele>145.78</ele>
        <time>2013-04-28T07:42:14Z</time>
      </trkpt>
      <trkpt lat="47.69286" lon="3.68999">
        <ele>145.3</ele>
        <time>2013-04-28T07:42:15Z</time>
      </trkpt>
      <trkpt lat="47.69285" lon="3.69">
        <ele>145.3</ele>
        <time>2013-04-28T07:42:16Z</time>
      </trkpt>
      <trkpt lat="47.69279" lon="3.69002">
        <ele>145.3</ele>
        <time>2013-04-28T07:42:21Z</time>
      </trkpt>
      <trkpt lat="47.69277" lon="3.69002">
        <ele>144.34</ele>
        <time>2013-04-28T07:42:22Z</time>
      </trkpt>
      <trkpt lat="47.69276" lon="3.69003">
        <ele>144.82</ele>
        <time>2013-04-28T07:42:23Z</time>
      </trkpt>
      <trkpt lat="47.69264" lon="3.69008">
        <ele>144.34</ele>
        <time>2013-04-28T07:42:33Z</time>
      </trkpt>
      <trkpt lat="47.69252" lon="3.69009">
        <ele>143.85</ele>
        <time>2013-04-28T07:42:41Z</time>
      </trkpt>
      <trkpt lat="47.69241" lon="3.69016">
        <ele>142.89</ele>
        <time>2013-04-28T07:42:50Z</time>
      </trkpt>
      <trkpt lat="47.69229" lon="3.69017">
        <ele>142.41</ele>
        <time>2013-04-28T07:42:59Z</time>
      </trkpt>
      <trkpt lat="47.69219" lon="3.69022">
        <ele>142.41</ele>
        <time>2013-04-28T07:43:08Z</time>
      </trkpt>
      <trkpt lat="47.69205" lon="3.69026">
        <ele>141.93</ele>
        <time>2013-04-28T07:43:17Z</time>
      </trkpt>
      <trkpt lat="47.692" lon="3.69028">
        <ele>141.45</ele>
        <time>2013-04-28T07:43:21Z</time>
      </trkpt>
      <trkpt lat="47.69187" lon="3.69031">
        <ele>140.97</ele>
        <time>2013-04-28T07:43:31Z</time>
      </trkpt>
      <trkpt lat="47.69174" lon="3.69031">
        <ele>140.49</ele>
        <time>2013-04-28T07:43:39Z</time>
      </trkpt>
      <trkpt lat="47.69159" lon="3.69031">
        <ele>140.01</ele>
        <time>2013-04-28T07:43:49Z</time>
      </trkpt>
      <trkpt lat="47.69148" lon="3.69027">
        <ele>140.01</ele>
        <time>2013-04-28T07:43:56Z</time>
      </trkpt>
      <trkpt lat="47.69147" lon="3.69027">
        <ele>139.53</ele>
        <time>2013-04-28T07:43:57Z</time>
      </trkpt>
      <trkpt lat="47.69128" lon="3.69023">
        <ele>140.01</ele>
        <time>2013-04-28T07:44:06Z</time>
      </trkpt>
      <trkpt lat="47.69115" lon="3.69022">
        <ele>139.05</ele>
        <time>2013-04-28T07:44:13Z</time>
      </trkpt>
      <trkpt lat="47.69098" lon="3.69022">
        <ele>138.57</ele>
        <time>2013-04-28T07:44:24Z</time>
      </trkpt>
      <trkpt lat="47.69087" lon="3.6902">
        <ele>138.09</ele>
        <time>2013-04-28T07:44:32Z</time>
      </trkpt>
      <trkpt lat="47.69074" lon="3.69021">
        <ele>137.61</ele>
        <time>2013-04-28T07:44:42Z</time>
      </trkpt>
      <trkpt lat="47.69069" lon="3.69021">
        <ele>137.61</ele>
        <time>2013-04-28T07:44:45Z</time>
      </trkpt>
      <trkpt lat="47.69068" lon="3.69021">
        <ele>138.09</ele>
        <time>2013-04-28T07:44:46Z</time>
      </trkpt>
      <trkpt lat="47.69066" lon="3.6902">
        <ele>137.61</ele>
        <time>2013-04-28T07:44:47Z</time>
      </trkpt>
      <trkpt lat="47.69052" lon="3.69016">
        <ele>137.13</ele>
        <time>2013-04-28T07:44:55Z</time>
      </trkpt>
      <trkpt lat="47.69034" lon="3.69011">
        <ele>136.64</ele>
        <time>2013-04-28T07:45:04Z</time>
      </trkpt>
      <trkpt lat="47.69021" lon="3.69007">
        <ele>136.16</ele>
        <time>2013-04-28T07:45:12Z</time>
      </trkpt>
      <trkpt lat="47.6901" lon="3.69002">
        <ele>135.68</ele>
        <time>2013-04-28T07:45:19Z</time>
      </trkpt>
      <trkpt lat="47.69008" lon="3.69002">
        <ele>136.16</ele>
        <time>2013-04-28T07:45:20Z</time>
      </trkpt>
      <trkpt lat="47.69007" lon="3.69002">
        <ele>136.16</ele>
        <time>2013-04-28T07:45:21Z</time>
      </trkpt>
      <trkpt lat="47.69004" lon="3.69002">
        <ele>135.68</ele>
        <time>2013-04-28T07:45:23Z</time>
      </trkpt>
      <trkpt lat="47.69003" lon="3.69001">
        <ele>136.16</ele>
        <time>2013-04-28T07:45:24Z</time>
      </trkpt>
      <trkpt lat="47.69001" lon="3.69">
        <ele>135.68</ele>
        <time>2013-04-28T07:45:25Z</time>
      </trkpt>
      <trkpt lat="47.6899" lon="3.68998">
        <ele>135.68</ele>
        <time>2013-04-28T07:45:33Z</time>
      </trkpt>
      <trkpt lat="47.68979" lon="3.68996">
        <ele>134.72</ele>
        <time>2013-04-28T07:45:41Z</time>
      </trkpt>
      <trkpt lat="47.68968" lon="3.68994">
        <ele>135.2</ele>
        <time>2013-04-28T07:45:49Z</time>
      </trkpt>
      <trkpt lat="47.68955" lon="3.6899">
        <ele>134.24</ele>
        <time>2013-04-28T07:45:58Z</time>
      </trkpt>
      <trkpt lat="47.68942" lon="3.68986">
        <ele>134.24</ele>
        <time>2013-04-28T07:46:06Z</time>
      </trkpt>
      <trkpt lat="47.68927" lon="3.6898">
        <ele>133.76</ele>
        <time>2013-04-28T07:46:16Z</time>
      </trkpt>
      <trkpt lat="47.68914" lon="3.68982">
        <ele>133.76</ele>
        <time>2013-04-28T07:46:25Z</time>
      </trkpt>
      <trkpt lat="47.68898" lon="3.68978">
        <ele>133.76</ele>
        <time>2013-04-28T07:46:36Z</time>
      </trkpt>
      <trkpt lat="47.68896" lon="3.68978">
        <ele>133.28</ele>
        <time>2013-04-28T07:46:38Z</time>
      </trkpt>
      <trkpt lat="47.68895" lon="3.68979">
        <ele>132.32</ele>
        <time>2013-04-28T07:46:39Z</time>
      </trkpt>
      <trkpt lat="47.68893" lon="3.6898">
        <ele>132.8</ele>
        <time>2013-04-28T07:46:40Z</time>
      </trkpt>
      <trkpt lat="47.68892" lon="3.6898">
        <ele>132.8</ele>
        <time>2013-04-28T07:46:41Z</time>
      </trkpt>
      <trkpt lat="47.68891" lon="3.6898">
        <ele>132.8</ele>
        <time>2013-04-28T07:46:42Z</time>
      </trkpt>
      <trkpt lat="47.68882" lon="3.6898">
        <ele>132.32</ele>
        <time>2013-04-28T07:46:49Z</time>
      </trkpt>
      <trkpt lat="47.68881" lon="3.6898">
        <ele>132.8</ele>
        <time>2013-04-28T07:46:50Z</time>
      </trkpt>
      <trkpt lat="47.6887" lon="3.68981">
        <ele>132.32</ele>
        <time>2013-04-28T07:46:58Z</time>
      </trkpt>
      <trkpt lat="47.68858" lon="3.68982">
        <ele>132.32</ele>
        <time>2013-04-28T07:47:07Z</time>
      </trkpt>
      <trkpt lat="47.68843" lon="3.68982">
        <ele>131.36</ele>
        <time>2013-04-28T07:47:16Z</time>
      </trkpt>
      <trkpt lat="47.68827" lon="3.68982">
        <ele>130.4</ele>
        <time>2013-04-28T07:47:26Z</time>
      </trkpt>
      <trkpt lat="47.68811" lon="3.68983">
        <ele>130.4</ele>
        <time>2013-04-28T07:47:35Z</time>
      </trkpt>
      <trkpt lat="47.68799" lon="3.68987">
        <ele>130.4</ele>
        <time>2013-04-28T07:47:43Z</time>
      </trkpt>
      <trkpt lat="47.68798" lon="3.68989">
        <ele>129.92</ele>
        <time>2013-04-28T07:47:44Z</time>
      </trkpt>
      <trkpt lat="47.68797" lon="3.6899">
        <ele>129.92</ele>
        <time>2013-04-28T07:47:45Z</time>
      </trkpt>
      <trkpt lat="47.68795" lon="3.68991">
        <ele>129.43</ele>
        <time>2013-04-28T07:47:46Z</time>
      </trkpt>
      <trkpt lat="47.68794" lon="3.68992">
        <ele>129.43</ele>
        <time>2013-04-28T07:47:47Z</time>
      </trkpt>
      <trkpt lat="47.68778" lon="3.68999">
        <ele>129.43</ele>
        <time>2013-04-28T07:47:57Z</time>
      </trkpt>
      <trkpt lat="47.68764" lon="3.69009">
        <ele>129.43</ele>
        <time>2013-04-28T07:48:07Z</time>
      </trkpt>
      <trkpt lat="47.68751" lon="3.69016">
        <ele>128.95</ele>
        <time>2013-04-28T07:48:16Z</time>
      </trkpt>
      <trkpt lat="47.6874" lon="3.69024">
        <ele>128.95</ele>
        <time>2013-04-28T07:48:24Z</time>
      </trkpt>
      <trkpt lat="47.68727" lon="3.69031">
        <ele>128.47</ele>
        <time>2013-04-28T07:48:33Z</time>
      </trkpt>
      <trkpt lat="47.68716" lon="3.69035">
        <ele>127.51</ele>
        <time>2013-04-28T07:48:41Z</time>
      </trkpt>
      <trkpt lat="47.6871" lon="3.69038">
        <ele>127.51</ele>
        <time>2013-04-28T07:48:45Z</time>
      </trkpt>
      <trkpt lat="47.68708" lon="3.69039">
        <ele>127.51</ele>
        <time>2013-04-28T07:48:46Z</time>
      </trkpt>
      <trkpt lat="47.687" lon="3.69042">
        <ele>127.51</ele>
        <time>2013-04-28T07:48:52Z</time>
      </trkpt>
      <trkpt lat="47.68699" lon="3.69042">
        <ele>127.03</ele>
        <time>2013-04-28T07:48:53Z</time>
      </trkpt>
      <trkpt lat="47.68697" lon="3.69042">
        <ele>127.51</ele>
        <time>2013-04-28T07:48:54Z</time>
      </trkpt>
      <trkpt lat="47.68696" lon="3.69043">
        <ele>127.03</ele>
        <time>2013-04-28T07:48:55Z</time>
      </trkpt>
      <trkpt lat="47.68694" lon="3.69043">
        <ele>127.51</ele>
        <time>2013-04-28T07:48:56Z</time>
      </trkpt>
      <trkpt lat="47.68693" lon="3.69043">
        <ele>127.51</ele>
        <time>2013-04-28T07:48:57Z</time>
      </trkpt>
      <trkpt lat="47.68691" lon="3.69044">
        <ele>127.51</ele>
        <time>2013-04-28T07:48:58Z</time>
      </trkpt>
      <trkpt lat="47.68675" lon="3.69046">
        <ele>127.51</ele>
        <time>2013-04-28T07:49:10Z</time>
      </trkpt>
      <trkpt lat="47.68668" lon="3.69045">
        <ele>127.03</ele>
        <time>2013-04-28T07:49:14Z</time>
      </trkpt>
      <trkpt lat="47.68666" lon="3.69044">
        <ele>127.03</ele>
        <time>2013-04-28T07:49:15Z</time>
      </trkpt>
      <trkpt lat="47.68653" lon="3.69043">
        <ele>127.03</ele>
        <time>2013-04-28T07:49:24Z</time>
      </trkpt>
      <trkpt lat="47.6864" lon="3.69041">
        <ele>126.07</ele>
        <time>2013-04-28T07:49:33Z</time>
      </trkpt>
      <trkpt lat="47.68633" lon="3.69038">
        <ele>124.63</ele>
        <time>2013-04-28T07:49:37Z</time>
      </trkpt>
      <trkpt lat="47.68632" lon="3.69037">
        <ele>126.07</ele>
        <time>2013-04-28T07:49:38Z</time>
      </trkpt>
      <trkpt lat="47.6863" lon="3.69037">
        <ele>126.07</ele>
        <time>2013-04-28T07:49:39Z</time>
      </trkpt>
      <trkpt lat="47.68628" lon="3.69037">
        <ele>126.55</ele>
        <time>2013-04-28T07:49:40Z</time>
      </trkpt>
      <trkpt lat="47.68627" lon="3.69036">
        <ele>126.55</ele>
        <time>2013-04-28T07:49:41Z</time>
      </trkpt>
      <trkpt lat="47.68625" lon="3.69036">
        <ele>126.55</ele>
        <time>2013-04-28T07:49:42Z</time>
      </trkpt>
      <trkpt lat="47.68612" lon="3.69031">
        <ele>126.07</ele>
        <time>2013-04-28T07:49:50Z</time>
      </trkpt>
      <trkpt lat="47.68598" lon="3.69035">
        <ele>125.59</ele>
        <time>2013-04-28T07:50:00Z</time>
      </trkpt>
      <trkpt lat="47.68583" lon="3.69039">
        <ele>126.07</ele>
        <time>2013-04-28T07:50:10Z</time>
      </trkpt>
      <trkpt lat="47.68572" lon="3.69042">
        <ele>126.07</ele>
        <time>2013-04-28T07:50:18Z</time>
      </trkpt>
      <trkpt lat="47.68559" lon="3.69051">
        <ele>126.07</ele>
        <time>2013-04-28T07:50:27Z</time>
      </trkpt>
      <trkpt lat="47.68547" lon="3.6906">
        <ele>126.07</ele>
        <time>2013-04-28T07:50:36Z</time>
      </trkpt>
      <trkpt lat="47.68536" lon="3.69068">
        <ele>126.07</ele>
        <time>2013-04-28T07:50:44Z</time>
      </trkpt>
      <trkpt lat="47.6853" lon="3.69071">
        <ele>126.07</ele>
        <time>2013-04-28T07:50:48Z</time>
      </trkpt>
      <trkpt lat="47.68528" lon="3.69071">
        <ele>125.59</ele>
        <time>2013-04-28T07:50:49Z</time>
      </trkpt>
      <trkpt lat="47.68515" lon="3.69078">
        <ele>125.59</ele>
        <time>2013-04-28T07:50:58Z</time>
      </trkpt>
      <trkpt lat="47.68503" lon="3.69086">
        <ele>125.59</ele>
        <time>2013-04-28T07:51:07Z</time>
      </trkpt>
      <trkpt lat="47.68489" lon="3.69094">
        <ele>125.59</ele>
        <time>2013-04-28T07:51:16Z</time>
      </trkpt>
      <trkpt lat="47.68477" lon="3.69102">
        <ele>125.11</ele>
        <time>2013-04-28T07:51:25Z</time>
      </trkpt>
      <trkpt lat="47.68476" lon="3.69102">
        <ele>125.11</ele>
        <time>2013-04-28T07:51:26Z</time>
      </trkpt>
      <trkpt lat="47.68475" lon="3.69101">
        <ele>125.11</ele>
        <time>2013-04-28T07:51:27Z</time>
      </trkpt>
      <trkpt lat="47.68474" lon="3.69101">
        <ele>125.59</ele>
        <time>2013-04-28T07:51:28Z</time>
      </trkpt>
      <trkpt lat="47.68473" lon="3.691">
        <ele>125.59</ele>
        <time>2013-04-28T07:51:29Z</time>
      </trkpt>
      <trkpt lat="47.68472" lon="3.69099">
        <ele>124.63</ele>
        <time>2013-04-28T07:51:30Z</time>
      </trkpt>
      <trkpt lat="47.68471" lon="3.69098">
        <ele>124.63</ele>
        <time>2013-04-28T07:51:31Z</time>
      </trkpt>
      <trkpt lat="47.6847" lon="3.69096">
        <ele>123.67</ele>
        <time>2013-04-28T07:51:32Z</time>
      </trkpt>
      <trkpt lat="47.68469" lon="3.69095">
        <ele>126.55</ele>
        <time>2013-04-28T07:51:33Z</time>
      </trkpt>
      <trkpt lat="47.68459" lon="3.69082">
        <ele>125.11</ele>
        <time>2013-04-28T07:51:43Z</time>
      </trkpt>
      <trkpt lat="47.68458" lon="3.6908">
        <ele>124.63</ele>
        <time>2013-04-28T07:51:44Z</time>
      </trkpt>
      <trkpt lat="47.68457" lon="3.69079">
        <ele>125.11</ele>
        <time>2013-04-28T07:51:45Z</time>
      </trkpt>
      <trkpt lat="47.68456" lon="3.69077">
        <ele>125.59</ele>
        <time>2013-04-28T07:51:46Z</time>
      </trkpt>
      <trkpt lat="47.68455" lon="3.69076">
        <ele>126.07</ele>
        <time>2013-04-28T07:51:47Z</time>
      </trkpt>
      <trkpt lat="47.68454" lon="3.69074">
        <ele>125.59</ele>
        <time>2013-04-28T07:51:48Z</time>
      </trkpt>
      <trkpt lat="47.68453" lon="3.69073">
        <ele>126.07</ele>
        <time>2013-04-28T07:51:49Z</time>
      </trkpt>
      <trkpt lat="47.68444" lon="3.69069">
        <ele>126.07</ele>
        <time>2013-04-28T07:51:57Z</time>
      </trkpt>
      <trkpt lat="47.68429" lon="3.69074">
        <ele>125.11</ele>
        <time>2013-04-28T07:52:07Z</time>
      </trkpt>
      <trkpt lat="47.68419" lon="3.69078">
        <ele>124.15</ele>
        <time>2013-04-28T07:52:14Z</time>
      </trkpt>
      <trkpt lat="47.68406" lon="3.69087">
        <ele>122.71</ele>
        <time>2013-04-28T07:52:23Z</time>
      </trkpt>
      <trkpt lat="47.68387" lon="3.69094">
        <ele>121.26</ele>
        <time>2013-04-28T07:52:34Z</time>
      </trkpt>
      <trkpt lat="47.68373" lon="3.69099">
        <ele>120.3</ele>
        <time>2013-04-28T07:52:43Z</time>
      </trkpt>
      <trkpt lat="47.68361" lon="3.691">
        <ele>119.34</ele>
        <time>2013-04-28T07:52:51Z</time>
      </trkpt>
      <trkpt lat="47.68348" lon="3.69098">
        <ele>117.42</ele>
        <time>2013-04-28T07:53:00Z</time>
      </trkpt>
      <trkpt lat="47.68336" lon="3.69095">
        <ele>116.46</ele>
        <time>2013-04-28T07:53:08Z</time>
      </trkpt>
      <trkpt lat="47.68329" lon="3.69088">
        <ele>115.5</ele>
        <time>2013-04-28T07:53:17Z</time>
      </trkpt>
      <trkpt lat="47.68318" lon="3.69082">
        <ele>114.53</ele>
        <time>2013-04-28T07:53:25Z</time>
      </trkpt>
      <trkpt lat="47.68301" lon="3.69074">
        <ele>113.57</ele>
        <time>2013-04-28T07:53:34Z</time>
      </trkpt>
      <trkpt lat="47.68292" lon="3.69075">
        <ele>113.09</ele>
        <time>2013-04-28T07:53:41Z</time>
      </trkpt>
      <trkpt lat="47.68288" lon="3.69067">
        <ele>112.13</ele>
        <time>2013-04-28T07:53:47Z</time>
      </trkpt>
      <trkpt lat="47.68283" lon="3.69053">
        <ele>111.65</ele>
        <time>2013-04-28T07:53:55Z</time>
      </trkpt>
      <trkpt lat="47.68282" lon="3.69051">
        <ele>111.17</ele>
        <time>2013-04-28T07:53:56Z</time>
      </trkpt>
      <trkpt lat="47.68281" lon="3.69045">
        <ele>111.17</ele>
        <time>2013-04-28T07:53:58Z</time>
      </trkpt>
      <trkpt lat="47.6828" lon="3.69042">
        <ele>111.17</ele>
        <time>2013-04-28T07:53:59Z</time>
      </trkpt>
      <trkpt lat="47.6828" lon="3.69039">
        <ele>111.17</ele>
        <time>2013-04-28T07:54:00Z</time>
      </trkpt>
      <trkpt lat="47.68279" lon="3.69037">
        <ele>110.69</ele>
        <time>2013-04-28T07:54:01Z</time>
      </trkpt>
      <trkpt lat="47.68274" lon="3.69021">
        <ele>110.69</ele>
        <time>2013-04-28T07:54:10Z</time>
      </trkpt>
      <trkpt lat="47.68272" lon="3.69005">
        <ele>110.69</ele>
        <time>2013-04-28T07:54:16Z</time>
      </trkpt>
      <trkpt lat="47.68268" lon="3.68987">
        <ele>110.21</ele>
        <time>2013-04-28T07:54:25Z</time>
      </trkpt>
      <trkpt lat="47.68267" lon="3.68966">
        <ele>109.25</ele>
        <time>2013-04-28T07:54:34Z</time>
      </trkpt>
      <trkpt lat="47.68266" lon="3.68965">
        <ele>110.69</ele>
        <time>2013-04-28T07:54:35Z</time>
      </trkpt>
      <trkpt lat="47.68264" lon="3.68964">
        <ele>111.17</ele>
        <time>2013-04-28T07:54:37Z</time>
      </trkpt>
      <trkpt lat="47.68248" lon="3.68961">
        <ele>110.21</ele>
        <time>2013-04-28T07:54:48Z</time>
      </trkpt>
      <trkpt lat="47.68232" lon="3.68957">
        <ele>110.69</ele>
        <time>2013-04-28T07:54:57Z</time>
      </trkpt>
      <trkpt lat="47.68221" lon="3.68954">
        <ele>111.17</ele>
        <time>2013-04-28T07:55:04Z</time>
      </trkpt>
      <trkpt lat="47.68209" lon="3.68953">
        <ele>110.69</ele>
        <time>2013-04-28T07:55:13Z</time>
      </trkpt>
      <trkpt lat="47.68206" lon="3.68951">
        <ele>111.17</ele>
        <time>2013-04-28T07:55:17Z</time>
      </trkpt>
      <trkpt lat="47.68196" lon="3.68953">
        <ele>110.69</ele>
        <time>2013-04-28T07:55:22Z</time>
      </trkpt>
      <trkpt lat="47.68185" lon="3.68963">
        <ele>111.17</ele>
        <time>2013-04-28T07:55:29Z</time>
      </trkpt>
      <trkpt lat="47.6818" lon="3.68966">
        <ele>112.13</ele>
        <time>2013-04-28T07:55:33Z</time>
      </trkpt>
      <trkpt lat="47.68179" lon="3.68965">
        <ele>112.13</ele>
        <time>2013-04-28T07:55:34Z</time>
      </trkpt>
      <trkpt lat="47.68174" lon="3.68962">
        <ele>111.65</ele>
        <time>2013-04-28T07:55:38Z</time>
      </trkpt>
      <trkpt lat="47.68172" lon="3.6896">
        <ele>111.17</ele>
        <time>2013-04-28T07:55:39Z</time>
      </trkpt>
      <trkpt lat="47.68171" lon="3.68959">
        <ele>111.17</ele>
        <time>2013-04-28T07:55:40Z</time>
      </trkpt>
      <trkpt lat="47.68159" lon="3.68954">
        <ele>111.65</ele>
        <time>2013-04-28T07:55:48Z</time>
      </trkpt>
      <trkpt lat="47.68148" lon="3.68946">
        <ele>111.17</ele>
        <time>2013-04-28T07:55:55Z</time>
      </trkpt>
      <trkpt lat="47.68141" lon="3.68944">
        <ele>110.21</ele>
        <time>2013-04-28T07:56:03Z</time>
      </trkpt>
      <trkpt lat="47.6814" lon="3.68944">
        <ele>110.21</ele>
        <time>2013-04-28T07:56:04Z</time>
      </trkpt>
      <trkpt lat="47.68132" lon="3.68957">
        <ele>110.21</ele>
        <time>2013-04-28T07:56:11Z</time>
      </trkpt>
      <trkpt lat="47.68125" lon="3.68971">
        <ele>110.69</ele>
        <time>2013-04-28T07:56:18Z</time>
      </trkpt>
      <trkpt lat="47.68117" lon="3.68982">
        <ele>111.17</ele>
        <time>2013-04-28T07:56:27Z</time>
      </trkpt>
      <trkpt lat="47.68109" lon="3.69001">
        <ele>111.65</ele>
        <time>2013-04-28T07:56:35Z</time>
      </trkpt>
      <trkpt lat="47.68101" lon="3.69014">
        <ele>112.13</ele>
        <time>2013-04-28T07:56:44Z</time>
      </trkpt>
      <trkpt lat="47.68101" lon="3.69016">
        <ele>112.13</ele>
        <time>2013-04-28T07:56:45Z</time>
      </trkpt>
      <trkpt lat="47.68098" lon="3.69038">
        <ele>113.09</ele>
        <time>2013-04-28T07:56:53Z</time>
      </trkpt>
      <trkpt lat="47.68093" lon="3.69048">
        <ele>113.09</ele>
        <time>2013-04-28T07:57:01Z</time>
      </trkpt>
      <trkpt lat="47.68088" lon="3.69064">
        <ele>113.57</ele>
        <time>2013-04-28T07:57:07Z</time>
      </trkpt>
      <trkpt lat="47.68084" lon="3.69075">
        <ele>113.09</ele>
        <time>2013-04-28T07:57:14Z</time>
      </trkpt>
      <trkpt lat="47.68083" lon="3.69076">
        <ele>113.57</ele>
        <time>2013-04-28T07:57:15Z</time>
      </trkpt>
      <trkpt lat="47.6808" lon="3.69081">
        <ele>113.09</ele>
        <time>2013-04-28T07:57:19Z</time>
      </trkpt>
      <trkpt lat="47.6808" lon="3.69083">
        <ele>114.05</ele>
        <time>2013-04-28T07:57:20Z</time>
      </trkpt>
      <trkpt lat="47.68079" lon="3.69086">
        <ele>113.57</ele>
        <time>2013-04-28T07:57:21Z</time>
      </trkpt>
      <trkpt lat="47.68079" lon="3.69088">
        <ele>113.57</ele>
        <time>2013-04-28T07:57:22Z</time>
      </trkpt>
      <trkpt lat="47.68079" lon="3.69091">
        <ele>113.57</ele>
        <time>2013-04-28T07:57:23Z</time>
      </trkpt>
      <trkpt lat="47.68079" lon="3.69096">
        <ele>113.57</ele>
        <time>2013-04-28T07:57:25Z</time>
      </trkpt>
      <trkpt lat="47.68079" lon="3.69098">
        <ele>114.05</ele>
        <time>2013-04-28T07:57:26Z</time>
      </trkpt>
      <trkpt lat="47.6808" lon="3.691">
        <ele>113.09</ele>
        <time>2013-04-28T07:57:27Z</time>
      </trkpt>
      <trkpt lat="47.6808" lon="3.69102">
        <ele>113.57</ele>
        <time>2013-04-28T07:57:28Z</time>
      </trkpt>
      <trkpt lat="47.6808" lon="3.69105">
        <ele>113.57</ele>
        <time>2013-04-28T07:57:29Z</time>
      </trkpt>
      <trkpt lat="47.6808" lon="3.69119">
        <ele>113.57</ele>
        <time>2013-04-28T07:57:36Z</time>
      </trkpt>
      <trkpt lat="47.68076" lon="3.69124">
        <ele>113.57</ele>
        <time>2013-04-28T07:57:40Z</time>
      </trkpt>
      <trkpt lat="47.68074" lon="3.69124">
        <ele>114.53</ele>
        <time>2013-04-28T07:57:41Z</time>
      </trkpt>
      <trkpt lat="47.68073" lon="3.69126">
        <ele>114.05</ele>
        <time>2013-04-28T07:57:42Z</time>
      </trkpt>
      <trkpt lat="47.68057" lon="3.69135">
        <ele>114.05</ele>
        <time>2013-04-28T07:57:51Z</time>
      </trkpt>
      <trkpt lat="47.6805" lon="3.69145">
        <ele>114.53</ele>
        <time>2013-04-28T07:57:58Z</time>
      </trkpt>
      <trkpt lat="47.6804" lon="3.6916">
        <ele>115.5</ele>
        <time>2013-04-28T07:58:07Z</time>
      </trkpt>
      <trkpt lat="47.68036" lon="3.69165">
        <ele>115.5</ele>
        <time>2013-04-28T07:58:11Z</time>
      </trkpt>
      <trkpt lat="47.68025" lon="3.69182">
        <ele>116.46</ele>
        <time>2013-04-28T07:58:21Z</time>
      </trkpt>
      <trkpt lat="47.68018" lon="3.69192">
        <ele>117.9</ele>
        <time>2013-04-28T07:58:28Z</time>
      </trkpt>
      <trkpt lat="47.68012" lon="3.69206">
        <ele>118.86</ele>
        <time>2013-04-28T07:58:36Z</time>
      </trkpt>
      <trkpt lat="47.68006" lon="3.69223">
        <ele>120.3</ele>
        <time>2013-04-28T07:58:46Z</time>
      </trkpt>
      <trkpt lat="47.68001" lon="3.69239">
        <ele>122.71</ele>
        <time>2013-04-28T07:58:55Z</time>
      </trkpt>
      <trkpt lat="47.67997" lon="3.69251">
        <ele>123.67</ele>
        <time>2013-04-28T07:59:02Z</time>
      </trkpt>
      <trkpt lat="47.67996" lon="3.69252">
        <ele>124.15</ele>
        <time>2013-04-28T07:59:03Z</time>
      </trkpt>
      <trkpt lat="47.67988" lon="3.6927">
        <ele>127.03</ele>
        <time>2013-04-28T07:59:14Z</time>
      </trkpt>
      <trkpt lat="47.67978" lon="3.6928">
        <ele>127.99</ele>
        <time>2013-04-28T07:59:23Z</time>
      </trkpt>
      <trkpt lat="47.67978" lon="3.69286">
        <ele>127.99</ele>
        <time>2013-04-28T07:59:29Z</time>
      </trkpt>
      <trkpt lat="47.67981" lon="3.69287">
        <ele>128.47</ele>
        <time>2013-04-28T07:59:45Z</time>
      </trkpt>
      <trkpt lat="47.67975" lon="3.69287">
        <ele>130.4</ele>
        <time>2013-04-28T08:00:02Z</time>
      </trkpt>
      <trkpt lat="47.67972" lon="3.69287">
        <ele>130.4</ele>
        <time>2013-04-28T08:00:03Z</time>
      </trkpt>
      <trkpt lat="47.6797" lon="3.69288">
        <ele>130.4</ele>
        <time>2013-04-28T08:00:04Z</time>
      </trkpt>
      <trkpt lat="47.67955" lon="3.69294">
        <ele>130.88</ele>
        <time>2013-04-28T08:00:11Z</time>
      </trkpt>
      <trkpt lat="47.67953" lon="3.69296">
        <ele>131.36</ele>
        <time>2013-04-28T08:00:12Z</time>
      </trkpt>
      <trkpt lat="47.67952" lon="3.69297">
        <ele>130.4</ele>
        <time>2013-04-28T08:00:13Z</time>
      </trkpt>
      <trkpt lat="47.67951" lon="3.69298">
        <ele>131.36</ele>
        <time>2013-04-28T08:00:14Z</time>
      </trkpt>
      <trkpt lat="47.67949" lon="3.69299">
        <ele>130.88</ele>
        <time>2013-04-28T08:00:15Z</time>
      </trkpt>
      <trkpt lat="47.67948" lon="3.693">
        <ele>130.88</ele>
        <time>2013-04-28T08:00:16Z</time>
      </trkpt>
      <trkpt lat="47.67946" lon="3.693">
        <ele>130.88</ele>
        <time>2013-04-28T08:00:17Z</time>
      </trkpt>
      <trkpt lat="47.67934" lon="3.69305">
        <ele>130.88</ele>
        <time>2013-04-28T08:00:25Z</time>
      </trkpt>
      <trkpt lat="47.67933" lon="3.69305">
        <ele>131.36</ele>
        <time>2013-04-28T08:00:26Z</time>
      </trkpt>
      <trkpt lat="47.6792" lon="3.69309">
        <ele>131.36</ele>
        <time>2013-04-28T08:00:35Z</time>
      </trkpt>
      <trkpt lat="47.67911" lon="3.69314">
        <ele>131.84</ele>
        <time>2013-04-28T08:00:42Z</time>
      </trkpt>
      <trkpt lat="47.67909" lon="3.69315">
        <ele>131.36</ele>
        <time>2013-04-28T08:00:43Z</time>
      </trkpt>
      <trkpt lat="47.67908" lon="3.69315">
        <ele>131.36</ele>
        <time>2013-04-28T08:00:44Z</time>
      </trkpt>
      <trkpt lat="47.67901" lon="3.69319">
        <ele>132.8</ele>
        <time>2013-04-28T08:00:49Z</time>
      </trkpt>
      <trkpt lat="47.67899" lon="3.69321">
        <ele>131.36</ele>
        <time>2013-04-28T08:00:50Z</time>
      </trkpt>
      <trkpt lat="47.67897" lon="3.69323">
        <ele>131.84</ele>
        <time>2013-04-28T08:00:51Z</time>
      </trkpt>
      <trkpt lat="47.67896" lon="3.69325">
        <ele>131.84</ele>
        <time>2013-04-28T08:00:52Z</time>
      </trkpt>
      <trkpt lat="47.67894" lon="3.69335">
        <ele>133.28</ele>
        <time>2013-04-28T08:00:57Z</time>
      </trkpt>
      <trkpt lat="47.6789" lon="3.69349">
        <ele>135.2</ele>
        <time>2013-04-28T08:01:03Z</time>
      </trkpt>
      <trkpt lat="47.67882" lon="3.69368">
        <ele>137.61</ele>
        <time>2013-04-28T08:01:09Z</time>
      </trkpt>
      <trkpt lat="47.67878" lon="3.69377">
        <ele>139.53</ele>
        <time>2013-04-28T08:01:15Z</time>
      </trkpt>
      <trkpt lat="47.67876" lon="3.69381">
        <ele>140.97</ele>
        <time>2013-04-28T08:01:18Z</time>
      </trkpt>
      <trkpt lat="47.67869" lon="3.69393">
        <ele>142.89</ele>
        <time>2013-04-28T08:01:26Z</time>
      </trkpt>
      <trkpt lat="47.67859" lon="3.69411">
        <ele>144.82</ele>
        <time>2013-04-28T08:01:38Z</time>
      </trkpt>
      <trkpt lat="47.67858" lon="3.69413">
        <ele>145.3</ele>
        <time>2013-04-28T08:01:39Z</time>
      </trkpt>
      <trkpt lat="47.67853" lon="3.69422">
        <ele>147.22</ele>
        <time>2013-04-28T08:01:47Z</time>
      </trkpt>
      <trkpt lat="47.67847" lon="3.69437">
        <ele>149.14</ele>
        <time>2013-04-28T08:01:56Z</time>
      </trkpt>
      <trkpt lat="47.67839" lon="3.69453">
        <ele>151.54</ele>
        <time>2013-04-28T08:02:07Z</time>
      </trkpt>
      <trkpt lat="47.67834" lon="3.69471">
        <ele>154.43</ele>
        <time>2013-04-28T08:02:16Z</time>
      </trkpt>
      <trkpt lat="47.67833" lon="3.69475">
        <ele>154.91</ele>
        <time>2013-04-28T08:02:18Z</time>
      </trkpt>
      <trkpt lat="47.67832" lon="3.69477">
        <ele>154.91</ele>
        <time>2013-04-28T08:02:19Z</time>
      </trkpt>
      <trkpt lat="47.67831" lon="3.6948">
        <ele>155.39</ele>
        <time>2013-04-28T08:02:20Z</time>
      </trkpt>
      <trkpt lat="47.67828" lon="3.69491">
        <ele>156.35</ele>
        <time>2013-04-28T08:02:28Z</time>
      </trkpt>
      <trkpt lat="47.67827" lon="3.69498">
        <ele>157.31</ele>
        <time>2013-04-28T08:02:34Z</time>
      </trkpt>
      <trkpt lat="47.67824" lon="3.69509">
        <ele>159.24</ele>
        <time>2013-04-28T08:02:42Z</time>
      </trkpt>
      <trkpt lat="47.6782" lon="3.69522">
        <ele>160.2</ele>
        <time>2013-04-28T08:02:49Z</time>
      </trkpt>
      <trkpt lat="47.67816" lon="3.69541">
        <ele>162.6</ele>
        <time>2013-04-28T08:02:58Z</time>
      </trkpt>
      <trkpt lat="47.67815" lon="3.69556">
        <ele>164.04</ele>
        <time>2013-04-28T08:03:06Z</time>
      </trkpt>
      <trkpt lat="47.67812" lon="3.69572">
        <ele>166.93</ele>
        <time>2013-04-28T08:03:15Z</time>
      </trkpt>
      <trkpt lat="47.6781" lon="3.69582">
        <ele>168.85</ele>
        <time>2013-04-28T08:03:20Z</time>
      </trkpt>
      <trkpt lat="47.67808" lon="3.69594">
        <ele>170.29</ele>
        <time>2013-04-28T08:03:28Z</time>
      </trkpt>
      <trkpt lat="47.67804" lon="3.6961">
        <ele>173.17</ele>
        <time>2013-04-28T08:03:38Z</time>
      </trkpt>
      <trkpt lat="47.67799" lon="3.69623">
        <ele>175.58</ele>
        <time>2013-04-28T08:03:48Z</time>
      </trkpt>
      <trkpt lat="47.67795" lon="3.69638">
        <ele>177.5</ele>
        <time>2013-04-28T08:03:57Z</time>
      </trkpt>
      <trkpt lat="47.67788" lon="3.69645">
        <ele>178.94</ele>
        <time>2013-04-28T08:04:05Z</time>
      </trkpt>
      <trkpt lat="47.67781" lon="3.6965">
        <ele>180.87</ele>
        <time>2013-04-28T08:04:12Z</time>
      </trkpt>
      <trkpt lat="47.67777" lon="3.69653">
        <ele>182.31</ele>
        <time>2013-04-28T08:04:19Z</time>
      </trkpt>
      <trkpt lat="47.67769" lon="3.69656">
        <ele>183.75</ele>
        <time>2013-04-28T08:04:27Z</time>
      </trkpt>
      <trkpt lat="47.67765" lon="3.69657">
        <ele>185.19</ele>
        <time>2013-04-28T08:04:30Z</time>
      </trkpt>
      <trkpt lat="47.67757" lon="3.69655">
        <ele>186.63</ele>
        <time>2013-04-28T08:04:39Z</time>
      </trkpt>
      <trkpt lat="47.6775" lon="3.69656">
        <ele>188.08</ele>
        <time>2013-04-28T08:04:46Z</time>
      </trkpt>
      <trkpt lat="47.67744" lon="3.69658">
        <ele>189.04</ele>
        <time>2013-04-28T08:04:52Z</time>
      </trkpt>
      <trkpt lat="47.67738" lon="3.69659">
        <ele>190.96</ele>
        <time>2013-04-28T08:04:57Z</time>
      </trkpt>
      <trkpt lat="47.67726" lon="3.69664">
        <ele>192.88</ele>
        <time>2013-04-28T08:05:08Z</time>
      </trkpt>
      <trkpt lat="47.67719" lon="3.69667">
        <ele>193.36</ele>
        <time>2013-04-28T08:05:16Z</time>
      </trkpt>
      <trkpt lat="47.6771" lon="3.69672">
        <ele>195.28</ele>
        <time>2013-04-28T08:05:24Z</time>
      </trkpt>
      <trkpt lat="47.67703" lon="3.69672">
        <ele>195.77</ele>
        <time>2013-04-28T08:05:31Z</time>
      </trkpt>
      <trkpt lat="47.67695" lon="3.69677">
        <ele>196.25</ele>
        <time>2013-04-28T08:05:39Z</time>
      </trkpt>
      <trkpt lat="47.67685" lon="3.69687">
        <ele>197.69</ele>
        <time>2013-04-28T08:05:48Z</time>
      </trkpt>
      <trkpt lat="47.67674" lon="3.69698">
        <ele>198.65</ele>
        <time>2013-04-28T08:05:57Z</time>
      </trkpt>
      <trkpt lat="47.67662" lon="3.69701">
        <ele>199.61</ele>
        <time>2013-04-28T08:06:05Z</time>
      </trkpt>
      <trkpt lat="47.67648" lon="3.69699">
        <ele>200.09</ele>
        <time>2013-04-28T08:06:15Z</time>
      </trkpt>
      <trkpt lat="47.67637" lon="3.69702">
        <ele>200.09</ele>
        <time>2013-04-28T08:06:24Z</time>
      </trkpt>
      <trkpt lat="47.6762" lon="3.69706">
        <ele>200.09</ele>
        <time>2013-04-28T08:06:33Z</time>
      </trkpt>
      <trkpt lat="47.67614" lon="3.69709">
        <ele>200.57</ele>
        <time>2013-04-28T08:06:36Z</time>
      </trkpt>
      <trkpt lat="47.67608" lon="3.69725">
        <ele>200.57</ele>
        <time>2013-04-28T08:06:44Z</time>
      </trkpt>
      <trkpt lat="47.67609" lon="3.69744">
        <ele>200.57</ele>
        <time>2013-04-28T08:06:51Z</time>
      </trkpt>
      <trkpt lat="47.67612" lon="3.69755">
        <ele>201.05</ele>
        <time>2013-04-28T08:06:56Z</time>
      </trkpt>
      <trkpt lat="47.67617" lon="3.6977">
        <ele>200.09</ele>
        <time>2013-04-28T08:07:04Z</time>
      </trkpt>
      <trkpt lat="47.67622" lon="3.69784">
        <ele>200.09</ele>
        <time>2013-04-28T08:07:12Z</time>
      </trkpt>
      <trkpt lat="47.67623" lon="3.69786">
        <ele>200.57</ele>
        <time>2013-04-28T08:07:13Z</time>
      </trkpt>
      <trkpt lat="47.67622" lon="3.69799">
        <ele>200.57</ele>
        <time>2013-04-28T08:07:19Z</time>
      </trkpt>
      <trkpt lat="47.6761" lon="3.69818">
        <ele>200.57</ele>
        <time>2013-04-28T08:07:30Z</time>
      </trkpt>
      <trkpt lat="47.676" lon="3.69834">
        <ele>200.57</ele>
        <time>2013-04-28T08:07:39Z</time>
      </trkpt>
      <trkpt lat="47.67592" lon="3.69847">
        <ele>200.57</ele>
        <time>2013-04-28T08:07:47Z</time>
      </trkpt>
      <trkpt lat="47.67581" lon="3.69862">
        <ele>200.09</ele>
        <time>2013-04-28T08:07:57Z</time>
      </trkpt>
      <trkpt lat="47.67571" lon="3.69879">
        <ele>200.57</ele>
        <time>2013-04-28T08:08:08Z</time>
      </trkpt>
      <trkpt lat="47.67558" lon="3.69896">
        <ele>200.09</ele>
        <time>2013-04-28T08:08:19Z</time>
      </trkpt>
      <trkpt lat="47.67547" lon="3.69909">
        <ele>200.09</ele>
        <time>2013-04-28T08:08:28Z</time>
      </trkpt>
      <trkpt lat="47.67535" lon="3.69925">
        <ele>199.61</ele>
        <time>2013-04-28T08:08:38Z</time>
      </trkpt>
      <trkpt lat="47.67523" lon="3.6994">
        <ele>199.61</ele>
        <time>2013-04-28T08:08:48Z</time>
      </trkpt>
      <trkpt lat="47.67509" lon="3.69958">
        <ele>197.69</ele>
        <time>2013-04-28T08:08:59Z</time>
      </trkpt>
      <trkpt lat="47.67498" lon="3.69971">
        <ele>197.21</ele>
        <time>2013-04-28T08:09:08Z</time>
      </trkpt>
      <trkpt lat="47.67487" lon="3.69986">
        <ele>195.77</ele>
        <time>2013-04-28T08:09:18Z</time>
      </trkpt>
      <trkpt lat="47.67479" lon="3.7">
        <ele>196.73</ele>
        <time>2013-04-28T08:09:27Z</time>
      </trkpt>
      <trkpt lat="47.67479" lon="3.70001">
        <ele>196.25</ele>
        <time>2013-04-28T08:09:28Z</time>
      </trkpt>
      <trkpt lat="47.67468" lon="3.70013">
        <ele>197.21</ele>
        <time>2013-04-28T08:09:38Z</time>
      </trkpt>
      <trkpt lat="47.67455" lon="3.70028">
        <ele>198.65</ele>
        <time>2013-04-28T08:09:49Z</time>
      </trkpt>
      <trkpt lat="47.67442" lon="3.70042">
        <ele>200.09</ele>
        <time>2013-04-28T08:09:59Z</time>
      </trkpt>
      <trkpt lat="47.67432" lon="3.70051">
        <ele>201.05</ele>
        <time>2013-04-28T08:10:07Z</time>
      </trkpt>
      <trkpt lat="47.67423" lon="3.7006">
        <ele>201.53</ele>
        <time>2013-04-28T08:10:15Z</time>
      </trkpt>
      <trkpt lat="47.67411" lon="3.70069">
        <ele>202.01</ele>
        <time>2013-04-28T08:10:23Z</time>
      </trkpt>
      <trkpt lat="47.67397" lon="3.70082">
        <ele>202.49</ele>
        <time>2013-04-28T08:10:34Z</time>
      </trkpt>
      <trkpt lat="47.67393" lon="3.70084">
        <ele>202.49</ele>
        <time>2013-04-28T08:10:37Z</time>
      </trkpt>
      <trkpt lat="47.67381" lon="3.70099">
        <ele>202.49</ele>
        <time>2013-04-28T08:10:48Z</time>
      </trkpt>
      <trkpt lat="47.67369" lon="3.70112">
        <ele>202.98</ele>
        <time>2013-04-28T08:10:58Z</time>
      </trkpt>
      <trkpt lat="47.67357" lon="3.70126">
        <ele>203.46</ele>
        <time>2013-04-28T08:11:08Z</time>
      </trkpt>
      <trkpt lat="47.67346" lon="3.7014">
        <ele>203.46</ele>
        <time>2013-04-28T08:11:18Z</time>
      </trkpt>
      <trkpt lat="47.67335" lon="3.70153">
        <ele>202.98</ele>
        <time>2013-04-28T08:11:27Z</time>
      </trkpt>
      <trkpt lat="47.67328" lon="3.70166">
        <ele>202.49</ele>
        <time>2013-04-28T08:11:34Z</time>
      </trkpt>
      <trkpt lat="47.67318" lon="3.7018">
        <ele>202.98</ele>
        <time>2013-04-28T08:11:43Z</time>
      </trkpt>
      <trkpt lat="47.67307" lon="3.70195">
        <ele>202.98</ele>
        <time>2013-04-28T08:11:53Z</time>
      </trkpt>
      <trkpt lat="47.67299" lon="3.70207">
        <ele>202.98</ele>
        <time>2013-04-28T08:12:01Z</time>
      </trkpt>
      <trkpt lat="47.67292" lon="3.70222">
        <ele>202.01</ele>
        <time>2013-04-28T08:12:09Z</time>
      </trkpt>
      <trkpt lat="47.67282" lon="3.70236">
        <ele>202.01</ele>
        <time>2013-04-28T08:12:18Z</time>
      </trkpt>
      <trkpt lat="47.67277" lon="3.70246">
        <ele>201.05</ele>
        <time>2013-04-28T08:12:24Z</time>
      </trkpt>
      <trkpt lat="47.67268" lon="3.70261">
        <ele>200.57</ele>
        <time>2013-04-28T08:12:33Z</time>
      </trkpt>
      <trkpt lat="47.67259" lon="3.70278">
        <ele>199.61</ele>
        <time>2013-04-28T08:12:43Z</time>
      </trkpt>
      <trkpt lat="47.67252" lon="3.70291">
        <ele>199.61</ele>
        <time>2013-04-28T08:12:50Z</time>
      </trkpt>
      <trkpt lat="47.67241" lon="3.70302">
        <ele>198.65</ele>
        <time>2013-04-28T08:12:59Z</time>
      </trkpt>
      <trkpt lat="47.67231" lon="3.70317">
        <ele>197.69</ele>
        <time>2013-04-28T08:13:08Z</time>
      </trkpt>
      <trkpt lat="47.67218" lon="3.70331">
        <ele>197.21</ele>
        <time>2013-04-28T08:13:18Z</time>
      </trkpt>
      <trkpt lat="47.67207" lon="3.70346">
        <ele>195.77</ele>
        <time>2013-04-28T08:13:28Z</time>
      </trkpt>
      <trkpt lat="47.67199" lon="3.70358">
        <ele>194.32</ele>
        <time>2013-04-28T08:13:36Z</time>
      </trkpt>
      <trkpt lat="47.67187" lon="3.70374">
        <ele>193.36</ele>
        <time>2013-04-28T08:13:46Z</time>
      </trkpt>
      <trkpt lat="47.67175" lon="3.70392">
        <ele>191.92</ele>
        <time>2013-04-28T08:13:58Z</time>
      </trkpt>
      <trkpt lat="47.67164" lon="3.70406">
        <ele>190</ele>
        <time>2013-04-28T08:14:07Z</time>
      </trkpt>
      <trkpt lat="47.67154" lon="3.70417">
        <ele>188.56</ele>
        <time>2013-04-28T08:14:16Z</time>
      </trkpt>
      <trkpt lat="47.67145" lon="3.70433">
        <ele>187.11</ele>
        <time>2013-04-28T08:14:26Z</time>
      </trkpt>
      <trkpt lat="47.67143" lon="3.70442">
        <ele>185.67</ele>
        <time>2013-04-28T08:14:31Z</time>
      </trkpt>
      <trkpt lat="47.67137" lon="3.70468">
        <ele>184.71</ele>
        <time>2013-04-28T08:14:42Z</time>
      </trkpt>
      <trkpt lat="47.67131" lon="3.70496">
        <ele>181.35</ele>
        <time>2013-04-28T08:14:54Z</time>
      </trkpt>
      <trkpt lat="47.67127" lon="3.70515">
        <ele>179.9</ele>
        <time>2013-04-28T08:15:03Z</time>
      </trkpt>
      <trkpt lat="47.6712" lon="3.70544">
        <ele>177.98</ele>
        <time>2013-04-28T08:15:16Z</time>
      </trkpt>
      <trkpt lat="47.67113" lon="3.70565">
        <ele>174.14</ele>
        <time>2013-04-28T08:15:27Z</time>
      </trkpt>
      <trkpt lat="47.67108" lon="3.70585">
        <ele>172.21</ele>
        <time>2013-04-28T08:15:36Z</time>
      </trkpt>
      <trkpt lat="47.67103" lon="3.70604">
        <ele>170.29</ele>
        <time>2013-04-28T08:15:45Z</time>
      </trkpt>
      <trkpt lat="47.67098" lon="3.70626">
        <ele>166.93</ele>
        <time>2013-04-28T08:15:55Z</time>
      </trkpt>
      <trkpt lat="47.67092" lon="3.70642">
        <ele>165</ele>
        <time>2013-04-28T08:16:04Z</time>
      </trkpt>
      <trkpt lat="47.67081" lon="3.70665">
        <ele>162.12</ele>
        <time>2013-04-28T08:16:17Z</time>
      </trkpt>
      <trkpt lat="47.67073" lon="3.70676">
        <ele>159.72</ele>
        <time>2013-04-28T08:16:24Z</time>
      </trkpt>
      <trkpt lat="47.67063" lon="3.70696">
        <ele>156.83</ele>
        <time>2013-04-28T08:16:34Z</time>
      </trkpt>
      <trkpt lat="47.67053" lon="3.70714">
        <ele>154.91</ele>
        <time>2013-04-28T08:16:45Z</time>
      </trkpt>
      <trkpt lat="47.67042" lon="3.70727">
        <ele>152.99</ele>
        <time>2013-04-28T08:16:55Z</time>
      </trkpt>
      <trkpt lat="47.67027" lon="3.70734">
        <ele>151.06</ele>
        <time>2013-04-28T08:17:05Z</time>
      </trkpt>
      <trkpt lat="47.67013" lon="3.70745">
        <ele>149.14</ele>
        <time>2013-04-28T08:17:17Z</time>
      </trkpt>
      <trkpt lat="47.67" lon="3.70755">
        <ele>148.18</ele>
        <time>2013-04-28T08:17:26Z</time>
      </trkpt>
      <trkpt lat="47.66987" lon="3.70763">
        <ele>146.26</ele>
        <time>2013-04-28T08:17:35Z</time>
      </trkpt>
      <trkpt lat="47.66973" lon="3.70772">
        <ele>145.3</ele>
        <time>2013-04-28T08:17:45Z</time>
      </trkpt>
      <trkpt lat="47.66959" lon="3.7078">
        <ele>144.34</ele>
        <time>2013-04-28T08:17:55Z</time>
      </trkpt>
      <trkpt lat="47.66948" lon="3.70786">
        <ele>142.89</ele>
        <time>2013-04-28T08:18:03Z</time>
      </trkpt>
      <trkpt lat="47.66933" lon="3.70795">
        <ele>141.45</ele>
        <time>2013-04-28T08:18:13Z</time>
      </trkpt>
      <trkpt lat="47.66919" lon="3.70803">
        <ele>140.49</ele>
        <time>2013-04-28T08:18:23Z</time>
      </trkpt>
      <trkpt lat="47.66905" lon="3.70812">
        <ele>139.53</ele>
        <time>2013-04-28T08:18:33Z</time>
      </trkpt>
      <trkpt lat="47.6689" lon="3.7082">
        <ele>138.57</ele>
        <time>2013-04-28T08:18:44Z</time>
      </trkpt>
      <trkpt lat="47.66879" lon="3.70829">
        <ele>138.09</ele>
        <time>2013-04-28T08:18:53Z</time>
      </trkpt>
      <trkpt lat="47.66867" lon="3.70836">
        <ele>137.61</ele>
        <time>2013-04-28T08:19:02Z</time>
      </trkpt>
      <trkpt lat="47.66852" lon="3.70845">
        <ele>136.64</ele>
        <time>2013-04-28T08:19:12Z</time>
      </trkpt>
      <trkpt lat="47.6684" lon="3.70854">
        <ele>136.16</ele>
        <time>2013-04-28T08:19:21Z</time>
      </trkpt>
      <trkpt lat="47.66825" lon="3.70864">
        <ele>135.68</ele>
        <time>2013-04-28T08:19:32Z</time>
      </trkpt>
      <trkpt lat="47.6681" lon="3.70874">
        <ele>135.2</ele>
        <time>2013-04-28T08:19:42Z</time>
      </trkpt>
      <trkpt lat="47.66796" lon="3.70882">
        <ele>135.2</ele>
        <time>2013-04-28T08:19:52Z</time>
      </trkpt>
      <trkpt lat="47.66782" lon="3.70891">
        <ele>134.24</ele>
        <time>2013-04-28T08:20:02Z</time>
      </trkpt>
      <trkpt lat="47.66766" lon="3.70898">
        <ele>133.28</ele>
        <time>2013-04-28T08:20:14Z</time>
      </trkpt>
      <trkpt lat="47.66751" lon="3.70904">
        <ele>132.8</ele>
        <time>2013-04-28T08:20:24Z</time>
      </trkpt>
      <trkpt lat="47.66736" lon="3.70907">
        <ele>131.84</ele>
        <time>2013-04-28T08:20:34Z</time>
      </trkpt>
      <trkpt lat="47.66719" lon="3.70909">
        <ele>130.88</ele>
        <time>2013-04-28T08:20:45Z</time>
      </trkpt>
      <trkpt lat="47.66705" lon="3.70911">
        <ele>130.4</ele>
        <time>2013-04-28T08:20:55Z</time>
      </trkpt>
      <trkpt lat="47.6669" lon="3.70912">
        <ele>129.92</ele>
        <time>2013-04-28T08:21:04Z</time>
      </trkpt>
      <trkpt lat="47.66674" lon="3.70915">
        <ele>129.43</ele>
        <time>2013-04-28T08:21:15Z</time>
      </trkpt>
      <trkpt lat="47.66661" lon="3.70916">
        <ele>128.47</ele>
        <time>2013-04-28T08:21:24Z</time>
      </trkpt>
      <trkpt lat="47.66646" lon="3.70917">
        <ele>127.99</ele>
        <time>2013-04-28T08:21:34Z</time>
      </trkpt>
      <trkpt lat="47.66632" lon="3.7092">
        <ele>126.55</ele>
        <time>2013-04-28T08:21:43Z</time>
      </trkpt>
      <trkpt lat="47.66614" lon="3.70918">
        <ele>126.55</ele>
        <time>2013-04-28T08:21:55Z</time>
      </trkpt>
      <trkpt lat="47.66599" lon="3.70915">
        <ele>124.63</ele>
        <time>2013-04-28T08:22:04Z</time>
      </trkpt>
      <trkpt lat="47.66588" lon="3.70922">
        <ele>124.15</ele>
        <time>2013-04-28T08:22:12Z</time>
      </trkpt>
      <trkpt lat="47.66588" lon="3.70926">
        <ele>124.15</ele>
        <time>2013-04-28T08:22:14Z</time>
      </trkpt>
      <trkpt lat="47.66589" lon="3.70945">
        <ele>124.15</ele>
        <time>2013-04-28T08:22:22Z</time>
      </trkpt>
      <trkpt lat="47.66584" lon="3.70966">
        <ele>124.15</ele>
        <time>2013-04-28T08:22:32Z</time>
      </trkpt>
      <trkpt lat="47.66582" lon="3.70986">
        <ele>123.67</ele>
        <time>2013-04-28T08:22:41Z</time>
      </trkpt>
      <trkpt lat="47.66571" lon="3.70991">
        <ele>122.22</ele>
        <time>2013-04-28T08:22:49Z</time>
      </trkpt>
      <trkpt lat="47.66555" lon="3.70989">
        <ele>121.74</ele>
        <time>2013-04-28T08:22:59Z</time>
      </trkpt>
      <trkpt lat="47.66541" lon="3.70986">
        <ele>120.78</ele>
        <time>2013-04-28T08:23:09Z</time>
      </trkpt>
      <trkpt lat="47.66528" lon="3.70983">
        <ele>119.82</ele>
        <time>2013-04-28T08:23:18Z</time>
      </trkpt>
      <trkpt lat="47.66511" lon="3.70978">
        <ele>120.3</ele>
        <time>2013-04-28T08:23:29Z</time>
      </trkpt>
      <trkpt lat="47.66496" lon="3.70973">
        <ele>118.38</ele>
        <time>2013-04-28T08:23:39Z</time>
      </trkpt>
      <trkpt lat="47.66485" lon="3.70972">
        <ele>118.38</ele>
        <time>2013-04-28T08:23:48Z</time>
      </trkpt>
      <trkpt lat="47.66466" lon="3.70966">
        <ele>117.42</ele>
        <time>2013-04-28T08:24:00Z</time>
      </trkpt>
      <trkpt lat="47.66451" lon="3.70963">
        <ele>116.46</ele>
        <time>2013-04-28T08:24:10Z</time>
      </trkpt>
      <trkpt lat="47.66436" lon="3.70958">
        <ele>116.46</ele>
        <time>2013-04-28T08:24:21Z</time>
      </trkpt>
      <trkpt lat="47.66421" lon="3.70956">
        <ele>115.01</ele>
        <time>2013-04-28T08:24:31Z</time>
      </trkpt>
      <trkpt lat="47.6641" lon="3.70954">
        <ele>115.01</ele>
        <time>2013-04-28T08:24:39Z</time>
      </trkpt>
      <trkpt lat="47.66395" lon="3.7095">
        <ele>114.53</ele>
        <time>2013-04-28T08:24:49Z</time>
      </trkpt>
      <trkpt lat="47.6638" lon="3.70947">
        <ele>114.05</ele>
        <time>2013-04-28T08:24:59Z</time>
      </trkpt>
      <trkpt lat="47.66368" lon="3.70944">
        <ele>114.53</ele>
        <time>2013-04-28T08:25:07Z</time>
      </trkpt>
      <trkpt lat="47.66356" lon="3.70938">
        <ele>114.53</ele>
        <time>2013-04-28T08:25:16Z</time>
      </trkpt>
      <trkpt lat="47.6634" lon="3.70933">
        <ele>115.01</ele>
        <time>2013-04-28T08:25:27Z</time>
      </trkpt>
      <trkpt lat="47.66335" lon="3.70933">
        <ele>115.98</ele>
        <time>2013-04-28T08:25:30Z</time>
      </trkpt>
      <trkpt lat="47.66317" lon="3.70926">
        <ele>116.46</ele>
        <time>2013-04-28T08:25:42Z</time>
      </trkpt>
      <trkpt lat="47.66303" lon="3.70923">
        <ele>117.9</ele>
        <time>2013-04-28T08:25:52Z</time>
      </trkpt>
      <trkpt lat="47.6629" lon="3.70921">
        <ele>117.42</ele>
        <time>2013-04-28T08:26:01Z</time>
      </trkpt>
      <trkpt lat="47.66277" lon="3.70918">
        <ele>116.94</ele>
        <time>2013-04-28T08:26:10Z</time>
      </trkpt>
      <trkpt lat="47.66263" lon="3.70916">
        <ele>117.42</ele>
        <time>2013-04-28T08:26:19Z</time>
      </trkpt>
      <trkpt lat="47.66247" lon="3.70911">
        <ele>117.42</ele>
        <time>2013-04-28T08:26:30Z</time>
      </trkpt>
      <trkpt lat="47.66232" lon="3.70911">
        <ele>115.98</ele>
        <time>2013-04-28T08:26:41Z</time>
      </trkpt>
      <trkpt lat="47.66222" lon="3.70909">
        <ele>115.01</ele>
        <time>2013-04-28T08:26:48Z</time>
      </trkpt>
      <trkpt lat="47.66219" lon="3.70916">
        <ele>114.53</ele>
        <time>2013-04-28T08:26:52Z</time>
      </trkpt>
      <trkpt lat="47.66216" lon="3.70941">
        <ele>113.57</ele>
        <time>2013-04-28T08:27:03Z</time>
      </trkpt>
      <trkpt lat="47.66213" lon="3.70966">
        <ele>113.57</ele>
        <time>2013-04-28T08:27:14Z</time>
      </trkpt>
      <trkpt lat="47.66211" lon="3.70988">
        <ele>113.09</ele>
        <time>2013-04-28T08:27:25Z</time>
      </trkpt>
      <trkpt lat="47.6621" lon="3.71009">
        <ele>113.57</ele>
        <time>2013-04-28T08:27:34Z</time>
      </trkpt>
      <trkpt lat="47.66209" lon="3.7103">
        <ele>113.57</ele>
        <time>2013-04-28T08:27:43Z</time>
      </trkpt>
      <trkpt lat="47.66207" lon="3.71052">
        <ele>113.09</ele>
        <time>2013-04-28T08:27:53Z</time>
      </trkpt>
      <trkpt lat="47.66204" lon="3.71066">
        <ele>113.09</ele>
        <time>2013-04-28T08:28:01Z</time>
      </trkpt>
      <trkpt lat="47.66207" lon="3.71075">
        <ele>113.09</ele>
        <time>2013-04-28T08:28:12Z</time>
      </trkpt>
      <trkpt lat="47.66206" lon="3.71079">
        <ele>113.57</ele>
        <time>2013-04-28T08:28:24Z</time>
      </trkpt>
      <trkpt lat="47.66206" lon="3.71079">
        <ele>113.57</ele>
        <time>2013-04-28T08:28:36Z</time>
      </trkpt>
      <trkpt lat="47.66206" lon="3.71075">
        <ele>114.05</ele>
        <time>2013-04-28T08:28:51Z</time>
      </trkpt>
      <trkpt lat="47.66207" lon="3.71074">
        <ele>113.09</ele>
        <time>2013-04-28T08:29:02Z</time>
      </trkpt>
      <trkpt lat="47.66207" lon="3.71074">
        <ele>113.57</ele>
        <time>2013-04-28T08:29:14Z</time>
      </trkpt>
      <trkpt lat="47.66206" lon="3.71073">
        <ele>113.57</ele>
        <time>2013-04-28T08:29:23Z</time>
      </trkpt>
      <trkpt lat="47.66205" lon="3.71075">
        <ele>113.09</ele>
        <time>2013-04-28T08:29:30Z</time>
      </trkpt>
      <trkpt lat="47.66207" lon="3.71074">
        <ele>113.57</ele>
        <time>2013-04-28T08:29:45Z</time>
      </trkpt>
      <trkpt lat="47.66207" lon="3.71075">
        <ele>113.57</ele>
        <time>2013-04-28T08:29:55Z</time>
      </trkpt>
      <trkpt lat="47.66208" lon="3.71071">
        <ele>113.57</ele>
        <time>2013-04-28T08:30:06Z</time>
      </trkpt>
      <trkpt lat="47.66207" lon="3.71072">
        <ele>113.09</ele>
        <time>2013-04-28T08:30:18Z</time>
      </trkpt>
      <trkpt lat="47.66206" lon="3.71075">
        <ele>113.57</ele>
        <time>2013-04-28T08:30:30Z</time>
      </trkpt>
      <trkpt lat="47.66206" lon="3.71076">
        <ele>114.05</ele>
        <time>2013-04-28T08:30:37Z</time>
      </trkpt>
      <trkpt lat="47.66203" lon="3.71074">
        <ele>114.05</ele>
        <time>2013-04-28T08:30:46Z</time>
      </trkpt>
      <trkpt lat="47.66205" lon="3.7107">
        <ele>112.61</ele>
        <time>2013-04-28T08:30:58Z</time>
      </trkpt>
      <trkpt lat="47.66206" lon="3.71069">
        <ele>113.57</ele>
        <time>2013-04-28T08:30:59Z</time>
      </trkpt>
      <trkpt lat="47.66211" lon="3.71066">
        <ele>113.09</ele>
        <time>2013-04-28T08:31:02Z</time>
      </trkpt>
      <trkpt lat="47.66219" lon="3.71067">
        <ele>113.09</ele>
        <time>2013-04-28T08:31:11Z</time>
      </trkpt>
      <trkpt lat="47.66215" lon="3.71068">
        <ele>113.57</ele>
        <time>2013-04-28T08:31:27Z</time>
      </trkpt>
      <trkpt lat="47.66213" lon="3.71068">
        <ele>114.05</ele>
        <time>2013-04-28T08:31:28Z</time>
      </trkpt>
      <trkpt lat="47.66206" lon="3.71071">
        <ele>113.09</ele>
        <time>2013-04-28T08:31:36Z</time>
      </trkpt>
      <trkpt lat="47.66206" lon="3.71074">
        <ele>113.09</ele>
        <time>2013-04-28T08:31:45Z</time>
      </trkpt>
      <trkpt lat="47.66206" lon="3.71072">
        <ele>113.57</ele>
        <time>2013-04-28T08:31:59Z</time>
      </trkpt>
      <trkpt lat="47.66203" lon="3.7108">
        <ele>113.57</ele>
        <time>2013-04-28T08:32:08Z</time>
      </trkpt>
      <trkpt lat="47.66204" lon="3.71073">
        <ele>113.57</ele>
        <time>2013-04-28T08:32:18Z</time>
      </trkpt>
      <trkpt lat="47.66205" lon="3.71073">
        <ele>114.05</ele>
        <time>2013-04-28T08:32:29Z</time>
      </trkpt>
      <trkpt lat="47.66206" lon="3.71068">
        <ele>113.57</ele>
        <time>2013-04-28T08:32:40Z</time>
      </trkpt>
      <trkpt lat="47.66205" lon="3.7107">
        <ele>114.05</ele>
        <time>2013-04-28T08:32:49Z</time>
      </trkpt>
      <trkpt lat="47.66209" lon="3.71071">
        <ele>113.57</ele>
        <time>2013-04-28T08:33:00Z</time>
      </trkpt>
      <trkpt lat="47.66209" lon="3.71072">
        <ele>114.05</ele>
        <time>2013-04-28T08:33:09Z</time>
      </trkpt>
      <trkpt lat="47.66205" lon="3.71074">
        <ele>114.05</ele>
        <time>2013-04-28T08:33:24Z</time>
      </trkpt>
      <trkpt lat="47.66203" lon="3.71073">
        <ele>113.57</ele>
        <time>2013-04-28T08:33:33Z</time>
      </trkpt>
      <trkpt lat="47.66203" lon="3.71077">
        <ele>114.05</ele>
        <time>2013-04-28T08:33:41Z</time>
      </trkpt>
      <trkpt lat="47.66208" lon="3.71071">
        <ele>113.57</ele>
        <time>2013-04-28T08:33:49Z</time>
      </trkpt>
      <trkpt lat="47.66204" lon="3.71065">
        <ele>114.05</ele>
        <time>2013-04-28T08:33:56Z</time>
      </trkpt>
      <trkpt lat="47.66202" lon="3.71068">
        <ele>114.05</ele>
        <time>2013-04-28T08:34:05Z</time>
      </trkpt>
      <trkpt lat="47.66194" lon="3.71084">
        <ele>114.05</ele>
        <time>2013-04-28T08:34:17Z</time>
      </trkpt>
      <trkpt lat="47.66193" lon="3.71085">
        <ele>114.05</ele>
        <time>2013-04-28T08:34:18Z</time>
      </trkpt>
      <trkpt lat="47.6619" lon="3.7109">
        <ele>114.53</ele>
        <time>2013-04-28T08:34:22Z</time>
      </trkpt>
      <trkpt lat="47.66174" lon="3.71102">
        <ele>114.53</ele>
        <time>2013-04-28T08:34:34Z</time>
      </trkpt>
      <trkpt lat="47.6616" lon="3.71112">
        <ele>114.05</ele>
        <time>2013-04-28T08:34:44Z</time>
      </trkpt>
      <trkpt lat="47.66148" lon="3.71117">
        <ele>114.53</ele>
        <time>2013-04-28T08:34:52Z</time>
      </trkpt>
      <trkpt lat="47.66136" lon="3.71123">
        <ele>114.53</ele>
        <time>2013-04-28T08:35:01Z</time>
      </trkpt>
      <trkpt lat="47.66133" lon="3.71128">
        <ele>114.05</ele>
        <time>2013-04-28T08:35:05Z</time>
      </trkpt>
      <trkpt lat="47.66129" lon="3.7113">
        <ele>114.53</ele>
        <time>2013-04-28T08:35:08Z</time>
      </trkpt>
      <trkpt lat="47.66117" lon="3.71137">
        <ele>115.5</ele>
        <time>2013-04-28T08:35:18Z</time>
      </trkpt>
      <trkpt lat="47.66105" lon="3.71146">
        <ele>115.5</ele>
        <time>2013-04-28T08:35:27Z</time>
      </trkpt>
      <trkpt lat="47.66101" lon="3.7115">
        <ele>115.98</ele>
        <time>2013-04-28T08:35:31Z</time>
      </trkpt>
      <trkpt lat="47.66091" lon="3.71157">
        <ele>115.98</ele>
        <time>2013-04-28T08:35:41Z</time>
      </trkpt>
      <trkpt lat="47.66079" lon="3.71167">
        <ele>117.42</ele>
        <time>2013-04-28T08:35:51Z</time>
      </trkpt>
      <trkpt lat="47.66071" lon="3.71174">
        <ele>117.42</ele>
        <time>2013-04-28T08:35:57Z</time>
      </trkpt>
      <trkpt lat="47.66066" lon="3.71182">
        <ele>117.9</ele>
        <time>2013-04-28T08:36:05Z</time>
      </trkpt>
      <trkpt lat="47.66059" lon="3.71192">
        <ele>119.34</ele>
        <time>2013-04-28T08:36:14Z</time>
      </trkpt>
      <trkpt lat="47.66052" lon="3.71208">
        <ele>120.3</ele>
        <time>2013-04-28T08:36:24Z</time>
      </trkpt>
      <trkpt lat="47.66041" lon="3.71225">
        <ele>121.26</ele>
        <time>2013-04-28T08:36:34Z</time>
      </trkpt>
      <trkpt lat="47.66033" lon="3.71236">
        <ele>121.74</ele>
        <time>2013-04-28T08:36:41Z</time>
      </trkpt>
      <trkpt lat="47.66023" lon="3.71248">
        <ele>122.71</ele>
        <time>2013-04-28T08:36:49Z</time>
      </trkpt>
      <trkpt lat="47.66013" lon="3.71254">
        <ele>122.71</ele>
        <time>2013-04-28T08:36:57Z</time>
      </trkpt>
      <trkpt lat="47.66003" lon="3.7126">
        <ele>122.71</ele>
        <time>2013-04-28T08:37:05Z</time>
      </trkpt>
      <trkpt lat="47.65994" lon="3.71265">
        <ele>123.19</ele>
        <time>2013-04-28T08:37:13Z</time>
      </trkpt>
      <trkpt lat="47.65989" lon="3.71268">
        <ele>124.63</ele>
        <time>2013-04-28T08:37:17Z</time>
      </trkpt>
      <trkpt lat="47.65983" lon="3.71274">
        <ele>124.15</ele>
        <time>2013-04-28T08:37:21Z</time>
      </trkpt>
      <trkpt lat="47.65976" lon="3.71292">
        <ele>124.63</ele>
        <time>2013-04-28T08:37:30Z</time>
      </trkpt>
      <trkpt lat="47.65971" lon="3.71308">
        <ele>124.63</ele>
        <time>2013-04-28T08:37:38Z</time>
      </trkpt>
      <trkpt lat="47.65967" lon="3.71329">
        <ele>124.15</ele>
        <time>2013-04-28T08:37:47Z</time>
      </trkpt>
      <trkpt lat="47.65962" lon="3.71352">
        <ele>123.67</ele>
        <time>2013-04-28T08:37:57Z</time>
      </trkpt>
      <trkpt lat="47.65955" lon="3.71373">
        <ele>124.15</ele>
        <time>2013-04-28T08:38:08Z</time>
      </trkpt>
      <trkpt lat="47.6595" lon="3.71386">
        <ele>124.63</ele>
        <time>2013-04-28T08:38:16Z</time>
      </trkpt>
      <trkpt lat="47.65944" lon="3.71402">
        <ele>125.11</ele>
        <time>2013-04-28T08:38:25Z</time>
      </trkpt>
      <trkpt lat="47.65937" lon="3.71419">
        <ele>125.59</ele>
        <time>2013-04-28T08:38:34Z</time>
      </trkpt>
      <trkpt lat="47.6593" lon="3.71441">
        <ele>125.11</ele>
        <time>2013-04-28T08:38:44Z</time>
      </trkpt>
      <trkpt lat="47.65924" lon="3.7146">
        <ele>125.59</ele>
        <time>2013-04-28T08:38:53Z</time>
      </trkpt>
      <trkpt lat="47.6592" lon="3.71476">
        <ele>125.59</ele>
        <time>2013-04-28T08:39:01Z</time>
      </trkpt>
      <trkpt lat="47.65913" lon="3.71497">
        <ele>124.63</ele>
        <time>2013-04-28T08:39:11Z</time>
      </trkpt>
      <trkpt lat="47.65904" lon="3.71512">
        <ele>125.59</ele>
        <time>2013-04-28T08:39:20Z</time>
      </trkpt>
      <trkpt lat="47.65897" lon="3.71525">
        <ele>126.07</ele>
        <time>2013-04-28T08:39:28Z</time>
      </trkpt>
      <trkpt lat="47.65887" lon="3.71542">
        <ele>126.55</ele>
        <time>2013-04-28T08:39:37Z</time>
      </trkpt>
      <trkpt lat="47.65878" lon="3.71556">
        <ele>126.55</ele>
        <time>2013-04-28T08:39:46Z</time>
      </trkpt>
      <trkpt lat="47.65872" lon="3.71565">
        <ele>119.34</ele>
        <time>2013-04-28T08:39:52Z</time>
      </trkpt>
      <trkpt lat="47.65871" lon="3.71567">
        <ele>115.01</ele>
        <time>2013-04-28T08:39:53Z</time>
      </trkpt>
      <trkpt lat="47.65871" lon="3.71568">
        <ele>123.19</ele>
        <time>2013-04-28T08:39:54Z</time>
      </trkpt>
      <trkpt lat="47.65869" lon="3.71572">
        <ele>126.55</ele>
        <time>2013-04-28T08:39:56Z</time>
      </trkpt>
      <trkpt lat="47.65868" lon="3.71573">
        <ele>125.11</ele>
        <time>2013-04-28T08:39:57Z</time>
      </trkpt>
      <trkpt lat="47.65865" lon="3.71579">
        <ele>128.95</ele>
        <time>2013-04-28T08:40:01Z</time>
      </trkpt>
      <trkpt lat="47.65863" lon="3.71582">
        <ele>130.4</ele>
        <time>2013-04-28T08:40:03Z</time>
      </trkpt>
      <trkpt lat="47.65855" lon="3.71596">
        <ele>127.99</ele>
        <time>2013-04-28T08:40:11Z</time>
      </trkpt>
      <trkpt lat="47.65848" lon="3.7161">
        <ele>128.47</ele>
        <time>2013-04-28T08:40:19Z</time>
      </trkpt>
      <trkpt lat="47.6584" lon="3.71622">
        <ele>127.03</ele>
        <time>2013-04-28T08:40:27Z</time>
      </trkpt>
      <trkpt lat="47.6583" lon="3.71641">
        <ele>127.99</ele>
        <time>2013-04-28T08:40:38Z</time>
      </trkpt>
      <trkpt lat="47.65823" lon="3.7166">
        <ele>128.47</ele>
        <time>2013-04-28T08:40:48Z</time>
      </trkpt>
      <trkpt lat="47.65814" lon="3.71679">
        <ele>128.95</ele>
        <time>2013-04-28T08:40:58Z</time>
      </trkpt>
      <trkpt lat="47.65808" lon="3.71696">
        <ele>128.95</ele>
        <time>2013-04-28T08:41:07Z</time>
      </trkpt>
      <trkpt lat="47.65799" lon="3.71716">
        <ele>128.95</ele>
        <time>2013-04-28T08:41:18Z</time>
      </trkpt>
      <trkpt lat="47.65793" lon="3.71732">
        <ele>129.43</ele>
        <time>2013-04-28T08:41:26Z</time>
      </trkpt>
      <trkpt lat="47.65786" lon="3.71754">
        <ele>128.95</ele>
        <time>2013-04-28T08:41:37Z</time>
      </trkpt>
      <trkpt lat="47.65779" lon="3.71775">
        <ele>128.95</ele>
        <time>2013-04-28T08:41:47Z</time>
      </trkpt>
      <trkpt lat="47.65772" lon="3.71795">
        <ele>129.43</ele>
        <time>2013-04-28T08:41:57Z</time>
      </trkpt>
      <trkpt lat="47.65767" lon="3.71816">
        <ele>129.43</ele>
        <time>2013-04-28T08:42:07Z</time>
      </trkpt>
      <trkpt lat="47.65762" lon="3.71831">
        <ele>130.4</ele>
        <time>2013-04-28T08:42:15Z</time>
      </trkpt>
      <trkpt lat="47.65758" lon="3.7185">
        <ele>130.4</ele>
        <time>2013-04-28T08:42:24Z</time>
      </trkpt>
      <trkpt lat="47.65753" lon="3.71867">
        <ele>129.92</ele>
        <time>2013-04-28T08:42:32Z</time>
      </trkpt>
      <trkpt lat="47.65749" lon="3.71882">
        <ele>128.95</ele>
        <time>2013-04-28T08:42:39Z</time>
      </trkpt>
      <trkpt lat="47.65748" lon="3.71886">
        <ele>130.4</ele>
        <time>2013-04-28T08:42:41Z</time>
      </trkpt>
      <trkpt lat="47.65742" lon="3.71911">
        <ele>131.36</ele>
        <time>2013-04-28T08:42:53Z</time>
      </trkpt>
      <trkpt lat="47.65735" lon="3.71938">
        <ele>131.36</ele>
        <time>2013-04-28T08:43:06Z</time>
      </trkpt>
      <trkpt lat="47.6573" lon="3.71962">
        <ele>131.84</ele>
        <time>2013-04-28T08:43:17Z</time>
      </trkpt>
      <trkpt lat="47.65725" lon="3.71987">
        <ele>129.92</ele>
        <time>2013-04-28T08:43:29Z</time>
      </trkpt>
      <trkpt lat="47.65724" lon="3.71989">
        <ele>133.28</ele>
        <time>2013-04-28T08:43:30Z</time>
      </trkpt>
      <trkpt lat="47.65723" lon="3.71994">
        <ele>130.4</ele>
        <time>2013-04-28T08:43:33Z</time>
      </trkpt>
      <trkpt lat="47.65722" lon="3.72001">
        <ele>131.84</ele>
        <time>2013-04-28T08:43:36Z</time>
      </trkpt>
      <trkpt lat="47.65721" lon="3.72008">
        <ele>132.32</ele>
        <time>2013-04-28T08:43:40Z</time>
      </trkpt>
      <trkpt lat="47.65719" lon="3.72018">
        <ele>131.84</ele>
        <time>2013-04-28T08:43:45Z</time>
      </trkpt>
      <trkpt lat="47.65715" lon="3.72036">
        <ele>131.84</ele>
        <time>2013-04-28T08:43:54Z</time>
      </trkpt>
      <trkpt lat="47.65712" lon="3.72054">
        <ele>132.32</ele>
        <time>2013-04-28T08:44:02Z</time>
      </trkpt>
      <trkpt lat="47.65708" lon="3.7207">
        <ele>133.28</ele>
        <time>2013-04-28T08:44:10Z</time>
      </trkpt>
      <trkpt lat="47.65703" lon="3.7209">
        <ele>133.28</ele>
        <time>2013-04-28T08:44:20Z</time>
      </trkpt>
      <trkpt lat="47.65701" lon="3.72103">
        <ele>133.28</ele>
        <time>2013-04-28T08:44:27Z</time>
      </trkpt>
      <trkpt lat="47.65697" lon="3.72122">
        <ele>134.24</ele>
        <time>2013-04-28T08:44:37Z</time>
      </trkpt>
      <trkpt lat="47.65692" lon="3.72139">
        <ele>134.72</ele>
        <time>2013-04-28T08:44:45Z</time>
      </trkpt>
      <trkpt lat="47.65687" lon="3.72156">
        <ele>134.24</ele>
        <time>2013-04-28T08:44:54Z</time>
      </trkpt>
      <trkpt lat="47.65682" lon="3.72171">
        <ele>135.2</ele>
        <time>2013-04-28T08:45:02Z</time>
      </trkpt>
      <trkpt lat="47.65676" lon="3.7219">
        <ele>135.2</ele>
        <time>2013-04-28T08:45:12Z</time>
      </trkpt>
      <trkpt lat="47.65671" lon="3.72206">
        <ele>136.16</ele>
        <time>2013-04-28T08:45:20Z</time>
      </trkpt>
      <trkpt lat="47.65665" lon="3.72221">
        <ele>136.64</ele>
        <time>2013-04-28T08:45:28Z</time>
      </trkpt>
      <trkpt lat="47.6566" lon="3.72238">
        <ele>137.13</ele>
        <time>2013-04-28T08:45:37Z</time>
      </trkpt>
      <trkpt lat="47.65653" lon="3.72254">
        <ele>137.61</ele>
        <time>2013-04-28T08:45:46Z</time>
      </trkpt>
      <trkpt lat="47.65646" lon="3.7227">
        <ele>137.61</ele>
        <time>2013-04-28T08:45:55Z</time>
      </trkpt>
      <trkpt lat="47.65642" lon="3.72282">
        <ele>138.09</ele>
        <time>2013-04-28T08:46:02Z</time>
      </trkpt>
      <trkpt lat="47.65641" lon="3.72284">
        <ele>138.09</ele>
        <time>2013-04-28T08:46:03Z</time>
      </trkpt>
      <trkpt lat="47.65636" lon="3.723">
        <ele>139.05</ele>
        <time>2013-04-28T08:46:12Z</time>
      </trkpt>
      <trkpt lat="47.6563" lon="3.72312">
        <ele>139.53</ele>
        <time>2013-04-28T08:46:20Z</time>
      </trkpt>
      <trkpt lat="47.65624" lon="3.72329">
        <ele>140.01</ele>
        <time>2013-04-28T08:46:28Z</time>
      </trkpt>
      <trkpt lat="47.65617" lon="3.72344">
        <ele>140.01</ele>
        <time>2013-04-28T08:46:36Z</time>
      </trkpt>
      <trkpt lat="47.65612" lon="3.72358">
        <ele>140.01</ele>
        <time>2013-04-28T08:46:44Z</time>
      </trkpt>
      <trkpt lat="47.65608" lon="3.72371">
        <ele>140.49</ele>
        <time>2013-04-28T08:46:51Z</time>
      </trkpt>
      <trkpt lat="47.65605" lon="3.72378">
        <ele>140.49</ele>
        <time>2013-04-28T08:46:54Z</time>
      </trkpt>
      <trkpt lat="47.65596" lon="3.72397">
        <ele>140.97</ele>
        <time>2013-04-28T08:47:03Z</time>
      </trkpt>
      <trkpt lat="47.65588" lon="3.72415">
        <ele>140.49</ele>
        <time>2013-04-28T08:47:12Z</time>
      </trkpt>
      <trkpt lat="47.65585" lon="3.72423">
        <ele>139.05</ele>
        <time>2013-04-28T08:47:16Z</time>
      </trkpt>
      <trkpt lat="47.65575" lon="3.72438">
        <ele>128.47</ele>
        <time>2013-04-28T08:47:26Z</time>
      </trkpt>
      <trkpt lat="47.65574" lon="3.7244">
        <ele>139.53</ele>
        <time>2013-04-28T08:47:27Z</time>
      </trkpt>
      <trkpt lat="47.65572" lon="3.72443">
        <ele>140.01</ele>
        <time>2013-04-28T08:47:29Z</time>
      </trkpt>
      <trkpt lat="47.65562" lon="3.72459">
        <ele>138.09</ele>
        <time>2013-04-28T08:47:39Z</time>
      </trkpt>
      <trkpt lat="47.65552" lon="3.7247">
        <ele>138.09</ele>
        <time>2013-04-28T08:47:47Z</time>
      </trkpt>
      <trkpt lat="47.65543" lon="3.72484">
        <ele>137.13</ele>
        <time>2013-04-28T08:47:55Z</time>
      </trkpt>
      <trkpt lat="47.65532" lon="3.72501">
        <ele>136.64</ele>
        <time>2013-04-28T08:48:05Z</time>
      </trkpt>
      <trkpt lat="47.65522" lon="3.72512">
        <ele>135.2</ele>
        <time>2013-04-28T08:48:14Z</time>
      </trkpt>
      <trkpt lat="47.65514" lon="3.72524">
        <ele>134.24</ele>
        <time>2013-04-28T08:48:21Z</time>
      </trkpt>
      <trkpt lat="47.65506" lon="3.72532">
        <ele>132.8</ele>
        <time>2013-04-28T08:48:28Z</time>
      </trkpt>
      <trkpt lat="47.65505" lon="3.72533">
        <ele>133.76</ele>
        <time>2013-04-28T08:48:29Z</time>
      </trkpt>
      <trkpt lat="47.65496" lon="3.7254">
        <ele>133.28</ele>
        <time>2013-04-28T08:48:37Z</time>
      </trkpt>
      <trkpt lat="47.65492" lon="3.72544">
        <ele>132.8</ele>
        <time>2013-04-28T08:48:41Z</time>
      </trkpt>
      <trkpt lat="47.65483" lon="3.72548">
        <ele>131.36</ele>
        <time>2013-04-28T08:48:49Z</time>
      </trkpt>
      <trkpt lat="47.6547" lon="3.72558">
        <ele>129.92</ele>
        <time>2013-04-28T08:48:57Z</time>
      </trkpt>
      <trkpt lat="47.6546" lon="3.72565">
        <ele>128.47</ele>
        <time>2013-04-28T08:49:05Z</time>
      </trkpt>
      <trkpt lat="47.65451" lon="3.72565">
        <ele>127.03</ele>
        <time>2013-04-28T08:49:14Z</time>
      </trkpt>
      <trkpt lat="47.65448" lon="3.72565">
        <ele>126.07</ele>
        <time>2013-04-28T08:49:16Z</time>
      </trkpt>
      <trkpt lat="47.65436" lon="3.72569">
        <ele>124.63</ele>
        <time>2013-04-28T08:49:22Z</time>
      </trkpt>
      <trkpt lat="47.65424" lon="3.72577">
        <ele>123.67</ele>
        <time>2013-04-28T08:49:31Z</time>
      </trkpt>
      <trkpt lat="47.6541" lon="3.72587">
        <ele>122.22</ele>
        <time>2013-04-28T08:49:40Z</time>
      </trkpt>
      <trkpt lat="47.654" lon="3.72593">
        <ele>120.78</ele>
        <time>2013-04-28T08:49:46Z</time>
      </trkpt>
      <trkpt lat="47.65398" lon="3.72594">
        <ele>120.78</ele>
        <time>2013-04-28T08:49:47Z</time>
      </trkpt>
      <trkpt lat="47.65396" lon="3.72595">
        <ele>120.78</ele>
        <time>2013-04-28T08:49:48Z</time>
      </trkpt>
      <trkpt lat="47.65394" lon="3.72596">
        <ele>120.78</ele>
        <time>2013-04-28T08:49:49Z</time>
      </trkpt>
      <trkpt lat="47.65393" lon="3.72597">
        <ele>120.3</ele>
        <time>2013-04-28T08:49:50Z</time>
      </trkpt>
      <trkpt lat="47.65391" lon="3.72598">
        <ele>120.78</ele>
        <time>2013-04-28T08:49:51Z</time>
      </trkpt>
      <trkpt lat="47.6539" lon="3.72599">
        <ele>120.78</ele>
        <time>2013-04-28T08:49:52Z</time>
      </trkpt>
      <trkpt lat="47.65389" lon="3.72599">
        <ele>120.78</ele>
        <time>2013-04-28T08:49:53Z</time>
      </trkpt>
      <trkpt lat="47.65388" lon="3.72599">
        <ele>120.3</ele>
        <time>2013-04-28T08:49:54Z</time>
      </trkpt>
      <trkpt lat="47.65377" lon="3.72605">
        <ele>119.34</ele>
        <time>2013-04-28T08:50:02Z</time>
      </trkpt>
      <trkpt lat="47.65368" lon="3.7261">
        <ele>118.38</ele>
        <time>2013-04-28T08:50:09Z</time>
      </trkpt>
      <trkpt lat="47.65363" lon="3.72612">
        <ele>118.38</ele>
        <time>2013-04-28T08:50:12Z</time>
      </trkpt>
      <trkpt lat="47.65361" lon="3.72612">
        <ele>118.38</ele>
        <time>2013-04-28T08:50:13Z</time>
      </trkpt>
      <trkpt lat="47.6536" lon="3.72612">
        <ele>117.9</ele>
        <time>2013-04-28T08:50:14Z</time>
      </trkpt>
      <trkpt lat="47.65357" lon="3.72613">
        <ele>117.9</ele>
        <time>2013-04-28T08:50:16Z</time>
      </trkpt>
      <trkpt lat="47.65355" lon="3.72614">
        <ele>118.38</ele>
        <time>2013-04-28T08:50:17Z</time>
      </trkpt>
      <trkpt lat="47.65354" lon="3.72614">
        <ele>117.42</ele>
        <time>2013-04-28T08:50:18Z</time>
      </trkpt>
      <trkpt lat="47.65352" lon="3.72615">
        <ele>117.42</ele>
        <time>2013-04-28T08:50:19Z</time>
      </trkpt>
      <trkpt lat="47.6535" lon="3.72616">
        <ele>117.42</ele>
        <time>2013-04-28T08:50:20Z</time>
      </trkpt>
      <trkpt lat="47.65337" lon="3.72617">
        <ele>117.42</ele>
        <time>2013-04-28T08:50:28Z</time>
      </trkpt>
      <trkpt lat="47.65326" lon="3.7262">
        <ele>116.94</ele>
        <time>2013-04-28T08:50:37Z</time>
      </trkpt>
      <trkpt lat="47.65315" lon="3.72622">
        <ele>116.46</ele>
        <time>2013-04-28T08:50:46Z</time>
      </trkpt>
      <trkpt lat="47.65304" lon="3.72626">
        <ele>116.46</ele>
        <time>2013-04-28T08:50:54Z</time>
      </trkpt>
      <trkpt lat="47.6529" lon="3.72631">
        <ele>116.46</ele>
        <time>2013-04-28T08:51:03Z</time>
      </trkpt>
      <trkpt lat="47.65283" lon="3.72636">
        <ele>116.46</ele>
        <time>2013-04-28T08:51:10Z</time>
      </trkpt>
      <trkpt lat="47.6527" lon="3.72641">
        <ele>115.98</ele>
        <time>2013-04-28T08:51:18Z</time>
      </trkpt>
      <trkpt lat="47.65269" lon="3.72641">
        <ele>115.98</ele>
        <time>2013-04-28T08:51:19Z</time>
      </trkpt>
      <trkpt lat="47.65255" lon="3.72643">
        <ele>117.42</ele>
        <time>2013-04-28T08:51:29Z</time>
      </trkpt>
      <trkpt lat="47.65243" lon="3.72642">
        <ele>117.42</ele>
        <time>2013-04-28T08:51:39Z</time>
      </trkpt>
      <trkpt lat="47.65228" lon="3.72634">
        <ele>118.86</ele>
        <time>2013-04-28T08:51:48Z</time>
      </trkpt>
      <trkpt lat="47.65217" lon="3.72633">
        <ele>119.34</ele>
        <time>2013-04-28T08:51:57Z</time>
      </trkpt>
      <trkpt lat="47.65207" lon="3.72633">
        <ele>118.86</ele>
        <time>2013-04-28T08:52:05Z</time>
      </trkpt>
      <trkpt lat="47.65195" lon="3.72633">
        <ele>119.34</ele>
        <time>2013-04-28T08:52:14Z</time>
      </trkpt>
      <trkpt lat="47.65183" lon="3.72632">
        <ele>119.34</ele>
        <time>2013-04-28T08:52:24Z</time>
      </trkpt>
      <trkpt lat="47.6517" lon="3.72632">
        <ele>118.86</ele>
        <time>2013-04-28T08:52:33Z</time>
      </trkpt>
      <trkpt lat="47.65157" lon="3.72625">
        <ele>118.86</ele>
        <time>2013-04-28T08:52:41Z</time>
      </trkpt>
      <trkpt lat="47.65145" lon="3.72623">
        <ele>118.38</ele>
        <time>2013-04-28T08:52:49Z</time>
      </trkpt>
      <trkpt lat="47.65135" lon="3.7262">
        <ele>118.38</ele>
        <time>2013-04-28T08:52:56Z</time>
      </trkpt>
      <trkpt lat="47.65124" lon="3.72623">
        <ele>118.86</ele>
        <time>2013-04-28T08:53:04Z</time>
      </trkpt>
      <trkpt lat="47.65112" lon="3.72623">
        <ele>119.34</ele>
        <time>2013-04-28T08:53:13Z</time>
      </trkpt>
      <trkpt lat="47.65101" lon="3.7262">
        <ele>119.82</ele>
        <time>2013-04-28T08:53:21Z</time>
      </trkpt>
      <trkpt lat="47.65088" lon="3.72614">
        <ele>119.82</ele>
        <time>2013-04-28T08:53:30Z</time>
      </trkpt>
      <trkpt lat="47.65078" lon="3.72612">
        <ele>119.34</ele>
        <time>2013-04-28T08:53:37Z</time>
      </trkpt>
      <trkpt lat="47.65067" lon="3.72614">
        <ele>119.82</ele>
        <time>2013-04-28T08:53:46Z</time>
      </trkpt>
      <trkpt lat="47.65054" lon="3.7262">
        <ele>119.82</ele>
        <time>2013-04-28T08:53:55Z</time>
      </trkpt>
      <trkpt lat="47.6504" lon="3.72611">
        <ele>120.3</ele>
        <time>2013-04-28T08:54:04Z</time>
      </trkpt>
      <trkpt lat="47.65029" lon="3.72612">
        <ele>120.78</ele>
        <time>2013-04-28T08:54:12Z</time>
      </trkpt>
      <trkpt lat="47.6502" lon="3.72612">
        <ele>120.78</ele>
        <time>2013-04-28T08:54:20Z</time>
      </trkpt>
      <trkpt lat="47.65008" lon="3.72609">
        <ele>121.26</ele>
        <time>2013-04-28T08:54:28Z</time>
      </trkpt>
      <trkpt lat="47.64995" lon="3.72597">
        <ele>121.26</ele>
        <time>2013-04-28T08:54:34Z</time>
      </trkpt>
      <trkpt lat="47.64988" lon="3.72595">
        <ele>122.71</ele>
        <time>2013-04-28T08:54:42Z</time>
      </trkpt>
      <trkpt lat="47.64976" lon="3.72588">
        <ele>122.71</ele>
        <time>2013-04-28T08:54:51Z</time>
      </trkpt>
      <trkpt lat="47.64964" lon="3.7258">
        <ele>123.67</ele>
        <time>2013-04-28T08:54:58Z</time>
      </trkpt>
      <trkpt lat="47.64952" lon="3.72573">
        <ele>124.15</ele>
        <time>2013-04-28T08:55:07Z</time>
      </trkpt>
      <trkpt lat="47.64942" lon="3.7257">
        <ele>126.07</ele>
        <time>2013-04-28T08:55:16Z</time>
      </trkpt>
      <trkpt lat="47.64936" lon="3.72571">
        <ele>126.55</ele>
        <time>2013-04-28T08:55:22Z</time>
      </trkpt>
      <trkpt lat="47.64926" lon="3.72566">
        <ele>127.99</ele>
        <time>2013-04-28T08:55:31Z</time>
      </trkpt>
      <trkpt lat="47.6492" lon="3.72559">
        <ele>129.43</ele>
        <time>2013-04-28T08:55:38Z</time>
      </trkpt>
      <trkpt lat="47.64912" lon="3.72556">
        <ele>130.88</ele>
        <time>2013-04-28T08:55:45Z</time>
      </trkpt>
      <trkpt lat="47.64903" lon="3.72548">
        <ele>131.36</ele>
        <time>2013-04-28T08:55:52Z</time>
      </trkpt>
      <trkpt lat="47.64896" lon="3.72543">
        <ele>131.84</ele>
        <time>2013-04-28T08:55:57Z</time>
      </trkpt>
      <trkpt lat="47.64886" lon="3.72537">
        <ele>132.8</ele>
        <time>2013-04-28T08:56:05Z</time>
      </trkpt>
      <trkpt lat="47.64875" lon="3.72531">
        <ele>132.8</ele>
        <time>2013-04-28T08:56:12Z</time>
      </trkpt>
      <trkpt lat="47.64865" lon="3.72524">
        <ele>134.24</ele>
        <time>2013-04-28T08:56:21Z</time>
      </trkpt>
      <trkpt lat="47.64856" lon="3.72519">
        <ele>134.72</ele>
        <time>2013-04-28T08:56:30Z</time>
      </trkpt>
      <trkpt lat="47.64847" lon="3.72516">
        <ele>135.2</ele>
        <time>2013-04-28T08:56:37Z</time>
      </trkpt>
      <trkpt lat="47.64838" lon="3.72515">
        <ele>136.64</ele>
        <time>2013-04-28T08:56:44Z</time>
      </trkpt>
      <trkpt lat="47.64827" lon="3.72506">
        <ele>137.13</ele>
        <time>2013-04-28T08:56:53Z</time>
      </trkpt>
      <trkpt lat="47.64817" lon="3.72505">
        <ele>138.09</ele>
        <time>2013-04-28T08:57:02Z</time>
      </trkpt>
      <trkpt lat="47.64807" lon="3.72503">
        <ele>138.57</ele>
        <time>2013-04-28T08:57:08Z</time>
      </trkpt>
      <trkpt lat="47.64806" lon="3.72503">
        <ele>138.57</ele>
        <time>2013-04-28T08:57:09Z</time>
      </trkpt>
      <trkpt lat="47.64801" lon="3.72502">
        <ele>139.05</ele>
        <time>2013-04-28T08:57:13Z</time>
      </trkpt>
      <trkpt lat="47.64799" lon="3.72502">
        <ele>139.53</ele>
        <time>2013-04-28T08:57:15Z</time>
      </trkpt>
      <trkpt lat="47.64798" lon="3.72501">
        <ele>140.01</ele>
        <time>2013-04-28T08:57:16Z</time>
      </trkpt>
      <trkpt lat="47.64788" lon="3.725">
        <ele>140.97</ele>
        <time>2013-04-28T08:57:24Z</time>
      </trkpt>
      <trkpt lat="47.64786" lon="3.725">
        <ele>140.97</ele>
        <time>2013-04-28T08:57:27Z</time>
      </trkpt>
      <trkpt lat="47.64777" lon="3.72496">
        <ele>141.93</ele>
        <time>2013-04-28T08:57:34Z</time>
      </trkpt>
      <trkpt lat="47.64761" lon="3.72492">
        <ele>142.89</ele>
        <time>2013-04-28T08:57:43Z</time>
      </trkpt>
      <trkpt lat="47.6475" lon="3.72494">
        <ele>144.82</ele>
        <time>2013-04-28T08:57:51Z</time>
      </trkpt>
      <trkpt lat="47.64749" lon="3.72494">
        <ele>144.82</ele>
        <time>2013-04-28T08:57:52Z</time>
      </trkpt>
      <trkpt lat="47.64741" lon="3.72492">
        <ele>144.82</ele>
        <time>2013-04-28T08:57:59Z</time>
      </trkpt>
      <trkpt lat="47.64733" lon="3.72491">
        <ele>146.26</ele>
        <time>2013-04-28T08:58:05Z</time>
      </trkpt>
      <trkpt lat="47.64724" lon="3.72491">
        <ele>146.26</ele>
        <time>2013-04-28T08:58:12Z</time>
      </trkpt>
      <trkpt lat="47.64715" lon="3.72485">
        <ele>145.78</ele>
        <time>2013-04-28T08:58:17Z</time>
      </trkpt>
      <trkpt lat="47.647" lon="3.72486">
        <ele>145.78</ele>
        <time>2013-04-28T08:58:25Z</time>
      </trkpt>
      <trkpt lat="47.64696" lon="3.72488">
        <ele>145.78</ele>
        <time>2013-04-28T08:58:28Z</time>
      </trkpt>
      <trkpt lat="47.64685" lon="3.72489">
        <ele>145.78</ele>
        <time>2013-04-28T08:58:38Z</time>
      </trkpt>
      <trkpt lat="47.64672" lon="3.72492">
        <ele>145.78</ele>
        <time>2013-04-28T08:58:47Z</time>
      </trkpt>
      <trkpt lat="47.64663" lon="3.72492">
        <ele>145.78</ele>
        <time>2013-04-28T08:58:55Z</time>
      </trkpt>
      <trkpt lat="47.6465" lon="3.72494">
        <ele>145.78</ele>
        <time>2013-04-28T08:59:05Z</time>
      </trkpt>
      <trkpt lat="47.64635" lon="3.72504">
        <ele>144.82</ele>
        <time>2013-04-28T08:59:14Z</time>
      </trkpt>
      <trkpt lat="47.64621" lon="3.72508">
        <ele>143.85</ele>
        <time>2013-04-28T08:59:24Z</time>
      </trkpt>
      <trkpt lat="47.64611" lon="3.72515">
        <ele>144.34</ele>
        <time>2013-04-28T08:59:33Z</time>
      </trkpt>
      <trkpt lat="47.64596" lon="3.72521">
        <ele>143.85</ele>
        <time>2013-04-28T08:59:44Z</time>
      </trkpt>
      <trkpt lat="47.64582" lon="3.72529">
        <ele>142.89</ele>
        <time>2013-04-28T08:59:53Z</time>
      </trkpt>
      <trkpt lat="47.64572" lon="3.72535">
        <ele>142.89</ele>
        <time>2013-04-28T09:00:01Z</time>
      </trkpt>
      <trkpt lat="47.64562" lon="3.72539">
        <ele>143.37</ele>
        <time>2013-04-28T09:00:10Z</time>
      </trkpt>
      <trkpt lat="47.64548" lon="3.72547">
        <ele>143.37</ele>
        <time>2013-04-28T09:00:19Z</time>
      </trkpt>
      <trkpt lat="47.64536" lon="3.72554">
        <ele>143.85</ele>
        <time>2013-04-28T09:00:28Z</time>
      </trkpt>
      <trkpt lat="47.64524" lon="3.7256">
        <ele>143.85</ele>
        <time>2013-04-28T09:00:37Z</time>
      </trkpt>
      <trkpt lat="47.64514" lon="3.72567">
        <ele>143.85</ele>
        <time>2013-04-28T09:00:45Z</time>
      </trkpt>
      <trkpt lat="47.64501" lon="3.72578">
        <ele>143.85</ele>
        <time>2013-04-28T09:00:55Z</time>
      </trkpt>
      <trkpt lat="47.64488" lon="3.72585">
        <ele>143.85</ele>
        <time>2013-04-28T09:01:05Z</time>
      </trkpt>
      <trkpt lat="47.64477" lon="3.72593">
        <ele>143.85</ele>
        <time>2013-04-28T09:01:14Z</time>
      </trkpt>
      <trkpt lat="47.64467" lon="3.72599">
        <ele>142.89</ele>
        <time>2013-04-28T09:01:21Z</time>
      </trkpt>
      <trkpt lat="47.64455" lon="3.72611">
        <ele>141.93</ele>
        <time>2013-04-28T09:01:30Z</time>
      </trkpt>
      <trkpt lat="47.64445" lon="3.72619">
        <ele>140.97</ele>
        <time>2013-04-28T09:01:40Z</time>
      </trkpt>
      <trkpt lat="47.64435" lon="3.72629">
        <ele>140.49</ele>
        <time>2013-04-28T09:01:49Z</time>
      </trkpt>
      <trkpt lat="47.64428" lon="3.72635">
        <ele>140.97</ele>
        <time>2013-04-28T09:01:55Z</time>
      </trkpt>
      <trkpt lat="47.64416" lon="3.72647">
        <ele>140.01</ele>
        <time>2013-04-28T09:02:04Z</time>
      </trkpt>
      <trkpt lat="47.64407" lon="3.72656">
        <ele>140.01</ele>
        <time>2013-04-28T09:02:12Z</time>
      </trkpt>
      <trkpt lat="47.64397" lon="3.72665">
        <ele>139.05</ele>
        <time>2013-04-28T09:02:19Z</time>
      </trkpt>
      <trkpt lat="47.64386" lon="3.72679">
        <ele>137.13</ele>
        <time>2013-04-28T09:02:29Z</time>
      </trkpt>
      <trkpt lat="47.64376" lon="3.7269">
        <ele>136.64</ele>
        <time>2013-04-28T09:02:37Z</time>
      </trkpt>
      <trkpt lat="47.64367" lon="3.72705">
        <ele>133.76</ele>
        <time>2013-04-28T09:02:48Z</time>
      </trkpt>
      <trkpt lat="47.64358" lon="3.72719">
        <ele>132.8</ele>
        <time>2013-04-28T09:02:58Z</time>
      </trkpt>
      <trkpt lat="47.64347" lon="3.72731">
        <ele>131.84</ele>
        <time>2013-04-28T09:03:07Z</time>
      </trkpt>
      <trkpt lat="47.64342" lon="3.72739">
        <ele>131.84</ele>
        <time>2013-04-28T09:03:14Z</time>
      </trkpt>
      <trkpt lat="47.64334" lon="3.72757">
        <ele>131.36</ele>
        <time>2013-04-28T09:03:23Z</time>
      </trkpt>
      <trkpt lat="47.64328" lon="3.72769">
        <ele>130.88</ele>
        <time>2013-04-28T09:03:31Z</time>
      </trkpt>
      <trkpt lat="47.64316" lon="3.72789">
        <ele>129.92</ele>
        <time>2013-04-28T09:03:42Z</time>
      </trkpt>
      <trkpt lat="47.64307" lon="3.72802">
        <ele>129.43</ele>
        <time>2013-04-28T09:03:51Z</time>
      </trkpt>
      <trkpt lat="47.64301" lon="3.72813">
        <ele>128.95</ele>
        <time>2013-04-28T09:03:59Z</time>
      </trkpt>
      <trkpt lat="47.64292" lon="3.72828">
        <ele>127.99</ele>
        <time>2013-04-28T09:04:07Z</time>
      </trkpt>
      <trkpt lat="47.64282" lon="3.72838">
        <ele>128.95</ele>
        <time>2013-04-28T09:04:16Z</time>
      </trkpt>
      <trkpt lat="47.6427" lon="3.72847">
        <ele>128.47</ele>
        <time>2013-04-28T09:04:25Z</time>
      </trkpt>
      <trkpt lat="47.64259" lon="3.72853">
        <ele>127.99</ele>
        <time>2013-04-28T09:04:34Z</time>
      </trkpt>
      <trkpt lat="47.64245" lon="3.72853">
        <ele>127.03</ele>
        <time>2013-04-28T09:04:43Z</time>
      </trkpt>
      <trkpt lat="47.64232" lon="3.72853">
        <ele>125.59</ele>
        <time>2013-04-28T09:04:53Z</time>
      </trkpt>
      <trkpt lat="47.64222" lon="3.72847">
        <ele>124.63</ele>
        <time>2013-04-28T09:05:01Z</time>
      </trkpt>
      <trkpt lat="47.64215" lon="3.72839">
        <ele>122.22</ele>
        <time>2013-04-28T09:05:09Z</time>
      </trkpt>
      <trkpt lat="47.64205" lon="3.72833">
        <ele>120.78</ele>
        <time>2013-04-28T09:05:17Z</time>
      </trkpt>
      <trkpt lat="47.64198" lon="3.72839">
        <ele>119.82</ele>
        <time>2013-04-28T09:05:24Z</time>
      </trkpt>
      <trkpt lat="47.64195" lon="3.72844">
        <ele>119.34</ele>
        <time>2013-04-28T09:05:27Z</time>
      </trkpt>
      <trkpt lat="47.64194" lon="3.72855">
        <ele>119.34</ele>
        <time>2013-04-28T09:05:34Z</time>
      </trkpt>
      <trkpt lat="47.64195" lon="3.72858">
        <ele>119.34</ele>
        <time>2013-04-28T09:05:35Z</time>
      </trkpt>
      <trkpt lat="47.64195" lon="3.7286">
        <ele>119.34</ele>
        <time>2013-04-28T09:05:36Z</time>
      </trkpt>
      <trkpt lat="47.64194" lon="3.72874">
        <ele>119.82</ele>
        <time>2013-04-28T09:05:44Z</time>
      </trkpt>
      <trkpt lat="47.64197" lon="3.72883">
        <ele>119.34</ele>
        <time>2013-04-28T09:05:52Z</time>
      </trkpt>
      <trkpt lat="47.64194" lon="3.72899">
        <ele>118.38</ele>
        <time>2013-04-28T09:05:58Z</time>
      </trkpt>
      <trkpt lat="47.64195" lon="3.72912">
        <ele>118.38</ele>
        <time>2013-04-28T09:06:06Z</time>
      </trkpt>
      <trkpt lat="47.64189" lon="3.72934">
        <ele>118.86</ele>
        <time>2013-04-28T09:06:13Z</time>
      </trkpt>
      <trkpt lat="47.64182" lon="3.72949">
        <ele>117.9</ele>
        <time>2013-04-28T09:06:21Z</time>
      </trkpt>
      <trkpt lat="47.64175" lon="3.72961">
        <ele>117.9</ele>
        <time>2013-04-28T09:06:30Z</time>
      </trkpt>
      <trkpt lat="47.64168" lon="3.72975">
        <ele>117.9</ele>
        <time>2013-04-28T09:06:39Z</time>
      </trkpt>
      <trkpt lat="47.64162" lon="3.72988">
        <ele>117.42</ele>
        <time>2013-04-28T09:06:47Z</time>
      </trkpt>
      <trkpt lat="47.64157" lon="3.73002">
        <ele>116.94</ele>
        <time>2013-04-28T09:06:54Z</time>
      </trkpt>
      <trkpt lat="47.64151" lon="3.73017">
        <ele>115.5</ele>
        <time>2013-04-28T09:07:02Z</time>
      </trkpt>
      <trkpt lat="47.64145" lon="3.7303">
        <ele>115.5</ele>
        <time>2013-04-28T09:07:10Z</time>
      </trkpt>
      <trkpt lat="47.64139" lon="3.73043">
        <ele>115.01</ele>
        <time>2013-04-28T09:07:17Z</time>
      </trkpt>
      <trkpt lat="47.64132" lon="3.73055">
        <ele>115.01</ele>
        <time>2013-04-28T09:07:26Z</time>
      </trkpt>
      <trkpt lat="47.64125" lon="3.73065">
        <ele>114.05</ele>
        <time>2013-04-28T09:07:34Z</time>
      </trkpt>
      <trkpt lat="47.64119" lon="3.73079">
        <ele>113.57</ele>
        <time>2013-04-28T09:07:43Z</time>
      </trkpt>
      <trkpt lat="47.64113" lon="3.73093">
        <ele>114.05</ele>
        <time>2013-04-28T09:07:50Z</time>
      </trkpt>
      <trkpt lat="47.64107" lon="3.73103">
        <ele>113.57</ele>
        <time>2013-04-28T09:07:57Z</time>
      </trkpt>
      <trkpt lat="47.64103" lon="3.73111">
        <ele>113.09</ele>
        <time>2013-04-28T09:08:01Z</time>
      </trkpt>
      <trkpt lat="47.64098" lon="3.73121">
        <ele>113.09</ele>
        <time>2013-04-28T09:08:08Z</time>
      </trkpt>
      <trkpt lat="47.64094" lon="3.73128">
        <ele>113.09</ele>
        <time>2013-04-28T09:08:12Z</time>
      </trkpt>
      <trkpt lat="47.64093" lon="3.73132">
        <ele>113.57</ele>
        <time>2013-04-28T09:08:14Z</time>
      </trkpt>
      <trkpt lat="47.64085" lon="3.73145">
        <ele>113.57</ele>
        <time>2013-04-28T09:08:22Z</time>
      </trkpt>
      <trkpt lat="47.64079" lon="3.73151">
        <ele>113.57</ele>
        <time>2013-04-28T09:08:30Z</time>
      </trkpt>
      <trkpt lat="47.64073" lon="3.73159">
        <ele>113.09</ele>
        <time>2013-04-28T09:08:37Z</time>
      </trkpt>
      <trkpt lat="47.64066" lon="3.7317">
        <ele>113.57</ele>
        <time>2013-04-28T09:08:45Z</time>
      </trkpt>
      <trkpt lat="47.64057" lon="3.7318">
        <ele>114.05</ele>
        <time>2013-04-28T09:08:53Z</time>
      </trkpt>
      <trkpt lat="47.64049" lon="3.73192">
        <ele>113.57</ele>
        <time>2013-04-28T09:09:03Z</time>
      </trkpt>
      <trkpt lat="47.64047" lon="3.73205">
        <ele>113.57</ele>
        <time>2013-04-28T09:09:10Z</time>
      </trkpt>
      <trkpt lat="47.64037" lon="3.73214">
        <ele>113.09</ele>
        <time>2013-04-28T09:09:15Z</time>
      </trkpt>
      <trkpt lat="47.64029" lon="3.73222">
        <ele>114.05</ele>
        <time>2013-04-28T09:09:24Z</time>
      </trkpt>
      <trkpt lat="47.64022" lon="3.7323">
        <ele>114.05</ele>
        <time>2013-04-28T09:09:31Z</time>
      </trkpt>
      <trkpt lat="47.6402" lon="3.73235">
        <ele>114.53</ele>
        <time>2013-04-28T09:09:33Z</time>
      </trkpt>
      <trkpt lat="47.64012" lon="3.73245">
        <ele>114.05</ele>
        <time>2013-04-28T09:09:39Z</time>
      </trkpt>
      <trkpt lat="47.64006" lon="3.7325">
        <ele>113.57</ele>
        <time>2013-04-28T09:09:46Z</time>
      </trkpt>
      <trkpt lat="47.64002" lon="3.7326">
        <ele>114.05</ele>
        <time>2013-04-28T09:09:54Z</time>
      </trkpt>
      <trkpt lat="47.63996" lon="3.73271">
        <ele>114.05</ele>
        <time>2013-04-28T09:10:02Z</time>
      </trkpt>
      <trkpt lat="47.63993" lon="3.73273">
        <ele>114.53</ele>
        <time>2013-04-28T09:10:05Z</time>
      </trkpt>
      <trkpt lat="47.63989" lon="3.73278">
        <ele>113.09</ele>
        <time>2013-04-28T09:10:08Z</time>
      </trkpt>
      <trkpt lat="47.63985" lon="3.73286">
        <ele>115.01</ele>
        <time>2013-04-28T09:10:10Z</time>
      </trkpt>
      <trkpt lat="47.63977" lon="3.73299">
        <ele>114.05</ele>
        <time>2013-04-28T09:10:15Z</time>
      </trkpt>
      <trkpt lat="47.63967" lon="3.7331">
        <ele>115.5</ele>
        <time>2013-04-28T09:10:24Z</time>
      </trkpt>
      <trkpt lat="47.63955" lon="3.73312">
        <ele>115.5</ele>
        <time>2013-04-28T09:10:32Z</time>
      </trkpt>
      <trkpt lat="47.63944" lon="3.73318">
        <ele>115.98</ele>
        <time>2013-04-28T09:10:39Z</time>
      </trkpt>
      <trkpt lat="47.63937" lon="3.73328">
        <ele>116.46</ele>
        <time>2013-04-28T09:10:46Z</time>
      </trkpt>
      <trkpt lat="47.63929" lon="3.73338">
        <ele>115.5</ele>
        <time>2013-04-28T09:10:53Z</time>
      </trkpt>
      <trkpt lat="47.63923" lon="3.73345">
        <ele>115.5</ele>
        <time>2013-04-28T09:11:00Z</time>
      </trkpt>
      <trkpt lat="47.63914" lon="3.73349">
        <ele>116.46</ele>
        <time>2013-04-28T09:11:06Z</time>
      </trkpt>
      <trkpt lat="47.63902" lon="3.73357">
        <ele>116.46</ele>
        <time>2013-04-28T09:11:15Z</time>
      </trkpt>
      <trkpt lat="47.63891" lon="3.73364">
        <ele>116.94</ele>
        <time>2013-04-28T09:11:23Z</time>
      </trkpt>
      <trkpt lat="47.63879" lon="3.73373">
        <ele>116.46</ele>
        <time>2013-04-28T09:11:31Z</time>
      </trkpt>
      <trkpt lat="47.63871" lon="3.73379">
        <ele>115.5</ele>
        <time>2013-04-28T09:11:40Z</time>
      </trkpt>
      <trkpt lat="47.63865" lon="3.73383">
        <ele>115.98</ele>
        <time>2013-04-28T09:11:47Z</time>
      </trkpt>
      <trkpt lat="47.63856" lon="3.73389">
        <ele>115.98</ele>
        <time>2013-04-28T09:11:55Z</time>
      </trkpt>
      <trkpt lat="47.63846" lon="3.73402">
        <ele>116.46</ele>
        <time>2013-04-28T09:12:03Z</time>
      </trkpt>
      <trkpt lat="47.63834" lon="3.73413">
        <ele>115.98</ele>
        <time>2013-04-28T09:12:10Z</time>
      </trkpt>
      <trkpt lat="47.63823" lon="3.73425">
        <ele>115.98</ele>
        <time>2013-04-28T09:12:17Z</time>
      </trkpt>
      <trkpt lat="47.6381" lon="3.73439">
        <ele>116.46</ele>
        <time>2013-04-28T09:12:26Z</time>
      </trkpt>
      <trkpt lat="47.63802" lon="3.73449">
        <ele>115.98</ele>
        <time>2013-04-28T09:12:34Z</time>
      </trkpt>
      <trkpt lat="47.63795" lon="3.73457">
        <ele>116.46</ele>
        <time>2013-04-28T09:12:41Z</time>
      </trkpt>
      <trkpt lat="47.63789" lon="3.73464">
        <ele>117.42</ele>
        <time>2013-04-28T09:12:47Z</time>
      </trkpt>
      <trkpt lat="47.63782" lon="3.73472">
        <ele>116.94</ele>
        <time>2013-04-28T09:12:54Z</time>
      </trkpt>
      <trkpt lat="47.63775" lon="3.73482">
        <ele>116.46</ele>
        <time>2013-04-28T09:13:01Z</time>
      </trkpt>
      <trkpt lat="47.63772" lon="3.7349">
        <ele>116.94</ele>
        <time>2013-04-28T09:13:07Z</time>
      </trkpt>
      <trkpt lat="47.63771" lon="3.735">
        <ele>116.94</ele>
        <time>2013-04-28T09:13:11Z</time>
      </trkpt>
      <trkpt lat="47.63765" lon="3.73513">
        <ele>116.46</ele>
        <time>2013-04-28T09:13:18Z</time>
      </trkpt>
      <trkpt lat="47.63759" lon="3.73525">
        <ele>116.94</ele>
        <time>2013-04-28T09:13:26Z</time>
      </trkpt>
      <trkpt lat="47.63754" lon="3.73538">
        <ele>116.94</ele>
        <time>2013-04-28T09:13:33Z</time>
      </trkpt>
      <trkpt lat="47.63745" lon="3.73549">
        <ele>116.94</ele>
        <time>2013-04-28T09:13:41Z</time>
      </trkpt>
      <trkpt lat="47.63737" lon="3.73566">
        <ele>116.46</ele>
        <time>2013-04-28T09:13:50Z</time>
      </trkpt>
      <trkpt lat="47.6373" lon="3.73579">
        <ele>116.94</ele>
        <time>2013-04-28T09:13:56Z</time>
      </trkpt>
      <trkpt lat="47.63722" lon="3.73594">
        <ele>116.46</ele>
        <time>2013-04-28T09:14:05Z</time>
      </trkpt>
      <trkpt lat="47.63714" lon="3.73611">
        <ele>116.46</ele>
        <time>2013-04-28T09:14:13Z</time>
      </trkpt>
      <trkpt lat="47.63708" lon="3.73624">
        <ele>115.98</ele>
        <time>2013-04-28T09:14:20Z</time>
      </trkpt>
      <trkpt lat="47.63701" lon="3.73642">
        <ele>116.46</ele>
        <time>2013-04-28T09:14:29Z</time>
      </trkpt>
      <trkpt lat="47.63695" lon="3.7366">
        <ele>116.46</ele>
        <time>2013-04-28T09:14:37Z</time>
      </trkpt>
      <trkpt lat="47.6369" lon="3.73675">
        <ele>116.46</ele>
        <time>2013-04-28T09:14:45Z</time>
      </trkpt>
      <trkpt lat="47.63683" lon="3.7369">
        <ele>115.98</ele>
        <time>2013-04-28T09:14:55Z</time>
      </trkpt>
      <trkpt lat="47.63678" lon="3.73699">
        <ele>115.98</ele>
        <time>2013-04-28T09:15:02Z</time>
      </trkpt>
      <trkpt lat="47.63673" lon="3.73709">
        <ele>115.98</ele>
        <time>2013-04-28T09:15:10Z</time>
      </trkpt>
      <trkpt lat="47.63662" lon="3.73721">
        <ele>115.98</ele>
        <time>2013-04-28T09:15:17Z</time>
      </trkpt>
      <trkpt lat="47.63651" lon="3.73733">
        <ele>115.5</ele>
        <time>2013-04-28T09:15:25Z</time>
      </trkpt>
      <trkpt lat="47.63641" lon="3.73741">
        <ele>115.01</ele>
        <time>2013-04-28T09:15:33Z</time>
      </trkpt>
      <trkpt lat="47.63628" lon="3.73751">
        <ele>115.5</ele>
        <time>2013-04-28T09:15:43Z</time>
      </trkpt>
      <trkpt lat="47.6362" lon="3.73759">
        <ele>115.98</ele>
        <time>2013-04-28T09:15:50Z</time>
      </trkpt>
      <trkpt lat="47.63609" lon="3.73765">
        <ele>115.98</ele>
        <time>2013-04-28T09:15:59Z</time>
      </trkpt>
      <trkpt lat="47.63598" lon="3.73772">
        <ele>115.5</ele>
        <time>2013-04-28T09:16:08Z</time>
      </trkpt>
      <trkpt lat="47.63587" lon="3.73778">
        <ele>115.98</ele>
        <time>2013-04-28T09:16:17Z</time>
      </trkpt>
      <trkpt lat="47.63584" lon="3.73782">
        <ele>115.98</ele>
        <time>2013-04-28T09:16:20Z</time>
      </trkpt>
      <trkpt lat="47.63572" lon="3.73792">
        <ele>115.01</ele>
        <time>2013-04-28T09:16:29Z</time>
      </trkpt>
      <trkpt lat="47.63559" lon="3.73799">
        <ele>115.01</ele>
        <time>2013-04-28T09:16:38Z</time>
      </trkpt>
      <trkpt lat="47.63547" lon="3.73801">
        <ele>114.53</ele>
        <time>2013-04-28T09:16:45Z</time>
      </trkpt>
      <trkpt lat="47.63536" lon="3.73803">
        <ele>115.01</ele>
        <time>2013-04-28T09:16:52Z</time>
      </trkpt>
      <trkpt lat="47.63523" lon="3.73801">
        <ele>114.53</ele>
        <time>2013-04-28T09:17:01Z</time>
      </trkpt>
      <trkpt lat="47.63513" lon="3.73801">
        <ele>115.01</ele>
        <time>2013-04-28T09:17:09Z</time>
      </trkpt>
      <trkpt lat="47.63501" lon="3.738">
        <ele>115.5</ele>
        <time>2013-04-28T09:17:17Z</time>
      </trkpt>
      <trkpt lat="47.63496" lon="3.738">
        <ele>115.5</ele>
        <time>2013-04-28T09:17:21Z</time>
      </trkpt>
      <trkpt lat="47.63485" lon="3.738">
        <ele>115.98</ele>
        <time>2013-04-28T09:17:28Z</time>
      </trkpt>
      <trkpt lat="47.63473" lon="3.73801">
        <ele>116.94</ele>
        <time>2013-04-28T09:17:36Z</time>
      </trkpt>
      <trkpt lat="47.63463" lon="3.73801">
        <ele>117.42</ele>
        <time>2013-04-28T09:17:44Z</time>
      </trkpt>
      <trkpt lat="47.63452" lon="3.73801">
        <ele>118.38</ele>
        <time>2013-04-28T09:17:51Z</time>
      </trkpt>
      <trkpt lat="47.63437" lon="3.73807">
        <ele>118.86</ele>
        <time>2013-04-28T09:18:01Z</time>
      </trkpt>
      <trkpt lat="47.63428" lon="3.73807">
        <ele>118.86</ele>
        <time>2013-04-28T09:18:08Z</time>
      </trkpt>
      <trkpt lat="47.63417" lon="3.73807">
        <ele>119.34</ele>
        <time>2013-04-28T09:18:17Z</time>
      </trkpt>
      <trkpt lat="47.63404" lon="3.7381">
        <ele>118.86</ele>
        <time>2013-04-28T09:18:25Z</time>
      </trkpt>
      <trkpt lat="47.63392" lon="3.73817">
        <ele>117.9</ele>
        <time>2013-04-28T09:18:33Z</time>
      </trkpt>
      <trkpt lat="47.63377" lon="3.73824">
        <ele>117.42</ele>
        <time>2013-04-28T09:18:41Z</time>
      </trkpt>
      <trkpt lat="47.63362" lon="3.73832">
        <ele>116.46</ele>
        <time>2013-04-28T09:18:51Z</time>
      </trkpt>
      <trkpt lat="47.63349" lon="3.73838">
        <ele>115.5</ele>
        <time>2013-04-28T09:19:00Z</time>
      </trkpt>
      <trkpt lat="47.63337" lon="3.73848">
        <ele>115.5</ele>
        <time>2013-04-28T09:19:10Z</time>
      </trkpt>
      <trkpt lat="47.63329" lon="3.73855">
        <ele>115.01</ele>
        <time>2013-04-28T09:19:15Z</time>
      </trkpt>
      <trkpt lat="47.63316" lon="3.73861">
        <ele>114.53</ele>
        <time>2013-04-28T09:19:23Z</time>
      </trkpt>
      <trkpt lat="47.6331" lon="3.73865">
        <ele>115.01</ele>
        <time>2013-04-28T09:19:29Z</time>
      </trkpt>
      <trkpt lat="47.63302" lon="3.73871">
        <ele>115.01</ele>
        <time>2013-04-28T09:19:36Z</time>
      </trkpt>
      <trkpt lat="47.63289" lon="3.73879">
        <ele>114.53</ele>
        <time>2013-04-28T09:19:45Z</time>
      </trkpt>
      <trkpt lat="47.63272" lon="3.73889">
        <ele>114.53</ele>
        <time>2013-04-28T09:19:54Z</time>
      </trkpt>
      <trkpt lat="47.63262" lon="3.73891">
        <ele>114.05</ele>
        <time>2013-04-28T09:20:02Z</time>
      </trkpt>
      <trkpt lat="47.63252" lon="3.73898">
        <ele>114.05</ele>
        <time>2013-04-28T09:20:09Z</time>
      </trkpt>
      <trkpt lat="47.63238" lon="3.73903">
        <ele>114.05</ele>
        <time>2013-04-28T09:20:18Z</time>
      </trkpt>
      <trkpt lat="47.63228" lon="3.73905">
        <ele>114.53</ele>
        <time>2013-04-28T09:20:28Z</time>
      </trkpt>
      <trkpt lat="47.63214" lon="3.73905">
        <ele>114.05</ele>
        <time>2013-04-28T09:20:37Z</time>
      </trkpt>
      <trkpt lat="47.63201" lon="3.73908">
        <ele>115.01</ele>
        <time>2013-04-28T09:20:45Z</time>
      </trkpt>
      <trkpt lat="47.63197" lon="3.73907">
        <ele>115.01</ele>
        <time>2013-04-28T09:20:47Z</time>
      </trkpt>
      <trkpt lat="47.63185" lon="3.73909">
        <ele>114.53</ele>
        <time>2013-04-28T09:20:55Z</time>
      </trkpt>
      <trkpt lat="47.63171" lon="3.73907">
        <ele>115.01</ele>
        <time>2013-04-28T09:21:04Z</time>
      </trkpt>
      <trkpt lat="47.63163" lon="3.73909">
        <ele>114.53</ele>
        <time>2013-04-28T09:21:13Z</time>
      </trkpt>
      <trkpt lat="47.6315" lon="3.73909">
        <ele>114.53</ele>
        <time>2013-04-28T09:21:23Z</time>
      </trkpt>
      <trkpt lat="47.6314" lon="3.73906">
        <ele>114.53</ele>
        <time>2013-04-28T09:21:31Z</time>
      </trkpt>
      <trkpt lat="47.63128" lon="3.73905">
        <ele>114.53</ele>
        <time>2013-04-28T09:21:41Z</time>
      </trkpt>
      <trkpt lat="47.63111" lon="3.73904">
        <ele>115.01</ele>
        <time>2013-04-28T09:21:49Z</time>
      </trkpt>
      <trkpt lat="47.63091" lon="3.73902">
        <ele>114.53</ele>
        <time>2013-04-28T09:21:59Z</time>
      </trkpt>
      <trkpt lat="47.6308" lon="3.73895">
        <ele>114.53</ele>
        <time>2013-04-28T09:22:09Z</time>
      </trkpt>
      <trkpt lat="47.63071" lon="3.73889">
        <ele>114.53</ele>
        <time>2013-04-28T09:22:17Z</time>
      </trkpt>
      <trkpt lat="47.6306" lon="3.73883">
        <ele>114.05</ele>
        <time>2013-04-28T09:22:25Z</time>
      </trkpt>
      <trkpt lat="47.63052" lon="3.73879">
        <ele>114.53</ele>
        <time>2013-04-28T09:22:32Z</time>
      </trkpt>
      <trkpt lat="47.63043" lon="3.73873">
        <ele>114.05</ele>
        <time>2013-04-28T09:22:39Z</time>
      </trkpt>
      <trkpt lat="47.63037" lon="3.73871">
        <ele>114.53</ele>
        <time>2013-04-28T09:22:44Z</time>
      </trkpt>
      <trkpt lat="47.63029" lon="3.73869">
        <ele>113.57</ele>
        <time>2013-04-28T09:22:51Z</time>
      </trkpt>
      <trkpt lat="47.63014" lon="3.7386">
        <ele>113.57</ele>
        <time>2013-04-28T09:22:59Z</time>
      </trkpt>
      <trkpt lat="47.63001" lon="3.73851">
        <ele>114.05</ele>
        <time>2013-04-28T09:23:08Z</time>
      </trkpt>
      <trkpt lat="47.62991" lon="3.73847">
        <ele>114.05</ele>
        <time>2013-04-28T09:23:15Z</time>
      </trkpt>
      <trkpt lat="47.62976" lon="3.73838">
        <ele>113.57</ele>
        <time>2013-04-28T09:23:23Z</time>
      </trkpt>
      <trkpt lat="47.62974" lon="3.73837">
        <ele>113.57</ele>
        <time>2013-04-28T09:23:24Z</time>
      </trkpt>
      <trkpt lat="47.62965" lon="3.73835">
        <ele>114.05</ele>
        <time>2013-04-28T09:23:29Z</time>
      </trkpt>
      <trkpt lat="47.62962" lon="3.73833">
        <ele>113.57</ele>
        <time>2013-04-28T09:23:31Z</time>
      </trkpt>
      <trkpt lat="47.62947" lon="3.73829">
        <ele>113.09</ele>
        <time>2013-04-28T09:23:41Z</time>
      </trkpt>
      <trkpt lat="47.62935" lon="3.7382">
        <ele>113.09</ele>
        <time>2013-04-28T09:23:50Z</time>
      </trkpt>
      <trkpt lat="47.62924" lon="3.73814">
        <ele>112.61</ele>
        <time>2013-04-28T09:23:59Z</time>
      </trkpt>
      <trkpt lat="47.62914" lon="3.73811">
        <ele>113.57</ele>
        <time>2013-04-28T09:24:07Z</time>
      </trkpt>
      <trkpt lat="47.62892" lon="3.73798">
        <ele>113.57</ele>
        <time>2013-04-28T09:24:19Z</time>
      </trkpt>
      <trkpt lat="47.62877" lon="3.7379">
        <ele>112.61</ele>
        <time>2013-04-28T09:24:28Z</time>
      </trkpt>
      <trkpt lat="47.6286" lon="3.73772">
        <ele>113.09</ele>
        <time>2013-04-28T09:24:36Z</time>
      </trkpt>
      <trkpt lat="47.62846" lon="3.7376">
        <ele>113.09</ele>
        <time>2013-04-28T09:24:45Z</time>
      </trkpt>
      <trkpt lat="47.62829" lon="3.73755">
        <ele>113.09</ele>
        <time>2013-04-28T09:24:55Z</time>
      </trkpt>
      <trkpt lat="47.62819" lon="3.73754">
        <ele>113.09</ele>
        <time>2013-04-28T09:25:02Z</time>
      </trkpt>
      <trkpt lat="47.62806" lon="3.73752">
        <ele>113.09</ele>
        <time>2013-04-28T09:25:11Z</time>
      </trkpt>
      <trkpt lat="47.62792" lon="3.73751">
        <ele>113.09</ele>
        <time>2013-04-28T09:25:19Z</time>
      </trkpt>
      <trkpt lat="47.62782" lon="3.7375">
        <ele>113.09</ele>
        <time>2013-04-28T09:25:26Z</time>
      </trkpt>
      <trkpt lat="47.62771" lon="3.7375">
        <ele>113.09</ele>
        <time>2013-04-28T09:25:34Z</time>
      </trkpt>
      <trkpt lat="47.62757" lon="3.7375">
        <ele>113.09</ele>
        <time>2013-04-28T09:25:43Z</time>
      </trkpt>
      <trkpt lat="47.62749" lon="3.7375">
        <ele>113.09</ele>
        <time>2013-04-28T09:25:47Z</time>
      </trkpt>
      <trkpt lat="47.62739" lon="3.73751">
        <ele>112.61</ele>
        <time>2013-04-28T09:25:55Z</time>
      </trkpt>
      <trkpt lat="47.62726" lon="3.73749">
        <ele>112.61</ele>
        <time>2013-04-28T09:26:04Z</time>
      </trkpt>
      <trkpt lat="47.62713" lon="3.73754">
        <ele>113.09</ele>
        <time>2013-04-28T09:26:14Z</time>
      </trkpt>
      <trkpt lat="47.62702" lon="3.73752">
        <ele>112.13</ele>
        <time>2013-04-28T09:26:21Z</time>
      </trkpt>
      <trkpt lat="47.62697" lon="3.73754">
        <ele>113.09</ele>
        <time>2013-04-28T09:26:24Z</time>
      </trkpt>
      <trkpt lat="47.62686" lon="3.73754">
        <ele>112.61</ele>
        <time>2013-04-28T09:26:32Z</time>
      </trkpt>
      <trkpt lat="47.62676" lon="3.73756">
        <ele>112.13</ele>
        <time>2013-04-28T09:26:40Z</time>
      </trkpt>
      <trkpt lat="47.62667" lon="3.73758">
        <ele>112.13</ele>
        <time>2013-04-28T09:26:46Z</time>
      </trkpt>
      <trkpt lat="47.62653" lon="3.73758">
        <ele>112.13</ele>
        <time>2013-04-28T09:26:56Z</time>
      </trkpt>
      <trkpt lat="47.62642" lon="3.73761">
        <ele>111.65</ele>
        <time>2013-04-28T09:27:06Z</time>
      </trkpt>
      <trkpt lat="47.62637" lon="3.73761">
        <ele>111.65</ele>
        <time>2013-04-28T09:27:11Z</time>
      </trkpt>
      <trkpt lat="47.62625" lon="3.73758">
        <ele>112.13</ele>
        <time>2013-04-28T09:27:19Z</time>
      </trkpt>
      <trkpt lat="47.62611" lon="3.73752">
        <ele>111.65</ele>
        <time>2013-04-28T09:27:29Z</time>
      </trkpt>
      <trkpt lat="47.62597" lon="3.7375">
        <ele>111.65</ele>
        <time>2013-04-28T09:27:39Z</time>
      </trkpt>
      <trkpt lat="47.62586" lon="3.73753">
        <ele>111.17</ele>
        <time>2013-04-28T09:27:46Z</time>
      </trkpt>
      <trkpt lat="47.62569" lon="3.73751">
        <ele>111.65</ele>
        <time>2013-04-28T09:27:55Z</time>
      </trkpt>
      <trkpt lat="47.62551" lon="3.73743">
        <ele>111.17</ele>
        <time>2013-04-28T09:28:04Z</time>
      </trkpt>
      <trkpt lat="47.62535" lon="3.73736">
        <ele>111.17</ele>
        <time>2013-04-28T09:28:12Z</time>
      </trkpt>
      <trkpt lat="47.62528" lon="3.73738">
        <ele>111.17</ele>
        <time>2013-04-28T09:28:17Z</time>
      </trkpt>
      <trkpt lat="47.62518" lon="3.73739">
        <ele>111.17</ele>
        <time>2013-04-28T09:28:25Z</time>
      </trkpt>
      <trkpt lat="47.62507" lon="3.73743">
        <ele>110.69</ele>
        <time>2013-04-28T09:28:33Z</time>
      </trkpt>
      <trkpt lat="47.62494" lon="3.73749">
        <ele>111.17</ele>
        <time>2013-04-28T09:28:43Z</time>
      </trkpt>
      <trkpt lat="47.62483" lon="3.73755">
        <ele>111.17</ele>
        <time>2013-04-28T09:28:51Z</time>
      </trkpt>
      <trkpt lat="47.62472" lon="3.73764">
        <ele>111.17</ele>
        <time>2013-04-28T09:28:59Z</time>
      </trkpt>
      <trkpt lat="47.62462" lon="3.73772">
        <ele>111.17</ele>
        <time>2013-04-28T09:29:06Z</time>
      </trkpt>
      <trkpt lat="47.62447" lon="3.73781">
        <ele>111.65</ele>
        <time>2013-04-28T09:29:15Z</time>
      </trkpt>
      <trkpt lat="47.62439" lon="3.73787">
        <ele>111.65</ele>
        <time>2013-04-28T09:29:22Z</time>
      </trkpt>
      <trkpt lat="47.62428" lon="3.73795">
        <ele>112.13</ele>
        <time>2013-04-28T09:29:30Z</time>
      </trkpt>
      <trkpt lat="47.62418" lon="3.73801">
        <ele>112.61</ele>
        <time>2013-04-28T09:29:39Z</time>
      </trkpt>
      <trkpt lat="47.624" lon="3.73809">
        <ele>111.65</ele>
        <time>2013-04-28T09:29:50Z</time>
      </trkpt>
      <trkpt lat="47.62388" lon="3.73816">
        <ele>112.61</ele>
        <time>2013-04-28T09:29:58Z</time>
      </trkpt>
      <trkpt lat="47.62382" lon="3.73819">
        <ele>112.13</ele>
        <time>2013-04-28T09:30:03Z</time>
      </trkpt>
      <trkpt lat="47.62377" lon="3.73823">
        <ele>112.61</ele>
        <time>2013-04-28T09:30:07Z</time>
      </trkpt>
      <trkpt lat="47.62358" lon="3.73832">
        <ele>113.09</ele>
        <time>2013-04-28T09:30:20Z</time>
      </trkpt>
      <trkpt lat="47.62351" lon="3.73844">
        <ele>113.57</ele>
        <time>2013-04-28T09:30:27Z</time>
      </trkpt>
      <trkpt lat="47.62348" lon="3.73857">
        <ele>114.05</ele>
        <time>2013-04-28T09:30:34Z</time>
      </trkpt>
      <trkpt lat="47.62338" lon="3.73878">
        <ele>113.09</ele>
        <time>2013-04-28T09:30:44Z</time>
      </trkpt>
      <trkpt lat="47.62329" lon="3.73891">
        <ele>112.13</ele>
        <time>2013-04-28T09:30:54Z</time>
      </trkpt>
      <trkpt lat="47.62317" lon="3.739">
        <ele>112.61</ele>
        <time>2013-04-28T09:31:04Z</time>
      </trkpt>
      <trkpt lat="47.62304" lon="3.73905">
        <ele>113.09</ele>
        <time>2013-04-28T09:31:12Z</time>
      </trkpt>
      <trkpt lat="47.62293" lon="3.73916">
        <ele>112.61</ele>
        <time>2013-04-28T09:31:20Z</time>
      </trkpt>
      <trkpt lat="47.62288" lon="3.73927">
        <ele>113.09</ele>
        <time>2013-04-28T09:31:29Z</time>
      </trkpt>
      <trkpt lat="47.62292" lon="3.7393">
        <ele>111.65</ele>
        <time>2013-04-28T09:31:36Z</time>
      </trkpt>
      <trkpt lat="47.62298" lon="3.73943">
        <ele>110.69</ele>
        <time>2013-04-28T09:31:44Z</time>
      </trkpt>
      <trkpt lat="47.62307" lon="3.73955">
        <ele>109.73</ele>
        <time>2013-04-28T09:31:53Z</time>
      </trkpt>
      <trkpt lat="47.62309" lon="3.73959">
        <ele>110.21</ele>
        <time>2013-04-28T09:31:55Z</time>
      </trkpt>
      <trkpt lat="47.62306" lon="3.73967">
        <ele>110.21</ele>
        <time>2013-04-28T09:31:59Z</time>
      </trkpt>
      <trkpt lat="47.62301" lon="3.7398">
        <ele>110.21</ele>
        <time>2013-04-28T09:32:08Z</time>
      </trkpt>
      <trkpt lat="47.62294" lon="3.73993">
        <ele>110.21</ele>
        <time>2013-04-28T09:32:15Z</time>
      </trkpt>
      <trkpt lat="47.62287" lon="3.74006">
        <ele>110.21</ele>
        <time>2013-04-28T09:32:23Z</time>
      </trkpt>
      <trkpt lat="47.62282" lon="3.74016">
        <ele>111.17</ele>
        <time>2013-04-28T09:32:29Z</time>
      </trkpt>
      <trkpt lat="47.62274" lon="3.74025">
        <ele>111.17</ele>
        <time>2013-04-28T09:32:37Z</time>
      </trkpt>
      <trkpt lat="47.62273" lon="3.74026">
        <ele>111.17</ele>
        <time>2013-04-28T09:32:38Z</time>
      </trkpt>
      <trkpt lat="47.62266" lon="3.74038">
        <ele>111.65</ele>
        <time>2013-04-28T09:32:46Z</time>
      </trkpt>
      <trkpt lat="47.62257" lon="3.74054">
        <ele>112.13</ele>
        <time>2013-04-28T09:32:54Z</time>
      </trkpt>
      <trkpt lat="47.62251" lon="3.74066">
        <ele>112.13</ele>
        <time>2013-04-28T09:33:02Z</time>
      </trkpt>
      <trkpt lat="47.62243" lon="3.74082">
        <ele>112.61</ele>
        <time>2013-04-28T09:33:10Z</time>
      </trkpt>
      <trkpt lat="47.62237" lon="3.74095">
        <ele>111.65</ele>
        <time>2013-04-28T09:33:19Z</time>
      </trkpt>
      <trkpt lat="47.62236" lon="3.74101">
        <ele>111.65</ele>
        <time>2013-04-28T09:33:23Z</time>
      </trkpt>
      <trkpt lat="47.62227" lon="3.74114">
        <ele>112.13</ele>
        <time>2013-04-28T09:33:31Z</time>
      </trkpt>
      <trkpt lat="47.62218" lon="3.74131">
        <ele>111.65</ele>
        <time>2013-04-28T09:33:39Z</time>
      </trkpt>
      <trkpt lat="47.62215" lon="3.74136">
        <ele>111.65</ele>
        <time>2013-04-28T09:33:42Z</time>
      </trkpt>
      <trkpt lat="47.62214" lon="3.74138">
        <ele>111.65</ele>
        <time>2013-04-28T09:33:43Z</time>
      </trkpt>
      <trkpt lat="47.62205" lon="3.7415">
        <ele>112.13</ele>
        <time>2013-04-28T09:33:51Z</time>
      </trkpt>
      <trkpt lat="47.62198" lon="3.74164">
        <ele>111.65</ele>
        <time>2013-04-28T09:33:59Z</time>
      </trkpt>
      <trkpt lat="47.62196" lon="3.74177">
        <ele>112.13</ele>
        <time>2013-04-28T09:34:07Z</time>
      </trkpt>
      <trkpt lat="47.6219" lon="3.74188">
        <ele>112.61</ele>
        <time>2013-04-28T09:34:16Z</time>
      </trkpt>
      <trkpt lat="47.6218" lon="3.74202">
        <ele>112.61</ele>
        <time>2013-04-28T09:34:24Z</time>
      </trkpt>
      <trkpt lat="47.62172" lon="3.74214">
        <ele>112.61</ele>
        <time>2013-04-28T09:34:32Z</time>
      </trkpt>
      <trkpt lat="47.62165" lon="3.74226">
        <ele>112.13</ele>
        <time>2013-04-28T09:34:40Z</time>
      </trkpt>
      <trkpt lat="47.62154" lon="3.74239">
        <ele>113.57</ele>
        <time>2013-04-28T09:34:50Z</time>
      </trkpt>
      <trkpt lat="47.62139" lon="3.74255">
        <ele>113.09</ele>
        <time>2013-04-28T09:34:59Z</time>
      </trkpt>
      <trkpt lat="47.62124" lon="3.74267">
        <ele>113.09</ele>
        <time>2013-04-28T09:35:09Z</time>
      </trkpt>
      <trkpt lat="47.62116" lon="3.74275">
        <ele>113.09</ele>
        <time>2013-04-28T09:35:16Z</time>
      </trkpt>
      <trkpt lat="47.62109" lon="3.74282">
        <ele>113.57</ele>
        <time>2013-04-28T09:35:23Z</time>
      </trkpt>
      <trkpt lat="47.62104" lon="3.74287">
        <ele>113.09</ele>
        <time>2013-04-28T09:35:28Z</time>
      </trkpt>
      <trkpt lat="47.62102" lon="3.74288">
        <ele>113.57</ele>
        <time>2013-04-28T09:35:29Z</time>
      </trkpt>
      <trkpt lat="47.62101" lon="3.74289">
        <ele>113.57</ele>
        <time>2013-04-28T09:35:30Z</time>
      </trkpt>
      <trkpt lat="47.62088" lon="3.74299">
        <ele>113.57</ele>
        <time>2013-04-28T09:35:38Z</time>
      </trkpt>
      <trkpt lat="47.62076" lon="3.7431">
        <ele>113.57</ele>
        <time>2013-04-28T09:35:47Z</time>
      </trkpt>
      <trkpt lat="47.62065" lon="3.74319">
        <ele>113.57</ele>
        <time>2013-04-28T09:35:55Z</time>
      </trkpt>
      <trkpt lat="47.62055" lon="3.74327">
        <ele>113.57</ele>
        <time>2013-04-28T09:36:04Z</time>
      </trkpt>
      <trkpt lat="47.62047" lon="3.74336">
        <ele>113.57</ele>
        <time>2013-04-28T09:36:11Z</time>
      </trkpt>
      <trkpt lat="47.62035" lon="3.74343">
        <ele>113.57</ele>
        <time>2013-04-28T09:36:20Z</time>
      </trkpt>
      <trkpt lat="47.62023" lon="3.74355">
        <ele>113.09</ele>
        <time>2013-04-28T09:36:29Z</time>
      </trkpt>
      <trkpt lat="47.62022" lon="3.74356">
        <ele>113.57</ele>
        <time>2013-04-28T09:36:30Z</time>
      </trkpt>
      <trkpt lat="47.6201" lon="3.74369">
        <ele>113.09</ele>
        <time>2013-04-28T09:36:40Z</time>
      </trkpt>
      <trkpt lat="47.62006" lon="3.74375">
        <ele>113.09</ele>
        <time>2013-04-28T09:36:46Z</time>
      </trkpt>
      <trkpt lat="47.62005" lon="3.7438">
        <ele>113.57</ele>
        <time>2013-04-28T09:36:48Z</time>
      </trkpt>
      <trkpt lat="47.62006" lon="3.74385">
        <ele>113.57</ele>
        <time>2013-04-28T09:36:50Z</time>
      </trkpt>
      <trkpt lat="47.62006" lon="3.74388">
        <ele>113.09</ele>
        <time>2013-04-28T09:36:51Z</time>
      </trkpt>
      <trkpt lat="47.62009" lon="3.74397">
        <ele>113.57</ele>
        <time>2013-04-28T09:36:56Z</time>
      </trkpt>
      <trkpt lat="47.6201" lon="3.74406">
        <ele>113.57</ele>
        <time>2013-04-28T09:37:03Z</time>
      </trkpt>
      <trkpt lat="47.62009" lon="3.74412">
        <ele>113.57</ele>
        <time>2013-04-28T09:37:10Z</time>
      </trkpt>
      <trkpt lat="47.62008" lon="3.74414">
        <ele>113.09</ele>
        <time>2013-04-28T09:37:12Z</time>
      </trkpt>
      <trkpt lat="47.62003" lon="3.74418">
        <ele>113.09</ele>
        <time>2013-04-28T09:37:19Z</time>
      </trkpt>
      <trkpt lat="47.61994" lon="3.74426">
        <ele>113.57</ele>
        <time>2013-04-28T09:37:28Z</time>
      </trkpt>
      <trkpt lat="47.61979" lon="3.74431">
        <ele>112.61</ele>
        <time>2013-04-28T09:37:37Z</time>
      </trkpt>
      <trkpt lat="47.61974" lon="3.74421">
        <ele>113.57</ele>
        <time>2013-04-28T09:37:44Z</time>
      </trkpt>
      <trkpt lat="47.61969" lon="3.74414">
        <ele>113.57</ele>
        <time>2013-04-28T09:37:49Z</time>
      </trkpt>
      <trkpt lat="47.61968" lon="3.74412">
        <ele>113.09</ele>
        <time>2013-04-28T09:37:50Z</time>
      </trkpt>
      <trkpt lat="47.61959" lon="3.74394">
        <ele>113.57</ele>
        <time>2013-04-28T09:37:59Z</time>
      </trkpt>
      <trkpt lat="47.61955" lon="3.74378">
        <ele>113.57</ele>
        <time>2013-04-28T09:38:07Z</time>
      </trkpt>
      <trkpt lat="47.61952" lon="3.74364">
        <ele>113.57</ele>
        <time>2013-04-28T09:38:15Z</time>
      </trkpt>
      <trkpt lat="47.61947" lon="3.74344">
        <ele>114.05</ele>
        <time>2013-04-28T09:38:24Z</time>
      </trkpt>
      <trkpt lat="47.6194" lon="3.7432">
        <ele>114.05</ele>
        <time>2013-04-28T09:38:34Z</time>
      </trkpt>
      <trkpt lat="47.61935" lon="3.74304">
        <ele>113.57</ele>
        <time>2013-04-28T09:38:42Z</time>
      </trkpt>
      <trkpt lat="47.6193" lon="3.74284">
        <ele>113.57</ele>
        <time>2013-04-28T09:38:51Z</time>
      </trkpt>
      <trkpt lat="47.61925" lon="3.74271">
        <ele>113.57</ele>
        <time>2013-04-28T09:38:58Z</time>
      </trkpt>
      <trkpt lat="47.61918" lon="3.74251">
        <ele>113.57</ele>
        <time>2013-04-28T09:39:08Z</time>
      </trkpt>
      <trkpt lat="47.61913" lon="3.7423">
        <ele>113.57</ele>
        <time>2013-04-28T09:39:18Z</time>
      </trkpt>
      <trkpt lat="47.61911" lon="3.7422">
        <ele>113.57</ele>
        <time>2013-04-28T09:39:23Z</time>
      </trkpt>
      <trkpt lat="47.6191" lon="3.74218">
        <ele>114.05</ele>
        <time>2013-04-28T09:39:24Z</time>
      </trkpt>
      <trkpt lat="47.6191" lon="3.74216">
        <ele>114.05</ele>
        <time>2013-04-28T09:39:25Z</time>
      </trkpt>
      <trkpt lat="47.61903" lon="3.74202">
        <ele>114.05</ele>
        <time>2013-04-28T09:39:34Z</time>
      </trkpt>
      <trkpt lat="47.61898" lon="3.74181">
        <ele>114.05</ele>
        <time>2013-04-28T09:39:44Z</time>
      </trkpt>
      <trkpt lat="47.61883" lon="3.74175">
        <ele>114.53</ele>
        <time>2013-04-28T09:39:53Z</time>
      </trkpt>
      <trkpt lat="47.61873" lon="3.74166">
        <ele>114.53</ele>
        <time>2013-04-28T09:40:02Z</time>
      </trkpt>
      <trkpt lat="47.6187" lon="3.74156">
        <ele>115.5</ele>
        <time>2013-04-28T09:40:09Z</time>
      </trkpt>
      <trkpt lat="47.61869" lon="3.74154">
        <ele>115.01</ele>
        <time>2013-04-28T09:40:10Z</time>
      </trkpt>
      <trkpt lat="47.61864" lon="3.74146">
        <ele>115.5</ele>
        <time>2013-04-28T09:40:16Z</time>
      </trkpt>
      <trkpt lat="47.61853" lon="3.74143">
        <ele>114.53</ele>
        <time>2013-04-28T09:40:24Z</time>
      </trkpt>
      <trkpt lat="47.61851" lon="3.74143">
        <ele>119.34</ele>
        <time>2013-04-28T09:40:25Z</time>
      </trkpt>
      <trkpt lat="47.61849" lon="3.74142">
        <ele>117.9</ele>
        <time>2013-04-28T09:40:26Z</time>
      </trkpt>
      <trkpt lat="47.61841" lon="3.74133">
        <ele>117.9</ele>
        <time>2013-04-28T09:40:33Z</time>
      </trkpt>
      <trkpt lat="47.61835" lon="3.7413">
        <ele>118.86</ele>
        <time>2013-04-28T09:40:39Z</time>
      </trkpt>
      <trkpt lat="47.61833" lon="3.7413">
        <ele>118.86</ele>
        <time>2013-04-28T09:40:40Z</time>
      </trkpt>
      <trkpt lat="47.61823" lon="3.7413">
        <ele>119.82</ele>
        <time>2013-04-28T09:40:48Z</time>
      </trkpt>
      <trkpt lat="47.61815" lon="3.74132">
        <ele>119.34</ele>
        <time>2013-04-28T09:40:56Z</time>
      </trkpt>
      <trkpt lat="47.61811" lon="3.74133">
        <ele>118.38</ele>
        <time>2013-04-28T09:40:59Z</time>
      </trkpt>
      <trkpt lat="47.61787" lon="3.74138">
        <ele>120.3</ele>
        <time>2013-04-28T09:41:12Z</time>
      </trkpt>
      <trkpt lat="47.6177" lon="3.74146">
        <ele>120.78</ele>
        <time>2013-04-28T09:41:23Z</time>
      </trkpt>
      <trkpt lat="47.61758" lon="3.74157">
        <ele>121.26</ele>
        <time>2013-04-28T09:41:33Z</time>
      </trkpt>
      <trkpt lat="47.61747" lon="3.74165">
        <ele>121.26</ele>
        <time>2013-04-28T09:41:41Z</time>
      </trkpt>
      <trkpt lat="47.61737" lon="3.74175">
        <ele>121.26</ele>
        <time>2013-04-28T09:41:50Z</time>
      </trkpt>
      <trkpt lat="47.61724" lon="3.74182">
        <ele>120.3</ele>
        <time>2013-04-28T09:41:59Z</time>
      </trkpt>
      <trkpt lat="47.61723" lon="3.74183">
        <ele>122.22</ele>
        <time>2013-04-28T09:42:00Z</time>
      </trkpt>
      <trkpt lat="47.61721" lon="3.74184">
        <ele>122.22</ele>
        <time>2013-04-28T09:42:01Z</time>
      </trkpt>
      <trkpt lat="47.6172" lon="3.74186">
        <ele>121.74</ele>
        <time>2013-04-28T09:42:02Z</time>
      </trkpt>
      <trkpt lat="47.61705" lon="3.74193">
        <ele>122.22</ele>
        <time>2013-04-28T09:42:12Z</time>
      </trkpt>
      <trkpt lat="47.61695" lon="3.74197">
        <ele>121.74</ele>
        <time>2013-04-28T09:42:20Z</time>
      </trkpt>
      <trkpt lat="47.61683" lon="3.74205">
        <ele>120.3</ele>
        <time>2013-04-28T09:42:29Z</time>
      </trkpt>
      <trkpt lat="47.61673" lon="3.74216">
        <ele>119.82</ele>
        <time>2013-04-28T09:42:36Z</time>
      </trkpt>
      <trkpt lat="47.61667" lon="3.74227">
        <ele>119.34</ele>
        <time>2013-04-28T09:42:43Z</time>
      </trkpt>
      <trkpt lat="47.61664" lon="3.74231">
        <ele>118.86</ele>
        <time>2013-04-28T09:42:48Z</time>
      </trkpt>
      <trkpt lat="47.61662" lon="3.74231">
        <ele>119.34</ele>
        <time>2013-04-28T09:42:49Z</time>
      </trkpt>
      <trkpt lat="47.6166" lon="3.74231">
        <ele>119.34</ele>
        <time>2013-04-28T09:42:50Z</time>
      </trkpt>
      <trkpt lat="47.61658" lon="3.7423">
        <ele>119.34</ele>
        <time>2013-04-28T09:42:51Z</time>
      </trkpt>
      <trkpt lat="47.61657" lon="3.7423">
        <ele>119.34</ele>
        <time>2013-04-28T09:42:52Z</time>
      </trkpt>
      <trkpt lat="47.61656" lon="3.7423">
        <ele>119.82</ele>
        <time>2013-04-28T09:42:53Z</time>
      </trkpt>
      <trkpt lat="47.61654" lon="3.7423">
        <ele>120.3</ele>
        <time>2013-04-28T09:42:54Z</time>
      </trkpt>
      <trkpt lat="47.61653" lon="3.7423">
        <ele>120.3</ele>
        <time>2013-04-28T09:42:55Z</time>
      </trkpt>
      <trkpt lat="47.6165" lon="3.74227">
        <ele>119.82</ele>
        <time>2013-04-28T09:42:59Z</time>
      </trkpt>
      <trkpt lat="47.61649" lon="3.74226">
        <ele>119.82</ele>
        <time>2013-04-28T09:43:00Z</time>
      </trkpt>
      <trkpt lat="47.61638" lon="3.74223">
        <ele>121.74</ele>
        <time>2013-04-28T09:43:07Z</time>
      </trkpt>
      <trkpt lat="47.61629" lon="3.7422">
        <ele>122.22</ele>
        <time>2013-04-28T09:43:14Z</time>
      </trkpt>
      <trkpt lat="47.61622" lon="3.74219">
        <ele>125.11</ele>
        <time>2013-04-28T09:43:23Z</time>
      </trkpt>
      <trkpt lat="47.61616" lon="3.74218">
        <ele>127.03</ele>
        <time>2013-04-28T09:43:32Z</time>
      </trkpt>
      <trkpt lat="47.61609" lon="3.74216">
        <ele>128.47</ele>
        <time>2013-04-28T09:43:41Z</time>
      </trkpt>
      <trkpt lat="47.61604" lon="3.74215">
        <ele>128.95</ele>
        <time>2013-04-28T09:43:44Z</time>
      </trkpt>
      <trkpt lat="47.61594" lon="3.74211">
        <ele>129.92</ele>
        <time>2013-04-28T09:43:50Z</time>
      </trkpt>
      <trkpt lat="47.61587" lon="3.74207">
        <ele>131.36</ele>
        <time>2013-04-28T09:43:58Z</time>
      </trkpt>
      <trkpt lat="47.61583" lon="3.74206">
        <ele>133.28</ele>
        <time>2013-04-28T09:44:05Z</time>
      </trkpt>
      <trkpt lat="47.61577" lon="3.74202">
        <ele>134.72</ele>
        <time>2013-04-28T09:44:13Z</time>
      </trkpt>
      <trkpt lat="47.61571" lon="3.742">
        <ele>135.68</ele>
        <time>2013-04-28T09:44:20Z</time>
      </trkpt>
      <trkpt lat="47.61562" lon="3.74194">
        <ele>137.13</ele>
        <time>2013-04-28T09:44:28Z</time>
      </trkpt>
      <trkpt lat="47.61554" lon="3.74191">
        <ele>139.05</ele>
        <time>2013-04-28T09:44:36Z</time>
      </trkpt>
      <trkpt lat="47.61548" lon="3.74189">
        <ele>140.97</ele>
        <time>2013-04-28T09:44:43Z</time>
      </trkpt>
      <trkpt lat="47.6154" lon="3.74187">
        <ele>140.97</ele>
        <time>2013-04-28T09:44:51Z</time>
      </trkpt>
      <trkpt lat="47.61541" lon="3.74184">
        <ele>141.45</ele>
        <time>2013-04-28T09:44:58Z</time>
      </trkpt>
      <trkpt lat="47.6154" lon="3.7418">
        <ele>141.45</ele>
        <time>2013-04-28T09:45:17Z</time>
      </trkpt>
      <trkpt lat="47.61533" lon="3.74178">
        <ele>141.93</ele>
        <time>2013-04-28T09:45:30Z</time>
      </trkpt>
      <trkpt lat="47.61521" lon="3.74178">
        <ele>143.85</ele>
        <time>2013-04-28T09:45:39Z</time>
      </trkpt>
      <trkpt lat="47.61514" lon="3.74181">
        <ele>145.78</ele>
        <time>2013-04-28T09:45:47Z</time>
      </trkpt>
      <trkpt lat="47.61505" lon="3.74182">
        <ele>147.7</ele>
        <time>2013-04-28T09:45:56Z</time>
      </trkpt>
      <trkpt lat="47.615" lon="3.7418">
        <ele>147.22</ele>
        <time>2013-04-28T09:46:11Z</time>
      </trkpt>
      <trkpt lat="47.61499" lon="3.74179">
        <ele>147.7</ele>
        <time>2013-04-28T09:46:27Z</time>
      </trkpt>
      <trkpt lat="47.61493" lon="3.74179">
        <ele>148.18</ele>
        <time>2013-04-28T09:46:36Z</time>
      </trkpt>
      <trkpt lat="47.61484" lon="3.74175">
        <ele>150.58</ele>
        <time>2013-04-28T09:46:45Z</time>
      </trkpt>
      <trkpt lat="47.61477" lon="3.74176">
        <ele>151.54</ele>
        <time>2013-04-28T09:46:53Z</time>
      </trkpt>
      <trkpt lat="47.6147" lon="3.74176">
        <ele>152.99</ele>
        <time>2013-04-28T09:46:59Z</time>
      </trkpt>
      <trkpt lat="47.61465" lon="3.7418">
        <ele>153.95</ele>
        <time>2013-04-28T09:47:07Z</time>
      </trkpt>
      <trkpt lat="47.61458" lon="3.74181">
        <ele>155.39</ele>
        <time>2013-04-28T09:47:14Z</time>
      </trkpt>
      <trkpt lat="47.61451" lon="3.74182">
        <ele>156.83</ele>
        <time>2013-04-28T09:47:22Z</time>
      </trkpt>
      <trkpt lat="47.61441" lon="3.74187">
        <ele>158.27</ele>
        <time>2013-04-28T09:47:30Z</time>
      </trkpt>
      <trkpt lat="47.61433" lon="3.74193">
        <ele>160.2</ele>
        <time>2013-04-28T09:47:38Z</time>
      </trkpt>
      <trkpt lat="47.61426" lon="3.74198">
        <ele>161.16</ele>
        <time>2013-04-28T09:47:45Z</time>
      </trkpt>
      <trkpt lat="47.61421" lon="3.742">
        <ele>162.6</ele>
        <time>2013-04-28T09:47:54Z</time>
      </trkpt>
      <trkpt lat="47.61413" lon="3.74203">
        <ele>163.56</ele>
        <time>2013-04-28T09:48:01Z</time>
      </trkpt>
      <trkpt lat="47.61403" lon="3.74209">
        <ele>165</ele>
        <time>2013-04-28T09:48:11Z</time>
      </trkpt>
      <trkpt lat="47.61394" lon="3.74216">
        <ele>166.45</ele>
        <time>2013-04-28T09:48:20Z</time>
      </trkpt>
      <trkpt lat="47.61386" lon="3.74222">
        <ele>167.41</ele>
        <time>2013-04-28T09:48:28Z</time>
      </trkpt>
      <trkpt lat="47.61377" lon="3.74225">
        <ele>167.89</ele>
        <time>2013-04-28T09:48:36Z</time>
      </trkpt>
      <trkpt lat="47.6137" lon="3.74229">
        <ele>168.85</ele>
        <time>2013-04-28T09:48:43Z</time>
      </trkpt>
      <trkpt lat="47.61357" lon="3.74233">
        <ele>169.81</ele>
        <time>2013-04-28T09:48:55Z</time>
      </trkpt>
      <trkpt lat="47.61345" lon="3.74237">
        <ele>170.77</ele>
        <time>2013-04-28T09:49:02Z</time>
      </trkpt>
      <trkpt lat="47.61334" lon="3.7424">
        <ele>171.25</ele>
        <time>2013-04-28T09:49:11Z</time>
      </trkpt>
      <trkpt lat="47.61324" lon="3.74244">
        <ele>171.73</ele>
        <time>2013-04-28T09:49:20Z</time>
      </trkpt>
      <trkpt lat="47.61314" lon="3.74247">
        <ele>172.69</ele>
        <time>2013-04-28T09:49:28Z</time>
      </trkpt>
      <trkpt lat="47.61304" lon="3.74252">
        <ele>173.17</ele>
        <time>2013-04-28T09:49:37Z</time>
      </trkpt>
      <trkpt lat="47.61294" lon="3.74255">
        <ele>173.66</ele>
        <time>2013-04-28T09:49:46Z</time>
      </trkpt>
      <trkpt lat="47.61282" lon="3.74258">
        <ele>174.14</ele>
        <time>2013-04-28T09:49:55Z</time>
      </trkpt>
      <trkpt lat="47.6127" lon="3.74264">
        <ele>175.1</ele>
        <time>2013-04-28T09:50:04Z</time>
      </trkpt>
      <trkpt lat="47.61264" lon="3.74265">
        <ele>175.58</ele>
        <time>2013-04-28T09:50:11Z</time>
      </trkpt>
      <trkpt lat="47.61254" lon="3.74268">
        <ele>176.06</ele>
        <time>2013-04-28T09:50:20Z</time>
      </trkpt>
      <trkpt lat="47.61243" lon="3.74269">
        <ele>176.06</ele>
        <time>2013-04-28T09:50:28Z</time>
      </trkpt>
      <trkpt lat="47.61228" lon="3.74274">
        <ele>177.02</ele>
        <time>2013-04-28T09:50:37Z</time>
      </trkpt>
      <trkpt lat="47.61217" lon="3.74278">
        <ele>177.5</ele>
        <time>2013-04-28T09:50:45Z</time>
      </trkpt>
      <trkpt lat="47.61206" lon="3.74285">
        <ele>178.46</ele>
        <time>2013-04-28T09:50:54Z</time>
      </trkpt>
      <trkpt lat="47.61203" lon="3.74287">
        <ele>178.46</ele>
        <time>2013-04-28T09:50:57Z</time>
      </trkpt>
      <trkpt lat="47.61202" lon="3.74291">
        <ele>178.46</ele>
        <time>2013-04-28T09:51:00Z</time>
      </trkpt>
      <trkpt lat="47.612" lon="3.74297">
        <ele>178.94</ele>
        <time>2013-04-28T09:51:06Z</time>
      </trkpt>
      <trkpt lat="47.61197" lon="3.74305">
        <ele>179.42</ele>
        <time>2013-04-28T09:51:13Z</time>
      </trkpt>
      <trkpt lat="47.61192" lon="3.74315">
        <ele>180.38</ele>
        <time>2013-04-28T09:51:20Z</time>
      </trkpt>
      <trkpt lat="47.6119" lon="3.74322">
        <ele>180.87</ele>
        <time>2013-04-28T09:51:28Z</time>
      </trkpt>
      <trkpt lat="47.61184" lon="3.74332">
        <ele>181.35</ele>
        <time>2013-04-28T09:51:33Z</time>
      </trkpt>
      <trkpt lat="47.61176" lon="3.74349">
        <ele>181.83</ele>
        <time>2013-04-28T09:51:40Z</time>
      </trkpt>
      <trkpt lat="47.61172" lon="3.74362">
        <ele>181.83</ele>
        <time>2013-04-28T09:51:48Z</time>
      </trkpt>
      <trkpt lat="47.61168" lon="3.7437">
        <ele>182.79</ele>
        <time>2013-04-28T09:51:56Z</time>
      </trkpt>
      <trkpt lat="47.61159" lon="3.74389">
        <ele>182.31</ele>
        <time>2013-04-28T09:52:04Z</time>
      </trkpt>
      <trkpt lat="47.61155" lon="3.74396">
        <ele>182.31</ele>
        <time>2013-04-28T09:52:10Z</time>
      </trkpt>
      <trkpt lat="47.61153" lon="3.74402">
        <ele>182.79</ele>
        <time>2013-04-28T09:52:17Z</time>
      </trkpt>
      <trkpt lat="47.61147" lon="3.74412">
        <ele>182.31</ele>
        <time>2013-04-28T09:52:24Z</time>
      </trkpt>
      <trkpt lat="47.61143" lon="3.74423">
        <ele>182.79</ele>
        <time>2013-04-28T09:52:31Z</time>
      </trkpt>
      <trkpt lat="47.61138" lon="3.74437">
        <ele>182.79</ele>
        <time>2013-04-28T09:52:39Z</time>
      </trkpt>
      <trkpt lat="47.61127" lon="3.7446">
        <ele>182.79</ele>
        <time>2013-04-28T09:52:47Z</time>
      </trkpt>
      <trkpt lat="47.61118" lon="3.74477">
        <ele>183.75</ele>
        <time>2013-04-28T09:52:55Z</time>
      </trkpt>
      <trkpt lat="47.61116" lon="3.74478">
        <ele>182.79</ele>
        <time>2013-04-28T09:52:57Z</time>
      </trkpt>
      <trkpt lat="47.61114" lon="3.74479">
        <ele>184.23</ele>
        <time>2013-04-28T09:52:59Z</time>
      </trkpt>
      <trkpt lat="47.61116" lon="3.74488">
        <ele>183.27</ele>
        <time>2013-04-28T09:53:05Z</time>
      </trkpt>
      <trkpt lat="47.61113" lon="3.74497">
        <ele>183.75</ele>
        <time>2013-04-28T09:53:12Z</time>
      </trkpt>
      <trkpt lat="47.61109" lon="3.74504">
        <ele>183.27</ele>
        <time>2013-04-28T09:53:16Z</time>
      </trkpt>
      <trkpt lat="47.61098" lon="3.74524">
        <ele>183.75</ele>
        <time>2013-04-28T09:53:23Z</time>
      </trkpt>
      <trkpt lat="47.61091" lon="3.74537">
        <ele>183.75</ele>
        <time>2013-04-28T09:53:30Z</time>
      </trkpt>
      <trkpt lat="47.61086" lon="3.7455">
        <ele>183.27</ele>
        <time>2013-04-28T09:53:38Z</time>
      </trkpt>
      <trkpt lat="47.61077" lon="3.74566">
        <ele>183.27</ele>
        <time>2013-04-28T09:53:47Z</time>
      </trkpt>
      <trkpt lat="47.61071" lon="3.7458">
        <ele>182.79</ele>
        <time>2013-04-28T09:53:54Z</time>
      </trkpt>
      <trkpt lat="47.61065" lon="3.74595">
        <ele>181.83</ele>
        <time>2013-04-28T09:54:02Z</time>
      </trkpt>
      <trkpt lat="47.6106" lon="3.74608">
        <ele>181.35</ele>
        <time>2013-04-28T09:54:10Z</time>
      </trkpt>
      <trkpt lat="47.61052" lon="3.74626">
        <ele>179.9</ele>
        <time>2013-04-28T09:54:19Z</time>
      </trkpt>
      <trkpt lat="47.61046" lon="3.74639">
        <ele>179.9</ele>
        <time>2013-04-28T09:54:26Z</time>
      </trkpt>
      <trkpt lat="47.61042" lon="3.74648">
        <ele>178.94</ele>
        <time>2013-04-28T09:54:33Z</time>
      </trkpt>
      <trkpt lat="47.61035" lon="3.74662">
        <ele>177.5</ele>
        <time>2013-04-28T09:54:41Z</time>
      </trkpt>
      <trkpt lat="47.61029" lon="3.74679">
        <ele>176.06</ele>
        <time>2013-04-28T09:54:49Z</time>
      </trkpt>
      <trkpt lat="47.61023" lon="3.74691">
        <ele>173.66</ele>
        <time>2013-04-28T09:54:57Z</time>
      </trkpt>
      <trkpt lat="47.61019" lon="3.74701">
        <ele>170.29</ele>
        <time>2013-04-28T09:55:06Z</time>
      </trkpt>
      <trkpt lat="47.61019" lon="3.74711">
        <ele>168.85</ele>
        <time>2013-04-28T09:55:15Z</time>
      </trkpt>
      <trkpt lat="47.61021" lon="3.74716">
        <ele>167.41</ele>
        <time>2013-04-28T09:55:24Z</time>
      </trkpt>
      <trkpt lat="47.61021" lon="3.74719">
        <ele>165</ele>
        <time>2013-04-28T09:55:34Z</time>
      </trkpt>
      <trkpt lat="47.6102" lon="3.74724">
        <ele>162.6</ele>
        <time>2013-04-28T09:55:46Z</time>
      </trkpt>
      <trkpt lat="47.61014" lon="3.74734">
        <ele>160.2</ele>
        <time>2013-04-28T09:55:57Z</time>
      </trkpt>
      <trkpt lat="47.61013" lon="3.7474">
        <ele>157.31</ele>
        <time>2013-04-28T09:56:07Z</time>
      </trkpt>
      <trkpt lat="47.61011" lon="3.74745">
        <ele>155.39</ele>
        <time>2013-04-28T09:56:14Z</time>
      </trkpt>
      <trkpt lat="47.61007" lon="3.74746">
        <ele>152.99</ele>
        <time>2013-04-28T09:56:22Z</time>
      </trkpt>
      <trkpt lat="47.61005" lon="3.74749">
        <ele>150.58</ele>
        <time>2013-04-28T09:56:33Z</time>
      </trkpt>
      <trkpt lat="47.61003" lon="3.7475">
        <ele>148.66</ele>
        <time>2013-04-28T09:56:40Z</time>
      </trkpt>
      <trkpt lat="47.60998" lon="3.74759">
        <ele>146.26</ele>
        <time>2013-04-28T09:56:47Z</time>
      </trkpt>
      <trkpt lat="47.60994" lon="3.74763">
        <ele>144.82</ele>
        <time>2013-04-28T09:56:50Z</time>
      </trkpt>
      <trkpt lat="47.60988" lon="3.74772">
        <ele>145.3</ele>
        <time>2013-04-28T09:56:59Z</time>
      </trkpt>
      <trkpt lat="47.60983" lon="3.74782">
        <ele>145.3</ele>
        <time>2013-04-28T09:57:06Z</time>
      </trkpt>
      <trkpt lat="47.60983" lon="3.74778">
        <ele>146.26</ele>
        <time>2013-04-28T09:57:15Z</time>
      </trkpt>
      <trkpt lat="47.60978" lon="3.74785">
        <ele>146.74</ele>
        <time>2013-04-28T09:57:23Z</time>
      </trkpt>
      <trkpt lat="47.60971" lon="3.74795">
        <ele>150.1</ele>
        <time>2013-04-28T09:57:31Z</time>
      </trkpt>
      <trkpt lat="47.60967" lon="3.74803">
        <ele>151.06</ele>
        <time>2013-04-28T09:57:38Z</time>
      </trkpt>
      <trkpt lat="47.60962" lon="3.74812">
        <ele>152.99</ele>
        <time>2013-04-28T09:57:45Z</time>
      </trkpt>
      <trkpt lat="47.60958" lon="3.7482">
        <ele>154.91</ele>
        <time>2013-04-28T09:57:52Z</time>
      </trkpt>
      <trkpt lat="47.60957" lon="3.74823">
        <ele>156.35</ele>
        <time>2013-04-28T09:57:59Z</time>
      </trkpt>
      <trkpt lat="47.60953" lon="3.74832">
        <ele>156.83</ele>
        <time>2013-04-28T09:58:07Z</time>
      </trkpt>
      <trkpt lat="47.60946" lon="3.74843">
        <ele>159.24</ele>
        <time>2013-04-28T09:58:15Z</time>
      </trkpt>
      <trkpt lat="47.60939" lon="3.74855">
        <ele>160.68</ele>
        <time>2013-04-28T09:58:22Z</time>
      </trkpt>
      <trkpt lat="47.60935" lon="3.74863">
        <ele>162.6</ele>
        <time>2013-04-28T09:58:29Z</time>
      </trkpt>
      <trkpt lat="47.60932" lon="3.74871">
        <ele>165.48</ele>
        <time>2013-04-28T09:58:36Z</time>
      </trkpt>
      <trkpt lat="47.6093" lon="3.74878">
        <ele>166.93</ele>
        <time>2013-04-28T09:58:42Z</time>
      </trkpt>
      <trkpt lat="47.60928" lon="3.74886">
        <ele>168.85</ele>
        <time>2013-04-28T09:58:49Z</time>
      </trkpt>
      <trkpt lat="47.60922" lon="3.74899">
        <ele>171.25</ele>
        <time>2013-04-28T09:58:59Z</time>
      </trkpt>
      <trkpt lat="47.6092" lon="3.74901">
        <ele>171.73</ele>
        <time>2013-04-28T09:59:00Z</time>
      </trkpt>
      <trkpt lat="47.60915" lon="3.74909">
        <ele>172.69</ele>
        <time>2013-04-28T09:59:07Z</time>
      </trkpt>
      <trkpt lat="47.60909" lon="3.74922">
        <ele>174.14</ele>
        <time>2013-04-28T09:59:16Z</time>
      </trkpt>
      <trkpt lat="47.60901" lon="3.74935">
        <ele>174.62</ele>
        <time>2013-04-28T09:59:27Z</time>
      </trkpt>
      <trkpt lat="47.60896" lon="3.74947">
        <ele>175.1</ele>
        <time>2013-04-28T09:59:35Z</time>
      </trkpt>
      <trkpt lat="47.60895" lon="3.7495">
        <ele>175.1</ele>
        <time>2013-04-28T09:59:37Z</time>
      </trkpt>
      <trkpt lat="47.60894" lon="3.74952">
        <ele>175.1</ele>
        <time>2013-04-28T09:59:38Z</time>
      </trkpt>
      <trkpt lat="47.60886" lon="3.74965">
        <ele>175.1</ele>
        <time>2013-04-28T09:59:45Z</time>
      </trkpt>
      <trkpt lat="47.60879" lon="3.74978">
        <ele>174.62</ele>
        <time>2013-04-28T09:59:53Z</time>
      </trkpt>
      <trkpt lat="47.60874" lon="3.74988">
        <ele>174.14</ele>
        <time>2013-04-28T10:00:00Z</time>
      </trkpt>
      <trkpt lat="47.60868" lon="3.74998">
        <ele>172.69</ele>
        <time>2013-04-28T10:00:08Z</time>
      </trkpt>
      <trkpt lat="47.60863" lon="3.75007">
        <ele>171.73</ele>
        <time>2013-04-28T10:00:14Z</time>
      </trkpt>
      <trkpt lat="47.60855" lon="3.75019">
        <ele>170.77</ele>
        <time>2013-04-28T10:00:21Z</time>
      </trkpt>
      <trkpt lat="47.60854" lon="3.75021">
        <ele>170.77</ele>
        <time>2013-04-28T10:00:22Z</time>
      </trkpt>
      <trkpt lat="47.60846" lon="3.75035">
        <ele>168.37</ele>
        <time>2013-04-28T10:00:30Z</time>
      </trkpt>
      <trkpt lat="47.6084" lon="3.75044">
        <ele>166.45</ele>
        <time>2013-04-28T10:00:38Z</time>
      </trkpt>
      <trkpt lat="47.60831" lon="3.75048">
        <ele>164.04</ele>
        <time>2013-04-28T10:00:46Z</time>
      </trkpt>
      <trkpt lat="47.60821" lon="3.75048">
        <ele>162.6</ele>
        <time>2013-04-28T10:00:55Z</time>
      </trkpt>
      <trkpt lat="47.60813" lon="3.75058">
        <ele>160.2</ele>
        <time>2013-04-28T10:01:02Z</time>
      </trkpt>
      <trkpt lat="47.60804" lon="3.75063">
        <ele>157.31</ele>
        <time>2013-04-28T10:01:12Z</time>
      </trkpt>
      <trkpt lat="47.60799" lon="3.75067">
        <ele>154.91</ele>
        <time>2013-04-28T10:01:18Z</time>
      </trkpt>
      <trkpt lat="47.60791" lon="3.75076">
        <ele>152.51</ele>
        <time>2013-04-28T10:01:26Z</time>
      </trkpt>
      <trkpt lat="47.6079" lon="3.75078">
        <ele>152.03</ele>
        <time>2013-04-28T10:01:27Z</time>
      </trkpt>
      <trkpt lat="47.60789" lon="3.7508">
        <ele>151.54</ele>
        <time>2013-04-28T10:01:28Z</time>
      </trkpt>
      <trkpt lat="47.60785" lon="3.75087">
        <ele>149.62</ele>
        <time>2013-04-28T10:01:33Z</time>
      </trkpt>
      <trkpt lat="47.60777" lon="3.75103">
        <ele>146.26</ele>
        <time>2013-04-28T10:01:43Z</time>
      </trkpt>
      <trkpt lat="47.60772" lon="3.75117">
        <ele>144.82</ele>
        <time>2013-04-28T10:01:51Z</time>
      </trkpt>
      <trkpt lat="47.60771" lon="3.7513">
        <ele>142.89</ele>
        <time>2013-04-28T10:01:59Z</time>
      </trkpt>
      <trkpt lat="47.60766" lon="3.75144">
        <ele>140.49</ele>
        <time>2013-04-28T10:02:08Z</time>
      </trkpt>
      <trkpt lat="47.60762" lon="3.75158">
        <ele>138.09</ele>
        <time>2013-04-28T10:02:17Z</time>
      </trkpt>
      <trkpt lat="47.60762" lon="3.7516">
        <ele>136.64</ele>
        <time>2013-04-28T10:02:18Z</time>
      </trkpt>
      <trkpt lat="47.60763" lon="3.75165">
        <ele>137.13</ele>
        <time>2013-04-28T10:02:20Z</time>
      </trkpt>
      <trkpt lat="47.60763" lon="3.75175">
        <ele>137.13</ele>
        <time>2013-04-28T10:02:25Z</time>
      </trkpt>
      <trkpt lat="47.60765" lon="3.75178">
        <ele>135.68</ele>
        <time>2013-04-28T10:02:27Z</time>
      </trkpt>
      <trkpt lat="47.60763" lon="3.75188">
        <ele>134.72</ele>
        <time>2013-04-28T10:02:37Z</time>
      </trkpt>
      <trkpt lat="47.60762" lon="3.75201">
        <ele>132.32</ele>
        <time>2013-04-28T10:02:45Z</time>
      </trkpt>
      <trkpt lat="47.60759" lon="3.75212">
        <ele>130.88</ele>
        <time>2013-04-28T10:02:53Z</time>
      </trkpt>
      <trkpt lat="47.60757" lon="3.75214">
        <ele>130.88</ele>
        <time>2013-04-28T10:02:54Z</time>
      </trkpt>
      <trkpt lat="47.60755" lon="3.75216">
        <ele>129.92</ele>
        <time>2013-04-28T10:02:55Z</time>
      </trkpt>
      <trkpt lat="47.60744" lon="3.75224">
        <ele>128.95</ele>
        <time>2013-04-28T10:03:02Z</time>
      </trkpt>
      <trkpt lat="47.60737" lon="3.75226">
        <ele>128.95</ele>
        <time>2013-04-28T10:03:07Z</time>
      </trkpt>
      <trkpt lat="47.60725" lon="3.75232">
        <ele>127.51</ele>
        <time>2013-04-28T10:03:15Z</time>
      </trkpt>
      <trkpt lat="47.60714" lon="3.75236">
        <ele>126.55</ele>
        <time>2013-04-28T10:03:23Z</time>
      </trkpt>
      <trkpt lat="47.60702" lon="3.75242">
        <ele>125.59</ele>
        <time>2013-04-28T10:03:30Z</time>
      </trkpt>
      <trkpt lat="47.60699" lon="3.75251">
        <ele>125.59</ele>
        <time>2013-04-28T10:03:35Z</time>
      </trkpt>
      <trkpt lat="47.607" lon="3.75253">
        <ele>125.59</ele>
        <time>2013-04-28T10:03:36Z</time>
      </trkpt>
      <trkpt lat="47.60701" lon="3.75255">
        <ele>125.11</ele>
        <time>2013-04-28T10:03:37Z</time>
      </trkpt>
      <trkpt lat="47.60701" lon="3.75258">
        <ele>125.11</ele>
        <time>2013-04-28T10:03:38Z</time>
      </trkpt>
      <trkpt lat="47.60702" lon="3.7526">
        <ele>125.59</ele>
        <time>2013-04-28T10:03:39Z</time>
      </trkpt>
      <trkpt lat="47.60702" lon="3.75262">
        <ele>126.07</ele>
        <time>2013-04-28T10:03:40Z</time>
      </trkpt>
      <trkpt lat="47.60703" lon="3.75264">
        <ele>125.11</ele>
        <time>2013-04-28T10:03:41Z</time>
      </trkpt>
      <trkpt lat="47.60704" lon="3.75266">
        <ele>125.59</ele>
        <time>2013-04-28T10:03:42Z</time>
      </trkpt>
      <trkpt lat="47.60704" lon="3.75268">
        <ele>125.11</ele>
        <time>2013-04-28T10:03:43Z</time>
      </trkpt>
      <trkpt lat="47.60705" lon="3.7527">
        <ele>125.11</ele>
        <time>2013-04-28T10:03:44Z</time>
      </trkpt>
      <trkpt lat="47.60706" lon="3.75272">
        <ele>125.11</ele>
        <time>2013-04-28T10:03:45Z</time>
      </trkpt>
      <trkpt lat="47.60706" lon="3.75273">
        <ele>125.11</ele>
        <time>2013-04-28T10:03:46Z</time>
      </trkpt>
      <trkpt lat="47.60709" lon="3.75284">
        <ele>124.15</ele>
        <time>2013-04-28T10:03:53Z</time>
      </trkpt>
      <trkpt lat="47.60715" lon="3.75298">
        <ele>121.74</ele>
        <time>2013-04-28T10:04:02Z</time>
      </trkpt>
      <trkpt lat="47.60717" lon="3.75313">
        <ele>120.3</ele>
        <time>2013-04-28T10:04:10Z</time>
      </trkpt>
      <trkpt lat="47.60721" lon="3.75324">
        <ele>118.38</ele>
        <time>2013-04-28T10:04:18Z</time>
      </trkpt>
      <trkpt lat="47.60715" lon="3.75337">
        <ele>117.42</ele>
        <time>2013-04-28T10:04:26Z</time>
      </trkpt>
      <trkpt lat="47.60713" lon="3.75339">
        <ele>117.9</ele>
        <time>2013-04-28T10:04:27Z</time>
      </trkpt>
      <trkpt lat="47.60712" lon="3.75341">
        <ele>117.9</ele>
        <time>2013-04-28T10:04:28Z</time>
      </trkpt>
      <trkpt lat="47.60711" lon="3.75344">
        <ele>117.9</ele>
        <time>2013-04-28T10:04:29Z</time>
      </trkpt>
      <trkpt lat="47.6071" lon="3.75345">
        <ele>117.9</ele>
        <time>2013-04-28T10:04:30Z</time>
      </trkpt>
      <trkpt lat="47.60709" lon="3.75346">
        <ele>117.9</ele>
        <time>2013-04-28T10:04:31Z</time>
      </trkpt>
      <trkpt lat="47.60697" lon="3.75355">
        <ele>117.42</ele>
        <time>2013-04-28T10:04:41Z</time>
      </trkpt>
      <trkpt lat="47.60683" lon="3.75365">
        <ele>117.42</ele>
        <time>2013-04-28T10:04:51Z</time>
      </trkpt>
      <trkpt lat="47.60669" lon="3.75376">
        <ele>117.9</ele>
        <time>2013-04-28T10:05:01Z</time>
      </trkpt>
      <trkpt lat="47.60658" lon="3.75386">
        <ele>117.9</ele>
        <time>2013-04-28T10:05:11Z</time>
      </trkpt>
      <trkpt lat="47.60645" lon="3.75396">
        <ele>118.38</ele>
        <time>2013-04-28T10:05:21Z</time>
      </trkpt>
      <trkpt lat="47.60632" lon="3.75405">
        <ele>117.42</ele>
        <time>2013-04-28T10:05:31Z</time>
      </trkpt>
      <trkpt lat="47.60621" lon="3.75415">
        <ele>118.38</ele>
        <time>2013-04-28T10:05:40Z</time>
      </trkpt>
      <trkpt lat="47.6061" lon="3.75423">
        <ele>117.9</ele>
        <time>2013-04-28T10:05:49Z</time>
      </trkpt>
      <trkpt lat="47.60596" lon="3.75433">
        <ele>118.38</ele>
        <time>2013-04-28T10:05:59Z</time>
      </trkpt>
      <trkpt lat="47.60582" lon="3.75443">
        <ele>118.38</ele>
        <time>2013-04-28T10:06:09Z</time>
      </trkpt>
      <trkpt lat="47.6057" lon="3.75453">
        <ele>118.38</ele>
        <time>2013-04-28T10:06:19Z</time>
      </trkpt>
      <trkpt lat="47.60555" lon="3.75461">
        <ele>118.38</ele>
        <time>2013-04-28T10:06:29Z</time>
      </trkpt>
      <trkpt lat="47.60542" lon="3.75469">
        <ele>118.86</ele>
        <time>2013-04-28T10:06:38Z</time>
      </trkpt>
      <trkpt lat="47.60525" lon="3.75476">
        <ele>118.86</ele>
        <time>2013-04-28T10:06:49Z</time>
      </trkpt>
      <trkpt lat="47.60512" lon="3.75484">
        <ele>118.38</ele>
        <time>2013-04-28T10:06:58Z</time>
      </trkpt>
      <trkpt lat="47.60497" lon="3.75488">
        <ele>118.86</ele>
        <time>2013-04-28T10:07:07Z</time>
      </trkpt>
      <trkpt lat="47.60484" lon="3.75492">
        <ele>118.38</ele>
        <time>2013-04-28T10:07:17Z</time>
      </trkpt>
      <trkpt lat="47.60472" lon="3.75493">
        <ele>119.34</ele>
        <time>2013-04-28T10:07:26Z</time>
      </trkpt>
      <trkpt lat="47.60458" lon="3.75495">
        <ele>119.82</ele>
        <time>2013-04-28T10:07:35Z</time>
      </trkpt>
      <trkpt lat="47.60445" lon="3.75497">
        <ele>120.78</ele>
        <time>2013-04-28T10:07:44Z</time>
      </trkpt>
      <trkpt lat="47.60435" lon="3.75498">
        <ele>120.78</ele>
        <time>2013-04-28T10:07:52Z</time>
      </trkpt>
      <trkpt lat="47.6043" lon="3.75499">
        <ele>120.78</ele>
        <time>2013-04-28T10:07:55Z</time>
      </trkpt>
      <trkpt lat="47.6042" lon="3.75503">
        <ele>121.26</ele>
        <time>2013-04-28T10:08:03Z</time>
      </trkpt>
      <trkpt lat="47.60416" lon="3.75502">
        <ele>122.22</ele>
        <time>2013-04-28T10:08:09Z</time>
      </trkpt>
      <trkpt lat="47.60414" lon="3.75499">
        <ele>122.22</ele>
        <time>2013-04-28T10:08:19Z</time>
      </trkpt>
      <trkpt lat="47.60413" lon="3.75498">
        <ele>121.74</ele>
        <time>2013-04-28T10:08:32Z</time>
      </trkpt>
      <trkpt lat="47.60412" lon="3.75498">
        <ele>121.74</ele>
        <time>2013-04-28T10:08:47Z</time>
      </trkpt>
      <trkpt lat="47.60413" lon="3.75498">
        <ele>122.22</ele>
        <time>2013-04-28T10:08:59Z</time>
      </trkpt>
      <trkpt lat="47.60413" lon="3.75498">
        <ele>122.71</ele>
        <time>2013-04-28T10:09:13Z</time>
      </trkpt>
      <trkpt lat="47.60411" lon="3.75499">
        <ele>122.71</ele>
        <time>2013-04-28T10:09:23Z</time>
      </trkpt>
      <trkpt lat="47.60409" lon="3.755">
        <ele>122.71</ele>
        <time>2013-04-28T10:09:33Z</time>
      </trkpt>
      <trkpt lat="47.60408" lon="3.75501">
        <ele>122.71</ele>
        <time>2013-04-28T10:09:44Z</time>
      </trkpt>
      <trkpt lat="47.60404" lon="3.75502">
        <ele>123.19</ele>
        <time>2013-04-28T10:09:56Z</time>
      </trkpt>
      <trkpt lat="47.60404" lon="3.75507">
        <ele>122.71</ele>
        <time>2013-04-28T10:10:05Z</time>
      </trkpt>
      <trkpt lat="47.60406" lon="3.75509">
        <ele>122.71</ele>
        <time>2013-04-28T10:10:17Z</time>
      </trkpt>
      <trkpt lat="47.60409" lon="3.75511">
        <ele>123.19</ele>
        <time>2013-04-28T10:10:31Z</time>
      </trkpt>
      <trkpt lat="47.60408" lon="3.75504">
        <ele>123.67</ele>
        <time>2013-04-28T10:10:42Z</time>
      </trkpt>
      <trkpt lat="47.60405" lon="3.75501">
        <ele>123.19</ele>
        <time>2013-04-28T10:10:52Z</time>
      </trkpt>
      <trkpt lat="47.60407" lon="3.75503">
        <ele>124.63</ele>
        <time>2013-04-28T10:11:13Z</time>
      </trkpt>
      <trkpt lat="47.60406" lon="3.75503">
        <ele>123.67</ele>
        <time>2013-04-28T10:11:24Z</time>
      </trkpt>
      <trkpt lat="47.60405" lon="3.75504">
        <ele>123.19</ele>
        <time>2013-04-28T10:11:33Z</time>
      </trkpt>
      <trkpt lat="47.60405" lon="3.75503">
        <ele>124.15</ele>
        <time>2013-04-28T10:11:35Z</time>
      </trkpt>
      <trkpt lat="47.60404" lon="3.75503">
        <ele>123.67</ele>
        <time>2013-04-28T10:11:37Z</time>
      </trkpt>
      <trkpt lat="47.60404" lon="3.75505">
        <ele>123.19</ele>
        <time>2013-04-28T10:11:53Z</time>
      </trkpt>
      <trkpt lat="47.60404" lon="3.75508">
        <ele>124.15</ele>
        <time>2013-04-28T10:12:01Z</time>
      </trkpt>
      <trkpt lat="47.60402" lon="3.75507">
        <ele>122.22</ele>
        <time>2013-04-28T10:12:13Z</time>
      </trkpt>
      <trkpt lat="47.60401" lon="3.75506">
        <ele>125.11</ele>
        <time>2013-04-28T10:12:17Z</time>
      </trkpt>
      <trkpt lat="47.60402" lon="3.75505">
        <ele>125.11</ele>
        <time>2013-04-28T10:12:18Z</time>
      </trkpt>
      <trkpt lat="47.60403" lon="3.75504">
        <ele>124.15</ele>
        <time>2013-04-28T10:12:30Z</time>
      </trkpt>
      <trkpt lat="47.60404" lon="3.75502">
        <ele>124.63</ele>
        <time>2013-04-28T10:12:42Z</time>
      </trkpt>
      <trkpt lat="47.60403" lon="3.75503">
        <ele>123.67</ele>
        <time>2013-04-28T10:12:51Z</time>
      </trkpt>
      <trkpt lat="47.60404" lon="3.75505">
        <ele>124.15</ele>
        <time>2013-04-28T10:13:01Z</time>
      </trkpt>
      <trkpt lat="47.60403" lon="3.75506">
        <ele>124.15</ele>
        <time>2013-04-28T10:13:16Z</time>
      </trkpt>
      <trkpt lat="47.60405" lon="3.75509">
        <ele>124.63</ele>
        <time>2013-04-28T10:13:25Z</time>
      </trkpt>
      <trkpt lat="47.60407" lon="3.7551">
        <ele>124.63</ele>
        <time>2013-04-28T10:13:36Z</time>
      </trkpt>
      <trkpt lat="47.60407" lon="3.7551">
        <ele>125.11</ele>
        <time>2013-04-28T10:13:50Z</time>
      </trkpt>
      <trkpt lat="47.60403" lon="3.75508">
        <ele>124.63</ele>
        <time>2013-04-28T10:14:02Z</time>
      </trkpt>
      <trkpt lat="47.60407" lon="3.75508">
        <ele>125.11</ele>
        <time>2013-04-28T10:14:12Z</time>
      </trkpt>
      <trkpt lat="47.60411" lon="3.75506">
        <ele>124.15</ele>
        <time>2013-04-28T10:14:25Z</time>
      </trkpt>
      <trkpt lat="47.6041" lon="3.75505">
        <ele>125.11</ele>
        <time>2013-04-28T10:14:39Z</time>
      </trkpt>
      <trkpt lat="47.60403" lon="3.75506">
        <ele>125.11</ele>
        <time>2013-04-28T10:14:52Z</time>
      </trkpt>
      <trkpt lat="47.60407" lon="3.75508">
        <ele>125.11</ele>
        <time>2013-04-28T10:15:07Z</time>
      </trkpt>
      <trkpt lat="47.60409" lon="3.7551">
        <ele>125.59</ele>
        <time>2013-04-28T10:15:09Z</time>
      </trkpt>
      <trkpt lat="47.6041" lon="3.75508">
        <ele>124.63</ele>
        <time>2013-04-28T10:15:15Z</time>
      </trkpt>
      <trkpt lat="47.60412" lon="3.75507">
        <ele>125.11</ele>
        <time>2013-04-28T10:15:23Z</time>
      </trkpt>
      <trkpt lat="47.60419" lon="3.75505">
        <ele>124.15</ele>
        <time>2013-04-28T10:15:30Z</time>
      </trkpt>
      <trkpt lat="47.60434" lon="3.75499">
        <ele>124.15</ele>
        <time>2013-04-28T10:15:39Z</time>
      </trkpt>
      <trkpt lat="47.60447" lon="3.7549">
        <ele>124.15</ele>
        <time>2013-04-28T10:15:47Z</time>
      </trkpt>
      <trkpt lat="47.60449" lon="3.75489">
        <ele>124.15</ele>
        <time>2013-04-28T10:15:49Z</time>
      </trkpt>
      <trkpt lat="47.6045" lon="3.75487">
        <ele>125.11</ele>
        <time>2013-04-28T10:15:50Z</time>
      </trkpt>
      <trkpt lat="47.60456" lon="3.75476">
        <ele>126.07</ele>
        <time>2013-04-28T10:15:58Z</time>
      </trkpt>
      <trkpt lat="47.60453" lon="3.75468">
        <ele>127.03</ele>
        <time>2013-04-28T10:16:05Z</time>
      </trkpt>
      <trkpt lat="47.60452" lon="3.75465">
        <ele>127.03</ele>
        <time>2013-04-28T10:16:08Z</time>
      </trkpt>
      <trkpt lat="47.60451" lon="3.75463">
        <ele>127.03</ele>
        <time>2013-04-28T10:16:11Z</time>
      </trkpt>
      <trkpt lat="47.60451" lon="3.7546">
        <ele>127.03</ele>
        <time>2013-04-28T10:16:13Z</time>
      </trkpt>
      <trkpt lat="47.60449" lon="3.75454">
        <ele>127.51</ele>
        <time>2013-04-28T10:16:16Z</time>
      </trkpt>
      <trkpt lat="47.60448" lon="3.75447">
        <ele>128.95</ele>
        <time>2013-04-28T10:16:20Z</time>
      </trkpt>
      <trkpt lat="47.60447" lon="3.75443">
        <ele>128.95</ele>
        <time>2013-04-28T10:16:22Z</time>
      </trkpt>
      <trkpt lat="47.60444" lon="3.75429">
        <ele>129.43</ele>
        <time>2013-04-28T10:16:29Z</time>
      </trkpt>
      <trkpt lat="47.60444" lon="3.75427">
        <ele>129.43</ele>
        <time>2013-04-28T10:16:30Z</time>
      </trkpt>
      <trkpt lat="47.60442" lon="3.75415">
        <ele>129.92</ele>
        <time>2013-04-28T10:16:37Z</time>
      </trkpt>
      <trkpt lat="47.6044" lon="3.75399">
        <ele>130.88</ele>
        <time>2013-04-28T10:16:46Z</time>
      </trkpt>
      <trkpt lat="47.60437" lon="3.75385">
        <ele>131.84</ele>
        <time>2013-04-28T10:16:53Z</time>
      </trkpt>
      <trkpt lat="47.60435" lon="3.75375">
        <ele>132.32</ele>
        <time>2013-04-28T10:16:59Z</time>
      </trkpt>
      <trkpt lat="47.60433" lon="3.75358">
        <ele>133.28</ele>
        <time>2013-04-28T10:17:08Z</time>
      </trkpt>
      <trkpt lat="47.6043" lon="3.75344">
        <ele>134.24</ele>
        <time>2013-04-28T10:17:15Z</time>
      </trkpt>
      <trkpt lat="47.60427" lon="3.75329">
        <ele>134.72</ele>
        <time>2013-04-28T10:17:23Z</time>
      </trkpt>
      <trkpt lat="47.60421" lon="3.75311">
        <ele>134.72</ele>
        <time>2013-04-28T10:17:33Z</time>
      </trkpt>
      <trkpt lat="47.60412" lon="3.753">
        <ele>135.68</ele>
        <time>2013-04-28T10:17:41Z</time>
      </trkpt>
      <trkpt lat="47.60401" lon="3.7529">
        <ele>135.68</ele>
        <time>2013-04-28T10:17:50Z</time>
      </trkpt>
      <trkpt lat="47.60396" lon="3.75289">
        <ele>135.2</ele>
        <time>2013-04-28T10:17:53Z</time>
      </trkpt>
      <trkpt lat="47.60388" lon="3.75292">
        <ele>135.68</ele>
        <time>2013-04-28T10:18:01Z</time>
      </trkpt>
      <trkpt lat="47.60373" lon="3.75303">
        <ele>136.16</ele>
        <time>2013-04-28T10:18:13Z</time>
      </trkpt>
      <trkpt lat="47.60367" lon="3.75307">
        <ele>136.64</ele>
        <time>2013-04-28T10:18:18Z</time>
      </trkpt>
      <trkpt lat="47.60356" lon="3.75315">
        <ele>136.64</ele>
        <time>2013-04-28T10:18:27Z</time>
      </trkpt>
      <trkpt lat="47.60346" lon="3.75323">
        <ele>136.64</ele>
        <time>2013-04-28T10:18:35Z</time>
      </trkpt>
      <trkpt lat="47.60333" lon="3.75329">
        <ele>137.13</ele>
        <time>2013-04-28T10:18:45Z</time>
      </trkpt>
      <trkpt lat="47.60318" lon="3.75338">
        <ele>136.64</ele>
        <time>2013-04-28T10:18:56Z</time>
      </trkpt>
      <trkpt lat="47.60305" lon="3.75346">
        <ele>136.64</ele>
        <time>2013-04-28T10:19:06Z</time>
      </trkpt>
      <trkpt lat="47.60293" lon="3.75352">
        <ele>136.64</ele>
        <time>2013-04-28T10:19:15Z</time>
      </trkpt>
      <trkpt lat="47.60276" lon="3.75362">
        <ele>137.13</ele>
        <time>2013-04-28T10:19:27Z</time>
      </trkpt>
      <trkpt lat="47.60262" lon="3.7537">
        <ele>137.61</ele>
        <time>2013-04-28T10:19:37Z</time>
      </trkpt>
      <trkpt lat="47.60251" lon="3.75379">
        <ele>137.61</ele>
        <time>2013-04-28T10:19:46Z</time>
      </trkpt>
      <trkpt lat="47.60237" lon="3.7539">
        <ele>139.53</ele>
        <time>2013-04-28T10:19:58Z</time>
      </trkpt>
      <trkpt lat="47.60226" lon="3.754">
        <ele>140.49</ele>
        <time>2013-04-28T10:20:07Z</time>
      </trkpt>
      <trkpt lat="47.60217" lon="3.75409">
        <ele>140.49</ele>
        <time>2013-04-28T10:20:15Z</time>
      </trkpt>
      <trkpt lat="47.60207" lon="3.75421">
        <ele>140.97</ele>
        <time>2013-04-28T10:20:24Z</time>
      </trkpt>
      <trkpt lat="47.60196" lon="3.75436">
        <ele>140.49</ele>
        <time>2013-04-28T10:20:34Z</time>
      </trkpt>
      <trkpt lat="47.60184" lon="3.75444">
        <ele>140.01</ele>
        <time>2013-04-28T10:20:43Z</time>
      </trkpt>
      <trkpt lat="47.60169" lon="3.75447">
        <ele>139.53</ele>
        <time>2013-04-28T10:20:54Z</time>
      </trkpt>
      <trkpt lat="47.6016" lon="3.75445">
        <ele>139.53</ele>
        <time>2013-04-28T10:21:01Z</time>
      </trkpt>
      <trkpt lat="47.60145" lon="3.7544">
        <ele>139.53</ele>
        <time>2013-04-28T10:21:11Z</time>
      </trkpt>
      <trkpt lat="47.60142" lon="3.75441">
        <ele>137.61</ele>
        <time>2013-04-28T10:21:13Z</time>
      </trkpt>
      <trkpt lat="47.60141" lon="3.75442">
        <ele>140.01</ele>
        <time>2013-04-28T10:21:14Z</time>
      </trkpt>
      <trkpt lat="47.6013" lon="3.75447">
        <ele>136.16</ele>
        <time>2013-04-28T10:21:22Z</time>
      </trkpt>
      <trkpt lat="47.60129" lon="3.75448">
        <ele>140.01</ele>
        <time>2013-04-28T10:21:23Z</time>
      </trkpt>
      <trkpt lat="47.60127" lon="3.75449">
        <ele>139.53</ele>
        <time>2013-04-28T10:21:24Z</time>
      </trkpt>
      <trkpt lat="47.60124" lon="3.75451">
        <ele>138.57</ele>
        <time>2013-04-28T10:21:26Z</time>
      </trkpt>
      <trkpt lat="47.60113" lon="3.75462">
        <ele>136.16</ele>
        <time>2013-04-28T10:21:35Z</time>
      </trkpt>
      <trkpt lat="47.601" lon="3.75476">
        <ele>135.2</ele>
        <time>2013-04-28T10:21:46Z</time>
      </trkpt>
      <trkpt lat="47.60087" lon="3.75488">
        <ele>134.72</ele>
        <time>2013-04-28T10:21:56Z</time>
      </trkpt>
      <trkpt lat="47.60075" lon="3.75501">
        <ele>135.2</ele>
        <time>2013-04-28T10:22:06Z</time>
      </trkpt>
      <trkpt lat="47.60067" lon="3.75511">
        <ele>135.2</ele>
        <time>2013-04-28T10:22:13Z</time>
      </trkpt>
      <trkpt lat="47.6006" lon="3.75528">
        <ele>135.68</ele>
        <time>2013-04-28T10:22:23Z</time>
      </trkpt>
      <trkpt lat="47.60063" lon="3.75533">
        <ele>135.68</ele>
        <time>2013-04-28T10:22:26Z</time>
      </trkpt>
      <trkpt lat="47.60064" lon="3.75535">
        <ele>135.2</ele>
        <time>2013-04-28T10:22:27Z</time>
      </trkpt>
      <trkpt lat="47.60066" lon="3.75537">
        <ele>135.68</ele>
        <time>2013-04-28T10:22:28Z</time>
      </trkpt>
      <trkpt lat="47.60067" lon="3.75539">
        <ele>135.2</ele>
        <time>2013-04-28T10:22:29Z</time>
      </trkpt>
      <trkpt lat="47.60068" lon="3.7554">
        <ele>135.68</ele>
        <time>2013-04-28T10:22:30Z</time>
      </trkpt>
      <trkpt lat="47.60073" lon="3.75552">
        <ele>136.64</ele>
        <time>2013-04-28T10:22:36Z</time>
      </trkpt>
      <trkpt lat="47.60078" lon="3.75572">
        <ele>137.13</ele>
        <time>2013-04-28T10:22:45Z</time>
      </trkpt>
      <trkpt lat="47.60083" lon="3.7558">
        <ele>137.61</ele>
        <time>2013-04-28T10:22:54Z</time>
      </trkpt>
      <trkpt lat="47.60084" lon="3.75583">
        <ele>137.13</ele>
        <time>2013-04-28T10:22:59Z</time>
      </trkpt>
      <trkpt lat="47.60086" lon="3.75583">
        <ele>137.61</ele>
        <time>2013-04-28T10:23:00Z</time>
      </trkpt>
      <trkpt lat="47.60087" lon="3.75585">
        <ele>137.13</ele>
        <time>2013-04-28T10:23:01Z</time>
      </trkpt>
      <trkpt lat="47.60088" lon="3.75585">
        <ele>136.64</ele>
        <time>2013-04-28T10:23:02Z</time>
      </trkpt>
      <trkpt lat="47.60089" lon="3.75586">
        <ele>137.13</ele>
        <time>2013-04-28T10:23:03Z</time>
      </trkpt>
      <trkpt lat="47.60091" lon="3.75587">
        <ele>137.13</ele>
        <time>2013-04-28T10:23:04Z</time>
      </trkpt>
      <trkpt lat="47.60097" lon="3.75596">
        <ele>136.16</ele>
        <time>2013-04-28T10:23:12Z</time>
      </trkpt>
      <trkpt lat="47.60104" lon="3.75607">
        <ele>134.72</ele>
        <time>2013-04-28T10:23:21Z</time>
      </trkpt>
      <trkpt lat="47.60109" lon="3.75612">
        <ele>134.72</ele>
        <time>2013-04-28T10:23:25Z</time>
      </trkpt>
      <trkpt lat="47.60113" lon="3.75625">
        <ele>133.76</ele>
        <time>2013-04-28T10:23:32Z</time>
      </trkpt>
      <trkpt lat="47.60112" lon="3.75627">
        <ele>133.76</ele>
        <time>2013-04-28T10:23:33Z</time>
      </trkpt>
      <trkpt lat="47.60103" lon="3.75634">
        <ele>135.2</ele>
        <time>2013-04-28T10:23:40Z</time>
      </trkpt>
      <trkpt lat="47.60099" lon="3.75638">
        <ele>136.16</ele>
        <time>2013-04-28T10:23:44Z</time>
      </trkpt>
      <trkpt lat="47.60094" lon="3.75646">
        <ele>137.13</ele>
        <time>2013-04-28T10:23:50Z</time>
      </trkpt>
      <trkpt lat="47.60091" lon="3.75652">
        <ele>137.61</ele>
        <time>2013-04-28T10:23:54Z</time>
      </trkpt>
      <trkpt lat="47.6009" lon="3.75653">
        <ele>138.57</ele>
        <time>2013-04-28T10:23:55Z</time>
      </trkpt>
      <trkpt lat="47.60089" lon="3.75655">
        <ele>138.09</ele>
        <time>2013-04-28T10:23:56Z</time>
      </trkpt>
      <trkpt lat="47.60078" lon="3.75669">
        <ele>139.05</ele>
        <time>2013-04-28T10:24:06Z</time>
      </trkpt>
      <trkpt lat="47.60071" lon="3.75674">
        <ele>139.53</ele>
        <time>2013-04-28T10:24:11Z</time>
      </trkpt>
      <trkpt lat="47.6007" lon="3.75675">
        <ele>139.05</ele>
        <time>2013-04-28T10:24:12Z</time>
      </trkpt>
      <trkpt lat="47.60065" lon="3.75679">
        <ele>139.53</ele>
        <time>2013-04-28T10:24:17Z</time>
      </trkpt>
      <trkpt lat="47.60057" lon="3.75685">
        <ele>139.53</ele>
        <time>2013-04-28T10:24:25Z</time>
      </trkpt>
      <trkpt lat="47.60049" lon="3.75691">
        <ele>140.49</ele>
        <time>2013-04-28T10:24:32Z</time>
      </trkpt>
      <trkpt lat="47.60046" lon="3.75693">
        <ele>140.49</ele>
        <time>2013-04-28T10:24:34Z</time>
      </trkpt>
      <trkpt lat="47.60035" lon="3.75703">
        <ele>140.97</ele>
        <time>2013-04-28T10:24:41Z</time>
      </trkpt>
      <trkpt lat="47.60026" lon="3.75708">
        <ele>141.45</ele>
        <time>2013-04-28T10:24:48Z</time>
      </trkpt>
      <trkpt lat="47.60016" lon="3.75715">
        <ele>142.41</ele>
        <time>2013-04-28T10:24:56Z</time>
      </trkpt>
      <trkpt lat="47.60009" lon="3.75725">
        <ele>141.45</ele>
        <time>2013-04-28T10:25:04Z</time>
      </trkpt>
      <trkpt lat="47.60005" lon="3.75735">
        <ele>139.53</ele>
        <time>2013-04-28T10:25:12Z</time>
      </trkpt>
      <trkpt lat="47.60002" lon="3.75739">
        <ele>139.53</ele>
        <time>2013-04-28T10:25:16Z</time>
      </trkpt>
      <trkpt lat="47.5999" lon="3.75746">
        <ele>139.53</ele>
        <time>2013-04-28T10:25:23Z</time>
      </trkpt>
      <trkpt lat="47.59978" lon="3.75756">
        <ele>139.05</ele>
        <time>2013-04-28T10:25:32Z</time>
      </trkpt>
      <trkpt lat="47.59973" lon="3.75762">
        <ele>138.57</ele>
        <time>2013-04-28T10:25:38Z</time>
      </trkpt>
      <trkpt lat="47.5997" lon="3.75764">
        <ele>138.09</ele>
        <time>2013-04-28T10:25:41Z</time>
      </trkpt>
      <trkpt lat="47.59959" lon="3.7577">
        <ele>136.64</ele>
        <time>2013-04-28T10:25:49Z</time>
      </trkpt>
      <trkpt lat="47.59956" lon="3.75772">
        <ele>136.16</ele>
        <time>2013-04-28T10:25:51Z</time>
      </trkpt>
      <trkpt lat="47.59954" lon="3.75774">
        <ele>136.64</ele>
        <time>2013-04-28T10:25:52Z</time>
      </trkpt>
      <trkpt lat="47.59952" lon="3.75777">
        <ele>136.16</ele>
        <time>2013-04-28T10:25:53Z</time>
      </trkpt>
      <trkpt lat="47.59942" lon="3.7579">
        <ele>135.68</ele>
        <time>2013-04-28T10:26:00Z</time>
      </trkpt>
      <trkpt lat="47.59931" lon="3.75798">
        <ele>133.28</ele>
        <time>2013-04-28T10:26:07Z</time>
      </trkpt>
      <trkpt lat="47.59919" lon="3.75809">
        <ele>131.36</ele>
        <time>2013-04-28T10:26:14Z</time>
      </trkpt>
      <trkpt lat="47.5991" lon="3.75806">
        <ele>130.4</ele>
        <time>2013-04-28T10:26:23Z</time>
      </trkpt>
      <trkpt lat="47.59899" lon="3.75812">
        <ele>130.4</ele>
        <time>2013-04-28T10:26:32Z</time>
      </trkpt>
      <trkpt lat="47.5989" lon="3.75813">
        <ele>130.4</ele>
        <time>2013-04-28T10:26:38Z</time>
      </trkpt>
      <trkpt lat="47.59889" lon="3.75812">
        <ele>130.88</ele>
        <time>2013-04-28T10:26:39Z</time>
      </trkpt>
      <trkpt lat="47.59879" lon="3.75812">
        <ele>131.84</ele>
        <time>2013-04-28T10:26:46Z</time>
      </trkpt>
      <trkpt lat="47.59869" lon="3.7581">
        <ele>132.8</ele>
        <time>2013-04-28T10:26:52Z</time>
      </trkpt>
      <trkpt lat="47.59863" lon="3.7581">
        <ele>133.76</ele>
        <time>2013-04-28T10:26:56Z</time>
      </trkpt>
      <trkpt lat="47.59862" lon="3.7581">
        <ele>134.24</ele>
        <time>2013-04-28T10:26:57Z</time>
      </trkpt>
      <trkpt lat="47.59857" lon="3.75815">
        <ele>134.72</ele>
        <time>2013-04-28T10:27:01Z</time>
      </trkpt>
      <trkpt lat="47.59852" lon="3.75824">
        <ele>136.16</ele>
        <time>2013-04-28T10:27:09Z</time>
      </trkpt>
      <trkpt lat="47.59846" lon="3.75833">
        <ele>138.57</ele>
        <time>2013-04-28T10:27:17Z</time>
      </trkpt>
      <trkpt lat="47.59841" lon="3.75844">
        <ele>139.53</ele>
        <time>2013-04-28T10:27:25Z</time>
      </trkpt>
      <trkpt lat="47.59838" lon="3.75856">
        <ele>140.01</ele>
        <time>2013-04-28T10:27:31Z</time>
      </trkpt>
      <trkpt lat="47.59835" lon="3.75861">
        <ele>140.97</ele>
        <time>2013-04-28T10:27:34Z</time>
      </trkpt>
      <trkpt lat="47.59829" lon="3.75871">
        <ele>141.93</ele>
        <time>2013-04-28T10:27:41Z</time>
      </trkpt>
      <trkpt lat="47.59828" lon="3.75871">
        <ele>141.93</ele>
        <time>2013-04-28T10:27:42Z</time>
      </trkpt>
      <trkpt lat="47.59827" lon="3.75872">
        <ele>141.93</ele>
        <time>2013-04-28T10:27:43Z</time>
      </trkpt>
      <trkpt lat="47.59825" lon="3.75873">
        <ele>142.41</ele>
        <time>2013-04-28T10:27:44Z</time>
      </trkpt>
      <trkpt lat="47.59824" lon="3.75875">
        <ele>141.93</ele>
        <time>2013-04-28T10:27:45Z</time>
      </trkpt>
      <trkpt lat="47.59823" lon="3.75877">
        <ele>142.41</ele>
        <time>2013-04-28T10:27:46Z</time>
      </trkpt>
      <trkpt lat="47.59815" lon="3.75889">
        <ele>143.37</ele>
        <time>2013-04-28T10:27:55Z</time>
      </trkpt>
      <trkpt lat="47.59807" lon="3.759">
        <ele>144.34</ele>
        <time>2013-04-28T10:28:03Z</time>
      </trkpt>
      <trkpt lat="47.59797" lon="3.75911">
        <ele>145.78</ele>
        <time>2013-04-28T10:28:11Z</time>
      </trkpt>
      <trkpt lat="47.59788" lon="3.75919">
        <ele>147.7</ele>
        <time>2013-04-28T10:28:19Z</time>
      </trkpt>
      <trkpt lat="47.59782" lon="3.75928">
        <ele>148.18</ele>
        <time>2013-04-28T10:28:26Z</time>
      </trkpt>
      <trkpt lat="47.59772" lon="3.75934">
        <ele>149.62</ele>
        <time>2013-04-28T10:28:34Z</time>
      </trkpt>
      <trkpt lat="47.5976" lon="3.75939">
        <ele>150.1</ele>
        <time>2013-04-28T10:28:42Z</time>
      </trkpt>
      <trkpt lat="47.59752" lon="3.75948">
        <ele>151.06</ele>
        <time>2013-04-28T10:28:50Z</time>
      </trkpt>
      <trkpt lat="47.59743" lon="3.75956">
        <ele>152.03</ele>
        <time>2013-04-28T10:28:58Z</time>
      </trkpt>
      <trkpt lat="47.59735" lon="3.75965">
        <ele>152.99</ele>
        <time>2013-04-28T10:29:07Z</time>
      </trkpt>
      <trkpt lat="47.59726" lon="3.75979">
        <ele>152.99</ele>
        <time>2013-04-28T10:29:16Z</time>
      </trkpt>
      <trkpt lat="47.59716" lon="3.75988">
        <ele>152.99</ele>
        <time>2013-04-28T10:29:24Z</time>
      </trkpt>
      <trkpt lat="47.59708" lon="3.75999">
        <ele>153.47</ele>
        <time>2013-04-28T10:29:32Z</time>
      </trkpt>
      <trkpt lat="47.59701" lon="3.76012">
        <ele>153.95</ele>
        <time>2013-04-28T10:29:41Z</time>
      </trkpt>
      <trkpt lat="47.59693" lon="3.76021">
        <ele>154.43</ele>
        <time>2013-04-28T10:29:48Z</time>
      </trkpt>
      <trkpt lat="47.59687" lon="3.76033">
        <ele>154.43</ele>
        <time>2013-04-28T10:29:55Z</time>
      </trkpt>
      <trkpt lat="47.59679" lon="3.76041">
        <ele>156.35</ele>
        <time>2013-04-28T10:30:03Z</time>
      </trkpt>
      <trkpt lat="47.59667" lon="3.76042">
        <ele>158.27</ele>
        <time>2013-04-28T10:30:12Z</time>
      </trkpt>
      <trkpt lat="47.59656" lon="3.76034">
        <ele>159.24</ele>
        <time>2013-04-28T10:30:21Z</time>
      </trkpt>
      <trkpt lat="47.59649" lon="3.76026">
        <ele>160.68</ele>
        <time>2013-04-28T10:30:29Z</time>
      </trkpt>
      <trkpt lat="47.59648" lon="3.76025">
        <ele>160.68</ele>
        <time>2013-04-28T10:30:30Z</time>
      </trkpt>
      <trkpt lat="47.59642" lon="3.76014">
        <ele>162.12</ele>
        <time>2013-04-28T10:30:38Z</time>
      </trkpt>
      <trkpt lat="47.59635" lon="3.76007">
        <ele>163.56</ele>
        <time>2013-04-28T10:30:45Z</time>
      </trkpt>
      <trkpt lat="47.59624" lon="3.75998">
        <ele>165</ele>
        <time>2013-04-28T10:30:54Z</time>
      </trkpt>
      <trkpt lat="47.59614" lon="3.75994">
        <ele>166.45</ele>
        <time>2013-04-28T10:31:02Z</time>
      </trkpt>
      <trkpt lat="47.596" lon="3.75995">
        <ele>168.37</ele>
        <time>2013-04-28T10:31:11Z</time>
      </trkpt>
      <trkpt lat="47.59596" lon="3.75994">
        <ele>168.85</ele>
        <time>2013-04-28T10:31:14Z</time>
      </trkpt>
      <trkpt lat="47.59584" lon="3.75992">
        <ele>170.29</ele>
        <time>2013-04-28T10:31:23Z</time>
      </trkpt>
      <trkpt lat="47.59574" lon="3.75988">
        <ele>171.73</ele>
        <time>2013-04-28T10:31:31Z</time>
      </trkpt>
      <trkpt lat="47.59566" lon="3.75986">
        <ele>172.69</ele>
        <time>2013-04-28T10:31:38Z</time>
      </trkpt>
      <trkpt lat="47.59554" lon="3.75982">
        <ele>173.66</ele>
        <time>2013-04-28T10:31:47Z</time>
      </trkpt>
      <trkpt lat="47.59542" lon="3.75979">
        <ele>174.62</ele>
        <time>2013-04-28T10:31:57Z</time>
      </trkpt>
      <trkpt lat="47.59531" lon="3.75975">
        <ele>175.58</ele>
        <time>2013-04-28T10:32:05Z</time>
      </trkpt>
      <trkpt lat="47.5952" lon="3.75968">
        <ele>176.54</ele>
        <time>2013-04-28T10:32:13Z</time>
      </trkpt>
      <trkpt lat="47.5951" lon="3.75961">
        <ele>177.98</ele>
        <time>2013-04-28T10:32:21Z</time>
      </trkpt>
      <trkpt lat="47.59499" lon="3.75954">
        <ele>178.46</ele>
        <time>2013-04-28T10:32:30Z</time>
      </trkpt>
      <trkpt lat="47.5949" lon="3.75946">
        <ele>179.9</ele>
        <time>2013-04-28T10:32:38Z</time>
      </trkpt>
      <trkpt lat="47.59481" lon="3.75938">
        <ele>180.87</ele>
        <time>2013-04-28T10:32:46Z</time>
      </trkpt>
      <trkpt lat="47.59473" lon="3.7593">
        <ele>181.83</ele>
        <time>2013-04-28T10:32:54Z</time>
      </trkpt>
      <trkpt lat="47.59465" lon="3.75921">
        <ele>182.31</ele>
        <time>2013-04-28T10:33:02Z</time>
      </trkpt>
      <trkpt lat="47.59459" lon="3.75913">
        <ele>183.27</ele>
        <time>2013-04-28T10:33:09Z</time>
      </trkpt>
      <trkpt lat="47.59454" lon="3.75909">
        <ele>184.23</ele>
        <time>2013-04-28T10:33:13Z</time>
      </trkpt>
      <trkpt lat="47.59445" lon="3.759">
        <ele>185.19</ele>
        <time>2013-04-28T10:33:21Z</time>
      </trkpt>
      <trkpt lat="47.59444" lon="3.75899">
        <ele>185.19</ele>
        <time>2013-04-28T10:33:22Z</time>
      </trkpt>
      <trkpt lat="47.59443" lon="3.75898">
        <ele>185.19</ele>
        <time>2013-04-28T10:33:23Z</time>
      </trkpt>
      <trkpt lat="47.59441" lon="3.75897">
        <ele>185.19</ele>
        <time>2013-04-28T10:33:24Z</time>
      </trkpt>
      <trkpt lat="47.5944" lon="3.75896">
        <ele>185.67</ele>
        <time>2013-04-28T10:33:25Z</time>
      </trkpt>
      <trkpt lat="47.59439" lon="3.75895">
        <ele>186.15</ele>
        <time>2013-04-28T10:33:26Z</time>
      </trkpt>
      <trkpt lat="47.59425" lon="3.75881">
        <ele>186.15</ele>
        <time>2013-04-28T10:33:38Z</time>
      </trkpt>
      <trkpt lat="47.59414" lon="3.75872">
        <ele>187.11</ele>
        <time>2013-04-28T10:33:47Z</time>
      </trkpt>
      <trkpt lat="47.59403" lon="3.75864">
        <ele>187.59</ele>
        <time>2013-04-28T10:33:56Z</time>
      </trkpt>
      <trkpt lat="47.59388" lon="3.75854">
        <ele>188.56</ele>
        <time>2013-04-28T10:34:07Z</time>
      </trkpt>
      <trkpt lat="47.59373" lon="3.7584">
        <ele>189.52</ele>
        <time>2013-04-28T10:34:19Z</time>
      </trkpt>
      <trkpt lat="47.59363" lon="3.7583">
        <ele>189.52</ele>
        <time>2013-04-28T10:34:28Z</time>
      </trkpt>
      <trkpt lat="47.59352" lon="3.7582">
        <ele>190</ele>
        <time>2013-04-28T10:34:38Z</time>
      </trkpt>
      <trkpt lat="47.59342" lon="3.75809">
        <ele>190.48</ele>
        <time>2013-04-28T10:34:47Z</time>
      </trkpt>
      <trkpt lat="47.59329" lon="3.75798">
        <ele>190.96</ele>
        <time>2013-04-28T10:34:57Z</time>
      </trkpt>
      <trkpt lat="47.59318" lon="3.7579">
        <ele>191.92</ele>
        <time>2013-04-28T10:35:06Z</time>
      </trkpt>
      <trkpt lat="47.59307" lon="3.75785">
        <ele>191.92</ele>
        <time>2013-04-28T10:35:14Z</time>
      </trkpt>
      <trkpt lat="47.59297" lon="3.75778">
        <ele>191.92</ele>
        <time>2013-04-28T10:35:22Z</time>
      </trkpt>
      <trkpt lat="47.59285" lon="3.75773">
        <ele>191.92</ele>
        <time>2013-04-28T10:35:31Z</time>
      </trkpt>
      <trkpt lat="47.59272" lon="3.75765">
        <ele>192.4</ele>
        <time>2013-04-28T10:35:40Z</time>
      </trkpt>
      <trkpt lat="47.59257" lon="3.75756">
        <ele>191.92</ele>
        <time>2013-04-28T10:35:51Z</time>
      </trkpt>
      <trkpt lat="47.59243" lon="3.75743">
        <ele>191.44</ele>
        <time>2013-04-28T10:36:01Z</time>
      </trkpt>
      <trkpt lat="47.59235" lon="3.75732">
        <ele>191.92</ele>
        <time>2013-04-28T10:36:09Z</time>
      </trkpt>
      <trkpt lat="47.59225" lon="3.75717">
        <ele>191.92</ele>
        <time>2013-04-28T10:36:19Z</time>
      </trkpt>
      <trkpt lat="47.59217" lon="3.75706">
        <ele>191.92</ele>
        <time>2013-04-28T10:36:27Z</time>
      </trkpt>
      <trkpt lat="47.59208" lon="3.75692">
        <ele>191.92</ele>
        <time>2013-04-28T10:36:36Z</time>
      </trkpt>
      <trkpt lat="47.59196" lon="3.75676">
        <ele>192.4</ele>
        <time>2013-04-28T10:36:47Z</time>
      </trkpt>
      <trkpt lat="47.59188" lon="3.75661">
        <ele>192.88</ele>
        <time>2013-04-28T10:36:56Z</time>
      </trkpt>
      <trkpt lat="47.59179" lon="3.75647">
        <ele>192.88</ele>
        <time>2013-04-28T10:37:05Z</time>
      </trkpt>
      <trkpt lat="47.59168" lon="3.75632">
        <ele>192.88</ele>
        <time>2013-04-28T10:37:15Z</time>
      </trkpt>
      <trkpt lat="47.59157" lon="3.75615">
        <ele>192.88</ele>
        <time>2013-04-28T10:37:26Z</time>
      </trkpt>
      <trkpt lat="47.59145" lon="3.75597">
        <ele>193.84</ele>
        <time>2013-04-28T10:37:37Z</time>
      </trkpt>
      <trkpt lat="47.59135" lon="3.75579">
        <ele>193.84</ele>
        <time>2013-04-28T10:37:48Z</time>
      </trkpt>
      <trkpt lat="47.59125" lon="3.75559">
        <ele>193.84</ele>
        <time>2013-04-28T10:37:59Z</time>
      </trkpt>
      <trkpt lat="47.59119" lon="3.75544">
        <ele>193.84</ele>
        <time>2013-04-28T10:38:07Z</time>
      </trkpt>
      <trkpt lat="47.59114" lon="3.75527">
        <ele>194.32</ele>
        <time>2013-04-28T10:38:15Z</time>
      </trkpt>
      <trkpt lat="47.59109" lon="3.75507">
        <ele>193.84</ele>
        <time>2013-04-28T10:38:25Z</time>
      </trkpt>
      <trkpt lat="47.59103" lon="3.75487">
        <ele>194.32</ele>
        <time>2013-04-28T10:38:34Z</time>
      </trkpt>
      <trkpt lat="47.591" lon="3.75467">
        <ele>194.32</ele>
        <time>2013-04-28T10:38:44Z</time>
      </trkpt>
      <trkpt lat="47.59097" lon="3.75444">
        <ele>193.84</ele>
        <time>2013-04-28T10:38:54Z</time>
      </trkpt>
      <trkpt lat="47.59096" lon="3.75424">
        <ele>193.84</ele>
        <time>2013-04-28T10:39:04Z</time>
      </trkpt>
      <trkpt lat="47.59095" lon="3.75405">
        <ele>194.32</ele>
        <time>2013-04-28T10:39:14Z</time>
      </trkpt>
      <trkpt lat="47.59094" lon="3.75385">
        <ele>194.32</ele>
        <time>2013-04-28T10:39:23Z</time>
      </trkpt>
      <trkpt lat="47.59095" lon="3.75362">
        <ele>194.32</ele>
        <time>2013-04-28T10:39:33Z</time>
      </trkpt>
      <trkpt lat="47.59095" lon="3.75342">
        <ele>194.8</ele>
        <time>2013-04-28T10:39:42Z</time>
      </trkpt>
      <trkpt lat="47.59093" lon="3.75325">
        <ele>194.8</ele>
        <time>2013-04-28T10:39:51Z</time>
      </trkpt>
      <trkpt lat="47.59092" lon="3.75323">
        <ele>194.8</ele>
        <time>2013-04-28T10:39:52Z</time>
      </trkpt>
      <trkpt lat="47.59091" lon="3.75322">
        <ele>194.8</ele>
        <time>2013-04-28T10:39:53Z</time>
      </trkpt>
      <trkpt lat="47.59089" lon="3.75322">
        <ele>195.28</ele>
        <time>2013-04-28T10:39:54Z</time>
      </trkpt>
      <trkpt lat="47.59087" lon="3.75322">
        <ele>195.28</ele>
        <time>2013-04-28T10:39:55Z</time>
      </trkpt>
      <trkpt lat="47.59086" lon="3.75322">
        <ele>195.28</ele>
        <time>2013-04-28T10:39:56Z</time>
      </trkpt>
      <trkpt lat="47.59085" lon="3.75323">
        <ele>195.77</ele>
        <time>2013-04-28T10:39:57Z</time>
      </trkpt>
      <trkpt lat="47.59084" lon="3.75324">
        <ele>195.28</ele>
        <time>2013-04-28T10:39:58Z</time>
      </trkpt>
      <trkpt lat="47.59073" lon="3.75329">
        <ele>195.77</ele>
        <time>2013-04-28T10:40:07Z</time>
      </trkpt>
      <trkpt lat="47.59057" lon="3.75331">
        <ele>196.73</ele>
        <time>2013-04-28T10:40:18Z</time>
      </trkpt>
      <trkpt lat="47.5904" lon="3.75331">
        <ele>197.69</ele>
        <time>2013-04-28T10:40:29Z</time>
      </trkpt>
      <trkpt lat="47.59026" lon="3.75333">
        <ele>197.21</ele>
        <time>2013-04-28T10:40:39Z</time>
      </trkpt>
      <trkpt lat="47.59008" lon="3.7534">
        <ele>196.73</ele>
        <time>2013-04-28T10:40:51Z</time>
      </trkpt>
      <trkpt lat="47.58998" lon="3.75344">
        <ele>197.21</ele>
        <time>2013-04-28T10:40:58Z</time>
      </trkpt>
      <trkpt lat="47.5898" lon="3.75352">
        <ele>196.25</ele>
        <time>2013-04-28T10:41:10Z</time>
      </trkpt>
      <trkpt lat="47.58963" lon="3.75358">
        <ele>195.28</ele>
        <time>2013-04-28T10:41:22Z</time>
      </trkpt>
      <trkpt lat="47.58948" lon="3.75363">
        <ele>195.28</ele>
        <time>2013-04-28T10:41:32Z</time>
      </trkpt>
      <trkpt lat="47.5893" lon="3.75368">
        <ele>194.32</ele>
        <time>2013-04-28T10:41:43Z</time>
      </trkpt>
      <trkpt lat="47.5892" lon="3.7537">
        <ele>193.84</ele>
        <time>2013-04-28T10:41:50Z</time>
      </trkpt>
      <trkpt lat="47.58902" lon="3.75372">
        <ele>192.88</ele>
        <time>2013-04-28T10:42:02Z</time>
      </trkpt>
      <trkpt lat="47.58887" lon="3.75373">
        <ele>192.88</ele>
        <time>2013-04-28T10:42:11Z</time>
      </trkpt>
      <trkpt lat="47.58874" lon="3.75371">
        <ele>192.4</ele>
        <time>2013-04-28T10:42:20Z</time>
      </trkpt>
      <trkpt lat="47.58859" lon="3.75368">
        <ele>192.88</ele>
        <time>2013-04-28T10:42:30Z</time>
      </trkpt>
      <trkpt lat="47.58849" lon="3.75367">
        <ele>191.92</ele>
        <time>2013-04-28T10:42:37Z</time>
      </trkpt>
      <trkpt lat="47.58837" lon="3.75365">
        <ele>192.4</ele>
        <time>2013-04-28T10:42:45Z</time>
      </trkpt>
      <trkpt lat="47.58827" lon="3.75365">
        <ele>192.4</ele>
        <time>2013-04-28T10:42:53Z</time>
      </trkpt>
      <trkpt lat="47.58816" lon="3.75366">
        <ele>192.88</ele>
        <time>2013-04-28T10:43:01Z</time>
      </trkpt>
      <trkpt lat="47.58803" lon="3.7537">
        <ele>193.84</ele>
        <time>2013-04-28T10:43:10Z</time>
      </trkpt>
      <trkpt lat="47.58794" lon="3.75377">
        <ele>195.28</ele>
        <time>2013-04-28T10:43:18Z</time>
      </trkpt>
      <trkpt lat="47.5879" lon="3.7538">
        <ele>196.73</ele>
        <time>2013-04-28T10:43:21Z</time>
      </trkpt>
      <trkpt lat="47.58777" lon="3.75386">
        <ele>198.17</ele>
        <time>2013-04-28T10:43:31Z</time>
      </trkpt>
      <trkpt lat="47.58769" lon="3.75391">
        <ele>200.09</ele>
        <time>2013-04-28T10:43:39Z</time>
      </trkpt>
      <trkpt lat="47.5876" lon="3.754">
        <ele>202.49</ele>
        <time>2013-04-28T10:43:48Z</time>
      </trkpt>
      <trkpt lat="47.58753" lon="3.75411">
        <ele>204.9</ele>
        <time>2013-04-28T10:43:56Z</time>
      </trkpt>
      <trkpt lat="47.58748" lon="3.75423">
        <ele>207.3</ele>
        <time>2013-04-28T10:44:05Z</time>
      </trkpt>
      <trkpt lat="47.58741" lon="3.75433">
        <ele>208.74</ele>
        <time>2013-04-28T10:44:14Z</time>
      </trkpt>
      <trkpt lat="47.58735" lon="3.75443">
        <ele>211.15</ele>
        <time>2013-04-28T10:44:23Z</time>
      </trkpt>
      <trkpt lat="47.58727" lon="3.75447">
        <ele>213.55</ele>
        <time>2013-04-28T10:44:32Z</time>
      </trkpt>
      <trkpt lat="47.58718" lon="3.75453">
        <ele>215.95</ele>
        <time>2013-04-28T10:44:41Z</time>
      </trkpt>
      <trkpt lat="47.58707" lon="3.75456">
        <ele>218.36</ele>
        <time>2013-04-28T10:44:51Z</time>
      </trkpt>
      <trkpt lat="47.58696" lon="3.75456">
        <ele>219.8</ele>
        <time>2013-04-28T10:45:00Z</time>
      </trkpt>
      <trkpt lat="47.58688" lon="3.75456">
        <ele>221.24</ele>
        <time>2013-04-28T10:45:08Z</time>
      </trkpt>
      <trkpt lat="47.58679" lon="3.75456">
        <ele>223.64</ele>
        <time>2013-04-28T10:45:15Z</time>
      </trkpt>
      <trkpt lat="47.58671" lon="3.75454">
        <ele>224.61</ele>
        <time>2013-04-28T10:45:23Z</time>
      </trkpt>
      <trkpt lat="47.58661" lon="3.75449">
        <ele>226.05</ele>
        <time>2013-04-28T10:45:32Z</time>
      </trkpt>
      <trkpt lat="47.58653" lon="3.75449">
        <ele>227.49</ele>
        <time>2013-04-28T10:45:39Z</time>
      </trkpt>
      <trkpt lat="47.58645" lon="3.75446">
        <ele>227.97</ele>
        <time>2013-04-28T10:45:46Z</time>
      </trkpt>
      <trkpt lat="47.58633" lon="3.75445">
        <ele>228.93</ele>
        <time>2013-04-28T10:45:54Z</time>
      </trkpt>
      <trkpt lat="47.58622" lon="3.75443">
        <ele>229.41</ele>
        <time>2013-04-28T10:46:01Z</time>
      </trkpt>
      <trkpt lat="47.5862" lon="3.75443">
        <ele>213.55</ele>
        <time>2013-04-28T10:46:03Z</time>
      </trkpt>
      <trkpt lat="47.58619" lon="3.75443">
        <ele>235.18</ele>
        <time>2013-04-28T10:46:04Z</time>
      </trkpt>
      <trkpt lat="47.58618" lon="3.75443">
        <ele>230.85</ele>
        <time>2013-04-28T10:46:05Z</time>
      </trkpt>
      <trkpt lat="47.58606" lon="3.75444">
        <ele>229.89</ele>
        <time>2013-04-28T10:46:13Z</time>
      </trkpt>
      <trkpt lat="47.58597" lon="3.75442">
        <ele>231.33</ele>
        <time>2013-04-28T10:46:21Z</time>
      </trkpt>
      <trkpt lat="47.58592" lon="3.7544">
        <ele>231.33</ele>
        <time>2013-04-28T10:46:26Z</time>
      </trkpt>
      <trkpt lat="47.5859" lon="3.7544">
        <ele>231.81</ele>
        <time>2013-04-28T10:46:27Z</time>
      </trkpt>
      <trkpt lat="47.58581" lon="3.75437">
        <ele>231.81</ele>
        <time>2013-04-28T10:46:34Z</time>
      </trkpt>
      <trkpt lat="47.58571" lon="3.75434">
        <ele>232.3</ele>
        <time>2013-04-28T10:46:41Z</time>
      </trkpt>
      <trkpt lat="47.58562" lon="3.75432">
        <ele>233.26</ele>
        <time>2013-04-28T10:46:48Z</time>
      </trkpt>
      <trkpt lat="47.58559" lon="3.7543">
        <ele>233.74</ele>
        <time>2013-04-28T10:46:51Z</time>
      </trkpt>
      <trkpt lat="47.58549" lon="3.75426">
        <ele>234.7</ele>
        <time>2013-04-28T10:46:59Z</time>
      </trkpt>
      <trkpt lat="47.5854" lon="3.75425">
        <ele>234.7</ele>
        <time>2013-04-28T10:47:06Z</time>
      </trkpt>
      <trkpt lat="47.58531" lon="3.75422">
        <ele>235.18</ele>
        <time>2013-04-28T10:47:14Z</time>
      </trkpt>
      <trkpt lat="47.58531" lon="3.75421">
        <ele>235.18</ele>
        <time>2013-04-28T10:47:15Z</time>
      </trkpt>
      <trkpt lat="47.58521" lon="3.75419">
        <ele>235.18</ele>
        <time>2013-04-28T10:47:21Z</time>
      </trkpt>
      <trkpt lat="47.58511" lon="3.75416">
        <ele>235.66</ele>
        <time>2013-04-28T10:47:29Z</time>
      </trkpt>
      <trkpt lat="47.585" lon="3.75412">
        <ele>235.18</ele>
        <time>2013-04-28T10:47:35Z</time>
      </trkpt>
      <trkpt lat="47.58494" lon="3.75412">
        <ele>235.18</ele>
        <time>2013-04-28T10:47:40Z</time>
      </trkpt>
      <trkpt lat="47.58491" lon="3.75412">
        <ele>235.18</ele>
        <time>2013-04-28T10:47:41Z</time>
      </trkpt>
      <trkpt lat="47.58481" lon="3.75411">
        <ele>234.7</ele>
        <time>2013-04-28T10:47:48Z</time>
      </trkpt>
      <trkpt lat="47.58465" lon="3.75413">
        <ele>235.66</ele>
        <time>2013-04-28T10:47:57Z</time>
      </trkpt>
      <trkpt lat="47.5845" lon="3.75416">
        <ele>234.7</ele>
        <time>2013-04-28T10:48:07Z</time>
      </trkpt>
      <trkpt lat="47.58438" lon="3.75418">
        <ele>234.22</ele>
        <time>2013-04-28T10:48:15Z</time>
      </trkpt>
      <trkpt lat="47.58423" lon="3.75419">
        <ele>234.22</ele>
        <time>2013-04-28T10:48:24Z</time>
      </trkpt>
      <trkpt lat="47.58422" lon="3.7542">
        <ele>234.22</ele>
        <time>2013-04-28T10:48:25Z</time>
      </trkpt>
      <trkpt lat="47.58408" lon="3.75422">
        <ele>234.22</ele>
        <time>2013-04-28T10:48:34Z</time>
      </trkpt>
      <trkpt lat="47.58393" lon="3.75425">
        <ele>234.22</ele>
        <time>2013-04-28T10:48:43Z</time>
      </trkpt>
      <trkpt lat="47.58382" lon="3.75429">
        <ele>234.22</ele>
        <time>2013-04-28T10:48:50Z</time>
      </trkpt>
      <trkpt lat="47.58372" lon="3.75434">
        <ele>233.74</ele>
        <time>2013-04-28T10:48:56Z</time>
      </trkpt>
      <trkpt lat="47.5837" lon="3.75435">
        <ele>234.22</ele>
        <time>2013-04-28T10:48:57Z</time>
      </trkpt>
      <trkpt lat="47.5836" lon="3.75443">
        <ele>234.22</ele>
        <time>2013-04-28T10:49:06Z</time>
      </trkpt>
      <trkpt lat="47.58348" lon="3.75456">
        <ele>233.26</ele>
        <time>2013-04-28T10:49:15Z</time>
      </trkpt>
      <trkpt lat="47.58338" lon="3.7547">
        <ele>232.78</ele>
        <time>2013-04-28T10:49:24Z</time>
      </trkpt>
      <trkpt lat="47.58335" lon="3.75481">
        <ele>232.78</ele>
        <time>2013-04-28T10:49:32Z</time>
      </trkpt>
      <trkpt lat="47.58326" lon="3.75491">
        <ele>232.3</ele>
        <time>2013-04-28T10:49:40Z</time>
      </trkpt>
      <trkpt lat="47.58323" lon="3.755">
        <ele>231.33</ele>
        <time>2013-04-28T10:49:47Z</time>
      </trkpt>
      <trkpt lat="47.58316" lon="3.75514">
        <ele>231.81</ele>
        <time>2013-04-28T10:49:56Z</time>
      </trkpt>
      <trkpt lat="47.58308" lon="3.75531">
        <ele>230.85</ele>
        <time>2013-04-28T10:50:03Z</time>
      </trkpt>
      <trkpt lat="47.58304" lon="3.75547">
        <ele>230.37</ele>
        <time>2013-04-28T10:50:12Z</time>
      </trkpt>
      <trkpt lat="47.58301" lon="3.75561">
        <ele>230.85</ele>
        <time>2013-04-28T10:50:20Z</time>
      </trkpt>
      <trkpt lat="47.58296" lon="3.75577">
        <ele>230.85</ele>
        <time>2013-04-28T10:50:29Z</time>
      </trkpt>
      <trkpt lat="47.58294" lon="3.75585">
        <ele>230.85</ele>
        <time>2013-04-28T10:50:35Z</time>
      </trkpt>
      <trkpt lat="47.58288" lon="3.75601">
        <ele>230.85</ele>
        <time>2013-04-28T10:50:43Z</time>
      </trkpt>
      <trkpt lat="47.58278" lon="3.75621">
        <ele>231.33</ele>
        <time>2013-04-28T10:50:53Z</time>
      </trkpt>
      <trkpt lat="47.58271" lon="3.75635">
        <ele>231.81</ele>
        <time>2013-04-28T10:51:00Z</time>
      </trkpt>
      <trkpt lat="47.58266" lon="3.75642">
        <ele>231.81</ele>
        <time>2013-04-28T10:51:06Z</time>
      </trkpt>
      <trkpt lat="47.58265" lon="3.75644">
        <ele>231.33</ele>
        <time>2013-04-28T10:51:07Z</time>
      </trkpt>
      <trkpt lat="47.58264" lon="3.75646">
        <ele>231.33</ele>
        <time>2013-04-28T10:51:08Z</time>
      </trkpt>
      <trkpt lat="47.58254" lon="3.75656">
        <ele>230.85</ele>
        <time>2013-04-28T10:51:15Z</time>
      </trkpt>
      <trkpt lat="47.58252" lon="3.75658">
        <ele>230.85</ele>
        <time>2013-04-28T10:51:16Z</time>
      </trkpt>
      <trkpt lat="47.58248" lon="3.75663">
        <ele>230.37</ele>
        <time>2013-04-28T10:51:19Z</time>
      </trkpt>
      <trkpt lat="47.5824" lon="3.75671">
        <ele>229.89</ele>
        <time>2013-04-28T10:51:25Z</time>
      </trkpt>
      <trkpt lat="47.5823" lon="3.75686">
        <ele>227.97</ele>
        <time>2013-04-28T10:51:35Z</time>
      </trkpt>
      <trkpt lat="47.58222" lon="3.75692">
        <ele>227.01</ele>
        <time>2013-04-28T10:51:41Z</time>
      </trkpt>
      <trkpt lat="47.5822" lon="3.75693">
        <ele>227.01</ele>
        <time>2013-04-28T10:51:42Z</time>
      </trkpt>
      <trkpt lat="47.58218" lon="3.75694">
        <ele>227.01</ele>
        <time>2013-04-28T10:51:43Z</time>
      </trkpt>
      <trkpt lat="47.58217" lon="3.75696">
        <ele>226.53</ele>
        <time>2013-04-28T10:51:44Z</time>
      </trkpt>
      <trkpt lat="47.58215" lon="3.75698">
        <ele>227.01</ele>
        <time>2013-04-28T10:51:45Z</time>
      </trkpt>
      <trkpt lat="47.58214" lon="3.75699">
        <ele>226.53</ele>
        <time>2013-04-28T10:51:46Z</time>
      </trkpt>
      <trkpt lat="47.58205" lon="3.7571">
        <ele>225.09</ele>
        <time>2013-04-28T10:51:53Z</time>
      </trkpt>
      <trkpt lat="47.58199" lon="3.75719">
        <ele>224.12</ele>
        <time>2013-04-28T10:51:59Z</time>
      </trkpt>
      <trkpt lat="47.58198" lon="3.75721">
        <ele>224.12</ele>
        <time>2013-04-28T10:52:00Z</time>
      </trkpt>
      <trkpt lat="47.58195" lon="3.75725">
        <ele>223.16</ele>
        <time>2013-04-28T10:52:03Z</time>
      </trkpt>
      <trkpt lat="47.58188" lon="3.75732">
        <ele>221.24</ele>
        <time>2013-04-28T10:52:09Z</time>
      </trkpt>
      <trkpt lat="47.58186" lon="3.75733">
        <ele>221.24</ele>
        <time>2013-04-28T10:52:10Z</time>
      </trkpt>
      <trkpt lat="47.58185" lon="3.75735">
        <ele>221.24</ele>
        <time>2013-04-28T10:52:11Z</time>
      </trkpt>
      <trkpt lat="47.58183" lon="3.75736">
        <ele>221.24</ele>
        <time>2013-04-28T10:52:12Z</time>
      </trkpt>
      <trkpt lat="47.58182" lon="3.75737">
        <ele>220.76</ele>
        <time>2013-04-28T10:52:13Z</time>
      </trkpt>
      <trkpt lat="47.58181" lon="3.75739">
        <ele>220.76</ele>
        <time>2013-04-28T10:52:14Z</time>
      </trkpt>
      <trkpt lat="47.58172" lon="3.75749">
        <ele>219.8</ele>
        <time>2013-04-28T10:52:21Z</time>
      </trkpt>
      <trkpt lat="47.58166" lon="3.75758">
        <ele>219.32</ele>
        <time>2013-04-28T10:52:28Z</time>
      </trkpt>
      <trkpt lat="47.58158" lon="3.7577">
        <ele>218.36</ele>
        <time>2013-04-28T10:52:36Z</time>
      </trkpt>
      <trkpt lat="47.58148" lon="3.75782">
        <ele>217.4</ele>
        <time>2013-04-28T10:52:44Z</time>
      </trkpt>
      <trkpt lat="47.58139" lon="3.75795">
        <ele>216.43</ele>
        <time>2013-04-28T10:52:52Z</time>
      </trkpt>
      <trkpt lat="47.58129" lon="3.75808">
        <ele>215.47</ele>
        <time>2013-04-28T10:53:02Z</time>
      </trkpt>
      <trkpt lat="47.58126" lon="3.75815">
        <ele>215.47</ele>
        <time>2013-04-28T10:53:09Z</time>
      </trkpt>
      <trkpt lat="47.5812" lon="3.75827">
        <ele>214.99</ele>
        <time>2013-04-28T10:53:17Z</time>
      </trkpt>
      <trkpt lat="47.58114" lon="3.75841">
        <ele>214.51</ele>
        <time>2013-04-28T10:53:25Z</time>
      </trkpt>
      <trkpt lat="47.58108" lon="3.75851">
        <ele>214.51</ele>
        <time>2013-04-28T10:53:32Z</time>
      </trkpt>
      <trkpt lat="47.58102" lon="3.75866">
        <ele>213.55</ele>
        <time>2013-04-28T10:53:41Z</time>
      </trkpt>
      <trkpt lat="47.581" lon="3.75892">
        <ele>213.07</ele>
        <time>2013-04-28T10:53:50Z</time>
      </trkpt>
      <trkpt lat="47.58102" lon="3.75911">
        <ele>212.11</ele>
        <time>2013-04-28T10:53:57Z</time>
      </trkpt>
      <trkpt lat="47.58098" lon="3.75929">
        <ele>211.63</ele>
        <time>2013-04-28T10:54:04Z</time>
      </trkpt>
      <trkpt lat="47.58097" lon="3.75946">
        <ele>210.19</ele>
        <time>2013-04-28T10:54:12Z</time>
      </trkpt>
      <trkpt lat="47.58096" lon="3.75966">
        <ele>210.19</ele>
        <time>2013-04-28T10:54:22Z</time>
      </trkpt>
      <trkpt lat="47.58092" lon="3.75984">
        <ele>209.22</ele>
        <time>2013-04-28T10:54:30Z</time>
      </trkpt>
      <trkpt lat="47.58092" lon="3.75997">
        <ele>209.22</ele>
        <time>2013-04-28T10:54:37Z</time>
      </trkpt>
      <trkpt lat="47.58087" lon="3.76015">
        <ele>208.74</ele>
        <time>2013-04-28T10:54:45Z</time>
      </trkpt>
      <trkpt lat="47.58086" lon="3.76026">
        <ele>208.74</ele>
        <time>2013-04-28T10:54:52Z</time>
      </trkpt>
      <trkpt lat="47.58082" lon="3.76045">
        <ele>208.74</ele>
        <time>2013-04-28T10:55:00Z</time>
      </trkpt>
      <trkpt lat="47.58082" lon="3.76061">
        <ele>208.26</ele>
        <time>2013-04-28T10:55:07Z</time>
      </trkpt>
      <trkpt lat="47.58081" lon="3.76075">
        <ele>207.78</ele>
        <time>2013-04-28T10:55:16Z</time>
      </trkpt>
      <trkpt lat="47.5808" lon="3.76085">
        <ele>207.3</ele>
        <time>2013-04-28T10:55:22Z</time>
      </trkpt>
      <trkpt lat="47.58079" lon="3.76098">
        <ele>206.34</ele>
        <time>2013-04-28T10:55:30Z</time>
      </trkpt>
      <trkpt lat="47.5808" lon="3.76115">
        <ele>205.86</ele>
        <time>2013-04-28T10:55:37Z</time>
      </trkpt>
      <trkpt lat="47.58079" lon="3.76131">
        <ele>204.9</ele>
        <time>2013-04-28T10:55:44Z</time>
      </trkpt>
      <trkpt lat="47.58078" lon="3.76145">
        <ele>203.94</ele>
        <time>2013-04-28T10:55:52Z</time>
      </trkpt>
      <trkpt lat="47.58077" lon="3.76165">
        <ele>202.49</ele>
        <time>2013-04-28T10:56:00Z</time>
      </trkpt>
      <trkpt lat="47.58073" lon="3.76183">
        <ele>201.53</ele>
        <time>2013-04-28T10:56:08Z</time>
      </trkpt>
      <trkpt lat="47.58072" lon="3.76198">
        <ele>201.05</ele>
        <time>2013-04-28T10:56:15Z</time>
      </trkpt>
      <trkpt lat="47.58071" lon="3.76216">
        <ele>200.09</ele>
        <time>2013-04-28T10:56:23Z</time>
      </trkpt>
      <trkpt lat="47.5807" lon="3.76234">
        <ele>198.65</ele>
        <time>2013-04-28T10:56:31Z</time>
      </trkpt>
      <trkpt lat="47.58068" lon="3.76251">
        <ele>197.69</ele>
        <time>2013-04-28T10:56:38Z</time>
      </trkpt>
      <trkpt lat="47.58065" lon="3.76262">
        <ele>196.25</ele>
        <time>2013-04-28T10:56:45Z</time>
      </trkpt>
      <trkpt lat="47.5806" lon="3.76281">
        <ele>194.8</ele>
        <time>2013-04-28T10:56:52Z</time>
      </trkpt>
      <trkpt lat="47.58055" lon="3.7629">
        <ele>194.8</ele>
        <time>2013-04-28T10:56:55Z</time>
      </trkpt>
      <trkpt lat="47.58052" lon="3.76295">
        <ele>193.84</ele>
        <time>2013-04-28T10:56:58Z</time>
      </trkpt>
      <trkpt lat="47.58046" lon="3.76307">
        <ele>193.36</ele>
        <time>2013-04-28T10:57:03Z</time>
      </trkpt>
      <trkpt lat="47.58036" lon="3.76318">
        <ele>191.92</ele>
        <time>2013-04-28T10:57:12Z</time>
      </trkpt>
      <trkpt lat="47.58026" lon="3.7632">
        <ele>190.48</ele>
        <time>2013-04-28T10:57:20Z</time>
      </trkpt>
      <trkpt lat="47.58019" lon="3.76318">
        <ele>190</ele>
        <time>2013-04-28T10:57:27Z</time>
      </trkpt>
      <trkpt lat="47.5801" lon="3.76311">
        <ele>189.04</ele>
        <time>2013-04-28T10:57:33Z</time>
      </trkpt>
      <trkpt lat="47.58001" lon="3.76308">
        <ele>189.04</ele>
        <time>2013-04-28T10:57:41Z</time>
      </trkpt>
      <trkpt lat="47.57995" lon="3.76305">
        <ele>189.04</ele>
        <time>2013-04-28T10:57:44Z</time>
      </trkpt>
      <trkpt lat="47.5798" lon="3.76305">
        <ele>189.52</ele>
        <time>2013-04-28T10:57:50Z</time>
      </trkpt>
      <trkpt lat="47.57974" lon="3.76316">
        <ele>190</ele>
        <time>2013-04-28T10:57:58Z</time>
      </trkpt>
      <trkpt lat="47.57975" lon="3.76322">
        <ele>190.48</ele>
        <time>2013-04-28T10:58:01Z</time>
      </trkpt>
      <trkpt lat="47.57982" lon="3.76334">
        <ele>190.96</ele>
        <time>2013-04-28T10:58:08Z</time>
      </trkpt>
      <trkpt lat="47.57986" lon="3.7634">
        <ele>190</ele>
        <time>2013-04-28T10:58:16Z</time>
      </trkpt>
      <trkpt lat="47.57986" lon="3.76353">
        <ele>189.04</ele>
        <time>2013-04-28T10:58:24Z</time>
      </trkpt>
      <trkpt lat="47.57985" lon="3.76372">
        <ele>189.04</ele>
        <time>2013-04-28T10:58:32Z</time>
      </trkpt>
      <trkpt lat="47.57984" lon="3.7639">
        <ele>188.56</ele>
        <time>2013-04-28T10:58:40Z</time>
      </trkpt>
      <trkpt lat="47.57983" lon="3.76404">
        <ele>188.56</ele>
        <time>2013-04-28T10:58:48Z</time>
      </trkpt>
      <trkpt lat="47.57986" lon="3.76421">
        <ele>187.59</ele>
        <time>2013-04-28T10:58:56Z</time>
      </trkpt>
      <trkpt lat="47.57987" lon="3.76438">
        <ele>186.15</ele>
        <time>2013-04-28T10:59:02Z</time>
      </trkpt>
      <trkpt lat="47.57991" lon="3.76449">
        <ele>185.67</ele>
        <time>2013-04-28T10:59:09Z</time>
      </trkpt>
      <trkpt lat="47.57994" lon="3.76468">
        <ele>184.23</ele>
        <time>2013-04-28T10:59:17Z</time>
      </trkpt>
      <trkpt lat="47.57995" lon="3.76483">
        <ele>183.75</ele>
        <time>2013-04-28T10:59:23Z</time>
      </trkpt>
      <trkpt lat="47.57995" lon="3.76486">
        <ele>183.75</ele>
        <time>2013-04-28T10:59:24Z</time>
      </trkpt>
      <trkpt lat="47.57997" lon="3.76503">
        <ele>182.31</ele>
        <time>2013-04-28T10:59:31Z</time>
      </trkpt>
      <trkpt lat="47.57998" lon="3.7652">
        <ele>181.35</ele>
        <time>2013-04-28T10:59:38Z</time>
      </trkpt>
      <trkpt lat="47.58" lon="3.76535">
        <ele>179.9</ele>
        <time>2013-04-28T10:59:45Z</time>
      </trkpt>
      <trkpt lat="47.58002" lon="3.76541">
        <ele>178.94</ele>
        <time>2013-04-28T10:59:50Z</time>
      </trkpt>
      <trkpt lat="47.58003" lon="3.76547">
        <ele>177.98</ele>
        <time>2013-04-28T10:59:53Z</time>
      </trkpt>
      <trkpt lat="47.58003" lon="3.76558">
        <ele>177.02</ele>
        <time>2013-04-28T10:59:59Z</time>
      </trkpt>
      <trkpt lat="47.57998" lon="3.76574">
        <ele>176.06</ele>
        <time>2013-04-28T11:00:06Z</time>
      </trkpt>
      <trkpt lat="47.57998" lon="3.7658">
        <ele>175.58</ele>
        <time>2013-04-28T11:00:09Z</time>
      </trkpt>
      <trkpt lat="47.57998" lon="3.76582">
        <ele>175.58</ele>
        <time>2013-04-28T11:00:10Z</time>
      </trkpt>
      <trkpt lat="47.57998" lon="3.76584">
        <ele>175.1</ele>
        <time>2013-04-28T11:00:11Z</time>
      </trkpt>
      <trkpt lat="47.57998" lon="3.76585">
        <ele>175.1</ele>
        <time>2013-04-28T11:00:12Z</time>
      </trkpt>
      <trkpt lat="47.57998" lon="3.76587">
        <ele>175.1</ele>
        <time>2013-04-28T11:00:13Z</time>
      </trkpt>
      <trkpt lat="47.58" lon="3.76603">
        <ele>174.14</ele>
        <time>2013-04-28T11:00:20Z</time>
      </trkpt>
      <trkpt lat="47.58003" lon="3.76615">
        <ele>172.69</ele>
        <time>2013-04-28T11:00:28Z</time>
      </trkpt>
      <trkpt lat="47.58006" lon="3.76625">
        <ele>170.77</ele>
        <time>2013-04-28T11:00:32Z</time>
      </trkpt>
      <trkpt lat="47.58008" lon="3.76627">
        <ele>171.25</ele>
        <time>2013-04-28T11:00:33Z</time>
      </trkpt>
      <trkpt lat="47.58008" lon="3.76629">
        <ele>171.25</ele>
        <time>2013-04-28T11:00:34Z</time>
      </trkpt>
      <trkpt lat="47.58015" lon="3.76646">
        <ele>170.77</ele>
        <time>2013-04-28T11:00:41Z</time>
      </trkpt>
      <trkpt lat="47.58025" lon="3.76658">
        <ele>169.81</ele>
        <time>2013-04-28T11:00:50Z</time>
      </trkpt>
      <trkpt lat="47.58035" lon="3.76664">
        <ele>169.81</ele>
        <time>2013-04-28T11:00:58Z</time>
      </trkpt>
      <trkpt lat="47.5805" lon="3.76667">
        <ele>169.33</ele>
        <time>2013-04-28T11:01:07Z</time>
      </trkpt>
      <trkpt lat="47.58053" lon="3.76668">
        <ele>168.85</ele>
        <time>2013-04-28T11:01:09Z</time>
      </trkpt>
      <trkpt lat="47.58058" lon="3.76671">
        <ele>168.37</ele>
        <time>2013-04-28T11:01:13Z</time>
      </trkpt>
      <trkpt lat="47.58059" lon="3.76672">
        <ele>167.89</ele>
        <time>2013-04-28T11:01:14Z</time>
      </trkpt>
      <trkpt lat="47.58068" lon="3.76678">
        <ele>166.93</ele>
        <time>2013-04-28T11:01:21Z</time>
      </trkpt>
      <trkpt lat="47.58077" lon="3.76684">
        <ele>165.96</ele>
        <time>2013-04-28T11:01:29Z</time>
      </trkpt>
      <trkpt lat="47.58087" lon="3.76693">
        <ele>164.52</ele>
        <time>2013-04-28T11:01:36Z</time>
      </trkpt>
      <trkpt lat="47.5809" lon="3.76696">
        <ele>164.52</ele>
        <time>2013-04-28T11:01:39Z</time>
      </trkpt>
      <trkpt lat="47.58091" lon="3.76698">
        <ele>164.04</ele>
        <time>2013-04-28T11:01:40Z</time>
      </trkpt>
      <trkpt lat="47.58097" lon="3.76713">
        <ele>162.6</ele>
        <time>2013-04-28T11:01:47Z</time>
      </trkpt>
      <trkpt lat="47.581" lon="3.76715">
        <ele>162.6</ele>
        <time>2013-04-28T11:01:49Z</time>
      </trkpt>
      <trkpt lat="47.58106" lon="3.7672">
        <ele>161.64</ele>
        <time>2013-04-28T11:01:55Z</time>
      </trkpt>
      <trkpt lat="47.58109" lon="3.76725">
        <ele>161.16</ele>
        <time>2013-04-28T11:02:03Z</time>
      </trkpt>
      <trkpt lat="47.58114" lon="3.76729">
        <ele>161.16</ele>
        <time>2013-04-28T11:02:24Z</time>
      </trkpt>
      <trkpt lat="47.58108" lon="3.76743">
        <ele>160.68</ele>
        <time>2013-04-28T11:02:37Z</time>
      </trkpt>
      <trkpt lat="47.58113" lon="3.76755">
        <ele>159.72</ele>
        <time>2013-04-28T11:02:45Z</time>
      </trkpt>
      <trkpt lat="47.58117" lon="3.7677">
        <ele>157.79</ele>
        <time>2013-04-28T11:02:54Z</time>
      </trkpt>
      <trkpt lat="47.58122" lon="3.76784">
        <ele>157.31</ele>
        <time>2013-04-28T11:03:03Z</time>
      </trkpt>
      <trkpt lat="47.58123" lon="3.76786">
        <ele>156.83</ele>
        <time>2013-04-28T11:03:04Z</time>
      </trkpt>
      <trkpt lat="47.58125" lon="3.76788">
        <ele>157.31</ele>
        <time>2013-04-28T11:03:05Z</time>
      </trkpt>
      <trkpt lat="47.58131" lon="3.76803">
        <ele>155.87</ele>
        <time>2013-04-28T11:03:13Z</time>
      </trkpt>
      <trkpt lat="47.58137" lon="3.76817">
        <ele>154.91</ele>
        <time>2013-04-28T11:03:21Z</time>
      </trkpt>
      <trkpt lat="47.58143" lon="3.76831">
        <ele>154.43</ele>
        <time>2013-04-28T11:03:29Z</time>
      </trkpt>
      <trkpt lat="47.58146" lon="3.76839">
        <ele>154.43</ele>
        <time>2013-04-28T11:03:33Z</time>
      </trkpt>
      <trkpt lat="47.58151" lon="3.76853">
        <ele>152.99</ele>
        <time>2013-04-28T11:03:40Z</time>
      </trkpt>
      <trkpt lat="47.58154" lon="3.76862">
        <ele>153.47</ele>
        <time>2013-04-28T11:03:45Z</time>
      </trkpt>
      <trkpt lat="47.58157" lon="3.76876">
        <ele>152.51</ele>
        <time>2013-04-28T11:03:53Z</time>
      </trkpt>
      <trkpt lat="47.58158" lon="3.76879">
        <ele>151.54</ele>
        <time>2013-04-28T11:03:54Z</time>
      </trkpt>
      <trkpt lat="47.58162" lon="3.76896">
        <ele>151.06</ele>
        <time>2013-04-28T11:04:02Z</time>
      </trkpt>
      <trkpt lat="47.58168" lon="3.76915">
        <ele>149.62</ele>
        <time>2013-04-28T11:04:11Z</time>
      </trkpt>
      <trkpt lat="47.58175" lon="3.76932">
        <ele>149.14</ele>
        <time>2013-04-28T11:04:20Z</time>
      </trkpt>
      <trkpt lat="47.58178" lon="3.76943">
        <ele>148.18</ele>
        <time>2013-04-28T11:04:26Z</time>
      </trkpt>
      <trkpt lat="47.58185" lon="3.76958">
        <ele>147.22</ele>
        <time>2013-04-28T11:04:34Z</time>
      </trkpt>
      <trkpt lat="47.58193" lon="3.76975">
        <ele>146.74</ele>
        <time>2013-04-28T11:04:43Z</time>
      </trkpt>
      <trkpt lat="47.582" lon="3.76989">
        <ele>146.26</ele>
        <time>2013-04-28T11:04:51Z</time>
      </trkpt>
      <trkpt lat="47.58208" lon="3.77008">
        <ele>146.26</ele>
        <time>2013-04-28T11:05:00Z</time>
      </trkpt>
      <trkpt lat="47.58214" lon="3.77021">
        <ele>144.82</ele>
        <time>2013-04-28T11:05:09Z</time>
      </trkpt>
      <trkpt lat="47.58219" lon="3.7703">
        <ele>144.82</ele>
        <time>2013-04-28T11:05:15Z</time>
      </trkpt>
      <trkpt lat="47.5822" lon="3.77033">
        <ele>143.85</ele>
        <time>2013-04-28T11:05:16Z</time>
      </trkpt>
      <trkpt lat="47.58226" lon="3.77048">
        <ele>143.37</ele>
        <time>2013-04-28T11:05:24Z</time>
      </trkpt>
      <trkpt lat="47.58227" lon="3.7705">
        <ele>142.89</ele>
        <time>2013-04-28T11:05:25Z</time>
      </trkpt>
      <trkpt lat="47.58233" lon="3.7707">
        <ele>141.45</ele>
        <time>2013-04-28T11:05:33Z</time>
      </trkpt>
      <trkpt lat="47.5824" lon="3.77087">
        <ele>140.49</ele>
        <time>2013-04-28T11:05:42Z</time>
      </trkpt>
      <trkpt lat="47.58241" lon="3.77089">
        <ele>140.49</ele>
        <time>2013-04-28T11:05:43Z</time>
      </trkpt>
      <trkpt lat="47.58242" lon="3.77092">
        <ele>140.01</ele>
        <time>2013-04-28T11:05:44Z</time>
      </trkpt>
      <trkpt lat="47.58243" lon="3.77095">
        <ele>140.01</ele>
        <time>2013-04-28T11:05:45Z</time>
      </trkpt>
      <trkpt lat="47.58243" lon="3.77098">
        <ele>139.53</ele>
        <time>2013-04-28T11:05:46Z</time>
      </trkpt>
      <trkpt lat="47.58243" lon="3.771">
        <ele>139.05</ele>
        <time>2013-04-28T11:05:47Z</time>
      </trkpt>
      <trkpt lat="47.58244" lon="3.77102">
        <ele>140.01</ele>
        <time>2013-04-28T11:05:48Z</time>
      </trkpt>
      <trkpt lat="47.58245" lon="3.77105">
        <ele>138.57</ele>
        <time>2013-04-28T11:05:49Z</time>
      </trkpt>
      <trkpt lat="47.58245" lon="3.77107">
        <ele>139.05</ele>
        <time>2013-04-28T11:05:50Z</time>
      </trkpt>
      <trkpt lat="47.58246" lon="3.7711">
        <ele>139.05</ele>
        <time>2013-04-28T11:05:51Z</time>
      </trkpt>
      <trkpt lat="47.58247" lon="3.77112">
        <ele>138.57</ele>
        <time>2013-04-28T11:05:52Z</time>
      </trkpt>
      <trkpt lat="47.58253" lon="3.77126">
        <ele>137.61</ele>
        <time>2013-04-28T11:06:00Z</time>
      </trkpt>
      <trkpt lat="47.58255" lon="3.77132">
        <ele>136.16</ele>
        <time>2013-04-28T11:06:03Z</time>
      </trkpt>
      <trkpt lat="47.58263" lon="3.77148">
        <ele>135.2</ele>
        <time>2013-04-28T11:06:12Z</time>
      </trkpt>
      <trkpt lat="47.58272" lon="3.77162">
        <ele>133.28</ele>
        <time>2013-04-28T11:06:21Z</time>
      </trkpt>
      <trkpt lat="47.58281" lon="3.77177">
        <ele>131.84</ele>
        <time>2013-04-28T11:06:31Z</time>
      </trkpt>
      <trkpt lat="47.5829" lon="3.77193">
        <ele>130.4</ele>
        <time>2013-04-28T11:06:40Z</time>
      </trkpt>
      <trkpt lat="47.58299" lon="3.7721">
        <ele>129.43</ele>
        <time>2013-04-28T11:06:50Z</time>
      </trkpt>
      <trkpt lat="47.58308" lon="3.77229">
        <ele>128.47</ele>
        <time>2013-04-28T11:07:00Z</time>
      </trkpt>
      <trkpt lat="47.58315" lon="3.77249">
        <ele>127.51</ele>
        <time>2013-04-28T11:07:09Z</time>
      </trkpt>
      <trkpt lat="47.58321" lon="3.77264">
        <ele>127.03</ele>
        <time>2013-04-28T11:07:17Z</time>
      </trkpt>
      <trkpt lat="47.58331" lon="3.77279">
        <ele>125.59</ele>
        <time>2013-04-28T11:07:27Z</time>
      </trkpt>
      <trkpt lat="47.5834" lon="3.77287">
        <ele>124.63</ele>
        <time>2013-04-28T11:07:35Z</time>
      </trkpt>
      <trkpt lat="47.5835" lon="3.77298">
        <ele>124.15</ele>
        <time>2013-04-28T11:07:44Z</time>
      </trkpt>
      <trkpt lat="47.58362" lon="3.77302">
        <ele>123.67</ele>
        <time>2013-04-28T11:07:53Z</time>
      </trkpt>
      <trkpt lat="47.58374" lon="3.77293">
        <ele>123.19</ele>
        <time>2013-04-28T11:08:02Z</time>
      </trkpt>
      <trkpt lat="47.58384" lon="3.77279">
        <ele>123.19</ele>
        <time>2013-04-28T11:08:11Z</time>
      </trkpt>
      <trkpt lat="47.58393" lon="3.77265">
        <ele>123.19</ele>
        <time>2013-04-28T11:08:20Z</time>
      </trkpt>
      <trkpt lat="47.58403" lon="3.77247">
        <ele>122.71</ele>
        <time>2013-04-28T11:08:30Z</time>
      </trkpt>
      <trkpt lat="47.58413" lon="3.77232">
        <ele>122.22</ele>
        <time>2013-04-28T11:08:39Z</time>
      </trkpt>
      <trkpt lat="47.58424" lon="3.77214">
        <ele>121.26</ele>
        <time>2013-04-28T11:08:51Z</time>
      </trkpt>
      <trkpt lat="47.58432" lon="3.77204">
        <ele>120.78</ele>
        <time>2013-04-28T11:08:59Z</time>
      </trkpt>
      <trkpt lat="47.58441" lon="3.77194">
        <ele>120.78</ele>
        <time>2013-04-28T11:09:07Z</time>
      </trkpt>
      <trkpt lat="47.58452" lon="3.77182">
        <ele>120.3</ele>
        <time>2013-04-28T11:09:17Z</time>
      </trkpt>
      <trkpt lat="47.58463" lon="3.7717">
        <ele>119.34</ele>
        <time>2013-04-28T11:09:26Z</time>
      </trkpt>
      <trkpt lat="47.58472" lon="3.77163">
        <ele>119.82</ele>
        <time>2013-04-28T11:09:33Z</time>
      </trkpt>
      <trkpt lat="47.58481" lon="3.77155">
        <ele>119.34</ele>
        <time>2013-04-28T11:09:40Z</time>
      </trkpt>
      <trkpt lat="47.58489" lon="3.77147">
        <ele>119.34</ele>
        <time>2013-04-28T11:09:47Z</time>
      </trkpt>
      <trkpt lat="47.5849" lon="3.77146">
        <ele>118.86</ele>
        <time>2013-04-28T11:09:48Z</time>
      </trkpt>
      <trkpt lat="47.58492" lon="3.77145">
        <ele>118.86</ele>
        <time>2013-04-28T11:09:49Z</time>
      </trkpt>
      <trkpt lat="47.58501" lon="3.77141">
        <ele>118.86</ele>
        <time>2013-04-28T11:09:56Z</time>
      </trkpt>
      <trkpt lat="47.58513" lon="3.77131">
        <ele>118.38</ele>
        <time>2013-04-28T11:10:05Z</time>
      </trkpt>
      <trkpt lat="47.58521" lon="3.77125">
        <ele>117.9</ele>
        <time>2013-04-28T11:10:11Z</time>
      </trkpt>
      <trkpt lat="47.58523" lon="3.77125">
        <ele>118.38</ele>
        <time>2013-04-28T11:10:12Z</time>
      </trkpt>
      <trkpt lat="47.58524" lon="3.77124">
        <ele>118.38</ele>
        <time>2013-04-28T11:10:13Z</time>
      </trkpt>
      <trkpt lat="47.58529" lon="3.77119">
        <ele>118.38</ele>
        <time>2013-04-28T11:10:18Z</time>
      </trkpt>
      <trkpt lat="47.58533" lon="3.77117">
        <ele>118.38</ele>
        <time>2013-04-28T11:10:20Z</time>
      </trkpt>
      <trkpt lat="47.58543" lon="3.7711">
        <ele>117.9</ele>
        <time>2013-04-28T11:10:28Z</time>
      </trkpt>
      <trkpt lat="47.58556" lon="3.77105">
        <ele>117.42</ele>
        <time>2013-04-28T11:10:37Z</time>
      </trkpt>
      <trkpt lat="47.58567" lon="3.77102">
        <ele>117.42</ele>
        <time>2013-04-28T11:10:46Z</time>
      </trkpt>
      <trkpt lat="47.58578" lon="3.77099">
        <ele>117.9</ele>
        <time>2013-04-28T11:10:54Z</time>
      </trkpt>
      <trkpt lat="47.58586" lon="3.77099">
        <ele>116.94</ele>
        <time>2013-04-28T11:11:01Z</time>
      </trkpt>
      <trkpt lat="47.58591" lon="3.77101">
        <ele>117.42</ele>
        <time>2013-04-28T11:11:03Z</time>
      </trkpt>
      <trkpt lat="47.58599" lon="3.77106">
        <ele>116.94</ele>
        <time>2013-04-28T11:11:08Z</time>
      </trkpt>
      <trkpt lat="47.58601" lon="3.77112">
        <ele>116.46</ele>
        <time>2013-04-28T11:11:12Z</time>
      </trkpt>
      <trkpt lat="47.58598" lon="3.77126">
        <ele>116.94</ele>
        <time>2013-04-28T11:11:20Z</time>
      </trkpt>
      <trkpt lat="47.58597" lon="3.77129">
        <ele>116.94</ele>
        <time>2013-04-28T11:11:21Z</time>
      </trkpt>
      <trkpt lat="47.58596" lon="3.77131">
        <ele>116.94</ele>
        <time>2013-04-28T11:11:22Z</time>
      </trkpt>
      <trkpt lat="47.58593" lon="3.77152">
        <ele>116.46</ele>
        <time>2013-04-28T11:11:31Z</time>
      </trkpt>
      <trkpt lat="47.58589" lon="3.77173">
        <ele>117.42</ele>
        <time>2013-04-28T11:11:40Z</time>
      </trkpt>
      <trkpt lat="47.58584" lon="3.772">
        <ele>117.42</ele>
        <time>2013-04-28T11:11:52Z</time>
      </trkpt>
      <trkpt lat="47.58579" lon="3.77222">
        <ele>117.42</ele>
        <time>2013-04-28T11:12:02Z</time>
      </trkpt>
      <trkpt lat="47.58573" lon="3.77242">
        <ele>117.9</ele>
        <time>2013-04-28T11:12:12Z</time>
      </trkpt>
      <trkpt lat="47.58567" lon="3.77259">
        <ele>118.38</ele>
        <time>2013-04-28T11:12:21Z</time>
      </trkpt>
      <trkpt lat="47.58561" lon="3.77272">
        <ele>114.05</ele>
        <time>2013-04-28T11:12:29Z</time>
      </trkpt>
      <trkpt lat="47.58559" lon="3.77277">
        <ele>117.9</ele>
        <time>2013-04-28T11:12:32Z</time>
      </trkpt>
      <trkpt lat="47.58551" lon="3.77294">
        <ele>118.86</ele>
        <time>2013-04-28T11:12:41Z</time>
      </trkpt>
      <trkpt lat="47.5855" lon="3.77299">
        <ele>118.38</ele>
        <time>2013-04-28T11:12:44Z</time>
      </trkpt>
      <trkpt lat="47.5855" lon="3.77301">
        <ele>119.34</ele>
        <time>2013-04-28T11:12:45Z</time>
      </trkpt>
      <trkpt lat="47.58543" lon="3.77316">
        <ele>118.38</ele>
        <time>2013-04-28T11:12:53Z</time>
      </trkpt>
      <trkpt lat="47.58536" lon="3.77332">
        <ele>118.86</ele>
        <time>2013-04-28T11:13:01Z</time>
      </trkpt>
      <trkpt lat="47.58536" lon="3.77334">
        <ele>118.38</ele>
        <time>2013-04-28T11:13:02Z</time>
      </trkpt>
      <trkpt lat="47.58535" lon="3.77335">
        <ele>118.38</ele>
        <time>2013-04-28T11:13:03Z</time>
      </trkpt>
      <trkpt lat="47.58534" lon="3.77337">
        <ele>118.86</ele>
        <time>2013-04-28T11:13:04Z</time>
      </trkpt>
      <trkpt lat="47.58533" lon="3.77339">
        <ele>118.86</ele>
        <time>2013-04-28T11:13:05Z</time>
      </trkpt>
      <trkpt lat="47.58532" lon="3.7734">
        <ele>118.86</ele>
        <time>2013-04-28T11:13:06Z</time>
      </trkpt>
      <trkpt lat="47.58531" lon="3.77342">
        <ele>118.86</ele>
        <time>2013-04-28T11:13:07Z</time>
      </trkpt>
      <trkpt lat="47.58521" lon="3.7736">
        <ele>118.86</ele>
        <time>2013-04-28T11:13:18Z</time>
      </trkpt>
      <trkpt lat="47.58517" lon="3.77365">
        <ele>118.86</ele>
        <time>2013-04-28T11:13:22Z</time>
      </trkpt>
      <trkpt lat="47.58516" lon="3.77367">
        <ele>118.86</ele>
        <time>2013-04-28T11:13:23Z</time>
      </trkpt>
      <trkpt lat="47.58514" lon="3.77368">
        <ele>118.86</ele>
        <time>2013-04-28T11:13:24Z</time>
      </trkpt>
      <trkpt lat="47.58513" lon="3.77369">
        <ele>118.86</ele>
        <time>2013-04-28T11:13:25Z</time>
      </trkpt>
      <trkpt lat="47.58512" lon="3.77371">
        <ele>118.86</ele>
        <time>2013-04-28T11:13:26Z</time>
      </trkpt>
      <trkpt lat="47.58501" lon="3.77385">
        <ele>118.38</ele>
        <time>2013-04-28T11:13:36Z</time>
      </trkpt>
      <trkpt lat="47.58491" lon="3.77396">
        <ele>118.86</ele>
        <time>2013-04-28T11:13:44Z</time>
      </trkpt>
      <trkpt lat="47.58491" lon="3.77397">
        <ele>118.86</ele>
        <time>2013-04-28T11:13:45Z</time>
      </trkpt>
      <trkpt lat="47.5849" lon="3.77398">
        <ele>118.86</ele>
        <time>2013-04-28T11:13:46Z</time>
      </trkpt>
      <trkpt lat="47.58489" lon="3.77399">
        <ele>118.86</ele>
        <time>2013-04-28T11:13:47Z</time>
      </trkpt>
      <trkpt lat="47.58488" lon="3.774">
        <ele>118.86</ele>
        <time>2013-04-28T11:13:48Z</time>
      </trkpt>
      <trkpt lat="47.58487" lon="3.77402">
        <ele>118.86</ele>
        <time>2013-04-28T11:13:49Z</time>
      </trkpt>
      <trkpt lat="47.58485" lon="3.77404">
        <ele>118.86</ele>
        <time>2013-04-28T11:13:50Z</time>
      </trkpt>
      <trkpt lat="47.58484" lon="3.77406">
        <ele>118.86</ele>
        <time>2013-04-28T11:13:51Z</time>
      </trkpt>
      <trkpt lat="47.58483" lon="3.77408">
        <ele>118.86</ele>
        <time>2013-04-28T11:13:52Z</time>
      </trkpt>
      <trkpt lat="47.58482" lon="3.77409">
        <ele>118.86</ele>
        <time>2013-04-28T11:13:53Z</time>
      </trkpt>
      <trkpt lat="47.58481" lon="3.7741">
        <ele>118.86</ele>
        <time>2013-04-28T11:13:54Z</time>
      </trkpt>
      <trkpt lat="47.5848" lon="3.77412">
        <ele>118.86</ele>
        <time>2013-04-28T11:13:55Z</time>
      </trkpt>
      <trkpt lat="47.58468" lon="3.77425">
        <ele>119.34</ele>
        <time>2013-04-28T11:14:05Z</time>
      </trkpt>
      <trkpt lat="47.5846" lon="3.77437">
        <ele>119.34</ele>
        <time>2013-04-28T11:14:13Z</time>
      </trkpt>
      <trkpt lat="47.58459" lon="3.77439">
        <ele>119.34</ele>
        <time>2013-04-28T11:14:14Z</time>
      </trkpt>
      <trkpt lat="47.58458" lon="3.77441">
        <ele>119.34</ele>
        <time>2013-04-28T11:14:15Z</time>
      </trkpt>
      <trkpt lat="47.58457" lon="3.77442">
        <ele>118.86</ele>
        <time>2013-04-28T11:14:16Z</time>
      </trkpt>
      <trkpt lat="47.58456" lon="3.77444">
        <ele>119.34</ele>
        <time>2013-04-28T11:14:17Z</time>
      </trkpt>
      <trkpt lat="47.58455" lon="3.77445">
        <ele>119.34</ele>
        <time>2013-04-28T11:14:18Z</time>
      </trkpt>
      <trkpt lat="47.58454" lon="3.77446">
        <ele>119.34</ele>
        <time>2013-04-28T11:14:19Z</time>
      </trkpt>
      <trkpt lat="47.58447" lon="3.77455">
        <ele>119.82</ele>
        <time>2013-04-28T11:14:25Z</time>
      </trkpt>
      <trkpt lat="47.58438" lon="3.77466">
        <ele>119.82</ele>
        <time>2013-04-28T11:14:34Z</time>
      </trkpt>
      <trkpt lat="47.58427" lon="3.77476">
        <ele>119.82</ele>
        <time>2013-04-28T11:14:43Z</time>
      </trkpt>
      <trkpt lat="47.5842" lon="3.77482">
        <ele>120.3</ele>
        <time>2013-04-28T11:14:50Z</time>
      </trkpt>
      <trkpt lat="47.58417" lon="3.77486">
        <ele>120.3</ele>
        <time>2013-04-28T11:14:54Z</time>
      </trkpt>
      <trkpt lat="47.58416" lon="3.77488">
        <ele>120.3</ele>
        <time>2013-04-28T11:14:55Z</time>
      </trkpt>
      <trkpt lat="47.58414" lon="3.77489">
        <ele>119.82</ele>
        <time>2013-04-28T11:14:56Z</time>
      </trkpt>
      <trkpt lat="47.58408" lon="3.77499">
        <ele>120.3</ele>
        <time>2013-04-28T11:15:03Z</time>
      </trkpt>
      <trkpt lat="47.58397" lon="3.77505">
        <ele>121.26</ele>
        <time>2013-04-28T11:15:10Z</time>
      </trkpt>
      <trkpt lat="47.58387" lon="3.77515">
        <ele>120.3</ele>
        <time>2013-04-28T11:15:18Z</time>
      </trkpt>
      <trkpt lat="47.58376" lon="3.77522">
        <ele>120.3</ele>
        <time>2013-04-28T11:15:26Z</time>
      </trkpt>
      <trkpt lat="47.58367" lon="3.77525">
        <ele>119.82</ele>
        <time>2013-04-28T11:15:35Z</time>
      </trkpt>
      <trkpt lat="47.58357" lon="3.77525">
        <ele>120.3</ele>
        <time>2013-04-28T11:15:43Z</time>
      </trkpt>
      <trkpt lat="47.58346" lon="3.77527">
        <ele>119.82</ele>
        <time>2013-04-28T11:15:50Z</time>
      </trkpt>
      <trkpt lat="47.58333" lon="3.7753">
        <ele>119.82</ele>
        <time>2013-04-28T11:15:58Z</time>
      </trkpt>
      <trkpt lat="47.58318" lon="3.77535">
        <ele>119.34</ele>
        <time>2013-04-28T11:16:07Z</time>
      </trkpt>
      <trkpt lat="47.5831" lon="3.77539">
        <ele>119.34</ele>
        <time>2013-04-28T11:16:13Z</time>
      </trkpt>
      <trkpt lat="47.58299" lon="3.77539">
        <ele>119.34</ele>
        <time>2013-04-28T11:16:20Z</time>
      </trkpt>
      <trkpt lat="47.5829" lon="3.7754">
        <ele>119.34</ele>
        <time>2013-04-28T11:16:28Z</time>
      </trkpt>
      <trkpt lat="47.58277" lon="3.77542">
        <ele>118.86</ele>
        <time>2013-04-28T11:16:38Z</time>
      </trkpt>
      <trkpt lat="47.58264" lon="3.77546">
        <ele>119.34</ele>
        <time>2013-04-28T11:16:47Z</time>
      </trkpt>
      <trkpt lat="47.58251" lon="3.7755">
        <ele>118.86</ele>
        <time>2013-04-28T11:16:54Z</time>
      </trkpt>
      <trkpt lat="47.58241" lon="3.77556">
        <ele>118.86</ele>
        <time>2013-04-28T11:17:02Z</time>
      </trkpt>
      <trkpt lat="47.5823" lon="3.77569">
        <ele>118.38</ele>
        <time>2013-04-28T11:17:11Z</time>
      </trkpt>
      <trkpt lat="47.58227" lon="3.77571">
        <ele>118.38</ele>
        <time>2013-04-28T11:17:13Z</time>
      </trkpt>
      <trkpt lat="47.58226" lon="3.77573">
        <ele>118.38</ele>
        <time>2013-04-28T11:17:14Z</time>
      </trkpt>
      <trkpt lat="47.5822" lon="3.7758">
        <ele>118.38</ele>
        <time>2013-04-28T11:17:21Z</time>
      </trkpt>
      <trkpt lat="47.58209" lon="3.7759">
        <ele>118.38</ele>
        <time>2013-04-28T11:17:29Z</time>
      </trkpt>
      <trkpt lat="47.582" lon="3.77597">
        <ele>118.38</ele>
        <time>2013-04-28T11:17:35Z</time>
      </trkpt>
      <trkpt lat="47.58199" lon="3.77598">
        <ele>118.38</ele>
        <time>2013-04-28T11:17:36Z</time>
      </trkpt>
      <trkpt lat="47.58191" lon="3.77602">
        <ele>118.38</ele>
        <time>2013-04-28T11:17:44Z</time>
      </trkpt>
      <trkpt lat="47.58179" lon="3.77611">
        <ele>118.38</ele>
        <time>2013-04-28T11:17:53Z</time>
      </trkpt>
      <trkpt lat="47.58165" lon="3.7762">
        <ele>118.38</ele>
        <time>2013-04-28T11:18:01Z</time>
      </trkpt>
      <trkpt lat="47.58154" lon="3.77623">
        <ele>118.38</ele>
        <time>2013-04-28T11:18:09Z</time>
      </trkpt>
      <trkpt lat="47.58139" lon="3.7763">
        <ele>118.86</ele>
        <time>2013-04-28T11:18:18Z</time>
      </trkpt>
      <trkpt lat="47.5813" lon="3.77627">
        <ele>118.86</ele>
        <time>2013-04-28T11:18:26Z</time>
      </trkpt>
      <trkpt lat="47.58121" lon="3.77628">
        <ele>118.38</ele>
        <time>2013-04-28T11:18:33Z</time>
      </trkpt>
      <trkpt lat="47.58111" lon="3.77627">
        <ele>118.86</ele>
        <time>2013-04-28T11:18:41Z</time>
      </trkpt>
      <trkpt lat="47.58103" lon="3.77627">
        <ele>118.38</ele>
        <time>2013-04-28T11:18:48Z</time>
      </trkpt>
      <trkpt lat="47.58092" lon="3.77626">
        <ele>118.86</ele>
        <time>2013-04-28T11:18:56Z</time>
      </trkpt>
      <trkpt lat="47.58081" lon="3.77621">
        <ele>118.38</ele>
        <time>2013-04-28T11:19:04Z</time>
      </trkpt>
      <trkpt lat="47.58069" lon="3.77623">
        <ele>118.38</ele>
        <time>2013-04-28T11:19:13Z</time>
      </trkpt>
      <trkpt lat="47.58059" lon="3.77624">
        <ele>117.9</ele>
        <time>2013-04-28T11:19:19Z</time>
      </trkpt>
      <trkpt lat="47.5805" lon="3.77621">
        <ele>117.42</ele>
        <time>2013-04-28T11:19:28Z</time>
      </trkpt>
      <trkpt lat="47.58039" lon="3.77612">
        <ele>117.9</ele>
        <time>2013-04-28T11:19:36Z</time>
      </trkpt>
      <trkpt lat="47.58028" lon="3.77604">
        <ele>117.9</ele>
        <time>2013-04-28T11:19:45Z</time>
      </trkpt>
      <trkpt lat="47.58025" lon="3.77603">
        <ele>117.42</ele>
        <time>2013-04-28T11:19:47Z</time>
      </trkpt>
      <trkpt lat="47.58019" lon="3.77601">
        <ele>117.9</ele>
        <time>2013-04-28T11:19:51Z</time>
      </trkpt>
      <trkpt lat="47.58004" lon="3.77602">
        <ele>117.9</ele>
        <time>2013-04-28T11:20:01Z</time>
      </trkpt>
      <trkpt lat="47.57991" lon="3.77606">
        <ele>117.9</ele>
        <time>2013-04-28T11:20:09Z</time>
      </trkpt>
      <trkpt lat="47.57986" lon="3.77607">
        <ele>117.9</ele>
        <time>2013-04-28T11:20:12Z</time>
      </trkpt>
      <trkpt lat="47.57967" lon="3.77631">
        <ele>117.42</ele>
        <time>2013-04-28T11:20:20Z</time>
      </trkpt>
      <trkpt lat="47.57957" lon="3.77641">
        <ele>117.9</ele>
        <time>2013-04-28T11:20:27Z</time>
      </trkpt>
      <trkpt lat="47.57949" lon="3.77644">
        <ele>117.42</ele>
        <time>2013-04-28T11:20:33Z</time>
      </trkpt>
      <trkpt lat="47.57939" lon="3.7765">
        <ele>116.94</ele>
        <time>2013-04-28T11:20:40Z</time>
      </trkpt>
      <trkpt lat="47.57918" lon="3.7766">
        <ele>117.9</ele>
        <time>2013-04-28T11:20:51Z</time>
      </trkpt>
      <trkpt lat="47.57905" lon="3.77667">
        <ele>117.42</ele>
        <time>2013-04-28T11:21:01Z</time>
      </trkpt>
      <trkpt lat="47.57892" lon="3.77678">
        <ele>117.9</ele>
        <time>2013-04-28T11:21:10Z</time>
      </trkpt>
      <trkpt lat="47.57885" lon="3.77686">
        <ele>117.9</ele>
        <time>2013-04-28T11:21:17Z</time>
      </trkpt>
      <trkpt lat="47.57878" lon="3.77695">
        <ele>117.9</ele>
        <time>2013-04-28T11:21:25Z</time>
      </trkpt>
      <trkpt lat="47.57868" lon="3.77707">
        <ele>117.9</ele>
        <time>2013-04-28T11:21:34Z</time>
      </trkpt>
      <trkpt lat="47.57859" lon="3.77718">
        <ele>117.9</ele>
        <time>2013-04-28T11:21:42Z</time>
      </trkpt>
      <trkpt lat="47.5785" lon="3.77728">
        <ele>118.38</ele>
        <time>2013-04-28T11:21:50Z</time>
      </trkpt>
      <trkpt lat="47.5784" lon="3.77736">
        <ele>117.9</ele>
        <time>2013-04-28T11:21:58Z</time>
      </trkpt>
      <trkpt lat="47.57826" lon="3.77751">
        <ele>117.9</ele>
        <time>2013-04-28T11:22:07Z</time>
      </trkpt>
      <trkpt lat="47.57814" lon="3.77764">
        <ele>118.38</ele>
        <time>2013-04-28T11:22:17Z</time>
      </trkpt>
      <trkpt lat="47.57803" lon="3.7777">
        <ele>117.42</ele>
        <time>2013-04-28T11:22:26Z</time>
      </trkpt>
      <trkpt lat="47.57789" lon="3.77771">
        <ele>118.38</ele>
        <time>2013-04-28T11:22:34Z</time>
      </trkpt>
      <trkpt lat="47.57781" lon="3.77773">
        <ele>118.38</ele>
        <time>2013-04-28T11:22:40Z</time>
      </trkpt>
      <trkpt lat="47.57768" lon="3.77773">
        <ele>118.38</ele>
        <time>2013-04-28T11:22:49Z</time>
      </trkpt>
      <trkpt lat="47.57756" lon="3.77773">
        <ele>118.38</ele>
        <time>2013-04-28T11:22:57Z</time>
      </trkpt>
      <trkpt lat="47.57744" lon="3.77773">
        <ele>118.86</ele>
        <time>2013-04-28T11:23:05Z</time>
      </trkpt>
      <trkpt lat="47.57734" lon="3.77774">
        <ele>118.86</ele>
        <time>2013-04-28T11:23:12Z</time>
      </trkpt>
      <trkpt lat="47.57718" lon="3.77778">
        <ele>119.34</ele>
        <time>2013-04-28T11:23:23Z</time>
      </trkpt>
      <trkpt lat="47.57704" lon="3.77782">
        <ele>118.86</ele>
        <time>2013-04-28T11:23:33Z</time>
      </trkpt>
      <trkpt lat="47.57692" lon="3.77782">
        <ele>118.86</ele>
        <time>2013-04-28T11:23:43Z</time>
      </trkpt>
      <trkpt lat="47.57681" lon="3.77779">
        <ele>118.86</ele>
        <time>2013-04-28T11:23:50Z</time>
      </trkpt>
      <trkpt lat="47.57671" lon="3.77775">
        <ele>119.82</ele>
        <time>2013-04-28T11:23:59Z</time>
      </trkpt>
      <trkpt lat="47.57661" lon="3.77769">
        <ele>120.3</ele>
        <time>2013-04-28T11:24:05Z</time>
      </trkpt>
      <trkpt lat="47.57651" lon="3.77759">
        <ele>120.3</ele>
        <time>2013-04-28T11:24:12Z</time>
      </trkpt>
      <trkpt lat="47.57642" lon="3.77751">
        <ele>120.78</ele>
        <time>2013-04-28T11:24:20Z</time>
      </trkpt>
      <trkpt lat="47.57632" lon="3.77742">
        <ele>121.26</ele>
        <time>2013-04-28T11:24:26Z</time>
      </trkpt>
      <trkpt lat="47.57626" lon="3.77736">
        <ele>121.26</ele>
        <time>2013-04-28T11:24:34Z</time>
      </trkpt>
      <trkpt lat="47.57625" lon="3.7773">
        <ele>120.78</ele>
        <time>2013-04-28T11:24:38Z</time>
      </trkpt>
      <trkpt lat="47.57624" lon="3.77728">
        <ele>121.26</ele>
        <time>2013-04-28T11:24:39Z</time>
      </trkpt>
      <trkpt lat="47.57624" lon="3.77725">
        <ele>121.26</ele>
        <time>2013-04-28T11:24:40Z</time>
      </trkpt>
      <trkpt lat="47.57623" lon="3.77722">
        <ele>121.74</ele>
        <time>2013-04-28T11:24:41Z</time>
      </trkpt>
      <trkpt lat="47.57622" lon="3.77719">
        <ele>121.26</ele>
        <time>2013-04-28T11:24:42Z</time>
      </trkpt>
      <trkpt lat="47.57622" lon="3.77717">
        <ele>121.26</ele>
        <time>2013-04-28T11:24:43Z</time>
      </trkpt>
      <trkpt lat="47.57621" lon="3.77715">
        <ele>122.22</ele>
        <time>2013-04-28T11:24:44Z</time>
      </trkpt>
      <trkpt lat="47.57621" lon="3.77713">
        <ele>121.26</ele>
        <time>2013-04-28T11:24:45Z</time>
      </trkpt>
      <trkpt lat="47.57621" lon="3.77711">
        <ele>121.74</ele>
        <time>2013-04-28T11:24:46Z</time>
      </trkpt>
      <trkpt lat="47.57622" lon="3.77709">
        <ele>122.22</ele>
        <time>2013-04-28T11:24:47Z</time>
      </trkpt>
      <trkpt lat="47.57627" lon="3.7769">
        <ele>122.22</ele>
        <time>2013-04-28T11:24:56Z</time>
      </trkpt>
      <trkpt lat="47.57633" lon="3.7767">
        <ele>122.22</ele>
        <time>2013-04-28T11:25:06Z</time>
      </trkpt>
      <trkpt lat="47.5764" lon="3.77653">
        <ele>122.22</ele>
        <time>2013-04-28T11:25:16Z</time>
      </trkpt>
      <trkpt lat="47.57649" lon="3.77633">
        <ele>122.71</ele>
        <time>2013-04-28T11:25:27Z</time>
      </trkpt>
      <trkpt lat="47.57658" lon="3.77618">
        <ele>122.71</ele>
        <time>2013-04-28T11:25:36Z</time>
      </trkpt>
      <trkpt lat="47.57665" lon="3.77601">
        <ele>123.67</ele>
        <time>2013-04-28T11:25:46Z</time>
      </trkpt>
      <trkpt lat="47.57675" lon="3.77584">
        <ele>123.19</ele>
        <time>2013-04-28T11:25:56Z</time>
      </trkpt>
      <trkpt lat="47.57679" lon="3.7757">
        <ele>123.19</ele>
        <time>2013-04-28T11:26:04Z</time>
      </trkpt>
      <trkpt lat="47.57677" lon="3.77566">
        <ele>123.19</ele>
        <time>2013-04-28T11:26:07Z</time>
      </trkpt>
      <trkpt lat="47.57676" lon="3.77565">
        <ele>123.67</ele>
        <time>2013-04-28T11:26:08Z</time>
      </trkpt>
      <trkpt lat="47.57675" lon="3.77565">
        <ele>123.19</ele>
        <time>2013-04-28T11:26:09Z</time>
      </trkpt>
      <trkpt lat="47.57673" lon="3.77564">
        <ele>123.67</ele>
        <time>2013-04-28T11:26:10Z</time>
      </trkpt>
      <trkpt lat="47.57672" lon="3.77564">
        <ele>122.22</ele>
        <time>2013-04-28T11:26:11Z</time>
      </trkpt>
      <trkpt lat="47.5767" lon="3.77563">
        <ele>124.15</ele>
        <time>2013-04-28T11:26:12Z</time>
      </trkpt>
      <trkpt lat="47.57669" lon="3.77563">
        <ele>123.67</ele>
        <time>2013-04-28T11:26:13Z</time>
      </trkpt>
      <trkpt lat="47.57667" lon="3.77563">
        <ele>123.19</ele>
        <time>2013-04-28T11:26:14Z</time>
      </trkpt>
      <trkpt lat="47.57664" lon="3.77563">
        <ele>123.19</ele>
        <time>2013-04-28T11:26:17Z</time>
      </trkpt>
      <trkpt lat="47.57663" lon="3.77564">
        <ele>123.67</ele>
        <time>2013-04-28T11:26:18Z</time>
      </trkpt>
      <trkpt lat="47.57653" lon="3.77567">
        <ele>123.19</ele>
        <time>2013-04-28T11:26:26Z</time>
      </trkpt>
      <trkpt lat="47.57641" lon="3.77569">
        <ele>123.67</ele>
        <time>2013-04-28T11:26:36Z</time>
      </trkpt>
      <trkpt lat="47.5764" lon="3.77569">
        <ele>123.19</ele>
        <time>2013-04-28T11:26:37Z</time>
      </trkpt>
      <trkpt lat="47.57638" lon="3.77569">
        <ele>123.19</ele>
        <time>2013-04-28T11:26:38Z</time>
      </trkpt>
      <trkpt lat="47.57624" lon="3.7757">
        <ele>123.19</ele>
        <time>2013-04-28T11:26:47Z</time>
      </trkpt>
      <trkpt lat="47.57613" lon="3.77569">
        <ele>123.19</ele>
        <time>2013-04-28T11:26:56Z</time>
      </trkpt>
      <trkpt lat="47.576" lon="3.77569">
        <ele>123.67</ele>
        <time>2013-04-28T11:27:06Z</time>
      </trkpt>
      <trkpt lat="47.57593" lon="3.77568">
        <ele>123.67</ele>
        <time>2013-04-28T11:27:12Z</time>
      </trkpt>
      <trkpt lat="47.5758" lon="3.77568">
        <ele>123.67</ele>
        <time>2013-04-28T11:27:20Z</time>
      </trkpt>
      <trkpt lat="47.57566" lon="3.7757">
        <ele>123.67</ele>
        <time>2013-04-28T11:27:29Z</time>
      </trkpt>
      <trkpt lat="47.57555" lon="3.77571">
        <ele>124.15</ele>
        <time>2013-04-28T11:27:38Z</time>
      </trkpt>
      <trkpt lat="47.57542" lon="3.77573">
        <ele>124.63</ele>
        <time>2013-04-28T11:27:47Z</time>
      </trkpt>
      <trkpt lat="47.5753" lon="3.77572">
        <ele>124.15</ele>
        <time>2013-04-28T11:27:55Z</time>
      </trkpt>
      <trkpt lat="47.57515" lon="3.77574">
        <ele>124.63</ele>
        <time>2013-04-28T11:28:05Z</time>
      </trkpt>
      <trkpt lat="47.57504" lon="3.77575">
        <ele>124.63</ele>
        <time>2013-04-28T11:28:14Z</time>
      </trkpt>
      <trkpt lat="47.57492" lon="3.77575">
        <ele>125.11</ele>
        <time>2013-04-28T11:28:22Z</time>
      </trkpt>
      <trkpt lat="47.57479" lon="3.77579">
        <ele>125.11</ele>
        <time>2013-04-28T11:28:31Z</time>
      </trkpt>
      <trkpt lat="47.57461" lon="3.77587">
        <ele>125.59</ele>
        <time>2013-04-28T11:28:41Z</time>
      </trkpt>
      <trkpt lat="47.57447" lon="3.77595">
        <ele>125.59</ele>
        <time>2013-04-28T11:28:51Z</time>
      </trkpt>
      <trkpt lat="47.57433" lon="3.77601">
        <ele>126.07</ele>
        <time>2013-04-28T11:29:00Z</time>
      </trkpt>
      <trkpt lat="47.5742" lon="3.77607">
        <ele>126.07</ele>
        <time>2013-04-28T11:29:09Z</time>
      </trkpt>
      <trkpt lat="47.57408" lon="3.77613">
        <ele>126.55</ele>
        <time>2013-04-28T11:29:18Z</time>
      </trkpt>
      <trkpt lat="47.57398" lon="3.77618">
        <ele>126.55</ele>
        <time>2013-04-28T11:29:25Z</time>
      </trkpt>
      <trkpt lat="47.57386" lon="3.77626">
        <ele>127.03</ele>
        <time>2013-04-28T11:29:35Z</time>
      </trkpt>
      <trkpt lat="47.57374" lon="3.77632">
        <ele>127.51</ele>
        <time>2013-04-28T11:29:43Z</time>
      </trkpt>
      <trkpt lat="47.57362" lon="3.77639">
        <ele>127.51</ele>
        <time>2013-04-28T11:29:52Z</time>
      </trkpt>
      <trkpt lat="47.5735" lon="3.77644">
        <ele>127.99</ele>
        <time>2013-04-28T11:30:00Z</time>
      </trkpt>
      <trkpt lat="47.57347" lon="3.77647">
        <ele>128.47</ele>
        <time>2013-04-28T11:30:03Z</time>
      </trkpt>
      <trkpt lat="47.57346" lon="3.77648">
        <ele>127.99</ele>
        <time>2013-04-28T11:30:04Z</time>
      </trkpt>
      <trkpt lat="47.57344" lon="3.77649">
        <ele>127.99</ele>
        <time>2013-04-28T11:30:05Z</time>
      </trkpt>
      <trkpt lat="47.57343" lon="3.7765">
        <ele>128.47</ele>
        <time>2013-04-28T11:30:06Z</time>
      </trkpt>
      <trkpt lat="47.57342" lon="3.77651">
        <ele>128.47</ele>
        <time>2013-04-28T11:30:07Z</time>
      </trkpt>
      <trkpt lat="47.57341" lon="3.77652">
        <ele>128.47</ele>
        <time>2013-04-28T11:30:08Z</time>
      </trkpt>
      <trkpt lat="47.5733" lon="3.77659">
        <ele>128.47</ele>
        <time>2013-04-28T11:30:16Z</time>
      </trkpt>
      <trkpt lat="47.57318" lon="3.77668">
        <ele>128.95</ele>
        <time>2013-04-28T11:30:25Z</time>
      </trkpt>
      <trkpt lat="47.57308" lon="3.77674">
        <ele>128.95</ele>
        <time>2013-04-28T11:30:33Z</time>
      </trkpt>
      <trkpt lat="47.57297" lon="3.77684">
        <ele>129.92</ele>
        <time>2013-04-28T11:30:42Z</time>
      </trkpt>
      <trkpt lat="47.57286" lon="3.7769">
        <ele>129.92</ele>
        <time>2013-04-28T11:30:50Z</time>
      </trkpt>
      <trkpt lat="47.57277" lon="3.77698">
        <ele>130.4</ele>
        <time>2013-04-28T11:30:59Z</time>
      </trkpt>
      <trkpt lat="47.57276" lon="3.77699">
        <ele>130.4</ele>
        <time>2013-04-28T11:31:00Z</time>
      </trkpt>
      <trkpt lat="47.57271" lon="3.77701">
        <ele>130.4</ele>
        <time>2013-04-28T11:31:03Z</time>
      </trkpt>
      <trkpt lat="47.57259" lon="3.77708">
        <ele>131.84</ele>
        <time>2013-04-28T11:31:12Z</time>
      </trkpt>
      <trkpt lat="47.57248" lon="3.77715">
        <ele>131.84</ele>
        <time>2013-04-28T11:31:20Z</time>
      </trkpt>
      <trkpt lat="47.57238" lon="3.77726">
        <ele>132.8</ele>
        <time>2013-04-28T11:31:29Z</time>
      </trkpt>
      <trkpt lat="47.57236" lon="3.77729">
        <ele>132.8</ele>
        <time>2013-04-28T11:31:31Z</time>
      </trkpt>
      <trkpt lat="47.57228" lon="3.77736">
        <ele>133.28</ele>
        <time>2013-04-28T11:31:38Z</time>
      </trkpt>
      <trkpt lat="47.57227" lon="3.77737">
        <ele>133.28</ele>
        <time>2013-04-28T11:31:39Z</time>
      </trkpt>
      <trkpt lat="47.57218" lon="3.77743">
        <ele>134.24</ele>
        <time>2013-04-28T11:31:46Z</time>
      </trkpt>
      <trkpt lat="47.57215" lon="3.77744">
        <ele>134.24</ele>
        <time>2013-04-28T11:31:48Z</time>
      </trkpt>
      <trkpt lat="47.57214" lon="3.77745">
        <ele>134.24</ele>
        <time>2013-04-28T11:31:49Z</time>
      </trkpt>
      <trkpt lat="47.57213" lon="3.77746">
        <ele>134.24</ele>
        <time>2013-04-28T11:31:50Z</time>
      </trkpt>
      <trkpt lat="47.5721" lon="3.77749">
        <ele>134.72</ele>
        <time>2013-04-28T11:31:53Z</time>
      </trkpt>
      <trkpt lat="47.57208" lon="3.7775">
        <ele>134.72</ele>
        <time>2013-04-28T11:31:54Z</time>
      </trkpt>
      <trkpt lat="47.57207" lon="3.7775">
        <ele>135.2</ele>
        <time>2013-04-28T11:31:55Z</time>
      </trkpt>
      <trkpt lat="47.57204" lon="3.77751">
        <ele>135.2</ele>
        <time>2013-04-28T11:31:57Z</time>
      </trkpt>
      <trkpt lat="47.57201" lon="3.77751">
        <ele>135.2</ele>
        <time>2013-04-28T11:31:59Z</time>
      </trkpt>
      <trkpt lat="47.5719" lon="3.77751">
        <ele>135.2</ele>
        <time>2013-04-28T11:32:07Z</time>
      </trkpt>
      <trkpt lat="47.57189" lon="3.7775">
        <ele>135.68</ele>
        <time>2013-04-28T11:32:08Z</time>
      </trkpt>
      <trkpt lat="47.57179" lon="3.7774">
        <ele>136.64</ele>
        <time>2013-04-28T11:32:16Z</time>
      </trkpt>
      <trkpt lat="47.57174" lon="3.7773">
        <ele>137.61</ele>
        <time>2013-04-28T11:32:22Z</time>
      </trkpt>
      <trkpt lat="47.57169" lon="3.77719">
        <ele>137.61</ele>
        <time>2013-04-28T11:32:29Z</time>
      </trkpt>
      <trkpt lat="47.57164" lon="3.77708">
        <ele>138.09</ele>
        <time>2013-04-28T11:32:35Z</time>
      </trkpt>
      <trkpt lat="47.57162" lon="3.77705">
        <ele>138.57</ele>
        <time>2013-04-28T11:32:37Z</time>
      </trkpt>
      <trkpt lat="47.57161" lon="3.77703">
        <ele>138.57</ele>
        <time>2013-04-28T11:32:38Z</time>
      </trkpt>
      <trkpt lat="47.57155" lon="3.77692">
        <ele>139.05</ele>
        <time>2013-04-28T11:32:45Z</time>
      </trkpt>
      <trkpt lat="47.57149" lon="3.77682">
        <ele>139.53</ele>
        <time>2013-04-28T11:32:51Z</time>
      </trkpt>
      <trkpt lat="47.57148" lon="3.7768">
        <ele>140.01</ele>
        <time>2013-04-28T11:32:52Z</time>
      </trkpt>
      <trkpt lat="47.57146" lon="3.77677">
        <ele>139.53</ele>
        <time>2013-04-28T11:32:54Z</time>
      </trkpt>
      <trkpt lat="47.57145" lon="3.77675">
        <ele>140.01</ele>
        <time>2013-04-28T11:32:55Z</time>
      </trkpt>
      <trkpt lat="47.57144" lon="3.77673">
        <ele>139.53</ele>
        <time>2013-04-28T11:32:56Z</time>
      </trkpt>
      <trkpt lat="47.57139" lon="3.77668">
        <ele>140.49</ele>
        <time>2013-04-28T11:33:02Z</time>
      </trkpt>
      <trkpt lat="47.57137" lon="3.77668">
        <ele>141.93</ele>
        <time>2013-04-28T11:33:03Z</time>
      </trkpt>
      <trkpt lat="47.57136" lon="3.77667">
        <ele>141.45</ele>
        <time>2013-04-28T11:33:04Z</time>
      </trkpt>
      <trkpt lat="47.57135" lon="3.77666">
        <ele>140.97</ele>
        <time>2013-04-28T11:33:05Z</time>
      </trkpt>
      <trkpt lat="47.57134" lon="3.77664">
        <ele>140.97</ele>
        <time>2013-04-28T11:33:06Z</time>
      </trkpt>
      <trkpt lat="47.57133" lon="3.77663">
        <ele>142.41</ele>
        <time>2013-04-28T11:33:08Z</time>
      </trkpt>
      <trkpt lat="47.57127" lon="3.77658">
        <ele>143.37</ele>
        <time>2013-04-28T11:33:16Z</time>
      </trkpt>
      <trkpt lat="47.57126" lon="3.77658">
        <ele>143.85</ele>
        <time>2013-04-28T11:33:17Z</time>
      </trkpt>
      <trkpt lat="47.57122" lon="3.77654">
        <ele>145.3</ele>
        <time>2013-04-28T11:33:23Z</time>
      </trkpt>
      <trkpt lat="47.57117" lon="3.77641">
        <ele>146.74</ele>
        <time>2013-04-28T11:33:31Z</time>
      </trkpt>
      <trkpt lat="47.5711" lon="3.77628">
        <ele>148.18</ele>
        <time>2013-04-28T11:33:40Z</time>
      </trkpt>
      <trkpt lat="47.57102" lon="3.77623">
        <ele>148.66</ele>
        <time>2013-04-28T11:33:48Z</time>
      </trkpt>
      <trkpt lat="47.57088" lon="3.77613">
        <ele>150.58</ele>
        <time>2013-04-28T11:33:57Z</time>
      </trkpt>
      <trkpt lat="47.57077" lon="3.77615">
        <ele>152.99</ele>
        <time>2013-04-28T11:34:06Z</time>
      </trkpt>
      <trkpt lat="47.57071" lon="3.77617">
        <ele>153.47</ele>
        <time>2013-04-28T11:34:12Z</time>
      </trkpt>
      <trkpt lat="47.57059" lon="3.77618">
        <ele>155.39</ele>
        <time>2013-04-28T11:34:21Z</time>
      </trkpt>
      <trkpt lat="47.57047" lon="3.7762">
        <ele>156.83</ele>
        <time>2013-04-28T11:34:31Z</time>
      </trkpt>
      <trkpt lat="47.57034" lon="3.77624">
        <ele>159.24</ele>
        <time>2013-04-28T11:34:42Z</time>
      </trkpt>
      <trkpt lat="47.57028" lon="3.77631">
        <ele>161.16</ele>
        <time>2013-04-28T11:34:50Z</time>
      </trkpt>
      <trkpt lat="47.5702" lon="3.77631">
        <ele>163.08</ele>
        <time>2013-04-28T11:34:58Z</time>
      </trkpt>
      <trkpt lat="47.57013" lon="3.77626">
        <ele>163.56</ele>
        <time>2013-04-28T11:35:05Z</time>
      </trkpt>
      <trkpt lat="47.57008" lon="3.77617">
        <ele>165</ele>
        <time>2013-04-28T11:35:12Z</time>
      </trkpt>
      <trkpt lat="47.57003" lon="3.77605">
        <ele>166.45</ele>
        <time>2013-04-28T11:35:22Z</time>
      </trkpt>
      <trkpt lat="47.57001" lon="3.77596">
        <ele>168.37</ele>
        <time>2013-04-28T11:35:30Z</time>
      </trkpt>
      <trkpt lat="47.57" lon="3.77586">
        <ele>169.33</ele>
        <time>2013-04-28T11:35:37Z</time>
      </trkpt>
      <trkpt lat="47.57001" lon="3.77569">
        <ele>171.25</ele>
        <time>2013-04-28T11:35:46Z</time>
      </trkpt>
      <trkpt lat="47.57002" lon="3.77551">
        <ele>173.17</ele>
        <time>2013-04-28T11:35:55Z</time>
      </trkpt>
      <trkpt lat="47.57001" lon="3.77535">
        <ele>173.66</ele>
        <time>2013-04-28T11:36:03Z</time>
      </trkpt>
      <trkpt lat="47.57" lon="3.77523">
        <ele>174.62</ele>
        <time>2013-04-28T11:36:10Z</time>
      </trkpt>
      <trkpt lat="47.56997" lon="3.77511">
        <ele>175.58</ele>
        <time>2013-04-28T11:36:19Z</time>
      </trkpt>
      <trkpt lat="47.56998" lon="3.77502">
        <ele>176.54</ele>
        <time>2013-04-28T11:36:26Z</time>
      </trkpt>
      <trkpt lat="47.57001" lon="3.77496">
        <ele>177.98</ele>
        <time>2013-04-28T11:36:32Z</time>
      </trkpt>
      <trkpt lat="47.56997" lon="3.77475">
        <ele>177.98</ele>
        <time>2013-04-28T11:36:39Z</time>
      </trkpt>
      <trkpt lat="47.56996" lon="3.7746">
        <ele>179.42</ele>
        <time>2013-04-28T11:36:46Z</time>
      </trkpt>
      <trkpt lat="47.56994" lon="3.77444">
        <ele>180.38</ele>
        <time>2013-04-28T11:36:53Z</time>
      </trkpt>
      <trkpt lat="47.56991" lon="3.77431">
        <ele>181.83</ele>
        <time>2013-04-28T11:37:00Z</time>
      </trkpt>
      <trkpt lat="47.56987" lon="3.77412">
        <ele>182.79</ele>
        <time>2013-04-28T11:37:09Z</time>
      </trkpt>
      <trkpt lat="47.56983" lon="3.77398">
        <ele>184.23</ele>
        <time>2013-04-28T11:37:16Z</time>
      </trkpt>
      <trkpt lat="47.56982" lon="3.77387">
        <ele>186.15</ele>
        <time>2013-04-28T11:37:24Z</time>
      </trkpt>
      <trkpt lat="47.56978" lon="3.77373">
        <ele>186.63</ele>
        <time>2013-04-28T11:37:31Z</time>
      </trkpt>
      <trkpt lat="47.56976" lon="3.77369">
        <ele>187.59</ele>
        <time>2013-04-28T11:37:38Z</time>
      </trkpt>
      <trkpt lat="47.56971" lon="3.77359">
        <ele>188.56</ele>
        <time>2013-04-28T11:37:44Z</time>
      </trkpt>
      <trkpt lat="47.56966" lon="3.77339">
        <ele>190.48</ele>
        <time>2013-04-28T11:37:51Z</time>
      </trkpt>
      <trkpt lat="47.56961" lon="3.77328">
        <ele>191.44</ele>
        <time>2013-04-28T11:37:58Z</time>
      </trkpt>
      <trkpt lat="47.56956" lon="3.77317">
        <ele>193.84</ele>
        <time>2013-04-28T11:38:07Z</time>
      </trkpt>
      <trkpt lat="47.56952" lon="3.77303">
        <ele>195.28</ele>
        <time>2013-04-28T11:38:16Z</time>
      </trkpt>
      <trkpt lat="47.56951" lon="3.77286">
        <ele>196.73</ele>
        <time>2013-04-28T11:38:24Z</time>
      </trkpt>
      <trkpt lat="47.56949" lon="3.77288">
        <ele>196.25</ele>
        <time>2013-04-28T11:38:34Z</time>
      </trkpt>
      <trkpt lat="47.56952" lon="3.77275">
        <ele>196.73</ele>
        <time>2013-04-28T11:38:40Z</time>
      </trkpt>
      <trkpt lat="47.5695" lon="3.77264">
        <ele>196.25</ele>
        <time>2013-04-28T11:38:47Z</time>
      </trkpt>
      <trkpt lat="47.5695" lon="3.77247">
        <ele>196.73</ele>
        <time>2013-04-28T11:38:56Z</time>
      </trkpt>
      <trkpt lat="47.56945" lon="3.7725">
        <ele>196.25</ele>
        <time>2013-04-28T11:39:09Z</time>
      </trkpt>
      <trkpt lat="47.56946" lon="3.77235">
        <ele>195.77</ele>
        <time>2013-04-28T11:39:18Z</time>
      </trkpt>
      <trkpt lat="47.56948" lon="3.77219">
        <ele>195.77</ele>
        <time>2013-04-28T11:39:25Z</time>
      </trkpt>
      <trkpt lat="47.5695" lon="3.77201">
        <ele>195.77</ele>
        <time>2013-04-28T11:39:34Z</time>
      </trkpt>
      <trkpt lat="47.56953" lon="3.77184">
        <ele>195.28</ele>
        <time>2013-04-28T11:39:43Z</time>
      </trkpt>
      <trkpt lat="47.56953" lon="3.77166">
        <ele>195.28</ele>
        <time>2013-04-28T11:39:51Z</time>
      </trkpt>
      <trkpt lat="47.56952" lon="3.77146">
        <ele>195.77</ele>
        <time>2013-04-28T11:39:59Z</time>
      </trkpt>
      <trkpt lat="47.56951" lon="3.7713">
        <ele>196.25</ele>
        <time>2013-04-28T11:40:07Z</time>
      </trkpt>
      <trkpt lat="47.56947" lon="3.77111">
        <ele>197.21</ele>
        <time>2013-04-28T11:40:15Z</time>
      </trkpt>
      <trkpt lat="47.56944" lon="3.77091">
        <ele>199.13</ele>
        <time>2013-04-28T11:40:25Z</time>
      </trkpt>
      <trkpt lat="47.56944" lon="3.77081">
        <ele>200.09</ele>
        <time>2013-04-28T11:40:33Z</time>
      </trkpt>
      <trkpt lat="47.56948" lon="3.77069">
        <ele>199.61</ele>
        <time>2013-04-28T11:40:43Z</time>
      </trkpt>
      <trkpt lat="47.56954" lon="3.77058">
        <ele>199.13</ele>
        <time>2013-04-28T11:40:50Z</time>
      </trkpt>
      <trkpt lat="47.5696" lon="3.77047">
        <ele>198.65</ele>
        <time>2013-04-28T11:40:59Z</time>
      </trkpt>
      <trkpt lat="47.56965" lon="3.77034">
        <ele>198.17</ele>
        <time>2013-04-28T11:41:07Z</time>
      </trkpt>
      <trkpt lat="47.56968" lon="3.77028">
        <ele>198.17</ele>
        <time>2013-04-28T11:41:10Z</time>
      </trkpt>
      <trkpt lat="47.56975" lon="3.77011">
        <ele>198.17</ele>
        <time>2013-04-28T11:41:19Z</time>
      </trkpt>
      <trkpt lat="47.5698" lon="3.76996">
        <ele>198.65</ele>
        <time>2013-04-28T11:41:27Z</time>
      </trkpt>
      <trkpt lat="47.56979" lon="3.76988">
        <ele>199.61</ele>
        <time>2013-04-28T11:41:34Z</time>
      </trkpt>
      <trkpt lat="47.56976" lon="3.76981">
        <ele>200.57</ele>
        <time>2013-04-28T11:41:41Z</time>
      </trkpt>
      <trkpt lat="47.56971" lon="3.76965">
        <ele>201.05</ele>
        <time>2013-04-28T11:41:49Z</time>
      </trkpt>
      <trkpt lat="47.56964" lon="3.76952">
        <ele>202.49</ele>
        <time>2013-04-28T11:41:58Z</time>
      </trkpt>
      <trkpt lat="47.56958" lon="3.76947">
        <ele>203.46</ele>
        <time>2013-04-28T11:42:06Z</time>
      </trkpt>
      <trkpt lat="47.56955" lon="3.76942">
        <ele>204.9</ele>
        <time>2013-04-28T11:42:13Z</time>
      </trkpt>
      <trkpt lat="47.56947" lon="3.76935">
        <ele>205.38</ele>
        <time>2013-04-28T11:42:21Z</time>
      </trkpt>
      <trkpt lat="47.5694" lon="3.76927">
        <ele>205.86</ele>
        <time>2013-04-28T11:42:28Z</time>
      </trkpt>
      <trkpt lat="47.5693" lon="3.76917">
        <ele>206.34</ele>
        <time>2013-04-28T11:42:37Z</time>
      </trkpt>
      <trkpt lat="47.56922" lon="3.76909">
        <ele>206.34</ele>
        <time>2013-04-28T11:42:46Z</time>
      </trkpt>
      <trkpt lat="47.56915" lon="3.76897">
        <ele>206.34</ele>
        <time>2013-04-28T11:42:55Z</time>
      </trkpt>
      <trkpt lat="47.56909" lon="3.76886">
        <ele>205.86</ele>
        <time>2013-04-28T11:43:03Z</time>
      </trkpt>
      <trkpt lat="47.56892" lon="3.76861">
        <ele>205.86</ele>
        <time>2013-04-28T11:43:13Z</time>
      </trkpt>
      <trkpt lat="47.56887" lon="3.76852">
        <ele>205.38</ele>
        <time>2013-04-28T11:43:21Z</time>
      </trkpt>
      <trkpt lat="47.56882" lon="3.76847">
        <ele>204.42</ele>
        <time>2013-04-28T11:43:28Z</time>
      </trkpt>
      <trkpt lat="47.56876" lon="3.76836">
        <ele>202.98</ele>
        <time>2013-04-28T11:43:35Z</time>
      </trkpt>
      <trkpt lat="47.56864" lon="3.76814">
        <ele>202.49</ele>
        <time>2013-04-28T11:43:44Z</time>
      </trkpt>
      <trkpt lat="47.56864" lon="3.76798">
        <ele>201.53</ele>
        <time>2013-04-28T11:43:52Z</time>
      </trkpt>
      <trkpt lat="47.56862" lon="3.76786">
        <ele>199.13</ele>
        <time>2013-04-28T11:44:02Z</time>
      </trkpt>
      <trkpt lat="47.56854" lon="3.76777">
        <ele>196.25</ele>
        <time>2013-04-28T11:44:10Z</time>
      </trkpt>
      <trkpt lat="47.5684" lon="3.76766">
        <ele>193.84</ele>
        <time>2013-04-28T11:44:18Z</time>
      </trkpt>
      <trkpt lat="47.56831" lon="3.76762">
        <ele>192.4</ele>
        <time>2013-04-28T11:44:25Z</time>
      </trkpt>
      <trkpt lat="47.56822" lon="3.7676">
        <ele>190.48</ele>
        <time>2013-04-28T11:44:34Z</time>
      </trkpt>
      <trkpt lat="47.56811" lon="3.76759">
        <ele>188.08</ele>
        <time>2013-04-28T11:44:43Z</time>
      </trkpt>
      <trkpt lat="47.56799" lon="3.76758">
        <ele>185.67</ele>
        <time>2013-04-28T11:44:53Z</time>
      </trkpt>
      <trkpt lat="47.56792" lon="3.76755">
        <ele>183.75</ele>
        <time>2013-04-28T11:45:01Z</time>
      </trkpt>
      <trkpt lat="47.56782" lon="3.76746">
        <ele>181.35</ele>
        <time>2013-04-28T11:45:09Z</time>
      </trkpt>
      <trkpt lat="47.56775" lon="3.76736">
        <ele>179.42</ele>
        <time>2013-04-28T11:45:17Z</time>
      </trkpt>
      <trkpt lat="47.56769" lon="3.76725">
        <ele>177.02</ele>
        <time>2013-04-28T11:45:26Z</time>
      </trkpt>
      <trkpt lat="47.56763" lon="3.76713">
        <ele>174.62</ele>
        <time>2013-04-28T11:45:36Z</time>
      </trkpt>
      <trkpt lat="47.56752" lon="3.76698">
        <ele>171.25</ele>
        <time>2013-04-28T11:45:47Z</time>
      </trkpt>
      <trkpt lat="47.56739" lon="3.76689">
        <ele>168.37</ele>
        <time>2013-04-28T11:45:56Z</time>
      </trkpt>
      <trkpt lat="47.56728" lon="3.76685">
        <ele>166.93</ele>
        <time>2013-04-28T11:46:05Z</time>
      </trkpt>
      <trkpt lat="47.56717" lon="3.76679">
        <ele>164.04</ele>
        <time>2013-04-28T11:46:13Z</time>
      </trkpt>
      <trkpt lat="47.56709" lon="3.76675">
        <ele>162.12</ele>
        <time>2013-04-28T11:46:21Z</time>
      </trkpt>
      <trkpt lat="47.56701" lon="3.76673">
        <ele>159.72</ele>
        <time>2013-04-28T11:46:30Z</time>
      </trkpt>
      <trkpt lat="47.56692" lon="3.76669">
        <ele>156.83</ele>
        <time>2013-04-28T11:46:41Z</time>
      </trkpt>
      <trkpt lat="47.56681" lon="3.76665">
        <ele>154.91</ele>
        <time>2013-04-28T11:46:51Z</time>
      </trkpt>
      <trkpt lat="47.56669" lon="3.76659">
        <ele>152.51</ele>
        <time>2013-04-28T11:47:00Z</time>
      </trkpt>
      <trkpt lat="47.56659" lon="3.76656">
        <ele>151.06</ele>
        <time>2013-04-28T11:47:08Z</time>
      </trkpt>
      <trkpt lat="47.56648" lon="3.76657">
        <ele>148.66</ele>
        <time>2013-04-28T11:47:17Z</time>
      </trkpt>
      <trkpt lat="47.56638" lon="3.76668">
        <ele>148.18</ele>
        <time>2013-04-28T11:47:22Z</time>
      </trkpt>
      <trkpt lat="47.56631" lon="3.76679">
        <ele>147.7</ele>
        <time>2013-04-28T11:47:30Z</time>
      </trkpt>
      <trkpt lat="47.56622" lon="3.76692">
        <ele>146.74</ele>
        <time>2013-04-28T11:47:40Z</time>
      </trkpt>
      <trkpt lat="47.56611" lon="3.76702">
        <ele>146.26</ele>
        <time>2013-04-28T11:47:50Z</time>
      </trkpt>
      <trkpt lat="47.56603" lon="3.7671">
        <ele>146.26</ele>
        <time>2013-04-28T11:47:58Z</time>
      </trkpt>
      <trkpt lat="47.56592" lon="3.76721">
        <ele>145.3</ele>
        <time>2013-04-28T11:48:08Z</time>
      </trkpt>
      <trkpt lat="47.56588" lon="3.76724">
        <ele>145.3</ele>
        <time>2013-04-28T11:48:12Z</time>
      </trkpt>
      <trkpt lat="47.56577" lon="3.76732">
        <ele>144.34</ele>
        <time>2013-04-28T11:48:21Z</time>
      </trkpt>
      <trkpt lat="47.56568" lon="3.76738">
        <ele>144.34</ele>
        <time>2013-04-28T11:48:29Z</time>
      </trkpt>
      <trkpt lat="47.56565" lon="3.76738">
        <ele>142.41</ele>
        <time>2013-04-28T11:48:31Z</time>
      </trkpt>
      <trkpt lat="47.56563" lon="3.76738">
        <ele>145.78</ele>
        <time>2013-04-28T11:48:32Z</time>
      </trkpt>
      <trkpt lat="47.56562" lon="3.76737">
        <ele>144.34</ele>
        <time>2013-04-28T11:48:33Z</time>
      </trkpt>
      <trkpt lat="47.56546" lon="3.76731">
        <ele>143.85</ele>
        <time>2013-04-28T11:48:42Z</time>
      </trkpt>
      <trkpt lat="47.56536" lon="3.76729">
        <ele>143.37</ele>
        <time>2013-04-28T11:48:48Z</time>
      </trkpt>
      <trkpt lat="47.56521" lon="3.76728">
        <ele>142.89</ele>
        <time>2013-04-28T11:48:59Z</time>
      </trkpt>
      <trkpt lat="47.5651" lon="3.76729">
        <ele>142.89</ele>
        <time>2013-04-28T11:49:08Z</time>
      </trkpt>
      <trkpt lat="47.56499" lon="3.7673">
        <ele>142.41</ele>
        <time>2013-04-28T11:49:17Z</time>
      </trkpt>
      <trkpt lat="47.56489" lon="3.76729">
        <ele>141.93</ele>
        <time>2013-04-28T11:49:25Z</time>
      </trkpt>
      <trkpt lat="47.56475" lon="3.76726">
        <ele>141.93</ele>
        <time>2013-04-28T11:49:35Z</time>
      </trkpt>
      <trkpt lat="47.56469" lon="3.7672">
        <ele>141.45</ele>
        <time>2013-04-28T11:49:41Z</time>
      </trkpt>
      <trkpt lat="47.56457" lon="3.76715">
        <ele>141.45</ele>
        <time>2013-04-28T11:49:49Z</time>
      </trkpt>
      <trkpt lat="47.56457" lon="3.76708">
        <ele>140.97</ele>
        <time>2013-04-28T11:49:55Z</time>
      </trkpt>
      <trkpt lat="47.5646" lon="3.76703">
        <ele>140.01</ele>
        <time>2013-04-28T11:50:02Z</time>
      </trkpt>
      <trkpt lat="47.56464" lon="3.76698">
        <ele>139.05</ele>
        <time>2013-04-28T11:50:08Z</time>
      </trkpt>
      <trkpt lat="47.56467" lon="3.76691">
        <ele>139.05</ele>
        <time>2013-04-28T11:50:14Z</time>
      </trkpt>
      <trkpt lat="47.56479" lon="3.76681">
        <ele>139.05</ele>
        <time>2013-04-28T11:50:22Z</time>
      </trkpt>
      <trkpt lat="47.56485" lon="3.76672">
        <ele>139.53</ele>
        <time>2013-04-28T11:50:29Z</time>
      </trkpt>
      <trkpt lat="47.56493" lon="3.76661">
        <ele>139.53</ele>
        <time>2013-04-28T11:50:36Z</time>
      </trkpt>
      <trkpt lat="47.56508" lon="3.76652">
        <ele>139.53</ele>
        <time>2013-04-28T11:50:45Z</time>
      </trkpt>
      <trkpt lat="47.5652" lon="3.76645">
        <ele>140.49</ele>
        <time>2013-04-28T11:50:54Z</time>
      </trkpt>
      <trkpt lat="47.56527" lon="3.7664">
        <ele>140.97</ele>
        <time>2013-04-28T11:51:01Z</time>
      </trkpt>
      <trkpt lat="47.56532" lon="3.76636">
        <ele>141.93</ele>
        <time>2013-04-28T11:51:05Z</time>
      </trkpt>
      <trkpt lat="47.56539" lon="3.76625">
        <ele>143.37</ele>
        <time>2013-04-28T11:51:12Z</time>
      </trkpt>
      <trkpt lat="47.56547" lon="3.76614">
        <ele>144.82</ele>
        <time>2013-04-28T11:51:20Z</time>
      </trkpt>
      <trkpt lat="47.56552" lon="3.76602">
        <ele>144.82</ele>
        <time>2013-04-28T11:51:27Z</time>
      </trkpt>
      <trkpt lat="47.56552" lon="3.76586">
        <ele>145.78</ele>
        <time>2013-04-28T11:51:36Z</time>
      </trkpt>
      <trkpt lat="47.56547" lon="3.76572">
        <ele>145.78</ele>
        <time>2013-04-28T11:51:46Z</time>
      </trkpt>
      <trkpt lat="47.56543" lon="3.76557">
        <ele>146.26</ele>
        <time>2013-04-28T11:51:54Z</time>
      </trkpt>
      <trkpt lat="47.56535" lon="3.76542">
        <ele>146.26</ele>
        <time>2013-04-28T11:52:02Z</time>
      </trkpt>
      <trkpt lat="47.56526" lon="3.76523">
        <ele>146.26</ele>
        <time>2013-04-28T11:52:12Z</time>
      </trkpt>
      <trkpt lat="47.56521" lon="3.7651">
        <ele>146.74</ele>
        <time>2013-04-28T11:52:19Z</time>
      </trkpt>
      <trkpt lat="47.56519" lon="3.76494">
        <ele>146.74</ele>
        <time>2013-04-28T11:52:27Z</time>
      </trkpt>
      <trkpt lat="47.56517" lon="3.76476">
        <ele>146.74</ele>
        <time>2013-04-28T11:52:35Z</time>
      </trkpt>
      <trkpt lat="47.56516" lon="3.7646">
        <ele>146.74</ele>
        <time>2013-04-28T11:52:44Z</time>
      </trkpt>
      <trkpt lat="47.56514" lon="3.76446">
        <ele>147.7</ele>
        <time>2013-04-28T11:52:54Z</time>
      </trkpt>
      <trkpt lat="47.56506" lon="3.76423">
        <ele>147.7</ele>
        <time>2013-04-28T11:53:04Z</time>
      </trkpt>
      <trkpt lat="47.565" lon="3.76405">
        <ele>147.7</ele>
        <time>2013-04-28T11:53:12Z</time>
      </trkpt>
      <trkpt lat="47.56495" lon="3.76393">
        <ele>147.7</ele>
        <time>2013-04-28T11:53:22Z</time>
      </trkpt>
      <trkpt lat="47.56491" lon="3.76375">
        <ele>147.7</ele>
        <time>2013-04-28T11:53:31Z</time>
      </trkpt>
      <trkpt lat="47.56486" lon="3.76359">
        <ele>148.18</ele>
        <time>2013-04-28T11:53:39Z</time>
      </trkpt>
      <trkpt lat="47.56483" lon="3.76346">
        <ele>148.18</ele>
        <time>2013-04-28T11:53:46Z</time>
      </trkpt>
      <trkpt lat="47.56477" lon="3.76327">
        <ele>148.66</ele>
        <time>2013-04-28T11:53:55Z</time>
      </trkpt>
      <trkpt lat="47.56468" lon="3.76308">
        <ele>148.66</ele>
        <time>2013-04-28T11:54:04Z</time>
      </trkpt>
      <trkpt lat="47.56465" lon="3.76291">
        <ele>149.14</ele>
        <time>2013-04-28T11:54:13Z</time>
      </trkpt>
      <trkpt lat="47.56462" lon="3.76275">
        <ele>149.62</ele>
        <time>2013-04-28T11:54:20Z</time>
      </trkpt>
      <trkpt lat="47.56464" lon="3.76264">
        <ele>150.1</ele>
        <time>2013-04-28T11:54:25Z</time>
      </trkpt>
      <trkpt lat="47.56466" lon="3.76255">
        <ele>151.06</ele>
        <time>2013-04-28T11:54:30Z</time>
      </trkpt>
      <trkpt lat="47.56471" lon="3.76243">
        <ele>150.58</ele>
        <time>2013-04-28T11:54:38Z</time>
      </trkpt>
      <trkpt lat="47.56474" lon="3.76234">
        <ele>151.06</ele>
        <time>2013-04-28T11:54:44Z</time>
      </trkpt>
      <trkpt lat="47.56477" lon="3.76219">
        <ele>151.06</ele>
        <time>2013-04-28T11:54:51Z</time>
      </trkpt>
      <trkpt lat="47.5648" lon="3.76202">
        <ele>151.54</ele>
        <time>2013-04-28T11:54:59Z</time>
      </trkpt>
      <trkpt lat="47.56479" lon="3.76187">
        <ele>151.54</ele>
        <time>2013-04-28T11:55:07Z</time>
      </trkpt>
      <trkpt lat="47.56479" lon="3.76167">
        <ele>152.99</ele>
        <time>2013-04-28T11:55:17Z</time>
      </trkpt>
      <trkpt lat="47.56474" lon="3.76147">
        <ele>152.99</ele>
        <time>2013-04-28T11:55:25Z</time>
      </trkpt>
      <trkpt lat="47.56468" lon="3.76128">
        <ele>152.99</ele>
        <time>2013-04-28T11:55:35Z</time>
      </trkpt>
      <trkpt lat="47.56458" lon="3.76107">
        <ele>154.43</ele>
        <time>2013-04-28T11:55:45Z</time>
      </trkpt>
      <trkpt lat="47.56452" lon="3.76096">
        <ele>154.43</ele>
        <time>2013-04-28T11:55:52Z</time>
      </trkpt>
      <trkpt lat="47.56446" lon="3.76088">
        <ele>154.43</ele>
        <time>2013-04-28T11:55:59Z</time>
      </trkpt>
      <trkpt lat="47.56435" lon="3.76078">
        <ele>154.43</ele>
        <time>2013-04-28T11:56:08Z</time>
      </trkpt>
      <trkpt lat="47.56424" lon="3.76069">
        <ele>154.91</ele>
        <time>2013-04-28T11:56:16Z</time>
      </trkpt>
      <trkpt lat="47.56415" lon="3.76061">
        <ele>154.91</ele>
        <time>2013-04-28T11:56:25Z</time>
      </trkpt>
      <trkpt lat="47.56404" lon="3.76045">
        <ele>155.87</ele>
        <time>2013-04-28T11:56:35Z</time>
      </trkpt>
      <trkpt lat="47.56396" lon="3.76038">
        <ele>156.35</ele>
        <time>2013-04-28T11:56:44Z</time>
      </trkpt>
      <trkpt lat="47.56384" lon="3.7603">
        <ele>156.35</ele>
        <time>2013-04-28T11:56:54Z</time>
      </trkpt>
      <trkpt lat="47.56373" lon="3.76019">
        <ele>156.83</ele>
        <time>2013-04-28T11:57:03Z</time>
      </trkpt>
      <trkpt lat="47.56369" lon="3.76017">
        <ele>157.31</ele>
        <time>2013-04-28T11:57:10Z</time>
      </trkpt>
      <trkpt lat="47.5636" lon="3.7601">
        <ele>157.79</ele>
        <time>2013-04-28T11:57:19Z</time>
      </trkpt>
      <trkpt lat="47.56347" lon="3.76001">
        <ele>158.27</ele>
        <time>2013-04-28T11:57:27Z</time>
      </trkpt>
      <trkpt lat="47.56332" lon="3.76001">
        <ele>158.27</ele>
        <time>2013-04-28T11:57:36Z</time>
      </trkpt>
      <trkpt lat="47.56323" lon="3.75999">
        <ele>159.24</ele>
        <time>2013-04-28T11:57:45Z</time>
      </trkpt>
      <trkpt lat="47.56311" lon="3.75996">
        <ele>159.24</ele>
        <time>2013-04-28T11:57:53Z</time>
      </trkpt>
      <trkpt lat="47.56301" lon="3.75996">
        <ele>159.72</ele>
        <time>2013-04-28T11:58:01Z</time>
      </trkpt>
      <trkpt lat="47.56287" lon="3.76006">
        <ele>160.2</ele>
        <time>2013-04-28T11:58:10Z</time>
      </trkpt>
      <trkpt lat="47.56275" lon="3.76016">
        <ele>159.72</ele>
        <time>2013-04-28T11:58:18Z</time>
      </trkpt>
      <trkpt lat="47.56269" lon="3.76013">
        <ele>160.2</ele>
        <time>2013-04-28T11:58:26Z</time>
      </trkpt>
      <trkpt lat="47.56261" lon="3.7601">
        <ele>160.68</ele>
        <time>2013-04-28T11:58:36Z</time>
      </trkpt>
      <trkpt lat="47.56244" lon="3.76015">
        <ele>160.68</ele>
        <time>2013-04-28T11:58:45Z</time>
      </trkpt>
      <trkpt lat="47.56231" lon="3.76016">
        <ele>161.16</ele>
        <time>2013-04-28T11:58:53Z</time>
      </trkpt>
      <trkpt lat="47.56214" lon="3.76027">
        <ele>161.64</ele>
        <time>2013-04-28T11:59:04Z</time>
      </trkpt>
      <trkpt lat="47.56205" lon="3.76024">
        <ele>161.16</ele>
        <time>2013-04-28T11:59:11Z</time>
      </trkpt>
      <trkpt lat="47.56198" lon="3.76022">
        <ele>161.64</ele>
        <time>2013-04-28T11:59:17Z</time>
      </trkpt>
      <trkpt lat="47.5619" lon="3.76021">
        <ele>161.64</ele>
        <time>2013-04-28T11:59:24Z</time>
      </trkpt>
      <trkpt lat="47.56175" lon="3.76009">
        <ele>162.12</ele>
        <time>2013-04-28T11:59:33Z</time>
      </trkpt>
      <trkpt lat="47.56166" lon="3.76002">
        <ele>162.6</ele>
        <time>2013-04-28T11:59:42Z</time>
      </trkpt>
      <trkpt lat="47.56159" lon="3.75994">
        <ele>162.6</ele>
        <time>2013-04-28T11:59:51Z</time>
      </trkpt>
      <trkpt lat="47.56152" lon="3.7599">
        <ele>162.6</ele>
        <time>2013-04-28T11:59:59Z</time>
      </trkpt>
      <trkpt lat="47.56145" lon="3.7598">
        <ele>163.56</ele>
        <time>2013-04-28T12:00:08Z</time>
      </trkpt>
      <trkpt lat="47.56137" lon="3.75965">
        <ele>164.52</ele>
        <time>2013-04-28T12:00:18Z</time>
      </trkpt>
      <trkpt lat="47.56123" lon="3.75945">
        <ele>165</ele>
        <time>2013-04-28T12:00:28Z</time>
      </trkpt>
      <trkpt lat="47.56113" lon="3.75932">
        <ele>165.48</ele>
        <time>2013-04-28T12:00:40Z</time>
      </trkpt>
      <trkpt lat="47.56107" lon="3.75919">
        <ele>165.96</ele>
        <time>2013-04-28T12:00:48Z</time>
      </trkpt>
      <trkpt lat="47.56101" lon="3.75904">
        <ele>166.45</ele>
        <time>2013-04-28T12:00:59Z</time>
      </trkpt>
      <trkpt lat="47.56098" lon="3.75891">
        <ele>166.45</ele>
        <time>2013-04-28T12:01:09Z</time>
      </trkpt>
      <trkpt lat="47.56094" lon="3.75874">
        <ele>166.93</ele>
        <time>2013-04-28T12:01:18Z</time>
      </trkpt>
      <trkpt lat="47.56086" lon="3.75852">
        <ele>167.41</ele>
        <time>2013-04-28T12:01:27Z</time>
      </trkpt>
      <trkpt lat="47.5608" lon="3.75838">
        <ele>167.41</ele>
        <time>2013-04-28T12:01:36Z</time>
      </trkpt>
      <trkpt lat="47.56074" lon="3.75825">
        <ele>167.89</ele>
        <time>2013-04-28T12:01:45Z</time>
      </trkpt>
      <trkpt lat="47.56066" lon="3.75804">
        <ele>168.85</ele>
        <time>2013-04-28T12:01:58Z</time>
      </trkpt>
      <trkpt lat="47.56062" lon="3.75786">
        <ele>169.81</ele>
        <time>2013-04-28T12:02:07Z</time>
      </trkpt>
      <trkpt lat="47.56057" lon="3.7577">
        <ele>169.81</ele>
        <time>2013-04-28T12:02:17Z</time>
      </trkpt>
      <trkpt lat="47.56052" lon="3.75754">
        <ele>170.29</ele>
        <time>2013-04-28T12:02:26Z</time>
      </trkpt>
      <trkpt lat="47.56047" lon="3.75739">
        <ele>170.77</ele>
        <time>2013-04-28T12:02:35Z</time>
      </trkpt>
      <trkpt lat="47.56043" lon="3.75725">
        <ele>171.25</ele>
        <time>2013-04-28T12:02:43Z</time>
      </trkpt>
      <trkpt lat="47.56038" lon="3.75712">
        <ele>171.73</ele>
        <time>2013-04-28T12:02:52Z</time>
      </trkpt>
      <trkpt lat="47.56032" lon="3.75697">
        <ele>172.21</ele>
        <time>2013-04-28T12:03:01Z</time>
      </trkpt>
      <trkpt lat="47.56027" lon="3.7568">
        <ele>172.69</ele>
        <time>2013-04-28T12:03:11Z</time>
      </trkpt>
      <trkpt lat="47.56022" lon="3.75664">
        <ele>173.66</ele>
        <time>2013-04-28T12:03:21Z</time>
      </trkpt>
      <trkpt lat="47.56015" lon="3.7565">
        <ele>173.66</ele>
        <time>2013-04-28T12:03:28Z</time>
      </trkpt>
      <trkpt lat="47.5601" lon="3.75636">
        <ele>174.14</ele>
        <time>2013-04-28T12:03:35Z</time>
      </trkpt>
      <trkpt lat="47.56005" lon="3.75619">
        <ele>174.14</ele>
        <time>2013-04-28T12:03:44Z</time>
      </trkpt>
      <trkpt lat="47.56001" lon="3.75606">
        <ele>174.62</ele>
        <time>2013-04-28T12:03:52Z</time>
      </trkpt>
      <trkpt lat="47.55994" lon="3.75586">
        <ele>174.62</ele>
        <time>2013-04-28T12:04:03Z</time>
      </trkpt>
      <trkpt lat="47.55989" lon="3.7557">
        <ele>175.58</ele>
        <time>2013-04-28T12:04:12Z</time>
      </trkpt>
      <trkpt lat="47.55985" lon="3.7556">
        <ele>176.06</ele>
        <time>2013-04-28T12:04:19Z</time>
      </trkpt>
      <trkpt lat="47.55977" lon="3.75543">
        <ele>176.06</ele>
        <time>2013-04-28T12:04:29Z</time>
      </trkpt>
      <trkpt lat="47.55974" lon="3.75535">
        <ele>177.02</ele>
        <time>2013-04-28T12:04:36Z</time>
      </trkpt>
      <trkpt lat="47.55973" lon="3.75531">
        <ele>177.02</ele>
        <time>2013-04-28T12:04:39Z</time>
      </trkpt>
      <trkpt lat="47.55968" lon="3.75519">
        <ele>177.5</ele>
        <time>2013-04-28T12:04:47Z</time>
      </trkpt>
      <trkpt lat="47.55967" lon="3.7551">
        <ele>177.5</ele>
        <time>2013-04-28T12:04:52Z</time>
      </trkpt>
      <trkpt lat="47.55964" lon="3.75496">
        <ele>177.5</ele>
        <time>2013-04-28T12:05:00Z</time>
      </trkpt>
      <trkpt lat="47.55961" lon="3.75475">
        <ele>178.46</ele>
        <time>2013-04-28T12:05:09Z</time>
      </trkpt>
      <trkpt lat="47.55957" lon="3.75459">
        <ele>178.46</ele>
        <time>2013-04-28T12:05:18Z</time>
      </trkpt>
      <trkpt lat="47.55953" lon="3.75446">
        <ele>178.46</ele>
        <time>2013-04-28T12:05:27Z</time>
      </trkpt>
      <trkpt lat="47.55949" lon="3.75435">
        <ele>179.42</ele>
        <time>2013-04-28T12:05:35Z</time>
      </trkpt>
      <trkpt lat="47.55945" lon="3.75422">
        <ele>179.42</ele>
        <time>2013-04-28T12:05:43Z</time>
      </trkpt>
      <trkpt lat="47.55938" lon="3.75401">
        <ele>179.42</ele>
        <time>2013-04-28T12:05:55Z</time>
      </trkpt>
      <trkpt lat="47.5593" lon="3.75382">
        <ele>179.9</ele>
        <time>2013-04-28T12:06:03Z</time>
      </trkpt>
      <trkpt lat="47.55923" lon="3.75363">
        <ele>179.9</ele>
        <time>2013-04-28T12:06:13Z</time>
      </trkpt>
      <trkpt lat="47.55921" lon="3.75349">
        <ele>180.87</ele>
        <time>2013-04-28T12:06:22Z</time>
      </trkpt>
      <trkpt lat="47.55919" lon="3.75334">
        <ele>180.38</ele>
        <time>2013-04-28T12:06:31Z</time>
      </trkpt>
      <trkpt lat="47.55913" lon="3.75316">
        <ele>180.87</ele>
        <time>2013-04-28T12:06:42Z</time>
      </trkpt>
      <trkpt lat="47.55908" lon="3.75291">
        <ele>181.83</ele>
        <time>2013-04-28T12:06:53Z</time>
      </trkpt>
      <trkpt lat="47.55906" lon="3.75275">
        <ele>182.31</ele>
        <time>2013-04-28T12:07:02Z</time>
      </trkpt>
      <trkpt lat="47.55902" lon="3.7526">
        <ele>182.79</ele>
        <time>2013-04-28T12:07:11Z</time>
      </trkpt>
      <trkpt lat="47.55901" lon="3.7525">
        <ele>183.75</ele>
        <time>2013-04-28T12:07:19Z</time>
      </trkpt>
      <trkpt lat="47.55902" lon="3.75243">
        <ele>183.75</ele>
        <time>2013-04-28T12:07:27Z</time>
      </trkpt>
      <trkpt lat="47.55903" lon="3.75238">
        <ele>182.79</ele>
        <time>2013-04-28T12:07:32Z</time>
      </trkpt>
      <trkpt lat="47.55891" lon="3.75204">
        <ele>183.75</ele>
        <time>2013-04-28T12:07:42Z</time>
      </trkpt>
      <trkpt lat="47.55892" lon="3.75189">
        <ele>183.75</ele>
        <time>2013-04-28T12:07:51Z</time>
      </trkpt>
      <trkpt lat="47.55894" lon="3.75175">
        <ele>184.71</ele>
        <time>2013-04-28T12:08:00Z</time>
      </trkpt>
      <trkpt lat="47.55887" lon="3.75158">
        <ele>185.19</ele>
        <time>2013-04-28T12:08:08Z</time>
      </trkpt>
      <trkpt lat="47.55882" lon="3.75142">
        <ele>186.15</ele>
        <time>2013-04-28T12:08:17Z</time>
      </trkpt>
      <trkpt lat="47.55876" lon="3.75136">
        <ele>187.59</ele>
        <time>2013-04-28T12:08:27Z</time>
      </trkpt>
      <trkpt lat="47.55871" lon="3.75129">
        <ele>188.56</ele>
        <time>2013-04-28T12:08:34Z</time>
      </trkpt>
      <trkpt lat="47.55868" lon="3.75117">
        <ele>188.56</ele>
        <time>2013-04-28T12:08:42Z</time>
      </trkpt>
      <trkpt lat="47.55869" lon="3.75106">
        <ele>187.59</ele>
        <time>2013-04-28T12:08:51Z</time>
      </trkpt>
      <trkpt lat="47.55873" lon="3.75094">
        <ele>189.04</ele>
        <time>2013-04-28T12:08:59Z</time>
      </trkpt>
      <trkpt lat="47.55877" lon="3.75089">
        <ele>188.56</ele>
        <time>2013-04-28T12:09:08Z</time>
      </trkpt>
      <trkpt lat="47.55881" lon="3.75083">
        <ele>188.56</ele>
        <time>2013-04-28T12:09:16Z</time>
      </trkpt>
      <trkpt lat="47.55885" lon="3.75084">
        <ele>188.56</ele>
        <time>2013-04-28T12:09:23Z</time>
      </trkpt>
      <trkpt lat="47.5589" lon="3.75096">
        <ele>188.56</ele>
        <time>2013-04-28T12:09:32Z</time>
      </trkpt>
      <trkpt lat="47.55897" lon="3.751">
        <ele>189.52</ele>
        <time>2013-04-28T12:09:40Z</time>
      </trkpt>
      <trkpt lat="47.55907" lon="3.75098">
        <ele>191.44</ele>
        <time>2013-04-28T12:09:49Z</time>
      </trkpt>
      <trkpt lat="47.55913" lon="3.75097">
        <ele>192.4</ele>
        <time>2013-04-28T12:09:56Z</time>
      </trkpt>
      <trkpt lat="47.55916" lon="3.75094">
        <ele>193.84</ele>
        <time>2013-04-28T12:10:02Z</time>
      </trkpt>
      <trkpt lat="47.55928" lon="3.75086">
        <ele>194.8</ele>
        <time>2013-04-28T12:10:09Z</time>
      </trkpt>
      <trkpt lat="47.55934" lon="3.75078">
        <ele>196.25</ele>
        <time>2013-04-28T12:10:16Z</time>
      </trkpt>
      <trkpt lat="47.55935" lon="3.75067">
        <ele>196.25</ele>
        <time>2013-04-28T12:10:25Z</time>
      </trkpt>
      <trkpt lat="47.55937" lon="3.7505">
        <ele>197.21</ele>
        <time>2013-04-28T12:10:34Z</time>
      </trkpt>
      <trkpt lat="47.55937" lon="3.75041">
        <ele>197.21</ele>
        <time>2013-04-28T12:10:41Z</time>
      </trkpt>
      <trkpt lat="47.55935" lon="3.7503">
        <ele>197.21</ele>
        <time>2013-04-28T12:10:48Z</time>
      </trkpt>
      <trkpt lat="47.55935" lon="3.75012">
        <ele>197.21</ele>
        <time>2013-04-28T12:10:58Z</time>
      </trkpt>
      <trkpt lat="47.55932" lon="3.74994">
        <ele>196.73</ele>
        <time>2013-04-28T12:11:08Z</time>
      </trkpt>
      <trkpt lat="47.55927" lon="3.74974">
        <ele>196.25</ele>
        <time>2013-04-28T12:11:18Z</time>
      </trkpt>
      <trkpt lat="47.55925" lon="3.74955">
        <ele>195.77</ele>
        <time>2013-04-28T12:11:27Z</time>
      </trkpt>
      <trkpt lat="47.55924" lon="3.74933">
        <ele>195.28</ele>
        <time>2013-04-28T12:11:36Z</time>
      </trkpt>
      <trkpt lat="47.55926" lon="3.7492">
        <ele>194.8</ele>
        <time>2013-04-28T12:11:45Z</time>
      </trkpt>
      <trkpt lat="47.55928" lon="3.74908">
        <ele>193.84</ele>
        <time>2013-04-28T12:11:54Z</time>
      </trkpt>
      <trkpt lat="47.55928" lon="3.749">
        <ele>192.4</ele>
        <time>2013-04-28T12:11:59Z</time>
      </trkpt>
      <trkpt lat="47.55922" lon="3.74869">
        <ele>193.36</ele>
        <time>2013-04-28T12:12:12Z</time>
      </trkpt>
      <trkpt lat="47.55916" lon="3.74845">
        <ele>193.36</ele>
        <time>2013-04-28T12:12:24Z</time>
      </trkpt>
      <trkpt lat="47.55915" lon="3.74826">
        <ele>193.84</ele>
        <time>2013-04-28T12:12:35Z</time>
      </trkpt>
      <trkpt lat="47.55907" lon="3.74804">
        <ele>194.8</ele>
        <time>2013-04-28T12:12:44Z</time>
      </trkpt>
      <trkpt lat="47.55903" lon="3.74794">
        <ele>194.32</ele>
        <time>2013-04-28T12:12:49Z</time>
      </trkpt>
      <trkpt lat="47.55896" lon="3.74778">
        <ele>193.84</ele>
        <time>2013-04-28T12:12:58Z</time>
      </trkpt>
      <trkpt lat="47.5589" lon="3.74767">
        <ele>193.84</ele>
        <time>2013-04-28T12:13:05Z</time>
      </trkpt>
      <trkpt lat="47.55884" lon="3.74754">
        <ele>193.36</ele>
        <time>2013-04-28T12:13:14Z</time>
      </trkpt>
      <trkpt lat="47.55876" lon="3.74737">
        <ele>194.32</ele>
        <time>2013-04-28T12:13:28Z</time>
      </trkpt>
      <trkpt lat="47.55868" lon="3.74713">
        <ele>194.32</ele>
        <time>2013-04-28T12:13:40Z</time>
      </trkpt>
      <trkpt lat="47.55857" lon="3.74695">
        <ele>194.32</ele>
        <time>2013-04-28T12:13:50Z</time>
      </trkpt>
      <trkpt lat="47.55852" lon="3.74683">
        <ele>194.8</ele>
        <time>2013-04-28T12:14:00Z</time>
      </trkpt>
      <trkpt lat="47.55845" lon="3.74664">
        <ele>195.28</ele>
        <time>2013-04-28T12:14:10Z</time>
      </trkpt>
      <trkpt lat="47.55839" lon="3.74648">
        <ele>195.77</ele>
        <time>2013-04-28T12:14:19Z</time>
      </trkpt>
      <trkpt lat="47.55831" lon="3.7463">
        <ele>195.77</ele>
        <time>2013-04-28T12:14:28Z</time>
      </trkpt>
      <trkpt lat="47.55827" lon="3.74617">
        <ele>195.77</ele>
        <time>2013-04-28T12:14:36Z</time>
      </trkpt>
      <trkpt lat="47.55826" lon="3.74614">
        <ele>195.28</ele>
        <time>2013-04-28T12:14:38Z</time>
      </trkpt>
      <trkpt lat="47.5582" lon="3.74592">
        <ele>195.77</ele>
        <time>2013-04-28T12:14:47Z</time>
      </trkpt>
      <trkpt lat="47.55811" lon="3.74576">
        <ele>195.77</ele>
        <time>2013-04-28T12:14:56Z</time>
      </trkpt>
      <trkpt lat="47.55801" lon="3.7456">
        <ele>195.77</ele>
        <time>2013-04-28T12:15:06Z</time>
      </trkpt>
      <trkpt lat="47.558" lon="3.74557">
        <ele>196.25</ele>
        <time>2013-04-28T12:15:07Z</time>
      </trkpt>
      <trkpt lat="47.55789" lon="3.74541">
        <ele>196.25</ele>
        <time>2013-04-28T12:15:18Z</time>
      </trkpt>
      <trkpt lat="47.55779" lon="3.74526">
        <ele>195.77</ele>
        <time>2013-04-28T12:15:28Z</time>
      </trkpt>
      <trkpt lat="47.55768" lon="3.74516">
        <ele>196.73</ele>
        <time>2013-04-28T12:15:36Z</time>
      </trkpt>
      <trkpt lat="47.55758" lon="3.74502">
        <ele>196.73</ele>
        <time>2013-04-28T12:15:46Z</time>
      </trkpt>
      <trkpt lat="47.55746" lon="3.74484">
        <ele>198.17</ele>
        <time>2013-04-28T12:15:57Z</time>
      </trkpt>
      <trkpt lat="47.55738" lon="3.7447">
        <ele>198.17</ele>
        <time>2013-04-28T12:16:06Z</time>
      </trkpt>
      <trkpt lat="47.55728" lon="3.74453">
        <ele>199.13</ele>
        <time>2013-04-28T12:16:17Z</time>
      </trkpt>
      <trkpt lat="47.5572" lon="3.7444">
        <ele>199.61</ele>
        <time>2013-04-28T12:16:26Z</time>
      </trkpt>
      <trkpt lat="47.55713" lon="3.74429">
        <ele>200.09</ele>
        <time>2013-04-28T12:16:34Z</time>
      </trkpt>
      <trkpt lat="47.55712" lon="3.74428">
        <ele>200.57</ele>
        <time>2013-04-28T12:16:35Z</time>
      </trkpt>
      <trkpt lat="47.55703" lon="3.74414">
        <ele>202.01</ele>
        <time>2013-04-28T12:16:46Z</time>
      </trkpt>
      <trkpt lat="47.55696" lon="3.744">
        <ele>202.49</ele>
        <time>2013-04-28T12:16:56Z</time>
      </trkpt>
      <trkpt lat="47.5569" lon="3.74393">
        <ele>202.98</ele>
        <time>2013-04-28T12:17:04Z</time>
      </trkpt>
      <trkpt lat="47.55683" lon="3.74382">
        <ele>204.42</ele>
        <time>2013-04-28T12:17:13Z</time>
      </trkpt>
      <trkpt lat="47.55673" lon="3.74369">
        <ele>204.9</ele>
        <time>2013-04-28T12:17:23Z</time>
      </trkpt>
      <trkpt lat="47.55665" lon="3.74353">
        <ele>205.38</ele>
        <time>2013-04-28T12:17:32Z</time>
      </trkpt>
      <trkpt lat="47.55663" lon="3.74352">
        <ele>205.38</ele>
        <time>2013-04-28T12:17:34Z</time>
      </trkpt>
      <trkpt lat="47.55658" lon="3.74346">
        <ele>205.86</ele>
        <time>2013-04-28T12:17:39Z</time>
      </trkpt>
      <trkpt lat="47.55654" lon="3.74339">
        <ele>206.34</ele>
        <time>2013-04-28T12:17:43Z</time>
      </trkpt>
      <trkpt lat="47.55645" lon="3.74328">
        <ele>206.82</ele>
        <time>2013-04-28T12:17:52Z</time>
      </trkpt>
      <trkpt lat="47.5564" lon="3.74319">
        <ele>207.3</ele>
        <time>2013-04-28T12:17:59Z</time>
      </trkpt>
      <trkpt lat="47.55632" lon="3.74307">
        <ele>207.78</ele>
        <time>2013-04-28T12:18:08Z</time>
      </trkpt>
      <trkpt lat="47.55623" lon="3.74291">
        <ele>208.26</ele>
        <time>2013-04-28T12:18:17Z</time>
      </trkpt>
      <trkpt lat="47.55619" lon="3.74283">
        <ele>207.78</ele>
        <time>2013-04-28T12:18:22Z</time>
      </trkpt>
      <trkpt lat="47.55608" lon="3.74267">
        <ele>208.74</ele>
        <time>2013-04-28T12:18:32Z</time>
      </trkpt>
      <trkpt lat="47.55599" lon="3.74259">
        <ele>208.74</ele>
        <time>2013-04-28T12:18:41Z</time>
      </trkpt>
      <trkpt lat="47.55588" lon="3.74249">
        <ele>209.7</ele>
        <time>2013-04-28T12:18:51Z</time>
      </trkpt>
      <trkpt lat="47.55582" lon="3.74256">
        <ele>208.74</ele>
        <time>2013-04-28T12:18:59Z</time>
      </trkpt>
      <trkpt lat="47.5558" lon="3.74258">
        <ele>208.74</ele>
        <time>2013-04-28T12:19:06Z</time>
      </trkpt>
      <trkpt lat="47.5558" lon="3.74259">
        <ele>207.78</ele>
        <time>2013-04-28T12:19:18Z</time>
      </trkpt>
      <trkpt lat="47.55579" lon="3.7426">
        <ele>208.74</ele>
        <time>2013-04-28T12:19:27Z</time>
      </trkpt>
      <trkpt lat="47.55575" lon="3.74266">
        <ele>208.74</ele>
        <time>2013-04-28T12:19:36Z</time>
      </trkpt>
      <trkpt lat="47.55574" lon="3.74268">
        <ele>208.26</ele>
        <time>2013-04-28T12:19:48Z</time>
      </trkpt>
      <trkpt lat="47.55572" lon="3.74269">
        <ele>208.26</ele>
        <time>2013-04-28T12:20:01Z</time>
      </trkpt>
      <trkpt lat="47.55571" lon="3.74265">
        <ele>208.74</ele>
        <time>2013-04-28T12:20:11Z</time>
      </trkpt>
      <trkpt lat="47.55574" lon="3.7426">
        <ele>209.22</ele>
        <time>2013-04-28T12:20:24Z</time>
      </trkpt>
      <trkpt lat="47.55573" lon="3.74261">
        <ele>208.26</ele>
        <time>2013-04-28T12:20:35Z</time>
      </trkpt>
      <trkpt lat="47.5557" lon="3.74259">
        <ele>208.26</ele>
        <time>2013-04-28T12:20:48Z</time>
      </trkpt>
      <trkpt lat="47.55566" lon="3.74259">
        <ele>208.74</ele>
        <time>2013-04-28T12:20:55Z</time>
      </trkpt>
      <trkpt lat="47.55565" lon="3.74261">
        <ele>207.78</ele>
        <time>2013-04-28T12:21:09Z</time>
      </trkpt>
      <trkpt lat="47.55567" lon="3.74259">
        <ele>207.78</ele>
        <time>2013-04-28T12:21:21Z</time>
      </trkpt>
      <trkpt lat="47.55565" lon="3.74261">
        <ele>208.74</ele>
        <time>2013-04-28T12:21:29Z</time>
      </trkpt>
      <trkpt lat="47.55573" lon="3.74262">
        <ele>209.22</ele>
        <time>2013-04-28T12:21:38Z</time>
      </trkpt>
      <trkpt lat="47.55572" lon="3.74258">
        <ele>208.26</ele>
        <time>2013-04-28T12:21:51Z</time>
      </trkpt>
      <trkpt lat="47.55574" lon="3.74264">
        <ele>208.74</ele>
        <time>2013-04-28T12:22:06Z</time>
      </trkpt>
      <trkpt lat="47.55574" lon="3.74265">
        <ele>209.7</ele>
        <time>2013-04-28T12:22:16Z</time>
      </trkpt>
      <trkpt lat="47.55573" lon="3.74262">
        <ele>208.26</ele>
        <time>2013-04-28T12:22:29Z</time>
      </trkpt>
      <trkpt lat="47.55573" lon="3.7426">
        <ele>209.22</ele>
        <time>2013-04-28T12:22:35Z</time>
      </trkpt>
      <trkpt lat="47.55573" lon="3.74263">
        <ele>209.22</ele>
        <time>2013-04-28T12:22:46Z</time>
      </trkpt>
      <trkpt lat="47.55573" lon="3.74262">
        <ele>209.22</ele>
        <time>2013-04-28T12:22:57Z</time>
      </trkpt>
      <trkpt lat="47.55573" lon="3.74259">
        <ele>209.22</ele>
        <time>2013-04-28T12:23:07Z</time>
      </trkpt>
      <trkpt lat="47.5557" lon="3.74254">
        <ele>209.22</ele>
        <time>2013-04-28T12:23:14Z</time>
      </trkpt>
      <trkpt lat="47.55574" lon="3.7426">
        <ele>209.22</ele>
        <time>2013-04-28T12:23:21Z</time>
      </trkpt>
      <trkpt lat="47.55573" lon="3.74265">
        <ele>209.7</ele>
        <time>2013-04-28T12:23:33Z</time>
      </trkpt>
      <trkpt lat="47.55576" lon="3.74257">
        <ele>209.7</ele>
        <time>2013-04-28T12:23:46Z</time>
      </trkpt>
      <trkpt lat="47.55573" lon="3.74256">
        <ele>209.7</ele>
        <time>2013-04-28T12:23:57Z</time>
      </trkpt>
      <trkpt lat="47.55572" lon="3.74259">
        <ele>209.7</ele>
        <time>2013-04-28T12:24:13Z</time>
      </trkpt>
      <trkpt lat="47.55571" lon="3.74252">
        <ele>210.19</ele>
        <time>2013-04-28T12:24:27Z</time>
      </trkpt>
      <trkpt lat="47.55572" lon="3.74252">
        <ele>210.19</ele>
        <time>2013-04-28T12:24:42Z</time>
      </trkpt>
      <trkpt lat="47.55572" lon="3.74256">
        <ele>209.7</ele>
        <time>2013-04-28T12:24:58Z</time>
      </trkpt>
      <trkpt lat="47.55575" lon="3.74256">
        <ele>209.7</ele>
        <time>2013-04-28T12:25:11Z</time>
      </trkpt>
      <trkpt lat="47.55572" lon="3.74258">
        <ele>210.67</ele>
        <time>2013-04-28T12:25:20Z</time>
      </trkpt>
      <trkpt lat="47.55572" lon="3.74264">
        <ele>205.86</ele>
        <time>2013-04-28T12:25:29Z</time>
      </trkpt>
      <trkpt lat="47.55573" lon="3.74264">
        <ele>202.49</ele>
        <time>2013-04-28T12:25:32Z</time>
      </trkpt>
      <trkpt lat="47.55573" lon="3.74264">
        <ele>207.3</ele>
        <time>2013-04-28T12:25:33Z</time>
      </trkpt>
      <trkpt lat="47.55573" lon="3.74264">
        <ele>211.63</ele>
        <time>2013-04-28T12:25:35Z</time>
      </trkpt>
      <trkpt lat="47.55572" lon="3.74264">
        <ele>210.67</ele>
        <time>2013-04-28T12:25:36Z</time>
      </trkpt>
      <trkpt lat="47.55574" lon="3.74262">
        <ele>211.63</ele>
        <time>2013-04-28T12:25:49Z</time>
      </trkpt>
      <trkpt lat="47.55574" lon="3.74261">
        <ele>209.7</ele>
        <time>2013-04-28T12:26:01Z</time>
      </trkpt>
      <trkpt lat="47.55574" lon="3.7426">
        <ele>210.67</ele>
        <time>2013-04-28T12:26:03Z</time>
      </trkpt>
      <trkpt lat="47.55574" lon="3.74265">
        <ele>212.11</ele>
        <time>2013-04-28T12:26:06Z</time>
      </trkpt>
      <trkpt lat="47.55573" lon="3.74266">
        <ele>209.7</ele>
        <time>2013-04-28T12:26:13Z</time>
      </trkpt>
      <trkpt lat="47.55571" lon="3.74261">
        <ele>211.63</ele>
        <time>2013-04-28T12:26:26Z</time>
      </trkpt>
      <trkpt lat="47.55575" lon="3.74256">
        <ele>211.63</ele>
        <time>2013-04-28T12:26:34Z</time>
      </trkpt>
      <trkpt lat="47.5558" lon="3.74253">
        <ele>211.63</ele>
        <time>2013-04-28T12:26:45Z</time>
      </trkpt>
      <trkpt lat="47.55582" lon="3.74253">
        <ele>211.15</ele>
        <time>2013-04-28T12:26:53Z</time>
      </trkpt>
      <trkpt lat="47.55586" lon="3.74242">
        <ele>212.11</ele>
        <time>2013-04-28T12:27:03Z</time>
      </trkpt>
      <trkpt lat="47.55577" lon="3.74233">
        <ele>212.11</ele>
        <time>2013-04-28T12:27:11Z</time>
      </trkpt>
      <trkpt lat="47.55572" lon="3.74228">
        <ele>212.11</ele>
        <time>2013-04-28T12:27:19Z</time>
      </trkpt>
      <trkpt lat="47.5557" lon="3.74229">
        <ele>211.15</ele>
        <time>2013-04-28T12:27:27Z</time>
      </trkpt>
      <trkpt lat="47.55566" lon="3.74227">
        <ele>212.11</ele>
        <time>2013-04-28T12:27:31Z</time>
      </trkpt>
      <trkpt lat="47.55555" lon="3.74221">
        <ele>211.63</ele>
        <time>2013-04-28T12:27:44Z</time>
      </trkpt>
      <trkpt lat="47.55538" lon="3.74207">
        <ele>212.11</ele>
        <time>2013-04-28T12:27:56Z</time>
      </trkpt>
      <trkpt lat="47.55525" lon="3.74198">
        <ele>211.15</ele>
        <time>2013-04-28T12:28:06Z</time>
      </trkpt>
      <trkpt lat="47.55509" lon="3.7419">
        <ele>211.63</ele>
        <time>2013-04-28T12:28:18Z</time>
      </trkpt>
      <trkpt lat="47.55504" lon="3.74189">
        <ele>211.15</ele>
        <time>2013-04-28T12:28:22Z</time>
      </trkpt>
      <trkpt lat="47.55489" lon="3.74182">
        <ele>211.15</ele>
        <time>2013-04-28T12:28:35Z</time>
      </trkpt>
      <trkpt lat="47.55477" lon="3.74175">
        <ele>210.67</ele>
        <time>2013-04-28T12:28:47Z</time>
      </trkpt>
      <trkpt lat="47.55462" lon="3.74167">
        <ele>209.7</ele>
        <time>2013-04-28T12:28:57Z</time>
      </trkpt>
      <trkpt lat="47.55449" lon="3.74158">
        <ele>209.7</ele>
        <time>2013-04-28T12:29:08Z</time>
      </trkpt>
      <trkpt lat="47.55432" lon="3.7415">
        <ele>209.22</ele>
        <time>2013-04-28T12:29:20Z</time>
      </trkpt>
      <trkpt lat="47.55417" lon="3.74143">
        <ele>209.22</ele>
        <time>2013-04-28T12:29:30Z</time>
      </trkpt>
      <trkpt lat="47.55402" lon="3.74146">
        <ele>209.7</ele>
        <time>2013-04-28T12:29:41Z</time>
      </trkpt>
      <trkpt lat="47.55381" lon="3.74151">
        <ele>210.19</ele>
        <time>2013-04-28T12:29:57Z</time>
      </trkpt>
      <trkpt lat="47.55367" lon="3.74149">
        <ele>210.67</ele>
        <time>2013-04-28T12:30:06Z</time>
      </trkpt>
      <trkpt lat="47.55354" lon="3.74149">
        <ele>211.63</ele>
        <time>2013-04-28T12:30:15Z</time>
      </trkpt>
      <trkpt lat="47.55341" lon="3.74149">
        <ele>211.63</ele>
        <time>2013-04-28T12:30:25Z</time>
      </trkpt>
      <trkpt lat="47.55327" lon="3.74148">
        <ele>212.11</ele>
        <time>2013-04-28T12:30:35Z</time>
      </trkpt>
      <trkpt lat="47.55314" lon="3.74145">
        <ele>212.59</ele>
        <time>2013-04-28T12:30:44Z</time>
      </trkpt>
      <trkpt lat="47.55299" lon="3.74143">
        <ele>212.59</ele>
        <time>2013-04-28T12:30:55Z</time>
      </trkpt>
      <trkpt lat="47.55283" lon="3.7414">
        <ele>211.15</ele>
        <time>2013-04-28T12:31:08Z</time>
      </trkpt>
      <trkpt lat="47.55264" lon="3.74137">
        <ele>212.11</ele>
        <time>2013-04-28T12:31:23Z</time>
      </trkpt>
      <trkpt lat="47.55249" lon="3.74136">
        <ele>212.11</ele>
        <time>2013-04-28T12:31:33Z</time>
      </trkpt>
      <trkpt lat="47.55234" lon="3.74133">
        <ele>212.11</ele>
        <time>2013-04-28T12:31:44Z</time>
      </trkpt>
      <trkpt lat="47.55223" lon="3.74132">
        <ele>212.59</ele>
        <time>2013-04-28T12:31:52Z</time>
      </trkpt>
      <trkpt lat="47.55211" lon="3.74126">
        <ele>212.11</ele>
        <time>2013-04-28T12:32:01Z</time>
      </trkpt>
      <trkpt lat="47.55197" lon="3.74126">
        <ele>212.59</ele>
        <time>2013-04-28T12:32:11Z</time>
      </trkpt>
      <trkpt lat="47.55182" lon="3.74123">
        <ele>212.59</ele>
        <time>2013-04-28T12:32:21Z</time>
      </trkpt>
      <trkpt lat="47.55169" lon="3.74123">
        <ele>212.59</ele>
        <time>2013-04-28T12:32:30Z</time>
      </trkpt>
      <trkpt lat="47.55154" lon="3.74124">
        <ele>212.59</ele>
        <time>2013-04-28T12:32:40Z</time>
      </trkpt>
      <trkpt lat="47.55142" lon="3.74126">
        <ele>212.59</ele>
        <time>2013-04-28T12:32:50Z</time>
      </trkpt>
      <trkpt lat="47.5513" lon="3.74131">
        <ele>213.55</ele>
        <time>2013-04-28T12:33:00Z</time>
      </trkpt>
      <trkpt lat="47.55119" lon="3.74137">
        <ele>214.03</ele>
        <time>2013-04-28T12:33:09Z</time>
      </trkpt>
      <trkpt lat="47.55107" lon="3.74148">
        <ele>214.99</ele>
        <time>2013-04-28T12:33:19Z</time>
      </trkpt>
      <trkpt lat="47.55097" lon="3.74161">
        <ele>215.95</ele>
        <time>2013-04-28T12:33:29Z</time>
      </trkpt>
      <trkpt lat="47.55091" lon="3.74168">
        <ele>215.95</ele>
        <time>2013-04-28T12:33:36Z</time>
      </trkpt>
      <trkpt lat="47.55086" lon="3.74177">
        <ele>216.43</ele>
        <time>2013-04-28T12:33:44Z</time>
      </trkpt>
      <trkpt lat="47.55079" lon="3.74191">
        <ele>217.4</ele>
        <time>2013-04-28T12:33:54Z</time>
      </trkpt>
      <trkpt lat="47.55071" lon="3.74205">
        <ele>217.88</ele>
        <time>2013-04-28T12:34:03Z</time>
      </trkpt>
      <trkpt lat="47.55067" lon="3.74211">
        <ele>218.36</ele>
        <time>2013-04-28T12:34:07Z</time>
      </trkpt>
      <trkpt lat="47.55057" lon="3.74227">
        <ele>218.84</ele>
        <time>2013-04-28T12:34:18Z</time>
      </trkpt>
      <trkpt lat="47.55047" lon="3.74239">
        <ele>219.32</ele>
        <time>2013-04-28T12:34:27Z</time>
      </trkpt>
      <trkpt lat="47.55035" lon="3.74252">
        <ele>220.28</ele>
        <time>2013-04-28T12:34:36Z</time>
      </trkpt>
      <trkpt lat="47.55024" lon="3.74265">
        <ele>220.28</ele>
        <time>2013-04-28T12:34:45Z</time>
      </trkpt>
      <trkpt lat="47.5501" lon="3.7428">
        <ele>220.76</ele>
        <time>2013-04-28T12:34:56Z</time>
      </trkpt>
      <trkpt lat="47.54998" lon="3.74293">
        <ele>221.24</ele>
        <time>2013-04-28T12:35:07Z</time>
      </trkpt>
      <trkpt lat="47.54988" lon="3.74305">
        <ele>221.72</ele>
        <time>2013-04-28T12:35:16Z</time>
      </trkpt>
      <trkpt lat="47.54983" lon="3.74311">
        <ele>222.68</ele>
        <time>2013-04-28T12:35:20Z</time>
      </trkpt>
      <trkpt lat="47.54974" lon="3.74327">
        <ele>223.16</ele>
        <time>2013-04-28T12:35:30Z</time>
      </trkpt>
      <trkpt lat="47.54962" lon="3.74343">
        <ele>221.72</ele>
        <time>2013-04-28T12:35:42Z</time>
      </trkpt>
      <trkpt lat="47.54951" lon="3.74356">
        <ele>221.72</ele>
        <time>2013-04-28T12:35:52Z</time>
      </trkpt>
      <trkpt lat="47.54941" lon="3.74368">
        <ele>221.24</ele>
        <time>2013-04-28T12:36:01Z</time>
      </trkpt>
      <trkpt lat="47.5493" lon="3.74383">
        <ele>220.28</ele>
        <time>2013-04-28T12:36:11Z</time>
      </trkpt>
      <trkpt lat="47.54921" lon="3.74398">
        <ele>219.8</ele>
        <time>2013-04-28T12:36:21Z</time>
      </trkpt>
      <trkpt lat="47.54911" lon="3.74411">
        <ele>219.32</ele>
        <time>2013-04-28T12:36:31Z</time>
      </trkpt>
      <trkpt lat="47.549" lon="3.74425">
        <ele>218.84</ele>
        <time>2013-04-28T12:36:41Z</time>
      </trkpt>
      <trkpt lat="47.5489" lon="3.74439">
        <ele>218.36</ele>
        <time>2013-04-28T12:36:51Z</time>
      </trkpt>
      <trkpt lat="47.54878" lon="3.74457">
        <ele>218.36</ele>
        <time>2013-04-28T12:37:03Z</time>
      </trkpt>
      <trkpt lat="47.54873" lon="3.74475">
        <ele>217.4</ele>
        <time>2013-04-28T12:37:12Z</time>
      </trkpt>
      <trkpt lat="47.54873" lon="3.74498">
        <ele>217.4</ele>
        <time>2013-04-28T12:37:23Z</time>
      </trkpt>
      <trkpt lat="47.54871" lon="3.7453">
        <ele>217.4</ele>
        <time>2013-04-28T12:37:34Z</time>
      </trkpt>
      <trkpt lat="47.54865" lon="3.74546">
        <ele>216.91</ele>
        <time>2013-04-28T12:37:44Z</time>
      </trkpt>
      <trkpt lat="47.54853" lon="3.74557">
        <ele>216.43</ele>
        <time>2013-04-28T12:37:55Z</time>
      </trkpt>
      <trkpt lat="47.54841" lon="3.74568">
        <ele>215.95</ele>
        <time>2013-04-28T12:38:06Z</time>
      </trkpt>
      <trkpt lat="47.54827" lon="3.74578">
        <ele>214.99</ele>
        <time>2013-04-28T12:38:17Z</time>
      </trkpt>
      <trkpt lat="47.54815" lon="3.74591">
        <ele>214.03</ele>
        <time>2013-04-28T12:38:28Z</time>
      </trkpt>
      <trkpt lat="47.54802" lon="3.74602">
        <ele>213.07</ele>
        <time>2013-04-28T12:38:39Z</time>
      </trkpt>
      <trkpt lat="47.54789" lon="3.74614">
        <ele>212.59</ele>
        <time>2013-04-28T12:38:50Z</time>
      </trkpt>
      <trkpt lat="47.54774" lon="3.74628">
        <ele>211.15</ele>
        <time>2013-04-28T12:39:02Z</time>
      </trkpt>
      <trkpt lat="47.54761" lon="3.7464">
        <ele>211.15</ele>
        <time>2013-04-28T12:39:13Z</time>
      </trkpt>
      <trkpt lat="47.54748" lon="3.74653">
        <ele>210.67</ele>
        <time>2013-04-28T12:39:24Z</time>
      </trkpt>
      <trkpt lat="47.54733" lon="3.74664">
        <ele>210.67</ele>
        <time>2013-04-28T12:39:35Z</time>
      </trkpt>
      <trkpt lat="47.54722" lon="3.74675">
        <ele>210.19</ele>
        <time>2013-04-28T12:39:44Z</time>
      </trkpt>
      <trkpt lat="47.54706" lon="3.74687">
        <ele>210.19</ele>
        <time>2013-04-28T12:39:56Z</time>
      </trkpt>
      <trkpt lat="47.54692" lon="3.74702">
        <ele>210.19</ele>
        <time>2013-04-28T12:40:08Z</time>
      </trkpt>
      <trkpt lat="47.54678" lon="3.74714">
        <ele>209.7</ele>
        <time>2013-04-28T12:40:19Z</time>
      </trkpt>
      <trkpt lat="47.54668" lon="3.74723">
        <ele>209.22</ele>
        <time>2013-04-28T12:40:28Z</time>
      </trkpt>
      <trkpt lat="47.54656" lon="3.74732">
        <ele>208.74</ele>
        <time>2013-04-28T12:40:38Z</time>
      </trkpt>
      <trkpt lat="47.54654" lon="3.74733">
        <ele>208.74</ele>
        <time>2013-04-28T12:40:40Z</time>
      </trkpt>
      <trkpt lat="47.54647" lon="3.74743">
        <ele>208.74</ele>
        <time>2013-04-28T12:40:47Z</time>
      </trkpt>
      <trkpt lat="47.54645" lon="3.74745">
        <ele>209.22</ele>
        <time>2013-04-28T12:40:49Z</time>
      </trkpt>
      <trkpt lat="47.54633" lon="3.74754">
        <ele>208.74</ele>
        <time>2013-04-28T12:40:58Z</time>
      </trkpt>
      <trkpt lat="47.54619" lon="3.74767">
        <ele>209.22</ele>
        <time>2013-04-28T12:41:09Z</time>
      </trkpt>
      <trkpt lat="47.54604" lon="3.7478">
        <ele>209.7</ele>
        <time>2013-04-28T12:41:21Z</time>
      </trkpt>
      <trkpt lat="47.5459" lon="3.74792">
        <ele>210.19</ele>
        <time>2013-04-28T12:41:32Z</time>
      </trkpt>
      <trkpt lat="47.54575" lon="3.74803">
        <ele>211.15</ele>
        <time>2013-04-28T12:41:44Z</time>
      </trkpt>
      <trkpt lat="47.54559" lon="3.74812">
        <ele>211.15</ele>
        <time>2013-04-28T12:41:56Z</time>
      </trkpt>
      <trkpt lat="47.54542" lon="3.74824">
        <ele>211.63</ele>
        <time>2013-04-28T12:42:09Z</time>
      </trkpt>
      <trkpt lat="47.54525" lon="3.74834">
        <ele>212.59</ele>
        <time>2013-04-28T12:42:21Z</time>
      </trkpt>
      <trkpt lat="47.5452" lon="3.74837">
        <ele>212.11</ele>
        <time>2013-04-28T12:42:27Z</time>
      </trkpt>
      <trkpt lat="47.54508" lon="3.74846">
        <ele>212.11</ele>
        <time>2013-04-28T12:42:36Z</time>
      </trkpt>
      <trkpt lat="47.54499" lon="3.7485">
        <ele>212.11</ele>
        <time>2013-04-28T12:42:43Z</time>
      </trkpt>
      <trkpt lat="47.54486" lon="3.7486">
        <ele>212.11</ele>
        <time>2013-04-28T12:42:53Z</time>
      </trkpt>
      <trkpt lat="47.5447" lon="3.74868">
        <ele>212.59</ele>
        <time>2013-04-28T12:43:04Z</time>
      </trkpt>
      <trkpt lat="47.54457" lon="3.74877">
        <ele>212.59</ele>
        <time>2013-04-28T12:43:14Z</time>
      </trkpt>
      <trkpt lat="47.54446" lon="3.74883">
        <ele>212.59</ele>
        <time>2013-04-28T12:43:22Z</time>
      </trkpt>
      <trkpt lat="47.54431" lon="3.74888">
        <ele>213.55</ele>
        <time>2013-04-28T12:43:32Z</time>
      </trkpt>
      <trkpt lat="47.54416" lon="3.74895">
        <ele>213.55</ele>
        <time>2013-04-28T12:43:43Z</time>
      </trkpt>
      <trkpt lat="47.54401" lon="3.74898">
        <ele>213.55</ele>
        <time>2013-04-28T12:43:53Z</time>
      </trkpt>
      <trkpt lat="47.54389" lon="3.74903">
        <ele>214.03</ele>
        <time>2013-04-28T12:44:02Z</time>
      </trkpt>
      <trkpt lat="47.54369" lon="3.74909">
        <ele>214.99</ele>
        <time>2013-04-28T12:44:16Z</time>
      </trkpt>
      <trkpt lat="47.54357" lon="3.74912">
        <ele>214.99</ele>
        <time>2013-04-28T12:44:24Z</time>
      </trkpt>
      <trkpt lat="47.54338" lon="3.74918">
        <ele>214.99</ele>
        <time>2013-04-28T12:44:37Z</time>
      </trkpt>
      <trkpt lat="47.5432" lon="3.74921">
        <ele>215.47</ele>
        <time>2013-04-28T12:44:50Z</time>
      </trkpt>
      <trkpt lat="47.54304" lon="3.74923">
        <ele>216.43</ele>
        <time>2013-04-28T12:45:01Z</time>
      </trkpt>
      <trkpt lat="47.54287" lon="3.74927">
        <ele>217.4</ele>
        <time>2013-04-28T12:45:13Z</time>
      </trkpt>
      <trkpt lat="47.5427" lon="3.74929">
        <ele>217.88</ele>
        <time>2013-04-28T12:45:25Z</time>
      </trkpt>
      <trkpt lat="47.54258" lon="3.74933">
        <ele>218.84</ele>
        <time>2013-04-28T12:45:34Z</time>
      </trkpt>
      <trkpt lat="47.54245" lon="3.74935">
        <ele>219.32</ele>
        <time>2013-04-28T12:45:43Z</time>
      </trkpt>
      <trkpt lat="47.54228" lon="3.74941">
        <ele>220.28</ele>
        <time>2013-04-28T12:45:55Z</time>
      </trkpt>
      <trkpt lat="47.54213" lon="3.74948">
        <ele>220.76</ele>
        <time>2013-04-28T12:46:07Z</time>
      </trkpt>
      <trkpt lat="47.542" lon="3.74952">
        <ele>221.72</ele>
        <time>2013-04-28T12:46:18Z</time>
      </trkpt>
      <trkpt lat="47.54186" lon="3.74951">
        <ele>222.68</ele>
        <time>2013-04-28T12:46:27Z</time>
      </trkpt>
      <trkpt lat="47.54174" lon="3.74953">
        <ele>223.16</ele>
        <time>2013-04-28T12:46:37Z</time>
      </trkpt>
      <trkpt lat="47.54159" lon="3.74958">
        <ele>224.12</ele>
        <time>2013-04-28T12:46:48Z</time>
      </trkpt>
      <trkpt lat="47.54149" lon="3.7496">
        <ele>224.61</ele>
        <time>2013-04-28T12:46:56Z</time>
      </trkpt>
      <trkpt lat="47.54137" lon="3.74964">
        <ele>224.61</ele>
        <time>2013-04-28T12:47:06Z</time>
      </trkpt>
      <trkpt lat="47.54125" lon="3.74968">
        <ele>225.57</ele>
        <time>2013-04-28T12:47:16Z</time>
      </trkpt>
      <trkpt lat="47.54114" lon="3.74972">
        <ele>226.53</ele>
        <time>2013-04-28T12:47:26Z</time>
      </trkpt>
      <trkpt lat="47.54096" lon="3.74975">
        <ele>227.01</ele>
        <time>2013-04-28T12:47:36Z</time>
      </trkpt>
      <trkpt lat="47.54083" lon="3.74981">
        <ele>227.49</ele>
        <time>2013-04-28T12:47:46Z</time>
      </trkpt>
      <trkpt lat="47.54073" lon="3.74986">
        <ele>228.93</ele>
        <time>2013-04-28T12:47:55Z</time>
      </trkpt>
      <trkpt lat="47.5406" lon="3.74991">
        <ele>228.93</ele>
        <time>2013-04-28T12:48:04Z</time>
      </trkpt>
      <trkpt lat="47.54051" lon="3.74997">
        <ele>229.89</ele>
        <time>2013-04-28T12:48:13Z</time>
      </trkpt>
      <trkpt lat="47.54036" lon="3.75008">
        <ele>230.85</ele>
        <time>2013-04-28T12:48:23Z</time>
      </trkpt>
      <trkpt lat="47.54024" lon="3.75013">
        <ele>231.33</ele>
        <time>2013-04-28T12:48:32Z</time>
      </trkpt>
      <trkpt lat="47.54013" lon="3.75017">
        <ele>232.78</ele>
        <time>2013-04-28T12:48:42Z</time>
      </trkpt>
      <trkpt lat="47.54004" lon="3.75025">
        <ele>233.74</ele>
        <time>2013-04-28T12:48:52Z</time>
      </trkpt>
      <trkpt lat="47.53994" lon="3.75032">
        <ele>233.74</ele>
        <time>2013-04-28T12:49:02Z</time>
      </trkpt>
      <trkpt lat="47.53982" lon="3.75042">
        <ele>234.7</ele>
        <time>2013-04-28T12:49:11Z</time>
      </trkpt>
      <trkpt lat="47.53969" lon="3.75052">
        <ele>235.66</ele>
        <time>2013-04-28T12:49:21Z</time>
      </trkpt>
      <trkpt lat="47.53963" lon="3.75057">
        <ele>235.66</ele>
        <time>2013-04-28T12:49:28Z</time>
      </trkpt>
      <trkpt lat="47.53954" lon="3.75064">
        <ele>236.62</ele>
        <time>2013-04-28T12:49:38Z</time>
      </trkpt>
      <trkpt lat="47.53939" lon="3.75077">
        <ele>236.62</ele>
        <time>2013-04-28T12:49:48Z</time>
      </trkpt>
      <trkpt lat="47.53928" lon="3.7509">
        <ele>237.1</ele>
        <time>2013-04-28T12:49:56Z</time>
      </trkpt>
      <trkpt lat="47.53915" lon="3.75097">
        <ele>236.62</ele>
        <time>2013-04-28T12:50:04Z</time>
      </trkpt>
      <trkpt lat="47.53905" lon="3.75103">
        <ele>237.1</ele>
        <time>2013-04-28T12:50:12Z</time>
      </trkpt>
      <trkpt lat="47.53898" lon="3.75114">
        <ele>237.1</ele>
        <time>2013-04-28T12:50:21Z</time>
      </trkpt>
      <trkpt lat="47.53889" lon="3.75122">
        <ele>238.06</ele>
        <time>2013-04-28T12:50:30Z</time>
      </trkpt>
      <trkpt lat="47.53876" lon="3.75134">
        <ele>239.02</ele>
        <time>2013-04-28T12:50:40Z</time>
      </trkpt>
      <trkpt lat="47.53866" lon="3.75147">
        <ele>239.99</ele>
        <time>2013-04-28T12:50:51Z</time>
      </trkpt>
      <trkpt lat="47.53856" lon="3.75155">
        <ele>240.47</ele>
        <time>2013-04-28T12:51:00Z</time>
      </trkpt>
      <trkpt lat="47.53846" lon="3.75166">
        <ele>240.95</ele>
        <time>2013-04-28T12:51:08Z</time>
      </trkpt>
      <trkpt lat="47.53836" lon="3.75174">
        <ele>241.43</ele>
        <time>2013-04-28T12:51:18Z</time>
      </trkpt>
      <trkpt lat="47.53823" lon="3.7518">
        <ele>242.39</ele>
        <time>2013-04-28T12:51:28Z</time>
      </trkpt>
      <trkpt lat="47.53809" lon="3.75189">
        <ele>242.87</ele>
        <time>2013-04-28T12:51:39Z</time>
      </trkpt>
      <trkpt lat="47.53795" lon="3.75193">
        <ele>242.87</ele>
        <time>2013-04-28T12:51:50Z</time>
      </trkpt>
      <trkpt lat="47.53776" lon="3.75199">
        <ele>243.35</ele>
        <time>2013-04-28T12:52:01Z</time>
      </trkpt>
      <trkpt lat="47.53762" lon="3.75203">
        <ele>244.31</ele>
        <time>2013-04-28T12:52:12Z</time>
      </trkpt>
      <trkpt lat="47.53747" lon="3.75212">
        <ele>244.31</ele>
        <time>2013-04-28T12:52:22Z</time>
      </trkpt>
      <trkpt lat="47.53731" lon="3.75216">
        <ele>245.27</ele>
        <time>2013-04-28T12:52:32Z</time>
      </trkpt>
      <trkpt lat="47.53724" lon="3.75223">
        <ele>246.23</ele>
        <time>2013-04-28T12:52:40Z</time>
      </trkpt>
      <trkpt lat="47.53713" lon="3.75227">
        <ele>246.72</ele>
        <time>2013-04-28T12:52:49Z</time>
      </trkpt>
      <trkpt lat="47.53706" lon="3.75233">
        <ele>247.2</ele>
        <time>2013-04-28T12:52:57Z</time>
      </trkpt>
      <trkpt lat="47.53693" lon="3.75242">
        <ele>246.72</ele>
        <time>2013-04-28T12:53:09Z</time>
      </trkpt>
      <trkpt lat="47.53683" lon="3.75247">
        <ele>247.2</ele>
        <time>2013-04-28T12:53:18Z</time>
      </trkpt>
      <trkpt lat="47.53671" lon="3.75248">
        <ele>247.68</ele>
        <time>2013-04-28T12:53:26Z</time>
      </trkpt>
      <trkpt lat="47.5366" lon="3.75252">
        <ele>247.68</ele>
        <time>2013-04-28T12:53:34Z</time>
      </trkpt>
      <trkpt lat="47.53645" lon="3.75254">
        <ele>247.68</ele>
        <time>2013-04-28T12:53:43Z</time>
      </trkpt>
      <trkpt lat="47.53634" lon="3.75256">
        <ele>249.12</ele>
        <time>2013-04-28T12:53:52Z</time>
      </trkpt>
      <trkpt lat="47.53617" lon="3.75258">
        <ele>247.68</ele>
        <time>2013-04-28T12:54:02Z</time>
      </trkpt>
      <trkpt lat="47.53604" lon="3.7526">
        <ele>249.12</ele>
        <time>2013-04-28T12:54:11Z</time>
      </trkpt>
      <trkpt lat="47.53593" lon="3.7526">
        <ele>249.12</ele>
        <time>2013-04-28T12:54:22Z</time>
      </trkpt>
      <trkpt lat="47.53578" lon="3.75257">
        <ele>249.12</ele>
        <time>2013-04-28T12:54:32Z</time>
      </trkpt>
      <trkpt lat="47.53564" lon="3.75267">
        <ele>248.16</ele>
        <time>2013-04-28T12:54:41Z</time>
      </trkpt>
      <trkpt lat="47.53559" lon="3.75292">
        <ele>246.23</ele>
        <time>2013-04-28T12:54:52Z</time>
      </trkpt>
      <trkpt lat="47.53556" lon="3.75311">
        <ele>244.79</ele>
        <time>2013-04-28T12:55:02Z</time>
      </trkpt>
      <trkpt lat="47.53552" lon="3.75327">
        <ele>243.83</ele>
        <time>2013-04-28T12:55:10Z</time>
      </trkpt>
      <trkpt lat="47.53552" lon="3.75344">
        <ele>242.87</ele>
        <time>2013-04-28T12:55:19Z</time>
      </trkpt>
      <trkpt lat="47.53552" lon="3.75362">
        <ele>241.43</ele>
        <time>2013-04-28T12:55:29Z</time>
      </trkpt>
      <trkpt lat="47.53553" lon="3.75377">
        <ele>240.47</ele>
        <time>2013-04-28T12:55:39Z</time>
      </trkpt>
      <trkpt lat="47.53548" lon="3.75408">
        <ele>239.51</ele>
        <time>2013-04-28T12:55:50Z</time>
      </trkpt>
      <trkpt lat="47.53548" lon="3.75428">
        <ele>238.54</ele>
        <time>2013-04-28T12:55:58Z</time>
      </trkpt>
      <trkpt lat="47.53547" lon="3.75449">
        <ele>238.06</ele>
        <time>2013-04-28T12:56:08Z</time>
      </trkpt>
      <trkpt lat="47.53546" lon="3.75475">
        <ele>237.1</ele>
        <time>2013-04-28T12:56:18Z</time>
      </trkpt>
      <trkpt lat="47.53546" lon="3.75488">
        <ele>236.62</ele>
        <time>2013-04-28T12:56:25Z</time>
      </trkpt>
      <trkpt lat="47.53549" lon="3.75514">
        <ele>236.14</ele>
        <time>2013-04-28T12:56:37Z</time>
      </trkpt>
      <trkpt lat="47.53551" lon="3.75532">
        <ele>234.7</ele>
        <time>2013-04-28T12:56:48Z</time>
      </trkpt>
      <trkpt lat="47.53547" lon="3.75562">
        <ele>233.74</ele>
        <time>2013-04-28T12:57:00Z</time>
      </trkpt>
      <trkpt lat="47.53546" lon="3.75584">
        <ele>233.26</ele>
        <time>2013-04-28T12:57:10Z</time>
      </trkpt>
      <trkpt lat="47.53547" lon="3.75604">
        <ele>232.3</ele>
        <time>2013-04-28T12:57:21Z</time>
      </trkpt>
      <trkpt lat="47.53547" lon="3.75618">
        <ele>232.3</ele>
        <time>2013-04-28T12:57:31Z</time>
      </trkpt>
      <trkpt lat="47.5354" lon="3.75639">
        <ele>230.85</ele>
        <time>2013-04-28T12:57:38Z</time>
      </trkpt>
      <trkpt lat="47.53525" lon="3.7566">
        <ele>229.41</ele>
        <time>2013-04-28T12:57:50Z</time>
      </trkpt>
      <trkpt lat="47.53515" lon="3.75675">
        <ele>228.45</ele>
        <time>2013-04-28T12:58:00Z</time>
      </trkpt>
      <trkpt lat="47.53506" lon="3.7569">
        <ele>227.49</ele>
        <time>2013-04-28T12:58:10Z</time>
      </trkpt>
      <trkpt lat="47.53497" lon="3.75707">
        <ele>227.01</ele>
        <time>2013-04-28T12:58:21Z</time>
      </trkpt>
      <trkpt lat="47.53486" lon="3.75721">
        <ele>226.05</ele>
        <time>2013-04-28T12:58:31Z</time>
      </trkpt>
      <trkpt lat="47.53476" lon="3.75732">
        <ele>225.57</ele>
        <time>2013-04-28T12:58:40Z</time>
      </trkpt>
      <trkpt lat="47.53466" lon="3.75745">
        <ele>224.61</ele>
        <time>2013-04-28T12:58:49Z</time>
      </trkpt>
      <trkpt lat="47.5345" lon="3.75754">
        <ele>224.12</ele>
        <time>2013-04-28T12:58:59Z</time>
      </trkpt>
      <trkpt lat="47.53437" lon="3.75766">
        <ele>222.68</ele>
        <time>2013-04-28T12:59:08Z</time>
      </trkpt>
      <trkpt lat="47.53429" lon="3.75778">
        <ele>221.72</ele>
        <time>2013-04-28T12:59:18Z</time>
      </trkpt>
      <trkpt lat="47.53425" lon="3.75785">
        <ele>221.24</ele>
        <time>2013-04-28T12:59:28Z</time>
      </trkpt>
      <trkpt lat="47.53414" lon="3.758">
        <ele>220.28</ele>
        <time>2013-04-28T12:59:37Z</time>
      </trkpt>
      <trkpt lat="47.53399" lon="3.75819">
        <ele>221.24</ele>
        <time>2013-04-28T12:59:48Z</time>
      </trkpt>
      <trkpt lat="47.53392" lon="3.7583">
        <ele>221.72</ele>
        <time>2013-04-28T12:59:56Z</time>
      </trkpt>
      <trkpt lat="47.53385" lon="3.75844">
        <ele>222.2</ele>
        <time>2013-04-28T13:00:04Z</time>
      </trkpt>
      <trkpt lat="47.53382" lon="3.75858">
        <ele>223.64</ele>
        <time>2013-04-28T13:00:12Z</time>
      </trkpt>
      <trkpt lat="47.53375" lon="3.75873">
        <ele>225.09</ele>
        <time>2013-04-28T13:00:21Z</time>
      </trkpt>
      <trkpt lat="47.53372" lon="3.7588">
        <ele>225.57</ele>
        <time>2013-04-28T13:00:39Z</time>
      </trkpt>
      <trkpt lat="47.53372" lon="3.75879">
        <ele>226.53</ele>
        <time>2013-04-28T13:00:56Z</time>
      </trkpt>
      <trkpt lat="47.53364" lon="3.75869">
        <ele>226.53</ele>
        <time>2013-04-28T13:01:04Z</time>
      </trkpt>
      <trkpt lat="47.53357" lon="3.75866">
        <ele>227.01</ele>
        <time>2013-04-28T13:01:12Z</time>
      </trkpt>
      <trkpt lat="47.53349" lon="3.75864">
        <ele>228.45</ele>
        <time>2013-04-28T13:01:20Z</time>
      </trkpt>
      <trkpt lat="47.53333" lon="3.75856">
        <ele>229.41</ele>
        <time>2013-04-28T13:01:29Z</time>
      </trkpt>
      <trkpt lat="47.53324" lon="3.7585">
        <ele>230.37</ele>
        <time>2013-04-28T13:01:35Z</time>
      </trkpt>
      <trkpt lat="47.53314" lon="3.75847">
        <ele>231.81</ele>
        <time>2013-04-28T13:01:43Z</time>
      </trkpt>
      <trkpt lat="47.53305" lon="3.75843">
        <ele>233.26</ele>
        <time>2013-04-28T13:01:51Z</time>
      </trkpt>
      <trkpt lat="47.53292" lon="3.75836">
        <ele>234.22</ele>
        <time>2013-04-28T13:02:01Z</time>
      </trkpt>
      <trkpt lat="47.53287" lon="3.7583">
        <ele>234.22</ele>
        <time>2013-04-28T13:02:06Z</time>
      </trkpt>
      <trkpt lat="47.53275" lon="3.7582">
        <ele>235.18</ele>
        <time>2013-04-28T13:02:16Z</time>
      </trkpt>
      <trkpt lat="47.53264" lon="3.75811">
        <ele>235.66</ele>
        <time>2013-04-28T13:02:23Z</time>
      </trkpt>
      <trkpt lat="47.53259" lon="3.75808">
        <ele>235.66</ele>
        <time>2013-04-28T13:02:26Z</time>
      </trkpt>
      <trkpt lat="47.53252" lon="3.75815">
        <ele>237.1</ele>
        <time>2013-04-28T13:02:34Z</time>
      </trkpt>
      <trkpt lat="47.53246" lon="3.75823">
        <ele>239.02</ele>
        <time>2013-04-28T13:02:41Z</time>
      </trkpt>
      <trkpt lat="47.53243" lon="3.75827">
        <ele>239.99</ele>
        <time>2013-04-28T13:02:45Z</time>
      </trkpt>
      <trkpt lat="47.53232" lon="3.75838">
        <ele>241.43</ele>
        <time>2013-04-28T13:02:54Z</time>
      </trkpt>
      <trkpt lat="47.53222" lon="3.75845">
        <ele>242.39</ele>
        <time>2013-04-28T13:03:03Z</time>
      </trkpt>
      <trkpt lat="47.53211" lon="3.75852">
        <ele>244.31</ele>
        <time>2013-04-28T13:03:11Z</time>
      </trkpt>
      <trkpt lat="47.53205" lon="3.75861">
        <ele>245.75</ele>
        <time>2013-04-28T13:03:19Z</time>
      </trkpt>
      <trkpt lat="47.53203" lon="3.75863">
        <ele>245.75</ele>
        <time>2013-04-28T13:03:21Z</time>
      </trkpt>
      <trkpt lat="47.53202" lon="3.75866">
        <ele>245.75</ele>
        <time>2013-04-28T13:03:23Z</time>
      </trkpt>
      <trkpt lat="47.53193" lon="3.75874">
        <ele>247.2</ele>
        <time>2013-04-28T13:03:31Z</time>
      </trkpt>
      <trkpt lat="47.53184" lon="3.75885">
        <ele>248.16</ele>
        <time>2013-04-28T13:03:40Z</time>
      </trkpt>
      <trkpt lat="47.53173" lon="3.75894">
        <ele>249.12</ele>
        <time>2013-04-28T13:03:48Z</time>
      </trkpt>
      <trkpt lat="47.53168" lon="3.759">
        <ele>250.08</ele>
        <time>2013-04-28T13:03:54Z</time>
      </trkpt>
      <trkpt lat="47.53157" lon="3.7591">
        <ele>250.08</ele>
        <time>2013-04-28T13:04:04Z</time>
      </trkpt>
      <trkpt lat="47.53149" lon="3.75919">
        <ele>251.04</ele>
        <time>2013-04-28T13:04:12Z</time>
      </trkpt>
      <trkpt lat="47.53139" lon="3.7593">
        <ele>252</ele>
        <time>2013-04-28T13:04:21Z</time>
      </trkpt>
      <trkpt lat="47.53127" lon="3.75941">
        <ele>252</ele>
        <time>2013-04-28T13:04:30Z</time>
      </trkpt>
      <trkpt lat="47.53118" lon="3.7595">
        <ele>252.96</ele>
        <time>2013-04-28T13:04:38Z</time>
      </trkpt>
      <trkpt lat="47.53105" lon="3.75962">
        <ele>253.44</ele>
        <time>2013-04-28T13:04:48Z</time>
      </trkpt>
      <trkpt lat="47.53094" lon="3.7597">
        <ele>253.44</ele>
        <time>2013-04-28T13:04:56Z</time>
      </trkpt>
      <trkpt lat="47.53086" lon="3.75978">
        <ele>253.93</ele>
        <time>2013-04-28T13:05:03Z</time>
      </trkpt>
      <trkpt lat="47.53076" lon="3.75991">
        <ele>253.93</ele>
        <time>2013-04-28T13:05:11Z</time>
      </trkpt>
      <trkpt lat="47.5307" lon="3.75999">
        <ele>254.41</ele>
        <time>2013-04-28T13:05:19Z</time>
      </trkpt>
      <trkpt lat="47.53059" lon="3.7601">
        <ele>254.41</ele>
        <time>2013-04-28T13:05:28Z</time>
      </trkpt>
      <trkpt lat="47.5305" lon="3.76018">
        <ele>254.89</ele>
        <time>2013-04-28T13:05:35Z</time>
      </trkpt>
      <trkpt lat="47.53042" lon="3.76027">
        <ele>254.89</ele>
        <time>2013-04-28T13:05:41Z</time>
      </trkpt>
      <trkpt lat="47.5303" lon="3.76039">
        <ele>254.89</ele>
        <time>2013-04-28T13:05:50Z</time>
      </trkpt>
      <trkpt lat="47.53019" lon="3.76049">
        <ele>254.89</ele>
        <time>2013-04-28T13:05:58Z</time>
      </trkpt>
      <trkpt lat="47.53007" lon="3.76061">
        <ele>254.89</ele>
        <time>2013-04-28T13:06:07Z</time>
      </trkpt>
      <trkpt lat="47.52997" lon="3.76069">
        <ele>254.89</ele>
        <time>2013-04-28T13:06:14Z</time>
      </trkpt>
      <trkpt lat="47.52989" lon="3.76078">
        <ele>254.41</ele>
        <time>2013-04-28T13:06:21Z</time>
      </trkpt>
      <trkpt lat="47.52979" lon="3.76087">
        <ele>254.89</ele>
        <time>2013-04-28T13:06:30Z</time>
      </trkpt>
      <trkpt lat="47.52971" lon="3.76095">
        <ele>253.93</ele>
        <time>2013-04-28T13:06:37Z</time>
      </trkpt>
      <trkpt lat="47.52965" lon="3.76101">
        <ele>253.93</ele>
        <time>2013-04-28T13:06:42Z</time>
      </trkpt>
      <trkpt lat="47.52961" lon="3.76105">
        <ele>253.93</ele>
        <time>2013-04-28T13:06:45Z</time>
      </trkpt>
      <trkpt lat="47.5295" lon="3.76117">
        <ele>252.96</ele>
        <time>2013-04-28T13:06:53Z</time>
      </trkpt>
      <trkpt lat="47.52941" lon="3.7612">
        <ele>252.96</ele>
        <time>2013-04-28T13:07:01Z</time>
      </trkpt>
      <trkpt lat="47.52934" lon="3.76115">
        <ele>252.96</ele>
        <time>2013-04-28T13:07:09Z</time>
      </trkpt>
      <trkpt lat="47.52925" lon="3.761">
        <ele>252.96</ele>
        <time>2013-04-28T13:07:18Z</time>
      </trkpt>
      <trkpt lat="47.52913" lon="3.76088">
        <ele>253.44</ele>
        <time>2013-04-28T13:07:27Z</time>
      </trkpt>
      <trkpt lat="47.52911" lon="3.76081">
        <ele>254.41</ele>
        <time>2013-04-28T13:07:34Z</time>
      </trkpt>
      <trkpt lat="47.5291" lon="3.76079">
        <ele>253.93</ele>
        <time>2013-04-28T13:07:35Z</time>
      </trkpt>
      <trkpt lat="47.52898" lon="3.76063">
        <ele>253.44</ele>
        <time>2013-04-28T13:07:45Z</time>
      </trkpt>
      <trkpt lat="47.52889" lon="3.76047">
        <ele>254.41</ele>
        <time>2013-04-28T13:07:54Z</time>
      </trkpt>
      <trkpt lat="47.52881" lon="3.76034">
        <ele>254.89</ele>
        <time>2013-04-28T13:08:03Z</time>
      </trkpt>
      <trkpt lat="47.52873" lon="3.76018">
        <ele>254.41</ele>
        <time>2013-04-28T13:08:12Z</time>
      </trkpt>
      <trkpt lat="47.52868" lon="3.76011">
        <ele>254.41</ele>
        <time>2013-04-28T13:08:20Z</time>
      </trkpt>
      <trkpt lat="47.52859" lon="3.75996">
        <ele>255.37</ele>
        <time>2013-04-28T13:08:28Z</time>
      </trkpt>
      <trkpt lat="47.52852" lon="3.75985">
        <ele>254.89</ele>
        <time>2013-04-28T13:08:36Z</time>
      </trkpt>
      <trkpt lat="47.52845" lon="3.75969">
        <ele>254.89</ele>
        <time>2013-04-28T13:08:47Z</time>
      </trkpt>
      <trkpt lat="47.52839" lon="3.75959">
        <ele>254.41</ele>
        <time>2013-04-28T13:08:53Z</time>
      </trkpt>
      <trkpt lat="47.5283" lon="3.75947">
        <ele>254.89</ele>
        <time>2013-04-28T13:09:02Z</time>
      </trkpt>
      <trkpt lat="47.52823" lon="3.75932">
        <ele>254.89</ele>
        <time>2013-04-28T13:09:11Z</time>
      </trkpt>
      <trkpt lat="47.52819" lon="3.75919">
        <ele>254.41</ele>
        <time>2013-04-28T13:09:19Z</time>
      </trkpt>
      <trkpt lat="47.52817" lon="3.75902">
        <ele>254.41</ele>
        <time>2013-04-28T13:09:28Z</time>
      </trkpt>
      <trkpt lat="47.52816" lon="3.759">
        <ele>254.41</ele>
        <time>2013-04-28T13:09:29Z</time>
      </trkpt>
      <trkpt lat="47.52813" lon="3.75883">
        <ele>254.41</ele>
        <time>2013-04-28T13:09:38Z</time>
      </trkpt>
      <trkpt lat="47.52803" lon="3.75859">
        <ele>253.44</ele>
        <time>2013-04-28T13:09:50Z</time>
      </trkpt>
      <trkpt lat="47.52794" lon="3.75844">
        <ele>253.93</ele>
        <time>2013-04-28T13:10:00Z</time>
      </trkpt>
      <trkpt lat="47.52788" lon="3.75835">
        <ele>253.93</ele>
        <time>2013-04-28T13:10:06Z</time>
      </trkpt>
      <trkpt lat="47.52778" lon="3.75824">
        <ele>253.44</ele>
        <time>2013-04-28T13:10:13Z</time>
      </trkpt>
      <trkpt lat="47.52763" lon="3.75808">
        <ele>253.44</ele>
        <time>2013-04-28T13:10:22Z</time>
      </trkpt>
      <trkpt lat="47.52754" lon="3.75797">
        <ele>253.44</ele>
        <time>2013-04-28T13:10:29Z</time>
      </trkpt>
      <trkpt lat="47.52746" lon="3.75787">
        <ele>252.96</ele>
        <time>2013-04-28T13:10:36Z</time>
      </trkpt>
      <trkpt lat="47.52734" lon="3.75775">
        <ele>252.96</ele>
        <time>2013-04-28T13:10:45Z</time>
      </trkpt>
      <trkpt lat="47.52726" lon="3.75764">
        <ele>253.44</ele>
        <time>2013-04-28T13:10:53Z</time>
      </trkpt>
      <trkpt lat="47.52722" lon="3.75761">
        <ele>252.96</ele>
        <time>2013-04-28T13:10:56Z</time>
      </trkpt>
      <trkpt lat="47.52715" lon="3.75748">
        <ele>253.44</ele>
        <time>2013-04-28T13:11:04Z</time>
      </trkpt>
      <trkpt lat="47.52709" lon="3.75744">
        <ele>252.96</ele>
        <time>2013-04-28T13:11:08Z</time>
      </trkpt>
      <trkpt lat="47.52698" lon="3.75735">
        <ele>253.44</ele>
        <time>2013-04-28T13:11:16Z</time>
      </trkpt>
      <trkpt lat="47.5269" lon="3.75721">
        <ele>254.89</ele>
        <time>2013-04-28T13:11:24Z</time>
      </trkpt>
      <trkpt lat="47.52681" lon="3.75713">
        <ele>254.89</ele>
        <time>2013-04-28T13:11:31Z</time>
      </trkpt>
      <trkpt lat="47.52672" lon="3.75702">
        <ele>255.37</ele>
        <time>2013-04-28T13:11:40Z</time>
      </trkpt>
      <trkpt lat="47.52667" lon="3.75699">
        <ele>254.89</ele>
        <time>2013-04-28T13:11:46Z</time>
      </trkpt>
      <trkpt lat="47.5266" lon="3.75688">
        <ele>255.85</ele>
        <time>2013-04-28T13:11:56Z</time>
      </trkpt>
      <trkpt lat="47.5265" lon="3.75677">
        <ele>256.33</ele>
        <time>2013-04-28T13:12:05Z</time>
      </trkpt>
      <trkpt lat="47.5265" lon="3.75676">
        <ele>255.37</ele>
        <time>2013-04-28T13:12:06Z</time>
      </trkpt>
      <trkpt lat="47.52642" lon="3.75665">
        <ele>255.85</ele>
        <time>2013-04-28T13:12:14Z</time>
      </trkpt>
      <trkpt lat="47.52635" lon="3.75653">
        <ele>255.85</ele>
        <time>2013-04-28T13:12:20Z</time>
      </trkpt>
      <trkpt lat="47.52624" lon="3.75637">
        <ele>256.33</ele>
        <time>2013-04-28T13:12:29Z</time>
      </trkpt>
      <trkpt lat="47.52616" lon="3.75624">
        <ele>256.33</ele>
        <time>2013-04-28T13:12:39Z</time>
      </trkpt>
      <trkpt lat="47.52607" lon="3.75609">
        <ele>256.33</ele>
        <time>2013-04-28T13:12:48Z</time>
      </trkpt>
      <trkpt lat="47.52597" lon="3.75596">
        <ele>256.81</ele>
        <time>2013-04-28T13:12:57Z</time>
      </trkpt>
      <trkpt lat="47.52588" lon="3.75586">
        <ele>257.29</ele>
        <time>2013-04-28T13:13:05Z</time>
      </trkpt>
      <trkpt lat="47.52582" lon="3.75578">
        <ele>257.29</ele>
        <time>2013-04-28T13:13:11Z</time>
      </trkpt>
      <trkpt lat="47.52575" lon="3.75564">
        <ele>257.77</ele>
        <time>2013-04-28T13:13:20Z</time>
      </trkpt>
      <trkpt lat="47.52566" lon="3.75549">
        <ele>258.25</ele>
        <time>2013-04-28T13:13:29Z</time>
      </trkpt>
      <trkpt lat="47.52563" lon="3.75539">
        <ele>258.73</ele>
        <time>2013-04-28T13:13:37Z</time>
      </trkpt>
      <trkpt lat="47.52557" lon="3.75529">
        <ele>258.73</ele>
        <time>2013-04-28T13:13:45Z</time>
      </trkpt>
      <trkpt lat="47.52549" lon="3.75521">
        <ele>259.21</ele>
        <time>2013-04-28T13:13:52Z</time>
      </trkpt>
      <trkpt lat="47.52533" lon="3.75514">
        <ele>260.17</ele>
        <time>2013-04-28T13:14:02Z</time>
      </trkpt>
      <trkpt lat="47.52518" lon="3.75508">
        <ele>261.14</ele>
        <time>2013-04-28T13:14:13Z</time>
      </trkpt>
      <trkpt lat="47.52507" lon="3.75505">
        <ele>261.62</ele>
        <time>2013-04-28T13:14:21Z</time>
      </trkpt>
      <trkpt lat="47.52494" lon="3.75502">
        <ele>261.62</ele>
        <time>2013-04-28T13:14:30Z</time>
      </trkpt>
      <trkpt lat="47.52482" lon="3.75497">
        <ele>262.1</ele>
        <time>2013-04-28T13:14:38Z</time>
      </trkpt>
      <trkpt lat="47.52466" lon="3.75491">
        <ele>262.1</ele>
        <time>2013-04-28T13:14:49Z</time>
      </trkpt>
      <trkpt lat="47.52455" lon="3.75486">
        <ele>261.62</ele>
        <time>2013-04-28T13:14:57Z</time>
      </trkpt>
      <trkpt lat="47.52447" lon="3.75483">
        <ele>261.14</ele>
        <time>2013-04-28T13:15:04Z</time>
      </trkpt>
      <trkpt lat="47.52437" lon="3.75483">
        <ele>260.17</ele>
        <time>2013-04-28T13:15:12Z</time>
      </trkpt>
      <trkpt lat="47.52426" lon="3.7548">
        <ele>260.17</ele>
        <time>2013-04-28T13:15:21Z</time>
      </trkpt>
      <trkpt lat="47.52414" lon="3.75477">
        <ele>259.69</ele>
        <time>2013-04-28T13:15:31Z</time>
      </trkpt>
      <trkpt lat="47.52402" lon="3.7547">
        <ele>258.73</ele>
        <time>2013-04-28T13:15:39Z</time>
      </trkpt>
      <trkpt lat="47.52387" lon="3.75468">
        <ele>256.81</ele>
        <time>2013-04-28T13:15:49Z</time>
      </trkpt>
      <trkpt lat="47.52373" lon="3.75466">
        <ele>255.85</ele>
        <time>2013-04-28T13:15:58Z</time>
      </trkpt>
      <trkpt lat="47.52361" lon="3.75463">
        <ele>254.41</ele>
        <time>2013-04-28T13:16:08Z</time>
      </trkpt>
      <trkpt lat="47.52355" lon="3.75462">
        <ele>253.44</ele>
        <time>2013-04-28T13:16:14Z</time>
      </trkpt>
      <trkpt lat="47.52342" lon="3.75455">
        <ele>251.04</ele>
        <time>2013-04-28T13:16:23Z</time>
      </trkpt>
      <trkpt lat="47.52331" lon="3.75459">
        <ele>249.6</ele>
        <time>2013-04-28T13:16:31Z</time>
      </trkpt>
      <trkpt lat="47.52328" lon="3.7546">
        <ele>249.12</ele>
        <time>2013-04-28T13:16:33Z</time>
      </trkpt>
      <trkpt lat="47.52318" lon="3.7547">
        <ele>247.2</ele>
        <time>2013-04-28T13:16:42Z</time>
      </trkpt>
      <trkpt lat="47.52308" lon="3.75473">
        <ele>244.79</ele>
        <time>2013-04-28T13:16:50Z</time>
      </trkpt>
      <trkpt lat="47.52304" lon="3.75483">
        <ele>242.87</ele>
        <time>2013-04-28T13:16:57Z</time>
      </trkpt>
      <trkpt lat="47.52302" lon="3.75489">
        <ele>244.79</ele>
        <time>2013-04-28T13:17:16Z</time>
      </trkpt>
      <trkpt lat="47.52305" lon="3.75479">
        <ele>244.79</ele>
        <time>2013-04-28T13:17:28Z</time>
      </trkpt>
      <trkpt lat="47.52294" lon="3.75475">
        <ele>242.87</ele>
        <time>2013-04-28T13:17:35Z</time>
      </trkpt>
      <trkpt lat="47.52282" lon="3.75473">
        <ele>240.47</ele>
        <time>2013-04-28T13:17:45Z</time>
      </trkpt>
      <trkpt lat="47.52276" lon="3.7547">
        <ele>238.54</ele>
        <time>2013-04-28T13:17:52Z</time>
      </trkpt>
      <trkpt lat="47.52265" lon="3.75458">
        <ele>236.14</ele>
        <time>2013-04-28T13:18:01Z</time>
      </trkpt>
      <trkpt lat="47.52261" lon="3.75453">
        <ele>235.66</ele>
        <time>2013-04-28T13:18:05Z</time>
      </trkpt>
      <trkpt lat="47.52258" lon="3.75451">
        <ele>234.7</ele>
        <time>2013-04-28T13:18:07Z</time>
      </trkpt>
      <trkpt lat="47.52248" lon="3.75443">
        <ele>233.26</ele>
        <time>2013-04-28T13:18:16Z</time>
      </trkpt>
      <trkpt lat="47.52239" lon="3.75437">
        <ele>232.78</ele>
        <time>2013-04-28T13:18:23Z</time>
      </trkpt>
      <trkpt lat="47.52231" lon="3.75433">
        <ele>230.85</ele>
        <time>2013-04-28T13:18:29Z</time>
      </trkpt>
      <trkpt lat="47.52224" lon="3.75427">
        <ele>230.37</ele>
        <time>2013-04-28T13:18:35Z</time>
      </trkpt>
      <trkpt lat="47.52221" lon="3.75425">
        <ele>228.93</ele>
        <time>2013-04-28T13:18:38Z</time>
      </trkpt>
      <trkpt lat="47.52215" lon="3.7542">
        <ele>227.01</ele>
        <time>2013-04-28T13:18:45Z</time>
      </trkpt>
      <trkpt lat="47.52212" lon="3.75417">
        <ele>226.53</ele>
        <time>2013-04-28T13:18:47Z</time>
      </trkpt>
      <trkpt lat="47.522" lon="3.75408">
        <ele>223.64</ele>
        <time>2013-04-28T13:18:55Z</time>
      </trkpt>
      <trkpt lat="47.52187" lon="3.75403">
        <ele>220.28</ele>
        <time>2013-04-28T13:19:05Z</time>
      </trkpt>
      <trkpt lat="47.52177" lon="3.75402">
        <ele>218.84</ele>
        <time>2013-04-28T13:19:10Z</time>
      </trkpt>
      <trkpt lat="47.52174" lon="3.75399">
        <ele>218.84</ele>
        <time>2013-04-28T13:19:12Z</time>
      </trkpt>
      <trkpt lat="47.52162" lon="3.75395">
        <ele>215.95</ele>
        <time>2013-04-28T13:19:20Z</time>
      </trkpt>
      <trkpt lat="47.52153" lon="3.75393">
        <ele>213.55</ele>
        <time>2013-04-28T13:19:29Z</time>
      </trkpt>
      <trkpt lat="47.52149" lon="3.75393">
        <ele>211.63</ele>
        <time>2013-04-28T13:19:36Z</time>
      </trkpt>
      <trkpt lat="47.52142" lon="3.75389">
        <ele>209.7</ele>
        <time>2013-04-28T13:19:45Z</time>
      </trkpt>
      <trkpt lat="47.52129" lon="3.75387">
        <ele>206.82</ele>
        <time>2013-04-28T13:19:54Z</time>
      </trkpt>
      <trkpt lat="47.52116" lon="3.7539">
        <ele>204.9</ele>
        <time>2013-04-28T13:20:01Z</time>
      </trkpt>
      <trkpt lat="47.52101" lon="3.75391">
        <ele>202.49</ele>
        <time>2013-04-28T13:20:11Z</time>
      </trkpt>
      <trkpt lat="47.52085" lon="3.75391">
        <ele>200.09</ele>
        <time>2013-04-28T13:20:21Z</time>
      </trkpt>
      <trkpt lat="47.52079" lon="3.7539">
        <ele>198.17</ele>
        <time>2013-04-28T13:20:29Z</time>
      </trkpt>
      <trkpt lat="47.52076" lon="3.75387">
        <ele>196.73</ele>
        <time>2013-04-28T13:20:36Z</time>
      </trkpt>
      <trkpt lat="47.5207" lon="3.75385">
        <ele>195.77</ele>
        <time>2013-04-28T13:20:46Z</time>
      </trkpt>
      <trkpt lat="47.52059" lon="3.75381">
        <ele>193.36</ele>
        <time>2013-04-28T13:20:56Z</time>
      </trkpt>
      <trkpt lat="47.52043" lon="3.75383">
        <ele>190.48</ele>
        <time>2013-04-28T13:21:06Z</time>
      </trkpt>
      <trkpt lat="47.52029" lon="3.75378">
        <ele>189.04</ele>
        <time>2013-04-28T13:21:15Z</time>
      </trkpt>
      <trkpt lat="47.52026" lon="3.75375">
        <ele>188.56</ele>
        <time>2013-04-28T13:21:18Z</time>
      </trkpt>
      <trkpt lat="47.52009" lon="3.75373">
        <ele>187.11</ele>
        <time>2013-04-28T13:21:29Z</time>
      </trkpt>
      <trkpt lat="47.51995" lon="3.75375">
        <ele>185.67</ele>
        <time>2013-04-28T13:21:40Z</time>
      </trkpt>
      <trkpt lat="47.51987" lon="3.75374">
        <ele>185.19</ele>
        <time>2013-04-28T13:21:47Z</time>
      </trkpt>
      <trkpt lat="47.51974" lon="3.75369">
        <ele>184.71</ele>
        <time>2013-04-28T13:21:56Z</time>
      </trkpt>
      <trkpt lat="47.51958" lon="3.75363">
        <ele>184.23</ele>
        <time>2013-04-28T13:22:07Z</time>
      </trkpt>
      <trkpt lat="47.51943" lon="3.7536">
        <ele>183.27</ele>
        <time>2013-04-28T13:22:17Z</time>
      </trkpt>
      <trkpt lat="47.51934" lon="3.75362">
        <ele>181.35</ele>
        <time>2013-04-28T13:22:25Z</time>
      </trkpt>
      <trkpt lat="47.51922" lon="3.75354">
        <ele>181.83</ele>
        <time>2013-04-28T13:22:34Z</time>
      </trkpt>
      <trkpt lat="47.51904" lon="3.75342">
        <ele>180.87</ele>
        <time>2013-04-28T13:22:46Z</time>
      </trkpt>
      <trkpt lat="47.51893" lon="3.7533">
        <ele>180.87</ele>
        <time>2013-04-28T13:22:55Z</time>
      </trkpt>
      <trkpt lat="47.51883" lon="3.75321">
        <ele>180.38</ele>
        <time>2013-04-28T13:23:04Z</time>
      </trkpt>
      <trkpt lat="47.51869" lon="3.75308">
        <ele>179.9</ele>
        <time>2013-04-28T13:23:15Z</time>
      </trkpt>
      <trkpt lat="47.51855" lon="3.75297">
        <ele>178.46</ele>
        <time>2013-04-28T13:23:27Z</time>
      </trkpt>
      <trkpt lat="47.51847" lon="3.75291">
        <ele>178.94</ele>
        <time>2013-04-28T13:23:33Z</time>
      </trkpt>
      <trkpt lat="47.5184" lon="3.75287">
        <ele>177.5</ele>
        <time>2013-04-28T13:23:40Z</time>
      </trkpt>
      <trkpt lat="47.51828" lon="3.75276">
        <ele>177.5</ele>
        <time>2013-04-28T13:23:50Z</time>
      </trkpt>
      <trkpt lat="47.51818" lon="3.75268">
        <ele>177.02</ele>
        <time>2013-04-28T13:23:58Z</time>
      </trkpt>
      <trkpt lat="47.51804" lon="3.75258">
        <ele>177.02</ele>
        <time>2013-04-28T13:24:08Z</time>
      </trkpt>
      <trkpt lat="47.51792" lon="3.75247">
        <ele>176.06</ele>
        <time>2013-04-28T13:24:18Z</time>
      </trkpt>
      <trkpt lat="47.51778" lon="3.75238">
        <ele>175.58</ele>
        <time>2013-04-28T13:24:30Z</time>
      </trkpt>
      <trkpt lat="47.51765" lon="3.75227">
        <ele>175.1</ele>
        <time>2013-04-28T13:24:39Z</time>
      </trkpt>
      <trkpt lat="47.51755" lon="3.75219">
        <ele>174.62</ele>
        <time>2013-04-28T13:24:48Z</time>
      </trkpt>
      <trkpt lat="47.51747" lon="3.75214">
        <ele>174.14</ele>
        <time>2013-04-28T13:24:54Z</time>
      </trkpt>
      <trkpt lat="47.51736" lon="3.75205">
        <ele>174.14</ele>
        <time>2013-04-28T13:25:03Z</time>
      </trkpt>
      <trkpt lat="47.51725" lon="3.75197">
        <ele>173.66</ele>
        <time>2013-04-28T13:25:12Z</time>
      </trkpt>
      <trkpt lat="47.51713" lon="3.75188">
        <ele>173.17</ele>
        <time>2013-04-28T13:25:21Z</time>
      </trkpt>
      <trkpt lat="47.51701" lon="3.75177">
        <ele>172.69</ele>
        <time>2013-04-28T13:25:32Z</time>
      </trkpt>
      <trkpt lat="47.5169" lon="3.75166">
        <ele>171.73</ele>
        <time>2013-04-28T13:25:42Z</time>
      </trkpt>
      <trkpt lat="47.51679" lon="3.75157">
        <ele>171.73</ele>
        <time>2013-04-28T13:25:50Z</time>
      </trkpt>
      <trkpt lat="47.51666" lon="3.75144">
        <ele>171.73</ele>
        <time>2013-04-28T13:26:01Z</time>
      </trkpt>
      <trkpt lat="47.51656" lon="3.75135">
        <ele>171.25</ele>
        <time>2013-04-28T13:26:09Z</time>
      </trkpt>
      <trkpt lat="47.51645" lon="3.75125">
        <ele>171.25</ele>
        <time>2013-04-28T13:26:19Z</time>
      </trkpt>
      <trkpt lat="47.51631" lon="3.75113">
        <ele>170.77</ele>
        <time>2013-04-28T13:26:29Z</time>
      </trkpt>
      <trkpt lat="47.51617" lon="3.75107">
        <ele>170.29</ele>
        <time>2013-04-28T13:26:42Z</time>
      </trkpt>
      <trkpt lat="47.51608" lon="3.75095">
        <ele>169.81</ele>
        <time>2013-04-28T13:26:51Z</time>
      </trkpt>
      <trkpt lat="47.51593" lon="3.75081">
        <ele>169.81</ele>
        <time>2013-04-28T13:27:02Z</time>
      </trkpt>
      <trkpt lat="47.51581" lon="3.75068">
        <ele>169.81</ele>
        <time>2013-04-28T13:27:12Z</time>
      </trkpt>
      <trkpt lat="47.51568" lon="3.75058">
        <ele>169.81</ele>
        <time>2013-04-28T13:27:22Z</time>
      </trkpt>
      <trkpt lat="47.51556" lon="3.75046">
        <ele>168.37</ele>
        <time>2013-04-28T13:27:33Z</time>
      </trkpt>
      <trkpt lat="47.51542" lon="3.75037">
        <ele>167.89</ele>
        <time>2013-04-28T13:27:44Z</time>
      </trkpt>
      <trkpt lat="47.51531" lon="3.75027">
        <ele>168.37</ele>
        <time>2013-04-28T13:27:54Z</time>
      </trkpt>
      <trkpt lat="47.51517" lon="3.75015">
        <ele>167.41</ele>
        <time>2013-04-28T13:28:05Z</time>
      </trkpt>
      <trkpt lat="47.51506" lon="3.75006">
        <ele>166.93</ele>
        <time>2013-04-28T13:28:14Z</time>
      </trkpt>
      <trkpt lat="47.51494" lon="3.74996">
        <ele>166.93</ele>
        <time>2013-04-28T13:28:24Z</time>
      </trkpt>
      <trkpt lat="47.51481" lon="3.74988">
        <ele>166.93</ele>
        <time>2013-04-28T13:28:35Z</time>
      </trkpt>
      <trkpt lat="47.51471" lon="3.7498">
        <ele>166.45</ele>
        <time>2013-04-28T13:28:44Z</time>
      </trkpt>
      <trkpt lat="47.51463" lon="3.7497">
        <ele>166.45</ele>
        <time>2013-04-28T13:28:53Z</time>
      </trkpt>
      <trkpt lat="47.5145" lon="3.74959">
        <ele>166.93</ele>
        <time>2013-04-28T13:29:04Z</time>
      </trkpt>
      <trkpt lat="47.51439" lon="3.74949">
        <ele>167.89</ele>
        <time>2013-04-28T13:29:14Z</time>
      </trkpt>
      <trkpt lat="47.51431" lon="3.74941">
        <ele>168.37</ele>
        <time>2013-04-28T13:29:23Z</time>
      </trkpt>
      <trkpt lat="47.51419" lon="3.74936">
        <ele>167.89</ele>
        <time>2013-04-28T13:29:32Z</time>
      </trkpt>
      <trkpt lat="47.51407" lon="3.74936">
        <ele>168.37</ele>
        <time>2013-04-28T13:29:40Z</time>
      </trkpt>
      <trkpt lat="47.51397" lon="3.74933">
        <ele>168.37</ele>
        <time>2013-04-28T13:29:48Z</time>
      </trkpt>
      <trkpt lat="47.51389" lon="3.74931">
        <ele>168.85</ele>
        <time>2013-04-28T13:29:56Z</time>
      </trkpt>
      <trkpt lat="47.51376" lon="3.74927">
        <ele>169.33</ele>
        <time>2013-04-28T13:30:05Z</time>
      </trkpt>
      <trkpt lat="47.51363" lon="3.7492">
        <ele>169.81</ele>
        <time>2013-04-28T13:30:14Z</time>
      </trkpt>
      <trkpt lat="47.5135" lon="3.74911">
        <ele>168.37</ele>
        <time>2013-04-28T13:30:24Z</time>
      </trkpt>
      <trkpt lat="47.51339" lon="3.74902">
        <ele>167.41</ele>
        <time>2013-04-28T13:30:33Z</time>
      </trkpt>
      <trkpt lat="47.51327" lon="3.74892">
        <ele>166.45</ele>
        <time>2013-04-28T13:30:42Z</time>
      </trkpt>
      <trkpt lat="47.51319" lon="3.74891">
        <ele>165.96</ele>
        <time>2013-04-28T13:30:48Z</time>
      </trkpt>
      <trkpt lat="47.51304" lon="3.74893">
        <ele>166.93</ele>
        <time>2013-04-28T13:30:58Z</time>
      </trkpt>
      <trkpt lat="47.51294" lon="3.74901">
        <ele>166.93</ele>
        <time>2013-04-28T13:31:06Z</time>
      </trkpt>
      <trkpt lat="47.51277" lon="3.74911">
        <ele>168.37</ele>
        <time>2013-04-28T13:31:18Z</time>
      </trkpt>
      <trkpt lat="47.51264" lon="3.7492">
        <ele>168.85</ele>
        <time>2013-04-28T13:31:28Z</time>
      </trkpt>
      <trkpt lat="47.5125" lon="3.74926">
        <ele>169.33</ele>
        <time>2013-04-28T13:31:38Z</time>
      </trkpt>
      <trkpt lat="47.51243" lon="3.74929">
        <ele>169.81</ele>
        <time>2013-04-28T13:31:43Z</time>
      </trkpt>
      <trkpt lat="47.5124" lon="3.74928">
        <ele>170.77</ele>
        <time>2013-04-28T13:31:46Z</time>
      </trkpt>
      <trkpt lat="47.51233" lon="3.74919">
        <ele>171.25</ele>
        <time>2013-04-28T13:31:54Z</time>
      </trkpt>
      <trkpt lat="47.51231" lon="3.74909">
        <ele>173.17</ele>
        <time>2013-04-28T13:32:01Z</time>
      </trkpt>
      <trkpt lat="47.51234" lon="3.74903">
        <ele>172.69</ele>
        <time>2013-04-28T13:32:05Z</time>
      </trkpt>
      <trkpt lat="47.51236" lon="3.74899">
        <ele>173.66</ele>
        <time>2013-04-28T13:32:13Z</time>
      </trkpt>
      <trkpt lat="47.51239" lon="3.749">
        <ele>173.66</ele>
        <time>2013-04-28T13:32:24Z</time>
      </trkpt>
      <trkpt lat="47.51241" lon="3.74894">
        <ele>173.66</ele>
        <time>2013-04-28T13:32:33Z</time>
      </trkpt>
      <trkpt lat="47.51241" lon="3.7489">
        <ele>174.14</ele>
        <time>2013-04-28T13:32:38Z</time>
      </trkpt>
      <trkpt lat="47.51245" lon="3.74884">
        <ele>173.17</ele>
        <time>2013-04-28T13:32:46Z</time>
      </trkpt>
      <trkpt lat="47.51246" lon="3.74887">
        <ele>173.17</ele>
        <time>2013-04-28T13:33:00Z</time>
      </trkpt>
      <trkpt lat="47.51244" lon="3.74889">
        <ele>174.62</ele>
        <time>2013-04-28T13:33:17Z</time>
      </trkpt>
      <trkpt lat="47.51244" lon="3.74889">
        <ele>173.66</ele>
        <time>2013-04-28T13:33:27Z</time>
      </trkpt>
      <trkpt lat="47.51245" lon="3.74888">
        <ele>173.66</ele>
        <time>2013-04-28T13:33:39Z</time>
      </trkpt>
      <trkpt lat="47.51244" lon="3.74889">
        <ele>174.14</ele>
        <time>2013-04-28T13:33:49Z</time>
      </trkpt>
      <trkpt lat="47.51244" lon="3.74888">
        <ele>174.14</ele>
        <time>2013-04-28T13:33:56Z</time>
      </trkpt>
      <trkpt lat="47.51244" lon="3.74892">
        <ele>174.14</ele>
        <time>2013-04-28T13:34:08Z</time>
      </trkpt>
      <trkpt lat="47.51243" lon="3.7489">
        <ele>174.14</ele>
        <time>2013-04-28T13:34:17Z</time>
      </trkpt>
      <trkpt lat="47.51246" lon="3.74885">
        <ele>174.62</ele>
        <time>2013-04-28T13:34:25Z</time>
      </trkpt>
      <trkpt lat="47.51247" lon="3.74881">
        <ele>175.1</ele>
        <time>2013-04-28T13:34:32Z</time>
      </trkpt>
      <trkpt lat="47.51245" lon="3.74885">
        <ele>175.1</ele>
        <time>2013-04-28T13:34:42Z</time>
      </trkpt>
      <trkpt lat="47.51246" lon="3.74884">
        <ele>174.62</ele>
        <time>2013-04-28T13:34:55Z</time>
      </trkpt>
      <trkpt lat="47.51244" lon="3.74881">
        <ele>174.62</ele>
        <time>2013-04-28T13:35:05Z</time>
      </trkpt>
      <trkpt lat="47.51243" lon="3.74881">
        <ele>175.1</ele>
        <time>2013-04-28T13:35:14Z</time>
      </trkpt>
      <trkpt lat="47.51242" lon="3.7488">
        <ele>175.1</ele>
        <time>2013-04-28T13:35:15Z</time>
      </trkpt>
      <trkpt lat="47.51234" lon="3.7488">
        <ele>175.58</ele>
        <time>2013-04-28T13:35:24Z</time>
      </trkpt>
      <trkpt lat="47.51234" lon="3.74883">
        <ele>175.58</ele>
        <time>2013-04-28T13:35:34Z</time>
      </trkpt>
      <trkpt lat="47.51233" lon="3.74885">
        <ele>175.58</ele>
        <time>2013-04-28T13:35:44Z</time>
      </trkpt>
      <trkpt lat="47.51222" lon="3.74877">
        <ele>177.02</ele>
        <time>2013-04-28T13:35:52Z</time>
      </trkpt>
      <trkpt lat="47.51218" lon="3.74875">
        <ele>177.02</ele>
        <time>2013-04-28T13:35:58Z</time>
      </trkpt>
      <trkpt lat="47.51218" lon="3.74868">
        <ele>178.46</ele>
        <time>2013-04-28T13:36:07Z</time>
      </trkpt>
      <trkpt lat="47.51217" lon="3.74861">
        <ele>178.94</ele>
        <time>2013-04-28T13:36:13Z</time>
      </trkpt>
      <trkpt lat="47.51216" lon="3.74847">
        <ele>180.38</ele>
        <time>2013-04-28T13:36:22Z</time>
      </trkpt>
      <trkpt lat="47.51207" lon="3.74833">
        <ele>181.35</ele>
        <time>2013-04-28T13:36:33Z</time>
      </trkpt>
      <trkpt lat="47.51204" lon="3.7482">
        <ele>182.31</ele>
        <time>2013-04-28T13:36:42Z</time>
      </trkpt>
      <trkpt lat="47.51202" lon="3.74819">
        <ele>181.83</ele>
        <time>2013-04-28T13:36:51Z</time>
      </trkpt>
      <trkpt lat="47.51199" lon="3.7482">
        <ele>182.79</ele>
        <time>2013-04-28T13:36:56Z</time>
      </trkpt>
      <trkpt lat="47.51199" lon="3.74821">
        <ele>181.35</ele>
        <time>2013-04-28T13:36:58Z</time>
      </trkpt>
      <trkpt lat="47.512" lon="3.74824">
        <ele>181.35</ele>
        <time>2013-04-28T13:37:07Z</time>
      </trkpt>
      <trkpt lat="47.51201" lon="3.74824">
        <ele>182.31</ele>
        <time>2013-04-28T13:37:17Z</time>
      </trkpt>
      <trkpt lat="47.512" lon="3.74827">
        <ele>182.79</ele>
        <time>2013-04-28T13:37:28Z</time>
      </trkpt>
      <trkpt lat="47.51201" lon="3.7483">
        <ele>182.31</ele>
        <time>2013-04-28T13:37:29Z</time>
      </trkpt>
      <trkpt lat="47.51208" lon="3.7484">
        <ele>181.35</ele>
        <time>2013-04-28T13:37:36Z</time>
      </trkpt>
      <trkpt lat="47.51209" lon="3.74841">
        <ele>180.87</ele>
        <time>2013-04-28T13:37:37Z</time>
      </trkpt>
      <trkpt lat="47.51212" lon="3.74856">
        <ele>179.9</ele>
        <time>2013-04-28T13:37:45Z</time>
      </trkpt>
      <trkpt lat="47.51214" lon="3.7486">
        <ele>180.38</ele>
        <time>2013-04-28T13:37:47Z</time>
      </trkpt>
      <trkpt lat="47.51217" lon="3.74873">
        <ele>178.94</ele>
        <time>2013-04-28T13:37:55Z</time>
      </trkpt>
      <trkpt lat="47.51219" lon="3.7488">
        <ele>177.02</ele>
        <time>2013-04-28T13:38:03Z</time>
      </trkpt>
      <trkpt lat="47.5122" lon="3.7488">
        <ele>177.02</ele>
        <time>2013-04-28T13:38:04Z</time>
      </trkpt>
      <trkpt lat="47.51234" lon="3.74882">
        <ele>176.54</ele>
        <time>2013-04-28T13:38:14Z</time>
      </trkpt>
      <trkpt lat="47.51237" lon="3.74882">
        <ele>176.06</ele>
        <time>2013-04-28T13:38:16Z</time>
      </trkpt>
      <trkpt lat="47.51241" lon="3.74885">
        <ele>175.58</ele>
        <time>2013-04-28T13:38:20Z</time>
      </trkpt>
      <trkpt lat="47.51244" lon="3.74885">
        <ele>176.06</ele>
        <time>2013-04-28T13:38:28Z</time>
      </trkpt>
      <trkpt lat="47.51243" lon="3.7489">
        <ele>175.58</ele>
        <time>2013-04-28T13:38:31Z</time>
      </trkpt>
      <trkpt lat="47.51238" lon="3.74904">
        <ele>175.1</ele>
        <time>2013-04-28T13:38:40Z</time>
      </trkpt>
      <trkpt lat="47.51233" lon="3.74916">
        <ele>174.14</ele>
        <time>2013-04-28T13:38:47Z</time>
      </trkpt>
      <trkpt lat="47.51242" lon="3.74933">
        <ele>171.73</ele>
        <time>2013-04-28T13:38:57Z</time>
      </trkpt>
      <trkpt lat="47.51254" lon="3.74932">
        <ele>170.29</ele>
        <time>2013-04-28T13:39:05Z</time>
      </trkpt>
      <trkpt lat="47.51269" lon="3.74923">
        <ele>170.77</ele>
        <time>2013-04-28T13:39:16Z</time>
      </trkpt>
      <trkpt lat="47.51285" lon="3.74909">
        <ele>169.33</ele>
        <time>2013-04-28T13:39:28Z</time>
      </trkpt>
      <trkpt lat="47.513" lon="3.74898">
        <ele>168.37</ele>
        <time>2013-04-28T13:39:39Z</time>
      </trkpt>
      <trkpt lat="47.51311" lon="3.74894">
        <ele>168.37</ele>
        <time>2013-04-28T13:39:48Z</time>
      </trkpt>
      <trkpt lat="47.51313" lon="3.74893">
        <ele>167.89</ele>
        <time>2013-04-28T13:39:50Z</time>
      </trkpt>
      <trkpt lat="47.51322" lon="3.74895">
        <ele>167.89</ele>
        <time>2013-04-28T13:39:57Z</time>
      </trkpt>
      <trkpt lat="47.51333" lon="3.74904">
        <ele>168.37</ele>
        <time>2013-04-28T13:40:06Z</time>
      </trkpt>
      <trkpt lat="47.51334" lon="3.74905">
        <ele>168.37</ele>
        <time>2013-04-28T13:40:07Z</time>
      </trkpt>
      <trkpt lat="47.51339" lon="3.74907">
        <ele>169.81</ele>
        <time>2013-04-28T13:40:15Z</time>
      </trkpt>
      <trkpt lat="47.51325" lon="3.74891">
        <ele>168.37</ele>
        <time>2013-04-28T13:40:27Z</time>
      </trkpt>
      <trkpt lat="47.51312" lon="3.7489">
        <ele>168.37</ele>
        <time>2013-04-28T13:40:37Z</time>
      </trkpt>
      <trkpt lat="47.51305" lon="3.74891">
        <ele>167.89</ele>
        <time>2013-04-28T13:40:43Z</time>
      </trkpt>
      <trkpt lat="47.51293" lon="3.74898">
        <ele>168.85</ele>
        <time>2013-04-28T13:40:53Z</time>
      </trkpt>
      <trkpt lat="47.51281" lon="3.74905">
        <ele>169.81</ele>
        <time>2013-04-28T13:41:02Z</time>
      </trkpt>
      <trkpt lat="47.51269" lon="3.74915">
        <ele>170.77</ele>
        <time>2013-04-28T13:41:12Z</time>
      </trkpt>
      <trkpt lat="47.51255" lon="3.74924">
        <ele>170.77</ele>
        <time>2013-04-28T13:41:23Z</time>
      </trkpt>
      <trkpt lat="47.51245" lon="3.74927">
        <ele>171.25</ele>
        <time>2013-04-28T13:41:31Z</time>
      </trkpt>
      <trkpt lat="47.51236" lon="3.74923">
        <ele>173.17</ele>
        <time>2013-04-28T13:41:39Z</time>
      </trkpt>
      <trkpt lat="47.51233" lon="3.74918">
        <ele>173.66</ele>
        <time>2013-04-28T13:41:43Z</time>
      </trkpt>
      <trkpt lat="47.51234" lon="3.7491">
        <ele>174.14</ele>
        <time>2013-04-28T13:41:49Z</time>
      </trkpt>
      <trkpt lat="47.51241" lon="3.74895">
        <ele>175.58</ele>
        <time>2013-04-28T13:41:59Z</time>
      </trkpt>
      <trkpt lat="47.51238" lon="3.74881">
        <ele>176.06</ele>
        <time>2013-04-28T13:42:07Z</time>
      </trkpt>
      <trkpt lat="47.51235" lon="3.74878">
        <ele>176.54</ele>
        <time>2013-04-28T13:42:10Z</time>
      </trkpt>
      <trkpt lat="47.51222" lon="3.74878">
        <ele>177.98</ele>
        <time>2013-04-28T13:42:20Z</time>
      </trkpt>
      <trkpt lat="47.51216" lon="3.74873">
        <ele>178.46</ele>
        <time>2013-04-28T13:42:28Z</time>
      </trkpt>
      <trkpt lat="47.51215" lon="3.74865">
        <ele>179.42</ele>
        <time>2013-04-28T13:42:36Z</time>
      </trkpt>
      <trkpt lat="47.51215" lon="3.74854">
        <ele>180.38</ele>
        <time>2013-04-28T13:42:44Z</time>
      </trkpt>
      <trkpt lat="47.51214" lon="3.74845">
        <ele>180.87</ele>
        <time>2013-04-28T13:42:50Z</time>
      </trkpt>
      <trkpt lat="47.51211" lon="3.74835">
        <ele>181.83</ele>
        <time>2013-04-28T13:42:56Z</time>
      </trkpt>
      <trkpt lat="47.51204" lon="3.74828">
        <ele>182.31</ele>
        <time>2013-04-28T13:43:05Z</time>
      </trkpt>
      <trkpt lat="47.51204" lon="3.7483">
        <ele>182.31</ele>
        <time>2013-04-28T13:43:17Z</time>
      </trkpt>
      <trkpt lat="47.51205" lon="3.74833">
        <ele>182.31</ele>
        <time>2013-04-28T13:43:26Z</time>
      </trkpt>
      <trkpt lat="47.51206" lon="3.74832">
        <ele>182.79</ele>
        <time>2013-04-28T13:43:39Z</time>
      </trkpt>
      <trkpt lat="47.51209" lon="3.74831">
        <ele>182.31</ele>
        <time>2013-04-28T13:43:51Z</time>
      </trkpt>
      <trkpt lat="47.51209" lon="3.74832">
        <ele>182.79</ele>
        <time>2013-04-28T13:44:05Z</time>
      </trkpt>
      <trkpt lat="47.51206" lon="3.74829">
        <ele>182.31</ele>
        <time>2013-04-28T13:44:15Z</time>
      </trkpt>
      <trkpt lat="47.512" lon="3.74829">
        <ele>182.31</ele>
        <time>2013-04-28T13:44:24Z</time>
      </trkpt>
      <trkpt lat="47.51198" lon="3.74831">
        <ele>182.31</ele>
        <time>2013-04-28T13:44:26Z</time>
      </trkpt>
      <trkpt lat="47.51198" lon="3.74838">
        <ele>182.31</ele>
        <time>2013-04-28T13:44:30Z</time>
      </trkpt>
      <trkpt lat="47.51199" lon="3.74842">
        <ele>181.83</ele>
        <time>2013-04-28T13:44:32Z</time>
      </trkpt>
      <trkpt lat="47.51202" lon="3.7485">
        <ele>181.35</ele>
        <time>2013-04-28T13:44:40Z</time>
      </trkpt>
      <trkpt lat="47.51205" lon="3.74851">
        <ele>181.83</ele>
        <time>2013-04-28T13:44:53Z</time>
      </trkpt>
      <trkpt lat="47.51205" lon="3.74849">
        <ele>181.83</ele>
        <time>2013-04-28T13:45:04Z</time>
      </trkpt>
      <trkpt lat="47.51205" lon="3.7484">
        <ele>182.31</ele>
        <time>2013-04-28T13:45:12Z</time>
      </trkpt>
      <trkpt lat="47.51209" lon="3.74833">
        <ele>182.79</ele>
        <time>2013-04-28T13:45:19Z</time>
      </trkpt>
      <trkpt lat="47.51209" lon="3.74835">
        <ele>182.79</ele>
        <time>2013-04-28T13:45:27Z</time>
      </trkpt>
      <trkpt lat="47.5121" lon="3.74836">
        <ele>182.31</ele>
        <time>2013-04-28T13:45:46Z</time>
      </trkpt>
      <trkpt lat="47.51211" lon="3.74836">
        <ele>182.79</ele>
        <time>2013-04-28T13:46:00Z</time>
      </trkpt>
      <trkpt lat="47.51211" lon="3.74837">
        <ele>182.79</ele>
        <time>2013-04-28T13:46:13Z</time>
      </trkpt>
      <trkpt lat="47.51208" lon="3.74836">
        <ele>183.27</ele>
        <time>2013-04-28T13:46:24Z</time>
      </trkpt>
      <trkpt lat="47.51208" lon="3.74832">
        <ele>183.27</ele>
        <time>2013-04-28T13:46:36Z</time>
      </trkpt>
      <trkpt lat="47.51206" lon="3.74827">
        <ele>183.27</ele>
        <time>2013-04-28T13:46:43Z</time>
      </trkpt>
      <trkpt lat="47.51205" lon="3.74823">
        <ele>183.75</ele>
        <time>2013-04-28T13:46:49Z</time>
      </trkpt>
      <trkpt lat="47.51205" lon="3.74824">
        <ele>183.75</ele>
        <time>2013-04-28T13:47:00Z</time>
      </trkpt>
      <trkpt lat="47.51204" lon="3.74823">
        <ele>183.75</ele>
        <time>2013-04-28T13:47:13Z</time>
      </trkpt>
      <trkpt lat="47.51206" lon="3.74821">
        <ele>183.75</ele>
        <time>2013-04-28T13:47:29Z</time>
      </trkpt>
      <trkpt lat="47.51205" lon="3.74822">
        <ele>183.75</ele>
        <time>2013-04-28T13:47:49Z</time>
      </trkpt>
      <trkpt lat="47.51206" lon="3.7482">
        <ele>183.75</ele>
        <time>2013-04-28T13:48:12Z</time>
      </trkpt>
      <trkpt lat="47.51206" lon="3.74824">
        <ele>184.23</ele>
        <time>2013-04-28T13:48:31Z</time>
      </trkpt>
      <trkpt lat="47.51203" lon="3.74822">
        <ele>184.23</ele>
        <time>2013-04-28T13:48:45Z</time>
      </trkpt>
      <trkpt lat="47.51202" lon="3.74824">
        <ele>183.75</ele>
        <time>2013-04-28T13:49:01Z</time>
      </trkpt>
      <trkpt lat="47.51203" lon="3.74833">
        <ele>183.75</ele>
        <time>2013-04-28T13:49:09Z</time>
      </trkpt>
      <trkpt lat="47.51204" lon="3.74832">
        <ele>182.31</ele>
        <time>2013-04-28T13:49:18Z</time>
      </trkpt>
      <trkpt lat="47.51206" lon="3.74831">
        <ele>184.23</ele>
        <time>2013-04-28T13:49:32Z</time>
      </trkpt>
      <trkpt lat="47.51207" lon="3.74831">
        <ele>184.23</ele>
        <time>2013-04-28T13:49:47Z</time>
      </trkpt>
      <trkpt lat="47.5121" lon="3.74828">
        <ele>185.19</ele>
        <time>2013-04-28T13:50:07Z</time>
      </trkpt>
      <trkpt lat="47.51208" lon="3.74829">
        <ele>183.75</ele>
        <time>2013-04-28T13:50:17Z</time>
      </trkpt>
      <trkpt lat="47.51204" lon="3.74828">
        <ele>183.75</ele>
        <time>2013-04-28T13:50:26Z</time>
      </trkpt>
      <trkpt lat="47.51203" lon="3.74824">
        <ele>183.75</ele>
        <time>2013-04-28T13:50:42Z</time>
      </trkpt>
      <trkpt lat="47.51203" lon="3.74824">
        <ele>184.23</ele>
        <time>2013-04-28T13:50:52Z</time>
      </trkpt>
      <trkpt lat="47.51202" lon="3.74829">
        <ele>183.75</ele>
        <time>2013-04-28T13:51:02Z</time>
      </trkpt>
      <trkpt lat="47.51204" lon="3.74831">
        <ele>184.23</ele>
        <time>2013-04-28T13:51:10Z</time>
      </trkpt>
      <trkpt lat="47.51203" lon="3.74826">
        <ele>184.71</ele>
        <time>2013-04-28T13:51:24Z</time>
      </trkpt>
      <trkpt lat="47.51203" lon="3.74828">
        <ele>184.23</ele>
        <time>2013-04-28T13:51:32Z</time>
      </trkpt>
      <trkpt lat="47.51202" lon="3.74828">
        <ele>184.23</ele>
        <time>2013-04-28T13:51:42Z</time>
      </trkpt>
      <trkpt lat="47.51205" lon="3.74833">
        <ele>184.71</ele>
        <time>2013-04-28T13:51:57Z</time>
      </trkpt>
      <trkpt lat="47.51207" lon="3.74831">
        <ele>184.71</ele>
        <time>2013-04-28T13:52:08Z</time>
      </trkpt>
      <trkpt lat="47.51207" lon="3.74828">
        <ele>184.23</ele>
        <time>2013-04-28T13:52:19Z</time>
      </trkpt>
      <trkpt lat="47.51205" lon="3.74828">
        <ele>184.71</ele>
        <time>2013-04-28T13:52:32Z</time>
      </trkpt>
      <trkpt lat="47.51202" lon="3.74826">
        <ele>184.71</ele>
        <time>2013-04-28T13:52:46Z</time>
      </trkpt>
      <trkpt lat="47.51204" lon="3.74826">
        <ele>184.71</ele>
        <time>2013-04-28T13:53:01Z</time>
      </trkpt>
      <trkpt lat="47.51202" lon="3.74824">
        <ele>184.71</ele>
        <time>2013-04-28T13:53:09Z</time>
      </trkpt>
      <trkpt lat="47.51203" lon="3.74825">
        <ele>185.19</ele>
        <time>2013-04-28T13:53:28Z</time>
      </trkpt>
      <trkpt lat="47.51204" lon="3.74826">
        <ele>185.19</ele>
        <time>2013-04-28T13:53:47Z</time>
      </trkpt>
      <trkpt lat="47.51204" lon="3.74826">
        <ele>184.23</ele>
        <time>2013-04-28T13:53:57Z</time>
      </trkpt>
      <trkpt lat="47.51203" lon="3.74825">
        <ele>185.19</ele>
        <time>2013-04-28T13:54:05Z</time>
      </trkpt>
      <trkpt lat="47.51205" lon="3.74828">
        <ele>185.19</ele>
        <time>2013-04-28T13:54:18Z</time>
      </trkpt>
      <trkpt lat="47.51204" lon="3.74831">
        <ele>185.19</ele>
        <time>2013-04-28T13:54:32Z</time>
      </trkpt>
      <trkpt lat="47.51201" lon="3.74829">
        <ele>185.19</ele>
        <time>2013-04-28T13:54:38Z</time>
      </trkpt>
      <trkpt lat="47.51206" lon="3.74831">
        <ele>184.71</ele>
        <time>2013-04-28T13:54:46Z</time>
      </trkpt>
      <trkpt lat="47.51204" lon="3.74831">
        <ele>184.71</ele>
        <time>2013-04-28T13:54:56Z</time>
      </trkpt>
      <trkpt lat="47.51204" lon="3.74828">
        <ele>184.23</ele>
        <time>2013-04-28T13:55:05Z</time>
      </trkpt>
      <trkpt lat="47.51203" lon="3.74831">
        <ele>184.71</ele>
        <time>2013-04-28T13:55:11Z</time>
      </trkpt>
      <trkpt lat="47.51202" lon="3.74829">
        <ele>184.71</ele>
        <time>2013-04-28T13:55:13Z</time>
      </trkpt>
      <trkpt lat="47.51199" lon="3.74823">
        <ele>184.71</ele>
        <time>2013-04-28T13:55:17Z</time>
      </trkpt>
      <trkpt lat="47.51195" lon="3.74823">
        <ele>185.67</ele>
        <time>2013-04-28T13:55:25Z</time>
      </trkpt>
      <trkpt lat="47.51195" lon="3.74817">
        <ele>185.19</ele>
        <time>2013-04-28T13:55:39Z</time>
      </trkpt>
      <trkpt lat="47.51197" lon="3.74817">
        <ele>185.19</ele>
        <time>2013-04-28T13:55:53Z</time>
      </trkpt>
      <trkpt lat="47.512" lon="3.74813">
        <ele>185.67</ele>
        <time>2013-04-28T13:56:00Z</time>
      </trkpt>
      <trkpt lat="47.512" lon="3.74821">
        <ele>185.67</ele>
        <time>2013-04-28T13:56:07Z</time>
      </trkpt>
      <trkpt lat="47.51204" lon="3.74826">
        <ele>184.71</ele>
        <time>2013-04-28T13:56:13Z</time>
      </trkpt>
      <trkpt lat="47.51203" lon="3.74826">
        <ele>185.19</ele>
        <time>2013-04-28T13:56:20Z</time>
      </trkpt>
      <trkpt lat="47.51204" lon="3.74831">
        <ele>184.71</ele>
        <time>2013-04-28T13:56:30Z</time>
      </trkpt>
      <trkpt lat="47.51133" lon="3.74865">
        <ele>150.1</ele>
        <time>2013-04-28T13:59:07Z</time>
      </trkpt>
      <trkpt lat="47.51127" lon="3.74881">
        <ele>154.91</ele>
        <time>2013-04-28T13:59:16Z</time>
      </trkpt>
      <trkpt lat="47.51126" lon="3.74883">
        <ele>154.43</ele>
        <time>2013-04-28T13:59:17Z</time>
      </trkpt>
      <trkpt lat="47.51124" lon="3.7489">
        <ele>156.35</ele>
        <time>2013-04-28T13:59:21Z</time>
      </trkpt>
      <trkpt lat="47.51121" lon="3.74895">
        <ele>157.79</ele>
        <time>2013-04-28T13:59:24Z</time>
      </trkpt>
      <trkpt lat="47.51119" lon="3.74899">
        <ele>159.24</ele>
        <time>2013-04-28T13:59:27Z</time>
      </trkpt>
      <trkpt lat="47.51118" lon="3.749">
        <ele>159.72</ele>
        <time>2013-04-28T13:59:28Z</time>
      </trkpt>
      <trkpt lat="47.51114" lon="3.74916">
        <ele>163.08</ele>
        <time>2013-04-28T13:59:38Z</time>
      </trkpt>
      <trkpt lat="47.5111" lon="3.74933">
        <ele>163.08</ele>
        <time>2013-04-28T13:59:47Z</time>
      </trkpt>
      <trkpt lat="47.51108" lon="3.74939">
        <ele>165</ele>
        <time>2013-04-28T13:59:50Z</time>
      </trkpt>
      <trkpt lat="47.51107" lon="3.74953">
        <ele>163.56</ele>
        <time>2013-04-28T13:59:58Z</time>
      </trkpt>
      <trkpt lat="47.51104" lon="3.74976">
        <ele>165</ele>
        <time>2013-04-28T14:00:09Z</time>
      </trkpt>
      <trkpt lat="47.51102" lon="3.7499">
        <ele>164.52</ele>
        <time>2013-04-28T14:00:17Z</time>
      </trkpt>
      <trkpt lat="47.51096" lon="3.75004">
        <ele>164.04</ele>
        <time>2013-04-28T14:00:25Z</time>
      </trkpt>
      <trkpt lat="47.51088" lon="3.75017">
        <ele>164.52</ele>
        <time>2013-04-28T14:00:35Z</time>
      </trkpt>
      <trkpt lat="47.51083" lon="3.75022">
        <ele>165.96</ele>
        <time>2013-04-28T14:00:45Z</time>
      </trkpt>
      <trkpt lat="47.51083" lon="3.75022">
        <ele>165.48</ele>
        <time>2013-04-28T14:00:46Z</time>
      </trkpt>
      <trkpt lat="47.51081" lon="3.7502">
        <ele>165.96</ele>
        <time>2013-04-28T14:00:53Z</time>
      </trkpt>
      <trkpt lat="47.51081" lon="3.75021">
        <ele>165.96</ele>
        <time>2013-04-28T14:00:55Z</time>
      </trkpt>
      <trkpt lat="47.51075" lon="3.75041">
        <ele>165</ele>
        <time>2013-04-28T14:01:05Z</time>
      </trkpt>
      <trkpt lat="47.51066" lon="3.75064">
        <ele>163.56</ele>
        <time>2013-04-28T14:01:17Z</time>
      </trkpt>
      <trkpt lat="47.51059" lon="3.75082">
        <ele>162.6</ele>
        <time>2013-04-28T14:01:27Z</time>
      </trkpt>
      <trkpt lat="47.51054" lon="3.75097">
        <ele>162.12</ele>
        <time>2013-04-28T14:01:36Z</time>
      </trkpt>
      <trkpt lat="47.51046" lon="3.75113">
        <ele>161.16</ele>
        <time>2013-04-28T14:01:46Z</time>
      </trkpt>
      <trkpt lat="47.51038" lon="3.75131">
        <ele>161.16</ele>
        <time>2013-04-28T14:01:57Z</time>
      </trkpt>
      <trkpt lat="47.51035" lon="3.75138">
        <ele>160.2</ele>
        <time>2013-04-28T14:02:01Z</time>
      </trkpt>
      <trkpt lat="47.51027" lon="3.75156">
        <ele>160.2</ele>
        <time>2013-04-28T14:02:10Z</time>
      </trkpt>
      <trkpt lat="47.51018" lon="3.75168">
        <ele>160.2</ele>
        <time>2013-04-28T14:02:19Z</time>
      </trkpt>
      <trkpt lat="47.51005" lon="3.75183">
        <ele>160.2</ele>
        <time>2013-04-28T14:02:30Z</time>
      </trkpt>
      <trkpt lat="47.50996" lon="3.75193">
        <ele>159.24</ele>
        <time>2013-04-28T14:02:39Z</time>
      </trkpt>
      <trkpt lat="47.50983" lon="3.7519">
        <ele>158.75</ele>
        <time>2013-04-28T14:02:49Z</time>
      </trkpt>
      <trkpt lat="47.50969" lon="3.75183">
        <ele>158.27</ele>
        <time>2013-04-28T14:03:00Z</time>
      </trkpt>
      <trkpt lat="47.50964" lon="3.75182">
        <ele>156.83</ele>
        <time>2013-04-28T14:03:03Z</time>
      </trkpt>
      <trkpt lat="47.50958" lon="3.75181">
        <ele>158.27</ele>
        <time>2013-04-28T14:03:08Z</time>
      </trkpt>
      <trkpt lat="47.50941" lon="3.75177">
        <ele>157.79</ele>
        <time>2013-04-28T14:03:19Z</time>
      </trkpt>
      <trkpt lat="47.50924" lon="3.75175">
        <ele>157.79</ele>
        <time>2013-04-28T14:03:31Z</time>
      </trkpt>
      <trkpt lat="47.50909" lon="3.75173">
        <ele>155.39</ele>
        <time>2013-04-28T14:03:43Z</time>
      </trkpt>
      <trkpt lat="47.50907" lon="3.75173">
        <ele>157.79</ele>
        <time>2013-04-28T14:03:46Z</time>
      </trkpt>
      <trkpt lat="47.50905" lon="3.75177">
        <ele>157.79</ele>
        <time>2013-04-28T14:03:58Z</time>
      </trkpt>
      <trkpt lat="47.50907" lon="3.75173">
        <ele>157.31</ele>
        <time>2013-04-28T14:04:06Z</time>
      </trkpt>
      <trkpt lat="47.50911" lon="3.75168">
        <ele>157.31</ele>
        <time>2013-04-28T14:04:16Z</time>
      </trkpt>
      <trkpt lat="47.50909" lon="3.75169">
        <ele>157.79</ele>
        <time>2013-04-28T14:04:28Z</time>
      </trkpt>
      <trkpt lat="47.50912" lon="3.75173">
        <ele>157.31</ele>
        <time>2013-04-28T14:04:44Z</time>
      </trkpt>
      <trkpt lat="47.50907" lon="3.75175">
        <ele>157.79</ele>
        <time>2013-04-28T14:04:54Z</time>
      </trkpt>
      <trkpt lat="47.50906" lon="3.75171">
        <ele>158.27</ele>
        <time>2013-04-28T14:05:04Z</time>
      </trkpt>
      <trkpt lat="47.50902" lon="3.75171">
        <ele>157.79</ele>
        <time>2013-04-28T14:05:13Z</time>
      </trkpt>
      <trkpt lat="47.509" lon="3.75176">
        <ele>157.79</ele>
        <time>2013-04-28T14:05:16Z</time>
      </trkpt>
      <trkpt lat="47.50895" lon="3.75181">
        <ele>157.31</ele>
        <time>2013-04-28T14:05:21Z</time>
      </trkpt>
      <trkpt lat="47.50889" lon="3.75184">
        <ele>157.79</ele>
        <time>2013-04-28T14:05:26Z</time>
      </trkpt>
      <trkpt lat="47.50875" lon="3.75205">
        <ele>157.79</ele>
        <time>2013-04-28T14:05:40Z</time>
      </trkpt>
      <trkpt lat="47.50866" lon="3.75218">
        <ele>156.83</ele>
        <time>2013-04-28T14:05:49Z</time>
      </trkpt>
      <trkpt lat="47.50857" lon="3.75231">
        <ele>156.83</ele>
        <time>2013-04-28T14:05:58Z</time>
      </trkpt>
      <trkpt lat="47.50846" lon="3.75243">
        <ele>156.83</ele>
        <time>2013-04-28T14:06:08Z</time>
      </trkpt>
      <trkpt lat="47.50836" lon="3.75258">
        <ele>156.35</ele>
        <time>2013-04-28T14:06:19Z</time>
      </trkpt>
      <trkpt lat="47.50824" lon="3.75276">
        <ele>156.35</ele>
        <time>2013-04-28T14:06:30Z</time>
      </trkpt>
      <trkpt lat="47.50819" lon="3.75285">
        <ele>156.35</ele>
        <time>2013-04-28T14:06:35Z</time>
      </trkpt>
      <trkpt lat="47.50808" lon="3.75298">
        <ele>156.83</ele>
        <time>2013-04-28T14:06:45Z</time>
      </trkpt>
      <trkpt lat="47.50798" lon="3.75307">
        <ele>156.83</ele>
        <time>2013-04-28T14:06:54Z</time>
      </trkpt>
      <trkpt lat="47.5079" lon="3.75306">
        <ele>157.79</ele>
        <time>2013-04-28T14:07:03Z</time>
      </trkpt>
      <trkpt lat="47.50782" lon="3.75304">
        <ele>159.72</ele>
        <time>2013-04-28T14:07:11Z</time>
      </trkpt>
      <trkpt lat="47.50774" lon="3.75305">
        <ele>161.16</ele>
        <time>2013-04-28T14:07:18Z</time>
      </trkpt>
      <trkpt lat="47.5076" lon="3.75309">
        <ele>162.6</ele>
        <time>2013-04-28T14:07:27Z</time>
      </trkpt>
      <trkpt lat="47.50748" lon="3.7531">
        <ele>164.04</ele>
        <time>2013-04-28T14:07:36Z</time>
      </trkpt>
      <trkpt lat="47.50741" lon="3.75309">
        <ele>165.48</ele>
        <time>2013-04-28T14:07:43Z</time>
      </trkpt>
      <trkpt lat="47.50733" lon="3.75307">
        <ele>165.96</ele>
        <time>2013-04-28T14:07:50Z</time>
      </trkpt>
      <trkpt lat="47.50726" lon="3.75307">
        <ele>166.93</ele>
        <time>2013-04-28T14:07:57Z</time>
      </trkpt>
      <trkpt lat="47.50716" lon="3.75306">
        <ele>168.37</ele>
        <time>2013-04-28T14:08:05Z</time>
      </trkpt>
      <trkpt lat="47.50704" lon="3.75301">
        <ele>168.85</ele>
        <time>2013-04-28T14:08:14Z</time>
      </trkpt>
      <trkpt lat="47.50692" lon="3.75299">
        <ele>169.81</ele>
        <time>2013-04-28T14:08:23Z</time>
      </trkpt>
      <trkpt lat="47.50681" lon="3.75293">
        <ele>170.77</ele>
        <time>2013-04-28T14:08:32Z</time>
      </trkpt>
      <trkpt lat="47.50672" lon="3.75286">
        <ele>171.25</ele>
        <time>2013-04-28T14:08:40Z</time>
      </trkpt>
      <trkpt lat="47.50662" lon="3.75277">
        <ele>171.25</ele>
        <time>2013-04-28T14:08:49Z</time>
      </trkpt>
      <trkpt lat="47.50652" lon="3.75271">
        <ele>170.77</ele>
        <time>2013-04-28T14:08:58Z</time>
      </trkpt>
      <trkpt lat="47.50641" lon="3.75263">
        <ele>170.29</ele>
        <time>2013-04-28T14:09:08Z</time>
      </trkpt>
      <trkpt lat="47.50628" lon="3.75255">
        <ele>168.85</ele>
        <time>2013-04-28T14:09:19Z</time>
      </trkpt>
      <trkpt lat="47.50626" lon="3.75253">
        <ele>169.33</ele>
        <time>2013-04-28T14:09:21Z</time>
      </trkpt>
      <trkpt lat="47.50612" lon="3.75245">
        <ele>167.89</ele>
        <time>2013-04-28T14:09:31Z</time>
      </trkpt>
      <trkpt lat="47.50602" lon="3.75241">
        <ele>167.41</ele>
        <time>2013-04-28T14:09:40Z</time>
      </trkpt>
      <trkpt lat="47.50587" lon="3.75233">
        <ele>166.93</ele>
        <time>2013-04-28T14:09:50Z</time>
      </trkpt>
      <trkpt lat="47.50577" lon="3.75231">
        <ele>167.41</ele>
        <time>2013-04-28T14:09:56Z</time>
      </trkpt>
      <trkpt lat="47.50562" lon="3.75228">
        <ele>167.41</ele>
        <time>2013-04-28T14:10:05Z</time>
      </trkpt>
      <trkpt lat="47.50551" lon="3.75225">
        <ele>167.89</ele>
        <time>2013-04-28T14:10:13Z</time>
      </trkpt>
      <trkpt lat="47.50533" lon="3.75223">
        <ele>167.89</ele>
        <time>2013-04-28T14:10:23Z</time>
      </trkpt>
      <trkpt lat="47.50517" lon="3.7522">
        <ele>167.89</ele>
        <time>2013-04-28T14:10:34Z</time>
      </trkpt>
      <trkpt lat="47.50503" lon="3.75219">
        <ele>168.37</ele>
        <time>2013-04-28T14:10:45Z</time>
      </trkpt>
      <trkpt lat="47.50493" lon="3.75218">
        <ele>169.33</ele>
        <time>2013-04-28T14:10:53Z</time>
      </trkpt>
      <trkpt lat="47.50479" lon="3.7522">
        <ele>169.81</ele>
        <time>2013-04-28T14:11:01Z</time>
      </trkpt>
      <trkpt lat="47.50467" lon="3.75221">
        <ele>170.29</ele>
        <time>2013-04-28T14:11:10Z</time>
      </trkpt>
      <trkpt lat="47.50456" lon="3.75217">
        <ele>171.25</ele>
        <time>2013-04-28T14:11:18Z</time>
      </trkpt>
      <trkpt lat="47.50445" lon="3.75213">
        <ele>171.73</ele>
        <time>2013-04-28T14:11:26Z</time>
      </trkpt>
      <trkpt lat="47.50435" lon="3.7521">
        <ele>172.69</ele>
        <time>2013-04-28T14:11:34Z</time>
      </trkpt>
      <trkpt lat="47.50425" lon="3.75205">
        <ele>173.66</ele>
        <time>2013-04-28T14:11:42Z</time>
      </trkpt>
      <trkpt lat="47.5041" lon="3.75195">
        <ele>174.62</ele>
        <time>2013-04-28T14:11:52Z</time>
      </trkpt>
      <trkpt lat="47.50401" lon="3.7519">
        <ele>175.58</ele>
        <time>2013-04-28T14:12:00Z</time>
      </trkpt>
      <trkpt lat="47.50397" lon="3.75189">
        <ele>176.54</ele>
        <time>2013-04-28T14:12:06Z</time>
      </trkpt>
      <trkpt lat="47.50394" lon="3.75186">
        <ele>177.02</ele>
        <time>2013-04-28T14:12:09Z</time>
      </trkpt>
      <trkpt lat="47.50379" lon="3.7517">
        <ele>178.46</ele>
        <time>2013-04-28T14:12:18Z</time>
      </trkpt>
      <trkpt lat="47.50374" lon="3.7517">
        <ele>179.9</ele>
        <time>2013-04-28T14:12:25Z</time>
      </trkpt>
      <trkpt lat="47.50367" lon="3.75168">
        <ele>180.87</ele>
        <time>2013-04-28T14:12:33Z</time>
      </trkpt>
      <trkpt lat="47.50356" lon="3.75165">
        <ele>181.83</ele>
        <time>2013-04-28T14:12:42Z</time>
      </trkpt>
      <trkpt lat="47.50347" lon="3.75159">
        <ele>183.75</ele>
        <time>2013-04-28T14:12:50Z</time>
      </trkpt>
      <trkpt lat="47.50337" lon="3.75154">
        <ele>184.71</ele>
        <time>2013-04-28T14:12:58Z</time>
      </trkpt>
      <trkpt lat="47.50332" lon="3.75149">
        <ele>185.67</ele>
        <time>2013-04-28T14:13:05Z</time>
      </trkpt>
      <trkpt lat="47.50323" lon="3.75144">
        <ele>187.11</ele>
        <time>2013-04-28T14:13:13Z</time>
      </trkpt>
      <trkpt lat="47.50308" lon="3.75139">
        <ele>188.56</ele>
        <time>2013-04-28T14:13:24Z</time>
      </trkpt>
      <trkpt lat="47.50297" lon="3.75132">
        <ele>189.52</ele>
        <time>2013-04-28T14:13:32Z</time>
      </trkpt>
      <trkpt lat="47.50288" lon="3.75126">
        <ele>190.96</ele>
        <time>2013-04-28T14:13:41Z</time>
      </trkpt>
      <trkpt lat="47.50279" lon="3.75121">
        <ele>192.88</ele>
        <time>2013-04-28T14:13:52Z</time>
      </trkpt>
      <trkpt lat="47.50268" lon="3.75117">
        <ele>194.32</ele>
        <time>2013-04-28T14:14:02Z</time>
      </trkpt>
      <trkpt lat="47.50257" lon="3.75108">
        <ele>196.73</ele>
        <time>2013-04-28T14:14:12Z</time>
      </trkpt>
      <trkpt lat="47.50249" lon="3.75103">
        <ele>198.17</ele>
        <time>2013-04-28T14:14:21Z</time>
      </trkpt>
      <trkpt lat="47.50239" lon="3.75102">
        <ele>200.57</ele>
        <time>2013-04-28T14:14:31Z</time>
      </trkpt>
      <trkpt lat="47.50233" lon="3.75107">
        <ele>201.53</ele>
        <time>2013-04-28T14:14:38Z</time>
      </trkpt>
      <trkpt lat="47.50227" lon="3.75122">
        <ele>203.94</ele>
        <time>2013-04-28T14:14:48Z</time>
      </trkpt>
      <trkpt lat="47.5022" lon="3.75133">
        <ele>204.42</ele>
        <time>2013-04-28T14:14:57Z</time>
      </trkpt>
      <trkpt lat="47.50213" lon="3.75141">
        <ele>205.86</ele>
        <time>2013-04-28T14:15:05Z</time>
      </trkpt>
      <trkpt lat="47.50204" lon="3.75152">
        <ele>206.82</ele>
        <time>2013-04-28T14:15:15Z</time>
      </trkpt>
      <trkpt lat="47.50191" lon="3.7516">
        <ele>208.26</ele>
        <time>2013-04-28T14:15:25Z</time>
      </trkpt>
      <trkpt lat="47.5018" lon="3.75167">
        <ele>208.74</ele>
        <time>2013-04-28T14:15:34Z</time>
      </trkpt>
      <trkpt lat="47.50179" lon="3.75167">
        <ele>208.74</ele>
        <time>2013-04-28T14:15:35Z</time>
      </trkpt>
      <trkpt lat="47.50168" lon="3.75175">
        <ele>210.19</ele>
        <time>2013-04-28T14:15:44Z</time>
      </trkpt>
      <trkpt lat="47.50157" lon="3.75181">
        <ele>210.19</ele>
        <time>2013-04-28T14:15:52Z</time>
      </trkpt>
      <trkpt lat="47.50147" lon="3.75185">
        <ele>210.67</ele>
        <time>2013-04-28T14:16:00Z</time>
      </trkpt>
      <trkpt lat="47.50133" lon="3.75191">
        <ele>211.15</ele>
        <time>2013-04-28T14:16:10Z</time>
      </trkpt>
      <trkpt lat="47.50122" lon="3.75196">
        <ele>211.15</ele>
        <time>2013-04-28T14:16:19Z</time>
      </trkpt>
      <trkpt lat="47.50111" lon="3.75203">
        <ele>211.15</ele>
        <time>2013-04-28T14:16:28Z</time>
      </trkpt>
      <trkpt lat="47.501" lon="3.75208">
        <ele>211.63</ele>
        <time>2013-04-28T14:16:36Z</time>
      </trkpt>
      <trkpt lat="47.50087" lon="3.75214">
        <ele>211.15</ele>
        <time>2013-04-28T14:16:46Z</time>
      </trkpt>
      <trkpt lat="47.50072" lon="3.7522">
        <ele>211.63</ele>
        <time>2013-04-28T14:16:57Z</time>
      </trkpt>
      <trkpt lat="47.50059" lon="3.75227">
        <ele>211.63</ele>
        <time>2013-04-28T14:17:07Z</time>
      </trkpt>
      <trkpt lat="47.50054" lon="3.75229">
        <ele>211.63</ele>
        <time>2013-04-28T14:17:11Z</time>
      </trkpt>
      <trkpt lat="47.5005" lon="3.75232">
        <ele>211.63</ele>
        <time>2013-04-28T14:17:14Z</time>
      </trkpt>
      <trkpt lat="47.50045" lon="3.75235">
        <ele>211.63</ele>
        <time>2013-04-28T14:17:18Z</time>
      </trkpt>
      <trkpt lat="47.50034" lon="3.7524">
        <ele>211.63</ele>
        <time>2013-04-28T14:17:27Z</time>
      </trkpt>
      <trkpt lat="47.50019" lon="3.75246">
        <ele>211.15</ele>
        <time>2013-04-28T14:17:38Z</time>
      </trkpt>
      <trkpt lat="47.50005" lon="3.7525">
        <ele>211.63</ele>
        <time>2013-04-28T14:17:48Z</time>
      </trkpt>
      <trkpt lat="47.49991" lon="3.75251">
        <ele>211.15</ele>
        <time>2013-04-28T14:17:58Z</time>
      </trkpt>
      <trkpt lat="47.4998" lon="3.75251">
        <ele>210.67</ele>
        <time>2013-04-28T14:18:06Z</time>
      </trkpt>
      <trkpt lat="47.49972" lon="3.75252">
        <ele>211.15</ele>
        <time>2013-04-28T14:18:13Z</time>
      </trkpt>
      <trkpt lat="47.49956" lon="3.75252">
        <ele>211.63</ele>
        <time>2013-04-28T14:18:24Z</time>
      </trkpt>
      <trkpt lat="47.49943" lon="3.75255">
        <ele>211.63</ele>
        <time>2013-04-28T14:18:34Z</time>
      </trkpt>
      <trkpt lat="47.4993" lon="3.75253">
        <ele>212.11</ele>
        <time>2013-04-28T14:18:44Z</time>
      </trkpt>
      <trkpt lat="47.49915" lon="3.75254">
        <ele>212.59</ele>
        <time>2013-04-28T14:18:55Z</time>
      </trkpt>
      <trkpt lat="47.49901" lon="3.75253">
        <ele>212.59</ele>
        <time>2013-04-28T14:19:05Z</time>
      </trkpt>
      <trkpt lat="47.49887" lon="3.75253">
        <ele>213.07</ele>
        <time>2013-04-28T14:19:15Z</time>
      </trkpt>
      <trkpt lat="47.49876" lon="3.75254">
        <ele>213.55</ele>
        <time>2013-04-28T14:19:24Z</time>
      </trkpt>
      <trkpt lat="47.49864" lon="3.75253">
        <ele>214.99</ele>
        <time>2013-04-28T14:19:33Z</time>
      </trkpt>
      <trkpt lat="47.49853" lon="3.75251">
        <ele>214.51</ele>
        <time>2013-04-28T14:19:41Z</time>
      </trkpt>
      <trkpt lat="47.49839" lon="3.7525">
        <ele>215.47</ele>
        <time>2013-04-28T14:19:52Z</time>
      </trkpt>
      <trkpt lat="47.49826" lon="3.75246">
        <ele>215.95</ele>
        <time>2013-04-28T14:20:02Z</time>
      </trkpt>
      <trkpt lat="47.49812" lon="3.75243">
        <ele>216.43</ele>
        <time>2013-04-28T14:20:12Z</time>
      </trkpt>
      <trkpt lat="47.49801" lon="3.7524">
        <ele>217.4</ele>
        <time>2013-04-28T14:20:20Z</time>
      </trkpt>
      <trkpt lat="47.4979" lon="3.75235">
        <ele>218.36</ele>
        <time>2013-04-28T14:20:29Z</time>
      </trkpt>
      <trkpt lat="47.49775" lon="3.75231">
        <ele>218.84</ele>
        <time>2013-04-28T14:20:39Z</time>
      </trkpt>
      <trkpt lat="47.49762" lon="3.75229">
        <ele>219.8</ele>
        <time>2013-04-28T14:20:49Z</time>
      </trkpt>
      <trkpt lat="47.49752" lon="3.75229">
        <ele>220.76</ele>
        <time>2013-04-28T14:20:57Z</time>
      </trkpt>
      <trkpt lat="47.4974" lon="3.75229">
        <ele>220.28</ele>
        <time>2013-04-28T14:21:06Z</time>
      </trkpt>
      <trkpt lat="47.49728" lon="3.7523">
        <ele>220.76</ele>
        <time>2013-04-28T14:21:15Z</time>
      </trkpt>
      <trkpt lat="47.49717" lon="3.75231">
        <ele>221.72</ele>
        <time>2013-04-28T14:21:23Z</time>
      </trkpt>
      <trkpt lat="47.49704" lon="3.75231">
        <ele>221.24</ele>
        <time>2013-04-28T14:21:32Z</time>
      </trkpt>
      <trkpt lat="47.49689" lon="3.75232">
        <ele>221.24</ele>
        <time>2013-04-28T14:21:43Z</time>
      </trkpt>
      <trkpt lat="47.49674" lon="3.75232">
        <ele>221.24</ele>
        <time>2013-04-28T14:21:54Z</time>
      </trkpt>
      <trkpt lat="47.4966" lon="3.75233">
        <ele>220.76</ele>
        <time>2013-04-28T14:22:04Z</time>
      </trkpt>
      <trkpt lat="47.49646" lon="3.75233">
        <ele>220.76</ele>
        <time>2013-04-28T14:22:14Z</time>
      </trkpt>
      <trkpt lat="47.49631" lon="3.75232">
        <ele>221.24</ele>
        <time>2013-04-28T14:22:25Z</time>
      </trkpt>
      <trkpt lat="47.49616" lon="3.75228">
        <ele>220.76</ele>
        <time>2013-04-28T14:22:36Z</time>
      </trkpt>
      <trkpt lat="47.49604" lon="3.75223">
        <ele>219.8</ele>
        <time>2013-04-28T14:22:45Z</time>
      </trkpt>
      <trkpt lat="47.49586" lon="3.75218">
        <ele>220.28</ele>
        <time>2013-04-28T14:22:57Z</time>
      </trkpt>
      <trkpt lat="47.4957" lon="3.75217">
        <ele>219.32</ele>
        <time>2013-04-28T14:23:08Z</time>
      </trkpt>
      <trkpt lat="47.49557" lon="3.75217">
        <ele>218.84</ele>
        <time>2013-04-28T14:23:18Z</time>
      </trkpt>
      <trkpt lat="47.49545" lon="3.75214">
        <ele>218.36</ele>
        <time>2013-04-28T14:23:27Z</time>
      </trkpt>
      <trkpt lat="47.49529" lon="3.7521">
        <ele>217.88</ele>
        <time>2013-04-28T14:23:38Z</time>
      </trkpt>
      <trkpt lat="47.49513" lon="3.75203">
        <ele>217.88</ele>
        <time>2013-04-28T14:23:49Z</time>
      </trkpt>
      <trkpt lat="47.49498" lon="3.75195">
        <ele>217.88</ele>
        <time>2013-04-28T14:24:01Z</time>
      </trkpt>
      <trkpt lat="47.49486" lon="3.75188">
        <ele>217.4</ele>
        <time>2013-04-28T14:24:10Z</time>
      </trkpt>
      <trkpt lat="47.49472" lon="3.7518">
        <ele>216.91</ele>
        <time>2013-04-28T14:24:21Z</time>
      </trkpt>
      <trkpt lat="47.49461" lon="3.75173">
        <ele>216.43</ele>
        <time>2013-04-28T14:24:30Z</time>
      </trkpt>
      <trkpt lat="47.49449" lon="3.75166">
        <ele>215.47</ele>
        <time>2013-04-28T14:24:39Z</time>
      </trkpt>
      <trkpt lat="47.49435" lon="3.75156">
        <ele>214.99</ele>
        <time>2013-04-28T14:24:50Z</time>
      </trkpt>
      <trkpt lat="47.49424" lon="3.75149">
        <ele>213.55</ele>
        <time>2013-04-28T14:24:59Z</time>
      </trkpt>
      <trkpt lat="47.49417" lon="3.75145">
        <ele>213.07</ele>
        <time>2013-04-28T14:25:05Z</time>
      </trkpt>
      <trkpt lat="47.49409" lon="3.75142">
        <ele>211.63</ele>
        <time>2013-04-28T14:25:13Z</time>
      </trkpt>
      <trkpt lat="47.49398" lon="3.75143">
        <ele>210.19</ele>
        <time>2013-04-28T14:25:22Z</time>
      </trkpt>
      <trkpt lat="47.49384" lon="3.75138">
        <ele>208.26</ele>
        <time>2013-04-28T14:25:33Z</time>
      </trkpt>
      <trkpt lat="47.49369" lon="3.75132">
        <ele>206.34</ele>
        <time>2013-04-28T14:25:44Z</time>
      </trkpt>
      <trkpt lat="47.49356" lon="3.75127">
        <ele>203.94</ele>
        <time>2013-04-28T14:25:53Z</time>
      </trkpt>
      <trkpt lat="47.49347" lon="3.75125">
        <ele>202.49</ele>
        <time>2013-04-28T14:26:02Z</time>
      </trkpt>
      <trkpt lat="47.49334" lon="3.75124">
        <ele>200.57</ele>
        <time>2013-04-28T14:26:11Z</time>
      </trkpt>
      <trkpt lat="47.4932" lon="3.75124">
        <ele>199.61</ele>
        <time>2013-04-28T14:26:20Z</time>
      </trkpt>
      <trkpt lat="47.49312" lon="3.75124">
        <ele>197.21</ele>
        <time>2013-04-28T14:26:28Z</time>
      </trkpt>
      <trkpt lat="47.4931" lon="3.75123">
        <ele>191.92</ele>
        <time>2013-04-28T14:26:29Z</time>
      </trkpt>
      <trkpt lat="47.49309" lon="3.75123">
        <ele>199.61</ele>
        <time>2013-04-28T14:26:30Z</time>
      </trkpt>
      <trkpt lat="47.49308" lon="3.75123">
        <ele>198.65</ele>
        <time>2013-04-28T14:26:31Z</time>
      </trkpt>
      <trkpt lat="47.49296" lon="3.75121">
        <ele>196.25</ele>
        <time>2013-04-28T14:26:39Z</time>
      </trkpt>
      <trkpt lat="47.49282" lon="3.75122">
        <ele>194.32</ele>
        <time>2013-04-28T14:26:48Z</time>
      </trkpt>
      <trkpt lat="47.4927" lon="3.75119">
        <ele>192.88</ele>
        <time>2013-04-28T14:26:58Z</time>
      </trkpt>
      <trkpt lat="47.49257" lon="3.75117">
        <ele>191.92</ele>
        <time>2013-04-28T14:27:08Z</time>
      </trkpt>
      <trkpt lat="47.49242" lon="3.75111">
        <ele>190.48</ele>
        <time>2013-04-28T14:27:19Z</time>
      </trkpt>
      <trkpt lat="47.49231" lon="3.75108">
        <ele>189.52</ele>
        <time>2013-04-28T14:27:28Z</time>
      </trkpt>
      <trkpt lat="47.49219" lon="3.75105">
        <ele>188.56</ele>
        <time>2013-04-28T14:27:37Z</time>
      </trkpt>
      <trkpt lat="47.49205" lon="3.75098">
        <ele>186.63</ele>
        <time>2013-04-28T14:27:48Z</time>
      </trkpt>
      <trkpt lat="47.49191" lon="3.75091">
        <ele>185.19</ele>
        <time>2013-04-28T14:27:58Z</time>
      </trkpt>
      <trkpt lat="47.49177" lon="3.75087">
        <ele>184.23</ele>
        <time>2013-04-28T14:28:08Z</time>
      </trkpt>
      <trkpt lat="47.49163" lon="3.75085">
        <ele>183.27</ele>
        <time>2013-04-28T14:28:18Z</time>
      </trkpt>
      <trkpt lat="47.49149" lon="3.75082">
        <ele>182.79</ele>
        <time>2013-04-28T14:28:28Z</time>
      </trkpt>
      <trkpt lat="47.49133" lon="3.75077">
        <ele>181.83</ele>
        <time>2013-04-28T14:28:38Z</time>
      </trkpt>
      <trkpt lat="47.49117" lon="3.75073">
        <ele>180.38</ele>
        <time>2013-04-28T14:28:49Z</time>
      </trkpt>
      <trkpt lat="47.49101" lon="3.75067">
        <ele>179.42</ele>
        <time>2013-04-28T14:29:01Z</time>
      </trkpt>
      <trkpt lat="47.49088" lon="3.7506">
        <ele>178.46</ele>
        <time>2013-04-28T14:29:11Z</time>
      </trkpt>
      <trkpt lat="47.49075" lon="3.75057">
        <ele>177.98</ele>
        <time>2013-04-28T14:29:21Z</time>
      </trkpt>
      <trkpt lat="47.49059" lon="3.75052">
        <ele>177.02</ele>
        <time>2013-04-28T14:29:32Z</time>
      </trkpt>
      <trkpt lat="47.49045" lon="3.75051">
        <ele>175.58</ele>
        <time>2013-04-28T14:29:42Z</time>
      </trkpt>
      <trkpt lat="47.49033" lon="3.75046">
        <ele>175.58</ele>
        <time>2013-04-28T14:29:50Z</time>
      </trkpt>
      <trkpt lat="47.49021" lon="3.75044">
        <ele>174.62</ele>
        <time>2013-04-28T14:29:59Z</time>
      </trkpt>
      <trkpt lat="47.49006" lon="3.7504">
        <ele>173.17</ele>
        <time>2013-04-28T14:30:10Z</time>
      </trkpt>
      <trkpt lat="47.48991" lon="3.75036">
        <ele>173.17</ele>
        <time>2013-04-28T14:30:21Z</time>
      </trkpt>
      <trkpt lat="47.48975" lon="3.7503">
        <ele>172.21</ele>
        <time>2013-04-28T14:30:32Z</time>
      </trkpt>
      <trkpt lat="47.48961" lon="3.75028">
        <ele>172.21</ele>
        <time>2013-04-28T14:30:42Z</time>
      </trkpt>
      <trkpt lat="47.48947" lon="3.75023">
        <ele>171.25</ele>
        <time>2013-04-28T14:30:52Z</time>
      </trkpt>
      <trkpt lat="47.48936" lon="3.75019">
        <ele>170.77</ele>
        <time>2013-04-28T14:31:00Z</time>
      </trkpt>
      <trkpt lat="47.48923" lon="3.75015">
        <ele>170.77</ele>
        <time>2013-04-28T14:31:10Z</time>
      </trkpt>
      <trkpt lat="47.48911" lon="3.75009">
        <ele>170.29</ele>
        <time>2013-04-28T14:31:19Z</time>
      </trkpt>
      <trkpt lat="47.489" lon="3.75004">
        <ele>169.81</ele>
        <time>2013-04-28T14:31:27Z</time>
      </trkpt>
      <trkpt lat="47.48886" lon="3.74999">
        <ele>169.33</ele>
        <time>2013-04-28T14:31:38Z</time>
      </trkpt>
      <trkpt lat="47.48874" lon="3.74993">
        <ele>168.85</ele>
        <time>2013-04-28T14:31:47Z</time>
      </trkpt>
      <trkpt lat="47.4886" lon="3.74988">
        <ele>168.85</ele>
        <time>2013-04-28T14:31:57Z</time>
      </trkpt>
      <trkpt lat="47.48846" lon="3.74983">
        <ele>168.37</ele>
        <time>2013-04-28T14:32:07Z</time>
      </trkpt>
      <trkpt lat="47.48833" lon="3.74976">
        <ele>168.37</ele>
        <time>2013-04-28T14:32:17Z</time>
      </trkpt>
      <trkpt lat="47.48816" lon="3.74972">
        <ele>167.89</ele>
        <time>2013-04-28T14:32:29Z</time>
      </trkpt>
      <trkpt lat="47.48801" lon="3.7497">
        <ele>167.41</ele>
        <time>2013-04-28T14:32:40Z</time>
      </trkpt>
      <trkpt lat="47.48788" lon="3.74969">
        <ele>166.93</ele>
        <time>2013-04-28T14:32:50Z</time>
      </trkpt>
      <trkpt lat="47.48773" lon="3.7497">
        <ele>165.96</ele>
        <time>2013-04-28T14:33:01Z</time>
      </trkpt>
      <trkpt lat="47.48759" lon="3.74968">
        <ele>165.48</ele>
        <time>2013-04-28T14:33:11Z</time>
      </trkpt>
      <trkpt lat="47.48744" lon="3.74966">
        <ele>165</ele>
        <time>2013-04-28T14:33:21Z</time>
      </trkpt>
      <trkpt lat="47.48732" lon="3.74966">
        <ele>163.56</ele>
        <time>2013-04-28T14:33:31Z</time>
      </trkpt>
      <trkpt lat="47.48719" lon="3.74964">
        <ele>162.6</ele>
        <time>2013-04-28T14:33:41Z</time>
      </trkpt>
      <trkpt lat="47.48709" lon="3.7496">
        <ele>161.64</ele>
        <time>2013-04-28T14:33:49Z</time>
      </trkpt>
      <trkpt lat="47.48713" lon="3.74945">
        <ele>161.16</ele>
        <time>2013-04-28T14:33:57Z</time>
      </trkpt>
      <trkpt lat="47.4872" lon="3.74925">
        <ele>161.64</ele>
        <time>2013-04-28T14:34:08Z</time>
      </trkpt>
      <trkpt lat="47.4873" lon="3.74899">
        <ele>161.64</ele>
        <time>2013-04-28T14:34:22Z</time>
      </trkpt>
      <trkpt lat="47.48728" lon="3.74879">
        <ele>160.68</ele>
        <time>2013-04-28T14:34:31Z</time>
      </trkpt>
      <trkpt lat="47.48725" lon="3.74873">
        <ele>160.68</ele>
        <time>2013-04-28T14:34:35Z</time>
      </trkpt>
      <trkpt lat="47.48707" lon="3.74873">
        <ele>160.2</ele>
        <time>2013-04-28T14:34:47Z</time>
      </trkpt>
      <trkpt lat="47.48692" lon="3.74881">
        <ele>159.72</ele>
        <time>2013-04-28T14:34:58Z</time>
      </trkpt>
      <trkpt lat="47.48674" lon="3.74888">
        <ele>159.72</ele>
        <time>2013-04-28T14:35:10Z</time>
      </trkpt>
      <trkpt lat="47.48657" lon="3.74897">
        <ele>159.24</ele>
        <time>2013-04-28T14:35:22Z</time>
      </trkpt>
      <trkpt lat="47.48641" lon="3.74902">
        <ele>159.72</ele>
        <time>2013-04-28T14:35:34Z</time>
      </trkpt>
      <trkpt lat="47.48627" lon="3.74908">
        <ele>158.75</ele>
        <time>2013-04-28T14:35:44Z</time>
      </trkpt>
      <trkpt lat="47.48612" lon="3.74915">
        <ele>158.75</ele>
        <time>2013-04-28T14:35:55Z</time>
      </trkpt>
      <trkpt lat="47.486" lon="3.74925">
        <ele>159.24</ele>
        <time>2013-04-28T14:36:06Z</time>
      </trkpt>
      <trkpt lat="47.48592" lon="3.74938">
        <ele>159.24</ele>
        <time>2013-04-28T14:36:14Z</time>
      </trkpt>
      <trkpt lat="47.48584" lon="3.74953">
        <ele>159.24</ele>
        <time>2013-04-28T14:36:23Z</time>
      </trkpt>
      <trkpt lat="47.48576" lon="3.74966">
        <ele>159.24</ele>
        <time>2013-04-28T14:36:32Z</time>
      </trkpt>
      <trkpt lat="47.48566" lon="3.74983">
        <ele>159.72</ele>
        <time>2013-04-28T14:36:43Z</time>
      </trkpt>
      <trkpt lat="47.48559" lon="3.74992">
        <ele>160.2</ele>
        <time>2013-04-28T14:36:50Z</time>
      </trkpt>
      <trkpt lat="47.48549" lon="3.75002">
        <ele>160.2</ele>
        <time>2013-04-28T14:36:59Z</time>
      </trkpt>
      <trkpt lat="47.48536" lon="3.75009">
        <ele>161.16</ele>
        <time>2013-04-28T14:37:09Z</time>
      </trkpt>
      <trkpt lat="47.48523" lon="3.75014">
        <ele>161.64</ele>
        <time>2013-04-28T14:37:18Z</time>
      </trkpt>
      <trkpt lat="47.4851" lon="3.75018">
        <ele>162.12</ele>
        <time>2013-04-28T14:37:27Z</time>
      </trkpt>
      <trkpt lat="47.48496" lon="3.75022">
        <ele>162.12</ele>
        <time>2013-04-28T14:37:38Z</time>
      </trkpt>
      <trkpt lat="47.48495" lon="3.75023">
        <ele>162.12</ele>
        <time>2013-04-28T14:37:39Z</time>
      </trkpt>
      <trkpt lat="47.48478" lon="3.75024">
        <ele>162.12</ele>
        <time>2013-04-28T14:37:51Z</time>
      </trkpt>
      <trkpt lat="47.48462" lon="3.75027">
        <ele>162.6</ele>
        <time>2013-04-28T14:38:02Z</time>
      </trkpt>
      <trkpt lat="47.4845" lon="3.75031">
        <ele>163.56</ele>
        <time>2013-04-28T14:38:11Z</time>
      </trkpt>
      <trkpt lat="47.48438" lon="3.75039">
        <ele>163.08</ele>
        <time>2013-04-28T14:38:21Z</time>
      </trkpt>
      <trkpt lat="47.48421" lon="3.75047">
        <ele>163.56</ele>
        <time>2013-04-28T14:38:33Z</time>
      </trkpt>
      <trkpt lat="47.48407" lon="3.75055">
        <ele>163.56</ele>
        <time>2013-04-28T14:38:44Z</time>
      </trkpt>
      <trkpt lat="47.48394" lon="3.75061">
        <ele>164.04</ele>
        <time>2013-04-28T14:38:54Z</time>
      </trkpt>
      <trkpt lat="47.48381" lon="3.75065">
        <ele>165.48</ele>
        <time>2013-04-28T14:39:04Z</time>
      </trkpt>
      <trkpt lat="47.48371" lon="3.75068">
        <ele>166.45</ele>
        <time>2013-04-28T14:39:11Z</time>
      </trkpt>
      <trkpt lat="47.48357" lon="3.75073">
        <ele>168.37</ele>
        <time>2013-04-28T14:39:22Z</time>
      </trkpt>
      <trkpt lat="47.48345" lon="3.75078">
        <ele>169.33</ele>
        <time>2013-04-28T14:39:32Z</time>
      </trkpt>
      <trkpt lat="47.48331" lon="3.75082">
        <ele>170.77</ele>
        <time>2013-04-28T14:39:42Z</time>
      </trkpt>
      <trkpt lat="47.4832" lon="3.75084">
        <ele>171.25</ele>
        <time>2013-04-28T14:39:51Z</time>
      </trkpt>
      <trkpt lat="47.48307" lon="3.7508">
        <ele>170.77</ele>
        <time>2013-04-28T14:40:00Z</time>
      </trkpt>
      <trkpt lat="47.48293" lon="3.7508">
        <ele>171.25</ele>
        <time>2013-04-28T14:40:10Z</time>
      </trkpt>
      <trkpt lat="47.48277" lon="3.75075">
        <ele>169.81</ele>
        <time>2013-04-28T14:40:22Z</time>
      </trkpt>
      <trkpt lat="47.48263" lon="3.75072">
        <ele>168.37</ele>
        <time>2013-04-28T14:40:32Z</time>
      </trkpt>
      <trkpt lat="47.48245" lon="3.75069">
        <ele>167.41</ele>
        <time>2013-04-28T14:40:44Z</time>
      </trkpt>
      <trkpt lat="47.48228" lon="3.7507">
        <ele>165.96</ele>
        <time>2013-04-28T14:40:56Z</time>
      </trkpt>
      <trkpt lat="47.48212" lon="3.75069">
        <ele>165</ele>
        <time>2013-04-28T14:41:08Z</time>
      </trkpt>
      <trkpt lat="47.48198" lon="3.75068">
        <ele>164.52</ele>
        <time>2013-04-28T14:41:18Z</time>
      </trkpt>
      <trkpt lat="47.48187" lon="3.75065">
        <ele>164.52</ele>
        <time>2013-04-28T14:41:26Z</time>
      </trkpt>
      <trkpt lat="47.4817" lon="3.75063">
        <ele>164.52</ele>
        <time>2013-04-28T14:41:37Z</time>
      </trkpt>
      <trkpt lat="47.48156" lon="3.75061">
        <ele>164.52</ele>
        <time>2013-04-28T14:41:47Z</time>
      </trkpt>
      <trkpt lat="47.48141" lon="3.75059">
        <ele>164.52</ele>
        <time>2013-04-28T14:41:57Z</time>
      </trkpt>
      <trkpt lat="47.48124" lon="3.75058">
        <ele>164.52</ele>
        <time>2013-04-28T14:42:09Z</time>
      </trkpt>
      <trkpt lat="47.4811" lon="3.75059">
        <ele>165</ele>
        <time>2013-04-28T14:42:19Z</time>
      </trkpt>
      <trkpt lat="47.48096" lon="3.7506">
        <ele>165.96</ele>
        <time>2013-04-28T14:42:30Z</time>
      </trkpt>
      <trkpt lat="47.48082" lon="3.75062">
        <ele>166.45</ele>
        <time>2013-04-28T14:42:39Z</time>
      </trkpt>
      <trkpt lat="47.48069" lon="3.75063">
        <ele>166.45</ele>
        <time>2013-04-28T14:42:49Z</time>
      </trkpt>
      <trkpt lat="47.48057" lon="3.75063">
        <ele>166.93</ele>
        <time>2013-04-28T14:42:58Z</time>
      </trkpt>
      <trkpt lat="47.48045" lon="3.75059">
        <ele>167.89</ele>
        <time>2013-04-28T14:43:08Z</time>
      </trkpt>
      <trkpt lat="47.48031" lon="3.75053">
        <ele>167.89</ele>
        <time>2013-04-28T14:43:18Z</time>
      </trkpt>
      <trkpt lat="47.48017" lon="3.75048">
        <ele>167.89</ele>
        <time>2013-04-28T14:43:27Z</time>
      </trkpt>
      <trkpt lat="47.48005" lon="3.75039">
        <ele>168.37</ele>
        <time>2013-04-28T14:43:37Z</time>
      </trkpt>
      <trkpt lat="47.47995" lon="3.75033">
        <ele>169.33</ele>
        <time>2013-04-28T14:43:45Z</time>
      </trkpt>
      <trkpt lat="47.47989" lon="3.7503">
        <ele>169.81</ele>
        <time>2013-04-28T14:43:54Z</time>
      </trkpt>
      <trkpt lat="47.47986" lon="3.75025">
        <ele>170.29</ele>
        <time>2013-04-28T14:44:03Z</time>
      </trkpt>
      <trkpt lat="47.47975" lon="3.75027">
        <ele>169.81</ele>
        <time>2013-04-28T14:44:12Z</time>
      </trkpt>
      <trkpt lat="47.47962" lon="3.75035">
        <ele>169.33</ele>
        <time>2013-04-28T14:44:22Z</time>
      </trkpt>
      <trkpt lat="47.47951" lon="3.75046">
        <ele>168.37</ele>
        <time>2013-04-28T14:44:32Z</time>
      </trkpt>
      <trkpt lat="47.47941" lon="3.75053">
        <ele>168.37</ele>
        <time>2013-04-28T14:44:40Z</time>
      </trkpt>
      <trkpt lat="47.47932" lon="3.75052">
        <ele>166.45</ele>
        <time>2013-04-28T14:44:48Z</time>
      </trkpt>
      <trkpt lat="47.47921" lon="3.75054">
        <ele>166.45</ele>
        <time>2013-04-28T14:44:57Z</time>
      </trkpt>
      <trkpt lat="47.47907" lon="3.75056">
        <ele>164.52</ele>
        <time>2013-04-28T14:45:07Z</time>
      </trkpt>
      <trkpt lat="47.47894" lon="3.75057">
        <ele>163.56</ele>
        <time>2013-04-28T14:45:16Z</time>
      </trkpt>
      <trkpt lat="47.47879" lon="3.75054">
        <ele>162.6</ele>
        <time>2013-04-28T14:45:26Z</time>
      </trkpt>
      <trkpt lat="47.47866" lon="3.75048">
        <ele>162.12</ele>
        <time>2013-04-28T14:45:36Z</time>
      </trkpt>
      <trkpt lat="47.47853" lon="3.75042">
        <ele>161.64</ele>
        <time>2013-04-28T14:45:45Z</time>
      </trkpt>
      <trkpt lat="47.47839" lon="3.7504">
        <ele>161.64</ele>
        <time>2013-04-28T14:45:55Z</time>
      </trkpt>
      <trkpt lat="47.47825" lon="3.75039">
        <ele>159.24</ele>
        <time>2013-04-28T14:46:05Z</time>
      </trkpt>
      <trkpt lat="47.47815" lon="3.75037">
        <ele>161.16</ele>
        <time>2013-04-28T14:46:13Z</time>
      </trkpt>
      <trkpt lat="47.47801" lon="3.75045">
        <ele>160.68</ele>
        <time>2013-04-28T14:46:23Z</time>
      </trkpt>
      <trkpt lat="47.47792" lon="3.75055">
        <ele>160.68</ele>
        <time>2013-04-28T14:46:31Z</time>
      </trkpt>
      <trkpt lat="47.47784" lon="3.75068">
        <ele>160.68</ele>
        <time>2013-04-28T14:46:39Z</time>
      </trkpt>
      <trkpt lat="47.47776" lon="3.75082">
        <ele>161.64</ele>
        <time>2013-04-28T14:46:48Z</time>
      </trkpt>
      <trkpt lat="47.47766" lon="3.75093">
        <ele>163.08</ele>
        <time>2013-04-28T14:46:57Z</time>
      </trkpt>
      <trkpt lat="47.47753" lon="3.75108">
        <ele>164.52</ele>
        <time>2013-04-28T14:47:08Z</time>
      </trkpt>
      <trkpt lat="47.47741" lon="3.75118">
        <ele>165.48</ele>
        <time>2013-04-28T14:47:18Z</time>
      </trkpt>
      <trkpt lat="47.47732" lon="3.75126">
        <ele>166.93</ele>
        <time>2013-04-28T14:47:26Z</time>
      </trkpt>
      <trkpt lat="47.47722" lon="3.75134">
        <ele>167.41</ele>
        <time>2013-04-28T14:47:35Z</time>
      </trkpt>
      <trkpt lat="47.47713" lon="3.75135">
        <ele>169.33</ele>
        <time>2013-04-28T14:47:44Z</time>
      </trkpt>
      <trkpt lat="47.47701" lon="3.75131">
        <ele>170.29</ele>
        <time>2013-04-28T14:47:53Z</time>
      </trkpt>
      <trkpt lat="47.47698" lon="3.7513">
        <ele>170.77</ele>
        <time>2013-04-28T14:47:55Z</time>
      </trkpt>
      <trkpt lat="47.47694" lon="3.75128">
        <ele>171.25</ele>
        <time>2013-04-28T14:47:58Z</time>
      </trkpt>
      <trkpt lat="47.47682" lon="3.75122">
        <ele>172.69</ele>
        <time>2013-04-28T14:48:08Z</time>
      </trkpt>
      <trkpt lat="47.47671" lon="3.75118">
        <ele>173.66</ele>
        <time>2013-04-28T14:48:16Z</time>
      </trkpt>
      <trkpt lat="47.4766" lon="3.75113">
        <ele>174.62</ele>
        <time>2013-04-28T14:48:24Z</time>
      </trkpt>
      <trkpt lat="47.47648" lon="3.75107">
        <ele>175.58</ele>
        <time>2013-04-28T14:48:34Z</time>
      </trkpt>
      <trkpt lat="47.47641" lon="3.751">
        <ele>175.58</ele>
        <time>2013-04-28T14:48:42Z</time>
      </trkpt>
      <trkpt lat="47.47642" lon="3.75101">
        <ele>176.06</ele>
        <time>2013-04-28T14:48:54Z</time>
      </trkpt>
      <trkpt lat="47.47642" lon="3.75102">
        <ele>176.54</ele>
        <time>2013-04-28T14:49:15Z</time>
      </trkpt>
      <trkpt lat="47.4764" lon="3.75102">
        <ele>176.54</ele>
        <time>2013-04-28T14:49:32Z</time>
      </trkpt>
      <trkpt lat="47.47627" lon="3.75097">
        <ele>177.02</ele>
        <time>2013-04-28T14:49:41Z</time>
      </trkpt>
      <trkpt lat="47.47613" lon="3.7509">
        <ele>177.02</ele>
        <time>2013-04-28T14:49:50Z</time>
      </trkpt>
      <trkpt lat="47.47602" lon="3.75085">
        <ele>177.98</ele>
        <time>2013-04-28T14:49:58Z</time>
      </trkpt>
      <trkpt lat="47.47592" lon="3.7508">
        <ele>178.46</ele>
        <time>2013-04-28T14:50:06Z</time>
      </trkpt>
      <trkpt lat="47.47579" lon="3.75073">
        <ele>179.42</ele>
        <time>2013-04-28T14:50:16Z</time>
      </trkpt>
      <trkpt lat="47.47564" lon="3.75065">
        <ele>179.9</ele>
        <time>2013-04-28T14:50:26Z</time>
      </trkpt>
      <trkpt lat="47.47552" lon="3.75057">
        <ele>180.87</ele>
        <time>2013-04-28T14:50:35Z</time>
      </trkpt>
      <trkpt lat="47.47541" lon="3.75051">
        <ele>180.87</ele>
        <time>2013-04-28T14:50:43Z</time>
      </trkpt>
      <trkpt lat="47.47526" lon="3.75041">
        <ele>181.83</ele>
        <time>2013-04-28T14:50:54Z</time>
      </trkpt>
      <trkpt lat="47.47512" lon="3.75034">
        <ele>182.31</ele>
        <time>2013-04-28T14:51:04Z</time>
      </trkpt>
      <trkpt lat="47.475" lon="3.75027">
        <ele>182.31</ele>
        <time>2013-04-28T14:51:13Z</time>
      </trkpt>
      <trkpt lat="47.47488" lon="3.75024">
        <ele>182.79</ele>
        <time>2013-04-28T14:51:21Z</time>
      </trkpt>
      <trkpt lat="47.47474" lon="3.7502">
        <ele>183.27</ele>
        <time>2013-04-28T14:51:31Z</time>
      </trkpt>
      <trkpt lat="47.4746" lon="3.75015">
        <ele>184.23</ele>
        <time>2013-04-28T14:51:41Z</time>
      </trkpt>
      <trkpt lat="47.47444" lon="3.75012">
        <ele>184.71</ele>
        <time>2013-04-28T14:51:52Z</time>
      </trkpt>
      <trkpt lat="47.47429" lon="3.75005">
        <ele>184.71</ele>
        <time>2013-04-28T14:52:02Z</time>
      </trkpt>
      <trkpt lat="47.47417" lon="3.75002">
        <ele>185.19</ele>
        <time>2013-04-28T14:52:10Z</time>
      </trkpt>
      <trkpt lat="47.47406" lon="3.74995">
        <ele>186.15</ele>
        <time>2013-04-28T14:52:19Z</time>
      </trkpt>
      <trkpt lat="47.47394" lon="3.74991">
        <ele>186.15</ele>
        <time>2013-04-28T14:52:28Z</time>
      </trkpt>
      <trkpt lat="47.47381" lon="3.74987">
        <ele>186.63</ele>
        <time>2013-04-28T14:52:37Z</time>
      </trkpt>
      <trkpt lat="47.4737" lon="3.74983">
        <ele>187.11</ele>
        <time>2013-04-28T14:52:42Z</time>
      </trkpt>
      <trkpt lat="47.47356" lon="3.74982">
        <ele>188.08</ele>
        <time>2013-04-28T14:52:51Z</time>
      </trkpt>
      <trkpt lat="47.47341" lon="3.74982">
        <ele>188.56</ele>
        <time>2013-04-28T14:53:01Z</time>
      </trkpt>
      <trkpt lat="47.47324" lon="3.74982">
        <ele>189.04</ele>
        <time>2013-04-28T14:53:13Z</time>
      </trkpt>
      <trkpt lat="47.47308" lon="3.74983">
        <ele>190</ele>
        <time>2013-04-28T14:53:24Z</time>
      </trkpt>
      <trkpt lat="47.47295" lon="3.74984">
        <ele>190</ele>
        <time>2013-04-28T14:53:33Z</time>
      </trkpt>
      <trkpt lat="47.47279" lon="3.74987">
        <ele>191.44</ele>
        <time>2013-04-28T14:53:44Z</time>
      </trkpt>
      <trkpt lat="47.47266" lon="3.7499">
        <ele>191.92</ele>
        <time>2013-04-28T14:53:53Z</time>
      </trkpt>
      <trkpt lat="47.47253" lon="3.74993">
        <ele>191.44</ele>
        <time>2013-04-28T14:54:02Z</time>
      </trkpt>
      <trkpt lat="47.47241" lon="3.74993">
        <ele>192.88</ele>
        <time>2013-04-28T14:54:10Z</time>
      </trkpt>
      <trkpt lat="47.47228" lon="3.74998">
        <ele>194.32</ele>
        <time>2013-04-28T14:54:16Z</time>
      </trkpt>
      <trkpt lat="47.47224" lon="3.75">
        <ele>195.28</ele>
        <time>2013-04-28T14:54:18Z</time>
      </trkpt>
      <trkpt lat="47.47211" lon="3.75002">
        <ele>197.21</ele>
        <time>2013-04-28T14:54:25Z</time>
      </trkpt>
      <trkpt lat="47.47202" lon="3.75004">
        <ele>198.65</ele>
        <time>2013-04-28T14:54:34Z</time>
      </trkpt>
      <trkpt lat="47.47197" lon="3.75004">
        <ele>199.61</ele>
        <time>2013-04-28T14:54:38Z</time>
      </trkpt>
      <trkpt lat="47.47188" lon="3.75005">
        <ele>200.57</ele>
        <time>2013-04-28T14:54:45Z</time>
      </trkpt>
      <trkpt lat="47.47178" lon="3.75007">
        <ele>202.01</ele>
        <time>2013-04-28T14:54:53Z</time>
      </trkpt>
      <trkpt lat="47.4717" lon="3.75008">
        <ele>202.98</ele>
        <time>2013-04-28T14:55:01Z</time>
      </trkpt>
      <trkpt lat="47.47162" lon="3.75009">
        <ele>204.42</ele>
        <time>2013-04-28T14:55:07Z</time>
      </trkpt>
      <trkpt lat="47.47153" lon="3.7501">
        <ele>205.38</ele>
        <time>2013-04-28T14:55:14Z</time>
      </trkpt>
      <trkpt lat="47.47147" lon="3.75009">
        <ele>205.86</ele>
        <time>2013-04-28T14:55:18Z</time>
      </trkpt>
      <trkpt lat="47.47138" lon="3.75009">
        <ele>206.82</ele>
        <time>2013-04-28T14:55:24Z</time>
      </trkpt>
      <trkpt lat="47.47126" lon="3.75015">
        <ele>208.26</ele>
        <time>2013-04-28T14:55:33Z</time>
      </trkpt>
      <trkpt lat="47.47116" lon="3.75022">
        <ele>210.19</ele>
        <time>2013-04-28T14:55:41Z</time>
      </trkpt>
      <trkpt lat="47.47106" lon="3.7503">
        <ele>211.63</ele>
        <time>2013-04-28T14:55:50Z</time>
      </trkpt>
      <trkpt lat="47.471" lon="3.75036">
        <ele>210.67</ele>
        <time>2013-04-28T14:55:56Z</time>
      </trkpt>
      <trkpt lat="47.47096" lon="3.7504">
        <ele>213.55</ele>
        <time>2013-04-28T14:56:00Z</time>
      </trkpt>
      <trkpt lat="47.47085" lon="3.75045">
        <ele>214.03</ele>
        <time>2013-04-28T14:56:09Z</time>
      </trkpt>
      <trkpt lat="47.47074" lon="3.75048">
        <ele>214.99</ele>
        <time>2013-04-28T14:56:18Z</time>
      </trkpt>
      <trkpt lat="47.47066" lon="3.7505">
        <ele>215.95</ele>
        <time>2013-04-28T14:56:25Z</time>
      </trkpt>
      <trkpt lat="47.47065" lon="3.7505">
        <ele>215.95</ele>
        <time>2013-04-28T14:56:26Z</time>
      </trkpt>
      <trkpt lat="47.47055" lon="3.75051">
        <ele>217.4</ele>
        <time>2013-04-28T14:56:35Z</time>
      </trkpt>
      <trkpt lat="47.47047" lon="3.75051">
        <ele>217.88</ele>
        <time>2013-04-28T14:56:42Z</time>
      </trkpt>
      <trkpt lat="47.47037" lon="3.75052">
        <ele>219.8</ele>
        <time>2013-04-28T14:56:52Z</time>
      </trkpt>
      <trkpt lat="47.47028" lon="3.75053">
        <ele>221.24</ele>
        <time>2013-04-28T14:57:00Z</time>
      </trkpt>
      <trkpt lat="47.47027" lon="3.75053">
        <ele>221.24</ele>
        <time>2013-04-28T14:57:01Z</time>
      </trkpt>
      <trkpt lat="47.47018" lon="3.75052">
        <ele>222.68</ele>
        <time>2013-04-28T14:57:09Z</time>
      </trkpt>
      <trkpt lat="47.47007" lon="3.75053">
        <ele>223.64</ele>
        <time>2013-04-28T14:57:19Z</time>
      </trkpt>
      <trkpt lat="47.47002" lon="3.75054">
        <ele>224.61</ele>
        <time>2013-04-28T14:57:22Z</time>
      </trkpt>
      <trkpt lat="47.47001" lon="3.75053">
        <ele>224.61</ele>
        <time>2013-04-28T14:57:23Z</time>
      </trkpt>
      <trkpt lat="47.46993" lon="3.75055">
        <ele>225.57</ele>
        <time>2013-04-28T14:57:30Z</time>
      </trkpt>
      <trkpt lat="47.46986" lon="3.75058">
        <ele>226.05</ele>
        <time>2013-04-28T14:57:38Z</time>
      </trkpt>
      <trkpt lat="47.46977" lon="3.7506">
        <ele>227.97</ele>
        <time>2013-04-28T14:57:46Z</time>
      </trkpt>
      <trkpt lat="47.46968" lon="3.75061">
        <ele>229.41</ele>
        <time>2013-04-28T14:57:54Z</time>
      </trkpt>
      <trkpt lat="47.46958" lon="3.7506">
        <ele>231.33</ele>
        <time>2013-04-28T14:58:04Z</time>
      </trkpt>
      <trkpt lat="47.46952" lon="3.75059">
        <ele>232.3</ele>
        <time>2013-04-28T14:58:10Z</time>
      </trkpt>
      <trkpt lat="47.46945" lon="3.75061">
        <ele>234.7</ele>
        <time>2013-04-28T14:58:17Z</time>
      </trkpt>
      <trkpt lat="47.46944" lon="3.75061">
        <ele>234.7</ele>
        <time>2013-04-28T14:58:18Z</time>
      </trkpt>
      <trkpt lat="47.46939" lon="3.75061">
        <ele>235.66</ele>
        <time>2013-04-28T14:58:23Z</time>
      </trkpt>
      <trkpt lat="47.46932" lon="3.75061">
        <ele>236.62</ele>
        <time>2013-04-28T14:58:31Z</time>
      </trkpt>
      <trkpt lat="47.46926" lon="3.75058">
        <ele>238.06</ele>
        <time>2013-04-28T14:58:39Z</time>
      </trkpt>
      <trkpt lat="47.46919" lon="3.75052">
        <ele>239.99</ele>
        <time>2013-04-28T14:58:47Z</time>
      </trkpt>
      <trkpt lat="47.46916" lon="3.75048">
        <ele>240.95</ele>
        <time>2013-04-28T14:58:53Z</time>
      </trkpt>
      <trkpt lat="47.46911" lon="3.75043">
        <ele>242.39</ele>
        <time>2013-04-28T14:59:00Z</time>
      </trkpt>
      <trkpt lat="47.46905" lon="3.75036">
        <ele>244.31</ele>
        <time>2013-04-28T14:59:09Z</time>
      </trkpt>
      <trkpt lat="47.46903" lon="3.75032">
        <ele>245.27</ele>
        <time>2013-04-28T14:59:14Z</time>
      </trkpt>
      <trkpt lat="47.46897" lon="3.75024">
        <ele>246.23</ele>
        <time>2013-04-28T14:59:23Z</time>
      </trkpt>
      <trkpt lat="47.46892" lon="3.75015">
        <ele>248.64</ele>
        <time>2013-04-28T14:59:32Z</time>
      </trkpt>
      <trkpt lat="47.46887" lon="3.75005">
        <ele>249.6</ele>
        <time>2013-04-28T14:59:40Z</time>
      </trkpt>
      <trkpt lat="47.46882" lon="3.74997">
        <ele>251.52</ele>
        <time>2013-04-28T14:59:49Z</time>
      </trkpt>
      <trkpt lat="47.46877" lon="3.74989">
        <ele>252.96</ele>
        <time>2013-04-28T14:59:57Z</time>
      </trkpt>
      <trkpt lat="47.46873" lon="3.74979">
        <ele>254.89</ele>
        <time>2013-04-28T15:00:06Z</time>
      </trkpt>
      <trkpt lat="47.46869" lon="3.74973">
        <ele>256.81</ele>
        <time>2013-04-28T15:00:14Z</time>
      </trkpt>
      <trkpt lat="47.46866" lon="3.74965">
        <ele>258.25</ele>
        <time>2013-04-28T15:00:23Z</time>
      </trkpt>
      <trkpt lat="47.46861" lon="3.74955">
        <ele>260.17</ele>
        <time>2013-04-28T15:00:32Z</time>
      </trkpt>
      <trkpt lat="47.46855" lon="3.74944">
        <ele>261.14</ele>
        <time>2013-04-28T15:00:41Z</time>
      </trkpt>
      <trkpt lat="47.46851" lon="3.74935">
        <ele>263.06</ele>
        <time>2013-04-28T15:00:50Z</time>
      </trkpt>
      <trkpt lat="47.46846" lon="3.74927">
        <ele>264.5</ele>
        <time>2013-04-28T15:00:59Z</time>
      </trkpt>
      <trkpt lat="47.46841" lon="3.7492">
        <ele>265.46</ele>
        <time>2013-04-28T15:01:07Z</time>
      </trkpt>
      <trkpt lat="47.46837" lon="3.7491">
        <ele>266.9</ele>
        <time>2013-04-28T15:01:16Z</time>
      </trkpt>
      <trkpt lat="47.4683" lon="3.749">
        <ele>268.35</ele>
        <time>2013-04-28T15:01:25Z</time>
      </trkpt>
      <trkpt lat="47.46825" lon="3.7489">
        <ele>269.79</ele>
        <time>2013-04-28T15:01:34Z</time>
      </trkpt>
      <trkpt lat="47.46819" lon="3.74884">
        <ele>271.23</ele>
        <time>2013-04-28T15:01:43Z</time>
      </trkpt>
      <trkpt lat="47.46812" lon="3.74877">
        <ele>272.67</ele>
        <time>2013-04-28T15:01:51Z</time>
      </trkpt>
      <trkpt lat="47.46805" lon="3.7487">
        <ele>275.07</ele>
        <time>2013-04-28T15:02:01Z</time>
      </trkpt>
      <trkpt lat="47.46799" lon="3.7486">
        <ele>276.04</ele>
        <time>2013-04-28T15:02:11Z</time>
      </trkpt>
      <trkpt lat="47.46793" lon="3.74853">
        <ele>277.96</ele>
        <time>2013-04-28T15:02:20Z</time>
      </trkpt>
      <trkpt lat="47.46785" lon="3.74844">
        <ele>279.88</ele>
        <time>2013-04-28T15:02:30Z</time>
      </trkpt>
      <trkpt lat="47.46778" lon="3.74837">
        <ele>281.32</ele>
        <time>2013-04-28T15:02:38Z</time>
      </trkpt>
      <trkpt lat="47.46773" lon="3.74833">
        <ele>282.77</ele>
        <time>2013-04-28T15:02:47Z</time>
      </trkpt>
      <trkpt lat="47.46768" lon="3.74826">
        <ele>283.73</ele>
        <time>2013-04-28T15:02:55Z</time>
      </trkpt>
      <trkpt lat="47.46762" lon="3.7482">
        <ele>284.69</ele>
        <time>2013-04-28T15:03:03Z</time>
      </trkpt>
      <trkpt lat="47.46757" lon="3.74816">
        <ele>286.13</ele>
        <time>2013-04-28T15:03:10Z</time>
      </trkpt>
      <trkpt lat="47.46749" lon="3.74809">
        <ele>287.09</ele>
        <time>2013-04-28T15:03:20Z</time>
      </trkpt>
      <trkpt lat="47.4674" lon="3.74798">
        <ele>289.01</ele>
        <time>2013-04-28T15:03:32Z</time>
      </trkpt>
      <trkpt lat="47.46734" lon="3.74789">
        <ele>290.46</ele>
        <time>2013-04-28T15:03:41Z</time>
      </trkpt>
      <trkpt lat="47.4673" lon="3.74781">
        <ele>291.42</ele>
        <time>2013-04-28T15:03:49Z</time>
      </trkpt>
      <trkpt lat="47.46723" lon="3.74772">
        <ele>293.34</ele>
        <time>2013-04-28T15:03:58Z</time>
      </trkpt>
      <trkpt lat="47.46717" lon="3.74767">
        <ele>295.26</ele>
        <time>2013-04-28T15:04:07Z</time>
      </trkpt>
      <trkpt lat="47.4672" lon="3.74768">
        <ele>294.78</ele>
        <time>2013-04-28T15:04:20Z</time>
      </trkpt>
      <trkpt lat="47.46716" lon="3.74764">
        <ele>295.26</ele>
        <time>2013-04-28T15:04:30Z</time>
      </trkpt>
      <trkpt lat="47.4671" lon="3.74764">
        <ele>296.22</ele>
        <time>2013-04-28T15:04:38Z</time>
      </trkpt>
      <trkpt lat="47.46699" lon="3.74764">
        <ele>297.67</ele>
        <time>2013-04-28T15:04:50Z</time>
      </trkpt>
      <trkpt lat="47.46688" lon="3.74761">
        <ele>299.11</ele>
        <time>2013-04-28T15:05:01Z</time>
      </trkpt>
      <trkpt lat="47.46682" lon="3.74762">
        <ele>301.03</ele>
        <time>2013-04-28T15:05:11Z</time>
      </trkpt>
      <trkpt lat="47.46672" lon="3.74764">
        <ele>303.43</ele>
        <time>2013-04-28T15:05:23Z</time>
      </trkpt>
      <trkpt lat="47.46667" lon="3.7477">
        <ele>304.39</ele>
        <time>2013-04-28T15:05:31Z</time>
      </trkpt>
      <trkpt lat="47.46659" lon="3.74775">
        <ele>304.88</ele>
        <time>2013-04-28T15:05:42Z</time>
      </trkpt>
      <trkpt lat="47.46651" lon="3.74784">
        <ele>305.36</ele>
        <time>2013-04-28T15:05:54Z</time>
      </trkpt>
      <trkpt lat="47.46642" lon="3.74784">
        <ele>305.84</ele>
        <time>2013-04-28T15:06:02Z</time>
      </trkpt>
      <trkpt lat="47.4664" lon="3.74774">
        <ele>305.36</ele>
        <time>2013-04-28T15:06:09Z</time>
      </trkpt>
      <trkpt lat="47.46635" lon="3.74764">
        <ele>305.36</ele>
        <time>2013-04-28T15:06:16Z</time>
      </trkpt>
      <trkpt lat="47.4663" lon="3.74758">
        <ele>305.36</ele>
        <time>2013-04-28T15:06:22Z</time>
      </trkpt>
      <trkpt lat="47.46622" lon="3.74754">
        <ele>305.36</ele>
        <time>2013-04-28T15:06:30Z</time>
      </trkpt>
      <trkpt lat="47.46619" lon="3.74752">
        <ele>305.36</ele>
        <time>2013-04-28T15:06:36Z</time>
      </trkpt>
      <trkpt lat="47.46612" lon="3.7474">
        <ele>305.36</ele>
        <time>2013-04-28T15:06:45Z</time>
      </trkpt>
      <trkpt lat="47.46608" lon="3.7473">
        <ele>304.88</ele>
        <time>2013-04-28T15:06:55Z</time>
      </trkpt>
      <trkpt lat="47.46605" lon="3.74722">
        <ele>303.91</ele>
        <time>2013-04-28T15:07:03Z</time>
      </trkpt>
      <trkpt lat="47.46598" lon="3.74714">
        <ele>303.91</ele>
        <time>2013-04-28T15:07:13Z</time>
      </trkpt>
      <trkpt lat="47.46594" lon="3.7469">
        <ele>302.95</ele>
        <time>2013-04-28T15:07:25Z</time>
      </trkpt>
      <trkpt lat="47.46594" lon="3.74671">
        <ele>301.99</ele>
        <time>2013-04-28T15:07:35Z</time>
      </trkpt>
      <trkpt lat="47.46591" lon="3.74654">
        <ele>301.03</ele>
        <time>2013-04-28T15:07:46Z</time>
      </trkpt>
      <trkpt lat="47.46584" lon="3.74639">
        <ele>300.55</ele>
        <time>2013-04-28T15:07:57Z</time>
      </trkpt>
      <trkpt lat="47.46579" lon="3.74625">
        <ele>299.11</ele>
        <time>2013-04-28T15:08:07Z</time>
      </trkpt>
      <trkpt lat="47.46577" lon="3.74617">
        <ele>298.63</ele>
        <time>2013-04-28T15:08:14Z</time>
      </trkpt>
      <trkpt lat="47.46572" lon="3.74602">
        <ele>297.67</ele>
        <time>2013-04-28T15:08:24Z</time>
      </trkpt>
      <trkpt lat="47.46568" lon="3.74586">
        <ele>296.7</ele>
        <time>2013-04-28T15:08:35Z</time>
      </trkpt>
      <trkpt lat="47.4657" lon="3.74572">
        <ele>295.74</ele>
        <time>2013-04-28T15:08:47Z</time>
      </trkpt>
      <trkpt lat="47.46571" lon="3.74567">
        <ele>295.74</ele>
        <time>2013-04-28T15:08:57Z</time>
      </trkpt>
      <trkpt lat="47.46573" lon="3.74573">
        <ele>296.22</ele>
        <time>2013-04-28T15:09:09Z</time>
      </trkpt>
      <trkpt lat="47.46574" lon="3.74568">
        <ele>295.74</ele>
        <time>2013-04-28T15:09:20Z</time>
      </trkpt>
      <trkpt lat="47.46573" lon="3.74576">
        <ele>295.74</ele>
        <time>2013-04-28T15:09:32Z</time>
      </trkpt>
      <trkpt lat="47.46572" lon="3.74573">
        <ele>295.74</ele>
        <time>2013-04-28T15:09:43Z</time>
      </trkpt>
      <trkpt lat="47.46575" lon="3.74575">
        <ele>295.26</ele>
        <time>2013-04-28T15:09:52Z</time>
      </trkpt>
      <trkpt lat="47.46574" lon="3.74576">
        <ele>295.26</ele>
        <time>2013-04-28T15:10:06Z</time>
      </trkpt>
      <trkpt lat="47.46573" lon="3.74579">
        <ele>295.26</ele>
        <time>2013-04-28T15:10:25Z</time>
      </trkpt>
      <trkpt lat="47.46572" lon="3.74582">
        <ele>296.22</ele>
        <time>2013-04-28T15:10:42Z</time>
      </trkpt>
      <trkpt lat="47.46572" lon="3.74584">
        <ele>296.22</ele>
        <time>2013-04-28T15:10:59Z</time>
      </trkpt>
      <trkpt lat="47.46572" lon="3.74583">
        <ele>296.7</ele>
        <time>2013-04-28T15:11:07Z</time>
      </trkpt>
    </trkseg>
  </trk>
</gpx>